Date time  Uvelocity_cm/s Vvelocity_cm/s W_velocity_cm/s horizontalSpeedCareful_cm/s TotalSpeedCareful_cm/s HorizontalWindDirection_deg WindElevation_deg SpeedOfSound_cm/sec Temperature_Kelvin pressure_mb2009/04/23 07:59:59.9      33   -200     23    203    205 170.4   6.7  33986  286.62 0855.31
2009/04/23 08:00:00.0      -3   -202     15    203    204 181.1   4.4  33980  286.54 0855.31
2009/04/23 08:00:00.1      49   -215     -4    221    222 167.1  -1.3  33984  286.59 0855.31
2009/04/23 08:00:00.2      61   -193     17    203    204 162.4   4.9  33986  286.62 0855.31
2009/04/23 08:00:00.3      55   -187      0    196    197 163.5   0.0  33984  286.59 0855.31
2009/04/23 08:00:00.4      65   -197    -41    208    213 161.7 -11.3  33982  286.56 0855.31
2009/04/23 08:00:00.5      67   -160    -14    174    175 157.1  -4.9  33986  286.62 0855.31
2009/04/23 08:00:00.6      70   -154    -21    170    172 155.5  -7.3  33982  286.56 0855.31
2009/04/23 08:00:00.7      62   -131     -5    146    147 154.7  -2.2  33986  286.62 0855.31
2009/04/23 08:00:00.8      70   -104     16    126    128 146.2   7.5  33982  286.57 0855.31
2009/04/23 08:00:00.9      57   -144    -17    156    158 158.2  -6.5  33980  286.54 0855.31
2009/04/23 08:00:01.0      73   -134     10    153    154 151.5   3.8  33990  286.71 0855.31
2009/04/23 08:00:01.1      82   -138     11    161    162 149.3   4.2  33994  286.78 0855.31
2009/04/23 08:00:01.2      89   -145     30    171    174 148.6  10.1  33992  286.73 0855.31
2009/04/23 08:00:01.3      55   -144     14    155    156 159.1   5.4  33992  286.73 0855.31
2009/04/23 08:00:01.4      14   -132     34    133    138 173.8  14.7  33994  286.76 0855.31
2009/04/23 08:00:01.5       0   -147     32    148    152 180.0  12.2  33992  286.73 0855.31
2009/04/23 08:00:01.6      -9   -132     31    133    137 184.0  13.1  33992  286.73 0855.31
2009/04/23 08:00:01.7     -21   -141     70    143    159 188.5  28.0  33990  286.69 0855.31
2009/04/23 08:00:01.8     -26   -139     89    142    167 190.7  35.2  33992  286.73 0855.31
2009/04/23 08:00:01.9     -11   -149     59    150    161 184.5  22.5  33994  286.76 0855.31
2009/04/23 08:00:02.0      -8   -162     57    163    173 183.1  19.4  33992  286.73 0855.31
2009/04/23 08:00:02.1      13   -116     88    117    146 173.3  40.7  33994  286.76 0855.31
2009/04/23 08:00:02.2       6    -98     80     99    127 176.0  43.3  33992  286.74 0855.31
2009/04/23 08:00:02.3     -16    -98     51    100    112 189.8  28.7  33992  286.74 0855.31
2009/04/23 08:00:02.4     -21   -112     26    114    118 190.7  13.1  33994  286.78 0855.31
2009/04/23 08:00:02.5      -5   -125     44    126    134 182.6  19.4  33994  286.78 0855.31
2009/04/23 08:00:02.6      -2   -134     29    135    139 180.9  12.2  33994  286.78 0855.30
2009/04/23 08:00:02.7     -42   -134      7    141    142 197.4   2.9  33994  286.78 0855.30
2009/04/23 08:00:02.8     -55   -136     36    147    152 202.3  13.9  33992  286.74 0855.30
2009/04/23 08:00:02.9     -64   -116     36    133    138 209.0  15.3  33996  286.79 0855.30
2009/04/23 08:00:03.0    -110   -154     24    190    192 215.6   7.5  33988  286.67 0855.30
2009/04/23 08:00:03.1     -61   -164     43    176    182 200.5  13.7  33990  286.71 0855.30
2009/04/23 08:00:03.2     -50   -148     19    157    159 198.7   6.9  33992  286.73 0855.30
2009/04/23 08:00:03.3     -52   -137     26    147    150 200.9  10.1  33988  286.67 0855.30
2009/04/23 08:00:03.4     -67   -131     17    148    150 207.1   6.9  33984  286.61 0855.30
2009/04/23 08:00:03.5     -93   -106    -33    142    146 221.4 -13.4  33984  286.61 0855.30
2009/04/23 08:00:03.6     -84    -84    -23    119    122 225.0 -11.3  33984  286.59 0855.30
2009/04/23 08:00:03.7     -63    -87    -30    108    113 216.1 -15.5  33982  286.56 0855.30
2009/04/23 08:00:03.8     -16   -117     13    119    120 188.0   6.5  33986  286.64 0855.30
2009/04/23 08:00:03.9     -27    -92     -3     97     98 196.5  -2.2  33988  286.66 0855.30
2009/04/23 08:00:04.0     -23    -95    -21     98    101 193.8 -12.4  33986  286.64 0855.30
2009/04/23 08:00:04.1     -10    -98     -2     99    100 186.2  -1.3  33988  286.66 0855.30
2009/04/23 08:00:04.2     -37   -106     13    113    114 199.2   6.9  33990  286.69 0855.30
2009/04/23 08:00:04.3      -1   -101    105    102    146 180.9  50.7  33990  286.71 0855.30
2009/04/23 08:00:04.4     -17   -138     32    140    144 187.1  13.1  33992  286.73 0855.30
2009/04/23 08:00:04.5      37   -113     65    120    136 161.7  30.8  33990  286.69 0855.30
2009/04/23 08:00:04.6      18    -71     78     74    107 165.7  51.6  33992  286.74 0855.30
2009/04/23 08:00:04.7     -14    -71     79     73    107 191.6  52.2  33992  286.74 0855.30
2009/04/23 08:00:04.8      -2    -16    103     17    104 188.0  90.0  33992  286.74 0855.30
2009/04/23 08:00:04.9     -55    -23    105     60    120 247.4  67.7  33992  286.74 0855.30
2009/04/23 08:00:05.0      51    -10     70     53     87 101.5  59.0  33990  286.69 0855.30
2009/04/23 08:00:05.1      39    -54     82     67    105 143.9  56.4  33988  286.67 0855.30
2009/04/23 08:00:05.2      -5    -72    101     73    124 184.5  60.6  33986  286.62 0855.30
2009/04/23 08:00:05.3      79    -22     61     83    103 105.9  40.1  33988  286.66 0855.30
2009/04/23 08:00:05.4      37    -42     84     57    101 138.6  62.6  33986  286.62 0855.30
2009/04/23 08:00:05.5       5    -82     80     83    115 176.4  49.4  33986  286.62 0855.30
2009/04/23 08:00:05.6      58    -54     57     80     98 133.2  39.5  33986  286.62 0855.30
2009/04/23 08:00:05.7      26    -46     39     54     66 150.1  39.5  33988  286.67 0855.30
2009/04/23 08:00:05.8      16    -38     36     42     55 156.4  44.8  33986  286.62 0855.30
2009/04/23 08:00:05.9      -1    -49     44     50     66 181.8  46.9  33984  286.61 0855.30
2009/04/23 08:00:06.0      21    -46     55     51     75 154.6  52.2  33986  286.64 0855.30
2009/04/23 08:00:06.1      29     -9     56     31     64 108.4  68.8  33988  286.67 0855.30
2009/04/23 08:00:06.2      -8    -24     98     26    101 198.5  84.9  33990  286.71 0855.30
2009/04/23 08:00:06.3      30     22     78     38     86  54.0  72.4  33992  286.73 0855.30
2009/04/23 08:00:06.4       2    -77     57     78     96 178.2  39.7  33990  286.71 0855.30
2009/04/23 08:00:06.5       6    -94     69     95    117 176.0  39.7  33992  286.74 0855.30
2009/04/23 08:00:06.6      21    -64     62     68     92 161.5  47.5  33992  286.73 0855.31
2009/04/23 08:00:06.7      35    -64     55     74     92 151.0  40.7  33990  286.69 0855.31
2009/04/23 08:00:06.8      30    -80     50     86     99 159.1  32.9  33986  286.62 0855.31
2009/04/23 08:00:06.9      26    -64     46     70     83 158.1  36.0  33982  286.57 0855.31
2009/04/23 08:00:07.0      28    -16     46     33     56 120.7  61.5  33984  286.59 0855.31
2009/04/23 08:00:07.1      38    -12     50     40     64 107.7  56.4  33986  286.64 0855.31
2009/04/23 08:00:07.2      14    -30     45     34     56 154.7  59.4  33982  286.57 0855.31
2009/04/23 08:00:07.3      14      3     29     15     32  74.9  70.8  33984  286.59 0855.31
2009/04/23 08:00:07.4      32     32     40     46     60  44.2  45.8  33984  286.59 0855.31
2009/04/23 08:00:07.5      34     -3     52     35     62  96.1  62.6  33980  286.54 0855.31
2009/04/23 08:00:07.6      46     16     72     49     87  70.9  63.2  33980  286.52 0855.31
2009/04/23 08:00:07.7      69     14     74     71    102  78.6  51.2  33982  286.56 0855.31
2009/04/23 08:00:07.8      53      0     59     54     79  90.0  52.2  33984  286.59 0855.31
2009/04/23 08:00:07.9      30     10     56     32     64  70.0  67.7  33984  286.59 0855.31
2009/04/23 08:00:08.0      25     15     46     30     54  59.3  64.6  33984  286.59 0855.31
2009/04/23 08:00:08.1       5     17     27     18     32  18.3  64.6  33984  286.61 0855.31
2009/04/23 08:00:08.2     -12     27     23     30     37 334.5  41.7  33984  286.61 0855.31
2009/04/23 08:00:08.3     -12     15     33     20     38 320.4  64.7  33986  286.64 0855.31
2009/04/23 08:00:08.4      42      3     49     43     65  85.6  53.3  33984  286.61 0855.31
2009/04/23 08:00:08.5      73     -5     64     74     97  94.4  45.8  33986  286.62 0855.31
2009/04/23 08:00:08.6      76    -15     82     78    113 101.4  51.2  33986  286.64 0855.31
2009/04/23 08:00:08.7      41     -7     53     42     67 100.6  57.5  33988  286.66 0855.31
2009/04/23 08:00:08.8      39      0     46     40     60  90.0  54.3  33986  286.64 0855.31
2009/04/23 08:00:08.9      17      5     37     18     41  71.8  72.9  33986  286.64 0855.31
2009/04/23 08:00:09.0      -9     12     30     16     34 323.9  70.8  33988  286.67 0855.31
2009/04/23 08:00:09.1       1     12     22     13     25   8.0  64.7  33988  286.66 0855.31
2009/04/23 08:00:09.2       9      8     16     13     20  46.7  56.4  33988  286.66 0855.31
2009/04/23 08:00:09.3      -1     11     31     12     33 352.0  81.2  33988  286.66 0855.31
2009/04/23 08:00:09.4       9     10     32     14     34  43.2  73.1  33994  286.76 0855.31
2009/04/23 08:00:09.5      50      7     55     51     75  82.1  52.2  33992  286.74 0855.31
2009/04/23 08:00:09.6      54      0     48     55     73  90.8  45.8  33992  286.74 0855.31
2009/04/23 08:00:09.7      72     -5     57     73     92  94.4  42.7  33990  286.71 0855.31
2009/04/23 08:00:09.8      90    -12     40     91     99  97.9  24.6  33992  286.74 0855.31
2009/04/23 08:00:09.9     101     22     57    104    118  77.6  31.3  33992  286.73 0855.31
2009/04/23 08:00:10.0      72     38     44     82     93  62.0  30.3  33992  286.73 0855.31
2009/04/23 08:00:10.1      87    -12     58     88    105  98.4  36.0  33992  286.73 0855.31
2009/04/23 08:00:10.2      97    -16     94     99    136  99.7  49.0  33990  286.71 0855.31
2009/04/23 08:00:10.3     131      5     95    132    162  87.4  39.1  33992  286.73 0855.31
2009/04/23 08:00:10.5     110     15    100    112    150  82.1  46.4  33994  286.76 0855.31
2009/04/23 08:00:10.6      91      7     61     92    110  85.2  36.0  33992  286.73 0855.31
2009/04/23 08:00:10.6      96      0     40     97    104  90.0  23.0  33992  286.73 0855.32
2009/04/23 08:00:10.7      56    -11     16     58     61 101.5  15.3  33992  286.74 0855.32
2009/04/23 08:00:10.8      47     16     67     50     83  70.9  59.4  33990  286.69 0855.32
2009/04/23 08:00:10.9      23     15     75     28     80  57.5  79.2  33992  286.73 0855.32
2009/04/23 08:00:11.0      44      0     70     45     83  90.0  64.1  33988  286.67 0855.32
2009/04/23 08:00:11.1      40    -19     78     45     90 115.3  67.2  33990  286.69 0855.32
2009/04/23 08:00:11.2      84     -7     65     85    107  95.2  41.2  33992  286.74 0855.32
2009/04/23 08:00:11.3      66    -22     69     70     98 108.6  50.0  33996  286.81 0855.32
2009/04/23 08:00:11.5      27    -27     61     39     72 135.0  64.6  33994  286.76 0855.32
2009/04/23 08:00:11.5      43    -54     52     70     87 141.3  40.7  33998  286.83 0855.32
2009/04/23 08:00:11.7      84    -57     57    102    116 124.2  31.4  33994  286.78 0855.32
2009/04/23 08:00:11.8      68    -57     61     90    108 130.0  37.0  33994  286.76 0855.32
2009/04/23 08:00:11.8      67    -55     60     88    106 129.5  37.6  33992  286.74 0855.32
2009/04/23 08:00:11.9      60    -24     84     65    106 111.7  58.5  33998  286.83 0855.32
2009/04/23 08:00:12.0      49    -15     82     52     97 107.7  64.7  33996  286.79 0855.32
2009/04/23 08:00:12.1      25    -39     74     47     87 147.4  64.7  33996  286.79 0855.32
2009/04/23 08:00:12.2      66      5     77     67    102  85.7  54.3  33994  286.78 0855.32
2009/04/23 08:00:12.3      66    -26     90     72    115 111.7  56.4  33996  286.81 0855.32
2009/04/23 08:00:12.5      67    -26     84     73    111 111.7  54.8  33994  286.78 0855.32
2009/04/23 08:00:12.5      40    -33     66     52     84 129.5  57.9  33992  286.73 0855.32
2009/04/23 08:00:12.6      56    -31     58     65     87 118.9  46.9  33992  286.74 0855.32
2009/04/23 08:00:12.7      68    -23     59     72     93 109.1  43.7  33992  286.74 0855.32
2009/04/23 08:00:12.8      59    -23     50     64     81 111.7  42.2  33992  286.74 0855.32
2009/04/23 08:00:12.9      22    -22     56     32     64 135.0  67.7  33992  286.74 0855.32
2009/04/23 08:00:13.0      -2      6     41      7     41 341.7  90.0  33992  286.73 0855.32
2009/04/23 08:00:13.1      -1     13     22     14     26 353.8  64.7  33994  286.76 0855.32
2009/04/23 08:00:13.2      18     15     24     24     33  48.7  50.1  33992  286.74 0855.32
2009/04/23 08:00:13.4       4    -14     17     15     22 161.5  52.2  33990  286.71 0855.32
2009/04/23 08:00:13.4       0    -14     33     15     36 182.7  73.1  33994  286.76 0855.32
2009/04/23 08:00:13.5       2    -21     37     22     43 173.8  66.8  33992  286.74 0855.32
2009/04/23 08:00:13.6      31     -6     37     32     48 101.5  53.3  33992  286.74 0855.32
2009/04/23 08:00:13.7      12     -4     32     13     34 108.2  79.2  33994  286.76 0855.32
2009/04/23 08:00:13.8      28    -13     22     31     38 115.3  37.6  33994  286.76 0855.32
2009/04/23 08:00:13.9      32    -23     31     40     50 126.0  42.7  33998  286.83 0855.32
2009/04/23 08:00:14.0      40     -6     40     41     57  98.8  51.1  33998  286.83 0855.32
2009/04/23 08:00:14.1      22     -7     34     24     41 108.6  60.5  33998  286.83 0855.32
2009/04/23 08:00:14.2       5    -13     36     15     39 158.2  79.2  33998  286.83 0855.32
2009/04/23 08:00:14.3      14     -9     26     17     31 122.4  64.6  33998  286.83 0855.32
2009/04/23 08:00:14.5      13    -13     26     19     32 135.0  60.5  34000  286.88 0855.32
2009/04/23 08:00:14.6      -1     -6     20      7     21 189.7  81.0  33996  286.79 0855.32
2009/04/23 08:00:14.6       1    -10     22     11     24 172.0  72.9  33998  286.83 0855.32
2009/04/23 08:00:14.7     -13    -13     19     19     26 223.4  50.1  33996  286.79 0855.32
2009/04/23 08:00:14.9     -19    -20     13     28     30 223.4  27.1  33994  286.78 0855.32
2009/04/23 08:00:15.0     -25    -11      7     28     30 246.5  15.3  33994  286.78 0855.32
2009/04/23 08:00:15.1     -26     -8     13     28     30 253.2  27.1  33990  286.71 0855.32
2009/04/23 08:00:15.2     -23     -4      8     24     26 260.3  19.4  33994  286.76 0855.32
2009/04/23 08:00:15.3     -31     -8      6     33     34 254.9  11.1  33994  286.76 0855.32
2009/04/23 08:00:15.4     -24    -15     10     29     31 237.5  19.2  33996  286.79 0855.32
2009/04/23 08:00:15.5     -24    -15     10     29     31 237.5  19.2  33996  286.79 0855.32
2009/04/23 08:00:15.6     -26     -8     20     28     34 253.2  37.6  33996  286.79 0855.32
2009/04/23 08:00:15.7     -34    -16     15     38     40 244.7  22.0  33996  286.79 0855.32
2009/04/23 08:00:15.8     -28    -23     20     37     42 230.4  30.3  33996  286.79 0855.32
2009/04/23 08:00:15.9     -28    -23     20     37     42 230.4  30.3  33996  286.79 0855.32
2009/04/23 08:00:16.0     -19    -23     29     30     41 219.6  50.0  33996  286.79 0855.32
2009/04/23 08:00:16.1     -26    -11     29     29     41 246.5  50.1  34000  286.86 0855.32
2009/04/23 08:00:16.2     -38     -7     25     39     46 258.6  35.6  33996  286.81 0855.32
2009/04/23 08:00:16.3     -46      0      8     47     48 270.0  10.1  33998  286.83 0855.32
2009/04/23 08:00:16.4     -39      2      8     40     41 274.3  12.2  33998  286.83 0855.32
2009/04/23 08:00:16.5     -23     -4      8     24     26 260.3  19.4  33998  286.83 0855.32
2009/04/23 08:00:16.6     -18    -15     15     24     28 228.7  35.5  34000  286.86 0855.32
2009/04/23 08:00:16.7      -3      0     15      4     15 270.0  84.9  33996  286.79 0855.32
2009/04/23 08:00:16.8      14      3     15     15     21  74.9  50.1  34000  286.86 0855.32
2009/04/23 08:00:16.9      26     -7     32     27     41 105.1  55.4  33996  286.79 0855.32
2009/04/23 08:00:17.0      24    -47     50     53     72 152.8  48.0  33998  286.84 0855.32
2009/04/23 08:00:17.1      -5    -44     74     45     86 187.1  65.7  34000  286.88 0855.32
2009/04/23 08:00:17.2     -15    -34     58     38     69 203.6  64.6  33998  286.83 0855.32
2009/04/23 08:00:17.3      -2    -18     51     19     54 188.0  80.2  34000  286.86 0855.32
2009/04/23 08:00:17.4       4    -27     53     28     59 170.2  69.8  34000  286.86 0855.32
2009/04/23 08:00:17.5     -18      1     61     19     63 274.4  80.7  33998  286.84 0855.32
2009/04/23 08:00:17.6     -38    -34     56     52     76 227.8  52.1  34000  286.86 0855.32
2009/04/23 08:00:17.7     -44    -51     36     68     76 220.5  30.3  34000  286.88 0855.32
2009/04/23 08:00:17.8     -30    -50     51     59     77 210.7  45.8  34000  286.86 0855.32
2009/04/23 08:00:17.9     -35    -68     53     77     93 207.2  37.6  33998  286.83 0855.32
2009/04/23 08:00:18.0     -28    -47     40     55     68 210.7  39.7  33994  286.78 0855.32
2009/04/23 08:00:18.1     -16    -34     44     38     58 205.4  54.3  33992  286.73 0855.32
2009/04/23 08:00:18.2     -14     -5     39     16     42 248.3  77.1  33994  286.78 0855.32
2009/04/23 08:00:18.3     -17     15     42     23     47 311.3  68.8  34000  286.86 0855.32
2009/04/23 08:00:18.4     -28     28     58     40     70 315.0  61.5  33996  286.79 0855.32
2009/04/23 08:00:18.5     -15      8     78     18     80 298.9  87.5  33998  286.84 0855.32
2009/04/23 08:00:18.6      20    -27     86     34     92 143.9  77.6  34000  286.86 0855.32
2009/04/23 08:00:18.7      16    -36     71     40     81 156.4  68.3  34000  286.86 0855.32
2009/04/23 08:00:18.8     -28    -87     62     92    110 198.3  37.0  33998  286.84 0855.32
2009/04/23 08:00:18.9     -36    -93     15    100    102 201.4   9.0  33998  286.83 0855.32
2009/04/23 08:00:19.0     -19    -96     74     99    123 191.6  40.1  33998  286.84 0855.32
2009/04/23 08:00:19.1       1    -82     69     83    107 179.1  43.8  33998  286.84 0855.32
2009/04/23 08:00:19.2       6    -78     63     79    101 175.5  43.3  33998  286.83 0855.32
2009/04/23 08:00:19.3     -17    -66     78     69    104 194.3  53.3  34000  286.86 0855.32
2009/04/23 08:00:19.4     -78    -87     72    117    137 221.9  35.0  33996  286.81 0855.32
2009/04/23 08:00:19.5     -70    -85     24    111    114 219.6  12.6  33998  286.83 0855.32
2009/04/23 08:00:19.6     -69    -67      8     97     98 225.6   4.9  34000  286.86 0855.32
2009/04/23 08:00:19.7     -74    -74      5    106    107 225.0   2.8  34000  286.86 0855.32
2009/04/23 08:00:19.8     -80    -50    -21     95     98 238.0 -12.4  33996  286.81 0855.32
2009/04/23 08:00:19.9     -74    -35    -35     83     90 244.6 -29.0  33998  286.83 0855.32
2009/04/23 08:00:20.0     -55    -41    -39     69     79 233.1 -36.8  33990  286.71 0855.32
2009/04/23 08:00:20.1     -45    -54    -30     71     77 219.6 -27.5  33992  286.73 0855.32
2009/04/23 08:00:20.2     -44    -88    -33     99    105 206.7 -18.7  33996  286.79 0855.32
2009/04/23 08:00:20.3     -31    -95     -3    101    102 198.3  -2.2  33998  286.83 0855.32
2009/04/23 08:00:20.4     -63    -94     14    114    115 213.8   7.1  33998  286.83 0855.32
2009/04/23 08:00:20.5     -47    -87     17    100    102 208.5  10.1  33998  286.84 0855.32
2009/04/23 08:00:20.6     -61    -84     36    105    112 216.0  18.9  33996  286.81 0855.32
2009/04/23 08:00:20.7     -70    -94     37    118    124 216.5  17.4  33998  286.84 0855.32
2009/04/23 08:00:20.8     -87    -91     12    127    128 223.7   5.4  33996  286.81 0855.32
2009/04/23 08:00:20.9     -90    -77     15    119    120 229.6   7.5  33996  286.81 0855.32
2009/04/23 08:00:21.0     -61    -61     30     87     93 225.1  18.9  33998  286.83 0855.32
2009/04/23 08:00:21.1     -42    -51     25     67     71 219.6  21.0  33996  286.81 0855.32
2009/04/23 08:00:21.2     -23    -19      5     30     31 230.4  11.0  33998  286.84 0855.32
2009/04/23 08:00:21.3       0      3      4      4      5 355.5  50.1  33998  286.83 0855.32
2009/04/23 08:00:21.4      14      3     42     15     44  74.9  81.2  33998  286.84 0855.32
2009/04/23 08:00:21.5      -7    -23     57     25     62 198.5  75.0  34000  286.88 0855.32
2009/04/23 08:00:21.6      10    -49     58     51     77 168.4  54.3  33998  286.83 0855.32
2009/04/23 08:00:21.7       4    -45     73     46     86 173.8  64.7  33998  286.83 0855.32
2009/04/23 08:00:21.8       7    -21     74     23     77 160.0  80.7  34000  286.86 0855.32
2009/04/23 08:00:21.9     -14    -42     65     45     79 199.2  62.1  33998  286.84 0855.32
2009/04/23 08:00:22.0     -23    -71     64     75     98 198.5  44.8  34002  286.91 0855.32
2009/04/23 08:00:22.1     -49    -90     30    103    108 208.9  16.3  34000  286.88 0855.32
2009/04/23 08:00:22.2     -67    -92     25    115    118 216.1  12.6  34000  286.88 0855.32
2009/04/23 08:00:22.3     -48    -75     16     90     92 212.5  10.1  34000  286.88 0855.32
2009/04/23 08:00:22.4     -68    -96     32    118    123 215.2  15.2  34002  286.89 0855.32
2009/04/23 08:00:22.5     -67   -114     45    133    141 210.7  18.9  34002  286.89 0855.32
2009/04/23 08:00:22.6     -80   -116     27    142    145 214.7  11.0  34000  286.88 0855.32
2009/04/23 08:00:22.7     -77   -147     36    167    172 207.6  12.4  34002  286.91 0855.32
2009/04/23 08:00:22.8     -96   -124     24    158    160 217.8   8.8  34000  286.86 0855.32
2009/04/23 08:00:22.9     -71   -130     49    149    158 208.9  18.4  34002  286.89 0855.32
2009/04/23 08:00:23.0     -65   -146     45    161    168 204.1  15.8  34000  286.88 0855.32
2009/04/23 08:00:23.1     -60   -138     43    151    158 203.6  16.0  33996  286.79 0855.32
2009/04/23 08:00:23.2    -101   -166     37    195    199 211.2  11.0  33996  286.81 0855.32
2009/04/23 08:00:23.3     -73   -144     33    162    166 207.0  11.6  34000  286.86 0855.32
2009/04/23 08:00:23.4     -80   -116     29    142    146 214.7  11.6  33994  286.76 0855.32
2009/04/23 08:00:23.5    -134   -136     -7    192    193 224.5  -2.2  33992  286.74 0855.32
2009/04/23 08:00:23.6     -81   -118     73    144    161 214.3  28.7  33998  286.83 0855.32
2009/04/23 08:00:23.7     -58   -125     78    138    158 204.9  32.1  33998  286.84 0855.32
2009/04/23 08:00:23.8     -48   -148     67    156    169 198.3  24.9  34000  286.86 0855.32
2009/04/23 08:00:23.9     -67   -158     21    172    174 202.9   7.2  33994  286.76 0855.32
2009/04/23 08:00:24.0     -91   -133     19    162    164 214.5   6.9  33994  286.78 0855.32
2009/04/23 08:00:24.1    -117   -141     21    184    186 219.7   6.7  33992  286.74 0855.32
2009/04/23 08:00:24.2     -95    -96    -17    136    138 224.5  -7.3  33988  286.67 0855.32
2009/04/23 08:00:24.3     -55   -137     -3    148    149 201.9  -1.3  33996  286.79 0855.32
2009/04/23 08:00:24.4     -39   -136     33    142    146 196.0  13.2  33996  286.81 0855.32
2009/04/23 08:00:24.5     -39   -144     29    150    153 195.2  11.0  33996  286.79 0855.32
2009/04/23 08:00:24.6      -8   -115     51    116    126 184.4  25.1  33996  286.79 0855.32
2009/04/23 08:00:24.7     -44   -135     88    143    167 198.3  34.8  33988  286.67 0855.32
2009/04/23 08:00:24.8     -19   -141     62    143    155 188.0  25.1  33996  286.81 0855.32
2009/04/23 08:00:24.9     -38   -124     93    130    159 197.4  39.1  33994  286.76 0855.32
2009/04/23 08:00:25.0     -53    -99     49    113    123 208.5  25.1  33992  286.73 0855.32
2009/04/23 08:00:25.1     -38    -60     63     72     95 212.6  45.8  33994  286.76 0855.32
2009/04/23 08:00:25.2      -9    -45     64     46     78 191.6  60.5  33994  286.76 0855.32
2009/04/23 08:00:25.3      11      0     53     12     54  90.0  88.0  33992  286.73 0855.32
2009/04/23 08:00:25.4     -44    -51     50     68     84 220.5  40.1  33992  286.74 0855.32
2009/04/23 08:00:25.5     -69    -28     32     75     81 247.4  24.1  33994  286.78 0855.32
2009/04/23 08:00:25.6     -50     14     -3     52     53 285.9  -4.1  33996  286.79 0855.32
2009/04/23 08:00:25.7     -54     18    -11     58     60 288.6 -11.3  33994  286.78 0855.32
2009/04/23 08:00:25.8     -41    -45    -17     61     64 222.3 -15.5  33992  286.73 0855.32
2009/04/23 08:00:25.9     -35    -38     39     52     65 222.3  39.7  33994  286.78 0855.32
2009/04/23 08:00:26.0     -12    -57     19     59     63 192.5  18.4  33996  286.79 0855.32
2009/04/23 08:00:26.1     -34    -57     -2     67     68 210.7  -2.2  33994  286.78 0855.32
2009/04/23 08:00:26.2     -38    -39     19     55     59 224.2  18.9  33994  286.76 0855.32
2009/04/23 08:00:26.3     -52     -8     -2     53     54 260.3  -2.2  33990  286.71 0855.32
2009/04/23 08:00:26.4     -49     13      0     51     52 285.9   0.8  33990  286.71 0855.32
2009/04/23 08:00:26.5     -95      7     33     96    102 274.3  19.4  33992  286.73 0855.32
2009/04/23 08:00:26.6     -96      0     21     97    100 270.0  12.6  33996  286.79 0855.32
2009/04/23 08:00:26.7     -86      6      5     87     88 274.3   3.8  33994  286.76 0855.32
2009/04/23 08:00:26.8    -130    -10     31    131    135 265.6  13.7  33994  286.78 0855.32
2009/04/23 08:00:26.9    -134      1     26    135    138 270.8  11.1  33994  286.76 0855.32
2009/04/23 08:00:27.0    -128     -5     41    129    136 267.4  17.9  33994  286.78 0855.32
2009/04/23 08:00:27.1    -118      0     57    119    131 270.0  27.3  33996  286.79 0855.32
2009/04/23 08:00:27.2    -112    -53     44    125    133 244.6  19.4  33990  286.69 0855.32
2009/04/23 08:00:27.3    -144    -48     10    153    154 251.4   3.8  33996  286.79 0855.32
2009/04/23 08:00:27.4    -159    -47      1    166    167 253.4   0.5  33994  286.76 0855.32
2009/04/23 08:00:27.5    -131    -95     31    163    166 234.0  10.8  33988  286.66 0855.32
2009/04/23 08:00:27.6    -144    -91     58    171    181 237.5  18.9  33988  286.67 0855.32
2009/04/23 08:00:27.7    -107    -84     11    137    138 231.8   4.9  33990  286.71 0855.33
2009/04/23 08:00:27.8     -27    -71     93     77    120 200.9  56.3  33990  286.69 0855.33
2009/04/23 08:00:27.9     -16     12     89     21     91 307.8  86.9  33988  286.66 0855.33
2009/04/23 08:00:28.0     -71    -19     44     74     86 254.9  34.0  33992  286.73 0855.33
2009/04/23 08:00:28.1     -56    -83    -55    101    115 214.3 -35.8  33988  286.66 0855.33
2009/04/23 08:00:28.2    -145   -184    -82    235    248 218.1 -24.3  33982  286.57 0855.33
2009/04/23 08:00:28.3    -191   -105    -92    219    237 241.1 -28.5  33974  286.44 0855.33
2009/04/23 08:00:28.4    -180   -115    -73    214    227 237.4 -18.9  33982  286.56 0855.33
2009/04/23 08:00:28.5    -275    -87    -82    289    300 252.3 -20.7  33978  286.48 0855.33
2009/04/23 08:00:28.6    -266   -132    -65    298    306 243.6 -12.4  33986  286.63 0855.33
2009/04/23 08:00:28.7    -333   -181    -85    380    390 241.5 -12.6  33982  286.56 0855.33
2009/04/23 08:00:28.8    -268   -213     16    343    344 231.5   2.8  33984  286.58 0855.33
2009/04/23 08:00:28.9    -293   -240    -36    379    381 230.7  -5.5  33978  286.51 0855.33
2009/04/23 08:00:29.0    -280   -272    -75    391    399 225.8 -10.9  33988  286.66 0855.33
2009/04/23 08:00:29.1    -274   -275    -99    389    402 224.8 -14.4  33990  286.68 0855.33
2009/04/23 08:00:29.2    -271   -241    -91    363    375 228.3 -14.1  33986  286.64 0855.33
2009/04/23 08:00:29.3    -268   -267    -72    379    386 225.2 -10.8  33990  286.68 0855.33
2009/04/23 08:00:29.4    -307   -287    -88    421    431 226.9 -11.8  33988  286.65 0855.33
2009/04/23 08:00:29.5    -362   -269    -82    452    460 233.4 -10.3  33990  286.70 0855.33
2009/04/23 08:00:29.6    -333   -266   -117    427    443 231.4 -15.4  33994  286.77 0855.33
2009/04/23 08:00:29.7    -266   -272   -119    381    399 224.4 -22.4  33994  286.76 0855.33
2009/04/23 08:00:29.8    -314   -295   -136    431    453 226.8 -17.6  33990  286.70 0855.33
2009/04/23 08:00:29.9    -330   -305   -134    450    469 227.2 -21.4  33990  286.70 0855.33
2009/04/23 08:00:30.0    -261   -341   -129    430    448 217.4 -21.7  33984  286.60 0855.33
2009/04/23 08:00:30.1    -282   -243    -78    373    382 229.2 -11.8  33984  286.59 0855.33
2009/04/23 08:00:30.2    -258   -283   -130    384    406 222.3 -18.8  33980  286.54 0855.33
2009/04/23 08:00:30.3    -223   -349   -119    415    432 212.6 -16.0  33982  286.55 0855.33
2009/04/23 08:00:30.4    -155   -284    -93    324    337 208.7 -20.7  33982  286.56 0855.33
2009/04/23 08:00:30.5    -131   -297    -88    325    337 203.8 -15.2  33980  286.53 0855.33
2009/04/23 08:00:30.6    -261   -276    -63    381    387 223.4  -9.5  33980  286.54 0855.33
2009/04/23 08:00:30.7    -249   -237     21    344    345 226.4   3.6  33980  286.54 0855.33
2009/04/23 08:00:30.8    -167   -153    101    227    248 227.6  25.9  33988  286.67 0855.33
2009/04/23 08:00:30.9    -210   -209     46    297    301 225.1   8.9  33984  286.60 0855.33
2009/04/23 08:00:31.0    -167   -217     48    274    279 217.6  10.1  33986  286.62 0855.33
2009/04/23 08:00:31.1    -221   -267     12    347    348 219.6   2.1  33990  286.69 0855.33
2009/04/23 08:00:31.2    -276   -297   -134    406    428 222.9 -18.3  33994  286.77 0855.33
2009/04/23 08:00:31.3    -228   -295   -104    374    389 217.7 -15.5  34000  286.88 0855.33
2009/04/23 08:00:31.4    -242   -297    -73    384    391 219.1 -10.8  33986  286.64 0855.33
2009/04/23 08:00:31.5    -200   -308    -70    368    375 213.0 -10.9  33986  286.64 0855.33
2009/04/23 08:00:31.6    -214   -229   -150    314    347 223.0 -31.7  34002  286.91 0855.33
2009/04/23 08:00:31.7    -188   -268   -140    328    356 215.1 -29.0  34006  286.95 0855.33
2009/04/23 08:00:31.8    -160   -243   -174    292    339 213.4 -38.1  33996  286.80 0855.33
2009/04/23 08:00:31.9    -162   -205    -94    262    278 218.3 -25.1  33994  286.75 0855.33
2009/04/23 08:00:32.0    -121   -167    -66    207    217 216.0 -22.5  33984  286.59 0855.33
2009/04/23 08:00:32.1    -141   -117    -54    184    192 230.2 -16.4  33982  286.56 0855.33
2009/04/23 08:00:32.2     -68    -72    -58    100    115 223.2 -37.9  33984  286.61 0855.33
2009/04/23 08:00:32.3      21   -154   -114    156    193 172.0 -44.1  33984  286.59 0855.33
2009/04/23 08:00:32.4      24   -210    -43    212    217 173.3 -11.6  33986  286.62 0855.33
2009/04/23 08:00:32.5    -104   -128    -67    166    179 219.2 -27.4  33984  286.61 0855.33
2009/04/23 08:00:32.6     -97    -97    -89    138    164 225.2 -40.1  33988  286.66 0855.33
2009/04/23 08:00:32.7    -101    -97    -58    141    152 226.0 -27.5  33982  286.56 0855.33
2009/04/23 08:00:32.8     -75   -189    -60    204    212 201.8 -21.7  33990  286.69 0855.33
2009/04/23 08:00:32.9    -145   -193   -140    242    279 217.0 -37.1  33996  286.80 0855.33
2009/04/23 08:00:33.0     -89   -310   -118    323    343 196.0 -25.4  33984  286.61 0855.33
2009/04/23 08:00:33.1    -121   -255    -84    283    295 205.3 -21.5  33984  286.58 0855.33
2009/04/23 08:00:33.2    -101   -232    -16    254    255 203.6  -3.7  33984  286.58 0855.33
2009/04/23 08:00:33.3    -105   -195    -10    222    223 208.5  -2.6  33986  286.62 0855.33
2009/04/23 08:00:33.4    -113   -188      6    220    221 211.0   1.8  33984  286.61 0855.33
2009/04/23 08:00:33.5     -25   -286      8    288    289 185.1   1.7  33986  286.62 0855.33
2009/04/23 08:00:33.6      17   -279    -10    280    281 176.4  -2.1  33986  286.62 0855.33
2009/04/23 08:00:33.7     -31   -292     14    294    295 186.2   2.8  33986  286.63 0855.34
2009/04/23 08:00:33.8       1   -274     -5    275    276 179.8  -1.1  33988  286.65 0855.34
2009/04/23 08:00:33.9      34   -243     19    246    247 172.0   4.6  33986  286.63 0855.34
2009/04/23 08:00:34.0      91   -217     36    236    239 157.3   8.8  33986  286.62 0855.34
2009/04/23 08:00:34.1      30   -234    101    236    256 172.7  24.3  33986  286.63 0855.34
2009/04/23 08:00:34.2      -6   -223    114    224    251 181.6  29.1  33982  286.57 0855.34
2009/04/23 08:00:34.3     -13   -175     74    176    190 184.4  24.1  33984  286.61 0855.34
2009/04/23 08:00:34.4     -36   -136     49    141    150 195.2  19.2  33986  286.64 0855.34
2009/04/23 08:00:34.5     -49   -150      9    158    159 198.3   3.3  33986  286.62 0855.34
2009/04/23 08:00:34.6     -30   -153    -13    156    157 191.1  -4.9  33984  286.61 0855.34
2009/04/23 08:00:34.7     -33   -159    -20    163    165 191.8  -7.2  33986  286.62 0855.34
2009/04/23 08:00:34.8     -50   -140    -21    149    151 200.0  -8.2  33984  286.61 0855.34
2009/04/23 08:00:34.9     -44   -117    -16    126    128 200.9  -7.2  33986  286.62 0855.34
2009/04/23 08:00:35.0       3    -79    -28     80     86 177.3 -19.7  33986  286.64 0855.34
2009/04/23 08:00:35.1      47    -88    -29    100    104 151.9 -21.2  33986  286.64 0855.34
2009/04/23 08:00:35.2      33   -102    -14    108    109 161.7  -7.7  33986  286.64 0855.34
2009/04/23 08:00:35.3      27    -87    -33     92     98 162.6 -19.7  33988  286.67 0855.34
2009/04/23 08:00:35.4     -16    -64    -70     67     96 194.3 -55.1  33988  286.66 0855.34
2009/04/23 08:00:35.5      21    -63    -63     67     91 161.3 -52.9  33988  286.66 0855.34
2009/04/23 08:00:35.6      51    -61    -64     80    102 140.4 -47.7  33986  286.64 0855.34
2009/04/23 08:00:35.7      82    -80    -53    115    126 134.4 -31.0  33988  286.66 0855.34
2009/04/23 08:00:35.8      99    -70    -36    122    127 125.5 -21.7  33986  286.62 0855.34
2009/04/23 08:00:35.9     100    -29    -29    105    110 106.4 -15.5  33988  286.66 0855.34
2009/04/23 08:00:36.0      98      4    -14     99    101  87.4  -8.2  33990  286.69 0855.34
2009/04/23 08:00:36.1     103      3     -2    104    105  87.9  -1.3  33990  286.69 0855.34
2009/04/23 08:00:36.2      96     29    -18    101    103  73.2 -10.3  33990  286.71 0855.34
2009/04/23 08:00:36.3     104     28    -11    108    109  74.5  -6.2  33992  286.74 0855.34
2009/04/23 08:00:36.4     106    -16     -7    108    109  98.8  -3.7  33992  286.74 0855.34
2009/04/23 08:00:36.5      86    -62    -16    107    109 126.0  -8.8  34000  286.86 0855.34
2009/04/23 08:00:36.6      56   -101    -31    116    121 151.1 -15.0  33990  286.69 0855.34
2009/04/23 08:00:36.7      97   -107    -29    145    148 137.7 -11.3  33990  286.69 0855.34
2009/04/23 08:00:36.8     126   -141      0    190    191 138.1   0.0  33996  286.79 0855.34
2009/04/23 08:00:36.9     153   -110     22    189    191 125.7   6.9  33998  286.83 0855.34
2009/04/23 08:00:37.0     163   -105     39    195    199 122.9  11.4  33998  286.83 0855.34
2009/04/23 08:00:37.1     206   -107     71    233    244 117.5  17.1  33996  286.79 0855.34
2009/04/23 08:00:37.2     213    -62     37    222    226 106.4   9.5  33994  286.78 0855.34
2009/04/23 08:00:37.3     174    -58     57    184    193 108.6  17.3  33994  286.76 0855.34
2009/04/23 08:00:37.4     139    -19     48    141    150  97.9  18.9  33994  286.76 0855.34
2009/04/23 08:00:37.5     110    -28     57    114    127 104.6  28.2  33994  286.76 0855.34
2009/04/23 08:00:37.6     147    -35      7    152    153 103.7   2.8  33992  286.73 0855.34
2009/04/23 08:00:37.7     169      8     55    170    179  87.2  18.1  33992  286.73 0855.35
2009/04/23 08:00:37.8     217    -72    101    229    250 108.6  25.3  33988  286.67 0855.35
2009/04/23 08:00:37.9     216   -106    121    241    269 116.2  28.5  33988  286.65 0855.35
2009/04/23 08:00:38.0     158   -136    139    209    251 130.7  36.5  33986  286.63 0855.35
2009/04/23 08:00:38.1     158    -58    116    169    204 110.2  37.6  33988  286.66 0855.35
2009/04/23 08:00:38.2     224      3      6    225    226  89.0   1.6  33988  286.66 0855.35
2009/04/23 08:00:38.3     205    -22     29    207    210  96.4   8.0  33990  286.69 0855.35
2009/04/23 08:00:38.4     164    -70     70    179    192 113.3  22.5  33986  286.62 0855.35
2009/04/23 08:00:38.5     220    -48     72    226    238 102.4  17.7  33990  286.70 0855.35
2009/04/23 08:00:38.6     179    -65      0    191    192 110.2  -0.3  33988  286.67 0855.35
2009/04/23 08:00:38.7     226    -98     88    247    262 113.6  20.2  33990  286.70 0855.35
2009/04/23 08:00:38.8     115   -135    149    178    232 139.7  43.8  33986  286.62 0855.35
2009/04/23 08:00:38.9      66    -64    153     93    179 134.0  66.0  33988  286.67 0855.35
2009/04/23 08:00:39.0     118      7    101    119    156  86.5  44.8  33990  286.69 0855.35
2009/04/23 08:00:39.1     155     31     47    159    166  78.5  16.6  33992  286.73 0855.35
2009/04/23 08:00:39.2     180    -54     10    189    190 106.8   3.1  33992  286.74 0855.35
2009/04/23 08:00:39.3     165    -79      9    184    185 115.8   2.9  33992  286.74 0855.35
2009/04/23 08:00:39.4     166    -72     33    182    186 113.5  10.3  33990  286.71 0855.35
2009/04/23 08:00:39.5     159    -78     38    178    183 116.2  12.2  33988  286.67 0855.35
2009/04/23 08:00:39.6     124    -81     55    149    158 123.3  21.3  33992  286.73 0855.35
2009/04/23 08:00:39.7     157    -44      6    164    165 105.9   2.3  33990  286.71 0855.35
2009/04/23 08:00:39.8     179    -49    -48    186    193 105.3 -14.7  33990  286.69 0855.35
2009/04/23 08:00:39.9     142    -50     19    151    153 109.5   7.5  33988  286.67 0855.35
2009/04/23 08:00:40.0     108    -48     36    119    125 114.0  16.8  33992  286.73 0855.35
2009/04/23 08:00:40.2     112    -77     52    137    146 124.6  21.5  33990  286.69 0855.35
2009/04/23 08:00:40.2     105   -141     11    177    178 143.3   3.8  33988  286.67 0855.35
2009/04/23 08:00:40.4     160   -104    -17    191    192 123.1  -5.4  33986  286.64 0855.35
2009/04/23 08:00:40.5     158    -34    -24    162    164 102.2  -8.6  33994  286.76 0855.35
2009/04/23 08:00:40.6     182    -15    -23    183    185  94.8  -7.2  33992  286.73 0855.35
2009/04/23 08:00:40.7     163     -8     -6    164    165  93.0  -2.2  33990  286.71 0855.35
2009/04/23 08:00:40.8     129     10     30    130    134  85.2  13.1  33986  286.64 0855.35
2009/04/23 08:00:40.9      74    -15     26     76     81 101.5  19.4  33986  286.64 0855.35
2009/04/23 08:00:41.0       0     11     40     12     41 357.3  82.8  33986  286.64 0855.35
2009/04/23 08:00:41.1     -68     25     55     73     91 290.8  41.2  33988  286.66 0855.35
2009/04/23 08:00:41.2     -67     41      8     79     80 301.5   5.9  33990  286.69 0855.35
2009/04/23 08:00:41.3     -40     -3      9     41     43 264.8  13.2  33990  286.69 0855.35
2009/04/23 08:00:41.4     -34      0      3     35     36 270.0   4.9  33988  286.66 0855.35
2009/04/23 08:00:41.5     -24     63     -2     68     69 339.1  -2.2  33986  286.62 0855.35
2009/04/23 08:00:41.6      -7     90     21     91     94 355.5  13.2  33988  286.66 0855.35
2009/04/23 08:00:41.7       8     89     69     90    113   5.3  41.7  33986  286.64 0855.35
2009/04/23 08:00:41.8      25     38     51     46     68  33.4  52.2  33990  286.69 0855.34
2009/04/23 08:00:41.9       0     -4     61      5     61 189.7  90.0  33988  286.66 0855.34
2009/04/23 08:00:42.0      26     -8     80     28     84 108.6  80.7  33990  286.71 0855.34
2009/04/23 08:00:42.1      71    -23     66     75     99 108.4  45.8  33986  286.62 0855.34
2009/04/23 08:00:42.2      69    -78     59    105    120 138.6  31.9  33986  286.64 0855.34
2009/04/23 08:00:42.3      48    -73     81     88    119 146.6  47.9  33984  286.61 0855.34
2009/04/23 08:00:42.4      88    -32     89     94    129 110.4  48.5  33986  286.62 0855.34
2009/04/23 08:00:42.5      37     34     90     51    103  47.8  68.8  33988  286.67 0855.34
2009/04/23 08:00:42.6      69     26     82     74    110  69.2  53.3  33984  286.59 0855.34
2009/04/23 08:00:42.7      67     13     96     69    118  78.5  60.5  33984  286.59 0855.34
2009/04/23 08:00:42.8      43     45     75     63     97  43.2  55.8  33986  286.62 0855.34
2009/04/23 08:00:42.9      17     43     81     47     93  21.8  66.8  33984  286.61 0855.34
2009/04/23 08:00:43.0       2     93     64     94    113   1.8  37.0  33984  286.59 0855.34
2009/04/23 08:00:43.1      17     18     52     25     57  43.4  72.9  33984  286.61 0855.34
2009/04/23 08:00:43.2      23     25     57     35     66  43.2  64.7  33984  286.61 0855.34
2009/04/23 08:00:43.3      21      7     53     23     57  70.0  75.0  33984  286.59 0855.34
2009/04/23 08:00:43.4      -3     10     51     11     52 341.5  89.0  33986  286.64 0855.34
2009/04/23 08:00:43.5      39     22     19     45     48  60.2  23.0  33982  286.57 0855.34
2009/04/23 08:00:43.6       0     28     28     29     40   0.9  50.0  33990  286.69 0855.34
2009/04/23 08:00:43.7     -19    -43     55     48     73 203.6  54.3  33988  286.66 0855.34
2009/04/23 08:00:43.8      43     -8     63     44     76 100.6  62.6  33986  286.62 0855.34
2009/04/23 08:00:43.9      19    -31     57     37     67 147.4  64.6  33986  286.62 0855.34
2009/04/23 08:00:44.0      27    -39     46     48     66 145.7  50.0  33986  286.64 0855.34
2009/04/23 08:00:44.1      12    -62     33     64     72 168.4  28.2  33986  286.64 0855.34
2009/04/23 08:00:44.2      15    -77     29     79     84 168.4  20.4  33988  286.66 0855.34
2009/04/23 08:00:44.3      16    -41     57     45     72 158.2  56.4  33982  286.56 0855.34
2009/04/23 08:00:44.4      10    -32     73     34     80 161.7  73.5  33986  286.64 0855.34
2009/04/23 08:00:44.5       1    -18     62     19     64 175.6  81.8  33988  286.66 0855.34
2009/04/23 08:00:44.6      -9    -41     49     43     65 193.4  53.3  33988  286.66 0855.34
2009/04/23 08:00:44.7      -9    -38     65     40     76 193.4  64.7  33986  286.64 0855.34
2009/04/23 08:00:44.8      20     -2     48     21     52  97.9  75.0  33990  286.69 0855.33
2009/04/23 08:00:44.9      -1    -13     48     14     50 188.0  82.8  33990  286.71 0855.33
2009/04/23 08:00:45.0      -3      8     36      9     37 334.6  86.9  33990  286.71 0855.33
2009/04/23 08:00:45.1     -24    -24     67     34     75 225.0  71.9  33990  286.69 0855.33
2009/04/23 08:00:45.2     -15    -23     74     28     79 212.6  78.6  33992  286.73 0855.33
2009/04/23 08:00:45.3       0     -7     54      8     54 182.7  90.0  33990  286.71 0855.33
2009/04/23 08:00:45.4      -1    -39     46     40     60 182.6  54.3  33986  286.64 0855.33
2009/04/23 08:00:45.5       0    -51     51     52     72 180.9  51.1  33990  286.69 0855.33
2009/04/23 08:00:45.6     -21    -82     73     85    112 194.7  44.8  33990  286.69 0855.33
2009/04/23 08:00:45.7     -44   -102     63    112    128 203.2  31.9  33990  286.71 0855.33
2009/04/23 08:00:45.8     -38   -115     56    122    134 198.3  27.1  33990  286.69 0855.33
2009/04/23 08:00:45.9     -39   -112     66    119    136 199.6  31.4  33992  286.73 0855.33
2009/04/23 08:00:46.0     -32   -112     90    117    147 196.0  41.7  33992  286.73 0855.33
2009/04/23 08:00:46.1     -43   -135     87    142    166 197.8  34.4  33994  286.76 0855.33
2009/04/23 08:00:46.2       3   -123     72    124    143 178.6  33.4  33992  286.73 0855.33
2009/04/23 08:00:46.3      22   -118     62    121    135 169.3  29.2  33988  286.67 0855.33
2009/04/23 08:00:46.4      57   -113     44    127    135 152.9  19.4  33988  286.67 0855.33
2009/04/23 08:00:46.5      59    -92     29    110    114 147.5  15.2  33990  286.69 0855.33
2009/04/23 08:00:46.6      41    -84     36     94    100 154.1  22.5  33994  286.76 0855.33
2009/04/23 08:00:46.7       4    -96     55     97    111 177.3  31.9  33994  286.76 0855.33
2009/04/23 08:00:46.8      -1   -113     51    114    124 180.9  25.2  33990  286.69 0855.32
2009/04/23 08:00:46.9       1   -102     29    103    108 179.1  15.8  33990  286.69 0855.32
2009/04/23 08:00:47.0      16   -113     56    115    127 172.0  27.3  33988  286.67 0855.32
2009/04/23 08:00:47.1       9    -98     57     99    114 174.2  32.9  33988  286.67 0855.32
2009/04/23 08:00:47.2      14   -114     29    115    119 172.9  14.3  33990  286.69 0855.32
2009/04/23 08:00:47.3      -2   -115     50    116    126 181.4  25.1  33990  286.69 0855.32
2009/04/23 08:00:47.4      -5   -110     55    111    123 182.7  28.7  33986  286.64 0855.32
2009/04/23 08:00:47.5      -5   -117     62    118    133 182.7  29.8  33988  286.67 0855.32
2009/04/23 08:00:47.6      15   -110     68    112    131 171.9  34.4  33988  286.67 0855.32
2009/04/23 08:00:47.7       8   -104     56    105    119 175.5  30.3  33986  286.64 0855.32
2009/04/23 08:00:47.8      -3   -124     37    125    131 181.4  16.8  33990  286.71 0855.32
2009/04/23 08:00:47.9     -15    -99     18    101    103 188.9  10.6  33992  286.74 0855.32
2009/04/23 08:00:48.0     -15    -80    -21     82     85 191.1 -14.5  33996  286.81 0855.32
2009/04/23 08:00:48.1     -23    -86    -28     90     94 195.1 -23.3  33992  286.74 0855.32
2009/04/23 08:00:48.2     -52    -95     14    109    110 208.5   7.5  33990  286.71 0855.32
2009/04/23 08:00:48.3     -70   -127    -18    146    148 209.0  -7.3  33990  286.71 0855.32
2009/04/23 08:00:48.4     -57   -120    -32    134    138 205.5 -13.4  33992  286.74 0855.32
2009/04/23 08:00:48.5     -21    -93    -34     96    101 192.9 -24.4  33990  286.71 0855.32
2009/04/23 08:00:48.6     -29    -28    -56     41     69 225.1 -64.9  33992  286.74 0855.32
2009/04/23 08:00:48.7     -37    -40    -63     55     83 223.2 -58.1  33992  286.74 0855.32
2009/04/23 08:00:48.8     -42    -28    -56     51     75 236.7 -56.6  33994  286.76 0855.31
2009/04/23 08:00:48.9     -55    -35    -51     66     83 237.6 -46.1  33994  286.78 0855.31
2009/04/23 08:00:49.0     -54      6    -65     55     85 277.0 -59.8  33990  286.71 0855.31
2009/04/23 08:00:49.1     -56      0    -61     57     83 269.2 -56.0  33994  286.76 0855.31
2009/04/23 08:00:49.2     -50    -23    -47     56     73 244.8 -48.2  33994  286.76 0855.31
2009/04/23 08:00:49.3     -24    -38    -41     46     61 212.5 -51.3  33992  286.73 0855.31
2009/04/23 08:00:49.4     -16    -48    -37     51     63 198.3 -44.1  33992  286.74 0855.31
2009/04/23 08:00:49.5       3    -45    -22     46     51 175.5 -31.6  33992  286.73 0855.31
2009/04/23 08:00:49.6       7    -42     -1     43     44 169.3  -2.2  33992  286.74 0855.31
2009/04/23 08:00:49.7      10    -42      2     44     45 165.7   2.9  33994  286.78 0855.31
2009/04/23 08:00:49.8      22    -46     -6     52     53 154.6  -7.2  33992  286.73 0855.31
2009/04/23 08:00:49.9      21    -37    -13     43     46 150.1 -17.6  33992  286.74 0855.31
2009/04/23 08:00:50.0      33    -32    -16     47     50 134.1 -18.7  33994  286.78 0855.31
2009/04/23 08:00:50.1      28    -32    -20     43     47 138.6 -30.6  33992  286.74 0855.31
2009/04/23 08:00:50.2      21    -21    -24     30     38 135.0 -48.1  33992  286.74 0855.31
2009/04/23 08:00:50.3      13    -21    -20     26     32 147.5 -48.1  33992  286.74 0855.31
2009/04/23 08:00:50.4      17    -22     -8     28     29 142.2 -23.8  33992  286.73 0855.31
2009/04/23 08:00:50.5      16     -5     -2     17     18 108.2  -7.3  33996  286.79 0855.31
2009/04/23 08:00:50.6      12      4      8     13     15  71.8  35.5  33994  286.76 0855.31
2009/04/23 08:00:50.7       1     20     15     21     25   4.5  39.7  33990  286.69 0855.31
2009/04/23 08:00:50.8     -20     12    -34     24     41 302.4 -64.9  33990  286.71 0855.30
2009/04/23 08:00:50.9      16     10    -17     19     25  57.5 -52.3  33990  286.71 0855.30
2009/04/23 08:00:51.0       3     14    -22     15     26  15.1 -69.0  33990  286.69 0855.30
2009/04/23 08:00:51.1      -6     35    -26     36     44 350.2 -44.1  33988  286.66 0855.30
2009/04/23 08:00:51.2      -7     32    -27     33     42 346.6 -49.2  33988  286.67 0855.30
2009/04/23 08:00:51.3     -12     38    -26     41     48 341.5 -39.9  33988  286.66 0855.30
2009/04/23 08:00:51.4     -15     31    -31     35     46 332.8 -51.3  33988  286.66 0855.30
2009/04/23 08:00:51.5     -43     24    -30     50     58 298.9 -39.9  33990  286.71 0855.30
2009/04/23 08:00:51.6     -60     20    -18     64     66 288.4 -20.7  33992  286.74 0855.30
2009/04/23 08:00:51.7     -70      0    -14     71     73 270.0 -11.3  33994  286.76 0855.30
2009/04/23 08:00:51.8     -78    -18     -7     81     82 256.7  -5.2  33994  286.78 0855.30
2009/04/23 08:00:51.9     -54    -14    -19     56     59 254.9 -23.6  33992  286.74 0855.30
2009/04/23 08:00:52.0     -53     22    -39     58     69 292.6 -40.9  33990  286.71 0855.30
2009/04/23 08:00:52.1     -64    -13    -46     66     80 258.5 -43.0  33988  286.66 0855.30
2009/04/23 08:00:52.2     -89    -18    -39     91     99 258.5 -28.5  33988  286.67 0855.30
2009/04/23 08:00:52.3    -110    -44    -24    119    122 247.8 -11.5  33988  286.67 0855.30
2009/04/23 08:00:52.4     -65    -60    -22     89     92 227.3 -13.9  33992  286.74 0855.30
2009/04/23 08:00:52.5       2    -93    -12     94     95 178.2  -7.3  33990  286.71 0855.30
2009/04/23 08:00:52.6     -16   -116     14    118    119 188.1   6.9  33986  286.62 0855.30
2009/04/23 08:00:52.7     -21   -112     25    114    117 190.7  12.6  33984  286.61 0855.30
2009/04/23 08:00:52.8     -26    -83     26     88     92 197.8  16.8  33982  286.56 0855.30
2009/04/23 08:00:52.9     -33    -79     35     86     92 202.7  23.0  33982  286.57 0855.30
2009/04/23 08:00:53.0     -27    -78     40     83     92 199.2  27.2  33978  286.51 0855.30
2009/04/23 08:00:53.1      -1    -65     44     66     79 180.9  37.0  33976  286.46 0855.30
2009/04/23 08:00:53.2      -2    -70     40     71     81 181.8  31.9  33976  286.46 0855.30
2009/04/23 08:00:53.3       3    -67     36     68     76 177.3  30.3  33974  286.44 0855.30
2009/04/23 08:00:53.4      17    -67     26     70     74 165.7  20.0  33980  286.54 0855.30
2009/04/23 08:00:53.5      -6    -84      9     85     86 184.5   6.5  33986  286.62 0855.30
2009/04/23 08:00:53.6      -4   -105      8    106    107 182.7   4.4  33984  286.61 0855.30
2009/04/23 08:00:53.7      35    -78     -7     86     87 155.9  -5.2  33978  286.49 0855.30
2009/04/23 08:00:53.8      15    -71     -4     73     74 167.5  -3.1  33976  286.47 0855.30
2009/04/23 08:00:53.9     -31    -54     22     63     67 209.9  19.4  33980  286.52 0855.30
2009/04/23 08:00:54.0     -19    -71     35     74     81 195.1  26.6  33982  286.56 0855.30
2009/04/23 08:00:54.1     -21    -63      9     67     68 198.3   8.0  33980  286.54 0855.30
2009/04/23 08:00:54.2     -37    -90     -2     98     99 202.3  -1.3  33984  286.59 0855.30
2009/04/23 08:00:54.3     -31   -111     31    116    121 195.6  15.3  33984  286.61 0855.30
2009/04/23 08:00:54.4     -29   -109     20    113    115 195.1  10.1  33982  286.56 0855.30
2009/04/23 08:00:54.5      13    -59     49     61     78 167.5  43.7  33980  286.54 0855.30
2009/04/23 08:00:54.6      -2    -42     32     43     53 183.6  40.7  33980  286.52 0855.30
2009/04/23 08:00:54.7       3    -46     31     47     56 175.5  35.6  33980  286.54 0855.30
2009/04/23 08:00:54.8      12    -47     39     49     62 164.9  43.7  33982  286.56 0855.30
2009/04/23 08:00:54.9      24    -51     37     57     67 154.7  35.6  33980  286.54 0855.30
2009/04/23 08:00:55.0       7    -54     35     55     65 172.0  35.5  33982  286.56 0855.30
2009/04/23 08:00:55.1      12    -47     39     49     62 164.9  43.7  33982  286.56 0855.30
2009/04/23 08:00:55.2      12    -31     40     34     52 158.2  55.4  33982  286.56 0855.30
2009/04/23 08:00:55.3      -7    -32     44     33     55 193.4  59.4  33978  286.51 0855.30
2009/04/23 08:00:55.4      16    -18     42     25     48 138.6  65.7  33980  286.52 0855.30
2009/04/23 08:00:55.5      21     13     49     26     55  57.5  69.8  33982  286.56 0855.30
2009/04/23 08:00:55.6      14     10     41     18     44  54.0  76.1  33984  286.59 0855.30
2009/04/23 08:00:55.7     -21    -11     32     24     40 241.1  59.4  33982  286.57 0855.30
2009/04/23 08:00:55.8     -57    -19      1     61     62 251.6   1.8  33986  286.62 0855.30
2009/04/23 08:00:55.9     -80    -16    -11     82     83 258.1  -7.7  33984  286.59 0855.30
2009/04/23 08:00:56.0     -60    -33    -22     69     73 241.1 -17.6  33982  286.56 0855.30
2009/04/23 08:00:56.1      -9    -29      2     31     32 196.9   4.9  33978  286.51 0855.30
2009/04/23 08:00:56.2       0    -59     15     60     62 180.0  14.3  33980  286.52 0855.30
2009/04/23 08:00:56.3      18    -55     11     58     60 161.5  11.0  33976  286.47 0855.30
2009/04/23 08:00:56.4      45    -15      1     48     49 108.4   1.8  33978  286.49 0855.30
2009/04/23 08:00:56.5      39    -29      9     49     50 126.9  11.0  33976  286.47 0855.30
2009/04/23 08:00:56.6      10    -68     59     69     90 171.1  44.8  33992  286.73 0855.30
2009/04/23 08:00:56.7      32    -83     73     90    115 158.6  43.7  33996  286.81 0855.30
2009/04/23 08:00:56.8       0    -85     87     86    122 180.0  50.1  33996  286.79 0855.31
2009/04/23 08:00:56.9     -29   -115    110    119    162 194.3  47.7  33990  286.69 0855.31
2009/04/23 08:00:57.0     -56   -142     78    153    171 201.8  28.7  33988  286.66 0855.31
2009/04/23 08:00:57.1     -59   -124     72    138    155 205.3  29.8  33988  286.66 0855.31
2009/04/23 08:00:57.2     -62   -152     57    165    175 202.3  19.2  33988  286.67 0855.31
2009/04/23 08:00:57.3     -49   -150     29    158    161 198.3  10.6  33988  286.66 0855.31
2009/04/23 08:00:57.4     -63   -151     -7    164    165 202.9  -2.6  33986  286.64 0855.31
2009/04/23 08:00:57.5     -51   -106     21    118    120 205.9  10.1  33988  286.67 0855.31
2009/04/23 08:00:57.6     -30   -127     68    131    147 193.4  29.3  33996  286.79 0855.31
2009/04/23 08:00:57.7     -64   -132     78    147    166 205.9  30.3  33994  286.76 0855.31
2009/04/23 08:00:57.8     -71   -128     74    147    164 209.0  28.7  33986  286.64 0855.31
2009/04/23 08:00:57.9     -96   -110      1    147    148 221.0   0.7  33986  286.64 0855.31
2009/04/23 08:00:58.0     -81    -97      6    127    128 219.6   2.8  33984  286.61 0855.31
2009/04/23 08:00:58.1     -73   -106      7    129    130 214.7   3.3  33988  286.66 0855.31
2009/04/23 08:00:58.2     -51   -111     58    123    135 204.5  27.1  33992  286.73 0855.31
2009/04/23 08:00:58.3     -24   -120     70    123    141 191.5  31.9  33988  286.67 0855.31
2009/04/23 08:00:58.4     -49   -135     43    144    151 200.0  16.8  33990  286.71 0855.31
2009/04/23 08:00:58.5     -72   -180     30    195    198 201.8   9.0  33992  286.73 0855.31
2009/04/23 08:00:58.6     -23   -137     45    139    147 189.7  17.9  33992  286.73 0855.31
2009/04/23 08:00:58.7     -29   -136     21    140    142 192.0   8.9  33990  286.69 0855.31
2009/04/23 08:00:58.8     -11   -160     39    161    166 184.2  13.9  33992  286.73 0855.31
2009/04/23 08:00:58.9      -5   -187     58    188    197 181.8  17.3  33996  286.79 0855.31
2009/04/23 08:00:59.0     -29   -163     32    166    170 190.2  11.0  33996  286.79 0855.31
2009/04/23 08:00:59.1     -18   -166     16    168    169 186.5   5.7  33996  286.81 0855.31
2009/04/23 08:00:59.2     -24   -187     77    189    204 187.6  23.1  33996  286.79 0855.31
2009/04/23 08:00:59.3     -22   -158     66    160    173 188.0  23.6  33996  286.79 0855.31
2009/04/23 08:00:59.4     -59   -179     72    189    202 198.3  21.7  33996  286.79 0855.31
2009/04/23 08:00:59.5    -101   -152     63    183    194 213.8  19.2  33996  286.81 0855.31
2009/04/23 08:00:59.6     -99   -156     57    185    194 212.5  17.3  33994  286.76 0855.31
2009/04/23 08:00:59.7    -138   -154     54    208    215 221.9  14.7  33992  286.74 0855.31
2009/04/23 08:00:59.8    -218    -94    -36    238    241 246.5  -8.8  33996  286.80 0855.31
2009/04/23 08:00:59.9    -196   -106    -52    223    230 241.6 -13.2  33994  286.78 0855.31
2009/04/23 08:01:00.0    -204   -152    -51    255    261 233.4 -11.3  33994  286.77 0855.31
2009/04/23 08:01:00.1    -230    -96    -30    250    252 247.3  -6.9  33992  286.74 0855.31
2009/04/23 08:01:00.2    -221    -78    -39    235    239 250.5  -9.6  33996  286.79 0855.31
2009/04/23 08:01:00.3    -174    -92    -43    198    203 242.0 -12.4  33996  286.79 0855.31
2009/04/23 08:01:00.4    -106    -76     26    131    134 234.1  11.6  33996  286.79 0855.31
2009/04/23 08:01:00.5     -47   -110     41    120    127 203.2  18.9  33994  286.76 0855.31
2009/04/23 08:01:00.6     -74   -116     19    138    140 212.5   8.0  33992  286.73 0855.31
2009/04/23 08:01:00.7     -45   -117     19    126    128 201.4   8.9  33992  286.74 0855.31
2009/04/23 08:01:00.8     -54   -114     39    127    133 205.3  17.3  33990  286.71 0855.32
2009/04/23 08:01:00.9     -57   -156     32    167    171 200.3  11.1  33992  286.73 0855.32
2009/04/23 08:01:01.0     -71   -196     18    209    210 200.0   5.2  33990  286.71 0855.32
2009/04/23 08:01:01.1     -52   -177    -45    185    191 196.5 -13.9  33992  286.73 0855.32
2009/04/23 08:01:01.2     -32   -111    -24    116    119 196.5 -11.9  33990  286.69 0855.32
2009/04/23 08:01:01.3     -52     49    -22     72     76 313.2 -17.6  33990  286.69 0855.32
2009/04/23 08:01:01.4      -7     91    -89     92    128 355.1 -53.8  33992  286.73 0855.32
2009/04/23 08:01:01.5    -115     38    -50    122    131 288.2 -27.5  33988  286.67 0855.32
2009/04/23 08:01:01.6     -43     11     67     45     80 285.1  62.6  33990  286.69 0855.32
2009/04/23 08:01:01.7     -33    -11     80     35     87 251.6  75.5  33994  286.76 0855.32
2009/04/23 08:01:01.8     -57    -19      9     61     62 251.6   9.0  33990  286.71 0855.32
2009/04/23 08:01:01.9     -61   -101    -33    119    124 211.2 -15.5  33990  286.69 0855.32
2009/04/23 08:01:02.0      11   -148     52    149    157 175.6  20.0  33990  286.71 0855.32
2009/04/23 08:01:02.1     -10   -136     83    137    160 184.4  34.2  33992  286.74 0855.32
2009/04/23 08:01:02.2     -17   -119     76    121    142 188.5  35.5  33990  286.71 0855.32
2009/04/23 08:01:02.3     -46   -106     76    116    138 203.6  36.0  33992  286.74 0855.32
2009/04/23 08:01:02.4       9    -62     81     63    102 171.1  57.9  33992  286.74 0855.32
2009/04/23 08:01:02.5     -16    -84     68     86    109 191.1  43.3  33994  286.76 0855.32
2009/04/23 08:01:02.6     -12    -82     68     83    107 188.5  43.7  33992  286.73 0855.32
2009/04/23 08:01:02.7     -32   -112     90    117    147 196.0  41.7  33992  286.73 0855.32
2009/04/23 08:01:02.8     -37   -109     94    116    149 198.7  43.7  33994  286.76 0855.33
2009/04/23 08:01:02.9     -61   -128     76    142    161 205.5  30.6  33992  286.73 0855.33
2009/04/23 08:01:03.0     -55   -159     74    169    184 199.2  25.1  33994  286.76 0855.33
2009/04/23 08:01:03.1     -86   -135     58    161    171 212.6  20.2  33992  286.74 0855.33
2009/04/23 08:01:03.2     -87   -128     63    155    167 214.2  23.4  33990  286.71 0855.33
2009/04/23 08:01:03.3     -39   -113     77    120    142 199.2  35.6  33992  286.73 0855.33
2009/04/23 08:01:03.4     -41   -111     80    119    143 200.5  37.0  33992  286.73 0855.33
2009/04/23 08:01:03.5     -68    -97     94    119    151 215.2  42.7  33992  286.73 0855.33
2009/04/23 08:01:03.6     -66   -100     62    120    135 213.4  29.3  33994  286.76 0855.33
2009/04/23 08:01:03.7     -44   -106     50    115    125 202.7  25.1  33992  286.74 0855.33
2009/04/23 08:01:03.8     -72   -100     22    124    126 216.0  10.1  33992  286.73 0855.33
2009/04/23 08:01:03.9    -129    -76     11    150    151 239.4   4.4  33990  286.71 0855.33
2009/04/23 08:01:04.0    -164    -49    -22    172    174 253.2  -7.5  33988  286.67 0855.33
2009/04/23 08:01:04.1    -140    -41     27    146    149 253.6  10.6  33992  286.73 0855.33
2009/04/23 08:01:04.2    -113    -13     29    114    118 263.4  14.3  33990  286.69 0855.33
2009/04/23 08:01:04.3     -92     -4     18     93     95 267.0  11.1  33992  286.74 0855.33
2009/04/23 08:01:04.4     -96     24      5     99    100 284.2   2.9  33990  286.71 0855.33
2009/04/23 08:01:04.5     -72     40    -26     83     88 298.9 -17.6  33992  286.73 0855.33
2009/04/23 08:01:04.6     -30     47     -6     56     57 327.5  -6.2  33990  286.71 0855.33
2009/04/23 08:01:04.7       4     61     -8     62     63   4.5  -7.3  33990  286.69 0855.33
2009/04/23 08:01:04.8      36     39      7     54     55  43.2   8.0  33990  286.69 0855.33
2009/04/23 08:01:04.9      45     42     29     62     68  46.9  27.1  33990  286.69 0855.33
2009/04/23 08:01:05.0      49     46     22     68     72  46.8  18.4  33990  286.71 0855.33
2009/04/23 08:01:05.1      27     54     13     61     63  27.2  12.2  33990  286.71 0855.33
2009/04/23 08:01:05.2      26     40     26     48     54  33.4  31.4  33992  286.73 0855.33
2009/04/23 08:01:05.3      53     60     38     81     89  41.4  27.1  33988  286.67 0855.33
2009/04/23 08:01:05.4      40     17    -16     44     46  66.5 -24.4  33988  286.66 0855.33
2009/04/23 08:01:05.5      70     -7    -25     71     76  96.1 -19.7  33988  286.67 0855.33
2009/04/23 08:01:05.6      38    -36    -22     53     57 133.1 -27.4  33990  286.71 0855.33
2009/04/23 08:01:05.7      65    -81    -32    104    108 141.3 -22.8  33990  286.71 0855.33
2009/04/23 08:01:05.8     102    -47    -40    113    119 114.8 -24.4  33992  286.73 0855.33
2009/04/23 08:01:05.9     146    -34     -8    150    151 103.3  -3.2  33990  286.69 0855.33
2009/04/23 08:01:06.0     138    -50     12    147    148 110.0   4.9  33988  286.67 0855.33
2009/04/23 08:01:06.1     112      0     74    113    135  90.0  35.6  33988  286.67 0855.33
2009/04/23 08:01:06.2     107    -35     82    113    139 108.6  39.7  33992  286.73 0855.33
2009/04/23 08:01:06.3      97    -80      9    126    127 129.6   4.4  33990  286.71 0855.33
2009/04/23 08:01:06.4     105    -98     -8    144    145 133.1  -3.2  33992  286.73 0855.33
2009/04/23 08:01:06.5     115    -82     -5    142    143 125.5  -2.2  33988  286.67 0855.33
2009/04/23 08:01:06.6      99    -91      5    135    136 132.7   2.3  33988  286.67 0855.33
2009/04/23 08:01:06.7      77   -109    -24    134    137 144.8 -10.3  33990  286.71 0855.33
2009/04/23 08:01:06.8     110    -85      5    140    141 127.8   2.3  33990  286.69 0855.33
2009/04/23 08:01:06.9      83   -123     29    149    152 145.7  11.1  33986  286.64 0855.33
2009/04/23 08:01:07.0      95    -99     50    138    146 136.3  20.4  33990  286.69 0855.33
2009/04/23 08:01:07.1      69   -103     66    125    141 146.2  29.8  33988  286.67 0855.33
2009/04/23 08:01:07.3      32   -132     59    136    148 166.2  25.1  33990  286.69 0855.33
2009/04/23 08:01:07.4       7   -122     79    123    146 176.4  35.6  33990  286.69 0855.33
2009/04/23 08:01:07.5      19   -112     60    114    128 170.2  29.8  33992  286.73 0855.33
2009/04/23 08:01:07.6      -7   -111     36    112    118 184.0  17.9  33990  286.69 0855.33
2009/04/23 08:01:07.7      -8   -105     46    106    115 184.4  25.1  33990  286.69 0855.33
2009/04/23 08:01:07.8     -14   -109     53    110    122 187.6  27.3  33992  286.73 0855.33
2009/04/23 08:01:07.9      -2   -126     49    127    136 181.0  22.0  33990  286.71 0855.33
2009/04/23 08:01:08.0      -5   -119     48    120    129 182.7  23.0  33990  286.69 0855.33
2009/04/23 08:01:08.1       7   -125     49    126    135 176.4  21.5  33988  286.66 0855.33
2009/04/23 08:01:08.2      37    -88     63     96    114 157.3  35.6  33990  286.71 0855.33
2009/04/23 08:01:08.3      42    -96     59    105    120 156.4  31.9  33986  286.62 0855.33
2009/04/23 08:01:08.4      29   -125     82    129    152 166.6  35.5  33990  286.69 0855.33
2009/04/23 08:01:08.5      40   -102     95    110    145 158.2  45.4  33988  286.66 0855.33
2009/04/23 08:01:08.6      67    -67     78     95    122 135.0  43.7  33986  286.64 0855.33
2009/04/23 08:01:08.7      76    -62     72     99    122 129.5  39.7  33990  286.69 0855.33
2009/04/23 08:01:08.8      25    -64     80     69    105 158.1  54.8  33988  286.67 0855.33
2009/04/23 08:01:08.9      26    -45     67     53     85 150.1  57.5  33988  286.66 0855.33
2009/04/23 08:01:09.0      21    -64     55     68     87 161.5  43.3  33986  286.64 0855.33
2009/04/23 08:01:09.1      -4    -85     82     86    118 183.1  49.0  33986  286.64 0855.33
2009/04/23 08:01:09.2      -7    -85     78     86    116 185.3  47.5  33986  286.64 0855.33
2009/04/23 08:01:09.3      -4    -62     69     63     93 184.4  52.2  33986  286.64 0855.33
2009/04/23 08:01:09.4       2     -7     57      8     57 161.5  90.0  33988  286.67 0855.33
2009/04/23 08:01:09.5      -8     -3     59      9     59 244.7  90.0  33990  286.69 0855.33
2009/04/23 08:01:09.6      -1    -12     51     13     52 184.5  85.9  33990  286.71 0855.33
2009/04/23 08:01:09.7       8      0     50      9     50  85.6  90.0  33990  286.69 0855.33
2009/04/23 08:01:09.8      -6    -29     63     30     69 191.6  72.9  33990  286.71 0855.33
2009/04/23 08:01:09.9     -10    -10     57     15     58 223.2  84.9  33990  286.69 0855.34
2009/04/23 08:01:10.0     -23      0     44     24     50 270.8  68.8  33990  286.71 0855.34
2009/04/23 08:01:10.1       0    -44     46     45     64 180.9  49.1  33988  286.67 0855.34
2009/04/23 08:01:10.2       0    -55     79     56     96 180.9  61.5  33990  286.71 0855.34
2009/04/23 08:01:10.3       7    -22     75     24     78 161.3  80.7  33992  286.73 0855.34
2009/04/23 08:01:10.4      -1    -39     53     40     66 182.6  59.4  33992  286.73 0855.34
2009/04/23 08:01:10.5      15     14     32     21     38  46.9  64.6  33988  286.67 0855.34
2009/04/23 08:01:10.6     -13     40     57     43     71 342.2  58.5  33992  286.74 0855.34
2009/04/23 08:01:10.7     -20      0     69     21     72 270.0  81.8  33992  286.74 0855.34
2009/04/23 08:01:10.8      13    -16     81     21     83 140.4  84.9  33990  286.71 0855.34
2009/04/23 08:01:10.9      -5    -47     61     48     77 186.2  56.4  33990  286.71 0855.34
2009/04/23 08:01:11.0       9    -66     71     67     97 172.0  51.2  33988  286.66 0855.34
2009/04/23 08:01:11.1      22    -46     69     52     86 154.5  59.4  33986  286.64 0855.34
2009/04/23 08:01:11.2      16    -50     42     53     67 162.2  42.7  33990  286.69 0855.34
2009/04/23 08:01:11.3       0    -57     56     58     80 180.9  49.4  33988  286.66 0855.34
2009/04/23 08:01:11.4       6    -70     68     71     98 174.7  49.4  33986  286.64 0855.34
2009/04/23 08:01:11.5       2    -93     78     94    122 178.6  43.8  33986  286.64 0855.34
2009/04/23 08:01:11.6     -32    -94     43    100    108 199.2  24.6  33988  286.66 0855.34
2009/04/23 08:01:11.7     -24    -87     44     91    101 195.6  27.3  33988  286.67 0855.34
2009/04/23 08:01:11.8     -28    -83     50     88    101 199.2  31.9  33990  286.69 0855.34
2009/04/23 08:01:11.9     -24   -108     90    111    142 192.5  43.7  33986  286.64 0855.33
2009/04/23 08:01:12.0     -43   -142     87    149    172 196.9  33.5  33986  286.64 0855.33
2009/04/23 08:01:12.1     -51   -164     87    172    192 197.4  28.7  33990  286.71 0855.33
2009/04/23 08:01:12.2     -13   -174     56    175    184 184.4  17.9  33990  286.71 0855.33
2009/04/23 08:01:12.3     -91   -269     63    285    293 198.7  12.6  33984  286.58 0855.33
2009/04/23 08:01:12.4     -13   -190    151    191    243 184.0  42.4  33990  286.69 0855.33
2009/04/23 08:01:12.5      18   -232     72    233    245 175.5  17.3  33990  286.70 0855.33
2009/04/23 08:01:12.6      17   -234    132    235    269 175.6  31.6  33990  286.70 0855.33
2009/04/23 08:01:12.7     -31   -251     61    253    261 187.2  13.7  33992  286.74 0855.33
2009/04/23 08:01:12.8     -53   -252     -9    258    259 192.0  -2.1  33990  286.70 0855.33
2009/04/23 08:01:12.9     -85   -284     34    297    300 196.7   6.7  33990  286.68 0855.33
2009/04/23 08:01:13.0     -22   -239     61    241    249 185.3  14.3  33992  286.74 0855.33
2009/04/23 08:01:13.1     -48   -266    140    271    305 190.2  29.3  33990  286.70 0855.33
2009/04/23 08:01:13.2    -115   -234      9    261    262 206.3   2.1  33990  286.70 0855.33
2009/04/23 08:01:13.3     -58   -175     17    185    186 198.5   5.4  33988  286.67 0855.33
2009/04/23 08:01:13.4     -21   -160     52    162    171 187.8  17.9  33992  286.73 0855.33
2009/04/23 08:01:13.5       0   -211     22    212    214 180.2   6.1  33990  286.71 0855.33
2009/04/23 08:01:13.6       4   -260     22    261    263 179.0   4.9  33990  286.68 0855.33
2009/04/23 08:01:13.7       0   -249     21    250    251 180.0   5.0  33990  286.70 0855.33
2009/04/23 08:01:13.8      21   -277     60    278    285 175.5  12.2  33988  286.67 0855.33
2009/04/23 08:01:13.9      20   -314     57    315    321 176.2  10.4  33992  286.74 0855.34
2009/04/23 08:01:14.0      15   -320     58    321    327 177.3  10.4  33988  286.67 0855.34
2009/04/23 08:01:14.1      27   -346     40    348    351 175.4   6.7  33986  286.64 0855.34
2009/04/23 08:01:14.2      82   -286     30    298    300 163.9   5.9  33990  286.68 0855.34
2009/04/23 08:01:14.3      24   -233    -16    235    236 174.0  -4.1  33986  286.63 0855.34
2009/04/23 08:01:14.4      15   -244    -25    245    247 176.4  -6.0  33988  286.67 0855.34
2009/04/23 08:01:14.5      23   -244     -1    246    247 174.6  -0.3  33988  286.67 0855.34
2009/04/23 08:01:14.6      66   -266    -26    275    277 166.0  -5.6  33990  286.70 0855.34
2009/04/23 08:01:14.7      83   -296     -9    308    309 164.2  -1.8  33990  286.70 0855.34
2009/04/23 08:01:14.8      67   -286     23    294    295 166.7   4.6  33992  286.72 0855.34
2009/04/23 08:01:14.9      86   -284     18    297    298 163.1   3.6  33992  286.74 0855.34
2009/04/23 08:01:15.0      86   -283     19    296    297 163.0   3.8  33990  286.70 0855.34
2009/04/23 08:01:15.1     133   -270    -16    302    303 153.7  -3.2  33992  286.74 0855.34
2009/04/23 08:01:15.2     146   -276     36    313    316 152.1   6.7  33992  286.74 0855.34
2009/04/23 08:01:15.3     190   -271     33    332    334 144.9   5.8  33990  286.69 0855.34
2009/04/23 08:01:15.4      85   -315     90    327    340 164.8  15.4  33990  286.69 0855.34
2009/04/23 08:01:15.5      88   -323    121    335    357 164.7  19.9  33994  286.76 0855.34
2009/04/23 08:01:15.6     128   -313     67    339    346 157.8  11.3  33988  286.66 0855.34
2009/04/23 08:01:15.7      90   -313     92    326    339 164.0  15.8  33994  286.76 0855.34
2009/04/23 08:01:15.8      86   -291    107    304    322 163.5  20.0  33994  286.75 0855.34
2009/04/23 08:01:15.9      86   -318    113    330    349 164.9  18.9  33994  286.75 0855.33
2009/04/23 08:01:16.0      56   -300    108    306    324 169.3  20.2  33992  286.72 0855.33
2009/04/23 08:01:16.1      18   -297     57    298    304 176.4  11.0  33992  286.72 0855.33
2009/04/23 08:01:16.2      71   -236     19    247    248 163.1   4.6  33986  286.63 0855.33
2009/04/23 08:01:16.3      64   -184    -10    195    196 160.8  -3.2  33992  286.73 0855.33
2009/04/23 08:01:16.4      79   -209     -8    224    225 159.3  -2.2  33988  286.66 0855.33
2009/04/23 08:01:16.5      65   -166      2    179    180 158.4   0.8  33992  286.73 0855.33
2009/04/23 08:01:16.6      58   -216     17    224    225 164.9   4.6  33992  286.73 0855.33
2009/04/23 08:01:16.7     127   -227    104    261    280 150.8  23.0  33994  286.75 0855.33
2009/04/23 08:01:16.8      47   -255     99    260    278 169.4  22.0  33992  286.72 0855.33
2009/04/23 08:01:16.9       5   -327      0    328    329 179.1   0.0  33990  286.68 0855.33
2009/04/23 08:01:17.0     -60   -294     54    301    306 191.6  10.3  33990  286.68 0855.33
2009/04/23 08:01:17.1     -27   -249     67    251    260 186.2  15.0  33990  286.68 0855.33
2009/04/23 08:01:17.2      13   -238     59    239    247 176.9  13.9  33988  286.65 0855.33
2009/04/23 08:01:17.3      36   -204     18    208    209 170.0   5.0  33990  286.69 0855.33
2009/04/23 08:01:17.4      42   -204    -12    209    210 168.2  -3.3  33988  286.66 0855.33
2009/04/23 08:01:17.5       9   -213     10    214    215 177.5   2.8  33986  286.64 0855.33
2009/04/23 08:01:17.6      -7   -209    -11    210    211 182.0  -3.1  33988  286.66 0855.33
2009/04/23 08:01:17.7     -80   -220    -59    235    243 200.0 -14.3  33986  286.63 0855.33
2009/04/23 08:01:17.8     -72   -239    -84    250    264 196.9 -18.6  33986  286.63 0855.33
2009/04/23 08:01:17.9     -59   -285    -48    292    296 191.8  -9.3  33982  286.57 0855.34
2009/04/23 08:01:18.0     -42   -272    -56    276    282 188.9 -11.6  33984  286.60 0855.34
2009/04/23 08:01:18.1     -74   -259    -68    270    279 196.0 -14.3  33984  286.58 0855.34
2009/04/23 08:01:18.2    -153   -277    -92    317    331 209.0 -16.2  33984  286.60 0855.34
2009/04/23 08:01:18.3    -186   -274     -1    332    333 214.1  -0.2  33984  286.58 0855.34
2009/04/23 08:01:18.4    -194   -242    -22    311    312 218.7  -4.1  33992  286.72 0855.34
2009/04/23 08:01:18.5    -204   -231     -6    309    310 221.5  -1.3  33984  286.58 0855.34
2009/04/23 08:01:18.6    -221   -222    -42    314    317 224.8  -7.7  33986  286.63 0855.34
2009/04/23 08:01:18.7    -178   -208    -42    274    278 220.5  -8.8  33984  286.60 0855.34
2009/04/23 08:01:18.8    -187   -199    -45    274    278 223.2  -9.4  33984  286.58 0855.34
2009/04/23 08:01:18.9    -176   -192    -18    261    262 222.5  -4.1  33980  286.53 0855.34
2009/04/23 08:01:19.0    -149   -219     -1    266    267 214.3  -0.3  33986  286.63 0855.34
2009/04/23 08:01:19.1    -139   -195    -37    240    243 215.6  -8.8  33984  286.58 0855.34
2009/04/23 08:01:19.2    -104   -163    -22    194    196 212.5  -6.7  33984  286.61 0855.34
2009/04/23 08:01:19.3     -92    -91    -26    130    133 225.1 -11.3  33984  286.59 0855.34
2009/04/23 08:01:19.4    -107    -68     -4    127    128 237.6  -2.2  33978  286.51 0855.34
2009/04/23 08:01:19.5    -120    -72     23    141    143 238.9   9.5  33982  286.56 0855.34
2009/04/23 08:01:19.6    -156    -48     57    164    174 252.7  19.2  33980  286.52 0855.34
2009/04/23 08:01:19.7    -181    -64     67    193    205 250.5  19.2  33984  286.59 0855.34
2009/04/23 08:01:19.8    -157     -9     57    158    167 266.5  20.4  33986  286.64 0855.34
2009/04/23 08:01:19.9    -189    -38    -43    193    198 258.5 -12.6  33990  286.71 0855.34
2009/04/23 08:01:20.0    -188     -4    -54    189    197 268.7 -16.0  33994  286.76 0855.34
2009/04/23 08:01:20.1    -164     22     -6    166    167 277.9  -2.2  33990  286.69 0855.34
2009/04/23 08:01:20.2    -135     53    -18    146    148 291.7  -7.3  33992  286.73 0855.34
2009/04/23 08:01:20.3    -113     57    -11    127    128 297.0  -5.2  33994  286.76 0855.34
2009/04/23 08:01:20.4     -91     49    -21    104    107 298.4 -11.5  33994  286.76 0855.34
2009/04/23 08:01:20.5     -89     20    -11     92     93 282.8  -7.3  33990  286.71 0855.34
2009/04/23 08:01:20.6     -62     20     -8     66     67 288.2  -7.2  33990  286.69 0855.34
2009/04/23 08:01:20.7     -44      3      4     45     46 274.4   5.9  33990  286.69 0855.34
2009/04/23 08:01:20.8     -27    -22    -20     36     41 230.5 -35.8  33986  286.62 0855.34
2009/04/23 08:01:20.9     -31     14    -24     35     42 295.3 -42.0  33986  286.64 0855.34
2009/04/23 08:01:21.0     -26     40    -33     48     58 326.6 -40.9  33986  286.64 0855.34
2009/04/23 08:01:21.1     -37     13    -22     40     45 290.0 -36.8  33988  286.66 0855.34
2009/04/23 08:01:21.2     -41      0    -20     42     46 270.0 -31.6  33986  286.64 0855.34
2009/04/23 08:01:21.3     -24    -22     -9     33     35 226.9 -15.5  33986  286.64 0855.34
2009/04/23 08:01:21.4       7    -37      0     38     39 168.5   0.8  33986  286.64 0855.34
2009/04/23 08:01:21.5      50    -32      0     60     61 122.4   0.8  33986  286.62 0855.34
2009/04/23 08:01:21.6      87    -29     14     92     94 108.4   9.0  33990  286.71 0855.34
2009/04/23 08:01:21.7      90    -21     41     93    101 103.7  25.1  33986  286.64 0855.34
2009/04/23 08:01:21.8     106    -14    -32    108    113  97.9 -16.6  33986  286.64 0855.34
2009/04/23 08:01:21.9     155    -11     15    156    157  94.4   5.7  33984  286.59 0855.32
2009/04/23 08:01:22.0     133      0     39    134    140  90.4  16.3  33986  286.62 0855.32
2009/04/23 08:01:22.1     111    -37     46    118    126 108.6  22.0  33986  286.64 0855.32
2009/04/23 08:01:22.2      68    -43     55     81     97 122.4  37.0  33986  286.64 0855.32
2009/04/23 08:01:22.3      52    -63     28     82     87 140.4  19.4  33986  286.62 0855.32
2009/04/23 08:01:22.4      72      5     50     73     88  85.6  37.6  33986  286.64 0855.32
2009/04/23 08:01:22.5      31    -31     50     45     67 134.9  52.2  33986  286.64 0855.32
2009/04/23 08:01:22.6       7    -39     42     40     58 169.3  49.1  33986  286.64 0855.32
2009/04/23 08:01:22.7       2    -38     32     39     50 175.6  43.7  33986  286.64 0855.32
2009/04/23 08:01:22.8     -12    -37     -8     40     41 198.5 -11.3  33988  286.67 0855.32
2009/04/23 08:01:22.9     -26    -31    -26     41     48 220.5 -39.9  33988  286.67 0855.32
2009/04/23 08:01:23.0     -12    -15    -20     20     28 219.6 -54.5  33986  286.64 0855.32
2009/04/23 08:01:23.1     -16    -16    -17     24     29 225.1 -42.0  33988  286.67 0855.32
2009/04/23 08:01:23.2     -28    -11    -27     31     41 248.3 -50.2  33990  286.69 0855.32
2009/04/23 08:01:23.3     -56      3    -17     57     60 273.5 -16.6  33988  286.66 0855.32
2009/04/23 08:01:23.4     -89    -14    -20     91     94 260.8 -12.4  33990  286.71 0855.32
2009/04/23 08:01:23.5     -60    -23    -47     65     80 249.2 -44.1  33990  286.69 0855.32
2009/04/23 08:01:23.6     -50    -14    -61     52     80 254.1 -59.8  33992  286.73 0855.32
2009/04/23 08:01:23.7     -42    -10    -68     44     80 256.7 -68.5  33990  286.69 0855.32
2009/04/23 08:01:23.8     -47     -2    -73     48     87 266.5 -68.5  33990  286.69 0855.32
2009/04/23 08:01:23.9     -27     -9    -68     29     73 251.8 -81.4  33990  286.69 0855.33
2009/04/23 08:01:24.0     -29      0    -70     30     76 270.0 -80.5  33990  286.69 0855.33
2009/04/23 08:01:24.1     -23     11    -65     26     70 297.1 -81.5  33990  286.69 0855.33
2009/04/23 08:01:24.2       4      7    -62      9     62  32.5 -90.0  33988  286.67 0855.33
2009/04/23 08:01:24.3      -3      7    -45      8     45 334.6 -90.0  33988  286.67 0855.33
2009/04/23 08:01:24.4       7      0    -44      8     44  90.0 -90.0  33988  286.67 0855.33
2009/04/23 08:01:24.5      41    -28    -42     50     65 124.2 -48.2  33990  286.69 0855.33
2009/04/23 08:01:24.6      26    -26    -24     37     44 135.0 -40.9  33990  286.69 0855.33
2009/04/23 08:01:24.7      42    -24    -29     49     56 120.7 -38.8  33988  286.67 0855.33
2009/04/23 08:01:24.8      61    -27    -39     67     77 114.4 -37.9  33988  286.67 0855.33
2009/04/23 08:01:24.9      56    -47    -40     74     84 129.6 -35.8  33988  286.66 0855.33
2009/04/23 08:01:25.0      45    -37    -36     59     69 129.6 -39.9  33990  286.71 0855.33
2009/04/23 08:01:25.1      59    -24    -41     64     76 112.6 -39.9  33990  286.69 0855.33
2009/04/23 08:01:25.2      77    -15    -31     79     84 101.5 -26.4  33992  286.73 0855.33
2009/04/23 08:01:25.3      60    -33    -46     69     82 118.9 -41.4  33988  286.67 0855.33
2009/04/23 08:01:25.4      72    -49    -40     88     96 124.6 -30.6  33992  286.73 0855.33
2009/04/23 08:01:25.5      72    -49    -27     88     92 124.6 -22.3  33992  286.73 0855.33
2009/04/23 08:01:25.6      77    -49    -28     92     96 122.9 -22.8  33992  286.74 0855.33
2009/04/23 08:01:25.7      63    -53    -28     83     87 130.0 -23.6  33994  286.76 0855.33
2009/04/23 08:01:25.8      73    -56    -34     93     99 127.8 -24.8  33992  286.74 0855.33
2009/04/23 08:01:25.9      91    -58    -37    109    115 122.5 -23.3  33992  286.74 0855.33
2009/04/23 08:01:26.0      85    -68      5    110    111 128.6   2.8  33992  286.74 0855.33
2009/04/23 08:01:26.1      93    -93     33    132    137 135.0  14.3  33988  286.67 0855.33
2009/04/23 08:01:26.2      66    -89     21    111    114 143.5  11.1  33992  286.73 0855.33
2009/04/23 08:01:26.3      59    -71     50     93    105 140.4  30.8  33992  286.74 0855.33
2009/04/23 08:01:26.4      32    -51     73     61     95 147.4  56.3  33990  286.69 0855.33
2009/04/23 08:01:26.5      12    -31     54     34     63 158.2  64.7  33992  286.73 0855.33
2009/04/23 08:01:26.6      33    -40     51     52     72 140.4  51.1  33992  286.74 0855.33
2009/04/23 08:01:26.7       6    -86     89     87    124 175.5  50.1  33990  286.71 0855.33
2009/04/23 08:01:26.8      -8    -95     83     96    126 185.3  45.8  33990  286.71 0855.33
2009/04/23 08:01:26.9      67    -13     54     69     87 101.4  42.2  33990  286.71 0855.33
2009/04/23 08:01:27.0      78    -17     85     81    117 102.8  51.2  33994  286.76 0855.33
2009/04/23 08:01:27.1      84    -22    105     87    136 105.1  56.3  33990  286.71 0855.33
2009/04/23 08:01:27.2     119    -40    102    126    162 108.6  43.3  33992  286.73 0855.33
2009/04/23 08:01:27.3     161    -46     88    168    189 106.2  29.8  33992  286.73 0855.33
2009/04/23 08:01:27.4     160    -49     87    168    189 107.1  29.5  33990  286.71 0855.33
2009/04/23 08:01:27.5     166    -63     95    178    201 111.1  30.3  33986  286.64 0855.33
2009/04/23 08:01:27.6     179    -48     80    186    202 105.0  24.9  33990  286.69 0855.33
2009/04/23 08:01:27.7     164    -10     78    165    182  93.5  27.1  33992  286.74 0855.33
2009/04/23 08:01:27.8     179    -25     88    181    201  98.1  27.8  33992  286.73 0855.33
2009/04/23 08:01:27.9     155     -2    108    156    189  90.9  38.0  33988  286.66 0855.33
2009/04/23 08:01:28.0     207    -26    135    209    248  97.2  35.7  33990  286.70 0855.33
2009/04/23 08:01:28.1     162    -19    112    164    198  96.8  37.6  33990  286.71 0855.33
2009/04/23 08:01:28.2     181     31     63    184    195  80.1  18.9  33992  286.74 0855.33
2009/04/23 08:01:28.3     179     26     77    181    196  81.6  24.6  33990  286.71 0855.33
2009/04/23 08:01:28.4     176     49     68    183    195  74.3  20.7  33992  286.73 0855.33
2009/04/23 08:01:28.5     102     34     99    108    146  71.6  47.9  33990  286.69 0855.33
2009/04/23 08:01:28.6     108     45     99    118    154  67.4  43.8  33992  286.74 0855.33
2009/04/23 08:01:28.7      76     60    100     97    139  51.8  50.7  33992  286.74 0855.33
2009/04/23 08:01:28.8     105     82    101    134    167  51.8  40.9  33992  286.74 0855.33
2009/04/23 08:01:28.9     117     72    115    138    179  58.5  43.8  33992  286.73 0855.34
2009/04/23 08:01:29.0      89     65     68    111    130  54.1  34.4  33990  286.69 0855.34
2009/04/23 08:01:29.1      55     51     96     76    122  46.9  57.5  33992  286.74 0855.34
2009/04/23 08:01:29.2      36     20     77     42     87  61.1  69.3  33992  286.74 0855.34
2009/04/23 08:01:29.3      14     20     34     25     42  36.1  59.4  33994  286.76 0855.34
2009/04/23 08:01:29.4       4     43     35     44     56   5.3  43.7  33992  286.74 0855.34
2009/04/23 08:01:29.5      79      9     50     80     94  83.0  35.5  33990  286.69 0855.34
2009/04/23 08:01:29.6      58      7     44     59     73  83.0  40.7  33988  286.66 0855.34
2009/04/23 08:01:29.7      56      0     52     57     77  90.0  47.9  33988  286.66 0855.34
2009/04/23 08:01:29.8      51     -7     63     52     81  98.8  56.4  33988  286.67 0855.34
2009/04/23 08:01:29.9      -7     -9     46     12     47 216.1  84.9  33992  286.73 0855.34
2009/04/23 08:01:30.0     -21    -11     47     24     52 241.1  71.9  33994  286.76 0855.34
2009/04/23 08:01:30.1      -9    -18     48     21     52 207.2  75.0  33996  286.79 0855.34
2009/04/23 08:01:30.2     -30    -48     63     57     84 212.6  52.7  33990  286.71 0855.34
2009/04/23 08:01:30.3     -53    -13     41     55     68 255.8  41.7  33988  286.66 0855.34
2009/04/23 08:01:30.4     -94     26     26     98    102 285.5  15.3  33988  286.67 0855.34
2009/04/23 08:01:30.5    -134    -10     53    135    145 265.7  23.0  33990  286.69 0855.34
2009/04/23 08:01:30.6    -100    -77     81    127    150 232.2  35.6  33992  286.73 0855.34
2009/04/23 08:01:30.7     -87    -41     94     97    135 244.6  49.9  33992  286.73 0855.34
2009/04/23 08:01:30.8    -165    -61     71    177    190 249.6  23.0  33992  286.73 0855.34
2009/04/23 08:01:30.9     -99   -106     42    146    153 223.2  16.3  33992  286.73 0855.34
2009/04/23 08:01:31.0     -93    -93     56    132    143 225.2  24.1  33990  286.69 0855.34
2009/04/23 08:01:31.1     -93    -46     73    104    127 243.4  38.0  33988  286.66 0855.34
2009/04/23 08:01:31.2    -119    -16     29    121    125 262.1  13.7  33986  286.62 0855.34
2009/04/23 08:01:31.3    -132    -26      9    135    136 258.5   3.8  33984  286.61 0855.34
2009/04/23 08:01:31.4    -137      0     19    138    140 270.0   8.0  33988  286.67 0855.34
2009/04/23 08:01:31.5    -107     20     30    110    115 281.0  15.3  33988  286.67 0855.34
2009/04/23 08:01:31.6     -77     55     52     95    108 305.5  30.8  33990  286.69 0855.34
2009/04/23 08:01:31.7     -87     79     89    118    147 312.2  41.2  33992  286.73 0855.34
2009/04/23 08:01:31.8     -63     77     75    100    125 320.8  40.7  33990  286.71 0855.34
2009/04/23 08:01:31.9     -28     89     32     94    100 342.6  19.2  33990  286.69 0855.34
2009/04/23 08:01:32.0     -20     97     33    100    106 348.0  18.4  33988  286.66 0855.34
2009/04/23 08:01:32.1       7    106     47    107    116   4.0  25.1  33990  286.69 0855.34
2009/04/23 08:01:32.2      27    130     81    133    155  12.0  35.0  33990  286.69 0855.34
2009/04/23 08:01:32.3      59    121     74    135    153  26.3  31.4  33990  286.71 0855.34
2009/04/23 08:01:32.4      33     98     75    104    128  18.7  39.5  33988  286.67 0855.34
2009/04/23 08:01:32.5      -9    108     85    109    138 355.1  41.7  33992  286.73 0855.34
2009/04/23 08:01:32.6      12     67     93     69    115  10.7  60.0  33990  286.71 0855.34
2009/04/23 08:01:32.7     215     44      3    220    221  78.3   0.8  34050  287.72 0855.34
2009/04/23 08:01:32.8      46     92     86    104    134  26.7  43.8  33990  286.69 0855.34
2009/04/23 08:01:32.9      63    105     90    123    152  31.2  39.7  33990  286.69 0855.34
2009/04/23 08:01:33.0     105     23    102    108    148  77.6  48.0  33988  286.67 0855.34
2009/04/23 08:01:33.1      81     15     66     83    106  79.4  42.7  33988  286.67 0855.34
2009/04/23 08:01:33.2      14     22     52     27     58  32.5  70.8  33984  286.61 0855.34
2009/04/23 08:01:33.3     -51    -80     85     95    127 212.6  46.4  33992  286.73 0855.34
2009/04/23 08:01:33.4     -78    -29     61     84    103 249.6  39.5  33990  286.69 0855.34
2009/04/23 08:01:33.5     -88     23     63     92    111 285.1  37.6  33988  286.67 0855.34
2009/04/23 08:01:33.6     -57    -44     93     73    118 232.2  57.9  33992  286.73 0855.34
2009/04/23 08:01:33.7     -28    -40     82     50     96 215.2  65.1  33990  286.71 0855.34
2009/04/23 08:01:33.8     -21     13     57     26     62 302.4  74.0  33992  286.73 0855.34
2009/04/23 08:01:33.9     -14    -27     39     31     49 207.2  56.4  33990  286.71 0855.34
2009/04/23 08:01:34.0      49    -34     62     60     86 125.1  50.1  33992  286.73 0855.34
2009/04/23 08:01:34.1      39    -51     65     65     91 142.2  50.1  33990  286.69 0855.34
2009/04/23 08:01:34.2      59     -8     75     60     96  97.9  56.9  33992  286.73 0855.34
2009/04/23 08:01:34.3      28      3     62     29     68  82.1  73.1  33992  286.73 0855.34
2009/04/23 08:01:34.4      -1    -32     45     33     55 182.7  60.5  33994  286.76 0855.34
2009/04/23 08:01:34.5     -22    -14     45     27     52 237.6  65.7  33992  286.73 0855.34
2009/04/23 08:01:34.6       0      3     37      4     37 350.3  90.0  33992  286.74 0855.34
2009/04/23 08:01:34.7     -16     -5     50     17     52 251.4  81.0  33994  286.76 0855.34
2009/04/23 08:01:34.8      23    -61     76     66    100 159.1  54.3  33992  286.73 0855.34
2009/04/23 08:01:34.9       7    -27     80     29     85 164.9  80.2  33994  286.76 0855.32
2009/04/23 08:01:35.1     -14    -57     53     59     79 194.3  47.5  33994  286.76 0855.32
2009/04/23 08:01:35.2     -17    -36     56     40     68 205.4  60.6  33994  286.76 0855.32
2009/04/23 08:01:35.3     -10    -49     83     51     97 191.6  64.7  33994  286.76 0855.32
2009/04/23 08:01:35.4     -14    -70     74     72    103 191.6  50.1  33992  286.73 0855.32
2009/04/23 08:01:35.5       0    -79     71     80    106 180.0  46.9  33990  286.71 0855.32
2009/04/23 08:01:35.6      -8   -104     58    105    119 184.5  31.4  33992  286.73 0855.32
2009/04/23 08:01:35.7      -5    -74     60     75     96 184.5  43.3  33992  286.73 0855.32
2009/04/23 08:01:35.8     -10    -81     68     82    106 187.6  43.8  33990  286.69 0855.32
2009/04/23 08:01:35.9     -32    -96     62    102    119 198.3  34.0  33992  286.73 0855.32
2009/04/23 08:01:36.0     -25    -82     69     86    110 197.4  43.7  33992  286.73 0855.32
2009/04/23 08:01:36.1     -48   -109     68    120    137 203.6  31.9  33992  286.73 0855.32
2009/04/23 08:01:36.2     -43   -131     47    138    146 198.3  18.9  33992  286.73 0855.32
2009/04/23 08:01:36.3     -80   -104     45    132    140 217.8  18.9  33992  286.73 0855.32
2009/04/23 08:01:36.4    -105    -98     58    144    155 226.9  23.0  33992  286.73 0855.32
2009/04/23 08:01:36.5    -112    -62     35    129    134 241.1  15.3  33988  286.66 0855.32
2009/04/23 08:01:36.6     -83    -76     31    113    118 227.3  15.3  33992  286.74 0855.32
2009/04/23 08:01:36.7     -60    -75     19     97     99 218.7  11.1  33990  286.71 0855.32
2009/04/23 08:01:36.8     -55    -66      9     87     88 219.6   5.9  33992  286.73 0855.32
2009/04/23 08:01:36.9     -60    -66      4     90     91 222.3   2.9  33992  286.74 0855.32
2009/04/23 08:01:37.0     -38    -72     21     82     85 208.1  14.7  33992  286.73 0855.31
2009/04/23 08:01:37.1     -44    -53      7     70     71 219.7   5.9  33992  286.73 0855.31
2009/04/23 08:01:37.2     -32    -66      3     74     75 206.3   2.9  33994  286.76 0855.31
2009/04/23 08:01:37.3     -31    -62      7     70     71 206.3   5.9  33992  286.73 0855.31
2009/04/23 08:01:37.4     -33    -69     19     77     80 205.4  14.3  33994  286.76 0855.31
2009/04/23 08:01:37.5     -37    -54     31     66     72 214.3  27.1  33992  286.73 0855.31
2009/04/23 08:01:37.6     -39    -44     11     60     62 221.4  11.1  33992  286.73 0855.31
2009/04/23 08:01:37.7     -44    -38      7     59     60 228.7   6.9  33992  286.73 0855.31
2009/04/23 08:01:37.8     -37    -45      9     59     60 219.6   9.0  33992  286.74 0855.31
2009/04/23 08:01:37.9     -36    -50     24     62     66 216.1  22.0  33994  286.78 0855.31
2009/04/23 08:01:38.0     -42    -65      8     78     79 212.6   6.5  33994  286.76 0855.31
2009/04/23 08:01:38.1     -40    -47     19     62     65 220.5  17.3  33996  286.79 0855.31
2009/04/23 08:01:38.2     -43    -52     24     68     73 219.7  19.4  33992  286.73 0855.31
2009/04/23 08:01:38.3     -53    -53     36     75     83 225.0  27.2  33994  286.76 0855.31
2009/04/23 08:01:38.4     -67    -29      7     74     75 246.5   5.9  33992  286.74 0855.31
2009/04/23 08:01:38.5     -61    -30      0     68     69 243.8   0.8  33994  286.76 0855.31
2009/04/23 08:01:38.6     -58    -38     19     70     73 236.7  15.3  33996  286.79 0855.31
2009/04/23 08:01:38.7     -61    -32     13     70     72 242.0  11.1  33996  286.79 0855.31
2009/04/23 08:01:38.8     -44     -3     30     45     54 265.6  36.5  33994  286.76 0855.31
2009/04/23 08:01:38.9     -26    -11     62     29     68 246.5  73.1  33994  286.78 0855.31
2009/04/23 08:01:39.0     -22      0     57     23     61 270.0  77.1  33992  286.73 0855.31
2009/04/23 08:01:39.1     -24     -4     49     25     55 260.3  70.8  33994  286.78 0855.31
2009/04/23 08:01:39.2     -33      7     43     34     54 283.3  57.5  33990  286.71 0855.31
2009/04/23 08:01:39.3     -79     29     40     85     93 290.4  27.1  33986  286.62 0855.31
2009/04/23 08:01:39.4     -85      8     59     86    104 275.7  37.6  33986  286.62 0855.31
2009/04/23 08:01:39.5    -110    -23     29    113    117 258.1  14.7  33990  286.69 0855.31
2009/04/23 08:01:39.6     -92    -36     48    100    110 248.3  27.3  33990  286.69 0855.31
2009/04/23 08:01:39.7    -154    -11     37    155    160 265.6  13.5  33988  286.66 0855.31
2009/04/23 08:01:39.8    -148      0     35    149    154 270.0  13.2  33984  286.61 0855.31
2009/04/23 08:01:39.9    -129     -3     23    130    133 268.3  10.1  33984  286.59 0855.31
2009/04/23 08:01:40.0    -128     10     18    129    131 274.8   8.0  33984  286.59 0855.31
2009/04/23 08:01:40.1    -112     36     18    118    120 288.2   9.0  33976  286.47 0855.31
2009/04/23 08:01:40.2    -109     39     23    116    119 290.0  11.6  33972  286.39 0855.31
2009/04/23 08:01:40.3    -111     32     15    116    117 286.4   7.5  33972  286.39 0855.31
2009/04/23 08:01:40.4    -115     45     12    124    125 291.7   5.9  33978  286.49 0855.31
2009/04/23 08:01:40.5    -120     40     22    127    130 288.4  10.1  33978  286.49 0855.31
2009/04/23 08:01:40.6     -98     53     35    112    118 298.4  17.4  33972  286.41 0855.31
2009/04/23 08:01:40.7     -97     32     28    103    107 288.2  15.3  33972  286.39 0855.31
2009/04/23 08:01:40.8     -88     46     22    100    103 298.0  12.6  33972  286.41 0855.31
2009/04/23 08:01:40.9     -75     58     34     95    100 307.8  20.0  33974  286.42 0855.31
2009/04/23 08:01:41.0     -77     41     31     88     94 298.4  19.4  33974  286.42 0855.31
2009/04/23 08:01:41.1     -73     48     27     88     93 303.3  17.3  33976  286.46 0855.31
2009/04/23 08:01:41.2     -62     45     10     77     78 305.9   7.5  33974  286.44 0855.31
2009/04/23 08:01:41.3     -70     49      6     86     87 305.5   4.4  33974  286.42 0855.31
2009/04/23 08:01:41.4     -56     60     10     83     84 317.2   6.9  33974  286.44 0855.31
2009/04/23 08:01:41.5     -28     48     10     56     57 329.3  10.1  33980  286.54 0855.31
2009/04/23 08:01:41.6     -18     39     35     44     56 334.6  43.7  33982  286.56 0855.31
2009/04/23 08:01:41.7     -10     40     27     42     49 344.9  35.5  33982  286.57 0855.31
2009/04/23 08:01:41.8      -1     24     13     25     28 357.3  29.3  33982  286.56 0855.31
2009/04/23 08:01:41.9       3    -14     24     15     28 164.9  64.7  33986  286.64 0855.31
2009/04/23 08:01:42.0       3    -38     31     39     49 175.5  43.7  33984  286.61 0855.31
2009/04/23 08:01:42.1       7    -11     27     14     30 147.5  70.8  33984  286.61 0855.31
2009/04/23 08:01:42.2      -6     25     27     26     37 346.6  48.2  33984  286.61 0855.31
2009/04/23 08:01:42.3       3     32     11     33     35   6.2  19.4  33986  286.64 0855.31
2009/04/23 08:01:42.4      32     36     18     49     52  41.4  20.0  33988  286.66 0855.31
2009/04/23 08:01:42.5      44     60     -5     75     76  36.0  -4.1  33986  286.64 0855.31
2009/04/23 08:01:42.6      26     63     -2     69     70  22.7  -2.2  33986  286.64 0855.31
2009/04/23 08:01:42.7      51     34     31     62     69  55.8  27.3  33984  286.61 0855.31
2009/04/23 08:01:42.8      64     41     44     77     88  57.5  32.4  33984  286.61 0855.31
2009/04/23 08:01:42.9      54     54     46     77     89  45.0  34.0  33986  286.64 0855.31
2009/04/23 08:01:43.0      48     44     52     66     84  47.8  42.2  33984  286.61 0855.31
2009/04/23 08:01:43.1      57     47     37     75     83  50.5  28.2  33986  286.64 0855.31
2009/04/23 08:01:43.2      49     46     28     68     73  46.8  23.0  33986  286.64 0855.31
2009/04/23 08:01:43.3      55     39     19     68     71  54.0  16.3  33986  286.62 0855.31
2009/04/23 08:01:43.4      42     50     41     66     77  40.5  35.5  33990  286.69 0855.31
2009/04/23 08:01:43.5      47     44     53     65     83  46.9  43.7  33986  286.62 0855.31
2009/04/23 08:01:43.6      43     39     50     59     77  47.8  43.8  33986  286.64 0855.31
2009/04/23 08:01:43.7      37     45     49     59     76  39.6  43.8  33988  286.66 0855.31
2009/04/23 08:01:43.8      41     31     66     52     84  52.2  57.9  33982  286.56 0855.31
2009/04/23 08:01:43.9      48     31     68     58     89  57.6  55.4  33986  286.64 0855.31
2009/04/23 08:01:44.0      45     31     71     55     89  54.9  57.9  33988  286.66 0855.31
2009/04/23 08:01:44.1      58     25     69     64     94  66.5  51.6  33988  286.67 0855.31
2009/04/23 08:01:44.2      48     38     74     62     96  52.2  55.8  33988  286.66 0855.31
2009/04/23 08:01:44.3      58     36     76     69    102  57.6  52.7  33988  286.66 0855.31
2009/04/23 08:01:44.4      76     38     88     86    123  63.4  50.1  33988  286.67 0855.31
2009/04/23 08:01:44.5      81     47     93     94    132  59.8  50.0  33988  286.67 0855.31
2009/04/23 08:01:44.6      80     29     75     86    114  70.0  45.8  33988  286.66 0855.31
2009/04/23 08:01:44.7     105     34     52    111    122  71.8  26.6  33984  286.61 0855.31
2009/04/23 08:01:44.8      81     22     60     85    104  74.5  38.6  33986  286.64 0855.31
2009/04/23 08:01:44.9      34     48     63     59     86  35.2  51.6  33988  286.66 0855.31
2009/04/23 08:01:45.0      45     30     57     55     79  55.8  50.7  33988  286.67 0855.31
2009/04/23 08:01:45.1      26     41     60     49     77  32.6  56.4  33986  286.62 0855.31
2009/04/23 08:01:45.2      33     31     63     46     78  46.9  60.5  33988  286.66 0855.31
2009/04/23 08:01:45.3      11     29     58     32     66  21.8  68.8  33986  286.64 0855.31
2009/04/23 08:01:45.4      12     15     46     20     50  39.6  74.0  33986  286.64 0855.31
2009/04/23 08:01:45.5      18     17     65     26     70  46.9  77.1  33984  286.61 0855.31
2009/04/23 08:01:45.6       1      8     36      9     37  11.6  86.9  33984  286.61 0855.31
2009/04/23 08:01:45.7      16     16     60     24     64  45.0  77.1  33986  286.62 0855.31
2009/04/23 08:01:45.8      24     24     49     34     59  45.0  61.5  33980  286.52 0855.31
2009/04/23 08:01:45.9      16     10     55     19     58  57.5  81.2  33984  286.59 0855.31
2009/04/23 08:01:46.0       7      0     55      8     55  90.0  90.0  33984  286.59 0855.30
2009/04/23 08:01:46.1     -28    -15     47     33     57 241.1  61.5  33984  286.59 0855.30
2009/04/23 08:01:46.2     -30     -9     67     32     74 253.2  73.1  33982  286.57 0855.30
2009/04/23 08:01:46.3     -48    -18     86     52    100 249.2  65.7  33980  286.52 0855.30
2009/04/23 08:01:46.4     -53    -53     87     76    115 225.0  54.8  33984  286.59 0855.30
2009/04/23 08:01:46.5     -95    -10     68     96    117 263.9  39.5  33982  286.57 0855.30
2009/04/23 08:01:46.6    -139    -85     70    164    178 238.5  24.3  33982  286.56 0855.30
2009/04/23 08:01:46.7     -42   -106     97    115    150 201.8  43.8  33990  286.71 0855.30
2009/04/23 08:01:46.8     -30    -93     90     98    133 198.3  47.9  33992  286.74 0855.30
2009/04/23 08:01:46.9     -23    -82     81     86    118 196.0  48.0  33994  286.76 0855.30
2009/04/23 08:01:47.0      -4   -102    109    103    149 182.7  52.1  33996  286.79 0855.30
2009/04/23 08:01:47.1     -24    -87     78     91    119 195.6  45.4  33992  286.74 0855.30
2009/04/23 08:01:47.2     -18   -136     95    138    167 187.6  37.8  33996  286.79 0855.30
2009/04/23 08:01:47.3     -33   -130     79    135    156 194.3  33.1  33990  286.71 0855.30
2009/04/23 08:01:47.4     -60   -118     47    133    142 207.1  19.4  33988  286.67 0855.30
2009/04/23 08:01:47.5     -20   -130     47    132    140 188.9  20.0  33990  286.71 0855.30
2009/04/23 08:01:47.6     -33   -105     39    111    117 197.8  20.0  33988  286.66 0855.30
2009/04/23 08:01:47.7     -82    -95     53    126    136 221.0  24.1  33988  286.66 0855.30
2009/04/23 08:01:47.8     -74    -74     53    106    118 225.0  28.2  33984  286.61 0855.30
2009/04/23 08:01:47.9     -42    -55     55     70     89 217.0  42.7  33986  286.64 0855.30
2009/04/23 08:01:48.0     -34    -72     49     80     93 205.4  35.0  33988  286.66 0855.31
2009/04/23 08:01:48.1     -32    -87     65     93    113 200.5  38.0  33984  286.59 0855.31
2009/04/23 08:01:48.2     -38    -74     47     84     96 207.6  31.9  33984  286.59 0855.31
2009/04/23 08:01:48.3     -60    -48     15     77     79 231.4  11.1  33986  286.64 0855.31
2009/04/23 08:01:48.4     -47    -47     43     67     79 225.0  36.0  33982  286.56 0855.31
2009/04/23 08:01:48.5      24      0     61     25     65  90.0  77.1  33982  286.57 0855.31
2009/04/23 08:01:48.6      46     -4     38     47     60  96.1  43.7  33986  286.62 0855.31
2009/04/23 08:01:48.7      37    -16      0     41     42 114.4   0.8  33984  286.61 0855.31
2009/04/23 08:01:48.8       3    -97     33     98    104 178.2  18.9  33984  286.61 0855.31
2009/04/23 08:01:48.9     -31    -93     41     99    107 198.7  23.1  33984  286.61 0855.31
2009/04/23 08:01:49.0     -59   -107     37    123    129 209.0  16.8  33984  286.59 0855.31
2009/04/23 08:01:49.1     -18    -69     50     72     87 195.1  38.0  33982  286.56 0855.31
2009/04/23 08:01:49.2      44    -18     35     48     59 112.6  39.7  33984  286.61 0855.31
2009/04/23 08:01:49.3      10    -35     30     37     47 163.1  43.7  33984  286.59 0855.31
2009/04/23 08:01:49.4      20     -3     39     21     44  99.7  68.8  33984  286.61 0855.31
2009/04/23 08:01:49.5       8      0     49      9     49  90.0  90.0  33984  286.61 0855.31
2009/04/23 08:01:49.6      20     10     65     23     68  62.9  81.2  33986  286.62 0855.31
2009/04/23 08:01:49.7      67     22     66     71     96  71.6  48.5  33988  286.67 0855.31
2009/04/23 08:01:49.8      48      0     67     49     83  90.0  60.0  33986  286.62 0855.31
2009/04/23 08:01:49.9      53    -13     65     55     85 104.2  55.4  33988  286.66 0855.31
2009/04/23 08:01:50.0      56      0     52     57     77  90.0  47.9  33988  286.66 0855.31
2009/04/23 08:01:50.1      10     31     48     33     58  18.7  63.6  33988  286.66 0855.31
2009/04/23 08:01:50.2       2     13     37     14     39  11.6  81.2  33986  286.64 0855.31
2009/04/23 08:01:50.3     -13     -1     32     14     34 262.1  73.1  33988  286.66 0855.31
2009/04/23 08:01:50.4     -31    -31     29     44     52 225.1  35.6  33986  286.64 0855.31
2009/04/23 08:01:50.5     -51    -61     42     80     90 219.7  29.8  33982  286.57 0855.31
2009/04/23 08:01:50.6     -60    -60     47     86     98 225.0  30.8  33982  286.57 0855.31
2009/04/23 08:01:50.7     -62    -53     47     82     94 229.6  32.9  33984  286.59 0855.31
2009/04/23 08:01:50.8     -84    -61     42    105    113 234.0  23.0  33984  286.59 0855.31
2009/04/23 08:01:50.9     -78    -68     46    104    113 228.7  25.7  33988  286.66 0855.31
2009/04/23 08:01:51.0     -10    -35     70     37     79 196.9  69.8  33990  286.71 0855.31
2009/04/23 08:01:51.1      17     -5     58     18     60 108.4  81.8  33990  286.71 0855.31
2009/04/23 08:01:51.2     -15    -49     79     52     94 197.8  64.6  33990  286.71 0855.31
2009/04/23 08:01:51.3     -14    -58     70     60     92 194.3  54.8  33994  286.76 0855.31
2009/04/23 08:01:51.4      20    -27     65     34     73 143.9  70.8  33992  286.74 0855.31
2009/04/23 08:01:51.5       0    -27     72     28     77 180.9  78.2  33990  286.71 0855.31
2009/04/23 08:01:51.6      10    -32     73     34     80 161.7  73.5  33986  286.64 0855.31
2009/04/23 08:01:51.7       7      7     69     11     69  45.0  90.0  33990  286.69 0855.31
2009/04/23 08:01:51.8       3     -7     38      8     38 154.6  89.0  33994  286.76 0855.31
2009/04/23 08:01:51.9      29    -14     33     33     46 115.2  50.1  33994  286.76 0855.31
2009/04/23 08:01:52.0      73    -12     34     75     82  99.7  25.7  33990  286.71 0855.31
2009/04/23 08:01:52.1      77    -42     15     89     91 118.9  10.1  33992  286.73 0855.31
2009/04/23 08:01:52.2      84    -26     30     89     95 107.3  18.9  33990  286.69 0855.31
2009/04/23 08:01:52.3      72    -34     14     80     82 115.2  10.1  33990  286.71 0855.31
2009/04/23 08:01:52.4      73    -14     22     75     79 101.4  16.8  33992  286.73 0855.31
2009/04/23 08:01:52.5      82    -23     25     86     90 105.9  16.3  33992  286.74 0855.31
2009/04/23 08:01:52.6      82    -17     32     84     89 101.9  21.5  33992  286.74 0855.31
2009/04/23 08:01:52.7      72    -10     25     73     78  97.9  19.2  33994  286.78 0855.31
2009/04/23 08:01:52.8      71    -33     27     79     84 115.2  19.4  33992  286.73 0855.31
2009/04/23 08:01:52.9      73    -43     33     86     92 120.7  21.5  33992  286.74 0855.31
2009/04/23 08:01:53.0      52    -82     51     98    110 147.5  29.3  33990  286.69 0855.31
2009/04/23 08:01:53.1      66    -43     41     79     89 123.3  29.8  33990  286.71 0855.31
2009/04/23 08:01:53.2      48    -24     44     54     69 117.1  43.7  33992  286.73 0855.31
2009/04/23 08:01:53.3      -6    -79     32     80     86 184.5  22.5  33990  286.71 0855.31
2009/04/23 08:01:53.4     -15   -102     35    104    110 188.5  18.9  33990  286.71 0855.31
2009/04/23 08:01:53.5      15    -78     65     80    103 168.5  43.7  33992  286.74 0855.31
2009/04/23 08:01:53.6      12    -82     56     83    100 171.5  37.0  33988  286.67 0855.31
2009/04/23 08:01:53.7       0    -96     90     97    132 180.5  47.9  33988  286.67 0855.31
2009/04/23 08:01:53.8      -1   -149     86    150    172 180.5  32.7  33988  286.67 0855.31
2009/04/23 08:01:53.9     -38   -156     87    161    183 193.8  31.0  33988  286.66 0855.31
2009/04/23 08:01:54.0     -24   -141     75    144    162 189.8  29.5  33988  286.67 0855.32
2009/04/23 08:01:54.1     -62   -173     63    184    195 199.8  18.9  33986  286.62 0855.32
2009/04/23 08:01:54.2     -82   -173     39    192    197 205.5  11.6  33988  286.67 0855.32
2009/04/23 08:01:54.3      -4   -208     87    209    226 181.1  23.8  33986  286.64 0855.32
2009/04/23 08:01:54.4     -17   -217     30    218    221 184.7   7.8  33988  286.66 0855.32
2009/04/23 08:01:54.5     -35   -263     33    266    269 187.6   7.2  33986  286.63 0855.32
2009/04/23 08:01:54.6     -52   -281    -10    286    287 190.5  -2.1  33982  286.55 0855.32
2009/04/23 08:01:54.7     -85   -280    -11    293    294 197.0  -2.2  33982  286.55 0855.32
2009/04/23 08:01:54.8     -52   -258     26    264    266 191.5   5.7  33988  286.65 0855.32
2009/04/23 08:01:54.9      13   -238     72    239    250 176.9  16.8  33988  286.65 0855.32
2009/04/23 08:01:55.0      12   -230     36    231    234 176.9   8.9  33988  286.65 0855.32
2009/04/23 08:01:55.1      28   -203     22    206    208 172.0   6.1  33988  286.67 0855.32
2009/04/23 08:01:55.2      30   -184    -40    187    192 170.7 -12.2  33988  286.66 0855.32
2009/04/23 08:01:55.3      22   -217    -36    219    222 174.0  -9.3  33986  286.64 0855.32
2009/04/23 08:01:55.4      37   -200    -25    204    206 169.3  -7.2  33986  286.62 0855.32
2009/04/23 08:01:55.5      62   -119    -17    135    137 152.4  -7.3  33986  286.62 0855.32
2009/04/23 08:01:55.6     155    -60    -32    167    171 111.3 -11.1  33990  286.71 0855.32
2009/04/23 08:01:55.7      93   -135    -58    165    174 145.5 -23.8  33992  286.73 0855.32
2009/04/23 08:01:55.8      87   -136    -61    162    173 147.5 -25.7  33986  286.64 0855.32
2009/04/23 08:01:55.9      49   -192    -13    199    200 165.5  -3.9  33982  286.57 0855.32
2009/04/23 08:01:56.0      37   -182    -23    186    188 168.4  -7.3  33982  286.57 0855.32
2009/04/23 08:01:56.1      44   -131     11    139    140 161.3   4.9  33982  286.56 0855.32
2009/04/23 08:01:56.2      35    -89     32     96    102 158.6  18.4  33986  286.62 0855.32
2009/04/23 08:01:56.3      15    -66     -6     68     69 166.6  -5.2  33984  286.61 0855.32
2009/04/23 08:01:56.4      28    -55     12     62     64 152.8  11.1  33982  286.56 0855.32
2009/04/23 08:01:56.5      13    -47     13     49     51 164.0  15.3  33982  286.56 0855.32
2009/04/23 08:01:56.6       9    -12     30     16     34 143.9  70.8  33984  286.61 0855.32
2009/04/23 08:01:56.7      43      0     38     44     58  90.0  45.8  33984  286.61 0855.32
2009/04/23 08:01:56.8      58      9     73     59     93  81.2  56.4  33988  286.67 0855.32
2009/04/23 08:01:56.9       5    -67     86     68    109 175.6  56.9  33990  286.69 0855.32
2009/04/23 08:01:57.0     -24    -75     83     79    114 198.3  51.2  33990  286.69 0855.32
2009/04/23 08:01:57.1     -26    -59    109     65    126 203.6  66.7  33990  286.69 0855.32
2009/04/23 08:01:57.2     -32   -115    119    120    169 195.6  50.2  33988  286.66 0855.32
2009/04/23 08:01:57.3     -37    -92     87    100    132 201.8  45.8  33988  286.67 0855.32
2009/04/23 08:01:57.4     -15    -45     65     48     80 198.5  60.0  33990  286.71 0855.32
2009/04/23 08:01:57.5      16     22     70     28     75  36.1  77.1  33992  286.73 0855.32
2009/04/23 08:01:57.6      -9     54     58     55     79 350.2  51.2  33990  286.71 0855.32
2009/04/23 08:01:57.7      32     20     46     39     60  57.6  56.3  33990  286.69 0855.32
2009/04/23 08:01:57.8      41     34     34     54     63  50.5  35.5  33988  286.66 0855.32
2009/04/23 08:01:57.9      22     46     22     52     56  25.5  24.1  33992  286.73 0855.32
2009/04/23 08:01:58.0      16     38      3     42     43  22.7   4.9  33990  286.71 0855.32
2009/04/23 08:01:58.1      21     45      7     50     51  25.4   8.0  33990  286.69 0855.32
2009/04/23 08:01:58.2      15     66     -1     68     69  13.4  -1.2  33990  286.69 0855.32
2009/04/23 08:01:58.3      21     65     23     69     73  18.5  18.4  33990  286.71 0855.32
2009/04/23 08:01:58.4      13     67     -1     69     70  11.6  -1.2  33990  286.69 0855.32
2009/04/23 08:01:58.5       6     94      3     95     96   4.0   2.3  33990  286.69 0855.32
2009/04/23 08:01:58.6       0     71     53     72     89   0.0  40.1  33988  286.67 0855.32
2009/04/23 08:01:58.7     -16     71     62     73     95 346.6  44.3  33992  286.73 0855.32
2009/04/23 08:01:58.8      51     27     51     58     77  62.0  45.8  33990  286.69 0855.32
2009/04/23 08:01:58.9      56     31     79     65    102  61.1  56.3  33988  286.67 0855.32
2009/04/23 08:01:59.0      24     51     50     57     75  25.4  45.8  33990  286.69 0855.32
2009/04/23 08:01:59.1      39     32     24     51     56  50.5  27.1  33990  286.69 0855.32
2009/04/23 08:01:59.2      11    -10     57     16     59 133.3  84.8  33990  286.71 0855.32
2009/04/23 08:01:59.3     -10     16     43     19     47 327.5  75.0  33992  286.74 0855.32
2009/04/23 08:01:59.4     -38     38     31     54     62 315.0  31.4  33992  286.73 0855.32
2009/04/23 08:01:59.5     -13     63     40     65     76 348.4  35.5  33992  286.73 0855.32
2009/04/23 08:01:59.6     -32     64     24     72     77 332.8  18.9  33990  286.69 0855.32
2009/04/23 08:01:59.7     -10     68     35     69     77 351.1  28.2  33986  286.62 0855.32
2009/04/23 08:01:59.8     -18     69     14     72     74 344.9  11.0  33986  286.64 0855.32
2009/04/23 08:01:59.9     -13     64     33     66     73 348.4  27.3  33986  286.64 0855.32
2009/04/23 08:02:00.0      -4     63     42     64     76 356.4  35.6  33986  286.62 0855.33
2009/04/23 08:02:00.1      26     69     67     74     99  20.9  47.5  33984  286.61 0855.33
2009/04/23 08:02:00.2      -6     61     26     62     67 353.8  23.1  33984  286.59 0855.33
2009/04/23 08:02:00.3      13     47     33     49     59  16.0  37.6  33986  286.64 0855.33
2009/04/23 08:02:00.4      -5     92     49     93    105 356.9  30.3  33988  286.67 0855.33
2009/04/23 08:02:00.5      26    112     53    116    127  13.4  26.2  33988  286.66 0855.33
2009/04/23 08:02:00.6      38    114     37    121    127  18.3  17.3  33988  286.66 0855.33
2009/04/23 08:02:00.7      67    122     57    140    151  29.0  23.1  33984  286.61 0855.33
2009/04/23 08:02:00.8      70    107     91    129    157  33.4  38.8  33986  286.64 0855.33
2009/04/23 08:02:00.9     -32    125     26    130    133 345.3  11.6  33986  286.64 0855.33
2009/04/23 08:02:01.0     -22    159     19    161    163 351.9   6.7  33984  286.61 0855.33
2009/04/23 08:02:01.1     -42    156     31    162    166 344.9  11.0  33986  286.64 0855.33
2009/04/23 08:02:01.2     -71    130     40    149    155 331.1  15.3  33986  286.64 0855.33
2009/04/23 08:02:01.3     -70    120     36    139    144 329.7  14.7  33984  286.59 0855.33
2009/04/23 08:02:01.4     -50    112     57    123    135 335.9  27.1  33982  286.56 0855.33
2009/04/23 08:02:01.5      -9    144     49    145    154 356.4  18.9  33982  286.57 0855.33
2009/04/23 08:02:01.6      -5    163     23    164    166 358.2   8.2  33984  286.59 0855.33
2009/04/23 08:02:01.7       2    164     33    165    169   0.9  11.6  33984  286.61 0855.33
2009/04/23 08:02:01.8      38    111     46    118    126  19.2  22.0  33986  286.64 0855.33
2009/04/23 08:02:01.9      29    125     62    129    143  13.4  27.2  33984  286.59 0855.33
2009/04/23 08:02:02.0      45    180     50    186    193  14.3  15.3  33986  286.62 0855.33
2009/04/23 08:02:02.1      40    150     82    156    176  15.1  30.1  33986  286.62 0855.33
2009/04/23 08:02:02.2      92     58    117    109    159  57.6  52.2  33986  286.62 0855.33
2009/04/23 08:02:02.3       9    122     34    123    128   4.4  15.8  33984  286.61 0855.33
2009/04/23 08:02:02.4      23     82     58     86    103  15.6  37.0  33984  286.59 0855.33
2009/04/23 08:02:02.5      74     29     92     80    121  68.3  54.3  33986  286.64 0855.33
2009/04/23 08:02:02.6      47      3     93     48    104  85.6  70.4  33984  286.61 0855.33
2009/04/23 08:02:02.7      70     30     84     77    113  66.5  52.2  33988  286.66 0855.33
2009/04/23 08:02:02.9      91      7    107     92    141  85.2  54.8  33984  286.61 0855.33
2009/04/23 08:02:03.0      77     47    114     91    145  58.9  57.5  33982  286.57 0855.33
2009/04/23 08:02:03.1      37     12     83     39     91  71.8  73.1  33984  286.61 0855.33
2009/04/23 08:02:03.2      -2    -16     76     17     77 188.0  89.0  33990  286.69 0855.33
2009/04/23 08:02:03.3      -5      9     74     11     74 327.5  90.0  33988  286.67 0855.33
2009/04/23 08:02:03.4      -8      8     29     12     31 316.8  77.1  33990  286.69 0855.33
2009/04/23 08:02:03.5      71    -53     96     89    130 126.9  52.2  33986  286.64 0855.33
2009/04/23 08:02:03.6      33    -33     80     47     92 134.9  66.8  33984  286.61 0855.33
2009/04/23 08:02:03.7      30    -35     63     47     78 139.5  59.0  33986  286.62 0855.33
2009/04/23 08:02:03.8      69    -69     98     98    138 135.0  50.1  33982  286.56 0855.33
2009/04/23 08:02:03.9       3    -30     57     31     64 173.8  68.8  33984  286.59 0855.33
2009/04/23 08:02:04.0      35    -64     81     74    109 151.1  52.2  33984  286.61 0855.33
2009/04/23 08:02:04.1      51    -64     75     83    111 141.3  47.5  33982  286.56 0855.34
2009/04/23 08:02:04.2      24    -93     67     97    117 165.3  38.0  33984  286.61 0855.34
2009/04/23 08:02:04.3      52    -92     70    106    127 150.6  36.5  33984  286.61 0855.34
2009/04/23 08:02:04.4      10    -86     86     87    122 173.3  50.0  33980  286.54 0855.34
2009/04/23 08:02:04.5       5   -100     77    101    127 176.9  41.7  33982  286.57 0855.34
2009/04/23 08:02:04.6      -1   -133    127    134    184 180.5  48.5  33986  286.64 0855.34
2009/04/23 08:02:04.7      -7   -118    148    119    189 183.6  56.9  33984  286.61 0855.34
2009/04/23 08:02:04.8       4    -32    115     33    119 172.0  83.3  33988  286.66 0855.34
2009/04/23 08:02:04.9      16    -97    103     99    142 170.2  51.2  33984  286.61 0855.34
2009/04/23 08:02:05.0      -1    -61     88     62    107 181.0  60.6  33982  286.57 0855.34
2009/04/23 08:02:05.1       5    -17     54     18     56 161.3  81.0  33984  286.61 0855.34
2009/04/23 08:02:05.2      43     29     50     52     72  55.8  50.0  33984  286.59 0855.34
2009/04/23 08:02:05.3      95     15    107     97    144  80.8  52.7  33982  286.56 0855.34
2009/04/23 08:02:05.4      18     25    108     31    112  36.1  83.9  33984  286.59 0855.34
2009/04/23 08:02:05.5      11     62    119     64    135  10.7  69.3  33982  286.56 0855.34
2009/04/23 08:02:05.6     -19     26    106     33    111 323.9  82.3  33982  286.57 0855.34
2009/04/23 08:02:05.7     -29      9     91     31     96 288.4  81.2  33980  286.54 0855.34
2009/04/23 08:02:05.8      30     12    102     33    107  68.3  80.7  33980  286.54 0855.34
2009/04/23 08:02:05.9     -38    -70    131     80    153 208.9  65.1  33984  286.59 0855.34
2009/04/23 08:02:06.0     -26   -132    173    135    219 191.5  58.2  33980  286.54 0855.34
2009/04/23 08:02:06.1      -2   -122    222    123    253 181.0  68.8  33982  286.57 0855.34
2009/04/23 08:02:06.2      75    -47    177     89    198 122.4  71.1  33982  286.56 0855.34
2009/04/23 08:02:06.3       3   -117    175    118    211 178.2  62.8  33982  286.57 0855.34
2009/04/23 08:02:06.4      93    -78    127    122    176 130.0  51.2  33984  286.59 0855.34
2009/04/23 08:02:06.5      -5    -84    124     85    150 183.6  62.6  33984  286.59 0855.34
2009/04/23 08:02:06.6       3   -161    147    162    218 178.9  47.1  33986  286.62 0855.34
2009/04/23 08:02:06.7      28   -139    129    142    191 168.4  47.1  33986  286.62 0855.34
2009/04/23 08:02:06.8      68    -93    126    116    171 143.9  52.5  33986  286.64 0855.34
2009/04/23 08:02:06.9       3    -42    100     43    108 174.7  75.5  33982  286.57 0855.34
2009/04/23 08:02:07.0       0   -116    142    117    183 180.0  56.4  33986  286.62 0855.34
2009/04/23 08:02:07.1      36    -81    130     89    157 155.9  62.4  33984  286.61 0855.34
2009/04/23 08:02:07.2      18   -128    132    130    185 172.0  49.9  33984  286.61 0855.34
2009/04/23 08:02:07.3      46   -134     99    142    173 160.8  38.0  33984  286.59 0855.34
2009/04/23 08:02:07.4      13    -90    116     92    148 171.5  57.5  33984  286.61 0855.34
2009/04/23 08:02:07.5       0   -104    116    105    156 180.4  52.7  33982  286.56 0855.34
2009/04/23 08:02:07.6      20    -20    119     29    122 134.9  86.4  33984  286.59 0855.34
2009/04/23 08:02:07.7     -15    -36     89     40     97 202.7  74.5  33984  286.61 0855.34
2009/04/23 08:02:07.8      67    -18     80     70    106 105.0  53.7  33982  286.56 0855.34
2009/04/23 08:02:07.9     117     -9    120    118    168  94.4  50.1  33984  286.59 0855.34
2009/04/23 08:02:08.0     114      7     90    115    146  86.1  41.7  33984  286.59 0855.34
2009/04/23 08:02:08.1     181     28     -7    184    185  81.0  -2.2  33982  286.56 0855.33
2009/04/23 08:02:08.2      75    -75    106    107    150 135.0  50.0  33980  286.54 0855.33
2009/04/23 08:02:08.3     -23    -79     98     83    128 196.5  55.8  33978  286.51 0855.33
2009/04/23 08:02:08.4      70    -23     88     74    114 108.6  56.3  33984  286.59 0855.33
2009/04/23 08:02:08.5      91     -2     78     92    120  91.7  44.8  33984  286.59 0855.33
2009/04/23 08:02:08.6      60    -56     69     83    107 133.1  43.8  33982  286.57 0855.33
2009/04/23 08:02:08.7      42    -34     78     55     95 129.5  62.1  33980  286.52 0855.33
2009/04/23 08:02:08.8      77    -23     55     81     97 106.8  37.0  33982  286.57 0855.33
2009/04/23 08:02:08.9      70    -18     68     73     99 105.0  48.0  33980  286.54 0855.33
2009/04/23 08:02:09.0      77    -15     61     79     99 101.5  41.7  33982  286.56 0855.33
2009/04/23 08:02:09.1      53      8     79     54     95  81.2  63.2  33980  286.54 0855.33
2009/04/23 08:02:09.2      61     30     70     68     97  63.8  49.7  33982  286.57 0855.33
2009/04/23 08:02:09.3      58      6     64     59     87  83.9  52.2  33982  286.57 0855.33
2009/04/23 08:02:09.4      68     41     87     80    118  58.5  52.2  33980  286.54 0855.33
2009/04/23 08:02:09.5      61     30     75     69    101  63.8  52.2  33978  286.51 0855.33
2009/04/23 08:02:09.6      39     25     56     47     73  57.5  56.3  33980  286.52 0855.33
2009/04/23 08:02:09.7      22    -22     69     32     76 134.9  73.1  33982  286.56 0855.33
2009/04/23 08:02:09.8      42      3     55     43     69  85.6  57.5  33980  286.52 0855.33
2009/04/23 08:02:09.9     103    -16    103    105    147  98.8  49.9  33980  286.54 0855.33
2009/04/23 08:02:10.0      60     60    111     85    139  45.0  58.5  33980  286.54 0855.33
2009/04/23 08:02:10.1      33     26     92     43    101  52.2  73.1  33984  286.59 0855.33
2009/04/23 08:02:10.2      48     40     55     63     83  50.5  46.4  33982  286.57 0855.33
2009/04/23 08:02:10.3      73      5     44     74     86  85.6  34.0  33982  286.56 0855.33
2009/04/23 08:02:10.4      62      0     42     63     75  90.0  35.6  33982  286.57 0855.33
2009/04/23 08:02:10.5      70    -14     10     72     73 101.5   8.0  33982  286.57 0855.33
2009/04/23 08:02:10.6      90    -21     61     93    111 103.7  36.0  33982  286.56 0855.33
2009/04/23 08:02:10.7      90    -74     90    117    147 129.5  41.7  33982  286.57 0855.33
2009/04/23 08:02:10.8     131    -90    140    160    212 124.6  45.8  33982  286.57 0855.33
2009/04/23 08:02:10.9      75   -143    112    162    196 152.4  38.0  33982  286.56 0855.33
2009/04/23 08:02:11.0      94    -60     63    112    128 122.4  31.9  33982  286.57 0855.33
2009/04/23 08:02:11.1      50    -42     52     66     84 130.4  42.2  33982  286.57 0855.33
2009/04/23 08:02:11.2      37   -107     71    114    134 160.8  35.5  33982  286.56 0855.33
2009/04/23 08:02:11.3      82    -73     65    111    128 131.8  33.5  33982  286.56 0855.33
2009/04/23 08:02:11.4      27   -118     80    122    145 167.1  36.0  33982  286.56 0855.33
2009/04/23 08:02:11.5      10   -118     87    119    147 175.1  39.7  33982  286.57 0855.33
2009/04/23 08:02:11.6      45    -87     98     99    139 152.4  50.0  33982  286.57 0855.33
2009/04/23 08:02:11.7     -12   -147     85    148    170 184.9  32.4  33984  286.59 0855.33
2009/04/23 08:02:11.8       0    -30     62     31     69 179.1  72.8  33982  286.57 0855.33
2009/04/23 08:02:11.9      23    -68     43     73     84 160.8  34.0  33984  286.59 0855.33
2009/04/23 08:02:12.0      15    -70     45     72     84 167.5  35.5  33984  286.59 0855.33
2009/04/23 08:02:12.1       5    -48     25     49     55 173.8  29.3  33984  286.59 0855.33
2009/04/23 08:02:12.2     -12    -36     -8     39     40 198.7 -12.4  33982  286.57 0855.33
2009/04/23 08:02:12.3     -14    -35    -10     38     40 201.8 -14.5  33984  286.59 0855.33
2009/04/23 08:02:12.4     -24    -50     20     56     59 206.3  20.0  33982  286.57 0855.33
2009/04/23 08:02:12.5      12    -63     65     65     91 169.3  50.1  33982  286.57 0855.33
2009/04/23 08:02:12.6     -34    -53     53     64     83 212.5  44.3  33984  286.59 0855.33
2009/04/23 08:02:12.7     -25    -54     63     60     87 205.3  51.2  33984  286.61 0855.33
2009/04/23 08:02:12.8     -53    -49     62     73     95 226.9  44.3  33984  286.61 0855.33
2009/04/23 08:02:12.9     -31    -66     11     74     75 205.5   9.0  33986  286.62 0855.33
2009/04/23 08:02:13.0     -68    -13    -52     70     87 258.5 -45.1  33982  286.56 0855.33
2009/04/23 08:02:13.1     -97    -32    -73    103    126 251.4 -43.5  33982  286.56 0855.33
2009/04/23 08:02:13.2     -96    -32   -133    102    167 251.4 -62.9  33982  286.56 0855.33
2009/04/23 08:02:13.3     -61    -96    -95    115    149 212.5 -48.1  33982  286.57 0855.33
2009/04/23 08:02:13.4    -133   -115    -34    176    180 229.1 -11.1  33984  286.61 0855.33
2009/04/23 08:02:13.5      40    -40   -186     57    194 135.0 -86.7  34038  287.52 0855.33
2009/04/23 08:02:13.6    -151    -31   -105    155    187 258.1 -41.7  33982  286.57 0855.33
2009/04/23 08:02:13.7    -123    -37   -104    129    165 253.2 -47.4  33980  286.52 0855.33
2009/04/23 08:02:13.8     -30      0   -112     31    116 269.2 -89.2  33982  286.56 0855.33
2009/04/23 08:02:13.9       0      7   -106      8    106   4.5 -90.0  33982  286.56 0855.33
2009/04/23 08:02:14.0     -34      0   -122     35    126 270.0 -87.7  33980  286.54 0855.33
2009/04/23 08:02:14.1     -42      7   -115     43    122 280.6 -83.5  33978  286.49 0855.33
2009/04/23 08:02:14.2     -54    -23   -133     59    145 246.5 -79.3  33980  286.54 0855.33
2009/04/23 08:02:14.3     -79    -52    -92     95    132 236.7 -53.8  33984  286.61 0855.33
2009/04/23 08:02:14.4     -57    -75    -55     95    109 217.4 -37.3  33980  286.54 0855.33
2009/04/23 08:02:14.5     -45    -87    -64     99    117 207.6 -40.0  33986  286.64 0855.33
2009/04/23 08:02:14.6     -78   -103    -49    130    138 217.0 -25.9  33984  286.61 0855.33
2009/04/23 08:02:14.7     -39   -110    -62    117    132 199.6 -34.2  33984  286.61 0855.33
2009/04/23 08:02:14.8     -57   -112    -45    126    133 207.2 -24.4  33982  286.57 0855.33
2009/04/23 08:02:14.9     -25    -74    -44     79     90 198.7 -35.8  33984  286.61 0855.33
2009/04/23 08:02:15.0      39    -67    -68     78    103 149.3 -50.8  33984  286.59 0855.33
2009/04/23 08:02:15.1      13    -62    -53     64     83 167.5 -48.7  33982  286.56 0855.33
2009/04/23 08:02:15.2       5    -54    -54     55     77 174.7 -55.5  33982  286.57 0855.33
2009/04/23 08:02:15.3       0    -61    -46     62     77 180.9 -44.1  33982  286.57 0855.33
2009/04/23 08:02:15.4      -5    -71    -21     72     75 184.5 -21.7  33982  286.56 0855.33
2009/04/23 08:02:15.5      -1    -30    -39     31     49 182.6 -60.8  33984  286.61 0855.33
2009/04/23 08:02:15.6       7    -35    -53     36     64 168.4 -67.0  33984  286.61 0855.33
2009/04/23 08:02:15.7       0    -42    -44     43     61 180.0 -54.5  33986  286.62 0855.33
2009/04/23 08:02:15.8     -14    -36    -35     39     52 201.8 -51.3  33984  286.61 0855.33
2009/04/23 08:02:15.9      -3    -48    -30     49     57 183.6 -39.9  33980  286.54 0855.33
2009/04/23 08:02:16.0      13    -54    -20     56     59 165.7 -24.4  33984  286.59 0855.33
2009/04/23 08:02:16.1       7    -54    -17     55     57 172.0 -23.8  33982  286.56 0855.33
2009/04/23 08:02:16.2     -12    -48    -45     50     67 194.3 -52.3  33984  286.61 0855.33
2009/04/23 08:02:16.3     -15    -46    -91     49    103 198.3 -73.3  33984  286.59 0855.33
2009/04/23 08:02:16.4      14    -71    -74     73    103 168.5 -54.1  33984  286.59 0855.33
2009/04/23 08:02:16.5      32   -159    -62    163    174 168.4 -25.9  33982  286.57 0855.33
2009/04/23 08:02:16.6     -12    -31   -120     34    124 201.8 -87.7  33978  286.51 0855.33
2009/04/23 08:02:16.7      20    -17   -115     27    118 131.3 -90.0  33982  286.57 0855.33
2009/04/23 08:02:16.8      88   -177    -58    198    207 153.5 -16.4  33982  286.57 0855.33
2009/04/23 08:02:16.9     149   -133     78    201    215 131.8  22.5  33982  286.56 0855.33
2009/04/23 08:02:17.0      77   -188    139    204    246 157.7  37.6  33980  286.53 0855.33
2009/04/23 08:02:17.1      76   -159    142    177    226 154.4  43.3  33982  286.57 0855.32
2009/04/23 08:02:17.2      91   -177    108    200    227 152.8  31.0  33982  286.57 0855.32
2009/04/23 08:02:17.3      49   -179    105    186    213 164.4  32.1  33980  286.52 0855.32
2009/04/23 08:02:17.4      69   -166     88    181    201 157.3  27.8  33982  286.57 0855.32
2009/04/23 08:02:17.5      42   -148     68    154    168 164.0  25.3  33980  286.54 0855.32
2009/04/23 08:02:17.6      29   -106     90    111    142 164.4  43.7  33982  286.56 0855.32
2009/04/23 08:02:17.7      43    -43     82     61    102 135.0  60.0  33982  286.57 0855.32
2009/04/23 08:02:17.8      88    -73     91    115    146 129.5  43.3  33984  286.59 0855.32
2009/04/23 08:02:17.9     142    -90     58    169    179 122.5  18.9  33982  286.57 0855.32
2009/04/23 08:02:18.0      85   -129     67    155    168 146.6  24.9  33982  286.57 0855.32
2009/04/23 08:02:18.1      86   -162    133    184    227 152.1  39.5  33988  286.66 0855.32
2009/04/23 08:02:18.2      70   -172    115    186    218 157.7  34.8  33988  286.67 0855.32
2009/04/23 08:02:18.3     -76   -208     -4    222    223 200.1  -1.2  33986  286.64 0855.32
2009/04/23 08:02:18.4     -86   -167    -65    189    200 207.4 -19.1  33988  286.66 0855.32
2009/04/23 08:02:18.5     -66   -139    -47    154    162 205.5 -17.0  33990  286.71 0855.32
2009/04/23 08:02:18.6     -53    -92    -30    107    112 209.9 -16.0  33990  286.69 0855.32
2009/04/23 08:02:18.7     -61   -112    -24    128    131 208.5 -10.9  33992  286.73 0855.32
2009/04/23 08:02:18.8     -86   -188     -8    208    209 204.7  -2.3  33984  286.59 0855.32
2009/04/23 08:02:18.9     -81   -204    -12    220    221 201.9  -3.2  33986  286.62 0855.32
2009/04/23 08:02:19.0     -50   -163    -52    171    178 197.2 -21.7  33986  286.64 0855.32
2009/04/23 08:02:19.1     -90   -141     -6    168    169 212.5  -2.2  33986  286.64 0855.33
2009/04/23 08:02:19.2     -70   -127      2    146    147 208.9   0.8  33986  286.64 0855.33
2009/04/23 08:02:19.3     -14   -104    -13    106    107 188.0  -7.2  33984  286.61 0855.33
2009/04/23 08:02:19.4     -24   -112    -24    115    118 192.5 -11.9  33984  286.61 0855.33
2009/04/23 08:02:19.5     -18   -114     22    116    119 189.3  11.1  33984  286.59 0855.33
2009/04/23 08:02:19.6      32   -111      7    116    117 164.0   3.8  33986  286.62 0855.33
2009/04/23 08:02:19.7      27   -102    -12    106    107 164.9  -6.7  33986  286.64 0855.33
2009/04/23 08:02:19.8      41    -93    -34    102    107 155.9 -23.6  33986  286.62 0855.33
2009/04/23 08:02:19.9       0   -286    -47    287    291 180.0  -9.3  33986  286.62 0855.33
2009/04/23 08:02:20.0      46   -292    -38    296    299 170.9  -7.3  33982  286.57 0855.33
2009/04/23 08:02:20.1      -3   -261    -43    262    266 180.7  -9.3  33984  286.58 0855.33
2009/04/23 08:02:20.2     -22   -234     -5    236    237 185.6  -1.3  33982  286.55 0855.33
2009/04/23 08:02:20.3      80   -230     40    244    248 160.8   9.5  33986  286.62 0855.33
2009/04/23 08:02:20.4     107   -184    -33    214    217 149.7  -8.8  33986  286.62 0855.33
2009/04/23 08:02:20.5     102   -174     16    202    203 149.5   4.6  33988  286.67 0855.33
2009/04/23 08:02:20.6      29   -145    -30    149    153 168.4 -11.5  33988  286.66 0855.33
2009/04/23 08:02:20.7       0    -73    -75     74    105 180.0 -54.1  33986  286.64 0855.33
2009/04/23 08:02:20.8      33    -54    -50     64     81 148.4 -46.6  33988  286.66 0855.33
2009/04/23 08:02:20.9      39    -52    -26     66     70 143.0 -27.4  33988  286.66 0855.33
2009/04/23 08:02:21.0     105    -38      5    112    113 110.0   2.9  33988  286.66 0855.33
2009/04/23 08:02:21.2     128    -60     50    142    151 115.2  19.4  33988  286.66 0855.33
2009/04/23 08:02:21.2     157    -95    -13    184    185 121.3  -4.1  33984  286.61 0855.33
2009/04/23 08:02:21.3      83    -15     24     85     89 100.6  15.8  33986  286.64 0855.33
2009/04/23 08:02:21.4      87      0     65     88    109  90.4  39.7  33986  286.62 0855.33
2009/04/23 08:02:21.5      95     14     72     97    120  81.2  40.1  33986  286.62 0855.33
2009/04/23 08:02:21.6      19     -3     74     20     76 101.5  84.8  33990  286.69 0855.33
2009/04/23 08:02:21.7      -9    -76     79     77    110 187.1  50.7  33988  286.67 0855.33
2009/04/23 08:02:21.8     -75   -118     31    140    144 212.5  12.6  33994  286.76 0855.33
2009/04/23 08:02:21.9     -59    -99     48    116    125 210.7  23.6  33996  286.79 0855.33
2009/04/23 08:02:22.0     -44   -133     58    141    152 198.5  23.1  33996  286.81 0855.33
2009/04/23 08:02:22.1     -58   -166     52    177    185 199.4  16.6  33998  286.84 0855.33
2009/04/23 08:02:22.3     -66   -152     39    167    172 203.6  13.2  33996  286.79 0855.33
2009/04/23 08:02:22.3     -92   -133     27    163    166 214.7   9.5  33990  286.71 0855.33
2009/04/23 08:02:22.4     -93   -119     65    152    165 217.9  24.3  33996  286.79 0855.33
2009/04/23 08:02:22.5     -56    -87     31    104    109 212.6  16.8  33994  286.76 0855.33
2009/04/23 08:02:22.6     -54    -97     34    112    118 209.0  16.8  33994  286.78 0855.33
2009/04/23 08:02:22.7    -127     -1     -7    128    129 269.2  -3.1  33992  286.74 0855.33
2009/04/23 08:02:22.8    -130    -30    -27    134    137 256.7 -11.5  33992  286.73 0855.33
2009/04/23 08:02:22.9    -100    -35     -4    107    108 250.5  -2.2  33990  286.69 0855.33
2009/04/23 08:02:23.0     -78    -69    -29    105    110 228.2 -15.5  33990  286.69 0855.33
2009/04/23 08:02:23.1     -76    -57    -37     96    102 233.1 -26.4  33986  286.64 0855.34
2009/04/23 08:02:23.2     -73    -53    -49     91    103 233.6 -35.7  33988  286.67 0855.34
2009/04/23 08:02:23.3    -103    -27    -99    107    145 254.9 -52.3  33984  286.61 0855.34
2009/04/23 08:02:23.4    -193     10   -110    194    223 273.0 -36.5  33986  286.62 0855.34
2009/04/23 08:02:23.5    -229     46    -90    234    250 281.5 -26.4  33988  286.65 0855.34
2009/04/23 08:02:23.6    -205     22    -67    207    217 276.4 -23.3  33986  286.64 0855.34
2009/04/23 08:02:23.7    -177    -14    -25    178    180 265.4  -8.0  33986  286.64 0855.34
2009/04/23 08:02:23.8    -218    -63    -10    228    229 253.8  -2.6  33988  286.66 0855.34
2009/04/23 08:02:23.9    -217    -16     16    218    219 265.6   4.4  33982  286.57 0855.34
2009/04/23 08:02:24.0    -190      0     -2    191    192 270.0  -0.7  33982  286.57 0855.34
2009/04/23 08:02:24.1    -189    -27      0    192    193 261.6  -0.3  33982  286.56 0855.34
2009/04/23 08:02:24.2    -222    -37     -7    226    227 260.5  -1.8  33982  286.56 0855.34
2009/04/23 08:02:24.3    -206   -102    -41    231    235 243.6 -10.3  33980  286.53 0855.34
2009/04/23 08:02:24.4    -218    -80    -64    233    242 249.8 -15.4  33986  286.62 0855.34
2009/04/23 08:02:24.5    -238    -29    -86    240    256 263.0 -19.7  33984  286.58 0855.34
2009/04/23 08:02:24.6    -262    -54    -75    268    278 258.3 -20.2  33982  286.57 0855.34
2009/04/23 08:02:24.7    -253    -66   -107    262    283 255.2 -27.5  33980  286.53 0855.34
2009/04/23 08:02:24.8    -246    -66   -107    255    276 255.0 -28.5  33978  286.50 0855.34
2009/04/23 08:02:24.9    -250    -55   -112    257    280 257.6 -29.5  33978  286.50 0855.34
2009/04/23 08:02:25.0    -330    -56   -100    335    349 260.3 -21.6  33978  286.48 0855.34
2009/04/23 08:02:25.2    -277   -115    -67    301    309 247.4 -12.6  33982  286.55 0855.34
2009/04/23 08:02:25.2    -269   -150    -46    309    313 240.9  -8.6  33978  286.50 0855.34
2009/04/23 08:02:25.3    -205   -131    -21    244    246 237.5  -5.1  33980  286.52 0855.34
2009/04/23 08:02:25.4    -187    -47    -97    193    216 255.8 -33.1  33978  286.51 0855.34
2009/04/23 08:02:25.5    -198    -36   -111    202    230 259.6 -35.7  33982  286.56 0855.34
2009/04/23 08:02:25.6    -227    -24   -125    229    260 263.9 -35.7  33982  286.55 0855.34
2009/04/23 08:02:25.7    -244    -18   -113    245    269 265.6 -31.0  33982  286.55 0855.34
2009/04/23 08:02:25.8    -240    -25   -120    242    270 263.9 -32.6  33982  286.55 0855.34
2009/04/23 08:02:25.9    -198      0   -136    199    241 269.9 -42.0  33982  286.56 0855.34
2009/04/23 08:02:26.1    -203     15   -156    204    256 274.4 -45.6  33980  286.53 0855.34
2009/04/23 08:02:26.1    -196      8   -161    197    254 272.4 -48.1  33982  286.57 0855.34
2009/04/23 08:02:26.2    -206     22    -90    208    226 276.1 -29.5  33976  286.47 0855.34
2009/04/23 08:02:26.3    -265     65   -146    273    309 283.9 -34.7  33982  286.57 0855.34
2009/04/23 08:02:26.4    -222     98   -126    243    273 294.0 -33.9  33980  286.52 0855.34
2009/04/23 08:02:26.5    -193     63    -66    204    215 288.2 -18.1  33978  286.51 0855.34
2009/04/23 08:02:26.6    -195     99    -69    219    230 296.9 -17.6  33978  286.49 0855.34
2009/04/23 08:02:26.7    -237     86    -70    253    263 290.0 -15.5  33978  286.50 0855.34
2009/04/23 08:02:26.8    -236    135   -133    272    302 299.8 -32.4  33990  286.70 0855.34
2009/04/23 08:02:26.9    -275     83   -110    288    308 286.9 -26.4  33982  286.55 0855.34
2009/04/23 08:02:27.0    -200     92    -69    221    231 294.8 -22.8  33982  286.57 0855.34
2009/04/23 08:02:27.1    -198     94    -82    220    234 295.4 -25.7  33982  286.57 0855.34
2009/04/23 08:02:27.2    -184     38    -57    189    197 281.9 -21.7  33982  286.56 0855.34
2009/04/23 08:02:27.3    -212     71    -90    224    241 288.6 -27.4  33988  286.67 0855.34
2009/04/23 08:02:27.4    -194     70   -126    207    242 290.0 -38.8  33986  286.64 0855.34
2009/04/23 08:02:27.5    -211     73   -167    224    279 289.1 -45.0  33982  286.57 0855.34
2009/04/23 08:02:27.6    -305     42   -102    308    324 277.9 -23.6  33984  286.60 0855.34
2009/04/23 08:02:27.7    -252     11   -141    253    289 272.6 -35.8  33986  286.62 0855.34
2009/04/23 08:02:27.8    -206     13   -102    207    230 273.7 -32.2  33986  286.64 0855.34
2009/04/23 08:02:27.9    -192      3   -130    193    232 271.0 -41.4  33984  286.59 0855.34
2009/04/23 08:02:28.0    -112    -76   -112    136    176 235.9 -48.1  33984  286.61 0855.34
2009/04/23 08:02:28.1    -107   -110   -107    154    187 224.1 -42.4  33986  286.62 0855.34
2009/04/23 08:02:28.2    -187    -90   -120    208    240 244.2 -36.8  33986  286.64 0855.34
2009/04/23 08:02:28.3    -120   -102   -110    158    192 229.6 -42.4  33986  286.62 0855.34
2009/04/23 08:02:28.5     -72   -125    -89    145    170 209.9 -39.2  33984  286.61 0855.34
2009/04/23 08:02:28.5    -145    -42    -46    152    158 253.6 -21.7  33984  286.59 0855.34
2009/04/23 08:02:28.6    -188    -61    -34    198    201 251.8  -9.8  33984  286.59 0855.34
2009/04/23 08:02:28.7    -159    -39     -2    164    165 256.1  -0.7  33980  286.52 0855.34
2009/04/23 08:02:28.8    -121    -24     38    124    130 258.6  17.3  33982  286.57 0855.34
2009/04/23 08:02:28.9    -183    -29     66    186    197 261.0  20.4  33982  286.56 0855.34
2009/04/23 08:02:29.0    -178    -36     56    182    191 258.5  17.1  33978  286.51 0855.34
2009/04/23 08:02:29.1    -145    -31     38    149    154 257.6  14.3  33982  286.56 0855.35
2009/04/23 08:02:29.2    -118    -47     37    128    134 248.3  16.3  33982  286.56 0855.35
2009/04/23 08:02:29.3    -169    -98      0    196    197 240.0   0.0  33980  286.54 0855.35
2009/04/23 08:02:29.5    -156   -148    -44    216    221 226.4 -11.6  33982  286.57 0855.35
2009/04/23 08:02:29.5    -137   -150    -24    204    206 222.3  -6.9  33980  286.54 0855.35
2009/04/23 08:02:29.7    -103   -103     62    146    158 225.0  24.3  33982  286.56 0855.35
2009/04/23 08:02:29.8     -52   -106     66    119    136 206.3  31.4  33980  286.54 0855.35
2009/04/23 08:02:29.9     -88    -82     10    121    122 226.9   4.9  33980  286.54 0855.35
2009/04/23 08:02:30.0    -198    -19    -28    199    202 264.3  -8.2  33984  286.59 0855.35
2009/04/23 08:02:30.1    -162    -47     58    169    179 253.6  18.9  33984  286.59 0855.35
2009/04/23 08:02:30.2    -153    -31     26    157    160 258.6   9.5  33978  286.51 0855.35
2009/04/23 08:02:30.3    -111    -30     18    116    118 254.9   9.0  33980  286.54 0855.35
2009/04/23 08:02:30.4     -75     -5      3     76     77 265.7   2.9  33980  286.54 0855.35
2009/04/23 08:02:30.5     -31    -29      5     43     44 226.9   6.9  33980  286.54 0855.35
2009/04/23 08:02:30.6     -17     -9    -16     20     25 241.1 -48.1  33980  286.54 0855.35
2009/04/23 08:02:30.7     -24    -14    -23     29     37 239.3 -48.1  33982  286.56 0855.35
2009/04/23 08:02:30.8     -24    -15    -22     29     36 237.5 -46.1  33982  286.56 0855.35
2009/04/23 08:02:30.9     -12    -31    -27     34     43 201.8 -47.1  33982  286.56 0855.35
2009/04/23 08:02:31.0     -21    -46    -36     51     62 205.5 -43.9  33982  286.56 0855.35
2009/04/23 08:02:31.1     -51    -47    -21     70     73 226.9 -21.7  33982  286.56 0855.35
2009/04/23 08:02:31.2     -46    -49      2     68     69 223.3   1.8  33978  286.51 0855.35
2009/04/23 08:02:31.3     -39    -62     11     74     75 212.6   9.0  33982  286.56 0855.35
2009/04/23 08:02:31.4     -39    -62     11     74     75 212.6   9.0  33982  286.56 0855.35
2009/04/23 08:02:31.5       0    -60     20     61     65 180.0  18.4  33982  286.57 0855.35
2009/04/23 08:02:31.6      -7    -82      4     83     84 185.3   2.8  33982  286.57 0855.35
2009/04/23 08:02:31.7     -31    -63    -22     71     75 206.3 -17.6  33982  286.56 0855.35
2009/04/23 08:02:31.8     -50    -37    -47     63     78 233.1 -45.6  33980  286.52 0855.35
2009/04/23 08:02:31.9     -83    -54    -45    100    109 236.7 -30.6  33980  286.52 0855.35
2009/04/23 08:02:32.0     -61    -92    -37    111    118 213.8 -18.7  33976  286.47 0855.35
2009/04/23 08:02:32.1     -29   -125    -14    129    130 193.4  -6.2  33978  286.49 0855.35
2009/04/23 08:02:32.2     -52   -190      2    198    199 195.4   0.7  33978  286.49 0855.35
2009/04/23 08:02:32.3     -20   -217     62    219    228 185.3  16.0  33980  286.54 0855.35
2009/04/23 08:02:32.4      21   -206     32    208    211 174.0   8.9  33982  286.56 0855.35
2009/04/23 08:02:32.5      23   -226    -12    228    229 174.2  -3.1  33982  286.56 0855.35
2009/04/23 08:02:32.6      46   -221     -4    226    227 168.2  -1.1  33980  286.52 0855.35
2009/04/23 08:02:32.7      43   -207     -8    212    213 168.2  -2.2  33982  286.57 0855.35
2009/04/23 08:02:32.8      96   -207     -8    229    230 155.1  -2.2  33982  286.56 0855.35
2009/04/23 08:02:32.9      86   -216    -11    233    234 158.2  -2.8  33986  286.62 0855.35
2009/04/23 08:02:33.0     100   -181    -26    207    209 151.0  -7.2  33980  286.54 0855.35
2009/04/23 08:02:33.1     100   -211      4    234    235 154.7   1.2  33982  286.55 0855.35
2009/04/23 08:02:33.2      25   -184    -37    186    190 172.2 -11.3  33980  286.52 0855.35
2009/04/23 08:02:33.3     -32   -200    -43    203    208 189.1 -12.2  33980  286.54 0855.35
2009/04/23 08:02:33.4       3   -207    -26    208    210 179.1  -7.3  33982  286.56 0855.35
2009/04/23 08:02:33.5      46   -219     11    224    225 168.0   2.9  33980  286.54 0855.35
2009/04/23 08:02:33.6      43   -214     11    219    220 168.5   2.9  33982  286.57 0855.35
2009/04/23 08:02:33.7      35   -234    -39    237    241 171.3  -9.3  33982  286.57 0855.35
2009/04/23 08:02:33.8      62   -228      3    237    238 164.6   0.8  33982  286.57 0855.35
2009/04/23 08:02:33.9      31   -199      5    202    203 171.1   1.6  33982  286.57 0855.35
2009/04/23 08:02:34.0      13   -205     -8    206    207 176.4  -2.2  33982  286.56 0855.35
2009/04/23 08:02:34.1      37   -240     11    243    244 171.1   2.8  33982  286.55 0855.35
2009/04/23 08:02:34.2      10   -239     33    240    243 177.4   8.0  33982  286.55 0855.35
2009/04/23 08:02:34.3     -30   -241     49    243    248 187.1  11.4  33982  286.57 0855.35
2009/04/23 08:02:34.4     -38   -225     27    229    231 189.7   6.9  33980  286.54 0855.35
2009/04/23 08:02:34.5       2   -172     28    173    176 179.1   9.3  33980  286.54 0855.35
2009/04/23 08:02:34.6      -1   -213      7    214    215 180.5   2.1  33980  286.54 0855.35
2009/04/23 08:02:34.7     -26   -189      8    191    192 188.1   2.5  33978  286.51 0855.35
2009/04/23 08:02:34.8     -45   -221     14    226    227 191.6   3.6  33978  286.51 0855.35
2009/04/23 08:02:34.9     -81   -206     18    222    223 201.4   4.9  33978  286.51 0855.35
2009/04/23 08:02:35.0    -104   -220     15    244    245 205.4   3.6  33980  286.53 0855.35
2009/04/23 08:02:35.1     -62   -200     74    210    223 197.4  19.4  33980  286.54 0855.35
2009/04/23 08:02:35.2     -26   -185     90    187    207 188.1  27.3  33982  286.56 0855.35
2009/04/23 08:02:35.3       3   -186    112    187    217 178.9  33.5  33982  286.56 0855.35
2009/04/23 08:02:35.4       0   -203    112    204    232 180.2  31.4  33984  286.59 0855.35
2009/04/23 08:02:35.5      -3   -256    104    257    277 180.7  23.1  33978  286.50 0855.35
2009/04/23 08:02:35.6      42   -214    125    219    252 168.9  32.4  33982  286.57 0855.35
2009/04/23 08:02:35.7       3   -249    119    250    276 179.1  27.2  33982  286.57 0855.35
2009/04/23 08:02:35.8      28   -262    106    264    284 173.8  23.0  33984  286.60 0855.35
2009/04/23 08:02:35.9       5   -126    153    127    198 177.4  56.3  33982  286.57 0855.35
2009/04/23 08:02:36.0      -5   -172    183    173    251 181.8  51.6  33982  286.56 0855.35
2009/04/23 08:02:36.1     -36   -213    153    217    265 189.8  38.6  33984  286.58 0855.35
2009/04/23 08:02:36.2     -39   -183    178    188    258 192.0  48.5  33984  286.58 0855.34
2009/04/23 08:02:36.3     -85   -238    126    253    282 199.8  28.5  33984  286.60 0855.34
2009/04/23 08:02:36.4     -66   -164    155    178    236 202.1  45.6  33980  286.52 0855.34
2009/04/23 08:02:36.5     -84   -211    131    228    262 201.8  32.4  33984  286.58 0855.34
2009/04/23 08:02:36.6     -50   -231     86    237    253 192.3  19.9  33984  286.58 0855.34
2009/04/23 08:02:36.7     -82   -209    126    225    257 201.6  31.4  33984  286.60 0855.34
2009/04/23 08:02:36.8     -52   -202    124    209    243 194.7  33.5  33982  286.57 0855.34
2009/04/23 08:02:36.9     -38   -178    114    183    215 192.0  35.2  33982  286.57 0855.34
2009/04/23 08:02:37.0       8   -136     98    137    168 176.4  39.1  33982  286.57 0855.34
2009/04/23 08:02:37.1      -4   -100    123    101    159 182.7  56.4  33980  286.54 0855.34
2009/04/23 08:02:37.2      -5   -125    156    126    200 182.6  56.9  33982  286.57 0855.34
2009/04/23 08:02:37.3       9   -155    113    156    192 176.4  39.5  33982  286.57 0855.34
2009/04/23 08:02:37.4      -9   -125     77    126    147 184.4  35.0  33984  286.59 0855.34
2009/04/23 08:02:37.5      -7    -85     97     86    129 185.3  54.3  33982  286.56 0855.34
2009/04/23 08:02:37.6     -25    -87    104     91    138 196.5  54.3  33984  286.59 0855.34
2009/04/23 08:02:37.7     -29    -43     63     53     82 214.3  55.4  33980  286.52 0855.34
2009/04/23 08:02:37.8     -54    -46     75     71    103 229.6  51.6  33984  286.59 0855.34
2009/04/23 08:02:37.9     -42    -99     51    108    119 203.2  27.2  33982  286.56 0855.34
2009/04/23 08:02:38.0     -32    -87     42     93    102 200.5  25.7  33982  286.57 0855.34
2009/04/23 08:02:38.1     -49    -70     30     86     92 215.2  19.4  33980  286.54 0855.34
2009/04/23 08:02:38.2     -63     -6     24     64     68 263.9  20.0  33978  286.49 0855.34
2009/04/23 08:02:38.3    -126      0     60    127    140 270.0  27.1  33978  286.49 0855.34
2009/04/23 08:02:38.4     -31     55     98     64    117 331.0  64.6  33978  286.49 0855.34
2009/04/23 08:02:38.5      13     65     66     67     94  11.6  50.5  33982  286.56 0855.34
2009/04/23 08:02:38.6     -23     61     70     66     96 339.1  51.2  33980  286.52 0855.34
2009/04/23 08:02:38.7      -7     62     65     63     90 352.9  50.7  33984  286.59 0855.34
2009/04/23 08:02:38.8      -1     67     60     68     90 359.1  45.8  33984  286.59 0855.34
2009/04/23 08:02:38.9     -24     74     41     78     88 341.7  29.8  33984  286.59 0855.34
2009/04/23 08:02:39.0     -47     74     46     89    100 327.4  29.3  33984  286.59 0855.34
2009/04/23 08:02:39.1     -62     75     47     98    108 320.4  27.2  33984  286.59 0855.34
2009/04/23 08:02:39.2     -72     98      6    122    123 323.5   2.9  33984  286.59 0855.34
2009/04/23 08:02:39.3     -56     83      5    101    102 326.2   2.9  33986  286.62 0855.34
2009/04/23 08:02:39.4     -59     61     20     85     88 315.9  13.7  33982  286.57 0855.34
2009/04/23 08:02:39.5     -74     43     18     86     88 300.2  12.2  33982  286.57 0855.34
2009/04/23 08:02:39.6     -59     22     29     64     70 290.8  27.1  33982  286.57 0855.34
2009/04/23 08:02:39.7     -47     38     28     61     67 309.5  26.2  33986  286.62 0855.34
2009/04/23 08:02:39.8     -49     21     24     54     59 293.5  25.1  33984  286.59 0855.34
2009/04/23 08:02:39.9     -84     27     24     89     93 288.2  15.3  33982  286.57 0855.34
2009/04/23 08:02:40.0     -87    -66     47    110    119 232.7  24.1  33982  286.57 0855.34
2009/04/23 08:02:40.1     -81   -113     56    140    150 215.6  23.0  33980  286.52 0855.34
2009/04/23 08:02:40.2    -120    -61     24    135    138 242.9  10.1  33978  286.49 0855.34
2009/04/23 08:02:40.3     -98    -53     -1    112    113 241.6  -0.7  33980  286.52 0855.34
2009/04/23 08:02:40.4     -97    -27     -4    101    102 254.1  -2.6  33980  286.54 0855.34
2009/04/23 08:02:40.5     -77    -41    -28     88     93 242.0 -17.6  33978  286.51 0855.34
2009/04/23 08:02:40.6     -89    -41     21     99    102 245.2  12.2  33978  286.51 0855.34
2009/04/23 08:02:40.7     -55     12    -20     57     61 282.4 -19.6  33980  286.54 0855.34
2009/04/23 08:02:40.8     -97     17     -4     99    100 280.1  -2.6  33978  286.51 0855.34
2009/04/23 08:02:40.9    -125     -8     -4    126    127 266.1  -2.2  33982  286.56 0855.34
2009/04/23 08:02:41.0    -105     12      1    106    107 277.0   0.8  33982  286.56 0855.34
2009/04/23 08:02:41.1     -53      8     41     54     67 278.8  40.7  33982  286.56 0855.34
2009/04/23 08:02:41.2     -58    -15     62     61     86 255.0  49.7  33980  286.54 0855.34
2009/04/23 08:02:41.3     -91    -58     41    108    115 237.5  21.0  33982  286.56 0855.34
2009/04/23 08:02:41.4     -98    -31    -28    103    107 252.3 -15.4  33982  286.56 0855.34
2009/04/23 08:02:41.5    -101      6      5    102    103 273.9   2.8  33982  286.56 0855.34
2009/04/23 08:02:41.6    -178     31    -25    181    183 280.1  -8.0  33978  286.49 0855.34
2009/04/23 08:02:41.7    -157     46    -27    164    167 286.4  -9.3  33980  286.54 0855.34
2009/04/23 08:02:41.8    -142     66    -19    157    159 295.2  -6.9  33978  286.49 0855.34
2009/04/23 08:02:41.9    -133     47     -7    142    143 289.5  -3.1  33976  286.47 0855.34
2009/04/23 08:02:42.0    -159     72    -13    175    176 294.4  -4.4  33984  286.59 0855.34
2009/04/23 08:02:42.1    -176     74      3    192    193 292.8   1.0  33978  286.51 0855.34
2009/04/23 08:02:42.2    -149     79      2    169    170 298.0   0.8  33976  286.47 0855.33
2009/04/23 08:02:42.3    -109     55      5    123    124 297.0   2.3  33976  286.46 0855.33
2009/04/23 08:02:42.4    -110    100    -19    149    151 312.2  -7.3  33980  286.52 0855.33
2009/04/23 08:02:42.5     -99     97    -22    139    141 314.4  -9.4  33980  286.52 0855.33
2009/04/23 08:02:42.6     -97    110    -19    148    150 318.6  -7.3  33982  286.56 0855.33
2009/04/23 08:02:42.7     -93    102    -13    139    140 317.7  -5.6  33982  286.56 0855.33
2009/04/23 08:02:42.8    -118    118    -15    168    169 315.0  -5.4  33982  286.56 0855.33
2009/04/23 08:02:42.9    -124    126    -50    178    186 315.5 -15.8  33982  286.56 0855.33
2009/04/23 08:02:43.0    -134    142    -46    196    202 316.8 -13.2  33980  286.54 0855.33
2009/04/23 08:02:43.1    -138    139    -23    197    199 315.2  -6.7  33980  286.52 0855.33
2009/04/23 08:02:43.2    -131    151    -40    201    206 319.0 -11.3  33982  286.56 0855.33
2009/04/23 08:02:43.3    -117    161    -28    200    203 324.0  -8.0  33982  286.57 0855.33
2009/04/23 08:02:43.4    -115    154    -52    193    200 323.3 -15.2  33982  286.57 0855.33
2009/04/23 08:02:43.5    -103    158    -41    189    194 326.8 -12.4  33978  286.49 0855.33
2009/04/23 08:02:43.6    -110    122    -58    165    175 318.1 -19.4  33986  286.62 0855.33
2009/04/23 08:02:43.7     -93     99    -30    136    140 316.8 -12.4  33980  286.54 0855.33
2009/04/23 08:02:43.8     -82     52    -54     98    111 302.5 -35.8  33982  286.57 0855.33
2009/04/23 08:02:43.9     -90     71    -49    115    125 308.2 -29.0  33982  286.56 0855.33
2009/04/23 08:02:44.0    -103    104    -73    147    164 315.5 -32.9  33984  286.59 0855.33
2009/04/23 08:02:44.1    -121     57    -38    134    139 295.4 -20.7  33976  286.47 0855.33
2009/04/23 08:02:44.2     -79     65     -8    103    104 309.5  -4.6  33974  286.44 0855.32
2009/04/23 08:02:44.3     -72     99      2    123    124 324.0   1.2  33974  286.44 0855.32
2009/04/23 08:02:44.4     -61    111     11    127    128 331.1   5.0  33976  286.47 0855.32
2009/04/23 08:02:44.5    -102     75    -20    127    129 306.4  -9.3  33976  286.47 0855.32
2009/04/23 08:02:44.6     -96     52    -30    110    115 298.4 -15.5  33976  286.47 0855.32
2009/04/23 08:02:44.7     -58     79     -2     99    100 323.9  -1.2  33976  286.47 0855.32
2009/04/23 08:02:44.8     -72     72     -1    103    104 315.0  -0.7  33976  286.47 0855.32
2009/04/23 08:02:44.9     -68     37     10     78     79 298.9   8.0  33978  286.51 0855.32
2009/04/23 08:02:45.0     -46     93     -4    104    105 333.7  -2.2  33974  286.44 0855.32
2009/04/23 08:02:45.1     -63    145    -29    159    162 336.4 -10.5  33976  286.47 0855.32
2009/04/23 08:02:45.2     -27    159    -27    162    165 350.2  -9.6  33984  286.59 0855.32
2009/04/23 08:02:45.3     -17    138    -25    140    143 352.9 -10.3  33982  286.57 0855.32
2009/04/23 08:02:45.4      -8    113    -19    114    116 355.6  -9.8  33984  286.61 0855.32
2009/04/23 08:02:45.5       0    104    -22    105    108 359.5 -11.9  33984  286.59 0855.32
2009/04/23 08:02:45.6     -44     71    -15     84     86 327.9 -10.3  33976  286.47 0855.32
2009/04/23 08:02:45.7     -48     40    -21     63     66 309.5 -23.6  33978  286.51 0855.32
2009/04/23 08:02:45.8     -50     73    -30     89     95 325.3 -18.7  33978  286.49 0855.32
2009/04/23 08:02:45.9     -40     83     35     93     99 334.5  21.5  33978  286.51 0855.32
2009/04/23 08:02:46.0     -47     60      3     77     78 322.2   2.9  33978  286.51 0855.32
2009/04/23 08:02:46.1     -34     62     14     72     74 331.0  11.1  33978  286.51 0855.32
2009/04/23 08:02:46.2     -37     50     51     63     81 323.9  43.3  33980  286.52 0855.31
2009/04/23 08:02:46.3     -45     45     48     65     80 315.0  40.1  33978  286.51 0855.31
2009/04/23 08:02:46.4     -54     17     29     57     63 288.2  28.2  33980  286.54 0855.31
2009/04/23 08:02:46.5     -41     14     80     44     91 289.1  68.8  33982  286.56 0855.31
2009/04/23 08:02:46.6     -32      0     61     33     69 269.2  68.9  33982  286.57 0855.31
2009/04/23 08:02:46.7     -16     22     30     28     41 323.9  51.2  33986  286.64 0855.31
2009/04/23 08:02:46.8      -6     11     26     13     29 331.0  72.9  33984  286.61 0855.31
2009/04/23 08:02:46.9     -61     31     36     69     77 297.1  29.3  33982  286.56 0855.31
2009/04/23 08:02:47.0     -85     -2     10     86     87 268.3   6.9  33978  286.51 0855.31
2009/04/23 08:02:47.1     -92     -1     18     93     95 269.2  11.1  33980  286.52 0855.31
2009/04/23 08:02:47.2     -96    -18     12     98     99 259.4   7.1  33982  286.56 0855.31
2009/04/23 08:02:47.3     -92    -22     24     95     99 256.3  14.3  33978  286.49 0855.31
2009/04/23 08:02:47.4     -93     -4     15     94     96 267.4   9.0  33978  286.49 0855.31
2009/04/23 08:02:47.5     -88     12     25     89     93 278.4  15.8  33982  286.56 0855.31
2009/04/23 08:02:47.6     -81     23      4     85     86 285.9   2.9  33984  286.59 0855.31
2009/04/23 08:02:47.7     -66     31      3     74     75 295.2   2.9  33986  286.64 0855.31
2009/04/23 08:02:47.8     -57     30      5     65     66 298.0   4.9  33982  286.56 0855.31
2009/04/23 08:02:47.9     -47      4      4     48     49 275.2   4.9  33982  286.57 0855.31
2009/04/23 08:02:48.0     -48    -12     12     50     52 255.8  14.3  33986  286.62 0855.31
2009/04/23 08:02:48.1     -45    -41     -2     62     63 227.8  -2.2  33984  286.61 0855.31
2009/04/23 08:02:48.2     -39    -62      3     74     75 212.6   2.8  33986  286.64 0855.32
2009/04/23 08:02:48.3     -44    -78     15     90     92 209.9   9.5  33984  286.59 0855.32
2009/04/23 08:02:48.4     -51    -86      0    100    101 210.7  -0.3  33978  286.51 0855.32
2009/04/23 08:02:48.5     -75    -90     19    118    120 219.6   9.5  33978  286.49 0855.32
2009/04/23 08:02:48.6     -72   -109     41    131    138 213.4  17.3  33974  286.44 0855.32
2009/04/23 08:02:48.7    -148    -93     31    176    179 237.8  10.1  33976  286.47 0855.32
2009/04/23 08:02:48.8    -132   -140     44    193    198 223.4  12.9  33972  286.41 0855.32
2009/04/23 08:02:48.9    -123   -174     11    214    215 215.4   3.1  33986  286.64 0855.32
2009/04/23 08:02:49.0    -146   -171      0    226    227 220.5   0.0  33988  286.67 0855.32
2009/04/23 08:02:49.1    -150   -136     11    203    204 227.8   3.3  33982  286.57 0855.32
2009/04/23 08:02:49.2    -110   -136     23    176    178 219.0   7.5  33972  286.41 0855.32
2009/04/23 08:02:49.3    -134   -149     72    201    213 222.1  20.2  33966  286.29 0855.32
2009/04/23 08:02:49.4    -150   -119     87    192    210 231.6  26.2  33964  286.27 0855.32
2009/04/23 08:02:49.5    -108   -114     76    158    175 223.3  27.4  33968  286.34 0855.32
2009/04/23 08:02:49.6     -42    -90     35    100    107 205.4  19.4  33970  286.35 0855.32
2009/04/23 08:02:49.7      -2    -45     50     46     67 182.7  52.1  33970  286.35 0855.32
2009/04/23 08:02:49.8       0    -76     55     77     94 180.0  39.1  33970  286.35 0855.32
2009/04/23 08:02:49.9      -6    -70     57     71     91 185.3  43.7  33972  286.39 0855.32
2009/04/23 08:02:50.0       4   -104     80    105    132 177.8  41.6  33986  286.62 0855.32
2009/04/23 08:02:50.1      20    -95     42     98    106 168.0  24.1  33986  286.62 0855.32
2009/04/23 08:02:50.2     -29    -92     94     97    135 197.4  49.9  33986  286.64 0855.32
2009/04/23 08:02:50.3    -133   -155     24    205    207 220.5   6.7  33976  286.47 0855.32
2009/04/23 08:02:50.4    -157    -99     -3    186    187 237.6  -1.2  33980  286.54 0855.32
2009/04/23 08:02:50.5    -129   -133     19    186    187 224.1   5.9  33978  286.49 0855.32
2009/04/23 08:02:50.6    -133   -114    -14    176    177 229.3  -4.6  33984  286.61 0855.32
2009/04/23 08:02:50.7     -68   -117    -28    136    140 210.3 -11.9  33982  286.57 0855.32
2009/04/23 08:02:50.8     -40   -100     29    108    112 201.8  15.3  33980  286.52 0855.32
2009/04/23 08:02:50.9     -51   -157    118    166    203 198.0  38.8  33986  286.64 0855.32
2009/04/23 08:02:51.0    -119   -166    184    205    275 215.8  46.6  33984  286.58 0855.32
2009/04/23 08:02:51.1     -81   -139    -33    162    166 210.3 -11.6  33984  286.59 0855.32
2009/04/23 08:02:51.2    -102   -123    -21    160    162 219.6  -7.7  33986  286.64 0855.32
2009/04/23 08:02:51.3     -87   -142     -4    167    168 211.4  -1.6  33986  286.64 0855.32
2009/04/23 08:02:51.4     -40   -119     67    126    142 198.7  30.3  33984  286.59 0855.32
2009/04/23 08:02:51.5     -71   -129     12    148    149 209.0   4.9  33984  286.61 0855.32
2009/04/23 08:02:51.6     -43   -132     27    140    143 198.3  11.1  33986  286.64 0855.32
2009/04/23 08:02:51.7     -60   -134     37    147    152 204.1  14.3  33988  286.66 0855.32
2009/04/23 08:02:51.8     -67   -153     57    168    178 203.8  18.9  33986  286.64 0855.32
2009/04/23 08:02:51.9     -85   -134     61    159    170 212.5  22.0  33986  286.64 0855.32
2009/04/23 08:02:52.0     -62   -120     21    136    138 207.2   9.0  33990  286.69 0855.32
2009/04/23 08:02:52.1     -51    -97     21    110    113 208.1  11.1  33986  286.62 0855.32
2009/04/23 08:02:52.2     -44    -33     74     56     92 233.1  58.5  33986  286.62 0855.31
2009/04/23 08:02:52.3    -109     54     60    122    135 296.6  27.8  33986  286.64 0855.31
2009/04/23 08:02:52.4    -176     40     59    181    191 282.8  18.1  33982  286.57 0855.31
2009/04/23 08:02:52.5    -124     37     82    130    153 286.8  35.5  33980  286.52 0855.31
2009/04/23 08:02:52.6     -75     24     -2     79     80 288.2  -1.8  33984  286.59 0855.31
2009/04/23 08:02:52.7      -4     14     25     15     29 341.5  64.7  33982  286.57 0855.31
2009/04/23 08:02:52.8      61     -4     33     62     70  94.4  30.3  33982  286.57 0855.31
2009/04/23 08:02:52.9      48    -16     61     51     79 109.1  55.8  33982  286.57 0855.31
2009/04/23 08:02:53.0      31    -39     64     50     81 141.3  57.9  33984  286.59 0855.31
2009/04/23 08:02:53.2     -13    -50     44     52     68 195.1  44.8  33986  286.64 0855.31
2009/04/23 08:02:53.2     -15   -106     57    108    122 188.5  29.8  33986  286.62 0855.31
2009/04/23 08:02:53.4       0    -89     62     90    109 179.5  38.0  33984  286.59 0855.31
2009/04/23 08:02:53.4       5    -69     54     70     88 175.5  42.2  33986  286.62 0855.31
2009/04/23 08:02:53.5       0    -42     48     43     64 180.0  52.2  33986  286.62 0855.31
2009/04/23 08:02:53.6       6     16     86     18     87  21.8  89.0  33988  286.67 0855.31
2009/04/23 08:02:53.7      64     70     82     96    126  42.3  45.4  33986  286.64 0855.31
2009/04/23 08:02:53.8      47     57     74     75    105  39.6  50.5  33988  286.67 0855.31
2009/04/23 08:02:53.9      57     38     44     69     81  55.8  35.5  33988  286.66 0855.31
2009/04/23 08:02:54.1      23     24     48     34     58  43.4  61.5  33988  286.66 0855.31
2009/04/23 08:02:54.1      49     21     64     54     83  66.5  54.8  33986  286.62 0855.31
2009/04/23 08:02:54.2      73     28     84     79    115  69.2  52.1  33988  286.67 0855.32
2009/04/23 08:02:54.3     116     57     98    130    162  63.8  40.7  33988  286.67 0855.32
2009/04/23 08:02:54.4      87     93    110    128    168  43.2  45.1  33988  286.66 0855.32
2009/04/23 08:02:54.5      50    200     82    207    222  14.0  23.0  33990  286.69 0855.32
2009/04/23 08:02:54.6      90    153     63    178    188  30.7  20.0  33992  286.74 0855.32
2009/04/23 08:02:54.7      82    193     50    210    216  23.2  13.5  33990  286.69 0855.32
2009/04/23 08:02:54.8      84    145     80    168    186  30.3  27.2  33988  286.67 0855.32
2009/04/23 08:02:54.9      40    150     69    156    170  15.1  25.3  33986  286.64 0855.32
2009/04/23 08:02:55.0     -41    236     80    240    254 350.0  18.6  33984  286.58 0855.32
2009/04/23 08:02:55.1     103    247     72    268    278  22.7  15.2  33984  286.60 0855.32
2009/04/23 08:02:55.2      51    243     72    249    260  12.0  16.3  33988  286.67 0855.32
2009/04/23 08:02:55.4      49    239     67    245    255  11.6  15.3  33988  286.67 0855.32
2009/04/23 08:02:55.4      56    218     77    226    239  14.5  18.9  33990  286.70 0855.32
2009/04/23 08:02:55.5      33    222     78    225    239   8.5  19.2  33990  286.70 0855.32
2009/04/23 08:02:55.7      48    213     73    219    232  12.7  18.6  33988  286.66 0855.32
2009/04/23 08:02:55.7      59    206     73    215    228  16.0  18.9  33990  286.69 0855.32
2009/04/23 08:02:55.8      31    210     77    213    226   8.5  20.9  33992  286.74 0855.32
2009/04/23 08:02:56.0      -4    230     62    231    240 358.9  15.2  33990  286.68 0855.32
2009/04/23 08:02:56.1      -2    246     34    247    250 359.5   8.0  33992  286.72 0855.32
2009/04/23 08:02:56.2      -9    277     27    278    280 358.0   5.7  33990  286.70 0855.32
2009/04/23 08:02:56.3     -36    254     45    257    262 351.8  10.1  33990  286.68 0855.34
2009/04/23 08:02:56.4      46    245     10    250    251  10.7   2.5  33990  286.68 0855.34
2009/04/23 08:02:56.5      53    230     36    237    240  13.1   8.8  33990  286.68 0855.34
2009/04/23 08:02:56.6      55    210     19    218    219  14.7   5.2  33988  286.66 0855.34
2009/04/23 08:02:56.7      42    203     56    208    216  11.8  15.2  33990  286.69 0855.34
2009/04/23 08:02:56.8      45    186     77    192    206  13.8  23.0  33986  286.64 0855.34
2009/04/23 08:02:56.9      30    207     43    210    215   8.5  11.6  33988  286.66 0855.34
2009/04/23 08:02:57.0       6    207     69    208    220   1.8  18.4  33988  286.67 0855.34
2009/04/23 08:02:57.1      29    194     70    197    210   8.5  19.6  33990  286.69 0855.34
2009/04/23 08:02:57.2      61    215    112    224    250  16.0  28.2  33990  286.68 0855.34
2009/04/23 08:02:57.3      90    235    133    252    284  21.0  29.8  33990  286.68 0855.35
2009/04/23 08:02:57.4       6    196    149    197    247   1.8  40.9  33988  286.66 0855.35
2009/04/23 08:02:57.5     -87    218     80    235    249 338.2  18.9  33986  286.63 0855.35
2009/04/23 08:02:57.6     -66    189    116    201    232 340.6  32.9  33988  286.66 0855.35
2009/04/23 08:02:57.7      10    186     66    187    199   3.1  19.6  33990  286.69 0855.35
2009/04/23 08:02:57.8      31    221     25    224    226   8.1   6.5  33990  286.71 0855.35
2009/04/23 08:02:57.9      43    182     25    188    190  13.4   7.8  33990  286.69 0855.35
2009/04/23 08:02:58.0     -57    150     34    161    165 339.1  12.2  33988  286.67 0855.35
2009/04/23 08:02:58.1     -80    171     16    189    190 334.8   4.9  33984  286.61 0855.35
2009/04/23 08:02:58.2     -67    156     40    170    175 336.6  13.2  33986  286.62 0855.35
2009/04/23 08:02:58.3      -7    163     56    164    174 357.3  18.9  33986  286.62 0855.35
2009/04/23 08:02:58.4      66    120     67    138    153  28.9  27.3  33986  286.64 0855.35
2009/04/23 08:02:58.5     109     79     92    135    163  54.0  37.3  33986  286.64 0855.35
2009/04/23 08:02:58.6      -6    123     81    124    148 356.9  35.6  33988  286.66 0855.35
2009/04/23 08:02:58.7      47     22     48     53     71  64.8  47.9  33988  286.66 0855.35
2009/04/23 08:02:58.8     226     61     97    235    254  74.9  23.8  33984  286.58 0855.35
2009/04/23 08:02:58.9     230     98    108    250    272  66.9  24.9  33978  286.50 0855.35
2009/04/23 08:02:59.0     209     70    149    221    266  71.4  37.3  33980  286.53 0855.35
2009/04/23 08:02:59.1     218    102    163    241    290  64.8  37.4  33984  286.58 0855.35
2009/04/23 08:02:59.2     197     86    156    216    266  66.4  39.5  33984  286.60 0855.35
2009/04/23 08:02:59.3     221    103     95    245    262  64.9  22.3  33982  286.55 0855.36
2009/04/23 08:02:59.4     188     88     46    208    214  64.9  12.6  33980  286.54 0855.36
2009/04/23 08:02:59.5     199    154    107    252    273  52.2  24.3  33980  286.53 0855.36
2009/04/23 08:02:59.6     206    169    114    267    290  50.7  24.6  33982  286.57 0855.36
2009/04/23 08:02:59.7     188    166     93    252    268  48.6  21.0  33982  286.55 0855.36
2009/04/23 08:02:59.8     151    194    123    247    275  37.9  28.2  33980  286.52 0855.36
2009/04/23 08:02:59.9     183    160    152    244    287  48.9  35.2  33978  286.50 0855.36
2009/04/23 08:03:00.0     150    201    124    251    279  36.7  28.2  33978  286.50 0855.36
2009/04/23 08:03:00.1     154    278    115    318    338  29.0  20.7  33980  286.53 0855.36
2009/04/23 08:03:00.2     162    290    122    333    354  29.3  21.0  33978  286.51 0855.36
2009/04/23 08:03:00.3     155    264    112    307    326  30.5  20.7  33984  286.60 0855.36
2009/04/23 08:03:00.4     175    230     74    290    300  37.2  14.3  33982  286.57 0855.36
2009/04/23 08:03:00.5     163    255    106    303    322  32.6  19.4  33982  286.57 0855.36
2009/04/23 08:03:00.6     247    256    123    356    377  44.0  19.2  33986  286.63 0855.36
2009/04/23 08:03:00.7     243    176     93    301    316  54.0  17.3  33986  286.63 0855.36
2009/04/23 08:03:00.8     185    236    106    301    320  38.1  19.4  33984  286.58 0855.36
2009/04/23 08:03:00.9     194    212     61    288    295  42.4  12.0  33982  286.55 0855.36
2009/04/23 08:03:01.0     283    136     78    315    325  64.2  13.9  33984  286.58 0855.36
2009/04/23 08:03:01.1     237    150    130    281    309  57.6  27.0  33978  286.50 0855.36
2009/04/23 08:03:01.2     272    127     43    301    305  64.9   8.2  33982  286.57 0855.36
2009/04/23 08:03:01.3     328    156      5    364    365  64.6   0.9  33986  286.63 0855.36
2009/04/23 08:03:01.4     306    187    -62    359    365  58.6  -9.9  33982  286.56 0855.36
2009/04/23 08:03:01.5     301    186   -115    354    373  58.3 -18.0  33978  286.51 0855.36
2009/04/23 08:03:01.6     343    160    -58    379    384  64.9  -8.8  33980  286.54 0855.36
2009/04/23 08:03:01.7     309    157   -102    347    362  63.0 -16.5  33980  286.54 0855.36
2009/04/23 08:03:01.8     352    185    -50    398    402  62.3  -7.2  33982  286.56 0855.36
2009/04/23 08:03:01.9     346    207    -29    404    405  59.1  -4.1  33986  286.62 0855.36
2009/04/23 08:03:02.0     370    200     23    421    422  61.5   3.1  33984  286.59 0855.36
2009/04/23 08:03:02.1     357    193    125    406    426  61.6  17.2  33982  286.55 0855.36
2009/04/23 08:03:02.2     329    171     83    371    381  62.5  12.6  33974  286.44 0855.36
2009/04/23 08:03:02.3     388    244    162    459    488  57.9  19.5  33982  286.56 0855.36
2009/04/23 08:03:02.4     326    247    155    410    438  52.8  21.6  33978  286.50 0855.36
2009/04/23 08:03:02.5     318    261    146    412    438  50.7  19.6  33982  286.55 0855.36
2009/04/23 08:03:02.6     239    255    179    350    393  43.2  29.2  33978  286.49 0855.36
2009/04/23 08:03:02.7     347    185     78    394    402  61.9  11.3  33972  286.39 0855.36
2009/04/23 08:03:02.8     166    215    120    272    297  37.8  25.2  33968  286.33 0855.36
2009/04/23 08:03:02.9     251    318     66    406    412  38.2   9.2  33982  286.55 0855.36
2009/04/23 08:03:03.0     290    368    100    469    480  38.2  12.1  33982  286.55 0855.36
2009/04/23 08:03:03.1     138    351     58    378    383  21.6   8.8  33980  286.54 0855.36
2009/04/23 08:03:03.2     136    340    103    367    382  21.9  15.8  33978  286.49 0855.36
2009/04/23 08:03:03.3     194    305    169    362    399  32.5  26.9  33978  286.48 0855.37
2009/04/23 08:03:03.4     201    237    137    311    339  40.3  25.3  33974  286.44 0855.37
2009/04/23 08:03:03.5     234    267    170    356    394  41.3  27.3  33974  286.44 0855.37
2009/04/23 08:03:03.6     221    264    142    345    373  39.9  23.5  33972  286.39 0855.37
2009/04/23 08:03:03.7     165    295    149    339    370  29.2  25.2  33980  286.53 0855.37
2009/04/23 08:03:03.8     104    307    280    325    428  18.7  45.1  33972  286.41 0855.37
2009/04/23 08:03:03.9     274     50     28    279    281  79.5   5.9  33972  286.40 0855.37
2009/04/23 08:03:04.0     185    161    115    246    271  49.1  27.1  33972  286.38 0855.37
2009/04/23 08:03:04.1     360    155     57    392    397  66.7   8.3  33972  286.39 0855.37
2009/04/23 08:03:04.2     249    322     63    408    413  37.8   8.8  33976  286.45 0855.37
2009/04/23 08:03:04.3      49    320    203    324    382   8.7  35.3  33982  286.56 0855.37
2009/04/23 08:03:04.4     106    293    172    312    356  20.0  31.4  33980  286.54 0855.37
2009/04/23 08:03:04.5      53    262    119    268    293  11.6  25.3  33980  286.52 0855.37
2009/04/23 08:03:04.6     -48    222    178    228    289 347.7  42.0  33982  286.57 0855.37
2009/04/23 08:03:04.7      93    216    199    236    308  23.2  44.1  33978  286.50 0855.37
2009/04/23 08:03:04.8     228    171    112    286    307  53.1  22.8  33982  286.57 0855.37
2009/04/23 08:03:04.9     200    259    116    328    349  37.8  19.5  33982  286.56 0855.37
2009/04/23 08:03:05.0      66    335     84    342    353  11.2  13.8  33980  286.53 0855.37
2009/04/23 08:03:05.1     104    256    100    277    294  22.1  20.9  33984  286.58 0855.37
2009/04/23 08:03:05.2     108    258     76    280    291  22.7  15.3  33980  286.53 0855.37
2009/04/23 08:03:05.3      46    248     14    253    254  10.5   3.3  33980  286.52 0855.37
2009/04/23 08:03:05.4      43    161     57    167    177  15.2  18.9  33980  286.54 0855.37
2009/04/23 08:03:05.5       7    101     57    102    116   4.0  31.4  33982  286.56 0855.37
2009/04/23 08:03:05.6      88     50    -28    102    106  60.2 -15.5  33978  286.51 0855.37
2009/04/23 08:03:05.7     109     54    -40    122    128  63.4 -23.8  33982  286.57 0855.37
2009/04/23 08:03:05.8      83     59     12    103    104  54.5   7.1  33980  286.52 0855.37
2009/04/23 08:03:05.9     142     38     53    148    157  74.9  20.4  33978  286.51 0855.37
2009/04/23 08:03:06.0     126    -29    -49    130    138 103.2 -25.9  33976  286.46 0855.37
2009/04/23 08:03:06.1     121   -116    -36    169    173 133.8 -12.2  33978  286.49 0855.37
2009/04/23 08:03:06.2     121   -102    -44    159    166 130.2 -15.5  33976  286.47 0855.37
2009/04/23 08:03:06.3     250    -13    -76    251    263  93.0 -17.0  33968  286.33 0855.37
2009/04/23 08:03:06.4     358    -12    -16    359    360  92.0  -2.6  33974  286.44 0855.37
2009/04/23 08:03:06.5     382    -15    -48    383    387  92.4  -7.2  33974  286.44 0855.37
2009/04/23 08:03:06.6     439     61    -64    444    449  82.0  -8.2  33976  286.47 0855.37
2009/04/23 08:03:06.7     369     90     50    380    384  76.2   7.6  33968  286.34 0855.37
2009/04/23 08:03:06.8     386      6    -92    387    398  89.1 -13.4  33974  286.44 0855.37
2009/04/23 08:03:06.9     338    -67    -39    345    348 101.2  -6.6  33978  286.51 0855.37
2009/04/23 08:03:07.0     368    -26     13    369    370  94.1   2.1  33978  286.48 0855.37
2009/04/23 08:03:07.1     394    -64     25    400    401  99.2   3.6  33978  286.51 0855.37
2009/04/23 08:03:07.2     393    -27     21    394    395  94.0   3.1  33978  286.48 0855.37
2009/04/23 08:03:07.3     332    -52    -32    337    339  98.9  -5.6  33974  286.44 0855.36
2009/04/23 08:03:07.4     304    -81    -23    315    316 105.1  -4.2  33974  286.43 0855.36
2009/04/23 08:03:07.5     331    -69     45    339    342 101.8   7.6  33972  286.41 0855.36
2009/04/23 08:03:07.6     313    -41     13    316    317  97.5   2.4  33976  286.45 0855.36
2009/04/23 08:03:07.7     236    -48    -19    242    243 101.7  -4.6  33976  286.47 0855.36
2009/04/23 08:03:07.8     251    -82      1    265    266 108.2   0.2  33972  286.38 0855.36
2009/04/23 08:03:07.9     249    -34    135    252    285  97.9  30.3  33970  286.35 0855.36
2009/04/23 08:03:08.0     237    -10    174    238    294  92.6  39.7  33970  286.35 0855.36
2009/04/23 08:03:08.1     203    -34    155    206    257  99.7  40.7  33970  286.35 0855.36
2009/04/23 08:03:08.2     144    -20    163    146    218  97.9  53.5  33968  286.32 0855.36
2009/04/23 08:03:08.3     164    -51    158    172    233 107.3  47.9  33970  286.37 0855.36
2009/04/23 08:03:08.4     204    -60    164    213    268 106.6  41.6  33974  286.42 0855.36
2009/04/23 08:03:08.5     134    -91    170    162    234 124.2  51.4  33976  286.47 0855.36
2009/04/23 08:03:08.6     120    -65    151    137    203 118.8  52.7  33972  286.39 0855.36
2009/04/23 08:03:08.7     120    -48    168    130    212 111.7  58.5  33968  286.34 0855.36
2009/04/23 08:03:08.8      92    -60    119    111    162 123.3  52.0  33966  286.29 0855.36
2009/04/23 08:03:08.9     116    -35    165    122    205 106.9  60.3  33960  286.20 0855.36
2009/04/23 08:03:09.0      59    -13    107     61    123 102.4  67.2  33964  286.27 0855.36
2009/04/23 08:03:09.1      11     20     92     23     94  29.0  86.4  33964  286.27 0855.36
2009/04/23 08:03:09.2     -48    -13     66     50     82 254.9  59.0  33966  286.29 0855.36
2009/04/23 08:03:09.3     -15    -43     71     46     84 200.0  64.6  33966  286.29 0855.36
2009/04/23 08:03:09.4       0    -61     85     62    105 180.9  60.5  33964  286.25 0855.36
2009/04/23 08:03:09.5       7    -55    122     56    134 172.0  73.1  33968  286.32 0855.36
2009/04/23 08:03:09.6     -24    -73     99     77    125 198.5  58.4  33970  286.35 0855.36
2009/04/23 08:03:09.7     -76    -71     25    105    109 226.8  13.7  33970  286.35 0855.36
2009/04/23 08:03:09.8     -52    -43    -50     68     84 230.5 -44.5  33970  286.35 0855.36
2009/04/23 08:03:09.9     -34    -54     22     65     69 212.5  19.4  33970  286.37 0855.36
2009/04/23 08:03:10.0     -67     13     -3     69     70 281.4  -3.1  33970  286.37 0855.36
2009/04/23 08:03:10.1    -106     14    -13    108    109 277.9  -7.2  33982  286.56 0855.36
2009/04/23 08:03:10.2    -101    -32     -7    106    107 252.3  -4.1  33986  286.64 0855.36
2009/04/23 08:03:10.3    -125    -63    -29    141    145 243.0 -11.9  33986  286.62 0855.36
2009/04/23 08:03:10.4     -75   -168     30    185    188 204.1   9.5  33980  286.54 0855.36
2009/04/23 08:03:10.5     -83    -81     36    117    123 225.6  17.3  33986  286.62 0855.36
2009/04/23 08:03:10.6     -77   -119     -7    142    143 213.0  -3.1  33992  286.73 0855.36
2009/04/23 08:03:10.7     -49   -102      0    114    115 205.9  -0.3  33994  286.78 0855.36
2009/04/23 08:03:10.8     -85   -134    -10    160    161 212.5  -3.9  33988  286.66 0855.36
2009/04/23 08:03:10.9     -86   -181     -2    201    202 205.5  -0.7  33982  286.57 0855.36
2009/04/23 08:03:11.0      36   -141      7    146    147 165.7   2.9  33984  286.61 0855.36
2009/04/23 08:03:11.1    -116    -26    -77    119    141 257.2 -40.0  33988  286.67 0855.36
2009/04/23 08:03:11.2    -114    -12    -59    115    129 263.9 -33.7  33988  286.67 0855.36
2009/04/23 08:03:11.3     -70    -38     -8     80     81 241.1  -6.2  33984  286.61 0855.36
2009/04/23 08:03:11.4      -1    -30    -71     31     77 182.6 -79.4  33982  286.57 0855.36
2009/04/23 08:03:11.5     -84     19    -82     87    119 283.3 -52.9  33984  286.59 0855.36
2009/04/23 08:03:11.6     -96    -61    -74    114    135 237.6 -40.0  33980  286.52 0855.36
2009/04/23 08:03:11.7    -130    -46    -97    138    168 250.5 -43.0  33984  286.61 0855.36
2009/04/23 08:03:11.8    -205     -6    -55    206    214 268.1 -15.0  33982  286.57 0855.36
2009/04/23 08:03:11.9    -143     19   -100    145    176 277.9 -42.4  33980  286.52 0855.36
2009/04/23 08:03:12.0    -212    -26    -69    214    224 262.8 -23.3  33970  286.37 0855.36
2009/04/23 08:03:12.1    -143    -63    -46    157    163 246.0 -21.2  33970  286.37 0855.36
2009/04/23 08:03:12.2    -144    -48    -44    153    160 251.4 -16.0  33970  286.37 0855.36
2009/04/23 08:03:12.3    -186   -100    -76    212    226 241.8 -19.7  33968  286.32 0855.36
2009/04/23 08:03:12.4    -230   -203    -62    307    314 228.6 -11.5  33970  286.35 0855.36
2009/04/23 08:03:12.5    -182   -249    -76    309    319 216.1 -13.9  33968  286.31 0855.36
2009/04/23 08:03:12.6    -127   -255    -45    285    289 206.5  -9.0  33970  286.36 0855.36
2009/04/23 08:03:12.7    -143   -281    147    316    348 207.0  27.0  33972  286.39 0855.36
2009/04/23 08:03:12.8    -296     20    107    297    315 273.9  20.7  33978  286.48 0855.36
2009/04/23 08:03:12.9    -295     17     25    296    298 273.4   4.9  33978  286.50 0855.36
2009/04/23 08:03:13.0    -242    -18     65    243    252 265.6  15.0  33980  286.53 0855.36
2009/04/23 08:03:13.1    -293    -97    121    309    331 251.6  22.5  33980  286.53 0855.36
2009/04/23 08:03:13.2    -239   -173    138    296    326 234.1  26.9  33976  286.47 0855.36
2009/04/23 08:03:13.3    -302   -118     66    325    332 248.7  11.5  33970  286.36 0855.36
2009/04/23 08:03:13.4    -320   -202     32    379    381 237.7   4.9  33978  286.48 0855.36
2009/04/23 08:03:13.5    -170   -162     99    235    255 226.4  24.2  33984  286.60 0855.36
2009/04/23 08:03:13.6    -273   -113    129    296    322 247.4  25.0  33972  286.38 0855.36
2009/04/23 08:03:13.7    -246    -85    122    261    288 251.0  27.1  33974  286.42 0855.36
2009/04/23 08:03:13.8    -265   -152     85    306    318 240.2  15.6  33974  286.43 0855.36
2009/04/23 08:03:13.9    -254    -55     30    261    263 257.7   6.7  33978  286.50 0855.36
2009/04/23 08:03:14.0    -289    -49     14    294    295 260.3   2.8  33974  286.42 0855.36
2009/04/23 08:03:14.1    -330     43     25    333    334 277.5   4.3  33962  286.24 0855.36
2009/04/23 08:03:14.2    -309     42     38    312    315 277.9   7.1  33972  286.40 0855.36
2009/04/23 08:03:14.3    -235     29     -9    237    238 277.2  -2.2  33984  286.58 0855.36
2009/04/23 08:03:14.4    -216      0     -4    217    218 270.0  -1.2  33982  286.56 0855.36
2009/04/23 08:03:14.5    -271     17     47    272    277 273.7   9.9  33976  286.45 0855.36
2009/04/23 08:03:14.6    -133     58    -40    146    152 293.5 -15.4  33964  286.27 0855.36
2009/04/23 08:03:14.7    -113    105    -19    155    157 313.1  -7.2  33984  286.61 0855.36
2009/04/23 08:03:14.8    -162    -21     -7    164    165 262.3  -2.6  33978  286.51 0855.36
2009/04/23 08:03:14.9    -292    -68     47    300    304 256.7   9.0  33976  286.47 0855.36
2009/04/23 08:03:15.0    -227    -90    105    245    266 248.3  24.6  33970  286.35 0855.36
2009/04/23 08:03:15.1    -261   -107     90    283    298 247.6  17.7  33976  286.45 0855.36
2009/04/23 08:03:15.2    -181   -134     52    226    233 233.4  13.1  33978  286.49 0855.36
2009/04/23 08:03:15.3    -214   -171     86    275    289 231.4  17.4  33982  286.55 0855.36
2009/04/23 08:03:15.4    -194   -142     64    241    250 233.8  15.0  33964  286.25 0855.36
2009/04/23 08:03:15.5    -291    -63    102    298    316 257.6  18.9  33964  286.25 0855.36
2009/04/23 08:03:15.6    -319     55     92    324    337 279.9  15.9  33970  286.36 0855.36
2009/04/23 08:03:15.7    -278     16    -30    279    281 273.4  -6.2  33968  286.33 0855.36
2009/04/23 08:03:15.8    -201     21    -32    203    206 276.1  -9.0  33972  286.39 0855.36
2009/04/23 08:03:15.9    -201     38    -43    205    210 280.8 -11.9  33974  286.42 0855.36
2009/04/23 08:03:16.0    -231     16    -36    232    235 274.1  -9.0  33972  286.40 0855.36
2009/04/23 08:03:16.1    -174     -4      7    175    176 268.5   2.3  33968  286.32 0855.36
2009/04/23 08:03:16.2    -214      3    -12    215    216 270.9  -3.3  33970  286.37 0855.36
2009/04/23 08:03:16.3    -164      0     30    165    168 270.0  10.3  33972  286.41 0855.36
2009/04/23 08:03:16.4    -156     72     33    172    176 294.8  11.0  33972  286.39 0855.36
2009/04/23 08:03:16.5    -248      7    -27    249    251 271.7  -6.2  33988  286.65 0855.36
2009/04/23 08:03:16.6    -206     45    -16    211    212 282.4  -4.6  33988  286.66 0855.36
2009/04/23 08:03:16.7    -246     30    -75    248    259 277.0 -21.7  33978  286.48 0855.36
2009/04/23 08:03:16.8    -307    -23    -17    308    309 265.6  -3.2  33980  286.52 0855.36
2009/04/23 08:03:16.9    -257    -54     -1    263    264 258.1  -0.3  33974  286.43 0855.36
2009/04/23 08:03:17.0    -276    -34     38    279    282 262.8   7.8  33978  286.50 0855.36
2009/04/23 08:03:17.1    -209    -22     69    211    223 263.8  18.1  33976  286.47 0855.36
2009/04/23 08:03:17.2    -164    -69     39    179    184 247.2  12.4  33978  286.51 0855.36
2009/04/23 08:03:17.3    -111    -72     54    133    143 237.1  23.0  33980  286.52 0855.36
2009/04/23 08:03:17.4     -73    -20     57     76     95 254.1  40.7  33974  286.44 0855.36
2009/04/23 08:03:17.5     -14     22     66     27     71 327.4  77.1  33978  286.51 0855.36
2009/04/23 08:03:17.6     -28     45     60     54     80 328.4  53.3  33978  286.49 0855.36
2009/04/23 08:03:17.7     -40     25     44     48     65 302.4  47.9  33976  286.46 0855.36
2009/04/23 08:03:17.8      -6     29      1     30     31 348.4   2.9  33976  286.47 0855.36
2009/04/23 08:03:17.9      65     16    -35     68     76  75.8 -33.7  33978  286.49 0855.36
2009/04/23 08:03:18.0      65     65    -18     93     95  45.0 -11.3  33976  286.46 0855.36
2009/04/23 08:03:18.1     117     85     32    145    149  54.1  12.6  33972  286.41 0855.36
2009/04/23 08:03:18.2     118    235     19    264    265  26.7   4.2  33976  286.47 0855.36
2009/04/23 08:03:18.3     161    220     77    273    284  36.3  15.8  33986  286.62 0855.36
2009/04/23 08:03:18.4      95    210    113    231    257  24.5  28.2  33978  286.50 0855.36
2009/04/23 08:03:18.5     121    205     91    239    255  30.7  22.0  33980  286.52 0855.36
2009/04/23 08:03:18.6     146    189    112    240    264  37.8  27.1  33978  286.50 0855.36
2009/04/23 08:03:18.7     105    159     94    191    212  33.6  28.0  33976  286.47 0855.36
2009/04/23 08:03:18.8      25    228    115    230    257   6.3  28.5  33976  286.47 0855.36
2009/04/23 08:03:18.9      42    205     91    210    228  11.6  24.9  33980  286.54 0855.36
2009/04/23 08:03:19.0     135    124    145    184    234  47.6  42.2  33978  286.51 0855.36
2009/04/23 08:03:19.1     155     98    125    184    222  57.6  37.4  33980  286.52 0855.36
2009/04/23 08:03:19.2     106    111     88    154    177  43.7  32.4  33980  286.54 0855.36
2009/04/23 08:03:19.3      86    162     96    184    207  27.9  29.5  33978  286.51 0855.36
2009/04/23 08:03:19.4     161    159     61    227    236  45.3  15.2  33980  286.54 0855.36
2009/04/23 08:03:19.5     198    187     83    273    286  46.7  17.1  33984  286.58 0855.36
2009/04/23 08:03:19.6     223    177     73    285    295  51.6  14.5  33984  286.58 0855.36
2009/04/23 08:03:19.7     181    159     92    242    258  48.7  22.0  33984  286.58 0855.36
2009/04/23 08:03:19.8     151     95     71    179    192  57.6  22.8  33984  286.61 0855.36
2009/04/23 08:03:19.9      85    158     77    180    195  28.5  24.6  33986  286.62 0855.36
2009/04/23 08:03:20.0      68    123     37    141    146  28.9  14.7  33980  286.54 0855.36
2009/04/23 08:03:20.1      62    120     57    136    147  27.2  23.6  33988  286.66 0855.36
2009/04/23 08:03:20.2      35    115     53    121    132  16.9  25.1  33984  286.61 0855.36
2009/04/23 08:03:20.3      74     96     64    122    137  37.8  29.8  33986  286.62 0855.37
2009/04/23 08:03:20.4     124     77     64    147    160  58.0  24.9  33982  286.57 0855.37
2009/04/23 08:03:20.5     106     70     54    128    138  56.7  24.1  33982  286.57 0855.37
2009/04/23 08:03:20.6      97     87     73    131    149  47.8  31.4  33984  286.59 0855.37
2009/04/23 08:03:20.7      79     66     84    104    133  50.0  43.7  33986  286.62 0855.37
2009/04/23 08:03:20.8      31     59     74     67     99  28.1  52.7  33984  286.61 0855.37
2009/04/23 08:03:20.9     -17     -4     62     18     64 254.9  82.8  33988  286.67 0855.37
2009/04/23 08:03:21.0      22     67     84     71    109  18.3  56.3  33986  286.62 0855.37
2009/04/23 08:03:21.1     133     63     66    148    162  64.6  25.7  33986  286.62 0855.37
2009/04/23 08:03:21.2     199     94     52    221    228  64.6  13.2  33984  286.59 0855.37
2009/04/23 08:03:21.3     195     57     18    204    205  73.6   5.2  33980  286.52 0855.37
2009/04/23 08:03:21.4     117     86     76    146    164  53.6  29.8  33982  286.56 0855.37
2009/04/23 08:03:21.5     165     72    106    181    209  66.5  33.1  33982  286.56 0855.37
2009/04/23 08:03:21.6     126     42    141    134    194  71.4  51.4  33986  286.62 0855.37
2009/04/23 08:03:21.7     244     63     94    253    269  75.4  21.0  33978  286.50 0855.37
2009/04/23 08:03:21.8     231     66     90    241    257  74.1  21.5  33980  286.53 0855.37
2009/04/23 08:03:21.9     210     76     74    224    237  70.1  18.4  33982  286.56 0855.37
2009/04/23 08:03:22.1     241    100     87    261    276  67.4  18.5  33980  286.52 0855.37
2009/04/23 08:03:22.2     127     81    115    151    189  57.5  41.2  33974  286.44 0855.37
2009/04/23 08:03:22.3     208     73    161    221    273  70.7  39.7  33980  286.53 0855.37
2009/04/23 08:03:22.4     140     86    144    165    219  58.5  45.8  33980  286.54 0855.37
2009/04/23 08:03:22.5     168     59    107    179    208  70.5  33.7  33982  286.56 0855.37
2009/04/23 08:03:22.6     161     51     37    170    175  72.3  12.4  33980  286.54 0855.37
2009/04/23 08:03:22.7     154     46     35    161    165  73.4  12.4  33984  286.59 0855.37
2009/04/23 08:03:22.8     124     78     21    147    149  57.6   8.5  33982  286.57 0855.37
2009/04/23 08:03:22.9     146     99     31    177    180  55.6  10.1  33980  286.52 0855.37
2009/04/23 08:03:23.0     205     12     -6    206    207  86.5  -1.8  33986  286.64 0855.37
2009/04/23 08:03:23.1     139     10    103    140    173  85.7  39.9  33984  286.59 0855.37
2009/04/23 08:03:23.2     190      8     95    191    213  87.4  28.5  33984  286.59 0855.37
2009/04/23 08:03:23.3     231     42    122    235    264  79.6  29.3  33986  286.63 0855.37
2009/04/23 08:03:23.4     314     53    122    319    341  80.4  22.0  33986  286.64 0855.37
2009/04/23 08:03:23.5     228     90    106    246    267  68.3  24.9  33986  286.63 0855.37
2009/04/23 08:03:23.6     185     94    123    208    241  62.9  33.5  33986  286.64 0855.37
2009/04/23 08:03:23.7     154    112    130    191    231  54.0  37.6  33990  286.71 0855.37
2009/04/23 08:03:23.8     225    102    163    248    296  65.6  36.5  33990  286.68 0855.37
2009/04/23 08:03:23.9     195    124    154    232    278  57.6  36.7  33990  286.68 0855.37
2009/04/23 08:03:24.0     191    142    140    239    276  53.4  33.1  33994  286.75 0855.37
2009/04/23 08:03:24.1     219    112    112    247    271  62.9  26.2  33996  286.80 0855.37
2009/04/23 08:03:24.2     191     90    128    212    247  64.6  34.2  33994  286.75 0855.37
2009/04/23 08:03:24.3     200     52    152    207    256  75.2  39.7  33990  286.68 0855.37
2009/04/23 08:03:24.4     186     50    146    193    242  74.9  40.7  33986  286.62 0855.38
2009/04/23 08:03:24.5     166      3    130    167    211  88.7  42.0  33986  286.64 0855.38
2009/04/23 08:03:24.6     146    -16    120    147    189  96.6  43.7  33984  286.61 0855.38
2009/04/23 08:03:24.7     136    -25    168    139    218 100.6  56.4  33986  286.62 0855.38
2009/04/23 08:03:24.8      50    -56    125     76    146 138.6  65.7  33986  286.64 0855.38
2009/04/23 08:03:24.9      85    -83    137    120    182 134.4  54.3  33992  286.74 0855.38
2009/04/23 08:03:25.0      61    -33    101     70    122 118.8  62.1  33990  286.69 0855.38
2009/04/23 08:03:25.1       0      1     83      2     83 350.3  90.0  33988  286.67 0855.38
2009/04/23 08:03:25.2     -27   -100    134    104    169 195.1  58.2  33992  286.74 0855.38
2009/04/23 08:03:25.3      24   -117    194    120    228 168.0  64.9  33994  286.78 0855.38
2009/04/23 08:03:25.4      42   -138    154    145    211 163.1  52.0  33992  286.73 0855.38
2009/04/23 08:03:25.5      96   -168    153    194    247 150.1  42.4  33992  286.74 0855.38
2009/04/23 08:03:25.6      90   -163    148    187    238 151.0  42.4  33992  286.74 0855.38
2009/04/23 08:03:25.7       0   -197    172    198    262 180.0  45.8  33990  286.70 0855.38
2009/04/23 08:03:25.8    -107   -255    178    277    329 202.8  35.6  33986  286.63 0855.38
2009/04/23 08:03:25.9     -93   -269    158    285    325 199.1  31.5  33984  286.58 0855.38
2009/04/23 08:03:26.0    -105   -288    163    307    347 200.1  30.3  33986  286.64 0855.38
2009/04/23 08:03:26.1     -87   -250    165    265    312 199.2  35.5  33990  286.68 0855.38
2009/04/23 08:03:26.2    -159   -187    113    246    270 220.3  26.4  33986  286.62 0855.38
2009/04/23 08:03:26.3    -168   -191    114    255    279 221.4  25.7  33992  286.72 0855.38
2009/04/23 08:03:26.4    -125   -141    136    189    232 221.4  39.5  33988  286.67 0855.38
2009/04/23 08:03:26.5    -106   -128    119    167    205 219.6  39.1  33992  286.73 0855.38
2009/04/23 08:03:26.6     -53   -113    124    125    176 205.3  50.5  33988  286.66 0855.38
2009/04/23 08:03:26.7     -13   -123    107    124    163 186.3  45.6  33990  286.69 0855.38
2009/04/23 08:03:26.8     -42    -72     73     84    111 210.7  45.4  33990  286.71 0855.38
2009/04/23 08:03:26.9      14    -73     64     75     98 168.5  44.8  33988  286.67 0855.38
2009/04/23 08:03:27.0      88    -92     44    128    136 136.3  19.2  33988  286.67 0855.38
2009/04/23 08:03:27.1      75   -128    -10    149    150 149.7  -4.1  33988  286.67 0855.38
2009/04/23 08:03:27.2     121    -82    -16    147    148 124.1  -6.2  33992  286.73 0855.38
2009/04/23 08:03:27.3      63   -110     33    127    132 150.1  14.7  33992  286.73 0855.38
2009/04/23 08:03:27.4      -6   -113     40    114    120 183.1  20.0  33988  286.67 0855.38
2009/04/23 08:03:27.5      28   -119    -40    123    129 166.6 -23.8  33990  286.71 0855.38
2009/04/23 08:03:27.6      45   -217    -26    222    224 168.2  -6.9  33990  286.71 0855.38
2009/04/23 08:03:27.7      16   -206    -34    207    210 175.5  -9.3  33990  286.69 0855.38
2009/04/23 08:03:27.8      18   -180    -38    182    186 174.0 -11.9  33988  286.66 0855.38
2009/04/23 08:03:27.9      65   -141    -27    156    159 155.1 -10.1  33988  286.67 0855.38
2009/04/23 08:03:28.0      47    -82    -60     95    112 149.7 -39.9  33990  286.69 0855.38
2009/04/23 08:03:28.1      16    -72    -74     74    104 167.5 -54.5  33992  286.74 0855.38
2009/04/23 08:03:28.2      48    -36    -99     61    116 126.9 -69.1  33992  286.73 0855.38
2009/04/23 08:03:28.3      54     18    -54     57     78  71.4 -52.9  33988  286.66 0855.38
2009/04/23 08:03:28.4      49     23    -45     55     71  64.8 -48.1  33988  286.67 0855.37
2009/04/23 08:03:28.5      76      5    -26     77     82  85.7 -19.1  33992  286.73 0855.37
2009/04/23 08:03:28.6      29     16      1     34     35  61.1   2.9  33992  286.73 0855.37
2009/04/23 08:03:28.7      15    -23     21     28     35 147.5  39.7  33992  286.74 0855.37
2009/04/23 08:03:28.8     -22    -47     44     53     68 205.5  43.8  33992  286.73 0855.37
2009/04/23 08:03:28.9      -5     17     59     18     61 341.7  82.8  33996  286.79 0855.37
2009/04/23 08:03:29.0      -1    -14     61     15     62 184.5  85.9  33992  286.74 0855.37
2009/04/23 08:03:29.1       7    -80    120     81    144 174.7  63.2  33994  286.76 0855.37
2009/04/23 08:03:29.2      25   -114    124    117    170 167.5  52.0  33994  286.76 0855.37
2009/04/23 08:03:29.3       1   -149    119    150    191 179.5  42.7  33992  286.74 0855.37
2009/04/23 08:03:29.4      22   -124    116    127    172 169.8  47.1  33990  286.71 0855.37
2009/04/23 08:03:29.5      69   -148     62    164    175 155.1  21.3  33994  286.78 0855.37
2009/04/23 08:03:29.6      16   -164     83    165    184 174.2  28.7  33990  286.71 0855.37
2009/04/23 08:03:29.7      14   -183     84    184    202 175.5  26.2  33990  286.69 0855.37
2009/04/23 08:03:29.8      24   -178     84    180    198 172.2  27.0  33986  286.62 0855.37
2009/04/23 08:03:29.9      45   -148     89    155    178 163.1  32.4  33986  286.62 0855.37
2009/04/23 08:03:30.0      21   -151    115    153    191 171.9  40.9  33988  286.67 0855.37
2009/04/23 08:03:30.1      20   -145    120    147    189 172.0  43.7  33988  286.67 0855.37
2009/04/23 08:03:30.2      22   -158     75    160    176 172.0  27.0  33992  286.73 0855.37
2009/04/23 08:03:30.3      26   -155     97    158    185 170.2  34.8  33990  286.71 0855.37
2009/04/23 08:03:30.4      21   -142     89    144    169 171.5  34.8  33988  286.67 0855.36
2009/04/23 08:03:30.5      13   -119     59    120    133 173.3  27.8  33992  286.73 0855.36
2009/04/23 08:03:30.6       7    -95     55     96    110 175.6  32.4  33992  286.74 0855.36
2009/04/23 08:03:30.7      -4    -85     68     86    109 183.1  43.3  33992  286.74 0855.36
2009/04/23 08:03:30.8     -13    -94     66     95    115 188.0  38.0  33992  286.73 0855.36
2009/04/23 08:03:30.9     -28    -87     40     92    100 198.3  25.1  33992  286.73 0855.36
2009/04/23 08:03:31.0     -17    -87     30     89     95 191.6  18.9  33994  286.76 0855.36
2009/04/23 08:03:31.1       8    -81     43     82     92 173.8  29.3  33994  286.76 0855.36
2009/04/23 08:03:31.2     -10    -56     16     58     61 190.7  15.3  33992  286.73 0855.36
2009/04/23 08:03:31.3     -50    -53      9     74     75 223.3   7.1  33992  286.74 0855.36
2009/04/23 08:03:31.4     -72    -27    -17     78     80 249.2 -12.4  33994  286.76 0855.36
2009/04/23 08:03:31.5     -66      9    -23     67     70 277.9 -23.3  33992  286.73 0855.36
2009/04/23 08:03:31.6     -67     23    -23     71     74 289.1 -23.8  33990  286.71 0855.36
2009/04/23 08:03:31.7     -82     22    -16     85     87 285.1 -10.9  33990  286.71 0855.36
2009/04/23 08:03:31.8     -99    -17     27    101    105 260.3  15.3  33992  286.73 0855.36
2009/04/23 08:03:31.9     -45    -39     20     60     64 228.7  18.9  33992  286.73 0855.36
2009/04/23 08:03:32.0     -57    -58    -28     82     86 224.5 -23.3  33992  286.73 0855.36
2009/04/23 08:03:32.1     -86   -103    -56    135    146 219.6 -27.5  33990  286.69 0855.36
2009/04/23 08:03:32.2     -95    -95    -86    135    160 225.1 -39.9  33986  286.64 0855.36
2009/04/23 08:03:32.3    -112   -164    -62    199    209 214.3 -17.5  33984  286.61 0855.36
2009/04/23 08:03:32.4    -122    -67      9    140    141 241.1   3.8  33986  286.62 0855.36
2009/04/23 08:03:32.5    -104    -28     13    108    109 254.5   7.1  33984  286.61 0855.36
2009/04/23 08:03:32.6     -73      5     -1     74     75 274.4  -1.2  33986  286.64 0855.36
2009/04/23 08:03:32.7    -101    -36     51    108    119 250.5  27.2  33984  286.61 0855.36
2009/04/23 08:03:32.8    -147   -116     44    188    194 231.8  13.2  33984  286.59 0855.36
2009/04/23 08:03:32.9    -145    -69     56    161    171 244.6  19.4  33984  286.59 0855.36
2009/04/23 08:03:33.0    -144    -18    -13    146    147 262.5  -5.1  33982  286.57 0855.36
2009/04/23 08:03:33.1    -230      3    -84    231    245 270.9 -25.1  33984  286.58 0855.36
2009/04/23 08:03:33.2    -240     14    -81    241    255 273.5 -18.7  33986  286.63 0855.36
2009/04/23 08:03:33.3    -231    -10   -137    232    269 267.4 -37.8  33982  286.57 0855.36
2009/04/23 08:03:33.4    -176     14     -7    177    178 274.6  -2.3  33982  286.57 0855.36
2009/04/23 08:03:33.5    -186     27    -24    189    191 278.4  -7.3  33980  286.54 0855.36
2009/04/23 08:03:33.6    -167    -64    -87    179    199 248.9 -32.2  33982  286.56 0855.36
2009/04/23 08:03:33.7    -111      8      9    112    113 274.3   4.9  33982  286.56 0855.36
2009/04/23 08:03:33.8    -139      6    -17    140    142 272.6  -7.2  33982  286.57 0855.36
2009/04/23 08:03:33.9    -188    -95    -75    211    224 243.0 -19.6  33984  286.59 0855.36
2009/04/23 08:03:34.0    -162    -72    -30    178    181 246.0  -9.8  33982  286.57 0855.36
2009/04/23 08:03:34.1    -132    -55    -30    144    148 247.4 -11.9  33988  286.66 0855.36
2009/04/23 08:03:34.2    -152    -87    -21    176    178 240.2  -6.9  33986  286.64 0855.36
2009/04/23 08:03:34.3    -148    -35    -19    153    155 256.8  -7.2  33984  286.59 0855.36
2009/04/23 08:03:34.4     -89    -88      0    126    127 225.1   0.2  33982  286.57 0855.38
2009/04/23 08:03:34.5     -69    -69     19     98    100 225.0  11.1  33984  286.59 0855.38
2009/04/23 08:03:34.6     -38    -52     44     65     78 216.0  36.5  33980  286.54 0855.38
2009/04/23 08:03:34.7      -1    -65     31     66     72 181.0  27.1  33984  286.61 0855.38
2009/04/23 08:03:34.8     -22    -66     24     70     75 198.7  18.9  33984  286.61 0855.38
2009/04/23 08:03:34.9       8    -62      0     63     64 172.0  -0.3  33984  286.59 0855.38
2009/04/23 08:03:35.0      31    -31     31     45     54 135.0  37.6  33982  286.56 0855.38
2009/04/23 08:03:35.1       4    -28     58     29     64 170.2  71.9  33982  286.56 0855.38
2009/04/23 08:03:35.2     -12    -31     68     34     76 201.8  71.9  33982  286.56 0855.38
2009/04/23 08:03:35.3     -47   -131     74    140    158 200.0  30.3  33980  286.54 0855.38
2009/04/23 08:03:35.4     -80   -127     46    151    158 212.1  17.1  33976  286.47 0855.38
2009/04/23 08:03:35.5     -99   -149     67    180    192 213.6  21.3  33976  286.46 0855.38
2009/04/23 08:03:35.6    -107   -157     38    191    195 214.3  11.4  33984  286.59 0855.38
2009/04/23 08:03:35.7    -210   -152   -118    260    285 234.1 -30.6  33992  286.72 0855.38
2009/04/23 08:03:35.8    -278   -147    -62    315    322 242.0 -11.1  33990  286.68 0855.38
2009/04/23 08:03:35.9    -248    -97    -34    267    270 248.5  -7.3  33984  286.58 0855.38
2009/04/23 08:03:36.0    -144   -129    117    194    226 228.0  34.0  33988  286.67 0855.38
2009/04/23 08:03:36.1     -77   -141    138    161    212 208.9  45.1  33984  286.61 0855.38
2009/04/23 08:03:36.2     -71    -96     96    120    153 216.5  43.3  33982  286.57 0855.38
2009/04/23 08:03:36.3     -32    -91    120     97    154 199.6  56.4  33986  286.62 0855.38
2009/04/23 08:03:36.4     -19   -103    109    105    151 190.7  51.2  33986  286.64 0855.38
2009/04/23 08:03:36.5      10   -118     66    119    136 175.1  31.4  33988  286.66 0855.38
2009/04/23 08:03:36.6      61   -103     33    121    126 149.3  15.3  33986  286.64 0855.38
2009/04/23 08:03:36.7      66   -100     73    120    140 146.6  34.0  33988  286.66 0855.38
2009/04/23 08:03:36.8      41   -162     31    168    171 165.7  10.6  33990  286.69 0855.38
2009/04/23 08:03:36.9      -3   -175    -31    176    179 181.1 -10.3  33986  286.64 0855.38
2009/04/23 08:03:37.0     -26   -173    -21    175    177 188.7  -6.9  33988  286.66 0855.38
2009/04/23 08:03:37.1     -38   -189     11    193    194 191.5   3.3  33988  286.66 0855.38
2009/04/23 08:03:37.2     -69   -194     65    206    217 199.6  17.7  33990  286.69 0855.38
2009/04/23 08:03:37.3     -78   -166     10    184    185 205.4   3.1  33986  286.64 0855.38
2009/04/23 08:03:37.4     -76   -149    -30    168    171 207.0 -10.3  33990  286.69 0855.38
2009/04/23 08:03:37.5     -45   -171    -29    177    180 194.9  -9.3  33986  286.64 0855.38
2009/04/23 08:03:37.6     -80   -240    -10    254    255 198.5  -2.3  33988  286.65 0855.38
2009/04/23 08:03:37.7    -210   -219     44    304    308 223.7   8.2  33988  286.65 0855.38
2009/04/23 08:03:37.8    -194   -206     14    284    285 223.3   2.9  33986  286.63 0855.38
2009/04/23 08:03:37.9     -39   -244     34    248    251 189.1   8.0  33986  286.62 0855.38
2009/04/23 08:03:38.0     -17   -211     73    212    225 184.9  19.2  33990  286.69 0855.38
2009/04/23 08:03:38.1     -64   -252     82    261    274 194.3  17.4  33990  286.68 0855.38
2009/04/23 08:03:38.2    -160   -251    -11    298    299 212.6  -2.2  33988  286.67 0855.38
2009/04/23 08:03:38.3    -178   -262      9    317    318 214.2   1.8  33988  286.65 0855.38
2009/04/23 08:03:38.4    -170   -326      7    368    369 207.6   1.1  33990  286.69 0855.38
2009/04/23 08:03:38.5    -185   -288     38    343    346 212.7   6.4  33984  286.61 0855.38
2009/04/23 08:03:38.6    -132   -257     34    290    292 207.2   6.7  33988  286.65 0855.38
2009/04/23 08:03:38.7    -120   -272      0    298    299 203.8   0.0  33988  286.67 0855.38
2009/04/23 08:03:38.8    -161   -237      0    287    288 214.3   0.0  33988  286.65 0855.38
2009/04/23 08:03:38.9    -105   -238    -14    261    262 203.8  -3.1  33990  286.68 0855.38
2009/04/23 08:03:39.0     -48   -176    -31    183    186 195.4  -9.8  33988  286.66 0855.38
2009/04/23 08:03:39.1    -114   -110    -41    159    165 226.0 -14.7  33992  286.73 0855.38
2009/04/23 08:03:39.2    -144   -120    -12    188    189 230.2  -3.9  33986  286.62 0855.38
2009/04/23 08:03:39.3    -154   -230    -21    278    279 213.8  -4.4  33990  286.68 0855.38
2009/04/23 08:03:39.4    -199   -126    -10    236    237 237.6  -2.6  33990  286.70 0855.38
2009/04/23 08:03:39.5    -189    -93    -34    211    214 243.8  -9.3  33990  286.69 0855.38
2009/04/23 08:03:39.6    -136   -102    -21    170    172 233.1  -7.2  33988  286.67 0855.38
2009/04/23 08:03:39.7    -178    -94    -33    202    205 242.0  -9.3  33984  286.59 0855.38
2009/04/23 08:03:39.8    -118   -112     10    163    164 226.4   3.8  33986  286.64 0855.38
2009/04/23 08:03:39.9     -41   -101    -30    110    115 202.3 -15.4  33992  286.74 0855.38
2009/04/23 08:03:40.0       8    -62     28     63     68 171.9  25.1  33986  286.64 0855.38
2009/04/23 08:03:40.1      -2    -16     66     17     68 188.0  84.9  33986  286.62 0855.38
2009/04/23 08:03:40.2      16     26     54     31     62  32.5  68.8  33988  286.67 0855.38
2009/04/23 08:03:40.3      24      7     66     26     70  73.2  77.1  33990  286.71 0855.38
2009/04/23 08:03:40.4      -3     -7     49      8     49 205.4  90.0  33988  286.67 0855.38
2009/04/23 08:03:40.5     -14    -57     -7     59     60 194.3  -7.3  33990  286.71 0855.38
2009/04/23 08:03:40.6     -48    -82    -93     96    133 210.3 -54.3  33988  286.66 0855.38
2009/04/23 08:03:40.7     -46   -141   -131    149    198 198.3 -50.3  33982  286.57 0855.38
2009/04/23 08:03:40.8     -38   -178   -124    183    221 192.0 -41.8  33986  286.62 0855.38
2009/04/23 08:03:40.9      14   -169    -15    170    171 175.1  -5.2  33986  286.62 0855.38
2009/04/23 08:03:41.0      91   -164    -44    188    194 151.0 -13.4  33984  286.59 0855.38
2009/04/23 08:03:41.1       0   -208    -99    209    231 180.0 -31.6  33986  286.62 0855.38
2009/04/23 08:03:41.2      35   -178   -114    182    214 168.9 -39.9  33986  286.62 0855.38
2009/04/23 08:03:41.3      10   -140   -127    141    189 175.5 -51.3  33986  286.62 0855.38
2009/04/23 08:03:41.4     -17   -139    -80    141    162 187.1 -36.5  33988  286.67 0855.39
2009/04/23 08:03:41.5      35    -98    -99    105    144 160.0 -52.9  33990  286.69 0855.39
2009/04/23 08:03:41.6      35   -108    -68    114    132 161.7 -38.4  33990  286.69 0855.39
2009/04/23 08:03:41.7      29    -92   -105     97    142 162.6 -56.6  33988  286.67 0855.39
2009/04/23 08:03:41.8     -12    -45    -68     47     82 196.0 -66.5  33988  286.67 0855.39
2009/04/23 08:03:41.9      -5    -49   -106     50    117 186.2 -77.5  33988  286.67 0855.39
2009/04/23 08:03:42.0      70   -129   -101    147    178 151.5 -42.4  33984  286.61 0855.39
2009/04/23 08:03:42.1      53   -104    -73    118    138 152.8 -39.4  33986  286.64 0855.39
2009/04/23 08:03:42.2       9   -118    -44    119    126 175.5 -25.3  33978  286.51 0855.39
2009/04/23 08:03:42.3       1   -154     17    155    156 179.5   6.5  33984  286.61 0855.39
2009/04/23 08:03:42.4      44   -111     -6    120    121 158.1  -3.1  33984  286.59 0855.39
2009/04/23 08:03:42.5      23   -115    -35    118    123 168.4 -21.7  33984  286.61 0855.39
2009/04/23 08:03:42.6     -63   -165    -55    177    185 201.2 -22.8  33986  286.62 0855.39
2009/04/23 08:03:42.7     -43   -215      9    220    221 191.5   2.5  33986  286.62 0855.39
2009/04/23 08:03:42.8      26   -155    -49    158    165 170.3 -22.5  33984  286.59 0855.39
2009/04/23 08:03:42.9       7    -43   -114     44    122 170.2 -82.6  33984  286.61 0855.39
2009/04/23 08:03:43.0      97   -181   -110    206    233 151.7 -35.0  33986  286.62 0855.39
2009/04/23 08:03:43.1      88   -219   -138    237    274 158.2 -37.1  33984  286.58 0855.39
2009/04/23 08:03:43.2     139   -157    -34    211    214 138.5  -9.4  33980  286.52 0855.39
2009/04/23 08:03:43.3     167   -138    -60    217    226 129.5 -15.4  33986  286.62 0855.39
2009/04/23 08:03:43.4     120   -176     28    214    216 145.7   7.5  33982  286.57 0855.39
2009/04/23 08:03:43.5      85   -178    -13    198    199 154.4  -3.9  33984  286.59 0855.39
2009/04/23 08:03:43.7      13   -264     27    265    267 177.1   5.9  33988  286.67 0855.39
2009/04/23 08:03:43.7      61   -300     14    307    308 168.5   2.8  33982  286.57 0855.39
2009/04/23 08:03:43.8       0   -196     96    197    219 179.8  27.8  33982  286.56 0855.39
2009/04/23 08:03:43.9      32   -226    172    229    286 171.8  40.7  33984  286.58 0855.39
2009/04/23 08:03:44.0      46   -272     80    276    288 170.3  16.3  33986  286.62 0855.39
2009/04/23 08:03:44.1     -37   -281      4    284    285 187.6   0.8  33982  286.57 0855.39
2009/04/23 08:03:44.2      54   -174     85    183    201 162.6  26.6  33982  286.57 0855.39
2009/04/23 08:03:44.3     -16   -150     54    151    160 186.3  20.2  33982  286.57 0855.39
2009/04/23 08:03:44.4     -53   -107    -63    120    135 206.3 -34.2  33988  286.67 0855.39
2009/04/23 08:03:44.5     -86    -91    -67    126    142 223.3 -34.7  33986  286.64 0855.39
2009/04/23 08:03:44.6     -67      0   -106     68    125 270.8 -69.0  33990  286.69 0855.39
2009/04/23 08:03:44.7       0    -79    -61     80    100 180.0 -45.6  33984  286.61 0855.39
2009/04/23 08:03:44.8     -88    -82     81    121    145 227.3  37.0  33982  286.57 0855.39
2009/04/23 08:03:44.9     -86    -70     46    111    120 230.9  23.6  33986  286.62 0855.39
2009/04/23 08:03:45.0     -77    -42     14     88     90 241.1   9.5  33986  286.62 0855.39
2009/04/23 08:03:45.1     -46     29    -19     55     59 302.4 -19.6  33986  286.64 0855.39
2009/04/23 08:03:45.2     -58     46    -51     75     90 308.6 -42.0  33986  286.64 0855.39
2009/04/23 08:03:45.3     -67     45    -32     81     87 304.2 -26.4  33986  286.64 0855.39
2009/04/23 08:03:45.4     -54     37    -46     66     80 305.1 -43.0  33986  286.64 0855.39
2009/04/23 08:03:45.5     -30     64    -51     71     87 334.7 -43.5  33986  286.62 0855.39
2009/04/23 08:03:45.6       1    114    -44    115    123   0.9 -25.9  33986  286.64 0855.39
2009/04/23 08:03:45.7      -7     99    -82    100    129 355.5 -48.1  33988  286.67 0855.39
2009/04/23 08:03:45.8      16     80    -73     82    109  11.5 -50.8  33986  286.64 0855.39
2009/04/23 08:03:45.9      39    119    -91    126    155  18.3 -43.9  33986  286.64 0855.39
2009/04/23 08:03:46.0      85    144   -100    168    195  30.7 -37.9  33984  286.59 0855.39
2009/04/23 08:03:46.1     106    156    -81    190    206  34.3 -29.0  33984  286.61 0855.39
2009/04/23 08:03:46.2     109    156    -82    191    207  35.0 -29.3  33984  286.61 0855.39
2009/04/23 08:03:46.3     131    128    -82    184    201  45.8 -29.7  33984  286.61 0855.39
2009/04/23 08:03:46.4     151    112    -87    189    208  53.4 -31.4  33986  286.62 0855.39
2009/04/23 08:03:46.5     139    118    -74    183    197  49.6 -27.5  33986  286.64 0855.39
2009/04/23 08:03:46.6     165     84    -63    186    197  63.1 -18.9  33988  286.66 0855.39
2009/04/23 08:03:46.7     154     65     45    168    175  66.9  15.2  33984  286.59 0855.39
2009/04/23 08:03:46.8     163     38     59    168    178  76.7  20.0  33986  286.64 0855.39
2009/04/23 08:03:46.9     126     42     21    134    136  71.4   9.0  33986  286.62 0855.39
2009/04/23 08:03:47.0     117     51     44    128    136  66.5  18.9  33986  286.64 0855.39
2009/04/23 08:03:47.1     111     36    114    117    163  71.8  49.4  33982  286.56 0855.39
2009/04/23 08:03:47.2     128     36    132    134    188  74.1  50.0  33986  286.62 0855.39
2009/04/23 08:03:47.3      81    -53    125     97    158 123.3  58.5  33986  286.64 0855.39
2009/04/23 08:03:47.4     101    -24    145    104    178 103.7  60.8  33984  286.61 0855.39
2009/04/23 08:03:47.6      26     -8     87     28     91 108.2  81.2  33988  286.66 0855.39
2009/04/23 08:03:47.6      24    -50    104     56    118 154.6  69.3  33990  286.69 0855.39
2009/04/23 08:03:47.7      62    -39    111     74    133 122.4  63.6  33988  286.66 0855.39
2009/04/23 08:03:47.8     105      0     82    106    134  90.0  41.7  33986  286.64 0855.39
2009/04/23 08:03:47.9     100    -35     89    107    139 109.5  43.8  33988  286.66 0855.39
2009/04/23 08:03:48.0      85    -49    101     99    141 119.8  50.2  33990  286.71 0855.39
2009/04/23 08:03:48.1     163    -28     85    166    186  99.9  29.1  33986  286.64 0855.39
2009/04/23 08:03:48.2      55    -23     98     60    114 112.6  64.7  33986  286.64 0855.39
2009/04/23 08:03:48.4      11     25     65     28     70  23.6  75.0  33988  286.67 0855.39
2009/04/23 08:03:48.5      83    -31    140     89    165 110.8  64.7  33990  286.69 0855.39
2009/04/23 08:03:48.6      41     13     65     44     78  71.6  63.6  33990  286.69 0855.39
2009/04/23 08:03:48.7      -4    -19     60     20     63 191.6  81.0  33988  286.67 0855.39
2009/04/23 08:03:48.8      45     54     37     71     80  39.6  29.8  33992  286.73 0855.39
2009/04/23 08:03:48.9      36     71     35     80     87  27.2  24.6  33990  286.71 0855.39
2009/04/23 08:03:49.0     199    126    -61    236    244  57.6 -14.5  33990  286.68 0855.39
2009/04/23 08:03:49.1     185    134      2    229    230  54.0   0.7  33986  286.64 0855.39
2009/04/23 08:03:49.2     135    168     72    216    228  38.7  18.6  33986  286.64 0855.39
2009/04/23 08:03:49.3     -22    -69    152     73    168 198.3  72.8  33990  286.69 0855.39
2009/04/23 08:03:49.4     -31   -164    116    168    204 190.9  37.8  33988  286.66 0855.39
2009/04/23 08:03:49.5     -12   -118    134    119    179 185.8  53.7  33988  286.66 0855.39
2009/04/23 08:03:49.6      27    -31     73     42     84 139.5  67.2  33986  286.64 0855.39
2009/04/23 08:03:49.7      -8      1     36      9     37 281.5  86.9  33988  286.66 0855.39
2009/04/23 08:03:49.8      -5    -65     27     66     71 184.5  23.0  33988  286.66 0855.39
2009/04/23 08:03:49.9     -18    -80     29     83     88 192.9  19.4  33986  286.64 0855.39
2009/04/23 08:03:50.0     -12   -103     11    104    105 186.7   6.5  33986  286.64 0855.39
2009/04/23 08:03:50.1      18   -103      5    105    106 169.8   2.8  33986  286.62 0855.39
2009/04/23 08:03:50.2       9    -88     18     89     91 173.8  11.6  33984  286.59 0855.39
2009/04/23 08:03:50.3     -18    -53     42     57     70 198.7  39.7  33986  286.64 0855.39
2009/04/23 08:03:50.4     -37    -49     54     62     82 217.8  45.8  33986  286.64 0855.39
2009/04/23 08:03:50.5      -6     -6     73      9     73 225.0  90.0  33988  286.67 0855.39
2009/04/23 08:03:50.6       3     50     78     51     93   3.6  64.1  33986  286.64 0855.39
2009/04/23 08:03:50.7      86     62     22    107    110  54.0  11.6  33986  286.64 0855.39
2009/04/23 08:03:50.8      43     18     35     47     58  66.5  40.7  33986  286.62 0855.39
2009/04/23 08:03:50.9      47     16     27     50     56  70.9  30.3  33986  286.62 0855.39
2009/04/23 08:03:51.0      55     18     20     58     62  71.8  18.9  33984  286.61 0855.39
2009/04/23 08:03:51.1      24     -2     31     25     39  96.1  56.4  33986  286.62 0855.39
2009/04/23 08:03:51.2      -6    -39     50     40     64 189.8  56.4  33986  286.62 0855.39
2009/04/23 08:03:51.3       2    -25     22     26     34 175.5  45.8  33984  286.61 0855.39
2009/04/23 08:03:51.4      15    -17      8     23     25 138.6  19.2  33984  286.61 0855.39
2009/04/23 08:03:51.5      15     26      7     31     32  30.7  13.2  33984  286.61 0855.39
2009/04/23 08:03:51.6      75     22     21     79     82  73.2  15.3  33978  286.49 0855.39
2009/04/23 08:03:51.7       0     82     27     83     88   0.0  17.9  33978  286.51 0855.39
2009/04/23 08:03:51.8      26     83     29     88     93  17.4  18.4  33978  286.51 0855.39
2009/04/23 08:03:51.9     129     85     88    155    178  56.7  31.9  33978  286.49 0855.39
2009/04/23 08:03:52.0      65     94    140    115    181  34.7  56.4  33976  286.47 0855.39
2009/04/23 08:03:52.1       8     68    130     69    147   7.1  70.4  33972  286.39 0855.39
2009/04/23 08:03:52.2      45     70     98     84    129  33.0  55.4  33970  286.37 0855.39
2009/04/23 08:03:52.3     106    167     83    199    215  32.5  23.8  33980  286.54 0855.39
2009/04/23 08:03:52.4     128    116    121    173    211  47.8  38.4  33976  286.47 0855.39
2009/04/23 08:03:52.5      89    126    105    155    187  35.2  37.3  33976  286.47 0855.39
2009/04/23 08:03:52.6     131     47    134    140    193  70.0  49.0  33976  286.47 0855.39
2009/04/23 08:03:52.7     143     70    102    160    189  64.0  35.6  33982  286.56 0855.39
2009/04/23 08:03:52.8     140     97     82    171    189  55.1  27.3  33980  286.52 0855.39
2009/04/23 08:03:52.9     158    101     92    188    209  57.4  27.8  33982  286.56 0855.39
2009/04/23 08:03:53.0     177     90    115    199    229  62.9  32.7  33982  286.56 0855.39
2009/04/23 08:03:53.1     174    -22    147    176    229  97.2  43.8  33976  286.47 0855.39
2009/04/23 08:03:53.2      73     41    140     84    163  60.7  66.2  33980  286.54 0855.39
2009/04/23 08:03:53.3     110     43    115    119    165  68.7  49.2  33988  286.66 0855.39
2009/04/23 08:03:53.4     121    121     66    172    184  45.0  22.0  33984  286.61 0855.39
2009/04/23 08:03:53.5     188     96     57    212    220  62.9  15.2  33988  286.66 0855.39
2009/04/23 08:03:53.6     175     71     89    190    209  67.8  27.1  33990  286.69 0855.39
2009/04/23 08:03:53.7     161     76     75    179    194  64.7  23.8  33990  286.71 0855.39
2009/04/23 08:03:53.8     179     77     87    195    213  66.7  25.7  33986  286.62 0855.39
2009/04/23 08:03:53.9     184    101    104    210    234  61.2  28.2  33986  286.64 0855.39
2009/04/23 08:03:54.0     207     85     19    224    225  67.6   4.9  33988  286.67 0855.39
2009/04/23 08:03:54.1     175    107     72    206    218  58.5  20.0  33990  286.69 0855.39
2009/04/23 08:03:54.2     165     77    162    183    244  64.8  46.2  33990  286.69 0855.39
2009/04/23 08:03:54.3     169     57    180    179    253  71.4  50.1  33990  286.69 0855.39
2009/04/23 08:03:54.4     155     55    116    165    201  70.3  38.6  33986  286.64 0855.39
2009/04/23 08:03:54.5     143      0     46    144    152  90.0  17.9  33988  286.66 0855.39
2009/04/23 08:03:54.6     177     69     98    191    214  68.7  29.3  33984  286.59 0855.39
2009/04/23 08:03:54.7     200     51    108    207    233  75.6  29.5  33982  286.56 0855.39
2009/04/23 08:03:54.8     249     70     45    259    263  74.1   9.9  33986  286.63 0855.39
2009/04/23 08:03:54.9     244     65     -9    253    254  75.0  -2.2  33986  286.62 0855.39
2009/04/23 08:03:55.0     180     11    -16    181    182  86.3  -5.2  33986  286.62 0855.39
2009/04/23 08:03:55.1     219    -34    157    222    271  99.0  38.6  33978  286.50 0855.39
2009/04/23 08:03:55.2      45    -24    157     52    165 118.0  80.7  33986  286.64 0855.39
2009/04/23 08:03:55.3      79    -44    140     91    166 119.3  64.1  33982  286.57 0855.39
2009/04/23 08:03:55.4      28    -91    109     96    145 162.6  54.2  33980  286.54 0855.39
2009/04/23 08:03:55.5     -40    -17    143     44    149 246.5  82.3  33984  286.61 0855.38
2009/04/23 08:03:55.6      41     -9     82     42     92 102.4  71.4  33984  286.59 0855.38
2009/04/23 08:03:55.7      35     34     43     50     65  46.0  44.8  33984  286.61 0855.38
2009/04/23 08:03:55.8      94     88     57    129    141  46.8  25.2  33984  286.59 0855.38
2009/04/23 08:03:55.9     110     46     46    120    128  67.4  22.0  33982  286.56 0855.38
2009/04/23 08:03:56.0      61    100     -3    118    119  31.2  -1.8  33988  286.67 0855.38
2009/04/23 08:03:56.1      28    121    -16    125    127  13.4  -7.3  33990  286.69 0855.38
2009/04/23 08:03:56.2      20    146    -13    148    149   8.0  -5.2  33988  286.67 0855.38
2009/04/23 08:03:56.3      41    124     10    131    132  18.3   4.4  33986  286.62 0855.38
2009/04/23 08:03:56.4      28    113     -4    117    118  14.3  -2.2  33988  286.66 0855.38
2009/04/23 08:03:56.5     -45     45    -44     64     77 315.0 -42.0  33992  286.74 0855.38
2009/04/23 08:03:56.6     -57     -8    -29     58     64 261.2 -32.6  33992  286.74 0855.38
2009/04/23 08:03:56.7       3    -30      2     31     32 173.8   4.9  33992  286.73 0855.38
2009/04/23 08:03:56.8      24      7     41     26     48  73.2  64.7  33992  286.74 0855.38
2009/04/23 08:03:56.9      32     51     86     61    105  32.6  61.1  33990  286.69 0855.38
2009/04/23 08:03:57.0      32     87    107     93    141  20.5  54.3  33986  286.62 0855.38
2009/04/23 08:03:57.1      40    120     49    127    136  18.7  22.0  33990  286.69 0855.38
2009/04/23 08:03:57.2      33    102     57    108    122  18.3  29.8  33984  286.61 0855.38
2009/04/23 08:03:57.3      -7     22    101     24    103 341.7  86.9  33986  286.64 0855.38
2009/04/23 08:03:57.4      17    -80     63     82    103 168.0  41.7  33992  286.73 0855.38
2009/04/23 08:03:57.5      16    -36    111     40    117 156.4  79.2  33990  286.69 0855.36
2009/04/23 08:03:57.6      18     -6     97     19     98 108.6  89.6  33990  286.69 0855.36
2009/04/23 08:03:57.7      -5    -31     82     32     88 189.8  78.2  33986  286.64 0855.36
2009/04/23 08:03:57.8     -19    -21     56     29     63 221.4  70.8  33986  286.64 0855.36
2009/04/23 08:03:57.9      11      0     46     12     47  90.0  84.9  33986  286.64 0855.36
2009/04/23 08:03:58.0      35     -7     35     36     50 101.5  51.1  33982  286.57 0855.36
2009/04/23 08:03:58.1      42      0     41     43     59  89.2  49.0  33982  286.57 0855.36
2009/04/23 08:03:58.2      -9     14     65     17     67 327.5  84.9  33984  286.59 0855.36
2009/04/23 08:03:58.3       2      8     30      9     31  18.5  82.8  33984  286.59 0855.36
2009/04/23 08:03:58.4      15     26     15     31     34  30.7  27.2  33980  286.54 0855.36
2009/04/23 08:03:58.5       5     52     20     53     56   6.2  20.0  33980  286.52 0855.36
2009/04/23 08:03:58.6      51     67     17     85     87  37.4  11.6  33982  286.57 0855.36
2009/04/23 08:03:58.7      53     53     28     75     80  45.0  21.0  33982  286.56 0855.36
2009/04/23 08:03:58.8      37     58     24     69     74  32.6  19.4  33982  286.56 0855.36
2009/04/23 08:03:58.9      -1     58     26     59     64 358.2  24.1  33980  286.54 0855.36
2009/04/23 08:03:59.0     -22     52     32     57     65 337.3  31.4  33982  286.56 0855.36
2009/04/23 08:03:59.1     -45     37     22     59     62 309.5  21.0  33982  286.56 0855.36
2009/04/23 08:03:59.2     -60     -2    -19     61     63 267.4 -23.8  33982  286.57 0855.36
2009/04/23 08:03:59.3     -69    -23    -38     73     82 251.4 -33.7  33978  286.49 0855.36
2009/04/23 08:03:59.4     -44     53     13     70     72 320.3  11.1  33978  286.49 0855.36
2009/04/23 08:03:59.5     -25     42     22     49     53 329.3  25.1  33976  286.46 0855.36
2009/04/23 08:03:59.6     -61     54      0     82     83 311.3  -0.3  33974  286.42 0855.36
2009/04/23 08:03:59.7     -98     54     13    113    114 298.9   6.9  33976  286.47 0855.36
2009/04/23 08:03:59.8    -119     66     26    137    140 298.9  11.1  33980  286.54 0855.36
2009/04/23 08:03:59.9    -115     83     21    143    145 306.0   8.5  33980  286.52 0855.36
2009/04/23 08:04:00.0    -149     74     21    167    169 296.4   7.5  33978  286.49 0855.36
2009/04/23 08:04:00.1    -181     28    -14    184    185 278.8  -4.4  33978  286.49 0855.36
2009/04/23 08:04:00.2    -173     53    -66    181    192 287.1 -24.8  33982  286.56 0855.36
2009/04/23 08:04:00.3    -223     37    -70    227    237 279.6 -21.8  33988  286.65 0855.36
2009/04/23 08:04:00.4    -161    -12    -55    162    171 265.6 -23.3  33986  286.64 0855.36
2009/04/23 08:04:00.5    -118    -65    -48    135    144 241.1 -19.6  33986  286.64 0855.36
2009/04/23 08:04:00.6    -161   -123    -56    203    211 232.7 -15.5  33980  286.52 0855.36
2009/04/23 08:04:00.7    -201    -43   -159    206    260 257.8 -46.0  33990  286.70 0855.36
2009/04/23 08:04:00.8    -182     40   -223    187    291 282.6 -60.5  33998  286.82 0855.36
2009/04/23 08:04:00.9    -146    -69    -69    162    176 244.6 -28.7  33992  286.73 0855.36
2009/04/23 08:04:01.0    -171   -175    -73    245    255 224.3 -21.7  33986  286.62 0855.36
2009/04/23 08:04:01.1    -214   -106    -97    239    257 243.6 -27.5  33990  286.68 0855.36
2009/04/23 08:04:01.2    -124    -84   -109    150    185 235.9 -44.1  33992  286.74 0855.36
2009/04/23 08:04:01.3    -114    -73    -86    136    160 237.5 -39.9  33990  286.71 0855.36
2009/04/23 08:04:01.4     -99     29   -139    104    173 286.4 -64.2  33984  286.59 0855.36
2009/04/23 08:04:01.5    -157     50      6    165    166 287.7   2.1  33986  286.62 0855.36
2009/04/23 08:04:01.6    -229    -47    -62    234    243 258.3 -15.0  33986  286.62 0855.36
2009/04/23 08:04:01.7    -257      4    -43    258    262 271.0  -9.6  33984  286.58 0855.36
2009/04/23 08:04:01.8    -183    -14   -125    184    222 265.6 -41.8  33988  286.67 0855.36
2009/04/23 08:04:01.9     -84     13   -107     85    136 278.8 -61.3  33982  286.57 0855.36
2009/04/23 08:04:02.0     -29    145    -29    149    152 348.4 -11.3  33986  286.64 0855.36
2009/04/23 08:04:02.1     -26    101    -20    105    107 345.3 -10.9  33990  286.69 0855.36
2009/04/23 08:04:02.2     -79     22   -133     83    156 285.9 -69.5  33986  286.64 0855.36
2009/04/23 08:04:02.3     -68    143   -127    159    203 334.5 -47.1  33986  286.64 0855.36
2009/04/23 08:04:02.4      30    147    -54    151    160  11.6 -24.6  33984  286.59 0855.36
2009/04/23 08:04:02.5     100    143    -61    175    186  35.0 -19.4  33986  286.64 0855.36
2009/04/23 08:04:02.6      59    177    -21    187    189  18.5  -6.5  33986  286.64 0855.36
2009/04/23 08:04:02.7      14    177     16    178    179   4.7   5.2  33984  286.59 0855.36
2009/04/23 08:04:02.8     -74    135     -3    155    156 331.1  -1.3  33986  286.64 0855.36
2009/04/23 08:04:02.9     -35    107    -80    113    138 341.7 -43.5  33982  286.57 0855.36
2009/04/23 08:04:03.0     -43    109     10    118    119 338.2   5.0  33984  286.59 0855.36
2009/04/23 08:04:03.1     -22     67    -21     71     74 341.3 -22.8  33984  286.61 0855.36
2009/04/23 08:04:03.2     -52     56    -21     77     80 316.8 -15.5  33984  286.61 0855.36
2009/04/23 08:04:03.3     -77    154     76    173    188 333.3  25.1  33982  286.56 0855.36
2009/04/23 08:04:03.4     -92    160     -7    185    186 329.9  -2.2  33978  286.51 0855.36
2009/04/23 08:04:03.5    -109    210     24    237    239 332.4   6.0  33980  286.53 0855.36
2009/04/23 08:04:03.6    -117    225     26    254    256 332.4   5.9  33982  286.55 0855.36
2009/04/23 08:04:03.7    -170    254     15    306    307 326.2   2.9  33978  286.48 0855.36
2009/04/23 08:04:03.8    -165    259     32    308    310 327.5   6.1  33984  286.58 0855.36
2009/04/23 08:04:03.9    -189    227      3    296    297 320.3   0.7  33980  286.53 0855.36
2009/04/23 08:04:04.0    -177    232    -11    293    294 322.6  -2.3  33978  286.50 0855.36
2009/04/23 08:04:04.1    -209    167    -21    268    269 308.6  -4.6  33980  286.52 0855.36
2009/04/23 08:04:04.2    -232    200     14    307    308 310.7   2.8  33978  286.48 0855.36
2009/04/23 08:04:04.3    -205    135    -25    246    248 303.3  -6.0  33976  286.45 0855.36
2009/04/23 08:04:04.4    -150    149     14    212    213 314.9   3.8  33982  286.57 0855.36
2009/04/23 08:04:04.5    -150    221     42    268    272 325.8   8.9  33984  286.58 0855.35
2009/04/23 08:04:04.6    -117    187     91    221    239 327.9  23.6  33988  286.67 0855.35
2009/04/23 08:04:04.7    -120    156    107    198    225 322.4  30.8  33988  286.66 0855.35
2009/04/23 08:04:04.8    -112    137     95    178    201 320.8  30.3  33984  286.61 0855.35
2009/04/23 08:04:04.9    -167     69     74    181    195 292.6  23.4  33986  286.64 0855.35
2009/04/23 08:04:05.0    -202     31     83    205    221 278.8  23.1  33988  286.66 0855.35
2009/04/23 08:04:05.1    -203    -56     89    211    229 254.5  24.3  33984  286.61 0855.35
2009/04/23 08:04:05.2    -234    -47     27    239    241 258.5   6.5  33988  286.67 0855.35
2009/04/23 08:04:05.3    -174    -68     86    188    206 248.5  26.4  33984  286.59 0855.35
2009/04/23 08:04:05.4    -161    -62     77    173    189 248.9  25.9  33986  286.64 0855.35
2009/04/23 08:04:05.5    -142     -4      7    143    144 268.3   2.8  33984  286.61 0855.35
2009/04/23 08:04:05.6    -138     -9     -4    139    140 266.1  -1.8  33982  286.56 0855.35
2009/04/23 08:04:05.7    -105    -46      5    115    116 246.0   2.9  33988  286.66 0855.35
2009/04/23 08:04:05.8     -82    -48     66     96    116 239.8  37.6  33988  286.66 0855.35
2009/04/23 08:04:05.9     -79    -36     67     88    110 245.2  41.2  33984  286.61 0855.35
2009/04/23 08:04:06.0     -45    -53     37     70     79 220.5  30.3  33982  286.57 0855.35
2009/04/23 08:04:06.1     -46    -21     33     51     60 245.6  35.6  33984  286.59 0855.35
2009/04/23 08:04:06.2     -43    -58    -35     73     80 216.1 -32.2  33986  286.62 0855.35
2009/04/23 08:04:06.3       2    -46    -31     47     56 177.3 -40.0  33984  286.59 0855.35
2009/04/23 08:04:06.4      65    -41      5     78     79 122.4   3.8  33980  286.54 0855.35
2009/04/23 08:04:06.5     103    -47     89    114    144 114.8  41.7  33982  286.57 0855.37
2009/04/23 08:04:06.6      72    -24     98     77    124 108.6  58.4  33982  286.56 0855.37
2009/04/23 08:04:06.7      65    -31    108     73    130 115.4  62.7  33984  286.59 0855.37
2009/04/23 08:04:06.8      20    -48     74     53     91 157.3  61.1  33982  286.56 0855.37
2009/04/23 08:04:06.9     -16    -97     90     99    133 189.3  47.5  33984  286.59 0855.37
2009/04/23 08:04:07.0     -66   -120     83    138    161 209.0  33.7  33980  286.54 0855.37
2009/04/23 08:04:07.1    -105   -123     -1    163    164 220.5  -0.5  33982  286.56 0855.37
2009/04/23 08:04:07.2    -167   -163     21    234    235 225.6   5.2  33980  286.53 0855.37
2009/04/23 08:04:07.3    -255    -67    134    264    296 255.2  29.2  33982  286.55 0855.37
2009/04/23 08:04:07.4    -165    -91    113    189    220 240.9  33.5  33976  286.47 0855.37
2009/04/23 08:04:07.5    -229   -116     65    257    266 243.0  14.3  33978  286.48 0855.37
2009/04/23 08:04:07.6    -211    -70     76    223    236 251.6  18.9  33978  286.49 0855.37
2009/04/23 08:04:07.7    -214    -95     90    235    251 246.0  22.0  33980  286.53 0855.37
2009/04/23 08:04:07.8    -252   -141      4    290    291 240.7   0.8  33978  286.48 0855.37
2009/04/23 08:04:07.9    -305    -33     66    307    315 263.8  12.2  33980  286.52 0855.37
2009/04/23 08:04:08.0    -252    -76    140    264    298 253.2  30.3  33984  286.58 0855.37
2009/04/23 08:04:08.1    -214    -24     88    216    233 263.4  23.1  33982  286.56 0855.37
2009/04/23 08:04:08.2    -175    -26    116    177    211 261.4  36.0  33984  286.61 0855.37
2009/04/23 08:04:08.3      -6    -88     40     89     97 184.0  25.7  33982  286.57 0855.37
2009/04/23 08:04:08.4      53   -103     32    116    121 152.8  15.8  33984  286.61 0855.37
2009/04/23 08:04:08.5      14   -142     72    143    160 174.2  28.7  33986  286.62 0855.38
2009/04/23 08:04:08.6      15   -142     74    143    161 173.7  29.5  33986  286.62 0855.38
2009/04/23 08:04:08.7       1   -122     83    123    148 179.5  37.4  33982  286.57 0855.38
2009/04/23 08:04:08.8     -19   -128     94    130    160 188.5  39.7  33984  286.61 0855.38
2009/04/23 08:04:08.9     -51   -175    116    183    216 196.3  35.5  33984  286.61 0855.38
2009/04/23 08:04:09.0      64   -115    115    132    175 151.0  45.6  33982  286.56 0855.38
2009/04/23 08:04:09.1     -33   -143     89    147    171 193.3  34.4  33982  286.57 0855.38
2009/04/23 08:04:09.2     -23   -137     96    140    169 189.8  37.8  33980  286.52 0855.38
2009/04/23 08:04:09.3     -74   -137    130    157    203 208.5  43.7  33982  286.56 0855.38
2009/04/23 08:04:09.4     -78   -136    104    157    188 209.9  36.5  33984  286.59 0855.38
2009/04/23 08:04:09.5     -75   -127     31    148    152 210.7  12.0  33982  286.56 0855.38
2009/04/23 08:04:09.6    -145   -175    -28    228    230 219.6  -7.2  33978  286.51 0855.38
2009/04/23 08:04:09.7    -137   -174     12    222    223 218.3   3.1  33982  286.57 0855.38
2009/04/23 08:04:09.8    -109   -217     19    243    244 206.7   4.6  33984  286.58 0855.38
2009/04/23 08:04:09.9      -5   -172     61    173    184 181.8  19.4  33982  286.56 0855.38
2009/04/23 08:04:10.0       9   -155    107    156    189 176.4  37.8  33982  286.57 0855.38
2009/04/23 08:04:10.1     -42   -174    137    180    226 193.8  41.4  33984  286.59 0855.38
2009/04/23 08:04:10.2     -59   -176    116    186    219 198.7  35.2  33982  286.56 0855.38
2009/04/23 08:04:10.3     -36   -117     82    123    147 197.4  36.5  33980  286.54 0855.38
2009/04/23 08:04:10.4     -57   -151     49    162    170 200.7  17.1  33978  286.51 0855.38
2009/04/23 08:04:10.5    -133   -113     48    175    182 229.6  15.3  33976  286.47 0855.39
2009/04/23 08:04:10.6    -117    -73     65    138    152 238.0  27.1  33978  286.51 0855.39
2009/04/23 08:04:10.7     -95   -218     48    238    243 203.6  11.4  33980  286.53 0855.39
2009/04/23 08:04:10.8    -106   -262     66    283    291 202.1  13.1  33976  286.47 0855.39
2009/04/23 08:04:10.9    -133   -231    -10    267    268 209.9  -2.3  33976  286.45 0855.39
2009/04/23 08:04:11.0     -53   -284    -36    289    292 190.6  -7.2  33976  286.45 0855.39
2009/04/23 08:04:11.1    -127   -274    -78    303    313 204.9 -14.5  33976  286.45 0855.39
2009/04/23 08:04:11.2    -141   -276    -44    310    314 207.1  -8.2  33970  286.35 0855.39
2009/04/23 08:04:11.3    -160   -264    -20    309    310 211.2  -3.7  33972  286.40 0855.39
2009/04/23 08:04:11.4    -187   -182    -72    262    272 225.8 -15.5  33976  286.45 0855.39
2009/04/23 08:04:11.5    -172   -128    -83    215    230 233.4 -26.7  33982  286.57 0855.39
2009/04/23 08:04:11.6    -165   -235    -20    288    289 215.1  -4.1  33976  286.47 0855.39
2009/04/23 08:04:11.7    -331    -99    -30    346    348 253.2  -5.1  33978  286.48 0855.39
2009/04/23 08:04:11.8    -278   -184     -9    334    335 236.5  -1.6  33974  286.44 0855.39
2009/04/23 08:04:11.9    -349   -229    -29    418    420 236.7  -4.0  33976  286.47 0855.39
2009/04/23 08:04:12.0    -307   -138    -47    337    341 245.8  -8.0  33986  286.64 0855.39
2009/04/23 08:04:12.1    -243   -134    -20    278    279 241.2  -4.1  33986  286.63 0855.39
2009/04/23 08:04:12.2    -174   -136    -52    221    228 232.0 -13.3  33986  286.64 0855.39
2009/04/23 08:04:12.3    -161   -197     -1    255    256 219.2  -0.3  33978  286.50 0855.39
2009/04/23 08:04:12.4    -203   -222    -95    302    316 222.4 -22.5  33976  286.45 0855.39
2009/04/23 08:04:12.5    -185   -239   -120    303    325 217.8 -27.2  33974  286.42 0855.38
2009/04/23 08:04:12.6    -267   -229   -124    353    375 229.4 -19.4  33978  286.49 0855.38
2009/04/23 08:04:12.7    -263   -199    -60    330    336 232.9 -10.4  33974  286.43 0855.38
2009/04/23 08:04:12.8    -275   -199   -105    340    355 234.0 -22.1  33982  286.56 0855.38
2009/04/23 08:04:12.9    -282   -179    -85    335    346 237.5 -14.3  33976  286.46 0855.38
2009/04/23 08:04:13.0    -234    -89    -64    251    260 249.2 -14.4  33974  286.43 0855.38
2009/04/23 08:04:13.1    -275    -36   -109    278    298 262.5 -27.2  33976  286.47 0855.38
2009/04/23 08:04:13.2    -285   -214    -98    357    371 233.0 -15.4  33974  286.44 0855.38
2009/04/23 08:04:13.3    -168   -264    -64    314    321 212.5 -11.6  33978  286.48 0855.38
2009/04/23 08:04:13.4    -144   -260    -76    298    308 209.0 -14.3  33980  286.53 0855.38
2009/04/23 08:04:13.5    -194   -222    -97    296    312 221.2 -18.3  33976  286.45 0855.38
2009/04/23 08:04:13.6    -120   -232    -48    262    267 207.4 -10.4  33978  286.48 0855.38
2009/04/23 08:04:13.7     -87   -222    -39    239    243 201.4  -9.3  33978  286.50 0855.38
2009/04/23 08:04:13.8    -174   -139    -85    223    238 231.4 -26.4  33974  286.43 0855.38
2009/04/23 08:04:13.9    -213    -93    -78    233    246 246.4 -18.6  33974  286.43 0855.38
2009/04/23 08:04:14.0    -161   -151    -47    221    227 226.9 -12.2  33978  286.51 0855.38
2009/04/23 08:04:14.1    -256   -162   -116    304    325 237.6 -26.2  33982  286.55 0855.38
2009/04/23 08:04:14.2    -183   -166    -89    248    263 227.8 -24.6  33976  286.47 0855.38
2009/04/23 08:04:14.3     -60   -169    -12    180    181 199.6  -4.1  33980  286.52 0855.38
2009/04/23 08:04:14.4    -107   -195    -64    223    233 208.9 -16.0  33982  286.57 0855.38
2009/04/23 08:04:14.5    -100   -184    -58    210    217 208.5 -20.0  33976  286.47 0855.38
2009/04/23 08:04:14.6    -176   -202    -34    269    272 221.0  -7.3  33982  286.57 0855.38
2009/04/23 08:04:14.7    -121   -171    -49    210    216 215.2 -13.3  33980  286.54 0855.38
2009/04/23 08:04:14.8    -133   -175    -62    220    228 217.2 -20.4  33978  286.51 0855.38
2009/04/23 08:04:15.0     -90   -206    -80    226    240 203.7 -19.6  33982  286.55 0855.38
2009/04/23 08:04:15.1       1   -215    -36    216    220 179.5  -9.6  33976  286.47 0855.38
2009/04/23 08:04:15.2      37   -197      2    201    202 169.1   0.7  33982  286.56 0855.38
2009/04/23 08:04:15.3      18   -237    -19    238    239 175.5  -4.6  33980  286.52 0855.38
2009/04/23 08:04:15.4     -15   -240    -11    241    242 183.8  -2.8  33984  286.60 0855.38
2009/04/23 08:04:15.5      49   -298    -57    303    309 170.7 -10.8  33984  286.60 0855.38
2009/04/23 08:04:15.6      28   -139    -69    142    157 168.5 -32.2  33982  286.56 0855.38
2009/04/23 08:04:15.7     -51   -110    -50    122    131 204.9 -27.5  33980  286.54 0855.38
2009/04/23 08:04:15.8      51    -86     -2    101    102 149.3  -1.3  33982  286.57 0855.38
2009/04/23 08:04:15.9      81   -136      3    159    160 149.3   1.2  33982  286.57 0855.38
2009/04/23 08:04:16.0     -46   -160    -17    167    168 196.3  -6.0  33984  286.59 0855.38
2009/04/23 08:04:16.1     -82   -185    -19    203    204 204.1  -5.4  33984  286.59 0855.38
2009/04/23 08:04:16.2     -63   -253    -64    261    269 194.0 -13.9  33982  286.55 0855.38
2009/04/23 08:04:16.3     -16   -216    -19    217    218 184.4  -5.2  33984  286.59 0855.38
2009/04/23 08:04:16.4     -16   -197     85    198    215 184.9  24.9  33982  286.57 0855.38
2009/04/23 08:04:16.5     -58   -184     27    194    196 197.6   8.0  33980  286.54 0855.38
2009/04/23 08:04:16.6     -77   -172    -27    189    191 204.1  -8.2  33982  286.57 0855.38
2009/04/23 08:04:16.7     -50   -140     11    149    150 200.0   4.4  33982  286.57 0855.38
2009/04/23 08:04:16.8     -31   -158     17    162    163 191.3   6.1  33982  286.56 0855.38
2009/04/23 08:04:16.9      11   -151     19    152    154 175.5   7.1  33984  286.59 0855.38
2009/04/23 08:04:17.0       8   -132     20    133    135 176.4   8.9  33982  286.57 0855.38
2009/04/23 08:04:17.1      25   -103     20    107    109 166.2  11.0  33982  286.56 0855.38
2009/04/23 08:04:17.2       5    -67     39     68     78 175.6  32.4  33984  286.61 0855.38
2009/04/23 08:04:17.3     -14    -55     60     57     82 195.1  51.2  33984  286.59 0855.38
2009/04/23 08:04:17.4     -23    -49     77     55     94 205.4  61.1  33982  286.57 0855.38
2009/04/23 08:04:17.5      -8    -22     51     24     56 200.0  73.1  33986  286.64 0855.38
2009/04/23 08:04:17.6     -14    -29     32     33     45 205.4  50.0  33986  286.62 0855.38
2009/04/23 08:04:17.7     -11    -16     21     20     29 216.1  48.2  33986  286.62 0855.38
2009/04/23 08:04:17.8     -47    -24     -2     53     54 242.9  -2.2  33986  286.64 0855.38
2009/04/23 08:04:17.9     -56    -20    -20     60     63 250.0 -23.6  33986  286.62 0855.38
2009/04/23 08:04:18.0     -69     -5    -12     70     72 265.7 -10.3  33986  286.64 0855.38
2009/04/23 08:04:18.1    -105     31    -22    110    113 286.4 -11.3  33986  286.62 0855.38
2009/04/23 08:04:18.2    -109     39    -29    117    121 290.0 -13.9  33984  286.61 0855.38
2009/04/23 08:04:18.3     -96     32    -28    102    106 288.6 -15.5  33986  286.62 0855.38
2009/04/23 08:04:18.4     -85     54     12    101    102 302.4   7.1  33984  286.59 0855.38
2009/04/23 08:04:18.5     -68     76     11    103    104 318.1   6.5  33982  286.57 0855.38
2009/04/23 08:04:18.6     -96     57      5    112    113 300.7   2.9  33984  286.59 0855.38
2009/04/23 08:04:18.7     -61     63      8     89     90 315.9   5.4  33982  286.56 0855.38
2009/04/23 08:04:18.8     -45     62     13     77     79 323.9  10.1  33984  286.59 0855.38
2009/04/23 08:04:18.9     -45     45     15     65     67 315.0  13.2  33982  286.57 0855.38
2009/04/23 08:04:19.0     -42     29    -13     52     54 305.1 -14.5  33984  286.59 0855.38
2009/04/23 08:04:19.1     -40     23    -20     47     51 300.7 -28.5  33984  286.59 0855.38
2009/04/23 08:04:19.2      -6     -6    -14      9     16 223.4 -69.1  33986  286.62 0855.38
2009/04/23 08:04:19.3     -12    -14    -26     19     32 219.6 -64.9  33982  286.56 0855.38
2009/04/23 08:04:19.4      -3    -30    -24     31     39 186.2 -48.1  33986  286.64 0855.38
2009/04/23 08:04:19.5      -9    -42    -16     44     46 192.5 -24.4  33984  286.61 0855.38
2009/04/23 08:04:19.6      -2    -48    -63     49     79 182.7 -62.3  33984  286.61 0855.38
2009/04/23 08:04:19.7     -18    -55    -51     59     77 198.7 -50.2  33986  286.62 0855.38
2009/04/23 08:04:19.8     -56    -19    -62     60     86 251.4 -54.5  33984  286.61 0855.38
2009/04/23 08:04:19.9     -24      9    -57     26     62 291.7 -78.4  33984  286.59 0855.38
2009/04/23 08:04:20.0     -26     29    -46     40     60 318.6 -58.7  33984  286.59 0855.38
2009/04/23 08:04:20.1       3     79     12     80     82   2.7   9.0  33984  286.59 0855.38
2009/04/23 08:04:20.2     -36     94      7    101    102 339.1   4.4  33984  286.59 0855.38
2009/04/23 08:04:20.3     -55     71     -3     90     91 322.2  -2.2  33982  286.56 0855.38
2009/04/23 08:04:20.4     -87     48    -40    100    107 298.9 -27.4  33984  286.59 0855.38
2009/04/23 08:04:20.5     -69     55    -72     89    114 308.6 -48.1  33982  286.57 0855.38
2009/04/23 08:04:20.6     -67     37    -53     77     93 298.9 -42.0  33984  286.61 0855.37
2009/04/23 08:04:20.7     -29     43    -49     53     72 325.7 -52.3  33984  286.61 0855.37
2009/04/23 08:04:20.8     -14     52    -21     54     57 344.9 -25.4  33984  286.61 0855.37
2009/04/23 08:04:20.9      40     40     19     57     61  45.1  18.9  33984  286.59 0855.37
2009/04/23 08:04:21.0       2     27     41     28     49   4.5  62.6  33984  286.59 0855.37
2009/04/23 08:04:21.1      -3     41     41     42     58 355.6  52.0  33982  286.57 0855.37
2009/04/23 08:04:21.2       6     51     41     52     66   7.1  42.7  33984  286.61 0855.37
2009/04/23 08:04:21.3      16     46      1     49     50  19.2   1.8  33984  286.59 0855.37
2009/04/23 08:04:21.4      29     85     -1     91     92  19.2  -0.7  33984  286.61 0855.37
2009/04/23 08:04:21.5      45     77      6     90     91  30.7   4.4  33984  286.59 0855.37
2009/04/23 08:04:21.6       6    132      6    133    134   2.7   2.8  33984  286.61 0855.37
2009/04/23 08:04:21.7       4    170     28    171    174   1.4   9.5  33982  286.56 0855.37
2009/04/23 08:04:21.8      20    209      7    211    212   5.6   2.1  33982  286.57 0855.37
2009/04/23 08:04:21.9      13    205    -18    206    207   3.6  -5.1  33982  286.56 0855.37
2009/04/23 08:04:22.0    -123    129    -50    179    185 316.6 -20.2  33982  286.56 0855.37
2009/04/23 08:04:22.1    -110    185    -56    216    224 329.2 -14.5  33982  286.56 0855.37
2009/04/23 08:04:22.2     -38    126    -40    132    137 343.0 -21.7  33982  286.56 0855.37
2009/04/23 08:04:22.3      39    112    -12    119    120  19.6  -6.2  33980  286.54 0855.37
2009/04/23 08:04:22.4      27    113     60    117    131  13.4  29.2  33978  286.49 0855.37
2009/04/23 08:04:22.5      61    141    101    154    184  23.6  36.0  33980  286.52 0855.37
2009/04/23 08:04:22.6      68     63    100     93    136  47.3  52.2  33984  286.61 0855.36
2009/04/23 08:04:22.7      76     19     91     79    120  75.8  54.3  33982  286.56 0855.36
2009/04/23 08:04:22.8      -3     21     78     22     81 352.0  83.9  33982  286.57 0855.36
2009/04/23 08:04:22.9     -32     67     45     75     87 334.5  34.4  33984  286.61 0855.36
2009/04/23 08:04:23.0     -33     29     65     45     79 311.3  62.1  33982  286.57 0855.36
2009/04/23 08:04:23.1     -72     19     65     75     99 285.1  45.4  33984  286.59 0855.36
2009/04/23 08:04:23.2     -39     78     40     88     96 333.3  26.2  33980  286.54 0855.36
2009/04/23 08:04:23.3     -28     70     40     76     85 338.2  30.3  33982  286.57 0855.36
2009/04/23 08:04:23.4     -50     63     39     81     89 321.7  27.3  33986  286.62 0855.36
2009/04/23 08:04:23.5     -46     49     26     68     72 316.8  22.0  33984  286.61 0855.36
2009/04/23 08:04:23.6     -13     10     43     17     46 309.5  78.2  33984  286.61 0855.36
2009/04/23 08:04:23.7     -18    -11      0     22     23 239.3  -2.2  33986  286.64 0855.36
2009/04/23 08:04:23.8     -41     -3      2     42     43 265.6   2.9  33984  286.61 0855.36
2009/04/23 08:04:23.9     -32    -10     -1     34     35 251.6  -2.2  33984  286.61 0855.36
2009/04/23 08:04:24.0     -13    -12      6     19     21 226.9  19.2  33986  286.62 0855.36
2009/04/23 08:04:24.1      -9    -18     -5     21     22 205.4 -15.5  33984  286.61 0855.36
2009/04/23 08:04:24.2       8    -29      0     31     32 164.9  -1.3  33984  286.59 0855.36
2009/04/23 08:04:24.3       6    -63      7     64     65 173.8   6.9  33986  286.64 0855.36
2009/04/23 08:04:24.4     -27   -101     17    105    107 195.1   9.5  33986  286.64 0855.36
2009/04/23 08:04:24.5     -39    -94      5    102    103 202.7   2.8  33986  286.62 0855.36
2009/04/23 08:04:24.6     -63    -95    -23    115    118 213.8 -11.3  33984  286.59 0855.36
2009/04/23 08:04:24.7     -77    -77    -22    110    113 225.0 -11.3  33986  286.64 0855.36
2009/04/23 08:04:24.8     -81    -77     -4    113    114 226.4  -2.2  33986  286.64 0855.36
2009/04/23 08:04:24.9     -66    -79     20    104    106 220.1  11.0  33986  286.62 0855.36
2009/04/23 08:04:25.0     -70    -48     18     86     89 235.4  12.2  33986  286.62 0855.36
2009/04/23 08:04:25.1    -101    -51     20    114    116 242.9  10.1  33986  286.62 0855.36
2009/04/23 08:04:25.2     -71    -83     26    110    114 220.5  13.2  33986  286.62 0855.36
2009/04/23 08:04:25.3     -62    -75     16     98    100 219.6   9.5  33988  286.66 0855.36
2009/04/23 08:04:25.4     -34    -74     21     82     85 204.5  14.7  33988  286.67 0855.36
2009/04/23 08:04:25.5     -19    -80     24     83     87 193.4  16.3  33990  286.69 0855.36
2009/04/23 08:04:25.6       5    -74     11     75     76 175.5   9.0  33988  286.66 0855.36
2009/04/23 08:04:25.7     -36   -123     45    129    137 196.5  19.4  33986  286.64 0855.36
2009/04/23 08:04:25.8     -22   -150     40    152    158 188.5  15.0  33988  286.66 0855.36
2009/04/23 08:04:25.9       1   -145     55    146    156 179.5  21.0  33990  286.71 0855.36
2009/04/23 08:04:26.0      13   -125     47    126    134 173.8  20.9  33986  286.64 0855.36
2009/04/23 08:04:26.1      45   -120      6    129    130 159.5   2.9  33986  286.62 0855.36
2009/04/23 08:04:26.2      22    -94     -2     97     98 166.6  -1.3  33986  286.64 0855.36
2009/04/23 08:04:26.3       6    -76     -8     77     78 175.5  -6.2  33988  286.66 0855.36
2009/04/23 08:04:26.4      -7    -51    -14     52     53 188.0 -20.7  33988  286.66 0855.36
2009/04/23 08:04:26.5     -15    -46     -1     49     50 198.7  -2.2  33990  286.71 0855.36
2009/04/23 08:04:26.6     -30    -45      0     55     56 214.3   0.8  33986  286.64 0855.36
2009/04/23 08:04:26.7     -30    -45      0     55     56 214.3   0.8  33986  286.64 0855.36
2009/04/23 08:04:26.8     -23    -49     14     55     57 205.3  14.3  33990  286.69 0855.36
2009/04/23 08:04:26.9     -10    -67     29     68     73 188.9  23.1  33990  286.69 0855.36
2009/04/23 08:04:27.0      -5    -68     12     69     71 184.5  10.1  33986  286.64 0855.36
2009/04/23 08:04:27.1      -6    -40    -14     41     43 188.9 -23.6  33988  286.66 0855.36
2009/04/23 08:04:27.2     -24    -35     16     43     45 214.3  20.0  33990  286.69 0855.36
2009/04/23 08:04:27.3     -49    -10     46     51     68 258.5  47.9  33988  286.67 0855.36
2009/04/23 08:04:27.4     -69    -15     47     71     85 257.6  36.5  33986  286.64 0855.36
2009/04/23 08:04:27.5     -62    -33     42     71     82 242.0  33.5  33986  286.64 0855.36
2009/04/23 08:04:27.6     -39    -47     52     62     80 219.7  44.8  33990  286.71 0855.36
2009/04/23 08:04:27.7     -38    -46     58     60     83 219.6  50.0  33988  286.66 0855.36
2009/04/23 08:04:27.8     -31    -32     62     45     76 224.2  60.5  33990  286.69 0855.36
2009/04/23 08:04:27.9     -33    -29     58     45     73 228.7  57.5  33988  286.67 0855.36
2009/04/23 08:04:28.0     -45    -25     53     52     74 240.2  49.1  33988  286.67 0855.36
2009/04/23 08:04:28.1     -81     15     52     83     97 280.6  35.5  33986  286.64 0855.36
2009/04/23 08:04:28.2    -117     35     54    123    134 286.8  25.1  33984  286.59 0855.36
2009/04/23 08:04:28.3    -110      0     64    111    128 269.6  32.9  33986  286.62 0855.36
2009/04/23 08:04:28.4     -93     31     51     99    111 288.6  29.3  33982  286.56 0855.36
2009/04/23 08:04:28.5    -104     41     74    113    135 291.7  35.6  33982  286.56 0855.36
2009/04/23 08:04:28.6    -144    -48     44    153    160 251.4  16.0  33986  286.62 0855.36
2009/04/23 08:04:28.7    -144    -12     11    145    146 265.2   4.4  33986  286.64 0855.36
2009/04/23 08:04:28.8    -170      0    -16    171    172 270.0  -5.6  33984  286.61 0855.36
2009/04/23 08:04:28.9    -164     14      0    165    166 275.2   0.2  33982  286.57 0855.36
2009/04/23 08:04:29.0    -123    -15    -11    124    125 263.0  -5.2  33986  286.64 0855.36
2009/04/23 08:04:29.1    -127     45     10    135    136 289.5   4.4  33982  286.56 0855.36
2009/04/23 08:04:29.2    -109     55     48    123    132 296.6  22.0  33986  286.64 0855.36
2009/04/23 08:04:29.3     -72     59     45     94    104 309.5  27.3  33984  286.61 0855.36
2009/04/23 08:04:29.4     -84     58     44    103    112 304.6  24.1  33986  286.62 0855.36
2009/04/23 08:04:29.5     -81     84     57    117    130 315.9  27.3  33980  286.52 0855.36
2009/04/23 08:04:29.6     -76    130     51    151    160 329.7  18.9  33982  286.57 0855.36
2009/04/23 08:04:29.7     -85    124     25    151    154 325.3   9.5  33986  286.64 0855.36
2009/04/23 08:04:29.8     -71    108     25    130    133 326.6  11.1  33984  286.59 0855.36
2009/04/23 08:04:29.9     -51    119     51    130    139 336.8  22.5  33984  286.59 0855.36
2009/04/23 08:04:30.0     -72    110     45    132    140 326.6  18.9  33984  286.59 0855.36
2009/04/23 08:04:30.1     -91     98     66    134    149 317.2  27.8  33986  286.62 0855.36
2009/04/23 08:04:30.2     -73    120     40    141    147 328.8  15.8  33984  286.61 0855.36
2009/04/23 08:04:30.3     -71     98     34    122    127 324.0  15.8  33982  286.57 0855.36
2009/04/23 08:04:30.4     -74    116     18    138    140 327.5   7.5  33982  286.56 0855.36
2009/04/23 08:04:30.5     -51    116    -40    127    134 336.3 -17.6  33984  286.61 0855.36
2009/04/23 08:04:30.6     -23    104      5    107    108 347.1   2.9  33982  286.57 0855.36
2009/04/23 08:04:30.7      10    104     32    105    110   5.8  17.3  33984  286.61 0855.36
2009/04/23 08:04:30.8      41    104     18    113    115  21.8   9.5  33984  286.59 0855.36
2009/04/23 08:04:30.9      70     98     48    121    130  35.6  22.5  33984  286.61 0855.36
2009/04/23 08:04:31.0      76    119     64    142    155  32.6  26.2  33986  286.62 0855.36
2009/04/23 08:04:31.1     112     95     52    148    156  49.6  20.2  33988  286.66 0855.36
2009/04/23 08:04:31.2     142     90     30    169    172  57.6  10.1  33986  286.62 0855.36
2009/04/23 08:04:31.3     131     73     27    151    154  60.7  10.1  33986  286.62 0855.36
2009/04/23 08:04:31.4     109     64     33    127    132  59.4  14.7  33984  286.61 0855.36
2009/04/23 08:04:31.5     103     82     39    132    138  51.4  16.8  33984  286.61 0855.36
2009/04/23 08:04:31.6      92     79     41    122    129  49.1  18.9  33986  286.62 0855.35
2009/04/23 08:04:31.7      86     80     50    118    128  47.3  24.6  33986  286.64 0855.35
2009/04/23 08:04:31.8      76     74     54    107    119  46.0  29.2  33982  286.57 0855.35
2009/04/23 08:04:31.9      67     67     44     95    104  45.0  26.6  33984  286.61 0855.35
2009/04/23 08:04:32.0      77     51     38     93    100  56.7  23.1  33984  286.61 0855.35
2009/04/23 08:04:32.1      78     32     56     85    101  67.8  36.5  33984  286.61 0855.35
2009/04/23 08:04:32.2     102     33     73    108    130  71.8  37.4  33984  286.59 0855.35
2009/04/23 08:04:32.3      95     54     86    110    139  60.2  41.7  33984  286.59 0855.35
2009/04/23 08:04:32.5      85     86     76    122    143  44.7  35.5  33984  286.61 0855.35
2009/04/23 08:04:32.5      86     87    105    123    161  44.9  45.1  33982  286.57 0855.35
2009/04/23 08:04:32.6     130    114     79    174    191  48.7  26.2  33984  286.61 0855.35
2009/04/23 08:04:32.7      85    125     49    152    160  34.3  17.9  33986  286.62 0855.35
2009/04/23 08:04:32.8      70     54     72     89    114  52.2  43.7  33982  286.57 0855.35
2009/04/23 08:04:32.9      72     68     49    100    111  46.4  27.3  33984  286.61 0855.35
2009/04/23 08:04:33.0      48     30     28     57     63  57.6  27.3  33986  286.62 0855.35
2009/04/23 08:04:33.1      27     29     39     40     55  43.2  51.1  33988  286.66 0855.35
2009/04/23 08:04:33.2      58     15     -3     61     62  74.9  -3.2  33986  286.64 0855.35
2009/04/23 08:04:33.3      46     42     -2     63     64  47.8  -2.2  33988  286.67 0855.35
2009/04/23 08:04:33.4      51     34     31     62     69  55.8  27.3  33984  286.61 0855.35
2009/04/23 08:04:33.5      36     31     48     48     67  48.7  50.1  33988  286.67 0855.35
2009/04/23 08:04:33.6      31     31     64     44     77  45.0  62.6  33986  286.64 0855.35
2009/04/23 08:04:33.7      47     18     40     51     64  68.3  41.7  33988  286.66 0855.35
2009/04/23 08:04:33.8      51     36     32     63     70  54.9  28.2  33986  286.64 0855.35
2009/04/23 08:04:33.9      48     31     29     58     64  57.6  28.2  33986  286.64 0855.35
2009/04/23 08:04:34.0      11     47     34     49     59  13.4  38.6  33986  286.62 0855.35
2009/04/23 08:04:34.1       7     38     55     39     67  11.6  60.6  33986  286.64 0855.35
2009/04/23 08:04:34.2      10     71     56     72     91   8.0  42.2  33986  286.64 0855.35
2009/04/23 08:04:34.3       0     77     47     78     91   0.0  34.0  33986  286.62 0855.35
2009/04/23 08:04:34.4       5     77     52     78     93   4.4  36.5  33984  286.61 0855.35
2009/04/23 08:04:34.5       1    103     70    104    125   0.9  37.4  33982  286.56 0855.35
2009/04/23 08:04:34.6      -8    112     82    113    139 355.5  39.7  33984  286.59 0855.35
2009/04/23 08:04:34.7       5     64     81     65    103   4.5  56.9  33984  286.61 0855.35
2009/04/23 08:04:34.8      24      8     85     26     88  71.6  82.3  33986  286.64 0855.35
2009/04/23 08:04:34.9      21     33     98     40    105  32.5  77.0  33980  286.54 0855.35
2009/04/23 08:04:35.0      23     82     92     86    125  15.6  52.1  33980  286.52 0855.35
2009/04/23 08:04:35.1      14    120    109    121    162   6.7  46.9  33980  286.52 0855.35
2009/04/23 08:04:35.2      33    144    110    148    184  12.9  40.1  33976  286.46 0855.35
2009/04/23 08:04:35.3      33    135    116    140    181  13.8  43.8  33974  286.44 0855.35
2009/04/23 08:04:35.4      69    122    124    141    187  29.4  45.8  33974  286.44 0855.35
2009/04/23 08:04:35.5      99    105    121    145    188  43.2  43.8  33974  286.42 0855.35
2009/04/23 08:04:35.6      55     97     99    112    149  29.9  45.8  33974  286.44 0855.35
2009/04/23 08:04:35.7      60     63     82     88    120  43.7  47.9  33972  286.39 0855.35
2009/04/23 08:04:35.8      11     97     92     98    134   6.7  48.5  33972  286.41 0855.35
2009/04/23 08:04:35.9       5     71    100     72    123   4.5  60.6  33972  286.39 0855.35
2009/04/23 08:04:36.0      29     64    103     71    125  24.5  62.6  33978  286.51 0855.35
2009/04/23 08:04:36.1      32    156    142    160    213  11.6  46.2  33982  286.57 0855.35
2009/04/23 08:04:36.3      43    136    146    143    204  17.8  50.2  33988  286.67 0855.35
2009/04/23 08:04:36.3      23    113    148    116    188  11.6  57.9  33988  286.66 0855.35
2009/04/23 08:04:36.4      60    118    125    133    182  27.1  48.2  33984  286.59 0855.35
2009/04/23 08:04:36.5     120    153     94    195    216  38.3  27.3  33982  286.56 0855.35
2009/04/23 08:04:36.6     175    136    155    222    270  52.2  38.4  33984  286.58 0855.35
2009/04/23 08:04:36.7      25     95    127     99    161  15.1  58.2  33984  286.59 0855.35
2009/04/23 08:04:36.8      79    165    137    183    228  25.6  40.7  33984  286.61 0855.35
2009/04/23 08:04:36.9     106    178    101    208    231  30.7  27.3  33982  286.56 0855.35
2009/04/23 08:04:37.0     281    248    123    375    395  48.6  18.2  33992  286.73 0855.35
2009/04/23 08:04:37.1     274    221    127    353    376  51.1  19.9  33992  286.73 0855.35
2009/04/23 08:04:37.2     350    258    154    435    461  53.6  20.2  33988  286.65 0855.35
2009/04/23 08:04:37.3     337    229    143    408    432  55.8  20.1  33992  286.72 0855.35
2009/04/23 08:04:37.5     163    216    277    271    387  37.0  50.6  33984  286.59 0855.35
2009/04/23 08:04:37.6     179    284    136    336    362  32.3  23.2  33984  286.59 0855.35
2009/04/23 08:04:37.7     160    313     99    352    366  27.1  15.8  33986  286.63 0855.35
2009/04/23 08:04:37.8     200    227    181    303    352  41.5  33.5  33990  286.68 0855.35
2009/04/23 08:04:37.9     200    199    111    283    303  45.2  22.8  33986  286.63 0855.35
2009/04/23 08:04:38.0     192    231    127    301    326  39.6  24.3  33990  286.68 0855.35
2009/04/23 08:04:38.1     234    257     74    348    356  42.3  12.1  33986  286.63 0855.35
2009/04/23 08:04:38.2     247    280     31    374    376  41.4   4.9  33980  286.54 0855.35
2009/04/23 08:04:38.4     188    242     84    307    319  37.8  15.3  33982  286.55 0855.35
2009/04/23 08:04:38.5     255    185     59    316    322  54.0  10.7  33986  286.62 0855.35
2009/04/23 08:04:38.5     214    188     14    286    287  48.7   2.9  33986  286.63 0855.35
2009/04/23 08:04:38.6     186    222    -20    290    291  39.9  -4.1  33986  286.63 0855.35
2009/04/23 08:04:38.7     228    173      8    287    288  52.9   1.7  33982  286.57 0855.35
2009/04/23 08:04:38.8     250    193    -61    316    322  52.3 -11.0  33986  286.63 0855.35
2009/04/23 08:04:38.9     297    196    -85    357    368  56.5 -13.4  33990  286.69 0855.35
2009/04/23 08:04:39.0     377    181    -27    419    420  64.3  -3.7  33984  286.60 0855.35
2009/04/23 08:04:39.1     332    195    -86    386    396  59.5 -12.6  33988  286.66 0855.35
2009/04/23 08:04:39.2     333    204    -50    391    395  58.5  -7.3  33990  286.68 0855.35
2009/04/23 08:04:39.3     300    210    -25    367    368  55.0  -3.9  33986  286.64 0855.35
2009/04/23 08:04:39.4     273    205    -35    342    344  53.0  -5.9  33984  286.59 0855.35
2009/04/23 08:04:39.6     202    203    -79    287    298  44.8 -15.5  33986  286.62 0855.35
2009/04/23 08:04:39.7     193    172    -76    259    270  48.2 -16.4  33986  286.62 0855.35
2009/04/23 08:04:39.7     231    159    -84    281    294  55.4 -16.6  33990  286.68 0855.35
2009/04/23 08:04:39.8     233    163    -36    285    288  54.9  -7.2  33990  286.70 0855.35
2009/04/23 08:04:39.9     290    168    -35    336    338  60.0  -6.1  33994  286.75 0855.35
2009/04/23 08:04:40.0     306    153     67    343    350  63.4  11.1  33984  286.61 0855.35
2009/04/23 08:04:40.1     267    188     83    327    338  54.8  14.3  33990  286.71 0855.35
2009/04/23 08:04:40.2     271    133     99    303    319  63.8  18.2  33986  286.63 0855.35
2009/04/23 08:04:40.3     224    197     27    299    301  48.7   5.2  33988  286.67 0855.35
2009/04/23 08:04:40.4     191    168    -47    255    260  48.6 -10.5  33990  286.68 0855.35
2009/04/23 08:04:40.5     301    176     35    349    351  59.6   5.8  33996  286.81 0855.35
2009/04/23 08:04:40.6     265    194     49    329    333  53.7   8.5  33994  286.76 0855.35
2009/04/23 08:04:40.7     311    201     43    371    374  57.1   6.7  33994  286.75 0855.35
2009/04/23 08:04:40.8     277    168     21    325    326  58.7   3.8  33996  286.79 0855.35
2009/04/23 08:04:40.9     138    141     78    198    212  44.3  22.5  33990  286.69 0855.35
2009/04/23 08:04:41.0     160    118     74    199    212  53.6  21.0  33992  286.74 0855.35
2009/04/23 08:04:41.1     245     59     74    253    264  76.3  16.3  33992  286.72 0855.35
2009/04/23 08:04:41.2     281    122    172    307    351  66.4  31.6  33994  286.75 0855.35
2009/04/23 08:04:41.3     234    149    166    278    323  57.5  33.6  33994  286.75 0855.35
2009/04/23 08:04:41.4     227    187    187    295    349  50.5  35.5  33994  286.78 0855.35
2009/04/23 08:04:41.5     256    129    111    287    307  63.1  22.3  33992  286.74 0855.35
2009/04/23 08:04:41.6     281    112    133    303    330  68.2  25.1  33988  286.67 0855.36
2009/04/23 08:04:41.7     219    127    121    254    281  59.8  27.2  33984  286.58 0855.36
2009/04/23 08:04:41.8     221     84     51    237    243  69.2  12.2  33988  286.65 0855.36
2009/04/23 08:04:41.9     210    111     70    238    249  62.0  16.4  33990  286.70 0855.36
2009/04/23 08:04:42.0     181    115     81    215    229  57.6  21.5  33990  286.69 0855.36
2009/04/23 08:04:42.1     213    118     71    244    255  60.9  16.3  33994  286.77 0855.36
2009/04/23 08:04:42.2     159     95     82    186    203  59.3  25.1  33994  286.78 0855.36
2009/04/23 08:04:42.3     160     73    131    177    220  65.4  40.1  33990  286.71 0855.36
2009/04/23 08:04:42.4     202     78    135    217    255  68.9  35.0  33992  286.74 0855.36
2009/04/23 08:04:42.5     275     23    161    277    320  85.0  32.9  33984  286.58 0855.36
2009/04/23 08:04:42.6     270    -46    108    274    294  99.7  23.0  33982  286.57 0855.36
2009/04/23 08:04:42.8     197   -101     62    222    231 117.1  15.8  33982  286.57 0855.36
2009/04/23 08:04:42.9     158    -12     58    159    169  94.4  20.7  33984  286.59 0855.36
2009/04/23 08:04:43.0     238   -110    138    263    297 114.8  30.1  33988  286.65 0855.36
2009/04/23 08:04:43.1     257   -102    180    277    330 111.8  35.9  33988  286.65 0855.36
2009/04/23 08:04:43.2     246    -79    187    259    319 107.8  39.5  33986  286.63 0855.36
2009/04/23 08:04:43.3     221    -66    162    231    282 106.8  38.5  33988  286.65 0855.36
2009/04/23 08:04:43.4     201    -29    174    204    268  98.4  44.8  33990  286.68 0855.36
2009/04/23 08:04:43.5     182    -34    205    186    276 100.8  53.3  33990  286.68 0855.36
2009/04/23 08:04:43.6     158    -83    154    179    236 117.8  45.1  33986  286.64 0855.36
2009/04/23 08:04:43.7     152    -57    151    163    222 110.8  47.9  33986  286.64 0855.37
2009/04/23 08:04:43.8     185    -47    169    192    255 104.4  45.8  33986  286.63 0855.37
2009/04/23 08:04:43.9     210    -74    189    223    292 109.5  44.5  33988  286.67 0855.37
2009/04/23 08:04:44.0     165    -61    187    177    257 110.4  52.0  33988  286.67 0855.37
2009/04/23 08:04:44.1      69    -37    161     79    179 118.0  72.1  33986  286.64 0855.37
2009/04/23 08:04:44.2     139    -19    155    141    209  97.9  53.0  33984  286.61 0855.37
2009/04/23 08:04:44.3     127    -21    163    129    207  99.6  57.7  33982  286.56 0855.37
2009/04/23 08:04:44.4     163    -26    150    166    223  99.2  47.1  33982  286.57 0855.37
2009/04/23 08:04:44.5     157    -38    159    162    226 103.9  49.8  33986  286.62 0855.37
2009/04/23 08:04:44.6     144    -24    157    147    215  99.7  52.2  33982  286.57 0855.37
2009/04/23 08:04:44.7     132     24    148    135    200  79.4  53.0  33980  286.52 0855.37
2009/04/23 08:04:44.8     111     86    121    141    185  52.2  44.8  33982  286.57 0855.37
2009/04/23 08:04:44.9      73    178     71    193    205  22.5  20.9  33986  286.62 0855.37
2009/04/23 08:04:45.0      88    122    125    151    196  36.0  43.8  33988  286.66 0855.37
2009/04/23 08:04:45.1      78     29    130     84    154  69.6  64.6  33982  286.56 0855.37
2009/04/23 08:04:45.2      51      8    138     52    147  80.3  78.6  33982  286.56 0855.37
2009/04/23 08:04:45.3      38    125     83    131    155  17.0  35.5  33984  286.61 0855.37
2009/04/23 08:04:45.4      -7    157     93    158    183 357.4  33.5  33986  286.62 0855.37
2009/04/23 08:04:45.5      25     98    117    102    155  14.3  54.3  33978  286.49 0855.37
2009/04/23 08:04:45.6     102    160     51    191    198  32.6  15.0  33986  286.62 0855.37
2009/04/23 08:04:45.7      65    118     -4    135    136  28.9  -1.8  33986  286.62 0855.39
2009/04/23 08:04:45.8     177     56     44    186    192  72.3  13.5  33988  286.67 0855.39
2009/04/23 08:04:45.9     184     76     78    200    214  67.6  22.5  33984  286.61 0855.39
2009/04/23 08:04:46.0     142     61    104    155    186  66.5  36.7  33986  286.64 0855.39
2009/04/23 08:04:46.1     167     95      2    193    194  60.2   0.8  33986  286.62 0855.39
2009/04/23 08:04:46.2       5    275     96    276    293   1.1  19.2  33986  286.62 0855.39
2009/04/23 08:04:46.3      26    266     46    268    273   5.6   9.9  33988  286.65 0855.39
2009/04/23 08:04:46.4     145    264     45    302    306  28.7   8.5  33982  286.55 0855.39
2009/04/23 08:04:46.5     117    237     31    265    267  26.3   6.9  33984  286.60 0855.39
2009/04/23 08:04:46.6     141    182     81    231    244  37.8  20.0  33984  286.60 0855.39
2009/04/23 08:04:46.7     123    153     83    197    213  38.7  24.1  33976  286.47 0855.39
2009/04/23 08:04:46.8      69    165    103    179    206  22.7  32.7  33984  286.59 0855.39
2009/04/23 08:04:46.9     105    164    124    195    231  32.6  35.5  33984  286.61 0855.39
2009/04/23 08:04:47.0     167    177    132    244    277  43.3  30.8  33982  286.55 0855.39
2009/04/23 08:04:47.1     172    168    148    241    282  45.8  34.5  33980  286.53 0855.39
2009/04/23 08:04:47.2     167    177    106    244    266  43.3  25.1  33980  286.53 0855.39
2009/04/23 08:04:47.3     117    197    146    230    272  30.8  35.5  33982  286.57 0855.39
2009/04/23 08:04:47.4     209    173    150    272    310  50.5  31.4  33976  286.45 0855.39
2009/04/23 08:04:47.5     223    289    129    366    389  37.7  19.4  33982  286.56 0855.39
2009/04/23 08:04:47.6     326    236     42    403    406  54.1   6.0  33982  286.55 0855.39
2009/04/23 08:04:47.7     233    243     89    337    349  43.8  14.9  33980  286.54 0855.39
2009/04/23 08:04:47.8     107    248     65    271    279  23.4  13.5  33984  286.58 0855.39
2009/04/23 08:04:47.9      69    234     29    245    247  16.5   6.9  33984  286.58 0855.39
2009/04/23 08:04:48.0      75    227    -21    240    241  18.3  -5.2  33986  286.62 0855.39
2009/04/23 08:04:48.1     157    173     41    234    238  42.3  10.1  33978  286.48 0855.39
2009/04/23 08:04:48.2     211    161     -1    266    267  52.7  -0.3  33976  286.47 0855.39
2009/04/23 08:04:48.3     253    141      2    290    291  60.9   0.5  33978  286.48 0855.39
2009/04/23 08:04:48.4     290    121     57    315    321  67.4  10.3  33978  286.48 0855.39
2009/04/23 08:04:48.5     251     49     13    256    257  78.8   2.9  33976  286.47 0855.39
2009/04/23 08:04:48.6     188    125    -20    226    227  56.3  -5.2  33976  286.47 0855.39
2009/04/23 08:04:48.7     248    113    -12    273    274  65.4  -2.6  33980  286.52 0855.41
2009/04/23 08:04:48.8     198    108     58    226    234  61.2  14.5  33982  286.56 0855.41
2009/04/23 08:04:48.9     236    102     73    258    269  66.5  15.8  33976  286.45 0855.41
2009/04/23 08:04:49.0     329     77     18    338    339  76.7   3.1  33984  286.58 0855.41
2009/04/23 08:04:49.1     272     46    -25    276    278  80.4  -5.2  33982  286.55 0855.41
2009/04/23 08:04:49.2     265     71     25    275    277  74.9   5.2  33980  286.53 0855.41
2009/04/23 08:04:49.3     236    102     88    258    273  66.5  18.9  33982  286.55 0855.41
2009/04/23 08:04:49.4     168    136     68    217    228  51.1  17.4  33980  286.54 0855.41
2009/04/23 08:04:49.5     158    130    115    205    235  50.5  31.6  33982  286.57 0855.41
2009/04/23 08:04:49.6     158    105    113    190    221  56.3  33.5  33982  286.57 0855.41
2009/04/23 08:04:49.7     105     62     83    123    148  59.3  37.4  33986  286.62 0855.41
2009/04/23 08:04:49.8       0    105     70    106    127 359.5  36.5  33982  286.57 0855.41
2009/04/23 08:04:49.9     103     13     93    104    139  82.5  46.9  33984  286.59 0855.41
2009/04/23 08:04:50.0     109     90    109    142    179  50.4  41.4  33984  286.61 0855.41
2009/04/23 08:04:50.1      35    132     92    137    165  15.1  37.0  33984  286.59 0855.41
2009/04/23 08:04:50.2       1    111    117    112    161   1.0  51.2  33984  286.59 0855.41
2009/04/23 08:04:50.3      30     49    110     58    124  31.6  69.8  33982  286.57 0855.41
2009/04/23 08:04:50.4     -36     -7     84     37     91 258.5  75.0  33982  286.56 0855.41
2009/04/23 08:04:50.5     -86      1     70     87    111 270.8  43.7  33984  286.61 0855.41
2009/04/23 08:04:50.6     -80    -32     71     87    112 248.3  43.7  33982  286.57 0855.41
2009/04/23 08:04:50.7       4      5     81      7     81  43.4  90.0  33982  286.57 0855.41
2009/04/23 08:04:50.8      68     15    106     70    127  77.6  63.6  33982  286.56 0855.41
2009/04/23 08:04:50.9     126     64    163    142    216  62.9  54.3  33982  286.56 0855.41
2009/04/23 08:04:51.0      97     -8    155     98    183  95.2  64.7  33982  286.57 0855.41
2009/04/23 08:04:51.1     154     -3    156    155    219  91.3  50.1  33986  286.62 0855.41
2009/04/23 08:04:51.2     134     16    148    135    200  83.0  53.0  33984  286.61 0855.41
2009/04/23 08:04:51.3     105     60    130    121    177  60.2  52.2  33982  286.57 0855.41
2009/04/23 08:04:51.4      95     31    120    101    156  71.6  55.6  33982  286.56 0855.41
2009/04/23 08:04:51.5     111    110    125    157    200  45.1  42.7  33978  286.49 0855.41
2009/04/23 08:04:51.6      75    156    167    174    241  25.6  49.0  33974  286.42 0855.41
2009/04/23 08:04:51.7     117    152    143    193    240  37.6  40.4  33974  286.44 0855.41
2009/04/23 08:04:51.8       0     63    161     64    173 359.1  77.6  33980  286.52 0855.41
2009/04/23 08:04:51.9       6     61    125     62    139   6.2  71.9  33978  286.51 0855.41
2009/04/23 08:04:52.0      41     26    128     49    137  57.6  78.6  33972  286.41 0855.41
2009/04/23 08:04:52.1      44     82     82     94    124  28.1  45.8  33980  286.52 0855.41
2009/04/23 08:04:52.2       8     73    101     74    125   6.2  60.5  33980  286.52 0855.41
2009/04/23 08:04:52.3      13   -237     89    108    139 360.0  43.7  33982  286.55 0855.41
2009/04/23 08:04:52.4      69     83     64    109    126  39.7  33.5  33978  286.51 0855.41
2009/04/23 08:04:52.5     131    146     70    197    210  41.9  19.6  33982  286.56 0855.41
2009/04/23 08:04:52.6     154    169     92    229    246  42.3  23.0  33978  286.50 0855.41
2009/04/23 08:04:52.7     179    132     92    223    241  53.6  23.6  33978  286.50 0855.41
2009/04/23 08:04:52.8     198    159     66    255    264  51.3  14.7  33978  286.50 0855.41
2009/04/23 08:04:52.9     227    161     46    279    283  54.5   9.5  33980  286.52 0855.41
2009/04/23 08:04:53.0     191    164     53    252    258  49.3  12.0  33980  286.53 0855.41
2009/04/23 08:04:53.1     280    236    174    367    406  49.9  27.2  33980  286.53 0855.41
2009/04/23 08:04:53.2     168    309    115    352    371  28.6  18.2  33990  286.71 0855.41
2009/04/23 08:04:53.3     127    294    116    321    341  23.4  20.6  33976  286.46 0855.41
2009/04/23 08:04:53.4     116    291    109    314    333  21.8  19.2  33972  286.38 0855.41
2009/04/23 08:04:53.5      88    253    146    268    305  19.2  31.3  33978  286.50 0855.41
2009/04/23 08:04:53.6     102    234    140    256    291  23.7  31.3  33992  286.72 0855.41
2009/04/23 08:04:53.7      98    226    173    247    301  23.6  38.5  33994  286.77 0855.41
2009/04/23 08:04:53.8      38    242    173    246    300   9.1  38.6  33998  286.84 0855.41
2009/04/23 08:04:53.9      82    247    206    261    332  18.5  42.3  33996  286.80 0855.41
2009/04/23 08:04:54.0     113    243    205    268    337  24.9  41.2  33996  286.79 0855.41
2009/04/23 08:04:54.1     120    280    186    305    357  23.2  34.2  33994  286.76 0855.41
2009/04/23 08:04:54.2     121    265    171    292    338  24.5  33.0  33994  286.75 0855.41
2009/04/23 08:04:54.3      83    222    222    238    325  20.5  47.8  33990  286.70 0855.41
2009/04/23 08:04:54.4      50    267    206    272    341  10.7  40.9  33996  286.79 0855.41
2009/04/23 08:04:54.5     -30    303    248    305    393 354.2  43.3  33990  286.68 0855.41
2009/04/23 08:04:54.6      37    310    225    313    385   6.9  39.5  33984  286.61 0855.41
2009/04/23 08:04:54.7      10    302    185    303    355   2.0  34.3  33992  286.73 0855.41
2009/04/23 08:04:54.8      85    234    216    250    330  20.1  45.4  33988  286.65 0855.41
2009/04/23 08:04:54.9     127    223    222    257    339  29.8  45.2  33992  286.72 0855.41
2009/04/23 08:04:55.0      85    195    137    213    253  23.6  35.6  33992  286.72 0855.41
2009/04/23 08:04:55.1      32    160     94    164    189  11.6  32.4  33986  286.64 0855.41
2009/04/23 08:04:55.2      77    132     99    153    182  30.3  35.7  33992  286.73 0855.41
2009/04/23 08:04:55.3      84    116    115    144    184  36.1  42.7  33988  286.66 0855.41
2009/04/23 08:04:55.4       3     21     92     22     94   9.8  86.9  33988  286.66 0855.41
2009/04/23 08:04:55.5      32     90    100     96    138  19.6  51.2  33992  286.73 0855.41
2009/04/23 08:04:55.6      14     94     90     96    131   8.5  48.0  33992  286.74 0855.41
2009/04/23 08:04:55.7      21     86     69     89    112  14.3  42.2  33992  286.74 0855.41
2009/04/23 08:04:55.8       7     92     35     93     99   4.9  21.5  33992  286.73 0855.41
2009/04/23 08:04:55.9     -21     81     66     84    106 344.9  42.7  33986  286.62 0855.41
2009/04/23 08:04:56.0      -8     89     72     90    115 354.7  43.7  33990  286.71 0855.41
2009/04/23 08:04:56.1      -7    115     81    116    141 356.4  38.6  33990  286.69 0855.41
2009/04/23 08:04:56.2      21    118     37    120    126  10.2  17.3  33988  286.66 0855.41
2009/04/23 08:04:56.3      61    119     51    134    143  27.2  21.5  33988  286.67 0855.41
2009/04/23 08:04:56.4      81    112     81    139    160  36.1  32.9  33988  286.66 0855.41
2009/04/23 08:04:56.5      53     86    101    102    143  31.6  50.0  33988  286.66 0855.41
2009/04/23 08:04:56.6      12     47     73     49     87  15.1  63.2  33986  286.64 0855.41
2009/04/23 08:04:56.7      67     57     17     89     91  49.6  11.0  33986  286.64 0855.41
2009/04/23 08:04:56.8     101    101     39    144    150  45.0  15.3  33984  286.61 0855.41
2009/04/23 08:04:56.9      81     47     24     94     98  59.8  14.7  33986  286.62 0855.41
2009/04/23 08:04:57.0     129     63     -7    144    145  63.8  -3.1  33984  286.61 0855.41
2009/04/23 08:04:57.1     162     80     46    181    187  63.6  14.3  33986  286.62 0855.41
2009/04/23 08:04:57.2     188     54    -40    196    201  73.8 -11.6  33984  286.61 0855.41
2009/04/23 08:04:57.3     178      0     29    179    182  90.0   9.3  33986  286.62 0855.41
2009/04/23 08:04:57.4     178    -14     13    179    180  94.6   4.4  33986  286.64 0855.41
2009/04/23 08:04:57.5     215     21     51    217    223  84.3  13.2  33986  286.64 0855.41
2009/04/23 08:04:57.6     211     11     78    212    225  87.0  21.0  33988  286.67 0855.41
2009/04/23 08:04:57.7     201     15     28    202    205  85.6   8.0  33986  286.62 0855.41
2009/04/23 08:04:57.8     208      9      2    209    210  87.4   0.8  33988  286.66 0855.41
2009/04/23 08:04:57.9     172     -9     60    173    184  93.3  19.2  33982  286.57 0855.41
2009/04/23 08:04:58.0     151    -45     71    158    173 106.9  25.7  33982  286.57 0855.41
2009/04/23 08:04:58.1     154     21    148    156    215  82.1  48.0  33988  286.66 0855.41
2009/04/23 08:04:58.2      53    -13    137     55    147 104.2  77.1  33984  286.59 0855.41
2009/04/23 08:04:58.3      12      4     80     13     81  71.8  90.0  33988  286.66 0855.41
2009/04/23 08:04:58.4      47     -5     70     48     84  97.0  62.6  33988  286.66 0855.41
2009/04/23 08:04:58.5     104     22     74    107    130  78.1  37.6  33988  286.66 0855.41
2009/04/23 08:04:58.6     110     41     63    118    133  69.6  30.3  33988  286.67 0855.41
2009/04/23 08:04:58.7     101     41     99    110    147  67.8  46.9  33990  286.71 0855.42
2009/04/23 08:04:58.8      92     33     77     99    125  70.0  41.7  33990  286.69 0855.42
2009/04/23 08:04:58.9      72      5     57     73     92  85.6  42.7  33992  286.73 0855.42
2009/04/23 08:04:59.0      51     10     64     53     83  78.6  55.8  33990  286.69 0855.42
2009/04/23 08:04:59.1      81     24     66     85    107  73.2  42.2  33990  286.71 0855.42
2009/04/23 08:04:59.2      82     31     67     88    110  69.2  41.2  33988  286.66 0855.42
2009/04/23 08:04:59.3     108     25     36    111    117  76.7  17.9  33988  286.66 0855.42
2009/04/23 08:04:59.4      94     60     65    112    129  57.5  32.9  33980  286.54 0855.42
2009/04/23 08:04:59.5     115     48     44    125    133  67.4  19.4  33986  286.62 0855.42
2009/04/23 08:04:59.6      89      9     79     90    119  83.9  45.8  33984  286.61 0855.42
2009/04/23 08:04:59.7      71     23     50     75     90  71.4  36.5  33986  286.64 0855.42
2009/04/23 08:04:59.8      75     46     12     89     90  58.5   8.0  33986  286.64 0855.42
2009/04/23 08:04:59.9      82     40     20     92     95  63.8  12.2  33984  286.61 0855.42
2009/04/23 08:05:00.0      54     35      3     65     66  56.7   2.9  33986  286.64 0855.42
2009/04/23 08:05:00.1      60     53    -41     81     90  48.2 -33.1  33984  286.61 0855.42
2009/04/23 08:05:00.2      56     87    -74    104    127  32.6 -43.9  33986  286.64 0855.42
2009/04/23 08:05:00.3      64    101    -88    120    148  32.5 -44.1  33990  286.69 0855.42
2009/04/23 08:05:00.4     118     75    -51    140    149  57.6 -25.3  33986  286.64 0855.42
2009/04/23 08:05:00.5     161     74    -50    178    184  65.4 -20.7  33988  286.66 0855.42
2009/04/23 08:05:00.6     167     58    -32    177    181  70.7 -10.5  33984  286.59 0855.42
2009/04/23 08:05:00.7     167     34     31    171    174  78.5  10.3  33984  286.61 0855.42
2009/04/23 08:05:00.8     138     32     48    142    151  76.8  18.9  33984  286.61 0855.42
2009/04/23 08:05:00.9     133     51     65    143    157  68.7  26.2  33984  286.61 0855.42
2009/04/23 08:05:01.0     124     -4     10    125    126  92.1   4.9  33990  286.69 0855.42
2009/04/23 08:05:01.1     113      8     14    114    115  85.7   7.5  33988  286.66 0855.42
2009/04/23 08:05:01.2      57      4    -24     58     62  85.7 -27.5  33990  286.69 0855.42
2009/04/23 08:05:01.3      69      6     26     70     74  84.8  20.0  33988  286.67 0855.42
2009/04/23 08:05:01.4      70    -14     48     72     86 101.5  36.5  33986  286.62 0855.42
2009/04/23 08:05:01.5      83    -13     74     85    112  99.2  45.4  33984  286.61 0855.42
2009/04/23 08:05:01.6      40      6     86     41     95  81.2  72.9  33984  286.59 0855.42
2009/04/23 08:05:01.7       8     12     90     15     91  32.5  90.0  33984  286.61 0855.42
2009/04/23 08:05:01.8     -35     22     72     42     83 302.4  67.2  33982  286.56 0855.42
2009/04/23 08:05:01.9     -72    -34     74     80    108 244.6  47.9  33978  286.49 0855.42
2009/04/23 08:05:02.0     -50    -37     60     63     87 233.1  49.0  33980  286.54 0855.42
2009/04/23 08:05:02.1     -70    -38     57     80     98 241.1  39.5  33982  286.56 0855.42
2009/04/23 08:05:02.2    -100    -27      5    104    105 254.9   2.9  33980  286.52 0855.42
2009/04/23 08:05:02.3    -111      0    -22    112    115 270.0 -11.3  33982  286.56 0855.42
2009/04/23 08:05:02.4     -84      3    -23     85     89 272.6 -15.5  33982  286.56 0855.42
2009/04/23 08:05:02.5     -90    -33     17     97     99 249.6  10.1  33980  286.52 0855.42
2009/04/23 08:05:02.6     -91    -50      5    104    105 241.1   2.8  33982  286.56 0855.42
2009/04/23 08:05:02.7     -92    -58     29    110    114 237.6  15.2  33980  286.54 0855.43
2009/04/23 08:05:02.8     -93    -50     63    106    123 241.6  33.5  33982  286.57 0855.43
2009/04/23 08:05:02.9    -136      0     16    137    139 270.0   6.9  33982  286.56 0855.43
2009/04/23 08:05:03.0    -168     91    -91    192    212 298.6 -31.5  33986  286.64 0855.43
2009/04/23 08:05:03.1    -160     71   -116    176    210 294.0 -40.9  33990  286.69 0855.43
2009/04/23 08:05:03.2    -118    186    -26    221    223 327.5  -6.7  33986  286.64 0855.43
2009/04/23 08:05:03.3    -179    189     17    261    262 316.6   3.8  33980  286.52 0855.43
2009/04/23 08:05:03.4    -192    143    -80    240    254 306.8 -18.6  33988  286.67 0855.43
2009/04/23 08:05:03.5    -249    103     19    270    271 292.6   4.2  33982  286.57 0855.43
2009/04/23 08:05:03.6    -212    119    -19    244    245 299.3  -4.6  33978  286.48 0855.43
2009/04/23 08:05:03.7    -185    174     -7    255    256 313.3  -1.6  33984  286.60 0855.43
2009/04/23 08:05:03.8    -166    151    -38    225    229 312.2  -9.6  33980  286.54 0855.43
2009/04/23 08:05:03.9     -95    200     -6    222    223 334.5  -1.8  33986  286.64 0855.43
2009/04/23 08:05:04.0     -44    154    -14    161    162 344.0  -5.2  33986  286.64 0855.43
2009/04/23 08:05:04.1     -19     28     -3     34     35 325.7  -5.2  33986  286.62 0855.43
2009/04/23 08:05:04.2       3    -60    -19     61     64 176.4 -17.6  33986  286.62 0855.43
2009/04/23 08:05:04.3       1   -113    -43    114    121 179.1 -25.4  33988  286.66 0855.43
2009/04/23 08:05:04.4    -145   -145    -94    206    226 225.1 -30.8  33986  286.64 0855.43
2009/04/23 08:05:04.5    -154   -124   -154    199    251 231.1 -46.1  33994  286.75 0855.43
2009/04/23 08:05:04.6     -24   -251   -132    253    285 185.6 -33.7  33988  286.65 0855.43
2009/04/23 08:05:04.7    -137   -255    -87    290    303 208.3 -16.8  33986  286.62 0855.42
2009/04/23 08:05:04.8     -26   -314      4    316    317 184.9   0.8  33984  286.58 0855.42
2009/04/23 08:05:04.9     -39   -207    158    211    263 190.7  40.6  33988  286.65 0855.42
2009/04/23 08:05:05.0    -101   -252    231    272    356 201.9  44.8  33988  286.66 0855.42
2009/04/23 08:05:05.1    -154   -282    167    322    362 208.7  29.4  33984  286.61 0855.42
2009/04/23 08:05:05.2    -173   -304     57    351    356 209.7   9.2  33974  286.44 0855.42
2009/04/23 08:05:05.3     -41   -275    108    279    299 188.5  22.1  33982  286.55 0855.42
2009/04/23 08:05:05.4    -109   -359    100    376    390 196.9  14.9  33978  286.51 0855.42
2009/04/23 08:05:05.5     -95   -391     38    403    405 193.7   5.4  33978  286.49 0855.42
2009/04/23 08:05:05.6    -169   -385     42    421    424 203.7   5.8  33972  286.40 0855.42
2009/04/23 08:05:05.7    -143   -314    174    346    387 204.5  28.7  33974  286.44 0855.42
2009/04/23 08:05:05.8    -174   -333    105    376    391 207.6  15.7  33978  286.51 0855.42
2009/04/23 08:05:05.9    -133   -333    160    359    393 201.9  25.7  33978  286.51 0855.42
2009/04/23 08:05:06.0    -162   -289    169    332    372 209.3  29.2  33980  286.54 0855.42
2009/04/23 08:05:06.1    -223   -178    151    286    323 231.4  30.0  33984  286.58 0855.42
2009/04/23 08:05:06.2     -70   -103    167    125    208 214.3  59.4  33984  286.59 0855.42
2009/04/23 08:05:06.3     -15     32    132     36    136 334.5  84.8  33984  286.61 0855.42
2009/04/23 08:05:06.4     -28     74    170     80    187 339.1  73.1  33984  286.59 0855.42
2009/04/23 08:05:06.5    -165     92    121    190    225 299.3  35.5  33978  286.49 0855.42
2009/04/23 08:05:06.6    -104     97     75    143    161 313.1  29.8  33980  286.52 0855.42
2009/04/23 08:05:06.7     -43    -36     47     57     73 230.4  43.8  33980  286.52 0855.43
2009/04/23 08:05:06.8      -4     63     96     64    115 356.4  64.1  33984  286.61 0855.43
2009/04/23 08:05:06.9    -291   -106    -39    310    313 250.0  -7.2  33978  286.50 0855.43
2009/04/23 08:05:07.0    -442    -27    -85    443    452 266.4 -10.9  33972  286.40 0855.43
2009/04/23 08:05:07.1    -319   -104    -99    336    351 251.9 -16.5  33984  286.61 0855.43
2009/04/23 08:05:07.2    -212   -192    -82    287    299 227.8 -16.0  33980  286.53 0855.43
2009/04/23 08:05:07.3    -240    -48      0    245    246 258.5   0.0  33974  286.43 0855.43
2009/04/23 08:05:07.4    -293    -89    -45    307    311 253.1  -8.4  33980  286.52 0855.43
2009/04/23 08:05:07.5    -284   -202     -7    349    350 234.6  -1.2  33980  286.53 0855.43
2009/04/23 08:05:07.6    -204    -74    -60    218    227 250.1 -15.4  33976  286.46 0855.43
2009/04/23 08:05:07.7    -168    -34    -54    172    181 258.6 -17.6  33972  286.41 0855.43
2009/04/23 08:05:07.8    -211     97     14    233    234 294.8   3.6  33980  286.53 0855.43
2009/04/23 08:05:07.9    -210     70    -12    222    223 288.4  -3.2  33980  286.54 0855.43
2009/04/23 08:05:08.0    -170     40    -11    175    176 283.5  -3.9  33980  286.52 0855.43
2009/04/23 08:05:08.1    -144     55      7    155    156 290.8   2.8  33978  286.51 0855.43
2009/04/23 08:05:08.2    -228     -7    -29    229    231 268.1  -7.3  33980  286.54 0855.43
2009/04/23 08:05:08.3    -265     11    -53    266    272 272.5 -11.3  33982  286.57 0855.43
2009/04/23 08:05:08.4    -216    -32    -71    219    230 261.4 -23.8  33980  286.54 0855.43
2009/04/23 08:05:08.5    -101   -134      3    168    169 217.0   1.2  33982  286.56 0855.43
2009/04/23 08:05:08.6    -173    -71    -33    188    191 247.6 -10.1  33980  286.54 0855.43
2009/04/23 08:05:08.7     -72   -130    -13    149    150 209.0  -5.2  33968  286.34 0855.44
2009/04/23 08:05:08.8     -75    -98    -29    124    128 217.4 -13.3  33978  286.51 0855.44
2009/04/23 08:05:08.9     -42    -74     24     86     90 209.4  15.8  33980  286.54 0855.44
2009/04/23 08:05:09.0    -183     84    -28    202    205 294.8  -8.0  33978  286.49 0855.44
2009/04/23 08:05:09.1     -99     13    -12    100    101 277.9  -7.3  33976  286.47 0855.44
2009/04/23 08:05:09.2    -163   -101      7    192    193 238.2   2.1  33982  286.56 0855.44
2009/04/23 08:05:09.3    -247     16    -50    248    254 273.9 -11.5  33988  286.65 0855.44
2009/04/23 08:05:09.4    -235     10    -92    236    253 272.5 -26.7  33984  286.60 0855.44
2009/04/23 08:05:09.5    -181    -83   -148    200    248 245.4 -44.8  33984  286.60 0855.44
2009/04/23 08:05:09.6    -135   -104   -111    171    203 232.2 -40.1  33982  286.56 0855.44
2009/04/23 08:05:09.7    -318    106   -161    336    372 288.4 -31.7  33986  286.63 0855.44
2009/04/23 08:05:09.8    -350     53   -138    355    380 278.7 -26.8  33990  286.71 0855.44
2009/04/23 08:05:10.0    -400     17   -100    401    414 272.5 -14.1  33984  286.60 0855.44
2009/04/23 08:05:10.0    -315     37   -103    318    335 276.7 -17.9  33986  286.63 0855.44
2009/04/23 08:05:10.1    -309   -102    -81    326    337 251.6 -14.1  33984  286.58 0855.44
2009/04/23 08:05:10.2    -246    -79    -18    259    260 252.2  -4.1  33982  286.55 0855.44
2009/04/23 08:05:10.3    -263    -17    -10    264    265 266.3  -2.2  33982  286.57 0855.44
2009/04/23 08:05:10.4    -228    -94    -23    247    249 247.6  -5.4  33986  286.62 0855.44
2009/04/23 08:05:10.5    -222   -119    -26    253    255 241.8  -6.1  33982  286.57 0855.44
2009/04/23 08:05:10.7    -216   -108     -9    242    243 243.4  -2.3  33980  286.53 0855.44
2009/04/23 08:05:10.8    -153   -120    -32    195    198 232.0  -9.4  33982  286.57 0855.44
2009/04/23 08:05:10.9    -109   -197    -65    226    236 209.0 -16.0  33984  286.59 0855.44
2009/04/23 08:05:11.0    -128   -154    -55    201    208 219.6 -20.0  33984  286.59 0855.44
2009/04/23 08:05:11.1    -113   -128    -61    171    182 221.4 -19.7  33984  286.59 0855.44
2009/04/23 08:05:11.2     -85   -115    -61    144    156 216.5 -28.5  33984  286.61 0855.44
2009/04/23 08:05:11.3     -61   -129    -65    143    157 205.3 -30.6  33986  286.62 0855.44
2009/04/23 08:05:11.4     -75    -75    -32    107    112 225.1 -16.6  33984  286.61 0855.44
2009/04/23 08:05:11.5    -102   -102    -44    145    151 225.0 -21.7  33982  286.57 0855.44
2009/04/23 08:05:11.6     -98    -54     14    113    114 241.1   7.1  33980  286.54 0855.44
2009/04/23 08:05:11.7     -85    -11     25     86     90 262.5  16.3  33982  286.57 0855.44
2009/04/23 08:05:11.8     -35    -28    -53     46     70 231.4 -59.8  33984  286.59 0855.44
2009/04/23 08:05:11.9     -31     31    -24     44     50 315.0 -35.8  33986  286.64 0855.44
2009/04/23 08:05:12.0     -92     58     -7    109    110 302.4  -4.1  33984  286.61 0855.44
2009/04/23 08:05:12.1    -151    108      6    186    187 305.7   2.1  33982  286.56 0855.44
2009/04/23 08:05:12.2    -174     85    -16    194    195 296.2  -4.9  33982  286.56 0855.44
2009/04/23 08:05:12.3    -132     93     59    162    172 305.1  20.4  33980  286.52 0855.44
2009/04/23 08:05:12.4     -59     74    111     95    146 321.3  54.8  33982  286.57 0855.44
2009/04/23 08:05:12.5     -21    -21     92     30     96 225.0  80.7  33984  286.61 0855.44
2009/04/23 08:05:12.6     -43     -4     85     44     95 263.9  70.8  33984  286.61 0855.44
2009/04/23 08:05:12.7     -97     26     59    101    116 285.1  33.5  33984  286.61 0855.44
2009/04/23 08:05:12.8     -73     -6     14     74     76 264.8  11.1  33988  286.67 0855.44
2009/04/23 08:05:12.9     -26     -7     53     27     59 254.9  70.8  33992  286.73 0855.44
2009/04/23 08:05:13.0     -78     -1    106     79    132 269.2  59.4  33986  286.62 0855.44
2009/04/23 08:05:13.1     -89     15     32     91     97 279.7  19.4  33986  286.64 0855.44
2009/04/23 08:05:13.2     -30     19     40     36     53 302.4  52.2  33988  286.67 0855.44
2009/04/23 08:05:13.3     -33    -95     66    101    120 199.6  36.0  33992  286.74 0855.44
2009/04/23 08:05:13.4      30   -142     77    146    165 168.0  30.1  33986  286.64 0855.44
2009/04/23 08:05:13.5      51   -179    124    187    224 164.0  36.5  33986  286.64 0855.44
2009/04/23 08:05:13.6      59   -136    107    149    183 156.4  39.3  33986  286.64 0855.44
2009/04/23 08:05:13.7      25   -121     72    124    143 168.0  33.4  33988  286.66 0855.44
2009/04/23 08:05:13.8      17   -121     64    123    138 172.0  29.3  33986  286.62 0855.44
2009/04/23 08:05:13.9     108   -148     97    184    208 143.7  29.8  33986  286.62 0855.44
2009/04/23 08:05:14.0      82   -167     98    187    211 153.7  29.5  33986  286.62 0855.44
2009/04/23 08:05:14.1      98   -196     44    220    225 153.3  11.4  33988  286.66 0855.44
2009/04/23 08:05:14.2      83   -249     31    263    265 161.5   6.9  33986  286.62 0855.44
2009/04/23 08:05:14.3      54   -285      4    291    292 169.3   0.8  33988  286.67 0855.44
2009/04/23 08:05:14.4      82   -247     12    261    262 161.5   2.8  33988  286.65 0855.44
2009/04/23 08:05:14.5     137   -305      0    335    336 155.8   0.1  33990  286.69 0855.44
2009/04/23 08:05:14.6     146   -295     37    330    333 153.7   6.5  33990  286.71 0855.44
2009/04/23 08:05:14.7     131   -248     52    281    286 152.0  10.6  33992  286.72 0855.44
2009/04/23 08:05:14.8     139   -219     81    260    273 147.5  17.3  33990  286.70 0855.44
2009/04/23 08:05:14.9     174   -239     55    296    302 143.9  10.6  33990  286.70 0855.44
2009/04/23 08:05:15.0     155   -239     67    285    293 147.0  13.2  33988  286.67 0855.44
2009/04/23 08:05:15.1     205   -246     70    321    329 140.1  12.4  33992  286.72 0855.44
2009/04/23 08:05:15.2     212   -271     43    345    348 141.9   7.1  33990  286.69 0855.44
2009/04/23 08:05:15.3     165   -212    110    269    290 142.2  23.4  33990  286.70 0855.44
2009/04/23 08:05:15.4     175   -187    129    257    287 137.0  28.7  33990  286.68 0855.44
2009/04/23 08:05:15.5     258   -235    137    350    375 132.3  22.7  33990  286.68 0855.44
2009/04/23 08:05:15.6     272   -118    140    297    328 113.5  27.1  33994  286.77 0855.44
2009/04/23 08:05:15.7     238   -161    133    288    317 124.2  26.4  33990  286.70 0855.44
2009/04/23 08:05:15.8     222   -117    125    252    281 117.8  28.2  33990  286.70 0855.43
2009/04/23 08:05:15.9     224   -152     68    271    280 124.2  14.2  33990  286.70 0855.43
2009/04/23 08:05:16.0     221   -140    115    262    286 122.4  25.2  33990  286.70 0855.43
2009/04/23 08:05:16.1     270   -109    187    292    346 112.0  35.6  33990  286.68 0855.43
2009/04/23 08:05:16.2     181   -236    118    298    320 142.6  22.8  33986  286.63 0855.43
2009/04/23 08:05:16.3     177   -228     96    289    305 142.2  18.4  33988  286.65 0855.43
2009/04/23 08:05:16.4      80   -251    179    264    318 162.2  37.4  33988  286.67 0855.43
2009/04/23 08:05:16.5      73   -201    117    215    244 159.9  30.8  33990  286.68 0855.43
2009/04/23 08:05:16.6     111   -216    166    243    294 152.8  37.6  33988  286.67 0855.43
2009/04/23 08:05:16.7      69   -243    185    253    313 164.0  39.9  33990  286.70 0855.43
2009/04/23 08:05:16.8      93   -235    184    253    312 158.4  39.8  33990  286.70 0855.43
2009/04/23 08:05:16.9      55   -194    148    202    250 164.0  39.9  33990  286.70 0855.43
2009/04/23 08:05:17.0      83   -162    140    183    230 152.8  41.4  33992  286.73 0855.43
2009/04/23 08:05:17.1      81   -158    132    178    221 152.8  39.9  33990  286.69 0855.43
2009/04/23 08:05:17.2      75   -146    134    165    212 152.6  43.7  33990  286.69 0855.43
2009/04/23 08:05:17.3     106   -106    114    150    188 135.0  41.2  33990  286.69 0855.43
2009/04/23 08:05:17.4      76   -100    120    126    174 142.6  49.0  33988  286.67 0855.43
2009/04/23 08:05:17.5     108   -132    144    171    223 140.8  44.1  33990  286.69 0855.43
2009/04/23 08:05:17.6      92   -120     88    152    175 142.6  32.7  33988  286.67 0855.43
2009/04/23 08:05:17.7      97   -110    106    148    182 138.6  39.3  33990  286.71 0855.43
2009/04/23 08:05:17.8      58   -149    140    161    213 158.6  45.8  33988  286.67 0855.42
2009/04/23 08:05:17.9      31    -59    121     67    138 151.9  68.8  33992  286.74 0855.42
2009/04/23 08:05:18.0      86     -6     91     87    125  94.4  51.2  33992  286.74 0855.42
2009/04/23 08:05:18.1     134    -48    101    143    175 109.9  38.6  33990  286.71 0855.42
2009/04/23 08:05:18.2     127    -42    123    135    182 108.6  47.5  33992  286.73 0855.42
2009/04/23 08:05:18.3      27    -39     92     48    103 144.8  69.8  33992  286.73 0855.42
2009/04/23 08:05:18.4      60   -128     98    142    172 154.7  37.8  33990  286.71 0855.42
2009/04/23 08:05:18.5      68   -144    100    160    188 154.7  35.5  33992  286.73 0855.42
2009/04/23 08:05:18.6      64   -108    115    126    170 149.3  47.1  33988  286.67 0855.42
2009/04/23 08:05:18.7     133    -84    101    158    187 122.4  35.6  33988  286.66 0855.42
2009/04/23 08:05:18.8     128     -8     97    129    161  93.9  40.9  33992  286.73 0855.42
2009/04/23 08:05:18.9      99     -7     85    100    131  94.3  44.3  33992  286.73 0855.42
2009/04/23 08:05:19.0      74    -22    111     78    135 106.8  62.1  33990  286.69 0855.42
2009/04/23 08:05:19.1      29     29     90     42     99  45.1  73.1  33994  286.78 0855.42
2009/04/23 08:05:19.2     -14      3     57     15     58 285.1  84.9  33994  286.78 0855.42
2009/04/23 08:05:19.3       2     13     44     14     46  11.6  80.7  33990  286.69 0855.42
2009/04/23 08:05:19.4      -8    -64     86     65    107 187.1  59.4  33990  286.69 0855.42
2009/04/23 08:05:19.5      99    -32     91    105    138 108.2  45.8  33992  286.74 0855.42
2009/04/23 08:05:19.6     104    -49    119    116    166 115.4  50.7  33992  286.73 0855.42
2009/04/23 08:05:19.7      56    -19     83     60    102 108.6  60.5  33990  286.71 0855.42
2009/04/23 08:05:19.8      35     39     75     53     91  41.4  61.1  33992  286.73 0855.42
2009/04/23 08:05:19.9      11    -12     72     17     73 136.8  86.9  33994  286.76 0855.42
2009/04/23 08:05:20.0     -19    -85    131     88    157 192.9  63.2  33990  286.69 0855.42
2009/04/23 08:05:20.1      18    -55    136     59    148 161.3  75.0  33996  286.79 0855.42
2009/04/23 08:05:20.2     -14   -103     58    105    119 188.0  31.4  33994  286.76 0855.42
2009/04/23 08:05:20.3     -11   -117     59    118    131 185.8  28.2  33992  286.74 0855.42
2009/04/23 08:05:20.4      16    -86     71     88    113 168.9  43.7  33992  286.73 0855.42
2009/04/23 08:05:20.5      -8    -51     72     52     88 188.9  60.5  33992  286.74 0855.42
2009/04/23 08:05:20.6      -6    -48     60     49     77 187.1  56.4  33992  286.74 0855.42
2009/04/23 08:05:20.7     -15    -49     65     52     83 197.8  56.9  33992  286.74 0855.42
2009/04/23 08:05:20.8       1     -4     43      5     43 161.5  90.0  33992  286.74 0855.42
2009/04/23 08:05:20.9      -1      6     33      7     33 350.3  89.0  33996  286.79 0855.42
2009/04/23 08:05:21.0       9      0     23     10     25  90.8  77.1  33998  286.83 0855.42
2009/04/23 08:05:21.1      41    -14      5     44     45 109.1   6.9  33996  286.79 0855.42
2009/04/23 08:05:21.2      41    -12      6     43     44 106.8   9.0  33994  286.78 0855.42
2009/04/23 08:05:21.3      63      4     22     64     68  85.7  18.9  33996  286.81 0855.42
2009/04/23 08:05:21.4      94     19     40     96    104  78.5  23.1  33994  286.78 0855.42
2009/04/23 08:05:21.5     132     43     36    139    144  71.8  14.7  33990  286.69 0855.42
2009/04/23 08:05:21.6     113     24     31    116    121  77.6  15.3  33990  286.69 0855.42
2009/04/23 08:05:21.7     107     35    -22    113    116  71.6 -11.3  33990  286.69 0855.42
2009/04/23 08:05:21.8     110      8     -4    111    112  85.7  -2.2  33992  286.73 0855.41
2009/04/23 08:05:21.9      91     -7    -24     92     96  94.4 -14.5  33992  286.73 0855.41
2009/04/23 08:05:22.0      70     14    -18     72     75  78.6 -14.5  33990  286.69 0855.41
2009/04/23 08:05:22.1      88     73     39    115    122  50.0  18.9  33986  286.62 0855.41
2009/04/23 08:05:22.2     100     54     90    114    145  61.6  42.2  33988  286.66 0855.41
2009/04/23 08:05:22.3      42     88     52     98    110  25.4  30.3  33988  286.67 0855.41
2009/04/23 08:05:22.4      67     63     73     93    118  46.9  42.2  33986  286.64 0855.41
2009/04/23 08:05:22.5      80     87     55    119    131  42.8  27.1  33982  286.56 0855.41
2009/04/23 08:05:22.6      41    111     52    119    129  20.5  25.1  33984  286.61 0855.41
2009/04/23 08:05:22.7      62    123     37    138    144  26.7  15.2  33982  286.56 0855.41
2009/04/23 08:05:22.8      70    131      4    149    150  28.1   1.8  33984  286.61 0855.41
2009/04/23 08:05:22.9      77    106      7    132    133  36.0   3.3  33984  286.61 0855.41
2009/04/23 08:05:23.0      85    104     16    135    136  39.2   6.9  33986  286.64 0855.41
2009/04/23 08:05:23.1      85     81     49    118    127  46.4  23.6  33986  286.62 0855.41
2009/04/23 08:05:23.2     147     49     32    156    160  71.4  11.6  33986  286.62 0855.41
2009/04/23 08:05:23.3     109     56     60    123    136  62.9  27.3  33986  286.62 0855.41
2009/04/23 08:05:23.4      58    105     33    121    126  29.0  15.2  33988  286.66 0855.41
2009/04/23 08:05:23.5      45    137     22    145    147  18.3   8.9  33986  286.64 0855.41
2009/04/23 08:05:23.6      63    154     68    167    180  22.5  23.1  33986  286.64 0855.41
2009/04/23 08:05:23.7      75    182    106    197    223  22.5  30.8  33980  286.52 0855.41
2009/04/23 08:05:23.8     141    150     63    206    216  43.2  17.1  33984  286.61 0855.40
2009/04/23 08:05:23.9     155    136     62    207    217  48.6  16.8  33984  286.61 0855.40
2009/04/23 08:05:24.0     183    132     44    226    231  54.1  11.1  33986  286.62 0855.40
2009/04/23 08:05:24.1     200    161     95    257    273  51.1  21.0  33984  286.58 0855.40
2009/04/23 08:05:24.2     204    138     32    247    250  55.9   7.5  33986  286.63 0855.40
2009/04/23 08:05:24.3     132    166     58    213    221  38.5  15.3  33988  286.66 0855.40
2009/04/23 08:05:24.4      58    187    103    196    221  17.4  29.8  33992  286.74 0855.40
2009/04/23 08:05:24.5     165     85    215    186    284  62.5  54.8  33972  286.40 0855.40
2009/04/23 08:05:24.6     352    166     45    390    393  64.8   6.7  33986  286.64 0855.40
2009/04/23 08:05:24.7     318    196     -4    374    375  58.3  -0.7  33984  286.59 0855.40
2009/04/23 08:05:24.8     253    182    102    312    329  54.3  18.1  33986  286.63 0855.40
2009/04/23 08:05:24.9     261    192    107    325    343  53.6  18.2  33990  286.68 0855.40
2009/04/23 08:05:25.0     273    242    119    365    385  48.4  18.1  33994  286.76 0855.40
2009/04/23 08:05:25.1     298    240    120    383    402  51.1  17.4  33996  286.81 0855.40
2009/04/23 08:05:25.2     305    253     93    397    408  50.4  13.2  33996  286.81 0855.40
2009/04/23 08:05:25.3     244    218    110    328    347  48.2  18.6  33996  286.81 0855.40
2009/04/23 08:05:25.4     281    152    103    320    337  61.6  17.8  33988  286.66 0855.40
2009/04/23 08:05:25.5     308    243    134    393    416  51.7  18.9  33996  286.81 0855.40
2009/04/23 08:05:25.6     347    246    166    426    457  54.6  22.5  33996  286.79 0855.40
2009/04/23 08:05:25.7     314    228    153    389    418  54.0  22.7  33994  286.76 0855.40
2009/04/23 08:05:25.8     364    204    128    418    438  60.7  17.0  33986  286.64 0855.40
2009/04/23 08:05:25.9     323    177     82    369    379  61.2  12.6  33988  286.66 0855.40
2009/04/23 08:05:26.0     147    238    226    280    359  31.7  43.1  33986  286.64 0855.40
2009/04/23 08:05:26.1      51    296    163    301    342   9.8  30.8  33988  286.66 0855.40
2009/04/23 08:05:26.2     139    262    123    297    321  28.0  23.8  33986  286.63 0855.40
2009/04/23 08:05:26.3     135    253    121    287    311  28.1  24.2  33984  286.60 0855.40
2009/04/23 08:05:26.4     248    243     99    348    362  45.6  15.9  33990  286.68 0855.40
2009/04/23 08:05:26.5     160    284    114    327    347  29.4  19.2  33984  286.61 0855.40
2009/04/23 08:05:26.6     157    245     62    292    299  32.6  12.2  33984  286.60 0855.40
2009/04/23 08:05:26.7     207    200     73    288    298  46.0  14.3  33990  286.70 0855.40
2009/04/23 08:05:26.8     136    246    110    282    302  29.0  22.5  33986  286.63 0855.40
2009/04/23 08:05:26.9      60    307    182    313    362  11.1  32.8  33978  286.48 0855.40
2009/04/23 08:05:27.0      11    357    169    358    395   1.9  27.1  33994  286.76 0855.40
2009/04/23 08:05:27.1     107    315    134    333    358  18.8  23.0  33994  286.76 0855.40
2009/04/23 08:05:27.2      71    304    124    313    336  13.3  22.9  33994  286.75 0855.40
2009/04/23 08:05:27.3      13    307    126    308    332   2.6  23.5  33988  286.67 0855.40
2009/04/23 08:05:27.4     -48    318     79    322    332 351.3  13.9  33980  286.54 0855.40
2009/04/23 08:05:27.5    -176    156    -12    236    237 311.4  -3.1  33992  286.72 0855.40
2009/04/23 08:05:27.6    -195    145     34    244    247 306.6   8.0  33984  286.58 0855.40
2009/04/23 08:05:27.7    -173    149     62    229    238 310.7  15.3  33978  286.50 0855.40
2009/04/23 08:05:27.8    -159    143     37    215    219 312.0   9.9  33988  286.66 0855.39
2009/04/23 08:05:27.9    -166    107     66    198    209 302.9  18.4  33982  286.56 0855.39
2009/04/23 08:05:28.0    -151    122    102    195    220 309.1  29.8  33980  286.54 0855.39
2009/04/23 08:05:28.1    -184    115     44    218    223 302.0  11.6  34000  286.86 0855.39
2009/04/23 08:05:28.2    -115     97     83    151    172 310.0  31.4  33994  286.76 0855.39
2009/04/23 08:05:28.3     -51     98     98    111    148 332.4  45.9  33990  286.69 0855.39
2009/04/23 08:05:28.4     -83     36     73     91    116 294.0  43.7  33996  286.81 0855.39
2009/04/23 08:05:28.5     -79     29     71     85    110 290.4  43.8  34000  286.86 0855.39
2009/04/23 08:05:28.6      24     16     51     30     59  55.8  65.7  33996  286.79 0855.39
2009/04/23 08:05:28.7      68    -13     52     70     87 101.5  40.7  33990  286.71 0855.39
2009/04/23 08:05:28.8     122     21     95    124    156  79.9  41.6  33994  286.78 0855.39
2009/04/23 08:05:28.9     127     59    125    141    188  65.2  46.4  33998  286.84 0855.39
2009/04/23 08:05:29.0     150     69    106    166    196  65.4  35.6  33998  286.83 0855.39
2009/04/23 08:05:29.1     207    109     85    234    248  62.2  20.7  33990  286.68 0855.39
2009/04/23 08:05:29.2     201    141     85    246    261  54.9  19.2  33990  286.68 0855.39
2009/04/23 08:05:29.3     200    111     54    230    237  60.9  13.2  33990  286.70 0855.39
2009/04/23 08:05:29.4     172     81    -36    191    195  64.6 -10.9  33990  286.71 0855.39
2009/04/23 08:05:29.5     117     86    -82    146    167  53.6 -36.3  33992  286.74 0855.39
2009/04/23 08:05:29.6      75    104      0    129    130  36.0  -0.3  33992  286.73 0855.39
2009/04/23 08:05:29.7       9    147     58    148    158   3.6  22.5  33992  286.73 0855.39
2009/04/23 08:05:29.8       9    155     55    156    166   3.6  19.4  33992  286.73 0855.39
2009/04/23 08:05:29.9      12    164     53    165    174   4.4  17.9  33990  286.69 0855.39
2009/04/23 08:05:30.0     -31    153     28    157    160 348.5  10.1  33988  286.66 0855.39
2009/04/23 08:05:30.1     -32    156     39    160    165 348.4  13.9  33988  286.66 0855.39
2009/04/23 08:05:30.2       0    161      8    162    163   0.0   2.9  33990  286.71 0855.39
2009/04/23 08:05:30.3      14    134    -27    135    138   6.3 -11.3  33988  286.66 0855.39
2009/04/23 08:05:30.4      22    109    -23    112    115  11.6 -11.9  33990  286.71 0855.39
2009/04/23 08:05:30.5      19     74    -26     77     82  15.1 -18.7  33990  286.69 0855.39
2009/04/23 08:05:30.6      52     17      9     55     56  71.8  10.1  33990  286.69 0855.39
2009/04/23 08:05:30.7      11      8     35     14     37  54.0  79.2  33992  286.73 0855.39
2009/04/23 08:05:30.8      97     39    -21    105    108  67.8 -11.5  33990  286.71 0855.39
2009/04/23 08:05:30.9     162     66     19    175    177  67.8   6.5  33990  286.71 0855.39
2009/04/23 08:05:31.0     247     79     -1    260    261  72.3  -0.3  33988  286.67 0855.39
2009/04/23 08:05:31.1     270    202     22    338    339  53.2   3.7  33992  286.73 0855.39
2009/04/23 08:05:31.2     218    177     13    281    282  50.9   2.8  33992  286.74 0855.39
2009/04/23 08:05:31.3     192    181     14    265    266  46.7   3.1  33992  286.72 0855.39
2009/04/23 08:05:31.4     230    190     20    299    300  50.4   3.9  33992  286.74 0855.39
2009/04/23 08:05:31.5     203    165     45    262    266  50.9   9.9  33988  286.67 0855.39
2009/04/23 08:05:31.6     197    197     87    279    293  45.0  17.3  33990  286.70 0855.39
2009/04/23 08:05:31.7     237    155      8    284    285  56.7   1.8  33990  286.68 0855.39
2009/04/23 08:05:31.8     338    120     52    359    363  70.4   8.3  33992  286.73 0855.39
2009/04/23 08:05:31.9     327    129     88    352    363  68.4  14.2  33990  286.69 0855.39
2009/04/23 08:05:32.0     339    121     80    361    370  70.3  12.5  33986  286.64 0855.39
2009/04/23 08:05:32.1     341    116     80    361    370  71.2  12.5  33986  286.63 0855.39
2009/04/23 08:05:32.2     379    135     63    403    409  70.3   9.0  33988  286.67 0855.39
2009/04/23 08:05:32.3     373    116     73    391    398  72.7  10.6  33990  286.68 0855.39
2009/04/23 08:05:32.4     320     75     93    329    343  76.7  15.9  33988  286.66 0855.39
2009/04/23 08:05:32.5     221    134     56    259    266  58.7  12.2  33990  286.68 0855.39
2009/04/23 08:05:32.6      44     91    128    102    163  25.9  57.5  33982  286.57 0855.39
2009/04/23 08:05:32.7    -139    217     11    258    259 327.3   2.5  33984  286.60 0855.39
2009/04/23 08:05:32.8    -144     15    122    145    189 276.1  44.1  33980  286.52 0855.41
2009/04/23 08:05:32.9    -113    167    119    202    234 325.9  33.4  33978  286.51 0855.41
2009/04/23 08:05:33.0     -43    181     -6    187    188 346.4  -2.1  33986  286.62 0855.41
2009/04/23 08:05:33.1      -2    144    -40    145    151 359.1 -15.4  33984  286.61 0855.41
2009/04/23 08:05:33.2      24    164     57    166    176   8.5  19.2  33978  286.49 0855.41
2009/04/23 08:05:33.3      38    189     90    194    213  11.6  27.0  33980  286.54 0855.41
2009/04/23 08:05:33.4      73    140     97    158    185  27.6  34.8  33980  286.54 0855.41
2009/04/23 08:05:33.5      27    133     70    136    152  11.6  29.3  33982  286.56 0855.41
2009/04/23 08:05:33.6      27    140    100    143    174  11.1  38.0  33982  286.57 0855.41
2009/04/23 08:05:33.7      31    204     52    207    214   8.7  14.3  33992  286.73 0855.41
2009/04/23 08:05:33.8      93    153     88    180    200  31.4  28.0  33992  286.73 0855.41
2009/04/23 08:05:33.9      49    161    115    169    204  17.2  37.6  33992  286.73 0855.41
2009/04/23 08:05:34.0      -8    189    140    190    236 357.3  40.4  33990  286.69 0855.41
2009/04/23 08:05:34.1      63    125     94    141    169  26.7  36.7  33994  286.78 0855.41
2009/04/23 08:05:34.2     158    100    135    188    231  57.6  39.3  33986  286.62 0855.41
2009/04/23 08:05:34.3     208     93     56    229    236  65.8  13.9  33990  286.68 0855.41
2009/04/23 08:05:34.4     182    116    -33    216    219  57.5  -8.8  33990  286.71 0855.41
2009/04/23 08:05:34.5     155    168     35    229    232  42.8   8.9  33990  286.69 0855.41
2009/04/23 08:05:34.6     158     75    -52    176    184  64.5 -16.6  33986  286.64 0855.41
2009/04/23 08:05:34.7      42     89      4     99    100  25.4   2.3  33984  286.61 0855.41
2009/04/23 08:05:34.8      86    138     47    163    170  32.1  16.3  33982  286.57 0855.41
2009/04/23 08:05:34.9     103     85     93    134    163  50.5  38.0  33984  286.61 0855.41
2009/04/23 08:05:35.0     112    119     79    164    182  43.2  27.3  33984  286.59 0855.41
2009/04/23 08:05:35.1     120     53    -34    132    137  66.0 -14.5  33986  286.62 0855.41
2009/04/23 08:05:35.2     210     49    188    216    286  76.7  45.8  33980  286.53 0855.41
2009/04/23 08:05:35.3     218     56    181    226    289  75.6  42.8  33982  286.55 0855.41
2009/04/23 08:05:35.4     348     96    127    362    383  74.6  20.1  33986  286.63 0855.41
2009/04/23 08:05:35.5     320     83    155    331    365  75.4  27.1  33980  286.54 0855.41
2009/04/23 08:05:35.6     352    133    125    377    398  69.2  18.4  33984  286.58 0855.41
2009/04/23 08:05:35.7     367    153     96    398    410  67.3  13.6  33978  286.50 0855.41
2009/04/23 08:05:35.8     312     46    198    316    372  81.6  35.2  33978  286.49 0855.41
2009/04/23 08:05:35.9     328    126    140    352    378  69.0  23.0  33982  286.56 0855.41
2009/04/23 08:05:36.0     348    108    168    365    401  72.7  26.5  33980  286.53 0855.41
2009/04/23 08:05:36.1     362    170    160    401    431  64.8  23.0  33980  286.52 0855.41
2009/04/23 08:05:36.2     396     75    192    404    447  79.2  27.3  33976  286.47 0855.41
2009/04/23 08:05:36.3     377      4    248    378    452  89.3  36.5  33978  286.50 0855.41
2009/04/23 08:05:36.4     368     74    204    376    427  78.6  30.9  33984  286.59 0855.41
2009/04/23 08:05:36.5     388     64    204    394    443  80.5  29.4  33984  286.60 0855.41
2009/04/23 08:05:36.6     391     71    140    398    422  79.7  19.4  33982  286.57 0855.41
2009/04/23 08:05:36.7     346     10     92    347    360  88.2  14.9  33980  286.54 0855.41
2009/04/23 08:05:36.8     293    -78    165    304    345 105.1  30.9  33978  286.51 0855.42
2009/04/23 08:05:36.9     280    -72    115    290    311 104.4  22.7  33978  286.50 0855.42
2009/04/23 08:05:37.0     253    -92     50    270    275 110.0  10.6  33982  286.55 0855.42
2009/04/23 08:05:37.1     243    -53     19    249    250 102.4   4.6  33982  286.55 0855.42
2009/04/23 08:05:37.2     233    -23     42    235    239  95.7  10.3  33980  286.53 0855.42
2009/04/23 08:05:37.3     251     44    144    255    292  79.9  31.9  33982  286.55 0855.42
2009/04/23 08:05:37.4     214    113     29    243    245  62.1   6.9  33976  286.45 0855.42
2009/04/23 08:05:37.6     177    126     81    218    232  54.5  21.0  33978  286.51 0855.42
2009/04/23 08:05:37.6     132     57    133    145    196  66.5  47.5  33980  286.52 0855.42
2009/04/23 08:05:37.7     173     58    121    183    219  71.4  36.7  33980  286.52 0855.42
2009/04/23 08:05:37.9     213     57     74    221    234  74.9  18.5  33982  286.56 0855.42
2009/04/23 08:05:38.0     222     58     72    230    242  75.2  17.4  33982  286.55 0855.42
2009/04/23 08:05:38.1     258     93     71    275    285  70.1  14.5  33978  286.50 0855.42
2009/04/23 08:05:38.2     198    109     76    227    240  61.2  18.6  33980  286.52 0855.42
2009/04/23 08:05:38.3     175     39     75    180    195  77.2  23.8  33982  286.57 0855.42
2009/04/23 08:05:38.4     156     80     60    176    187  62.9  18.9  33982  286.56 0855.42
2009/04/23 08:05:38.5     167     84     36    188    192  63.1  11.1  33982  286.57 0855.42
2009/04/23 08:05:38.6     132    112     45    174    180  49.6  14.5  33978  286.51 0855.42
2009/04/23 08:05:38.7     172     81      5    191    192  64.6   1.8  33980  286.52 0855.42
2009/04/23 08:05:38.8     143    118      9    186    187  50.4   2.9  33978  286.51 0855.42
2009/04/23 08:05:38.9     116     72      6    137    138  58.0   2.8  33980  286.54 0855.44
2009/04/23 08:05:39.0      93     66     -6    115    116  54.5  -3.2  33980  286.52 0855.44
2009/04/23 08:05:39.1      65     92     -8    113    114  35.2  -4.1  33978  286.49 0855.44
2009/04/23 08:05:39.2      18     79     44     82     93  12.9  30.3  33978  286.51 0855.44
2009/04/23 08:05:39.3      14     55     53     57     77  14.3  48.0  33978  286.51 0855.44
2009/04/23 08:05:39.4      11     43     17     45     48  14.3  20.0  33978  286.51 0855.44
2009/04/23 08:05:39.5      20     68    -20     72     75  16.9 -15.5  33978  286.51 0855.44
2009/04/23 08:05:39.6      93    105    -16    141    142  41.4  -6.7  33978  286.49 0855.44
2009/04/23 08:05:39.7      68    143      8    159    160  25.4   2.9  33982  286.56 0855.44
2009/04/23 08:05:39.8      69    147     25    163    165  25.3   8.8  33982  286.56 0855.44
2009/04/23 08:05:39.9      76    156    -13    174    175  26.1  -4.4  33980  286.54 0855.44
2009/04/23 08:05:40.0      37    122    -13    128    129  16.9  -6.2  33978  286.49 0855.44
2009/04/23 08:05:40.1      13    114     -4    115    116   6.7  -2.2  33982  286.56 0855.44
2009/04/23 08:05:40.2     -18    103     -8    105    106 349.8  -4.6  33982  286.56 0855.44
2009/04/23 08:05:40.3     -27    100     -4    104    105 344.8  -2.2  33980  286.54 0855.44
2009/04/23 08:05:40.4     -36    111     -4    117    118 341.7  -2.2  33982  286.57 0855.44
2009/04/23 08:05:40.5     -23     95    -12     98     99 346.2  -7.3  33982  286.56 0855.44
2009/04/23 08:05:40.6     -18     86     -7     88     89 348.0  -4.6  33982  286.56 0855.44
2009/04/23 08:05:40.7     -52     67    -36     86     93 322.2 -28.5  33982  286.57 0855.44
2009/04/23 08:05:40.8     -66     66    -65     94    114 315.0 -42.0  33984  286.59 0855.44
2009/04/23 08:05:40.9     -51     72    -54     89    104 324.4 -38.8  33982  286.57 0855.45
2009/04/23 08:05:41.0     -49     59    -51     77     92 320.4 -40.9  33984  286.59 0855.45
2009/04/23 08:05:41.1     -33     45    -46     56     72 323.9 -48.2  33982  286.57 0855.45
2009/04/23 08:05:41.2     -26     31    -45     41     60 319.5 -56.6  33982  286.57 0855.45
2009/04/23 08:05:41.3     -53     22    -66     58     87 292.6 -58.1  33982  286.56 0855.45
2009/04/23 08:05:41.4     -62     30    -42     70     81 296.2 -38.4  33984  286.59 0855.45
2009/04/23 08:05:41.5     -33     26    -40     43     58 308.6 -53.4  33984  286.61 0855.45
2009/04/23 08:05:41.6       0     15    -33     16     36 357.3 -77.3  33984  286.59 0855.45
2009/04/23 08:05:41.7      36     31    -24     48     53  49.6 -31.7  33984  286.59 0855.45
2009/04/23 08:05:41.8      17     31    -29     36     46  29.0 -47.1  33984  286.59 0855.45
2009/04/23 08:05:41.9      28     18    -24     34     41  57.5 -44.1  33982  286.56 0855.45
2009/04/23 08:05:42.0      15     12      0     20     21  52.2  -2.2  33982  286.57 0855.45
2009/04/23 08:05:42.1      -3     31    -18     32     36 353.8 -37.9  33982  286.56 0855.45
2009/04/23 08:05:42.2     -54     44    -19     70     73 309.5 -15.4  33980  286.52 0855.45
2009/04/23 08:05:42.3     -66     34    -38     75     84 297.1 -33.1  33982  286.56 0855.45
2009/04/23 08:05:42.4    -102    -55    -35    117    123 241.6 -17.0  33980  286.52 0855.45
2009/04/23 08:05:42.5    -121    -54    -45    133    141 245.6 -18.7  33982  286.57 0855.45
2009/04/23 08:05:42.6     -97    -64    -37    117    123 236.7 -17.6  33982  286.56 0855.45
2009/04/23 08:05:42.7    -101    -46    -57    112    125 245.6 -33.6  33980  286.52 0855.45
2009/04/23 08:05:42.8    -150    -41    -56    156    165 254.5 -24.6  33980  286.52 0855.45
2009/04/23 08:05:42.9    -119     33    -76    124    145 285.5 -39.4  33978  286.51 0855.45
2009/04/23 08:05:43.0     -88     38    -82     97    127 293.5 -49.2  33976  286.47 0855.45
2009/04/23 08:05:43.1      -4    -47    -26     48     54 185.3 -35.8  33978  286.49 0855.45
2009/04/23 08:05:43.2      22    -76    -39     80     89 164.0 -31.7  33976  286.47 0855.45
2009/04/23 08:05:43.3      54    -63    -55     84    100 139.5 -40.4  33980  286.52 0855.45
2009/04/23 08:05:43.4      29    -63    -15     70     72 154.7 -12.4  33980  286.52 0855.45
2009/04/23 08:05:43.5      23    -46     18     52     56 152.8  19.4  33976  286.47 0855.45
2009/04/23 08:05:43.6      25    -30     40     40     56 140.3  50.1  33978  286.51 0855.45
2009/04/23 08:05:43.7      75    -25     47     80     92 108.6  33.5  33976  286.47 0855.45
2009/04/23 08:05:43.8     124    -13     45    125    132  96.2  20.4  33978  286.49 0855.45
2009/04/23 08:05:43.9     147    -25     67    150    164  99.6  25.7  33976  286.47 0855.45
2009/04/23 08:05:44.0     130    -84     64    155    167 122.9  23.6  33980  286.52 0855.45
2009/04/23 08:05:44.1     210      0     53    211    218  90.0  14.3  33980  286.54 0855.45
2009/04/23 08:05:44.2     251    -16     26    252    254  93.7   5.9  33984  286.58 0855.45
2009/04/23 08:05:44.3     109    -15    140    111    178  97.9  57.7  33980  286.52 0855.45
2009/04/23 08:05:44.4      66     39    140     77    159  59.3  69.1  33984  286.59 0855.45
2009/04/23 08:05:44.5      75     20    157     78    175  74.9  71.9  33980  286.54 0855.45
2009/04/23 08:05:44.6      82    -38    143     91    169 115.3  64.7  33980  286.52 0855.45
2009/04/23 08:05:44.7      26      0    119     27    122  90.0  87.0  33980  286.54 0855.45
2009/04/23 08:05:44.8      44      7    131     45    138  80.3  80.7  33978  286.49 0855.45
2009/04/23 08:05:44.9      42     14    124     45    131  71.8  79.7  33978  286.51 0855.46
2009/04/23 08:05:45.0      48    -19    107     52    118 111.7  72.4  33976  286.46 0855.46
2009/04/23 08:05:45.1     124     17    157    126    201  82.1  57.1  33976  286.47 0855.46
2009/04/23 08:05:45.2     131     47    154    140    208  70.1  53.0  33982  286.56 0855.46
2009/04/23 08:05:45.3     166     31    126    169    210  79.2  40.4  33984  286.59 0855.46
2009/04/23 08:05:45.4     136     53    143    147    205  68.7  49.8  33980  286.52 0855.46
2009/04/23 08:05:45.5     114     40    112    122    165  70.5  47.7  33980  286.52 0855.46
2009/04/23 08:05:45.6      93     27    131     97    163  73.6  60.0  33980  286.54 0855.46
2009/04/23 08:05:45.7      84     59    150    103    181  54.9  62.4  33980  286.52 0855.46
2009/04/23 08:05:45.8     182     97     86    207    224  62.0  23.4  33980  286.54 0855.46
2009/04/23 08:05:45.9     148     79    106    169    199  61.8  35.2  33980  286.52 0855.46
2009/04/23 08:05:46.0     142    101     58    175    185  54.5  18.6  33978  286.51 0855.46
2009/04/23 08:05:46.1     104     85     67    135    150  50.5  27.8  33978  286.51 0855.46
2009/04/23 08:05:46.2     115    103     84    155    176  48.2  30.8  33978  286.51 0855.46
2009/04/23 08:05:46.3     104    102     77    146    165  45.6  30.1  33980  286.54 0855.46
2009/04/23 08:05:46.4     108     89     85    140    163  50.5  34.2  33980  286.54 0855.46
2009/04/23 08:05:46.5     116     73     87    138    163  57.6  35.5  33980  286.54 0855.46
2009/04/23 08:05:46.6     111     87     80    142    162  51.8  32.1  33982  286.56 0855.46
2009/04/23 08:05:46.7      92    106     74    141    159  41.0  29.8  33980  286.54 0855.46
2009/04/23 08:05:46.8      77     93     65    121    137  39.6  30.8  33982  286.57 0855.46
2009/04/23 08:05:46.9      55    105     75    119    140  27.6  35.5  33984  286.61 0855.46
2009/04/23 08:05:47.0      57    121     65    134    148  25.4  27.3  33984  286.59 0855.46
2009/04/23 08:05:47.1     115    132     58    176    186  41.2  18.4  33984  286.59 0855.46
2009/04/23 08:05:47.2     103    177     77    206    219  30.3  21.3  33982  286.57 0855.46
2009/04/23 08:05:47.3     150    135     87    203    220  48.0  24.6  33984  286.59 0855.46
2009/04/23 08:05:47.4      46    231     76    236    249  11.3  17.9  33978  286.50 0855.46
2009/04/23 08:05:47.5      26    256     92    258    273   5.8  20.4  33982  286.55 0855.46
2009/04/23 08:05:47.6       5    261     41    262    266   1.1   9.0  33984  286.60 0855.46
2009/04/23 08:05:47.7      37    218     28    222    224   9.6   7.2  33980  286.54 0855.46
2009/04/23 08:05:47.8      42    205     73    210    223  11.6  19.2  33978  286.51 0855.46
2009/04/23 08:05:47.9      57    218     53    226    233  14.7  13.2  33982  286.56 0855.46
2009/04/23 08:05:48.0      10    251     31    252    254   2.5   7.1  33982  286.57 0855.46
2009/04/23 08:05:48.1       0    272     55    273    279 359.9  11.4  33982  286.57 0855.46
2009/04/23 08:05:48.2       8    304     75    305    315   1.6  13.9  33980  286.52 0855.46
2009/04/23 08:05:48.3       9    299     36    300    303   1.8   6.9  33978  286.50 0855.46
2009/04/23 08:05:48.4     -36    274     23    277    279 352.4   4.9  33982  286.55 0855.46
2009/04/23 08:05:48.5     -36    289     50    292    297 352.9   9.9  33976  286.47 0855.46
2009/04/23 08:05:48.6     -15    283     83    284    296 356.9  16.3  33976  286.45 0855.46
2009/04/23 08:05:48.7       4    301    106    302    320   0.9  20.1  33972  286.38 0855.46
2009/04/23 08:05:48.8      79    240     69    253    263  18.3  15.3  33976  286.47 0855.46
2009/04/23 08:05:48.9     104    183     78    211    224  29.6  21.0  33976  286.47 0855.47
2009/04/23 08:05:49.0     123    173     77    213    226  35.4  20.9  33980  286.52 0855.47
2009/04/23 08:05:49.1      98    161    100    189    213  31.4  30.1  33978  286.49 0855.47
2009/04/23 08:05:49.2     108    183     96    213    233  30.7  26.2  33976  286.46 0855.47
2009/04/23 08:05:49.3     131    205    117    244    270  32.5  27.3  33974  286.43 0855.47
2009/04/23 08:05:49.4     220    294     43    368    371  36.8   6.7  33982  286.56 0855.47
2009/04/23 08:05:49.5     157    308    107    346    363  27.1  17.3  33978  286.48 0855.47
2009/04/23 08:05:49.6     161    252    123    300    324  32.5  23.6  33982  286.55 0855.47
2009/04/23 08:05:49.7     262    144     61    299    306  61.2  11.6  33980  286.53 0855.47
2009/04/23 08:05:49.8     312    231     19    389    390  53.4   2.9  33978  286.51 0855.47
2009/04/23 08:05:49.9     401    255      1    476    477  57.6   0.2  33982  286.55 0855.47
2009/04/23 08:05:50.0     360    267     22    449    450  53.4   2.9  33970  286.35 0855.47
2009/04/23 08:05:50.1     351    223     82    417    426  57.5  11.1  33976  286.45 0855.47
2009/04/23 08:05:50.2     321    218     46    389    392  55.8   6.8  33978  286.48 0855.47
2009/04/23 08:05:50.3     350    274     72    445    451  51.9   9.2  33980  286.52 0855.47
2009/04/23 08:05:50.4     364    232     41    432    435  57.5   5.4  33978  286.49 0855.47
2009/04/23 08:05:50.5     271    255     -9    373    374  46.8  -1.4  33980  286.53 0855.47
2009/04/23 08:05:50.6     261    310     42    406    409  40.0   5.9  33980  286.54 0855.47
2009/04/23 08:05:50.7     218    288     29    362    364  37.2   4.6  33978  286.51 0855.47
2009/04/23 08:05:50.8     226    238      4    329    330  43.5   0.7  33978  286.48 0855.47
2009/04/23 08:05:50.9     198    167    -48    260    265  49.8 -10.5  33980  286.53 0855.48
2009/04/23 08:05:51.0      80    169    -81    188    204  25.5 -29.3  33980  286.54 0855.48
2009/04/23 08:05:51.1     103    161    -62    192    201  32.5 -23.3  33978  286.51 0855.48
2009/04/23 08:05:51.2     120    154    -61    196    205  38.1 -22.5  33980  286.52 0855.48
2009/04/23 08:05:51.3     134    154    -53    205    212  41.0 -14.7  33980  286.52 0855.48
2009/04/23 08:05:51.4     136    115    -47    179    186  49.8 -14.7  33978  286.51 0855.48
2009/04/23 08:05:51.5     147    104    -56    181    190  54.7 -17.3  33978  286.51 0855.48
2009/04/23 08:05:51.6     192    106    -39    220    224  61.1 -10.3  33978  286.51 0855.48
2009/04/23 08:05:51.7     239     76    -77    251    262  72.3 -22.1  33980  286.52 0855.48
2009/04/23 08:05:51.8     284    103    -83    303    315  70.0 -15.4  33980  286.52 0855.48
2009/04/23 08:05:51.9     340    134    -37    366    368  68.5  -5.9  33984  286.58 0855.47
2009/04/23 08:05:52.0     324    140    -13    354    355  66.6  -2.2  33978  286.49 0855.47
2009/04/23 08:05:52.1     314    109     34    333    335  70.8   5.9  33974  286.44 0855.47
2009/04/23 08:05:52.2     416    108     57    430    434  75.4   7.6  33974  286.44 0855.47
2009/04/23 08:05:52.3     396    132     58    418    423  71.5   8.0  33978  286.50 0855.47
2009/04/23 08:05:52.4     350     71     47    358    362  78.5   7.5  33974  286.44 0855.47
2009/04/23 08:05:52.5     375     72     14    382    383  79.1   2.1  33974  286.44 0855.47
2009/04/23 08:05:52.6     301     41     61    304    311  82.1  11.4  33974  286.42 0855.47
2009/04/23 08:05:52.7     293     30     98    295    312  84.1  18.5  33976  286.45 0855.47
2009/04/23 08:05:52.8     362     44     24    365    366  83.0   3.8  33974  286.43 0855.47
2009/04/23 08:05:52.9     341     75    122    350    370  77.5  20.0  33974  286.44 0855.47
2009/04/23 08:05:53.0     281     -7    -34    282    285  91.5  -6.9  33976  286.47 0855.47
2009/04/23 08:05:53.1     292      4     22    293    294  89.2   4.4  33976  286.45 0855.47
2009/04/23 08:05:53.2     275      7     86    276    290  88.5  17.3  33972  286.40 0855.47
2009/04/23 08:05:53.3     300      8     50    301    306  88.3   9.4  33974  286.42 0855.47
2009/04/23 08:05:53.4     229     61    126    238    269  75.0  30.2  33968  286.33 0855.47
2009/04/23 08:05:53.5     234     -3     85    235    251  90.8  19.9  33974  286.43 0855.47
2009/04/23 08:05:53.6     301     36     65    304    311  83.0  12.1  33968  286.31 0855.47
2009/04/23 08:05:53.7     338     68    126    345    367  78.6  20.9  33972  286.41 0855.47
2009/04/23 08:05:53.8     375     52    117    379    397  82.1  17.2  33970  286.37 0855.47
2009/04/23 08:05:53.9     302    -22     65    303    311  94.3  12.2  33968  286.31 0855.47
2009/04/23 08:05:54.0     240    -33     68    243    253  98.0  15.8  33970  286.36 0855.47
2009/04/23 08:05:54.1     263     13     15    264    265  87.0   3.3  33968  286.31 0855.47
2009/04/23 08:05:54.2     259     40     83    263    276  81.2  17.7  33970  286.36 0855.47
2009/04/23 08:05:54.3     263     49     41    268    272  79.4   8.8  33972  286.40 0855.47
2009/04/23 08:05:54.4     249     76     78    261    273  72.9  16.8  33976  286.47 0855.47
2009/04/23 08:05:54.5     266    124     80    294    305  64.9  15.3  33976  286.45 0855.47
2009/04/23 08:05:54.6     228    108     96    253    270  64.6  21.7  33974  286.43 0855.47
2009/04/23 08:05:54.7     153     77    104    172    200  63.1  34.0  33974  286.44 0855.47
2009/04/23 08:05:54.8     127     12    142    128    191  84.3  53.3  33972  286.39 0855.47
2009/04/23 08:05:54.9     145     -4    154    146    212  91.7  51.6  33972  286.39 0855.47
2009/04/23 08:05:55.0     175      0    161    176    238  90.0  47.1  33974  286.44 0855.47
2009/04/23 08:05:55.1     156      0    143    157    212  90.0  47.5  33974  286.42 0855.47
2009/04/23 08:05:55.2     192     81     46    209    215  67.2  12.6  33976  286.47 0855.47
2009/04/23 08:05:55.3     186     39     43    191    196  78.1  12.9  33976  286.47 0855.47
2009/04/23 08:05:55.4     176     91     67    199    211  62.5  18.6  33976  286.46 0855.47
2009/04/23 08:05:55.5     121    134     82    181    198  42.1  25.9  33976  286.47 0855.47
2009/04/23 08:05:55.6     128     71     47    147    155  60.7  17.9  33976  286.46 0855.47
2009/04/23 08:05:55.7      83     78     53    114    125  46.8  26.6  33978  286.49 0855.47
2009/04/23 08:05:55.8     101     86     62    133    146  49.6  27.1  33974  286.44 0855.47
2009/04/23 08:05:55.9      64    153     57    166    176  22.7  19.2  33972  286.41 0855.47
2009/04/23 08:05:56.0     100    119     82    156    176  40.1  30.1  33976  286.47 0855.47
2009/04/23 08:05:56.1     119    119     69    169    182  45.1  23.1  33976  286.47 0855.47
2009/04/23 08:05:56.2      97     80     55    126    137  50.5  25.1  33976  286.46 0855.47
2009/04/23 08:05:56.3       8    105     21    106    109   4.5  11.1  33978  286.51 0855.47
2009/04/23 08:05:56.4     -48     88     -2    101    102 331.5  -1.3  33976  286.46 0855.47
2009/04/23 08:05:56.5     -39    115      7    122    123 341.3   3.3  33976  286.47 0855.47
2009/04/23 08:05:56.6     -27    159      2    162    163 350.2   1.0  33978  286.49 0855.47
2009/04/23 08:05:56.7     -41    137    -37    144    149 343.1 -14.5  33978  286.51 0855.47
2009/04/23 08:05:56.8      62    166     11    178    179  20.5   3.6  33980  286.54 0855.47
2009/04/23 08:05:56.9     102    179     36    207    211  29.6   9.9  33982  286.57 0855.47
2009/04/23 08:05:57.0     129    166    -19    211    212  37.9  -5.2  33982  286.56 0855.47
2009/04/23 08:05:57.1     106    140     73    176    190  37.2  23.6  33976  286.47 0855.47
2009/04/23 08:05:57.2      33    163     59    167    178  11.5  19.4  33980  286.54 0855.47
2009/04/23 08:05:57.3     -13    160     60    161    171 355.1  21.3  33984  286.59 0855.47
2009/04/23 08:05:57.4     -10    139     61    140    152 355.6  25.1  33984  286.61 0855.47
2009/04/23 08:05:57.5      -7    155     54    156    166 357.3  19.2  33984  286.61 0855.47
2009/04/23 08:05:57.6      25    122     44    125    133  11.6  19.4  33982  286.57 0855.47
2009/04/23 08:05:57.7      83    120      7    147    148  34.7   2.9  33982  286.56 0855.47
2009/04/23 08:05:57.8     135    111     18    176    177  50.5   5.9  33982  286.56 0855.47
2009/04/23 08:05:57.9     118     98    -14    154    155  50.4  -5.2  33982  286.57 0855.46
2009/04/23 08:05:58.0      87    105    -27    137    140  39.6 -11.3  33982  286.57 0855.46
2009/04/23 08:05:58.1      23    113    -22    116    119  11.6 -10.9  33984  286.59 0855.46
2009/04/23 08:05:58.2       5    108     -6    109    110   3.1  -3.2  33984  286.59 0855.46
2009/04/23 08:05:58.3      36    119     -9    125    126  17.0  -4.1  33982  286.56 0855.46
2009/04/23 08:05:58.4       3    141    -20    142    144   1.4  -8.2  33984  286.59 0855.46
2009/04/23 08:05:58.5      47    143     29    151    154  18.3  11.1  33980  286.54 0855.46
2009/04/23 08:05:58.6      94    123     52    156    165  37.4  18.6  33982  286.57 0855.46
2009/04/23 08:05:58.7     102     96    -18    141    143  46.9  -7.3  33980  286.52 0855.46
2009/04/23 08:05:58.8     194    113     -8    225    226  59.8  -2.2  33976  286.46 0855.46
2009/04/23 08:05:58.9     242    154    -15    287    288  57.5  -3.2  33974  286.42 0855.46
2009/04/23 08:05:59.0     257    102    -15    277    278  68.2  -3.3  33974  286.42 0855.46
2009/04/23 08:05:59.1     281     94    -38    297    300  71.4  -7.3  33974  286.43 0855.46
2009/04/23 08:05:59.2     311     87    -22    324    325  74.3  -4.0  33974  286.43 0855.46
2009/04/23 08:05:59.3     342    126     -3    365    366  69.7  -0.5  33970  286.37 0855.46
2009/04/23 08:05:59.4     402     92     39    413    415  77.1   5.5  33976  286.45 0855.46
2009/04/23 08:05:59.5     336     90     97    348    362  75.0  15.7  33972  286.39 0855.46
2009/04/23 08:05:59.6     310     16    157    311    348  87.0  28.7  33972  286.41 0855.46
2009/04/23 08:05:59.7     360     55    218    365    425  81.3  33.6  33970  286.35 0855.46
2009/04/23 08:05:59.8     285    -16    220    286    360  93.3  41.5  33976  286.46 0855.46
2009/04/23 08:05:59.9     309    -20    148    310    343  93.7  27.3  33968  286.32 0855.45
2009/04/23 08:06:00.0     339    -48    177    343    385  98.1  29.4  33974  286.44 0855.45
2009/04/23 08:06:00.1     346    -16    197    347    399  92.8  32.3  33974  286.44 0855.45
2009/04/23 08:06:00.2     331      0    207    332    391  90.0  34.9  33974  286.43 0855.45
2009/04/23 08:06:00.3     357    -12    186    358    403  92.0  29.5  33974  286.44 0855.45
2009/04/23 08:06:00.4     300    -13    208    301    365  92.6  37.9  33974  286.44 0855.45
2009/04/23 08:06:00.5     299    -21    190    300    355  94.1  35.5  33978  286.51 0855.45
2009/04/23 08:06:00.6     287    -26    164    289    332  95.2  32.1  33976  286.47 0855.45
2009/04/23 08:06:00.7     239    -18    148    240    281  94.4  34.8  33978  286.50 0855.45
2009/04/23 08:06:00.8     269      0     97    270    286  90.0  20.4  33980  286.52 0855.45
2009/04/23 08:06:00.9     248     16     99    249    267  86.1  23.0  33982  286.57 0855.45
2009/04/23 08:06:01.0     256     11    114    257    281  87.4  25.2  33986  286.62 0855.45
2009/04/23 08:06:01.1     289     97     87    305    318  71.4  15.9  33982  286.57 0855.45
2009/04/23 08:06:01.2     270     40     98    274    291  81.4  20.2  33984  286.60 0855.45
2009/04/23 08:06:01.3     231     71     94    242    259  72.9  22.3  33986  286.63 0855.45
2009/04/23 08:06:01.4     238     15     68    239    249  86.3  16.0  33982  286.55 0855.45
2009/04/23 08:06:01.5     265     62    107    273    293  76.8  23.0  33984  286.60 0855.45
2009/04/23 08:06:01.6     287     64     58    295    301  77.4  11.1  33982  286.57 0855.45
2009/04/23 08:06:01.7     247     97     92    266    282  68.5  19.2  33986  286.63 0855.45
2009/04/23 08:06:01.8     189    117    103    223    245  58.2  26.6  33984  286.58 0855.45
2009/04/23 08:06:01.9     173    147    106    228    251  49.6  27.0  33986  286.63 0855.45
2009/04/23 08:06:02.0     229     96    122    249    277  67.2  28.2  33986  286.62 0855.45
2009/04/23 08:06:02.1     247     52     94    253    269  78.1  21.0  33988  286.67 0855.45
2009/04/23 08:06:02.2     263    112     78    286    297  66.9  15.3  33982  286.57 0855.45
2009/04/23 08:06:02.3     236    155     55    283    289  56.7  11.1  33988  286.65 0855.45
2009/04/23 08:06:02.4     227    133      5    264    265  59.6   1.2  33988  286.67 0855.45
2009/04/23 08:06:02.5     194    140     -1    240    241  54.3  -0.3  33986  286.62 0855.45
2009/04/23 08:06:02.6     200    110      9    229    230  61.2   2.3  33982  286.57 0855.45
2009/04/23 08:06:02.7     227    106     83    251    265  64.8  18.5  33986  286.62 0855.45
2009/04/23 08:06:02.8     227    117    106    256    277  62.7  23.8  33986  286.63 0855.45
2009/04/23 08:06:02.9     229     93     50    248    254  67.8  11.6  33986  286.63 0855.45
2009/04/23 08:06:03.0     178     73     69    193    204  67.6  20.2  33984  286.61 0855.45
2009/04/23 08:06:03.1     220    117     98    250    268  62.0  22.5  33988  286.65 0855.45
2009/04/23 08:06:03.2     239     91    131    256    287  69.1  29.2  33978  286.50 0855.45
2009/04/23 08:06:03.3     264    200    -13    332    333  52.8  -2.3  33980  286.53 0855.45
2009/04/23 08:06:03.4     272    227      5    355    356  50.2   0.9  33984  286.59 0855.45
2009/04/23 08:06:03.5     241    214    -11    323    324  48.4  -2.1  33982  286.57 0855.45
2009/04/23 08:06:03.6     240    212    -23    321    322  48.6  -4.2  33984  286.58 0855.45
2009/04/23 08:06:03.8     163    205     17    263    264  38.5   3.8  33982  286.55 0855.45
2009/04/23 08:06:03.9     155    164    -28    226    228  43.3  -7.2  33986  286.62 0855.45
2009/04/23 08:06:04.0     154    163      0    225    226  43.3   0.0  33982  286.56 0855.46
2009/04/23 08:06:04.1     203    104      0    229    230  62.7   0.2  33982  286.56 0855.46
2009/04/23 08:06:04.2     168    152      6    227    228  47.8   1.6  33982  286.56 0855.46
2009/04/23 08:06:04.3     175    133     11    221    222  52.7   2.9  33982  286.57 0855.46
2009/04/23 08:06:04.4     195    123    -30    231    233  57.6  -7.5  33978  286.50 0855.46
2009/04/23 08:06:04.5     129    194      8    234    235  33.6   2.1  33978  286.50 0855.46
2009/04/23 08:06:04.6      83    187     11    205    206  24.1   3.1  33982  286.56 0855.46
2009/04/23 08:06:04.7     108    148     -9    184    185  36.3  -2.8  33980  286.52 0855.46
2009/04/23 08:06:04.8     107     79    -78    134    155  53.6 -37.8  33986  286.64 0855.46
2009/04/23 08:06:04.9      60     79    -35    100    105  37.0 -23.3  33982  286.56 0855.46
2009/04/23 08:06:05.0      60     96    -37    114    120  32.1 -18.1  33982  286.57 0855.46
2009/04/23 08:06:05.1      84    150     34    173    177  29.4  11.1  33978  286.49 0855.46
2009/04/23 08:06:05.2      33    164     65    168    180  11.6  22.0  33986  286.64 0855.46
2009/04/23 08:06:05.3      15    154     51    155    164   5.8  18.1  33984  286.61 0855.46
2009/04/23 08:06:05.4       3    132     47    133    141   1.4  20.4  33984  286.61 0855.46
2009/04/23 08:06:05.5     -43     76     55     88    103 330.6  35.5  33982  286.56 0855.46
2009/04/23 08:06:05.6     -43     76     55     88    103 330.6  35.5  33984  286.59 0855.46
2009/04/23 08:06:05.7     -59     82     52    102    114 324.0  29.3  33980  286.52 0855.46
2009/04/23 08:06:05.8     -54     50     50     74     89 313.1  37.0  33976  286.47 0855.46
2009/04/23 08:06:05.9     -44     47     79     65    102 316.8  56.3  33980  286.54 0855.46
2009/04/23 08:06:06.0     -57     18     51     60     78 288.2  45.4  33984  286.59 0855.45
2009/04/23 08:06:06.1     -59     18     62     62     87 287.7  50.1  33982  286.56 0855.45
2009/04/23 08:06:06.2     -42     17     64     46     78 292.6  60.5  33984  286.59 0855.45
2009/04/23 08:06:06.3     -57     31     49     66     82 298.8  40.7  33982  286.57 0855.45
2009/04/23 08:06:06.4     -65     69     58     95    111 316.8  35.0  33982  286.57 0855.45
2009/04/23 08:06:06.5     -58     77     61     97    114 323.0  35.5  33982  286.57 0855.45
2009/04/23 08:06:06.6     -35     76     48     84     96 335.1  32.9  33986  286.62 0855.45
2009/04/23 08:06:06.7     -26     87     59     91    108 343.1  35.6  33986  286.62 0855.45
2009/04/23 08:06:06.8      22     96     49     99    110  13.4  27.8  33982  286.56 0855.45
2009/04/23 08:06:06.9      78     49     58     93    109  58.0  35.5  33984  286.61 0855.45
2009/04/23 08:06:07.0      80     15     60     82    101  79.4  39.7  33982  286.57 0855.45
2009/04/23 08:06:07.1      54    -31     36     63     72 119.8  31.4  33982  286.56 0855.45
2009/04/23 08:06:07.2      18    -45     22     49     53 157.3  25.1  33980  286.54 0855.45
2009/04/23 08:06:07.3     -51      0     46     52     69 270.0  46.9  33982  286.56 0855.45
2009/04/23 08:06:07.4     -67     38     47     78     91 299.8  34.0  33984  286.59 0855.45
2009/04/23 08:06:07.5    -104     35     32    110    115 288.6  16.3  33978  286.49 0855.45
2009/04/23 08:06:07.6    -137     63     95    152    179 294.8  35.2  33968  286.34 0855.45
2009/04/23 08:06:07.7     -61     96     94    115    148 327.5  43.7  33976  286.47 0855.45
2009/04/23 08:06:07.8     -20     59     65     63     90 341.3  50.7  33978  286.51 0855.45
2009/04/23 08:06:07.9      18     47     70     51     86  21.8  60.5  33978  286.49 0855.45
2009/04/23 08:06:08.0      25     45     89     52    103  29.9  67.2  33982  286.57 0855.45
2009/04/23 08:06:08.1      98     33    135    104    170  71.4  58.5  33980  286.54 0855.45
2009/04/23 08:06:08.2     184    167     72    249    260  47.7  16.3  33986  286.63 0855.45
2009/04/23 08:06:08.3     155     64    161    168    232  67.6  48.7  33982  286.56 0855.45
2009/04/23 08:06:08.4     169    109    202    202    285  57.1  50.1  33982  286.55 0855.45
2009/04/23 08:06:08.5     184    142    146    233    274  52.2  35.2  33992  286.72 0855.45
2009/04/23 08:06:08.6     139    176    159    225    275  38.3  38.6  33990  286.68 0855.45
2009/04/23 08:06:08.7     135    161    128    211    246  39.9  34.2  33994  286.77 0855.45
2009/04/23 08:06:08.8      92    160    155    185    241  30.1  44.5  33994  286.78 0855.45
2009/04/23 08:06:08.9      55    192    113    200    229  16.0  31.6  33992  286.74 0855.45
2009/04/23 08:06:09.0     104     98    120    144    187  46.8  43.8  33994  286.76 0855.45
2009/04/23 08:06:09.1     114    107    127    157    201  46.9  43.5  33994  286.76 0855.45
2009/04/23 08:06:09.2      94    107    110    143    180  41.4  41.4  33994  286.78 0855.45
2009/04/23 08:06:09.3     101    107    107    148    182  43.3  39.5  33996  286.79 0855.45
2009/04/23 08:06:09.4     130    113     60    173    184  48.9  19.2  33998  286.83 0855.45
2009/04/23 08:06:09.5      98    109     34    147    151  41.9  13.1  33996  286.79 0855.45
2009/04/23 08:06:09.6     105    107    -19    151    153  44.5  -7.2  33996  286.81 0855.45
2009/04/23 08:06:09.7     121    101    -64    158    170  50.0 -27.8  33988  286.67 0855.45
2009/04/23 08:06:09.8      99    145    -94    176    199  34.5 -35.0  33992  286.73 0855.45
2009/04/23 08:06:09.9     155    157    -91    221    239  44.5 -28.0  33992  286.74 0855.45
2009/04/23 08:06:10.0     101    116    -71    154    169  41.0 -31.0  33994  286.78 0855.43
2009/04/23 08:06:10.1      63    100    -40    119    125  32.5 -23.6  33992  286.74 0855.43
2009/04/23 08:06:10.2     -32      6     15     33     36 281.4  27.1  33996  286.81 0855.43
2009/04/23 08:06:10.3    -123     21    -38    125    130 279.7 -21.8  34008  287.01 0855.43
2009/04/23 08:06:10.4     -78      6    -23     79     83 274.4 -16.6  34004  286.94 0855.43
2009/04/23 08:06:10.5     -75     11    -46     76     88 278.8 -38.8  34000  286.88 0855.43
2009/04/23 08:06:10.6     -80      4    -84     81    116 273.5 -55.1  34004  286.93 0855.43
2009/04/23 08:06:10.7     -39     24    -87     46     98 301.5 -74.8  34002  286.89 0855.43
2009/04/23 08:06:10.8      10     28    -55     30     62  20.0 -73.3  34002  286.89 0855.43
2009/04/23 08:06:10.9      17    -22    -49     29     56 142.2 -70.1  34000  286.88 0855.43
2009/04/23 08:06:11.0       0    -21    -66     22     69 180.9 -85.4  34000  286.88 0855.43
2009/04/23 08:06:11.1      35    -10    -73     37     81 106.8 -75.8  34002  286.89 0855.43
2009/04/23 08:06:11.2     107     16    -90    109    141  81.2 -48.1  34004  286.94 0855.43
2009/04/23 08:06:11.3     130     34   -103    135    169  75.4 -45.8  34004  286.94 0855.43
2009/04/23 08:06:11.4      92     63   -106    112    154  55.4 -52.9  34002  286.89 0855.43
2009/04/23 08:06:11.5     116    112    -97    162    188  46.0 -38.4  33992  286.74 0855.43
2009/04/23 08:06:11.6     134    128    -53    186    193  46.2 -20.7  33986  286.64 0855.43
2009/04/23 08:06:11.7     200    110     -1    229    230  61.2  -0.5  33988  286.67 0855.43
2009/04/23 08:06:11.8     115    128    -56    173    182  42.1 -17.9  33994  286.78 0855.43
2009/04/23 08:06:11.9      67     99    -43    120    127  34.3 -24.4  33998  286.84 0855.43
2009/04/23 08:06:12.0      30     64    -42     72     83  25.5 -37.3  33996  286.81 0855.43
2009/04/23 08:06:12.1      59     81    -30    101    105  36.1 -21.7  33992  286.74 0855.43
2009/04/23 08:06:12.2      81    181   -141    199    243  24.3 -43.0  33994  286.76 0855.43
2009/04/23 08:06:12.3     165     76     63    182    193  65.2  19.2  33972  286.41 0855.43
2009/04/23 08:06:12.4     178     70     86    192    210  68.3  25.9  33984  286.59 0855.43
2009/04/23 08:06:12.5     123    175     26    215    217  35.2   7.1  33986  286.62 0855.43
2009/04/23 08:06:12.6     -27     12    -44     30     53 295.2 -67.0  33992  286.73 0855.43
2009/04/23 08:06:12.7     111     -8     73    112    133  94.3  35.6  33986  286.64 0855.43
2009/04/23 08:06:12.8     139     40     51    145    154  73.6  19.4  33984  286.61 0855.43
2009/04/23 08:06:12.9     213     79     -5    228    229  69.6  -1.3  33988  286.67 0855.43
2009/04/23 08:06:13.0     168     92    -32    192    195  61.1  -9.6  33992  286.73 0855.44
2009/04/23 08:06:13.1     230     38     85    234    248  80.5  20.7  33990  286.68 0855.44
2009/04/23 08:06:13.2     217      9     86    218    234  87.5  22.8  33990  286.69 0855.44
2009/04/23 08:06:13.3     156    -42     90    162    185 105.3  31.4  33988  286.67 0855.44
2009/04/23 08:06:13.4     102     -4     65    103    121  92.6  35.5  33990  286.69 0855.44
2009/04/23 08:06:13.5       8    109     28    110    114   4.5  14.7  33992  286.73 0855.44
2009/04/23 08:06:13.6      25     23    -26     35     43  46.9 -45.1  33990  286.69 0855.44
2009/04/23 08:06:13.7      55    -58    -64     81    103 136.3 -47.1  33988  286.67 0855.44
2009/04/23 08:06:13.8      19    -52   -148     56    158 160.0 -82.8  33990  286.71 0855.44
2009/04/23 08:06:13.9     -50     41   -123     65    139 309.5 -74.2  33994  286.78 0855.44
2009/04/23 08:06:14.0     -64     55   -140     85    163 310.4 -70.4  33998  286.83 0855.44
2009/04/23 08:06:14.1      13    -21   -146     26    148 147.5 -90.0  33998  286.83 0855.44
2009/04/23 08:06:14.2     129    -90    -89    158    181 125.1 -36.0  33998  286.83 0855.44
2009/04/23 08:06:14.3    -113   -155   -167    192    254 216.1 -50.0  33998  286.82 0855.44
2009/04/23 08:06:14.4     -96   -136   -173    167    240 215.2 -55.6  33994  286.78 0855.44
2009/04/23 08:06:14.5     -67    -48   -189     83    206 234.0 -79.3  34002  286.89 0855.44
2009/04/23 08:06:14.6    -118    -39   -200    125    235 251.4 -69.5  33996  286.79 0855.44
2009/04/23 08:06:14.7     -48   -116   -182    126    221 202.7 -66.8  33990  286.71 0855.44
2009/04/23 08:06:14.8     -27    -81   -175     86    194 198.3 -76.8  33988  286.67 0855.44
2009/04/23 08:06:14.9     -54   -270   -150    276    314 191.5 -35.2  33994  286.77 0855.44
2009/04/23 08:06:15.0      -8   -291   -109    292    311 181.6 -25.4  33994  286.75 0855.45
2009/04/23 08:06:15.1      30   -276    -76    278    289 173.8 -15.4  33994  286.77 0855.45
2009/04/23 08:06:15.2      54   -273     16    279    280 168.7   3.3  33996  286.80 0855.45
2009/04/23 08:06:15.3     115   -274     97    298    314 157.3  18.1  33994  286.77 0855.45
2009/04/23 08:06:15.4      73   -132    101    152    182 151.0  36.5  33990  286.69 0855.45
2009/04/23 08:06:15.5      37    -74    109     83    137 153.3  58.5  33996  286.79 0855.45
2009/04/23 08:06:15.6       5     46     73     47     86   6.2  64.6  33992  286.74 0855.45
2009/04/23 08:06:15.7      28     50     75     58     94  29.9  58.5  33994  286.78 0855.45
2009/04/23 08:06:15.8     -51     67     -5     85     86 322.6  -3.7  33994  286.76 0855.45
2009/04/23 08:06:15.9     -95    -14   -140     97    170 261.2 -66.5  33994  286.78 0855.45
2009/04/23 08:06:16.0     -72    -67    -65     99    118 226.9 -40.9  33994  286.78 0855.45
2009/04/23 08:06:16.1     -61    -93    -12    112    113 213.4  -6.2  33992  286.74 0855.45
2009/04/23 08:06:16.2    -135   -125    -10    185    186 227.3  -3.1  33994  286.78 0855.45
2009/04/23 08:06:16.3    -132   -120    -36    179    183 227.6 -11.5  33996  286.79 0855.45
2009/04/23 08:06:16.4    -127   -146     -2    194    195 221.0  -0.7  33998  286.83 0855.45
2009/04/23 08:06:16.5    -107   -141    -15    178    179 217.2  -4.9  34000  286.86 0855.45
2009/04/23 08:06:16.6    -105   -150     -7    184    185 215.0  -2.2  34000  286.88 0855.45
2009/04/23 08:06:16.7    -111   -175    -26    208    210 212.5  -7.3  33992  286.74 0855.45
2009/04/23 08:06:16.8    -218   -103    -54    242    249 244.6 -12.6  33996  286.80 0855.45
2009/04/23 08:06:16.9    -202    -95    -57    224    232 244.7 -14.3  33998  286.84 0855.45
2009/04/23 08:06:17.0    -101    -32      8    106    107 252.3   4.4  33998  286.83 0855.45
2009/04/23 08:06:17.1     -98    -26    -40    102    109 255.0 -26.9  33998  286.84 0855.45
2009/04/23 08:06:17.2     -96    -61    -17    114    116 237.6  -8.8  34000  286.86 0855.45
2009/04/23 08:06:17.3     -67    -53    -22     86     89 231.4 -14.5  33998  286.84 0855.45
2009/04/23 08:06:17.4     -78     -5     -3     79     80 265.7  -2.2  34000  286.86 0855.45
2009/04/23 08:06:17.5     -66     42     -3     79     80 302.4  -2.2  33998  286.83 0855.45
2009/04/23 08:06:17.6     -82     84     18    118    120 315.5   8.9  33996  286.79 0855.45
2009/04/23 08:06:17.7     -92     77      1    121    122 310.0   0.8  33998  286.83 0855.45
2009/04/23 08:06:17.8    -110     49      6    121    122 294.0   3.3  34000  286.86 0855.45
2009/04/23 08:06:17.9     -49     43    -19     66     68 311.3 -21.7  33998  286.83 0855.45
2009/04/23 08:06:18.0     -44     80    -45     92    102 331.0 -31.7  33996  286.81 0855.45
2009/04/23 08:06:18.1    -177     97    -64    202    212 298.8 -17.6  33996  286.79 0855.45
2009/04/23 08:06:18.2    -138     74    -47    157    164 298.2 -16.8  33996  286.79 0855.45
2009/04/23 08:06:18.3    -182     60     -8    192    193 288.4  -2.6  33994  286.76 0855.45
2009/04/23 08:06:18.4    -204    -12    -13    205    206 266.5  -3.7  33994  286.76 0855.45
2009/04/23 08:06:18.5    -233     11    -39    234    238 272.8  -9.6  33986  286.63 0855.45
2009/04/23 08:06:18.6    -275     27    -43    277    281 275.7  -9.0  33986  286.62 0855.45
2009/04/23 08:06:18.7    -296     79    -12    307    308 285.0  -2.2  33990  286.68 0855.45
2009/04/23 08:06:18.8    -203    226   -137    304    333 318.1 -30.3  33994  286.75 0855.45
2009/04/23 08:06:18.9     -99    235    -32    256    259 337.2  -7.3  33994  286.77 0855.45
2009/04/23 08:06:19.0    -162     70     37    177    181 293.3  12.0  33994  286.76 0855.45
2009/04/23 08:06:19.1    -294     50    -38    299    302 279.7  -7.3  33990  286.68 0855.45
2009/04/23 08:06:19.2    -291     -3    -62    292    299 269.4 -12.2  33990  286.68 0855.45
2009/04/23 08:06:19.3    -211     43      3    216    217 281.7   0.8  33990  286.69 0855.45
2009/04/23 08:06:19.4    -113     68    124    132    181 301.1  48.0  33990  286.71 0855.45
2009/04/23 08:06:19.5     -44    -43    191     62    200 226.0  81.2  33992  286.73 0855.45
2009/04/23 08:06:19.6     -15     47    112     50    122 341.7  74.9  33994  286.78 0855.45
2009/04/23 08:06:19.7     -90     41     77    100    126 294.8  41.6  33996  286.79 0855.45
2009/04/23 08:06:19.8    -176    -47     11    183    184 255.0   3.6  33994  286.76 0855.45
2009/04/23 08:06:19.9    -173     67     96    186    209 291.3  29.3  33996  286.79 0855.45
2009/04/23 08:06:20.0    -206     56     78    214    227 285.3  20.9  33996  286.81 0855.45
2009/04/23 08:06:20.1     -74     87     82    115    141 319.5  39.5  33992  286.74 0855.45
2009/04/23 08:06:20.2      -7    112    101    113    151 356.0  46.4  33996  286.81 0855.45
2009/04/23 08:06:20.3       0    115     41    116    124   0.5  19.4  33996  286.81 0855.45
2009/04/23 08:06:20.4     -21     82     33     85     91 345.3  22.0  33998  286.83 0855.45
2009/04/23 08:06:20.5     -24     27     49     37     61 318.6  59.4  33996  286.81 0855.45
2009/04/23 08:06:20.6      -3     52     30     53     60 356.4  31.4  33998  286.83 0855.45
2009/04/23 08:06:20.7      30     63      8     70     71  25.5   6.9  33996  286.79 0855.45
2009/04/23 08:06:20.8      17     18     18     25     30  43.4  39.7  33996  286.81 0855.45
2009/04/23 08:06:20.9      70     24     35     75     82  70.9  26.6  33996  286.79 0855.45
2009/04/23 08:06:21.0      16     87     93     89    128  10.7  51.2  33994  286.78 0855.45
2009/04/23 08:06:21.1     -19    234     91    235    252 355.1  22.1  33996  286.80 0855.45
2009/04/23 08:06:21.2     -35    302     65    305    312 353.3  12.1  33994  286.77 0855.45
2009/04/23 08:06:21.3       0    328     -7    329    330   0.0  -1.3  33994  286.78 0855.45
2009/04/23 08:06:21.4      63    343     63    349    355  10.5  10.3  33994  286.75 0855.45
2009/04/23 08:06:21.5      88    324     35    336    338  15.3   6.0  33994  286.78 0855.45
2009/04/23 08:06:21.6      66    324     51    331    336  11.6   8.9  33996  286.80 0855.45
2009/04/23 08:06:21.7       0    360    -14    361    362 359.9  -2.2  33998  286.83 0855.45
2009/04/23 08:06:21.8      19    369     13    370    371   3.0   2.1  33994  286.78 0855.45
2009/04/23 08:06:21.9     -46    347     86    351    362 352.4  13.8  33994  286.75 0855.45
2009/04/23 08:06:22.0    -129    320     36    346    348 338.1   6.1  33996  286.80 0855.45
2009/04/23 08:06:22.1    -199    334    -67    389    395 329.2  -9.9  34008  287.00 0855.45
2009/04/23 08:06:22.2    -138    323    -25    352    353 336.8  -4.1  34008  287.00 0855.45
2009/04/23 08:06:22.3    -120    337    -19    359    360 340.3  -3.2  34010  287.03 0855.45
2009/04/23 08:06:22.4    -148    317    -46    350    354 335.0  -7.6  34010  287.03 0855.45
2009/04/23 08:06:22.5     -99    326    -43    341    344 343.1  -7.2  34010  287.03 0855.45
2009/04/23 08:06:22.6     -82    322    -42    333    336 345.6  -7.3  34008  287.00 0855.45
2009/04/23 08:06:22.7     -60    322    -41    328    331 349.4  -7.2  34008  287.00 0855.45
2009/04/23 08:06:22.8     -44    313    -20    317    318 351.9  -3.7  34006  286.95 0855.45
2009/04/23 08:06:22.9     -63    318    -47    325    329 348.7  -8.4  34004  286.92 0855.45
2009/04/23 08:06:23.0    -128    284    -69    312    320 335.7 -12.6  34004  286.94 0855.45
2009/04/23 08:06:23.1     -62    278    -62    285    292 347.3 -12.4  34004  286.94 0855.45
2009/04/23 08:06:23.2    -104    247    -74    269    280 337.1 -15.4  34004  286.92 0855.45
2009/04/23 08:06:23.3    -124    286   -109    312    331 336.6 -19.3  34006  286.95 0855.45
2009/04/23 08:06:23.4    -134    297   -114    326    346 335.7 -19.4  34004  286.93 0855.45
2009/04/23 08:06:23.5    -196    280    -85    342    353 325.0 -14.1  34000  286.88 0855.45
2009/04/23 08:06:23.6     -65    233    -73    242    252 344.4 -21.7  33998  286.82 0855.45
2009/04/23 08:06:23.7     -74    221   -126    234    265 341.5 -35.2  34000  286.87 0855.45
2009/04/23 08:06:23.8     -82    198   -153    215    263 337.5 -43.5  34006  286.97 0855.45
2009/04/23 08:06:23.9    -160     27   -146    163    218 279.6 -51.0  33996  286.79 0855.45
2009/04/23 08:06:24.0    -198     73    -90    212    230 290.2 -29.0  33990  286.71 0855.45
2009/04/23 08:06:24.1    -198    175   -148    265    303 311.6 -35.8  34000  286.85 0855.45
2009/04/23 08:06:24.2    -308    235   -158    388    418 307.3 -27.6  34008  287.01 0855.45
2009/04/23 08:06:24.3    -331    243   -152    411    438 306.3 -25.4  34008  286.99 0855.45
2009/04/23 08:06:24.4    -220    229    -90    318    330 316.1 -20.5  33998  286.82 0855.45
2009/04/23 08:06:24.5    -250    193    -94    316    329 307.7 -21.6  34006  286.97 0855.45
2009/04/23 08:06:24.6    -349    221   -175    414    449 302.4 -28.6  34002  286.89 0855.45
2009/04/23 08:06:24.7    -280    260   -135    383    407 312.9 -19.5  34002  286.91 0855.45
2009/04/23 08:06:24.8    -199    256   -165    325    364 322.2 -33.5  34006  286.96 0855.45
2009/04/23 08:06:24.9    -158    126    -69    203    214 308.6 -23.3  34004  286.93 0855.45
2009/04/23 08:06:25.0     -79    123    -40    147    153 327.4 -15.5  34000  286.86 0855.45
2009/04/23 08:06:25.1     -15    202    -68    203    215 355.5 -18.7  33994  286.78 0855.45
2009/04/23 08:06:25.2    -102     92    -47    138    145 312.2 -23.3  33996  286.79 0855.45
2009/04/23 08:06:25.3     -86    152     30    175    178 330.4   9.9  33996  286.81 0855.45
2009/04/23 08:06:25.4     -89    207     73    226    238 336.8  17.9  33998  286.84 0855.45
2009/04/23 08:06:25.5    -115    146     41    187    192 321.7  12.6  34000  286.88 0855.45
2009/04/23 08:06:25.6     -82    199     -4    216    217 337.5  -1.3  33998  286.83 0855.45
2009/04/23 08:06:25.7    -105    250     74    272    283 337.1  15.3  34000  286.85 0855.45
2009/04/23 08:06:25.8    -170    313    -34    357    359 331.5  -5.6  33996  286.80 0855.45
2009/04/23 08:06:25.9    -217    286    -81    360    370 322.8 -12.7  34012  287.07 0855.45
2009/04/23 08:06:26.0    -300    292    -38    419    421 314.2  -5.3  34006  286.97 0855.45
2009/04/23 08:06:26.1    -280    297     -3    409    410 316.7  -0.5  34010  287.04 0855.45
2009/04/23 08:06:26.2    -218    304    -57    375    380 324.4  -8.7  34006  286.96 0855.45
2009/04/23 08:06:26.3    -214    286    -61    358    364 323.3  -9.7  34000  286.88 0855.45
2009/04/23 08:06:26.4    -167    323    -61    364    370 332.6  -9.6  34000  286.85 0855.45
2009/04/23 08:06:26.5    -241    217    -95    325    338 312.0 -21.1  34006  286.96 0855.45
2009/04/23 08:06:26.6    -219    219   -102    311    327 315.0 -23.5  34002  286.90 0855.45
2009/04/23 08:06:26.7    -229    197   -101    303    319 310.7 -23.6  34002  286.90 0855.45
2009/04/23 08:06:26.8    -211    186   -113    282    303 311.3 -27.4  34000  286.87 0855.45
2009/04/23 08:06:26.9    -233    224   -102    324    339 313.9 -22.6  34006  286.98 0855.45
2009/04/23 08:06:27.0    -215    216   -118    305    327 315.1 -26.6  34006  286.97 0855.46
2009/04/23 08:06:27.1    -102    288   -111    306    325 340.4 -25.1  34000  286.85 0855.46
2009/04/23 08:06:27.2     -64    275   -143    283    317 346.7 -33.3  33998  286.84 0855.46
2009/04/23 08:06:27.3      -6    389   -147    390    416 359.1 -26.1  33992  286.74 0855.46
2009/04/23 08:06:27.4     -44    343   -157    346    379 352.7 -30.4  34000  286.85 0855.46
2009/04/23 08:06:27.5     -67    330   -180    337    382 348.4 -34.9  33998  286.83 0855.46
2009/04/23 08:06:27.6     -40    342   -152    345    377 353.3 -29.6  33996  286.81 0855.46
2009/04/23 08:06:27.7      -6    333    -92    334    347 358.9 -15.5  33994  286.76 0855.46
2009/04/23 08:06:27.8     -46    298    -58    302    308 351.1 -10.9  33990  286.68 0855.46
2009/04/23 08:06:27.9     -40    288   -110    291    311 352.0 -25.9  33994  286.77 0855.46
2009/04/23 08:06:28.0      35    295    -17    298    299   6.9  -3.3  33990  286.70 0855.46
2009/04/23 08:06:28.1       4    298    -53    299    304   0.9 -10.1  33998  286.82 0855.46
2009/04/23 08:06:28.2      43    405   -129    408    429   6.1 -17.6  33990  286.69 0855.46
2009/04/23 08:06:28.3       0    364   -123    365    385   0.0 -23.5  33992  286.73 0855.46
2009/04/23 08:06:28.4     -61    282     62    289    296 347.7  12.2  33994  286.75 0855.46
2009/04/23 08:06:28.5     -55    232     73    239    251 346.6  17.1  33994  286.77 0855.46
2009/04/23 08:06:28.6     -48    312      2    316    317 351.1   0.4  33992  286.74 0855.46
2009/04/23 08:06:28.7     -71    304    120    313    335 346.7  22.0  33990  286.68 0855.46
2009/04/23 08:06:28.8      19    411    109    412    427   2.7  14.9  33996  286.81 0855.46
2009/04/23 08:06:28.9     100    372     62    386    392  15.1   9.2  33994  286.78 0855.46
2009/04/23 08:06:29.0     165    278    -22    324    325  30.8  -3.9  33992  286.74 0855.46
2009/04/23 08:06:29.1     243    269     62    363    369  42.0   9.7  33994  286.76 0855.46
2009/04/23 08:06:29.2     260    228    106    347    364  48.7  17.1  33994  286.76 0855.46
2009/04/23 08:06:29.3     275    209    107    346    363  52.8  17.3  33994  286.76 0855.46
2009/04/23 08:06:29.4     295    158    125    335    357  61.7  21.4  33994  286.78 0855.46
2009/04/23 08:06:29.5     251    235     74    345    353  46.9  12.2  33998  286.83 0855.46
2009/04/23 08:06:29.6     170    245     81    299    310  34.7  15.2  33998  286.82 0855.46
2009/04/23 08:06:29.7     189    142    123    237    267  52.9  29.5  34000  286.85 0855.46
2009/04/23 08:06:29.8     209    152    132    259    290  54.0  29.2  33998  286.82 0855.46
2009/04/23 08:06:29.9     201    181    171    271    320  48.0  35.3  33994  286.77 0855.46
2009/04/23 08:06:30.0     218    180    132    283    312  50.5  26.9  34000  286.85 0855.46
2009/04/23 08:06:30.2     208    158    181    262    318  52.7  38.0  33994  286.77 0855.46
2009/04/23 08:06:30.2     254    180     67    312    320  54.7  12.1  33996  286.79 0855.46
2009/04/23 08:06:30.4     153    184     90    240    256  39.6  21.7  33996  286.80 0855.46
2009/04/23 08:06:30.5     100    202     85    226    241  26.3  21.5  33998  286.84 0855.46
2009/04/23 08:06:30.6     161    109    108    195    222  55.8  31.4  33996  286.79 0855.46
2009/04/23 08:06:30.7     151     86    106    174    203  60.2  34.4  33994  286.78 0855.46
2009/04/23 08:06:30.8     148    135    165    201    260  47.6  43.7  33990  286.70 0855.46
2009/04/23 08:06:30.9      74    229    -39    241    245  18.0  -9.4  33994  286.75 0855.46
2009/04/23 08:06:31.0      17    281    -66    282    290   3.5 -13.2  33998  286.82 0855.46
2009/04/23 08:06:31.1     164    153    -54    225    232  47.1 -13.7  33990  286.69 0855.45
2009/04/23 08:06:31.2     350    214     -8    411    412  58.6  -1.2  33992  286.74 0855.45
2009/04/23 08:06:31.3     308    217      0    378    379  54.8   0.1  33992  286.73 0855.45
2009/04/23 08:06:31.4     310    185     15    362    363  59.2   2.5  33994  286.76 0855.45
2009/04/23 08:06:31.5     314    211    103    379    393  56.1  15.3  33990  286.68 0855.45
2009/04/23 08:06:31.6     369    124    149    390    417  71.4  22.0  33982  286.55 0855.45
2009/04/23 08:06:31.7     328    160    127    366    388  64.0  19.2  33990  286.71 0855.45
2009/04/23 08:06:31.8     368    157     82    401    410  66.9  11.6  33990  286.69 0855.45
2009/04/23 08:06:31.9     279    100     52    297    302  70.3  10.0  33988  286.65 0855.45
2009/04/23 08:06:32.0     306    100     78    323    333  71.8  13.7  33992  286.73 0855.45
2009/04/23 08:06:32.1     307    101    136    324    351  71.8  24.2  33986  286.64 0855.45
2009/04/23 08:06:32.2     315    -55     99    320    336 100.0  17.2  33990  286.71 0855.45
2009/04/23 08:06:32.3     268     -4     25    269    271  91.0   5.4  33990  286.68 0855.45
2009/04/23 08:06:32.4     192    -58     67    201    213 106.9  18.6  33992  286.74 0855.45
2009/04/23 08:06:32.5     281   -122     35    307    310 113.5   6.6  33996  286.80 0855.45
2009/04/23 08:06:32.6     292    -59    161    298    338 101.5  30.8  33990  286.70 0855.45
2009/04/23 08:06:32.7     242   -176    110    300    319 126.0  21.0  33994  286.75 0855.45
2009/04/23 08:06:32.8     287   -153    111    326    345 118.0  18.9  33994  286.78 0855.45
2009/04/23 08:06:32.9     375   -119    139    394    417 107.7  20.0  33996  286.81 0855.45
2009/04/23 08:06:33.0     284    -41    186    288    342  98.4  35.7  33992  286.74 0855.45
2009/04/23 08:06:33.1     312   -119    112    335    354 111.0  18.5  33990  286.71 0855.44
2009/04/23 08:06:33.2     282    -94    132    298    325 108.6  25.6  33992  286.72 0855.44
2009/04/23 08:06:33.3     278    -96     96    295    311 109.1  18.1  33990  286.70 0855.44
2009/04/23 08:06:33.4     249    -89     -5    265    266 109.7  -1.1  33990  286.68 0855.44
2009/04/23 08:06:33.5     253    -14    131    254    285  93.3  29.3  33990  286.70 0855.44
2009/04/23 08:06:33.6     261     47    -10    266    267  79.6  -2.2  33988  286.67 0855.44
2009/04/23 08:06:33.7     223     57    -38    231    235  75.6  -9.3  33992  286.72 0855.44
2009/04/23 08:06:33.8     227     75     45    240    245  71.6  10.8  33990  286.68 0855.44
2009/04/23 08:06:33.9     280     90     46    295    299  72.2   9.0  33984  286.60 0855.44
2009/04/23 08:06:34.0     258    138     92    293    308  61.8  17.4  33990  286.70 0855.44
2009/04/23 08:06:34.1     237     82    127    251    281  70.9  29.2  33992  286.72 0855.44
2009/04/23 08:06:34.2     179     60    115    189    221  71.4  34.4  33986  286.64 0855.44
2009/04/23 08:06:34.3     150     77     86    169    189  62.7  28.7  33986  286.62 0855.44
2009/04/23 08:06:34.4     159     69      2    174    175  66.5   0.8  33988  286.66 0855.44
2009/04/23 08:06:34.5     150     95    -36    178    182  57.6 -11.6  33992  286.73 0855.44
2009/04/23 08:06:34.6     145     87    -23    170    172  58.9  -7.7  33990  286.71 0855.44
2009/04/23 08:06:34.7     151     41    -49    157    164  74.9 -22.8  33994  286.76 0855.44
2009/04/23 08:06:34.8     140    -14    -47    141    148  96.1 -23.6  33992  286.73 0855.44
2009/04/23 08:06:34.9     150     61    -49    163    171  67.8 -16.8  33990  286.69 0855.44
2009/04/23 08:06:35.0     102    109    -16    150    151  43.2  -6.2  33988  286.67 0855.44
2009/04/23 08:06:35.1     122    110     -6    165    166  48.0  -2.2  33990  286.71 0855.45
2009/04/23 08:06:35.2     112     46     43    122    130  67.4  19.4  33990  286.69 0855.45
2009/04/23 08:06:35.3     105    105     60    149    160  45.0  23.0  33988  286.66 0855.45
2009/04/23 08:06:35.4     110    140     63    179    191  38.3  19.6  33988  286.66 0855.45
2009/04/23 08:06:35.5      97    186     93    210    229  27.6  25.3  33988  286.67 0855.45
2009/04/23 08:06:35.6     128    207    124    244    273  31.6  29.2  33984  286.58 0855.45
2009/04/23 08:06:35.7      75    208    119    222    251  19.8  30.3  33988  286.67 0855.45
2009/04/23 08:06:35.8     128    177     87    219    235  35.8  23.0  33988  286.66 0855.45
2009/04/23 08:06:35.9     151    137    107    204    230  47.8  29.8  33988  286.66 0855.45
2009/04/23 08:06:36.0      87    179    121    200    233  25.9  34.2  33984  286.59 0855.45
2009/04/23 08:06:36.1      54    287    112    293    313  10.7  22.0  33990  286.68 0855.45
2009/04/23 08:06:36.2      73    309    108    318    336  13.3  18.8  33990  286.71 0855.45
2009/04/23 08:06:36.3      91    303     70    317    325  16.7  12.6  33990  286.68 0855.45
2009/04/23 08:06:36.4      82    303     74    315    324  15.2  13.3  33990  286.68 0855.45
2009/04/23 08:06:36.5      49    288     56    293    299   9.8  10.8  33988  286.67 0855.45
2009/04/23 08:06:36.6      46    271     53    275    281   9.7  11.0  33992  286.72 0855.45
2009/04/23 08:06:36.7      75    282     14    292    293  15.1   2.9  33988  286.67 0855.45
2009/04/23 08:06:36.8      25    284     -2    286    287   5.1  -0.5  33990  286.68 0855.45
2009/04/23 08:06:36.9      36    289     14    292    293   7.1   2.8  33992  286.74 0855.45
2009/04/23 08:06:37.0      40    281     62    284    291   8.1  12.4  33992  286.72 0855.45
2009/04/23 08:06:37.1      19    267     77    268    279   4.2  16.0  33988  286.67 0855.45
2009/04/23 08:06:37.2     -16    275     77    276    287 356.5  15.6  33982  286.55 0855.45
2009/04/23 08:06:37.3     -70    254     92    264    280 344.4  19.2  33982  286.57 0855.45
2009/04/23 08:06:37.4     -93    278     57    294    300 341.5  11.0  33986  286.63 0855.45
2009/04/23 08:06:37.5     -70    259     78    269    281 344.8  16.3  33986  286.63 0855.45
2009/04/23 08:06:37.6     -76    249     94    261    278 343.0  19.9  33986  286.62 0855.45
2009/04/23 08:06:37.7     -55    270    115    276    299 348.4  23.8  33986  286.62 0855.45
2009/04/23 08:06:37.8      65    286    130    294    321  12.9  25.3  33984  286.58 0855.45
2009/04/23 08:06:37.9      60    320    171    326    368  10.7  29.8  33986  286.63 0855.45
2009/04/23 08:06:38.0     174    204    173    269    319  40.5  35.7  33982  286.55 0855.45
2009/04/23 08:06:38.1     136    236    149    273    311  29.9  31.3  33982  286.57 0855.46
2009/04/23 08:06:38.2     256    237    214    349    409  47.2  34.5  33990  286.68 0855.46
2009/04/23 08:06:38.3     267    237    214    358    417  48.4  33.6  33984  286.58 0855.46
2009/04/23 08:06:38.4     264    220    198    344    396  50.2  32.6  33992  286.73 0855.46
2009/04/23 08:06:38.5     221    236    217    324    389  43.2  36.9  33990  286.71 0855.46
2009/04/23 08:06:38.6     173    237    202    294    356  36.1  37.8  33990  286.71 0855.46
2009/04/23 08:06:38.7     174    210    168    273    320  39.6  34.6  33988  286.67 0855.46
2009/04/23 08:06:38.8     136    263    157    297    335  27.4  30.2  33992  286.72 0855.46
2009/04/23 08:06:38.9      94    272    146    289    323  19.2  28.7  33990  286.70 0855.46
2009/04/23 08:06:39.0      72    288    105    297    316  14.2  19.6  33992  286.74 0855.46
2009/04/23 08:06:39.1      94    247     74    265    276  20.9  15.6  33992  286.74 0855.46
2009/04/23 08:06:39.2     133    293     50    322    326  24.5   8.9  33994  286.77 0855.46
2009/04/23 08:06:39.3     133    245     49    279    284  28.5  10.1  33996  286.79 0855.46
2009/04/23 08:06:39.4     191    217     57    290    296  41.4  11.1  33994  286.77 0855.46
2009/04/23 08:06:39.5     128    281     72    309    318  24.5  13.1  33994  286.75 0855.46
2009/04/23 08:06:39.6     108    200    110    228    253  28.5  27.4  33994  286.75 0855.46
2009/04/23 08:06:39.7     102    245    158    266    309  22.7  33.5  33994  286.77 0855.46
2009/04/23 08:06:39.8     158    285    139    326    354  29.0  24.6  33990  286.71 0855.46
2009/04/23 08:06:39.9     154    279    141    319    348  28.9  25.6  33994  286.78 0855.46
2009/04/23 08:06:40.0     121    261    110    288    308  24.9  22.0  33996  286.79 0855.46
2009/04/23 08:06:40.1     118    268    105    294    312  23.8  20.3  33994  286.77 0855.45
2009/04/23 08:06:40.2     118    269    140    294    325  23.7  27.3  33994  286.75 0855.45
2009/04/23 08:06:40.3     112    238    148    264    302  25.3  31.6  33994  286.75 0855.45
2009/04/23 08:06:40.4     102    216    164    240    290  25.3  37.6  33994  286.75 0855.45
2009/04/23 08:06:40.5     146    194    118    244    271  37.0  27.3  33994  286.77 0855.45
2009/04/23 08:06:40.6     175    235    170    294    339  36.7  32.8  33994  286.75 0855.45
2009/04/23 08:06:40.7     174    188    139    257    292  42.8  31.3  33992  286.72 0855.45
2009/04/23 08:06:40.8      71    274    152    284    322  14.5  30.6  33988  286.65 0855.45
2009/04/23 08:06:40.9      38    376     69    378    385   5.8  10.4  33984  286.61 0855.45
2009/04/23 08:06:41.0      87    262    143    277    311  18.5  29.6  33986  286.63 0855.45
2009/04/23 08:06:41.1     118    310     73    332    341  20.9  12.5  33992  286.73 0855.45
2009/04/23 08:06:41.2     202    254     97    325    340  38.5  16.6  33994  286.75 0855.45
2009/04/23 08:06:41.3     336    226    108    406    421  56.1  15.0  33986  286.64 0855.45
2009/04/23 08:06:41.4     247    251     95    353    366  44.5  15.1  33994  286.76 0855.45
2009/04/23 08:06:41.5     166    252    118    303    325  33.4  22.3  33994  286.75 0855.45
2009/04/23 08:06:41.6     204    247    111    321    340  39.6  19.1  33994  286.76 0855.45
2009/04/23 08:06:41.7     213    218    102    306    323  44.3  18.6  33994  286.75 0855.45
2009/04/23 08:06:41.8     191    265     95    328    342  35.8  16.3  33994  286.76 0855.45
2009/04/23 08:06:41.9     177    249     65    306    314  35.4  12.1  33992  286.72 0855.45
2009/04/23 08:06:42.0     171    269    121    320    342  32.5  21.6  33990  286.69 0855.45
2009/04/23 08:06:42.1     243    159     74    291    301  56.7  14.3  33990  286.70 0855.45
2009/04/23 08:06:42.2     235    153    132    281    310  56.9  27.1  33990  286.68 0855.45
2009/04/23 08:06:42.3     356    108     68    373    380  73.1  10.3  33984  286.58 0855.45
2009/04/23 08:06:42.4     343    228    127    413    433  56.4  17.2  33992  286.72 0855.45
2009/04/23 08:06:42.5     302    211    140    369    394  55.1  21.8  33990  286.69 0855.45
2009/04/23 08:06:42.6     331    261    113    422    437  51.8  15.0  33992  286.72 0855.45
2009/04/23 08:06:42.7     331    221     85    399    409  56.3  12.1  33984  286.59 0855.45
2009/04/23 08:06:42.8     365    222    105    428    441  58.7  13.8  33982  286.57 0855.45
2009/04/23 08:06:42.9     453    208    174    499    529  65.3  19.3  33984  286.58 0855.45
2009/04/23 08:06:43.0     421    208    246    470    530  63.7  29.8  33982  286.56 0855.45
2009/04/23 08:06:43.1     387    121    135    406    429  72.6  18.5  33982  286.55 0855.45
2009/04/23 08:06:43.2     264    100     68    283    292  69.2  13.5  33984  286.60 0855.45
2009/04/23 08:06:43.3     286     98     99    303    319  70.9  18.1  33970  286.36 0855.45
2009/04/23 08:06:43.4     374    -29    136    376    399  94.5  20.7  33974  286.43 0855.45
2009/04/23 08:06:43.5     289     67     99    297    314  76.8  18.5  33978  286.48 0855.45
2009/04/23 08:06:43.6     319    108    186    338    385  71.2  31.3  33984  286.59 0855.45
2009/04/23 08:06:43.7     194     52    166    201    260  74.9  43.7  33980  286.53 0855.45
2009/04/23 08:06:43.8     214     35    179    217    281  80.5  43.8  33982  286.55 0855.45
2009/04/23 08:06:43.9     239     77    191    252    316  72.1  40.9  33984  286.58 0855.45
2009/04/23 08:06:44.0     290     88    151    304    339  73.1  28.4  33982  286.57 0855.45
2009/04/23 08:06:44.1     220     86     85    237    251  68.5  20.4  33984  286.58 0855.45
2009/04/23 08:06:44.2     239     86     97    255    272  70.1  22.0  33986  286.63 0855.45
2009/04/23 08:06:44.3     191     76    137    206    247  68.3  36.5  33990  286.70 0855.45
2009/04/23 08:06:44.4     137     41    127    144    192  73.2  46.2  33988  286.66 0855.45
2009/04/23 08:06:44.5     182     67    181    195    266  69.8  47.9  33986  286.62 0855.45
2009/04/23 08:06:44.6      92    195    138    216    256  25.3  35.6  33988  286.67 0855.45
2009/04/23 08:06:44.7     188     36    225    192    295  79.0  55.4  33986  286.62 0855.45
2009/04/23 08:06:44.8      54     45    141     71    157  50.4  71.1  33990  286.69 0855.45
2009/04/23 08:06:44.9      -4     45    113     46    122 353.8  77.1  33988  286.67 0855.45
2009/04/23 08:06:45.0     155    151    131    217    253  45.6  34.2  33988  286.65 0855.45
2009/04/23 08:06:45.1      76    167    165    184    247  24.5  46.6  33984  286.59 0855.45
2009/04/23 08:06:45.2     122    153    139    196    240  38.5  38.8  33986  286.62 0855.45
2009/04/23 08:06:45.3     170    189    162    255    302  42.1  35.5  33990  286.70 0855.45
2009/04/23 08:06:45.4     167    170    136    239    274  44.5  32.1  33984  286.60 0855.45
2009/04/23 08:06:45.5     257    121    183    285    338  64.7  35.6  33982  286.57 0855.45
2009/04/23 08:06:45.6     208     70    165    220    275  71.4  40.7  33982  286.55 0855.45
2009/04/23 08:06:45.7     126     57    142    139    198  65.6  50.4  33982  286.56 0855.45
2009/04/23 08:06:45.8     134     73    164    153    224  61.2  52.1  33984  286.59 0855.45
2009/04/23 08:06:45.9      88    138    138    164    214  32.6  44.3  33988  286.66 0855.45
2009/04/23 08:06:46.0      78    132    132    154    202  30.7  45.4  33990  286.69 0855.45
2009/04/23 08:06:46.1      78    113    129    138    188  34.7  48.0  33990  286.69 0855.44
2009/04/23 08:06:46.2      95    149    131    177    220  32.5  40.1  33990  286.69 0855.44
2009/04/23 08:06:46.3       0    123    142    124    188 359.6  54.3  33992  286.73 0855.44
2009/04/23 08:06:46.4      54    200    146    208    254  15.1  38.6  33990  286.70 0855.44
2009/04/23 08:06:46.5      95    130    107    162    194  36.1  36.0  33990  286.69 0855.44
2009/04/23 08:06:46.6      15     92     84     94    126   9.3  46.9  33990  286.71 0855.44
2009/04/23 08:06:46.7     -25    123     -9    126    127 348.5  -4.1  33996  286.81 0855.44
2009/04/23 08:06:46.8    -116    147     -2    188    189 321.9  -0.7  33994  286.78 0855.44
2009/04/23 08:06:46.9    -114    133     52    176    184 319.5  16.6  33994  286.78 0855.44
2009/04/23 08:06:47.0     -98     96     21    138    140 314.4   9.0  33998  286.83 0855.44
2009/04/23 08:06:47.1     -94     25    -16     98    100 285.1  -9.3  33994  286.78 0855.44
2009/04/23 08:06:47.2     -57     55     37     80     88 314.1  26.2  33994  286.78 0855.44
2009/04/23 08:06:47.3      20     76     53     79     95  15.1  36.5  33994  286.78 0855.44
2009/04/23 08:06:47.4      93    102     34    139    144  42.3  13.7  33994  286.78 0855.44
2009/04/23 08:06:47.5     149    106    -10    183    184  54.5  -3.1  33990  286.69 0855.44
2009/04/23 08:06:47.6     137     87    -28    163    166  57.6  -9.8  33986  286.62 0855.44
2009/04/23 08:06:47.7     185     79      2    202    203  66.7   0.8  33980  286.54 0855.44
2009/04/23 08:06:47.8     172    133    -44    218    223  52.3 -11.5  33982  286.57 0855.44
2009/04/23 08:06:47.9     191    138    -55    236    243  54.0 -13.2  33988  286.65 0855.44
2009/04/23 08:06:48.0     196    100     10    221    222  62.9   2.8  33988  286.67 0855.44
2009/04/23 08:06:48.1     201    120     20    235    236  59.3   4.9  33994  286.75 0855.44
2009/04/23 08:06:48.2     210    157     51    263    268  53.1  11.0  33992  286.72 0855.44
2009/04/23 08:06:48.3     180    105     82    209    224  59.6  22.5  33988  286.67 0855.44
2009/04/23 08:06:48.4     167    106     58    198    207  57.6  16.3  33990  286.71 0855.44
2009/04/23 08:06:48.5      95    102     79    140    160  43.2  31.9  33990  286.71 0855.44
2009/04/23 08:06:48.6     -10    125      6    126    127 355.1   2.8  33992  286.74 0855.44
2009/04/23 08:06:48.7     -42    102     29    111    115 337.3  14.7  33996  286.81 0855.44
2009/04/23 08:06:48.8    -130     52    -17    141    143 291.8  -7.2  33996  286.79 0855.44
2009/04/23 08:06:48.9     -22     99    -20    102    105 347.5 -11.5  33994  286.76 0855.44
2009/04/23 08:06:49.0     -32     21     -1     39     40 303.3  -2.2  33992  286.74 0855.44
2009/04/23 08:06:49.2     -53     -4     73     54     90 265.6  60.0  33994  286.78 0855.44
2009/04/23 08:06:49.3    -107      5     54    108    120 273.0  28.7  33992  286.74 0855.44
2009/04/23 08:06:49.3    -124     76     45    146    153 301.5  17.3  33996  286.79 0855.44
2009/04/23 08:06:49.4    -141     37    -24    146    148 285.1  -9.3  33996  286.79 0855.44
2009/04/23 08:06:49.5    -145    -39    -51    151    160 255.0 -18.7  33994  286.78 0855.44
2009/04/23 08:06:49.6    -162    -92    -89    187    207 240.5 -31.6  33994  286.76 0855.44
2009/04/23 08:06:49.7    -180    -67    -90    193    212 249.4 -31.4  33998  286.83 0855.44
2009/04/23 08:06:49.8    -151    -45   -132    158    205 253.2 -48.5  34000  286.86 0855.44
2009/04/23 08:06:49.9     -19     83    -73     86    112 347.1 -48.7  33994  286.78 0855.44
2009/04/23 08:06:50.0     -63     87    -56    108    121 324.0 -33.7  33996  286.79 0855.44
2009/04/23 08:06:50.1     -39     82    -76     91    118 334.6 -48.7  33998  286.84 0855.43
2009/04/23 08:06:50.2      18    129     14    131    132   8.0   6.5  33996  286.79 0855.43
2009/04/23 08:06:50.3     -31     79     49     86     98 338.2  31.9  34000  286.88 0855.43
2009/04/23 08:06:50.4     -59     92     64    110    127 327.4  32.9  33992  286.73 0855.43
2009/04/23 08:06:50.5     -97     15     80     99    127 278.8  43.3  33988  286.66 0855.43
2009/04/23 08:06:50.6     -60     17    115     63    131 285.9  68.9  33988  286.67 0855.43
2009/04/23 08:06:50.7    -112    114    122    160    201 315.5  41.4  33974  286.42 0855.43
2009/04/23 08:06:50.8     -48    203     71    209    222 346.6  18.9  33992  286.73 0855.43
2009/04/23 08:06:50.9       1    158    109    159    192   0.5  37.6  33984  286.61 0855.43
2009/04/23 08:06:51.0      14    144     91    145    171   5.8  35.5  33986  286.64 0855.43
2009/04/23 08:06:51.1     -17    104     33    106    112 350.7  17.3  33992  286.74 0855.43
2009/04/23 08:06:51.2     -27    135     40    138    144 348.5  16.3  33990  286.69 0855.43
2009/04/23 08:06:51.3      -3     67     54     68     86 357.3  42.7  33992  286.74 0855.43
2009/04/23 08:06:51.5     -21     85    -68     88    111 345.7 -46.6  33992  286.73 0855.43
2009/04/23 08:06:51.6     -60     99     11    116    117 328.8   5.4  33994  286.76 0855.43
2009/04/23 08:06:51.6     -45     55     -5     72     73 320.4  -4.1  33990  286.71 0855.43
2009/04/23 08:06:51.7    -147     16    -62    148    160 276.6 -28.5  33996  286.79 0855.43
2009/04/23 08:06:51.8    -228    -24    -15    230    231 263.8  -3.9  34006  286.98 0855.43
2009/04/23 08:06:51.9    -336     43    -14    339    340 277.4  -2.5  34004  286.93 0855.43
2009/04/23 08:06:52.0    -346     15    -72    347    355 272.5 -11.8  34006  286.98 0855.43
2009/04/23 08:06:52.1    -339     13   -116    340    360 272.3 -18.9  34018  287.17 0855.43
2009/04/23 08:06:52.2    -321     30   -113    323    343 275.5 -19.3  34018  287.17 0855.43
2009/04/23 08:06:52.3    -327      9   -104    328    345 271.7 -17.6  34018  287.18 0855.43
2009/04/23 08:06:52.4    -317     52    -99    322    338 279.4 -17.2  34012  287.08 0855.43
2009/04/23 08:06:52.5    -291    109    -86    311    323 290.6 -15.5  34004  286.94 0855.43
2009/04/23 08:06:52.6    -273    115    -72    297    306 292.8 -13.7  34002  286.90 0855.43
2009/04/23 08:06:52.7    -288    114    -89    310    323 291.7 -16.0  34002  286.90 0855.43
2009/04/23 08:06:52.8    -286    143    -57    320    326 296.6 -10.1  33998  286.84 0855.43
2009/04/23 08:06:52.9    -336     90    -95    348    361 285.1 -15.4  34006  286.98 0855.43
2009/04/23 08:06:53.0    -378    104    -83    393    402 285.4 -12.0  34004  286.93 0855.43
2009/04/23 08:06:53.1    -366    138   -116    392    409 290.7 -16.5  33992  286.74 0855.43
2009/04/23 08:06:53.2    -362    203    -91    416    426 299.3 -12.4  33996  286.79 0855.43
2009/04/23 08:06:53.3    -339    134    -85    365    375 291.7 -13.2  33992  286.73 0855.43
2009/04/23 08:06:53.4    -259    279    -20    381    382 317.1  -3.1  33984  286.59 0855.43
2009/04/23 08:06:53.5    -182    258    -57    316    322 324.8 -10.4  33986  286.63 0855.43
2009/04/23 08:06:53.6    -137    341    -35    368    370 338.1  -5.6  33982  286.56 0855.43
2009/04/23 08:06:53.7    -104    321    -23    338    339 342.1  -3.9  33984  286.61 0855.43
2009/04/23 08:06:53.8     -56    294    -21    300    301 349.1  -4.1  33984  286.58 0855.43
2009/04/23 08:06:53.9     -84    270     77    283    294 342.6  15.3  33978  286.50 0855.43
2009/04/23 08:06:54.0    -129    289     68    317    325 335.9  12.2  33984  286.60 0855.43
2009/04/23 08:06:54.1    -156    273     -4    315    316 330.2  -0.9  33986  286.62 0855.43
2009/04/23 08:06:54.2     -91    300      0    314    315 343.1   0.1  33988  286.67 0855.43
2009/04/23 08:06:54.3     -53    296     47    301    305 349.8   8.9  33984  286.58 0855.43
2009/04/23 08:06:54.4     -14    313    118    314    335 357.3  21.6  33984  286.58 0855.43
2009/04/23 08:06:54.5     -97    287    188    304    357 341.3  34.8  33982  286.56 0855.43
2009/04/23 08:06:54.6     -43    310     41    314    317 352.0   7.5  33988  286.65 0855.43
2009/04/23 08:06:54.7     -61    260    -74    268    279 346.7 -15.4  33992  286.74 0855.43
2009/04/23 08:06:54.8     -26    287      2    289    290 354.7   0.5  33990  286.68 0855.43
2009/04/23 08:06:54.9     -42    270    -24    274    276 351.1  -5.2  33990  286.70 0855.43
2009/04/23 08:06:55.0     -50    314     24    319    320 350.9   4.3  33986  286.63 0855.43
2009/04/23 08:06:55.1     -39    242     22    246    248 350.7   5.2  33986  286.63 0855.43
2009/04/23 08:06:55.3     -25    329    116    330    350 355.6  19.4  33990  286.68 0855.43
2009/04/23 08:06:55.3     -80    297     79    308    319 344.8  14.4  33990  286.68 0855.43
2009/04/23 08:06:55.4     -15    335     46    336    340 357.3   7.9  33992  286.73 0855.43
2009/04/23 08:06:55.5      20    291     94    292    307   4.0  17.9  33992  286.74 0855.43
2009/04/23 08:06:55.6      17    287     84    288    301   3.4  16.3  33990  286.70 0855.43
2009/04/23 08:06:55.7     122    258    101    286    304  25.3  19.6  33996  286.80 0855.43
2009/04/23 08:06:55.9      84    192     93    210    229  23.8  25.3  33994  286.76 0855.43
2009/04/23 08:06:55.9      53    171    136    180    225  17.4  41.2  33992  286.73 0855.43
2009/04/23 08:06:56.0      54    136    101    147    178  21.9  38.0  33994  286.78 0855.43
2009/04/23 08:06:56.1      21    137    138    139    195   8.9  50.0  33990  286.69 0855.43
2009/04/23 08:06:56.2     102    144    157    177    236  35.2  46.2  33996  286.81 0855.43
2009/04/23 08:06:56.3      99    184    131    209    246  28.3  35.5  33996  286.80 0855.43
2009/04/23 08:06:56.5     106    175    161    205    260  31.2  42.2  33998  286.82 0855.43
2009/04/23 08:06:56.5     105    112    142    154    209  43.2  47.7  33992  286.73 0855.43
2009/04/23 08:06:56.6     146    157    204    215    296  43.0  48.0  33996  286.79 0855.43
2009/04/23 08:06:56.8     101     83    117    131    175  50.5  46.6  33994  286.76 0855.43
2009/04/23 08:06:56.9      62    131     47    145    153  25.3  17.9  34000  286.88 0855.43
2009/04/23 08:06:57.0     139    147     25    203    205  43.3   7.1  33996  286.79 0855.43
2009/04/23 08:06:57.1      66     49    -83     83    117  53.1 -54.5  33998  286.84 0855.43
2009/04/23 08:06:57.2      40    -63    -52     75     91 147.4 -42.4  33998  286.84 0855.43
2009/04/23 08:06:57.3     101   -107    -30    148    151 136.7 -11.5  33998  286.83 0855.43
2009/04/23 08:06:57.4      85   -110    -33    140    144 142.2 -13.3  33994  286.76 0855.43
2009/04/23 08:06:57.5      28   -152    -42    155    161 169.3 -15.2  33994  286.78 0855.43
2009/04/23 08:06:57.6      42   -236     10    240    241 169.8   2.5  33990  286.68 0855.43
2009/04/23 08:06:57.7      57   -195     -7    204    205 163.7  -2.1  33988  286.66 0855.43
2009/04/23 08:06:57.8      55   -135     54    146    155 157.7  21.0  33990  286.69 0855.43
2009/04/23 08:06:57.9     -46   -127     56    136    147 200.0  23.1  33994  286.76 0855.43
2009/04/23 08:06:58.0     -40    -95     40    104    111 203.2  22.0  33992  286.73 0855.43
2009/04/23 08:06:58.1      24   -110     17    113    115 167.5   9.0  33992  286.73 0855.43
2009/04/23 08:06:58.2      98   -165     24    193    195 149.3   7.2  33992  286.73 0855.43
2009/04/23 08:06:58.3      73   -149     -3    167    168 153.7  -1.3  33990  286.71 0855.43
2009/04/23 08:06:58.4     119   -132    -11    178    179 137.9  -3.7  33990  286.71 0855.43
2009/04/23 08:06:58.5      99   -182     44    208    213 151.5  12.0  33988  286.66 0855.43
2009/04/23 08:06:58.6      60   -104     52    121    131 150.1  25.1  33986  286.62 0855.43
2009/04/23 08:06:58.7     -61   -120     82    135    157 207.2  34.2  33990  286.69 0855.43
2009/04/23 08:06:58.8     -17    -90     78     92    120 190.7  44.8  33986  286.64 0855.43
2009/04/23 08:06:58.9      51    -76     97     92    133 145.7  51.2  33988  286.67 0855.43
2009/04/23 08:06:59.0     -12    -62    100     64    118 191.6  64.6  33986  286.64 0855.43
2009/04/23 08:06:59.1     -13    -40     93     43    102 197.8  73.5  33988  286.66 0855.43
2009/04/23 08:06:59.2     -38    -53    127     66    143 215.2  70.8  33988  286.66 0855.44
2009/04/23 08:06:59.3    -124    -90    141    154    208 234.1  47.5  33990  286.69 0855.44
2009/04/23 08:06:59.4    -145    -70    -49    162    169 244.2 -21.7  33988  286.66 0855.44
2009/04/23 08:06:59.5    -105    -82    -64    134    148 232.2 -31.7  33988  286.67 0855.44
2009/04/23 08:06:59.6     -57   -108    -14    123    124 208.1  -6.7  33988  286.67 0855.44
2009/04/23 08:06:59.7     -37    -87     21     95     98 203.2  12.6  33986  286.64 0855.44
2009/04/23 08:06:59.8     -17   -103     54    105    118 189.3  29.2  33984  286.61 0855.44
2009/04/23 08:06:59.9     -47   -105      2    116    117 204.1   1.2  33986  286.62 0855.44
2009/04/23 08:07:00.0      29   -106     83    111    138 164.4  40.1  33988  286.66 0855.44
2009/04/23 08:07:00.1      10   -126     66    127    143 175.1  29.3  33982  286.56 0855.44
2009/04/23 08:07:00.2     -57    -88     79    106    132 213.0  40.7  33982  286.57 0855.44
2009/04/23 08:07:00.3     -58    -91     54    109    121 212.6  28.2  33984  286.59 0855.44
2009/04/23 08:07:00.4     -53   -118     18    130    132 204.5   8.0  33986  286.64 0855.44
2009/04/23 08:07:00.5     -70   -137     29    154    157 207.1  10.8  33984  286.61 0855.44
2009/04/23 08:07:00.6     -54   -124     54    136    146 203.6  23.0  33980  286.54 0855.44
2009/04/23 08:07:00.7     -14    -72     69     74    101 191.5  47.9  33988  286.66 0855.44
2009/04/23 08:07:00.8     -38    -92     62    100    117 202.7  35.0  33988  286.67 0855.44
2009/04/23 08:07:00.9     -15    -79     67     81    105 191.1  43.8  33990  286.71 0855.44
2009/04/23 08:07:01.0     -40    -67    -25     79     82 210.7 -22.8  33988  286.67 0855.44
2009/04/23 08:07:01.1     -57    -45     -9     73     74 231.4  -7.3  33988  286.67 0855.44
2009/04/23 08:07:01.2     -34    -58     -8     68     69 210.7  -7.3  33990  286.69 0855.43
2009/04/23 08:07:01.3     -14    -69    -18     71     74 191.5 -14.5  33988  286.67 0855.43
2009/04/23 08:07:01.4     -19    -63    -18     66     69 196.9 -15.4  33992  286.73 0855.43
2009/04/23 08:07:01.5     -36    -61    -28     72     77 210.7 -26.4  33992  286.73 0855.43
2009/04/23 08:07:01.6     -21    -77    -28     80     85 195.6 -19.7  33992  286.73 0855.43
2009/04/23 08:07:01.7     -35   -106    -29    112    116 198.5 -14.5  33990  286.71 0855.43
2009/04/23 08:07:01.8       8   -164    -26    165    168 177.1  -9.0  33992  286.74 0855.43
2009/04/23 08:07:01.9      40   -223    -29    227    229 169.8  -7.3  33994  286.78 0855.43
2009/04/23 08:07:02.0      87   -148    -61    172    183 149.5 -19.7  33992  286.73 0855.43
2009/04/23 08:07:02.1     175    -56     18    184    185 107.9   5.7  33990  286.69 0855.43
2009/04/23 08:07:02.2      54   -135    -21    146    148 158.1  -8.2  33994  286.76 0855.43
2009/04/23 08:07:02.3      52   -154    -47    163    169 161.3 -21.2  33998  286.83 0855.43
2009/04/23 08:07:02.4      -5   -139     -3    140    141 182.2  -1.3  33994  286.78 0855.43
2009/04/23 08:07:02.5    -109   -150    -61    186    196 216.0 -18.3  33998  286.84 0855.43
2009/04/23 08:07:02.6      -2   -180      2    181    182 180.9   0.8  33996  286.81 0855.43
2009/04/23 08:07:02.7      37   -191    -46    195    201 168.9 -13.4  33996  286.81 0855.43
2009/04/23 08:07:02.8      48   -188     33    195    198 165.5   9.9  33996  286.79 0855.43
2009/04/23 08:07:02.9     -26   -154    142    157    211 189.8  46.9  33994  286.78 0855.43
2009/04/23 08:07:03.0      89   -182    131    203    241 153.7  35.7  33994  286.76 0855.43
2009/04/23 08:07:03.1     150   -150    156    213    264 135.0  39.7  33992  286.74 0855.43
2009/04/23 08:07:03.2     112   -190    128    221    255 149.5  32.4  33994  286.77 0855.45
2009/04/23 08:07:03.3      74   -240    144    252    290 162.8  32.4  33994  286.77 0855.45
2009/04/23 08:07:03.4      86   -266    123    280    305 162.1  25.2  33992  286.72 0855.45
2009/04/23 08:07:03.5      49   -260     93    265    282 169.3  19.4  33994  286.75 0855.45
2009/04/23 08:07:03.6      27   -272     64    274    282 174.2  13.1  33992  286.72 0855.45
2009/04/23 08:07:03.7      24   -264     83    266    279 174.7  17.4  33994  286.75 0855.45
2009/04/23 08:07:03.8      25   -227     11    229    230 173.7   2.9  33994  286.78 0855.45
2009/04/23 08:07:03.9      25   -201     -3    203    204 172.9  -1.1  33994  286.78 0855.45
2009/04/23 08:07:04.0       3   -203     -4    204    205 179.0  -1.2  33992  286.73 0855.45
2009/04/23 08:07:04.1     -45   -172    -54    178    187 194.9 -17.0  33988  286.67 0855.45
2009/04/23 08:07:04.2     -45   -156    -48    163    171 196.0 -16.6  33990  286.69 0855.45
2009/04/23 08:07:04.3     -55   -139    -30    150    153 201.9 -11.3  33988  286.66 0855.45
2009/04/23 08:07:04.4     -78   -164    -55    182    191 205.6 -17.0  33984  286.59 0855.45
2009/04/23 08:07:04.5     -92   -125    -20    156    158 216.5  -7.3  33988  286.67 0855.45
2009/04/23 08:07:04.6     -93   -135    -77    165    182 214.7 -31.4  33988  286.67 0855.45
2009/04/23 08:07:04.7     -92   -164    -64    189    200 209.4 -18.9  33990  286.71 0855.45
2009/04/23 08:07:04.8     -53   -233     -9    240    241 192.9  -2.2  33990  286.70 0855.45
2009/04/23 08:07:04.9     -62   -206      0    216    217 196.7   0.0  33990  286.71 0855.45
2009/04/23 08:07:05.0     -50   -208    -18    214    215 193.6  -4.9  33992  286.73 0855.45
2009/04/23 08:07:05.1     -39   -162     -4    167    168 193.6  -1.6  33988  286.67 0855.45
2009/04/23 08:07:05.2       9   -153      7    154    155 176.4   2.8  33990  286.69 0855.47
2009/04/23 08:07:05.3      21   -125     19    127    129 170.2   8.9  33992  286.73 0855.47
2009/04/23 08:07:05.4       0    -68     37     69     78 180.0  30.3  33990  286.69 0855.47
2009/04/23 08:07:05.5      -2    -34     65     35     73 184.4  68.8  33990  286.71 0855.47
2009/04/23 08:07:05.6     -29      0     34     30     45 270.0  53.3  33992  286.74 0855.47
2009/04/23 08:07:05.7     -40     16     -1     44     45 291.7  -2.2  33990  286.71 0855.47
2009/04/23 08:07:05.8     -69      5    -19     70     73 274.4 -15.5  33992  286.73 0855.47
2009/04/23 08:07:05.9     -63     -8    -35     64     72 262.1 -35.7  33992  286.73 0855.47
2009/04/23 08:07:06.0     -97    -13    -39     98    105 262.1 -27.4  33992  286.73 0855.47
2009/04/23 08:07:06.1     -84    -31    -92     90    128 249.2 -54.5  33992  286.73 0855.47
2009/04/23 08:07:06.2      -8    -26    -64     28     69 198.3 -78.4  33988  286.66 0855.47
2009/04/23 08:07:06.3     -43    -74      6     86     87 210.3   4.4  33992  286.73 0855.47
2009/04/23 08:07:06.4     -45    -37     57     59     82 230.5  49.4  33996  286.79 0855.47
2009/04/23 08:07:06.5     -26    -36     33     45     55 216.1  39.7  33996  286.79 0855.47
2009/04/23 08:07:06.6      -1    -60     37     61     71 181.8  35.5  33990  286.71 0855.47
2009/04/23 08:07:06.7      -4    -54     42     55     69 184.5  42.7  33992  286.74 0855.47
2009/04/23 08:07:06.8      34    -54     42     65     77 147.5  35.6  33990  286.71 0855.47
2009/04/23 08:07:06.9      64   -103    -43    122    130 148.4 -19.7  33988  286.66 0855.47
2009/04/23 08:07:07.0      57   -130    -26    143    146 156.3 -10.3  33986  286.64 0855.47
2009/04/23 08:07:07.1      63   -123     13    139    140 152.8   5.4  33986  286.64 0855.47
2009/04/23 08:07:07.2      71   -181     69    195    208 158.6  19.6  33992  286.73 0855.48
2009/04/23 08:07:07.3      78   -142     62    163    174 151.1  21.5  33992  286.73 0855.48
2009/04/23 08:07:07.4      95   -152     68    180    192 148.1  21.5  33990  286.69 0855.48
2009/04/23 08:07:07.5      69   -106     59    127    140 147.0  27.1  33990  286.71 0855.48
2009/04/23 08:07:07.6       3   -125     57    126    138 178.2  25.7  33992  286.73 0855.48
2009/04/23 08:07:07.7     -22   -133     63    135    148 189.7  27.1  33992  286.73 0855.48
2009/04/23 08:07:07.8     -19   -147     18    149    151 187.6   6.9  33990  286.71 0855.48
2009/04/23 08:07:07.9     -12   -195     24    196    198 183.6   7.2  33988  286.67 0855.48
2009/04/23 08:07:08.0      74   -218     11    231    232 161.1   2.8  33988  286.67 0855.48
2009/04/23 08:07:08.1     103   -201     79    227    241 152.8  19.2  33986  286.62 0855.48
2009/04/23 08:07:08.2      87   -180    126    201    237 154.1  35.0  33988  286.67 0855.48
2009/04/23 08:07:08.3      92   -204    152    224    270 155.7  37.3  33986  286.63 0855.48
2009/04/23 08:07:08.4      66   -245    171    254    306 164.9  37.3  33984  286.60 0855.48
2009/04/23 08:07:08.5      55   -233    168    240    292 166.6  38.5  33986  286.63 0855.48
2009/04/23 08:07:08.6      91   -142     61    169    179 147.3  20.4  33984  286.61 0855.48
2009/04/23 08:07:08.7     146   -193      0    243    244 142.8   0.0  33986  286.63 0855.48
2009/04/23 08:07:08.8     148   -192     34    243    246 142.4   8.0  33986  286.62 0855.48
2009/04/23 08:07:08.9      19    -97    -34     99    105 168.9 -19.1  33986  286.62 0855.48
2009/04/23 08:07:09.0      -5    -72    -26     73     77 184.5 -23.3  33984  286.61 0855.48
2009/04/23 08:07:09.1     -26    -41     -5     49     50 212.5  -6.2  33984  286.59 0855.48
2009/04/23 08:07:09.2     -63    -87    -21    108    111 216.1 -11.3  33986  286.62 0855.48
2009/04/23 08:07:09.3      27   -102    115    106    156 164.8  52.2  33986  286.62 0855.48
2009/04/23 08:07:09.4     -12   -127    122    128    176 185.8  48.5  33988  286.66 0855.48
2009/04/23 08:07:09.5     -14    -71     52     73     89 191.6  39.1  33984  286.61 0855.48
2009/04/23 08:07:09.6      15    -79     79     81    113 168.9  50.0  33982  286.56 0855.48
2009/04/23 08:07:09.7      -7   -108     80    109    135 184.0  39.7  33986  286.62 0855.48
2009/04/23 08:07:09.8      12   -105     70    106    127 173.3  36.5  33984  286.61 0855.48
2009/04/23 08:07:09.9      29   -125     74    129    148 166.6  32.4  33984  286.61 0855.48
2009/04/23 08:07:10.0      33   -166     78    170    187 168.7  26.6  33984  286.61 0855.48
2009/04/23 08:07:10.1     -27   -161     75    164    180 189.6  26.4  33986  286.62 0855.48
2009/04/23 08:07:10.2    -101   -163     19    192    193 211.9   5.7  33982  286.57 0855.48
2009/04/23 08:07:10.3     -81   -171     44    190    196 205.3  13.2  33984  286.59 0855.48
2009/04/23 08:07:10.4     -86   -157     27    180    183 208.9   8.5  33986  286.64 0855.48
2009/04/23 08:07:10.5    -104   -189      6    216    217 208.9   1.8  33986  286.62 0855.48
2009/04/23 08:07:10.6     -47   -197     52    203    210 193.6  14.5  33984  286.59 0855.48
2009/04/23 08:07:10.7     -71   -214     65    226    236 198.5  16.0  33984  286.61 0855.48
2009/04/23 08:07:10.8     -62   -225     42    234    238 195.4  10.3  33984  286.60 0855.48
2009/04/23 08:07:10.9     -59   -166     70    177    190 199.6  22.8  33978  286.51 0855.48
2009/04/23 08:07:11.0     -11   -218    117    219    248 183.1  30.3  33982  286.57 0855.48
2009/04/23 08:07:11.1     -37   -256    108    259    280 188.2  24.1  33980  286.53 0855.48
2009/04/23 08:07:11.2     -49   -334     89    338    350 188.5  14.9  33986  286.64 0855.46
2009/04/23 08:07:11.3     -83   -352     91    362    374 193.4  14.2  33984  286.59 0855.46
2009/04/23 08:07:11.4     -59   -337     87    343    355 190.0  14.3  33986  286.64 0855.46
2009/04/23 08:07:11.5     -28   -375    116    376    394 184.4  17.2  33986  286.63 0855.46
2009/04/23 08:07:11.6     -88   -360     66    371    377 193.8  10.1  33984  286.58 0855.46
2009/04/23 08:07:11.7    -128   -301     92    328    341 203.0  15.7  33988  286.66 0855.46
2009/04/23 08:07:11.8    -189   -282     40    340    343 213.8   6.8  33986  286.63 0855.46
2009/04/23 08:07:11.9    -162   -255     65    303    311 212.5  12.2  33988  286.67 0855.46
2009/04/23 08:07:12.0     -86   -215    154    232    278 201.8  36.7  33986  286.63 0855.46
2009/04/23 08:07:12.1    -139   -218     90    259    275 212.5  19.2  33986  286.63 0855.46
2009/04/23 08:07:12.2    -116   -291    177    314    360 201.9  32.0  33990  286.68 0855.46
2009/04/23 08:07:12.3    -127   -311    216    337    400 202.3  35.6  33986  286.64 0855.46
2009/04/23 08:07:12.4    -198   -321     69    378    385 211.7  10.4  33990  286.71 0855.46
2009/04/23 08:07:12.5    -147   -223     80    268    280 213.4  16.8  33990  286.68 0855.46
2009/04/23 08:07:12.6    -149   -279     85    317    329 208.2  15.1  33988  286.67 0855.46
2009/04/23 08:07:12.7    -127   -245     86    276    290 207.4  17.3  33992  286.72 0855.46
2009/04/23 08:07:12.8    -126   -230     55    263    269 208.7  12.0  33988  286.67 0855.46
2009/04/23 08:07:12.9     -77   -213    133    227    263 200.1  33.4  33988  286.67 0855.46
2009/04/23 08:07:13.0     -82   -218    102    234    255 200.7  25.1  33988  286.67 0855.46
2009/04/23 08:07:13.1      -9   -212    143    213    256 182.7  37.3  33988  286.67 0855.46
2009/04/23 08:07:13.2      -4   -186    148    187    238 181.4  42.4  33986  286.64 0855.45
2009/04/23 08:07:13.3     -21   -193    154    195    248 186.2  42.4  33990  286.71 0855.45
2009/04/23 08:07:13.4     -39   -167    158    172    233 193.1  47.9  33986  286.64 0855.45
2009/04/23 08:07:13.5     -57   -169    102    179    206 198.7  32.1  33988  286.66 0855.45
2009/04/23 08:07:13.6     -55   -171     95    180    203 198.0  30.1  33990  286.69 0855.45
2009/04/23 08:07:13.7     -18   -196    102    197    221 185.3  29.3  33992  286.73 0855.45
2009/04/23 08:07:13.8     -50   -230    118    236    263 192.3  28.2  33992  286.72 0855.45
2009/04/23 08:07:13.9     -49   -246    117    251    276 191.5  27.0  33994  286.77 0855.45
2009/04/23 08:07:14.0     -28   -209    174    211    273 187.8  43.7  33994  286.75 0855.45
2009/04/23 08:07:14.1     -61   -256     93    264    280 193.4  19.4  33988  286.65 0855.45
2009/04/23 08:07:14.2     -14   -309     60    310    316 182.7  11.0  33990  286.70 0855.45
2009/04/23 08:07:14.3      57   -277     -3    284    285 168.2  -0.7  33986  286.63 0855.45
2009/04/23 08:07:14.4      26   -230     77    232    245 173.5  18.4  33988  286.65 0855.45
2009/04/23 08:07:14.5      22   -231     90    233    249 174.4  22.0  33990  286.68 0855.45
2009/04/23 08:07:14.6      13   -262    125    263    291 177.1  27.2  33996  286.80 0855.45
2009/04/23 08:07:14.7      -7   -255    113    256    279 181.8  25.2  33994  286.77 0855.45
2009/04/23 08:07:14.8      -8   -242     85    243    258 182.0  19.4  33992  286.74 0855.45
2009/04/23 08:07:14.9      -3   -223     99    224    244 180.9  25.3  33994  286.77 0855.45
2009/04/23 08:07:15.0       0   -236     87    237    252 180.2  21.0  33994  286.77 0855.45
2009/04/23 08:07:15.1      17   -228     85    229    244 175.6  21.0  33992  286.74 0855.45
2009/04/23 08:07:15.2      16   -214     67    215    226 175.6  17.3  33996  286.79 0855.45
2009/04/23 08:07:15.3      17   -219     89    220    237 175.5  23.1  33992  286.73 0855.45
2009/04/23 08:07:15.4       5   -208     79    209    223 178.4  21.5  33994  286.78 0855.45
2009/04/23 08:07:15.5      18   -212     75    213    226 175.1  19.4  33992  286.74 0855.45
2009/04/23 08:07:15.6      16   -226     46    227    232 175.8  11.4  33994  286.78 0855.45
2009/04/23 08:07:15.7      44   -216     47    221    226 168.4  12.0  33994  286.78 0855.45
2009/04/23 08:07:15.8      36   -204     27    208    210 170.0   7.5  33994  286.78 0855.45
2009/04/23 08:07:15.9      42   -182     50    187    194 166.9  15.2  33996  286.79 0855.45
2009/04/23 08:07:16.0      55   -183     12    192    193 163.1   3.6  33996  286.81 0855.45
2009/04/23 08:07:16.1      61   -190      2    200    201 162.0   0.8  33996  286.81 0855.45
2009/04/23 08:07:16.2      49   -171     -6    178    179 164.0  -2.2  33994  286.78 0855.45
2009/04/23 08:07:16.3      43   -164    -13    170    171 165.3  -4.6  33994  286.76 0855.45
2009/04/23 08:07:16.4      15   -165     -9    166    167 174.7  -3.1  33996  286.79 0855.45
2009/04/23 08:07:16.5      25   -187     27    189    191 172.2   8.2  33996  286.81 0855.45
2009/04/23 08:07:16.6      71   -225     74    237    249 162.4  17.3  33996  286.79 0855.45
2009/04/23 08:07:16.7      60   -211     59    220    229 164.0  15.2  33992  286.73 0855.45
2009/04/23 08:07:16.8      38   -191     60    195    205 168.5  17.1  33994  286.76 0855.45
2009/04/23 08:07:16.9      68   -207     62    219    228 161.7  16.0  33996  286.81 0855.45
2009/04/23 08:07:17.0      55   -205     80    213    227 164.8  21.5  33996  286.79 0855.45
2009/04/23 08:07:17.1      50   -177     93    184    206 164.2  28.7  33996  286.81 0855.45
2009/04/23 08:07:17.2      37   -170     97    175    200 167.5  31.4  33994  286.76 0855.45
2009/04/23 08:07:17.3       7   -159     94    160    185 177.3  33.5  33994  286.76 0855.45
2009/04/23 08:07:17.4      29   -128     52    132    141 167.1  23.0  33996  286.81 0855.45
2009/04/23 08:07:17.5     -12   -156     70    157    171 184.5  25.7  33994  286.78 0855.45
2009/04/23 08:07:17.6      64   -156     98    169    195 157.7  32.9  33994  286.76 0855.45
2009/04/23 08:07:17.7      49   -146     80    155    174 161.3  29.3  33998  286.83 0855.45
2009/04/23 08:07:17.8      20   -144     57    146    156 172.0  22.5  33996  286.81 0855.45
2009/04/23 08:07:17.9     -40   -142     72    148    164 196.0  28.0  33996  286.81 0855.45
2009/04/23 08:07:18.0     -49   -176     62    183    194 195.8  18.9  33992  286.74 0855.45
2009/04/23 08:07:18.1     -89   -186     10    207    208 205.5   2.8  33994  286.76 0855.45
2009/04/23 08:07:18.2     -54   -115     32    128    133 205.3  14.3  33996  286.79 0855.45
2009/04/23 08:07:18.3     -34   -101      9    107    108 198.7   4.9  33996  286.79 0855.45
2009/04/23 08:07:18.4     -20    -91     -4     94     95 192.9  -2.6  33996  286.79 0855.45
2009/04/23 08:07:18.5     -14    -57    -11     59     61 194.3 -11.3  33994  286.78 0855.45
2009/04/23 08:07:18.6     -15    -47      0     50     51 198.3  -0.3  33992  286.74 0855.45
2009/04/23 08:07:18.7     -21    -46     10     51     53 205.4  11.1  33996  286.79 0855.45
2009/04/23 08:07:18.8      -7    -43      2     44     45 189.8   2.8  33996  286.81 0855.45
2009/04/23 08:07:18.9       1    -48      0     49     50 178.2   0.8  33996  286.79 0855.45
2009/04/23 08:07:19.0       0    -56      6     57     58 180.9   6.9  33994  286.76 0855.45
2009/04/23 08:07:19.1      23    -45     42     51     66 152.8  43.7  33996  286.79 0855.45
2009/04/23 08:07:19.2      40    -38     46     56     72 134.0  43.8  33992  286.74 0855.45
2009/04/23 08:07:19.3      50    -30     40     59     71 120.7  36.5  33994  286.78 0855.45
2009/04/23 08:07:19.4      71    -69     35    100    107 134.0  19.4  33994  286.78 0855.45
2009/04/23 08:07:19.5      12   -118    104    119    158 174.2  45.8  33994  286.76 0855.45
2009/04/23 08:07:19.6      33   -122     79    127    149 164.9  35.5  33994  286.76 0855.45
2009/04/23 08:07:19.7     137   -163     49    214    220 139.9  12.9  33990  286.71 0855.45
2009/04/23 08:07:19.8     135   -144     16    198    199 136.7   4.9  33992  286.73 0855.45
2009/04/23 08:07:19.9     191   -132    134    233    268 124.6  32.4  33992  286.72 0855.45
2009/04/23 08:07:20.0     119   -175     94    212    231 145.7  25.3  33992  286.74 0855.45
2009/04/23 08:07:20.1      81   -167     65    186    198 154.1  19.4  33994  286.76 0855.45
2009/04/23 08:07:20.2      44   -134     34    142    147 161.7  13.7  33992  286.74 0855.45
2009/04/23 08:07:20.3      37   -113     29    119    123 161.7  13.7  33992  286.74 0855.45
2009/04/23 08:07:20.4      -1   -116     18    117    119 180.9   9.0  33996  286.79 0855.45
2009/04/23 08:07:20.5     -20   -145     27    147    150 188.0  10.6  33994  286.78 0855.45
2009/04/23 08:07:20.6     -48   -174     -3    181    182 195.6  -1.1  33992  286.73 0855.45
2009/04/23 08:07:20.7     -77   -183    104    199    224 202.9  29.8  33992  286.74 0855.45
2009/04/23 08:07:20.8     -31   -129    100    133    166 193.8  40.7  33994  286.76 0855.45
2009/04/23 08:07:20.9     -66   -111     65    130    145 210.7  28.7  33994  286.76 0855.45
2009/04/23 08:07:21.0     -19   -120     60    122    135 189.3  27.8  33992  286.73 0855.45
2009/04/23 08:07:21.1      15    -57     69     60     91 164.9  54.8  33994  286.76 0855.45
2009/04/23 08:07:21.2      51    -12     84     53     99 103.3  64.7  33994  286.78 0855.45
2009/04/23 08:07:21.3       8     -8    110     12    110 136.8  90.0  33996  286.79 0855.45
2009/04/23 08:07:21.4      26    -21     91     34     97 129.6  79.7  33996  286.79 0855.45
2009/04/23 08:07:21.5      78   -101    122    128    176 142.2  48.5  33996  286.81 0855.45
2009/04/23 08:07:21.6     152   -223    165    270    316 145.7  34.3  33996  286.80 0855.45
2009/04/23 08:07:21.7     163   -196    151    256    297 140.3  33.4  33996  286.80 0855.45
2009/04/23 08:07:21.9     172   -176    117    247    273 135.7  27.2  33996  286.80 0855.45
2009/04/23 08:07:21.9     165   -193     90    254    270 139.5  19.6  34000  286.87 0855.45
2009/04/23 08:07:22.0     150   -162     85    222    237 137.2  22.0  33998  286.83 0855.45
2009/04/23 08:07:22.1     126   -171     74    213    226 143.7  19.2  33998  286.83 0855.45
2009/04/23 08:07:22.2     123   -164     65    206    217 143.0  17.7  33998  286.83 0855.45
2009/04/23 08:07:22.3      70   -173     38    187    191 157.9  11.6  33998  286.83 0855.45
2009/04/23 08:07:22.4      66   -190     25    202    204 160.8   7.2  33994  286.78 0855.45
2009/04/23 08:07:22.5      85   -181     -7    201    202 154.7  -2.1  33994  286.78 0855.45
2009/04/23 08:07:22.6      78   -176      9    193    194 155.9   2.9  33996  286.81 0855.45
2009/04/23 08:07:22.8      80   -179     57    197    206 155.9  16.3  33994  286.78 0855.45
2009/04/23 08:07:22.9      53   -195     84    203    219 164.9  23.6  33994  286.78 0855.45
2009/04/23 08:07:22.9      35   -203     64    207    217 170.0  17.3  33998  286.83 0855.45
2009/04/23 08:07:23.1      86   -197     70    216    228 156.4  17.9  33998  286.83 0855.45
2009/04/23 08:07:23.2     143   -180     89    231    247 141.5  22.1  33996  286.80 0855.45
2009/04/23 08:07:23.3     200   -249    130    320    345 141.3  23.4  33998  286.83 0855.45
2009/04/23 08:07:23.4     177   -268    132    322    348 146.6  23.5  34000  286.86 0855.45
2009/04/23 08:07:23.5     160   -266    150    311    345 149.0  27.3  33992  286.73 0855.45
2009/04/23 08:07:23.6     191   -328    173    380    417 149.8  26.2  33994  286.77 0855.45
2009/04/23 08:07:23.7     219   -375     76    435    442 149.8  10.0  33994  286.76 0855.45
2009/04/23 08:07:23.8     241   -308     -7    392    393 142.0  -1.2  33994  286.76 0855.45
2009/04/23 08:07:23.9     163   -254    -38    302    305 147.3  -7.2  33992  286.74 0855.45
2009/04/23 08:07:24.0     153   -218    -58    267    274 144.8 -12.4  33994  286.77 0855.45
2009/04/23 08:07:24.1     152   -199    -28    251    253 142.6  -6.5  33994  286.77 0855.45
2009/04/23 08:07:24.2     203   -339    -50    396    400 149.1  -7.3  33994  286.76 0855.45
2009/04/23 08:07:24.3     144   -364    -52    392    396 158.3  -7.7  33994  286.75 0855.45
2009/04/23 08:07:24.4     130   -331    -33    356    358 158.4  -5.3  33992  286.73 0855.45
2009/04/23 08:07:24.5     128   -256    -28    287    289 153.5  -5.6  33992  286.74 0855.45
2009/04/23 08:07:24.6     141   -207     39    251    255 145.7   9.0  33994  286.75 0855.45
2009/04/23 08:07:24.7     111   -225     -1    251    252 153.7  -0.3  33994  286.75 0855.45
2009/04/23 08:07:24.8      68   -269    -40    278    281 165.7  -8.3  33992  286.74 0855.45
2009/04/23 08:07:24.9      40   -260    -19    264    265 171.1  -4.1  33992  286.74 0855.45
2009/04/23 08:07:25.0      24   -298    -29    300    302 175.3  -5.6  33992  286.74 0855.45
2009/04/23 08:07:25.1     -14   -289    -47    290    294 182.9  -9.3  33994  286.75 0855.45
2009/04/23 08:07:25.2       0   -296     64    297    304 180.0  12.2  33992  286.72 0855.45
2009/04/23 08:07:25.3     -10   -290     22    291    292 182.0   4.4  33992  286.72 0855.45
2009/04/23 08:07:25.4      17   -233     65    234    243 175.6  15.6  33992  286.74 0855.45
2009/04/23 08:07:25.5      36   -261     62    264    272 172.0  13.2  33992  286.72 0855.45
2009/04/23 08:07:25.6       8   -284    -20    285    286 178.2  -4.1  33992  286.74 0855.45
2009/04/23 08:07:25.7     -13   -297      3    298    299 182.7   0.7  33992  286.74 0855.45
2009/04/23 08:07:25.8     -22   -285     44    286    290 184.5   8.8  33994  286.75 0855.45
2009/04/23 08:07:25.9      32   -260    -11    263    264 172.9  -2.6  33994  286.77 0855.45
2009/04/23 08:07:26.0       4   -224     -8    225    226 178.9  -2.2  33994  286.78 0855.45
2009/04/23 08:07:26.1      12   -221     -8    222    223 176.9  -2.2  33992  286.73 0855.45
2009/04/23 08:07:26.2      24   -194    -33    196    199 172.7  -9.8  33994  286.76 0855.45
2009/04/23 08:07:26.3      -9   -175     -6    176    177 183.1  -2.1  33992  286.73 0855.45
2009/04/23 08:07:26.4      -4   -186     23    187    189 181.4   7.2  33994  286.78 0855.45
2009/04/23 08:07:26.5      20   -169     22    171    173 173.1   7.5  33994  286.78 0855.45
2009/04/23 08:07:26.6      15   -169     59    170    181 174.7  19.2  33992  286.73 0855.45
2009/04/23 08:07:26.7     -16   -165     19    166    168 185.6   6.7  33992  286.74 0855.45
2009/04/23 08:07:26.8     -40   -207     10    212    213 191.1   2.8  33988  286.67 0855.45
2009/04/23 08:07:26.9     -59   -166    -34    177    181 199.6 -11.1  33990  286.71 0855.45
2009/04/23 08:07:27.0     -30   -163    -41    166    172 190.7 -13.9  33988  286.67 0855.45
2009/04/23 08:07:27.1       1   -156    -41    157    163 179.5 -14.7  33988  286.66 0855.45
2009/04/23 08:07:27.2     -60   -271    -45    278    282 192.5  -9.4  33982  286.57 0855.45
2009/04/23 08:07:27.3     -15   -200    -17    201    202 184.4  -4.9  33986  286.62 0855.45
2009/04/23 08:07:27.4     -12   -190      2    191    192 183.6   0.8  33984  286.61 0855.45
2009/04/23 08:07:27.5      31   -220    -57    223    231 172.0 -14.5  33984  286.61 0855.45
2009/04/23 08:07:27.6      47   -277    -27    282    284 170.2  -5.6  33988  286.65 0855.45
2009/04/23 08:07:27.7      47   -305    -17    309    310 171.1  -3.2  33988  286.67 0855.45
2009/04/23 08:07:27.8      65   -212     34    222    225 163.0   8.8  33988  286.66 0855.45
2009/04/23 08:07:27.9      55   -206    -49    214    220 164.9 -12.9  33988  286.66 0855.45
2009/04/23 08:07:28.0      61   -276    -36    283    286 167.5  -7.3  33988  286.67 0855.45
2009/04/23 08:07:28.1      13   -306    -48    307    311 177.4  -9.0  33984  286.60 0855.45
2009/04/23 08:07:28.2      42   -274    -45    278    282 171.1  -9.4  33986  286.63 0855.45
2009/04/23 08:07:28.3      82   -316    -33    327    329 165.3  -5.9  33992  286.72 0855.44
2009/04/23 08:07:28.4      76   -317   -103    326    343 166.5 -17.6  33990  286.69 0855.44
2009/04/23 08:07:28.5      68   -344    -50    351    355 168.8  -8.1  33988  286.66 0855.44
2009/04/23 08:07:28.6      50   -304    -43    309    313 170.7  -8.0  33990  286.70 0855.44
2009/04/23 08:07:28.7      58   -287    -16    294    295 168.4  -3.2  33990  286.68 0855.44
2009/04/23 08:07:28.8      41   -244    -45    248    253 170.3 -10.3  33986  286.62 0855.44
2009/04/23 08:07:28.9      57   -248    -29    255    257 166.9  -6.7  33986  286.63 0855.44
2009/04/23 08:07:29.0       8   -257     47    258    263 178.2  10.3  33988  286.65 0855.44
2009/04/23 08:07:29.1     -66   -201    -65    212    221 198.3 -21.8  33988  286.66 0855.44
2009/04/23 08:07:29.2      12   -226    -95    227    246 176.9 -28.5  33990  286.70 0855.44
2009/04/23 08:07:29.3      22   -293    -81    294    306 175.5 -15.5  33986  286.62 0855.44
2009/04/23 08:07:29.4      11   -362    -78    363    372 178.2 -12.2  33992  286.73 0855.44
2009/04/23 08:07:29.5      18   -358    -78    359    368 177.0 -12.4  33994  286.78 0855.44
2009/04/23 08:07:29.6      72   -346    -79    354    363 168.2 -12.7  33994  286.78 0855.44
2009/04/23 08:07:29.7      36   -377    -94    379    391 174.4 -14.1  33994  286.75 0855.44
2009/04/23 08:07:29.8      46   -384    -79    387    396 173.1 -11.6  33994  286.76 0855.44
2009/04/23 08:07:29.9       7   -363    -70    364    371 178.9 -11.0  33992  286.73 0855.44
2009/04/23 08:07:30.0      37   -414    -88    416    426 174.8 -12.0  33994  286.77 0855.44
2009/04/23 08:07:30.1     104   -403    -43    417    420 165.5  -6.0  33996  286.79 0855.44
2009/04/23 08:07:30.2     108   -370    -44    386    389 163.7  -6.6  33994  286.76 0855.44
2009/04/23 08:07:30.3      41   -382    -55    385    390 173.8  -8.2  33990  286.71 0855.44
2009/04/23 08:07:30.4      63   -368    -72    374    381 170.2 -11.0  33994  286.76 0855.44
2009/04/23 08:07:30.5      33   -361    -39    363    366 174.7  -6.3  33994  286.75 0855.44
2009/04/23 08:07:30.6      37   -382    -49    384    388 174.4  -7.3  33994  286.76 0855.44
2009/04/23 08:07:30.7      18   -399    -69    400    407 177.3  -9.8  33994  286.77 0855.44
2009/04/23 08:07:30.8     -21   -362    -88    363    374 183.4 -13.7  33990  286.69 0855.44
2009/04/23 08:07:30.9      -8   -417    -64    418    423 181.1  -8.8  33992  286.74 0855.44
2009/04/23 08:07:31.0      51   -408    -32    412    414 172.8  -4.5  33996  286.81 0855.44
2009/04/23 08:07:31.1       0   -338     -6    339    340 180.0  -1.1  33994  286.76 0855.44
2009/04/23 08:07:31.2      97   -295    -43    311    314 161.7  -7.9  33996  286.80 0855.44
2009/04/23 08:07:31.3     109   -287    -47    308    312 159.1  -8.8  33998  286.84 0855.44
2009/04/23 08:07:31.4     121   -291    -93    316    330 157.4 -16.4  33998  286.82 0855.44
2009/04/23 08:07:31.5      11   -326   -109    327    344 178.0 -23.6  33994  286.78 0855.44
2009/04/23 08:07:31.6      36   -353   -121    355    375 174.1 -23.8  33996  286.80 0855.44
2009/04/23 08:07:31.7     106   -385   -122    400    418 164.6 -21.9  33998  286.84 0855.44
2009/04/23 08:07:31.8      93   -332   -107    345    361 164.3 -22.3  33996  286.80 0855.44
2009/04/23 08:07:31.9     -15   -233   -117    234    261 183.8 -32.6  33992  286.72 0855.44
2009/04/23 08:07:32.0     -22   -300   -122    301    324 184.4 -27.8  33988  286.67 0855.44
2009/04/23 08:07:32.1    -163   -326   -130    365    388 206.6 -19.7  33990  286.68 0855.44
2009/04/23 08:07:32.2    -126   -339   -130    363    385 200.5 -24.8  33994  286.78 0855.44
2009/04/23 08:07:32.3    -104   -344   -137    360    385 196.8 -26.1  33992  286.73 0855.45
2009/04/23 08:07:32.4     -80   -312   -148    323    355 194.5 -30.7  33992  286.73 0855.45
2009/04/23 08:07:32.5     -51   -257   -144    263    299 191.3 -35.7  33994  286.77 0855.45
2009/04/23 08:07:32.6     -48   -212   -154    218    266 192.9 -43.0  33994  286.75 0855.45
2009/04/23 08:07:32.7     -39   -211   -154    215    264 190.5 -43.9  33996  286.79 0855.45
2009/04/23 08:07:32.8     -93   -213   -110    233    257 203.7 -31.5  33986  286.63 0855.45
2009/04/23 08:07:32.9     -59   -220   -126    228    260 195.2 -35.8  33992  286.72 0855.45
2009/04/23 08:07:33.0     -90   -155    -86    180    199 210.1 -31.7  33990  286.71 0855.45
2009/04/23 08:07:33.1     -78   -198   -122    214    246 201.6 -36.8  33994  286.75 0855.45
2009/04/23 08:07:33.2    -108   -138    -84    176    195 218.1 -31.7  33990  286.69 0855.45
2009/04/23 08:07:33.3    -195   -142    -72    242    253 234.0 -16.6  33990  286.70 0855.45
2009/04/23 08:07:33.4    -108    -89    -33    140    144 230.5 -13.4  33990  286.69 0855.45
2009/04/23 08:07:33.5     -87   -148    -22    172    174 210.5  -7.3  33990  286.69 0855.45
2009/04/23 08:07:33.6     -70   -164    -58    179    189 203.2 -18.1  33988  286.67 0855.45
2009/04/23 08:07:33.7     -90    -94    -22    131    133 223.7  -9.8  33992  286.73 0855.45
2009/04/23 08:07:33.8     -63    -96    -55    116    128 213.4 -31.5  33990  286.69 0855.45
2009/04/23 08:07:33.9     -54    -70    -66     89    110 217.8 -44.5  33992  286.73 0855.45
2009/04/23 08:07:34.0       6    -81    -60     82    101 175.5 -44.1  33994  286.76 0855.45
2009/04/23 08:07:34.1      -8    -12    -57     15     58 212.5 -89.3  33992  286.74 0855.45
2009/04/23 08:07:34.2      -2    -30    -44     31     53 184.5 -65.9  33992  286.73 0855.45
2009/04/23 08:07:34.3      50     -7    -37     51     63  98.8 -44.1  33992  286.74 0855.46
2009/04/23 08:07:34.4      63    -34    -36     72     80 118.8 -33.1  33992  286.73 0855.46
2009/04/23 08:07:34.5      46    -42    -34     63     71 132.2 -35.7  33990  286.71 0855.46
2009/04/23 08:07:34.6      44      0     11     45     47  90.0  14.3  33992  286.74 0855.46
2009/04/23 08:07:34.7      46      7     25     47     53  81.2  30.3  33996  286.79 0855.46
2009/04/23 08:07:34.8      48      2     17     49     53  86.5  19.4  33994  286.78 0855.46
2009/04/23 08:07:34.9      36     21      0     43     44  59.3   0.8  33992  286.74 0855.46
2009/04/23 08:07:35.0      24     24      1     35     36  45.0   2.9  33994  286.78 0855.46
2009/04/23 08:07:35.1      25      0      5     26     27  90.0  11.1  33992  286.74 0855.46
2009/04/23 08:07:35.2      19    -17     -7     26     27 131.3 -15.5  33992  286.73 0855.46
2009/04/23 08:07:35.3      16    -37     -9     41     43 156.4 -13.4  33992  286.73 0855.46
2009/04/23 08:07:35.4      26    -55     -2     61     62 154.6  -2.2  33992  286.73 0855.46
2009/04/23 08:07:35.5      34    -72      6     80     81 154.7   4.9  33990  286.71 0855.46
2009/04/23 08:07:35.6      63    -86     -9    107    108 143.9  -5.2  33990  286.69 0855.46
2009/04/23 08:07:35.7     120    -83      7    147    148 124.6   2.9  33994  286.78 0855.46
2009/04/23 08:07:35.8     156    -99     10    185    186 122.4   3.1  33992  286.74 0855.46
2009/04/23 08:07:35.9      70   -107     -5    129    130 146.6  -2.2  33992  286.73 0855.46
2009/04/23 08:07:36.0      45   -138     -4    146    147 161.7  -1.8  33988  286.66 0855.46
2009/04/23 08:07:36.1     113   -163     18    199    200 145.3   5.4  33996  286.81 0855.46
2009/04/23 08:07:36.2     127   -185    -21    225    227 145.5  -5.4  33998  286.83 0855.46
2009/04/23 08:07:36.3     145   -193     16    242    243 143.0   3.9  33998  286.82 0855.45
2009/04/23 08:07:36.4     127   -153     -7    199    200 140.3  -2.2  33998  286.83 0855.45
2009/04/23 08:07:36.5     114   -157     14    195    196 143.9   4.4  33996  286.81 0855.45
2009/04/23 08:07:36.6      90   -178    -14    200    201 153.0  -4.1  34000  286.86 0855.45
2009/04/23 08:07:36.7      89   -189     -5    209    210 154.8  -1.6  34000  286.86 0855.45
2009/04/23 08:07:36.8     105   -219     -1    243    244 154.4  -0.3  34000  286.85 0855.45
2009/04/23 08:07:36.9     105   -226    -36    250    253 155.1  -8.3  33998  286.84 0855.45
2009/04/23 08:07:37.0      82   -254     47    268    273 162.0  10.1  33998  286.84 0855.45
2009/04/23 08:07:37.1     129   -295     71    323    331 156.4  12.5  33998  286.82 0855.45
2009/04/23 08:07:37.2     125   -287     29    314    316 156.4   5.3  33998  286.84 0855.45
2009/04/23 08:07:37.3     152   -319     83    354    364 154.4  13.2  33996  286.80 0855.45
2009/04/23 08:07:37.4     223   -388    121    448    465 150.1  15.2  33998  286.82 0855.45
2009/04/23 08:07:37.5     135   -344     -2    370    371 158.5  -0.4  33994  286.78 0855.45
2009/04/23 08:07:37.6     177   -352    -52    395    399 153.3  -7.6  33996  286.80 0855.45
2009/04/23 08:07:37.7     189   -351     70    399    406 151.6  10.0  33994  286.77 0855.45
2009/04/23 08:07:37.8     115   -285     48    308    312 157.9   9.0  33992  286.72 0855.45
2009/04/23 08:07:37.9     100   -280    144    298    330 160.2  27.7  33998  286.82 0855.45
2009/04/23 08:07:38.0     224   -253    -48    339    343 138.5  -8.1  33994  286.78 0855.45
2009/04/23 08:07:38.1     227   -200     12    303    304 131.4   2.3  33996  286.80 0855.45
2009/04/23 08:07:38.2     227   -176     14    288    289 127.8   2.9  34000  286.85 0855.45
2009/04/23 08:07:38.3     183   -140      3    231    232 127.3   0.8  33994  286.76 0855.45
2009/04/23 08:07:38.4     149   -149     17    211    212 135.0   4.9  33994  286.78 0855.45
2009/04/23 08:07:38.5     129   -204      5    242    243 147.7   1.2  33998  286.82 0855.45
2009/04/23 08:07:38.6     139   -180     -7    228    229 142.2  -1.8  33994  286.76 0855.45
2009/04/23 08:07:38.7     148   -196    -21    246    248 143.0  -5.1  33998  286.82 0855.45
2009/04/23 08:07:38.8      95   -273    -11    290    291 160.8  -2.2  33994  286.75 0855.45
2009/04/23 08:07:38.9      31   -270    -19    272    273 173.3  -4.1  33992  286.74 0855.45
2009/04/23 08:07:39.0      46   -255    -10    260    261 169.8  -2.2  33992  286.74 0855.45
2009/04/23 08:07:39.1      48   -202     -1    208    209 166.4  -0.5  33992  286.74 0855.45
2009/04/23 08:07:39.2      69   -185    -33    198    201 159.3  -9.6  33992  286.74 0855.45
2009/04/23 08:07:39.3      61   -189    -17    199    200 162.0  -5.1  33992  286.73 0855.45
2009/04/23 08:07:39.4      52   -189    -25    197    199 164.4  -7.5  33992  286.73 0855.45
2009/04/23 08:07:39.5      11   -179    -28    180    183 176.4  -8.8  33992  286.74 0855.45
2009/04/23 08:07:39.6      -9   -126    -40    127    134 184.5 -17.5  33990  286.69 0855.45
2009/04/23 08:07:39.7      10   -109    -59    110    124 174.7 -35.2  33992  286.74 0855.45
2009/04/23 08:07:39.8      23    -88    -38     91     98 165.3 -28.0  33992  286.73 0855.45
2009/04/23 08:07:39.9      30    -86    -27     92     95 160.8 -21.2  33992  286.73 0855.45
2009/04/23 08:07:40.0      31    -79    -11     86     87 158.2  -7.7  33990  286.71 0855.45
2009/04/23 08:07:40.1      34    -58    -20     68     70 149.3 -21.7  33992  286.73 0855.45
2009/04/23 08:07:40.2      36    -52    -22     64     67 144.8 -23.3  33990  286.71 0855.45
2009/04/23 08:07:40.3      65    -69    -26     96    100 136.8 -15.5  33994  286.76 0855.45
2009/04/23 08:07:40.4      63    -55    -46     84     95 131.3 -35.8  33990  286.71 0855.45
2009/04/23 08:07:40.5      57    -57    -24     82     85 135.0 -21.2  33990  286.69 0855.45
2009/04/23 08:07:40.6      64   -101    -36    120    126 147.5 -17.0  33990  286.69 0855.45
2009/04/23 08:07:40.7      76   -120    -32    143    147 147.5 -12.9  33986  286.64 0855.45
2009/04/23 08:07:40.8     112   -158    -20    194    196 144.6  -6.0  33988  286.67 0855.45
2009/04/23 08:07:40.9     121   -148    -25    192    194 140.6  -7.5  33990  286.71 0855.45
2009/04/23 08:07:41.0      93   -143    -31    171    174 147.0 -10.3  33988  286.67 0855.45
2009/04/23 08:07:41.1      88   -114      2    145    146 142.2   0.8  33988  286.67 0855.45
2009/04/23 08:07:41.2      91   -110    -18    144    146 140.3  -7.3  33990  286.71 0855.45
2009/04/23 08:07:41.3      89   -107     43    140    147 140.4  17.4  33988  286.67 0855.45
2009/04/23 08:07:41.4      43   -107    -11    116    117 158.1  -5.6  33988  286.66 0855.45
2009/04/23 08:07:41.5      93    -81     -8    124    125 131.3  -3.7  33988  286.66 0855.45
2009/04/23 08:07:41.6      92    -64     14    113    114 125.1   7.1  33990  286.71 0855.45
2009/04/23 08:07:41.7     103   -121     12    160    161 139.5   4.6  33988  286.67 0855.45
2009/04/23 08:07:41.8     122   -128     17    178    179 136.3   5.7  33988  286.67 0855.45
2009/04/23 08:07:41.9     113   -112     -7    160    161 134.8  -2.6  33986  286.64 0855.45
2009/04/23 08:07:42.0      92   -138      2    167    168 146.2   1.0  33988  286.67 0855.45
2009/04/23 08:07:42.1      94   -134    -29    164    167 144.8 -10.3  33986  286.62 0855.45
2009/04/23 08:07:42.2     111   -141    -33    180    184 141.9 -10.5  33988  286.67 0855.45
2009/04/23 08:07:42.3     160   -158    -12    226    227 134.7  -3.2  33992  286.73 0855.45
2009/04/23 08:07:42.4     126   -183     10    223    224 145.3   2.8  33992  286.73 0855.45
2009/04/23 08:07:42.5     148   -177     11    232    233 140.1   2.8  33992  286.74 0855.45
2009/04/23 08:07:42.6     187   -193     40    269    273 135.9   8.5  33990  286.68 0855.45
2009/04/23 08:07:42.7     193   -199     64    278    286 135.9  13.1  33988  286.67 0855.45
2009/04/23 08:07:42.8     231   -211     45    313    317 132.4   8.3  33988  286.67 0855.45
2009/04/23 08:07:42.9     237   -238     26    337    339 135.1   4.5  33990  286.71 0855.45
2009/04/23 08:07:43.0     244   -259     67    356    363 136.7  10.7  33990  286.71 0855.45
2009/04/23 08:07:43.1     232   -216     56    318    324 132.9  10.1  33988  286.67 0855.45
2009/04/23 08:07:43.2     223   -185     51    290    295 129.6  10.1  33988  286.67 0855.45
2009/04/23 08:07:43.3     179   -178     46    253    258 134.9  10.3  33990  286.68 0855.45
2009/04/23 08:07:43.4     177   -233     45    293    297 142.8   8.8  33992  286.72 0855.45
2009/04/23 08:07:43.5     192   -204     20    281    282 136.8   4.2  33986  286.62 0855.45
2009/04/23 08:07:43.6     196   -191     64    274    282 134.2  13.1  33994  286.77 0855.45
2009/04/23 08:07:43.7     210   -198     56    289    295 133.3  11.1  33996  286.79 0855.45
2009/04/23 08:07:43.8     229   -188     47    297    301 129.3   9.0  33994  286.75 0855.45
2009/04/23 08:07:43.9     163   -166     87    233    248 135.5  21.3  33992  286.74 0855.45
2009/04/23 08:07:44.0     168   -197     91    260    275 139.5  20.0  33992  286.74 0855.45
2009/04/23 08:07:44.1     174   -233     59    291    298 143.3  11.6  33992  286.72 0855.45
2009/04/23 08:07:44.2     115   -196     81    228    241 149.5  20.0  33994  286.75 0855.45
2009/04/23 08:07:44.3     130   -166     94    212    231 141.9  25.3  33994  286.76 0855.45
2009/04/23 08:07:44.4     126   -166     34    209    212 142.8   9.5  33992  286.74 0855.45
2009/04/23 08:07:44.5     151   -152     33    215    218 135.2   8.8  33992  286.73 0855.45
2009/04/23 08:07:44.6     120   -154     67    196    208 141.9  18.9  33992  286.73 0855.45
2009/04/23 08:07:44.7     132   -156     -4    205    206 139.7  -1.2  33990  286.69 0855.45
2009/04/23 08:07:44.8     119   -139     17    184    185 139.5   5.4  33990  286.69 0855.45
2009/04/23 08:07:44.9     140   -102      4    174    175 126.2   1.6  33990  286.69 0855.45
2009/04/23 08:07:45.0     154   -154      0    218    219 135.0   0.0  33990  286.69 0855.45
2009/04/23 08:07:45.1     116   -211    105    241    262 151.1  25.1  33996  286.80 0855.45
2009/04/23 08:07:45.2     147   -177     46    231    236 140.4  11.4  33996  286.80 0855.45
2009/04/23 08:07:45.3     143   -171     30    224    227 140.1   7.8  33996  286.79 0855.45
2009/04/23 08:07:45.4     203   -233     28    310    312 139.0   5.2  33994  286.77 0855.45
2009/04/23 08:07:45.5     196   -261     64    327    334 143.0  11.1  33998  286.83 0855.45
2009/04/23 08:07:45.6     173   -189     57    257    264 137.5  12.6  33996  286.80 0855.45
2009/04/23 08:07:45.7     175   -133     14    221    222 127.3   3.8  33994  286.78 0855.45
2009/04/23 08:07:45.8     105   -129    -59    167    178 140.6 -19.6  33994  286.78 0855.45
2009/04/23 08:07:45.9      77   -155    -60    174    185 153.5 -19.1  33996  286.79 0855.45
2009/04/23 08:07:46.0      78   -154    -42    173    179 153.0 -13.7  33994  286.76 0855.45
2009/04/23 08:07:46.1      61   -194     25    204    206 162.4   7.2  33990  286.71 0855.45
2009/04/23 08:07:46.2      17   -168     85    169    189 174.2  28.5  33990  286.71 0855.45
2009/04/23 08:07:46.3       0   -151     77    152    170 180.0  28.7  33992  286.74 0855.45
2009/04/23 08:07:46.4      -8   -110     39    111    117 184.4  20.0  33992  286.73 0855.45
2009/04/23 08:07:46.5     -61   -120      9    135    136 207.1   3.8  33994  286.76 0855.45
2009/04/23 08:07:46.6     -41   -107    -32    115    120 201.4 -15.5  33994  286.76 0855.45
2009/04/23 08:07:46.7     -12    -80    -58     82    100 188.9 -43.5  33994  286.78 0855.45
2009/04/23 08:07:46.8      -4    -57    -67     58     88 184.4 -59.2  33994  286.78 0855.45
2009/04/23 08:07:46.9      -4    -49    -99     50    110 185.3 -76.3  33992  286.73 0855.45
2009/04/23 08:07:47.0      10    -82   -102     83    131 172.4 -60.8  33992  286.73 0855.45
2009/04/23 08:07:47.1      14    -90   -117     92    148 171.1 -62.3  33994  286.76 0855.45
2009/04/23 08:07:47.2      28   -111    -80    115    140 165.7 -42.4  33990  286.71 0855.45
2009/04/23 08:07:47.3       2    -81    -37     82     89 178.2 -30.6  33992  286.74 0855.45
2009/04/23 08:07:47.4     -26    -45    -46     53     70 209.9 -49.2  33992  286.74 0855.45
2009/04/23 08:07:47.5     -26    -28    -28     39     48 223.4 -43.0  33994  286.76 0855.45
2009/04/23 08:07:47.6     -23    -35    -31     42     52 213.4 -45.1  33994  286.76 0855.45
2009/04/23 08:07:47.7      -3    -50    -46     51     68 184.5 -52.3  33992  286.74 0855.45
2009/04/23 08:07:47.8     -27    -41    -64     50     81 213.4 -62.3  33992  286.73 0855.45
2009/04/23 08:07:47.9      34    -41    -40     54     67 140.4 -44.1  33994  286.76 0855.45
2009/04/23 08:07:48.0      89    -56    -40    106    113 122.5 -25.9  33992  286.73 0855.45
2009/04/23 08:07:48.1      97    -39    -32    105    109 111.8 -22.3  33992  286.74 0855.45
2009/04/23 08:07:48.2      71    -62      3     95     96 130.9   2.3  33994  286.78 0855.45
2009/04/23 08:07:48.3     105    -59    -13    121    122 119.3  -6.2  33992  286.73 0855.45
2009/04/23 08:07:48.4     108    -26    -22    112    115 103.7 -11.3  33992  286.74 0855.45
2009/04/23 08:07:48.5      90    -18     30     92     97 101.5  18.4  33994  286.78 0855.45
2009/04/23 08:07:48.6     103    -14     49    105    115  98.0  27.1  33992  286.73 0855.45
2009/04/23 08:07:48.7     114    -15     57    116    129  97.9  27.8  33992  286.73 0855.45
2009/04/23 08:07:48.8     153     30     54    156    166  78.8  19.2  33996  286.79 0855.45
2009/04/23 08:07:48.9     173     10     78    174    190  86.5  25.9  33994  286.76 0855.45
2009/04/23 08:07:49.0     130     10    106    131    168  85.6  43.3  33994  286.76 0855.45
2009/04/23 08:07:49.1     143     -3     83    144    166  91.3  32.7  33996  286.81 0855.45
2009/04/23 08:07:49.2     136     10     83    137    160  85.6  34.2  33994  286.78 0855.45
2009/04/23 08:07:49.3     110     24     72    113    133  77.2  35.5  33996  286.79 0855.44
2009/04/23 08:07:49.4     101     -7     64    102    120  94.4  35.5  33996  286.81 0855.44
2009/04/23 08:07:49.5     133      0     26    134    137  89.6  11.1  33994  286.78 0855.44
2009/04/23 08:07:49.6     104     57     58    119    132  61.1  27.3  33996  286.79 0855.44
2009/04/23 08:07:49.7     151     48     14    159    160  72.3   5.2  33996  286.81 0855.44
2009/04/23 08:07:49.8     122      5     38    123    129  87.4  17.3  33994  286.78 0855.44
2009/04/23 08:07:49.9      94      0     30     95    100  90.0  17.9  33996  286.79 0855.44
2009/04/23 08:07:50.0      97     19     53     99    112  78.6  30.8  33996  286.79 0855.44
2009/04/23 08:07:50.1      78    -21     70     81    107 105.5  45.4  33994  286.76 0855.44
2009/04/23 08:07:50.2     129    -93     82    160    179 126.0  29.3  33990  286.71 0855.44
2009/04/23 08:07:50.3     124    -84     30    150    154 124.2  11.6  33992  286.74 0855.44
2009/04/23 08:07:50.4     161    -77     39    179    184 115.8  12.4  33994  286.76 0855.44
2009/04/23 08:07:50.6     176    -72     19    191    192 112.4   5.7  33992  286.74 0855.44
2009/04/23 08:07:50.7     157    -92     49    183    190 120.4  15.0  33992  286.73 0855.44
2009/04/23 08:07:50.8     141    -90     40    168    173 122.5  13.7  33994  286.76 0855.44
2009/04/23 08:07:50.9     133    -44     48    141    150 108.2  18.9  33992  286.74 0855.44
2009/04/23 08:07:51.0     146      0     56    147    157  90.0  21.7  33990  286.71 0855.44
2009/04/23 08:07:51.1     120     61     62    135    148  63.0  26.6  33992  286.74 0855.44
2009/04/23 08:07:51.2      92    111     68    145    160  39.6  27.0  33992  286.74 0855.44
2009/04/23 08:07:51.3     129     45     64    137    151  70.5  27.1  33994  286.76 0855.44
2009/04/23 08:07:51.4     123     45     66    132    147  70.0  28.2  33992  286.73 0855.43
2009/04/23 08:07:51.5     123     45     59    132    144  70.0  25.7  33996  286.81 0855.43
2009/04/23 08:07:51.6      74     56     52     94    107  52.7  31.4  33996  286.79 0855.43
2009/04/23 08:07:51.7     112     41    115    120    166  70.0  49.0  33994  286.78 0855.43
2009/04/23 08:07:51.8     152     48     99    160    188  72.3  35.0  33996  286.79 0855.43
2009/04/23 08:07:51.9     138     94     86    168    188  55.6  29.3  33994  286.76 0855.43
2009/04/23 08:07:52.0     137     54     53    148    157  68.3  20.4  33992  286.73 0855.43
2009/04/23 08:07:52.1     113    115     30    162    165  44.5  10.8  33994  286.76 0855.43
2009/04/23 08:07:52.2     114    101     -3    153    154  48.2  -1.2  33994  286.76 0855.43
2009/04/23 08:07:52.3      76     48     49     90    102  57.6  31.3  33990  286.71 0855.43
2009/04/23 08:07:52.4      89      0    103     90    136  90.0  54.3  33996  286.79 0855.43
2009/04/23 08:07:52.5      94     54     47    109    118  60.2  25.1  33990  286.71 0855.43
2009/04/23 08:07:52.6     124     64     68    140    155  62.5  27.3  33992  286.73 0855.43
2009/04/23 08:07:52.7     108     58     60    123    136  61.6  27.3  33992  286.74 0855.43
2009/04/23 08:07:52.8     141     67     53    157    166  64.6  18.9  33994  286.76 0855.43
2009/04/23 08:07:52.9     143     77     56    163    173  61.8  19.2  33992  286.74 0855.43
2009/04/23 08:07:53.0     145     63     81    159    178  66.5  29.3  33994  286.76 0855.43
2009/04/23 08:07:53.1     111     93     72    145    161  50.0  28.2  33992  286.73 0855.43
2009/04/23 08:07:53.2     107     35     77    113    136  71.6  37.4  33990  286.69 0855.43
2009/04/23 08:07:53.3     131     37     66    137    152  74.1  27.3  33994  286.78 0855.43
2009/04/23 08:07:53.4     148     60     -9    160    161  67.8  -3.3  33996  286.79 0855.42
2009/04/23 08:07:53.5      87     72     -2    114    115  50.5  -1.3  33994  286.76 0855.42
2009/04/23 08:07:53.6     108     20     57    110    123  79.4  29.3  33994  286.76 0855.42
2009/04/23 08:07:53.7     128     33     69    133    149  75.4  29.3  33998  286.83 0855.42
2009/04/23 08:07:53.8     127     41     49    134    142  71.8  20.9  33996  286.81 0855.42
2009/04/23 08:07:53.9     142     73     53    160    169  62.7  18.6  33994  286.78 0855.42
2009/04/23 08:07:54.0     156     63     26    169    172  67.8   9.0  33996  286.79 0855.42
2009/04/23 08:07:54.1     170     67     22    183    185  68.5   6.9  33994  286.78 0855.42
2009/04/23 08:07:54.2     178     59     -2    188    189  71.6  -0.7  33996  286.79 0855.42
2009/04/23 08:07:54.3     147     53     55    157    166  70.0  20.0  33996  286.81 0855.42
2009/04/23 08:07:54.4     132     62     68    146    161  64.8  26.6  33996  286.81 0855.42
2009/04/23 08:07:54.5     123     78     59    146    157  57.5  23.0  33996  286.81 0855.42
2009/04/23 08:07:54.6     113     73     62    135    148  57.1  26.6  33994  286.76 0855.42
2009/04/23 08:07:54.7     121     67     42    139    146  61.2  16.8  33996  286.79 0855.42
2009/04/23 08:07:54.8     129     45     64    137    151  70.5  27.1  33994  286.76 0855.42
2009/04/23 08:07:54.9     176     62     38    187    191  70.5  11.6  33992  286.74 0855.42
2009/04/23 08:07:55.0     155      4     82    156    176  88.3  30.1  33994  286.78 0855.42
2009/04/23 08:07:55.1     174      3     47    175    182  88.7  15.2  33994  286.76 0855.42
2009/04/23 08:07:55.2     142      0     76    143    161  90.0  30.1  33996  286.79 0855.42
2009/04/23 08:07:55.3     101     -1    105    102    146  90.8  50.7  33992  286.74 0855.42
2009/04/23 08:07:55.4     117     -2     79    118    142  91.3  37.0  33994  286.78 0855.43
2009/04/23 08:07:55.5     126      6     73    127    146  87.0  32.9  33992  286.74 0855.43
2009/04/23 08:07:55.6     115      7     77    116    139  86.1  36.5  33992  286.74 0855.43
2009/04/23 08:07:55.7     121     16     44    123    130  82.1  20.0  33994  286.76 0855.43
2009/04/23 08:07:55.8     101     -1     49    102    113  90.9  27.2  33992  286.74 0855.43
2009/04/23 08:07:55.9     106      3     72    107    128  88.3  37.0  33994  286.78 0855.43
2009/04/23 08:07:56.0     122     -1     70    123    141  90.8  31.9  33994  286.76 0855.43
2009/04/23 08:07:56.1     110    -51     82    122    146 114.8  37.0  33996  286.79 0855.43
2009/04/23 08:07:56.2     145   -161     77    217    231 137.9  19.6  33994  286.78 0855.43
2009/04/23 08:07:56.3     151   -222     37    269    272 145.7   8.0  33996  286.79 0855.43
2009/04/23 08:07:56.4     188   -136     82    233    247 126.0  20.0  33996  286.79 0855.43
2009/04/23 08:07:56.5     190   -130     60    231    239 124.4  14.7  33996  286.80 0855.43
2009/04/23 08:07:56.6     189   -151     37    242    245 128.6   8.9  34000  286.85 0855.43
2009/04/23 08:07:56.7     218    -74     69    231    242 108.8  16.8  33998  286.84 0855.43
2009/04/23 08:07:56.8     177   -126     -8    218    219 125.5  -2.2  33998  286.83 0855.43
2009/04/23 08:07:56.9     184   -121     60    221    230 123.5  15.2  33994  286.78 0855.43
2009/04/23 08:07:57.0     149   -109    108    185    214 126.2  33.4  33996  286.81 0855.43
2009/04/23 08:07:57.1     113   -107     96    156    183 133.6  35.0  33998  286.84 0855.43
2009/04/23 08:07:57.2      22   -175     59    177    187 172.7  18.6  33996  286.79 0855.43
2009/04/23 08:07:57.3     100   -181    -26    207    209 151.0  -7.2  33996  286.81 0855.43
2009/04/23 08:07:57.4      68   -202    -27    214    216 161.3  -7.3  33998  286.83 0855.43
2009/04/23 08:07:57.5      85   -273     54    287    293 162.6  10.8  33998  286.82 0855.43
2009/04/23 08:07:57.6     100   -294     61    311    317 161.1  11.1  33996  286.80 0855.43
2009/04/23 08:07:57.7     164   -245     16    295    296 146.2   3.3  33998  286.84 0855.43
2009/04/23 08:07:57.8     166   -280     10    326    327 149.3   1.8  33998  286.84 0855.43
2009/04/23 08:07:57.9      99   -296    107    313    331 161.5  18.9  33996  286.80 0855.43
2009/04/23 08:07:58.0     108   -250    141    273    307 156.6  29.3  33998  286.84 0855.43
2009/04/23 08:07:58.1     103   -162     67    193    205 147.5  19.2  33998  286.83 0855.43
2009/04/23 08:07:58.2      65   -149    124    163    204 156.3  41.2  33998  286.84 0855.43
2009/04/23 08:07:58.3     138   -137    113    195    225 134.7  32.7  33996  286.81 0855.43
2009/04/23 08:07:58.4      95    -65    140    116    181 124.2  56.3  33996  286.81 0855.43
2009/04/23 08:07:58.5     163    -67    133    177    221 112.4  40.7  34000  286.86 0855.43
2009/04/23 08:07:58.6     194    -46    132    200    239 103.5  36.5  33998  286.83 0855.43
2009/04/23 08:07:58.7      21     21    129     30    132  45.0  87.0  33998  286.83 0855.43
2009/04/23 08:07:58.8      13      8    132     16    132  57.6  90.0  33996  286.81 0855.43
2009/04/23 08:07:58.9       3     -3     99      5     99 135.0  90.0  33998  286.84 0855.43
2009/04/23 08:07:59.0     -27    -52    111     59    125 208.1  69.8  33996  286.81 0855.43
2009/04/23 08:07:59.1      -4   -160    116    161    198 181.6  39.5  33996  286.79 0855.43
2009/04/23 08:07:59.2      69   -120     66    139    153 150.1  27.2  33996  286.81 0855.43
2009/04/23 08:07:59.3      37   -192     79    196    211 169.1  23.0  33998  286.84 0855.43
2009/04/23 08:07:59.4      42   -239     85    243    257 170.0  20.0  33998  286.84 0855.43
2009/04/23 08:07:59.5      40   -238     90    242    258 170.3  21.3  33996  286.80 0855.43
2009/04/23 08:07:59.6      49   -215     88    221    237 167.1  23.0  33998  286.84 0855.43
2009/04/23 08:07:59.7      52   -192     80    199    214 164.8  23.0  33998  286.83 0855.43
2009/04/23 08:07:59.8     124   -216    119    250    276 150.1  27.2  33998  286.84 0855.43
2009/04/23 08:07:59.9     111   -175    106    208    233 147.5  29.2  33996  286.81 0855.43
2009/04/23 08:08:00.0     134   -185     83    229    243 144.2  20.7  34000  286.85 0855.43
2009/04/23 08:08:00.1     141   -140     74    199    212 134.8  21.0  33994  286.78 0855.43
2009/04/23 08:08:00.2     133    -83     51    157    166 122.0  17.9  33996  286.79 0855.43
2009/04/23 08:08:00.3      28    -98     82    102    130 164.0  43.7  33996  286.81 0855.43
2009/04/23 08:08:00.4      52   -120     74    131    150 156.4  31.4  33996  286.81 0855.43
2009/04/23 08:08:00.5      52   -124     70    135    152 157.3  29.3  33998  286.83 0855.43
2009/04/23 08:08:00.6      10   -132     95    133    163 175.5  39.1  33998  286.83 0855.43
2009/04/23 08:08:00.7       2   -177     94    178    201 179.3  30.1  33998  286.83 0855.43
2009/04/23 08:08:00.8      74   -211    101    224    245 160.6  26.2  34002  286.90 0855.43
2009/04/23 08:08:00.9      17   -165    101    166    194 174.0  34.8  33998  286.83 0855.43
2009/04/23 08:08:01.0      -3   -143    146    144    205 181.4  50.1  33998  286.84 0855.43
2009/04/23 08:08:01.1     -17   -149    156    151    217 186.7  51.2  34000  286.88 0855.43
2009/04/23 08:08:01.2     -16    -47     94     50    106 198.7  69.3  34000  286.88 0855.43
2009/04/23 08:08:01.3      53    -86    114    102    152 148.4  53.3  33998  286.83 0855.43
2009/04/23 08:08:01.4     -41   -159    153    165    225 194.7  47.9  33994  286.76 0855.43
2009/04/23 08:08:01.5     -61    -92     92    111    144 213.8  43.7  33994  286.76 0855.43
2009/04/23 08:08:01.6      28    -26     82     39     90 133.1  72.9  33998  286.83 0855.43
2009/04/23 08:08:01.7     119    -95    107    153    186 128.6  38.6  34000  286.86 0855.43
2009/04/23 08:08:01.8      94    -85     97    128    160 132.2  40.9  33998  286.83 0855.43
2009/04/23 08:08:01.9     112    -76     90    136    163 124.2  36.5  33998  286.84 0855.43
2009/04/23 08:08:02.0     110    -49     41    121    128 114.0  18.9  33996  286.81 0855.43
2009/04/23 08:08:02.1     110    -22     46    113    122 101.5  23.0  33996  286.81 0855.43
2009/04/23 08:08:02.2     108      2     43    109    117  88.7  22.5  33994  286.78 0855.43
2009/04/23 08:08:02.3      90     -9     34     91     97  96.1  20.4  33992  286.74 0855.43
2009/04/23 08:08:02.4       0    -66     61     67     90 180.0  47.5  33996  286.79 0855.44
2009/04/23 08:08:02.5     -13   -124     80    125    148 186.3  35.6  34000  286.88 0855.44
2009/04/23 08:08:02.6      27   -152     47    155    163 169.8  17.1  33996  286.81 0855.44
2009/04/23 08:08:02.7      42   -120     46    128    136 160.4  20.4  33994  286.78 0855.44
2009/04/23 08:08:02.8      50   -125     42    135    142 158.2  17.4  33994  286.76 0855.44
2009/04/23 08:08:02.9      82   -129     55    154    163 147.5  20.2  33992  286.74 0855.44
2009/04/23 08:08:03.0     150   -101     -7    182    183 124.0  -2.2  33992  286.74 0855.44
2009/04/23 08:08:03.1     157   -160     58    225    233 135.7  14.5  33994  286.78 0855.44
2009/04/23 08:08:03.2     102   -182     24    209    211 150.6   6.7  33998  286.84 0855.44
2009/04/23 08:08:03.3      96   -170     32    196    199 150.6   9.5  34000  286.88 0855.44
2009/04/23 08:08:03.4      93   -176     47    200    206 152.1  13.2  34002  286.91 0855.44
2009/04/23 08:08:03.5     155   -214    -27    265    267 144.0  -6.0  34000  286.85 0855.44
2009/04/23 08:08:03.6     165   -252     20    302    303 146.8   3.8  34000  286.87 0855.44
2009/04/23 08:08:03.7     180   -219     29    284    286 140.6   5.9  34002  286.89 0855.44
2009/04/23 08:08:03.8     132   -202     25    242    244 146.8   5.9  34002  286.89 0855.44
2009/04/23 08:08:03.9     122   -192     22    228    230 147.5   5.7  34002  286.91 0855.44
2009/04/23 08:08:04.0     131   -182     55    225    232 144.4  13.9  34000  286.86 0855.44
2009/04/23 08:08:04.1     103   -186     58    213    221 151.0  15.3  34000  286.86 0855.44
2009/04/23 08:08:04.2     150   -140     67    206    217 132.9  18.1  34000  286.88 0855.44
2009/04/23 08:08:04.3      88   -107     93    139    167 140.4  37.0  33996  286.79 0855.44
2009/04/23 08:08:04.4      46   -164    114    171    205 164.2  36.7  33998  286.83 0855.44
2009/04/23 08:08:04.5     113   -138    142    179    228 140.6  42.7  33994  286.76 0855.44
2009/04/23 08:08:04.6     139   -165    121    216    247 139.9  31.6  33992  286.74 0855.44
2009/04/23 08:08:04.7     142   -192    117    240    267 143.5  27.4  33996  286.80 0855.44
2009/04/23 08:08:04.8     108   -228    137    253    287 154.7  30.8  33996  286.79 0855.44
2009/04/23 08:08:04.9     114   -157     83    195    211 143.9  24.6  34000  286.88 0855.44
2009/04/23 08:08:05.0     114   -151     85    190    208 143.0  25.7  33998  286.83 0855.44
2009/04/23 08:08:05.1     115   -128     61    173    184 138.1  19.4  34000  286.88 0855.44
2009/04/23 08:08:05.2      85   -145     57    169    179 149.5  18.6  34000  286.88 0855.44
2009/04/23 08:08:05.3      85   -178     38    198    202 154.4  11.1  33998  286.84 0855.44
2009/04/23 08:08:05.4      55   -223     24    230    232 166.0   6.1  33994  286.78 0855.44
2009/04/23 08:08:05.5     100   -212     36    235    238 154.7   8.9  34000  286.87 0855.44
2009/04/23 08:08:05.6      84   -261     59    275    282 162.1  12.1  34002  286.89 0855.44
2009/04/23 08:08:05.7      86   -220     71    237    248 158.6  16.8  34000  286.87 0855.44
2009/04/23 08:08:05.8      70   -187     21    200    202 159.3   6.1  34000  286.86 0855.44
2009/04/23 08:08:05.9      88   -121     18    151    153 143.9   6.9  34000  286.88 0855.44
2009/04/23 08:08:06.0     121   -148    -11    192    193 140.8  -3.3  34000  286.88 0855.44
2009/04/23 08:08:06.1     115   -153    -27    192    194 143.0  -8.0  33998  286.83 0855.44
2009/04/23 08:08:06.2      94   -151      2    179    180 148.1   0.8  34000  286.88 0855.44
2009/04/23 08:08:06.3     106   -133    -12    171    172 141.5  -4.1  33998  286.83 0855.44
2009/04/23 08:08:06.4      65   -138    -42    153    159 154.5 -15.5  33996  286.81 0855.44
2009/04/23 08:08:06.5      37   -156    -24    161    163 166.4  -8.8  33998  286.83 0855.44
2009/04/23 08:08:06.6       0   -146    -42    147    153 180.0 -16.0  33996  286.79 0855.44
2009/04/23 08:08:06.7      -1   -131    -54    132    142 180.5 -27.5  34000  286.86 0855.44
2009/04/23 08:08:06.8     -15   -128    -57    129    141 187.1 -29.6  33998  286.83 0855.44
2009/04/23 08:08:06.9      -2   -132    -44    133    140 181.0 -23.8  33998  286.83 0855.44
2009/04/23 08:08:07.0      -4   -143    -51    144    153 181.8 -19.6  33998  286.83 0855.44
2009/04/23 08:08:07.1     -17   -103    -17    105    107 189.8  -9.3  33996  286.79 0855.44
2009/04/23 08:08:07.2      15   -140    -46    141    149 173.8 -18.1  33998  286.83 0855.44
2009/04/23 08:08:07.3      36   -156    -61    161    172 166.7 -25.9  33998  286.83 0855.44
2009/04/23 08:08:07.4      58   -140    -51    152    160 157.3 -23.6  33998  286.84 0855.44
2009/04/23 08:08:07.5      44   -116    -51    125    135 159.1 -27.5  34000  286.86 0855.44
2009/04/23 08:08:07.6      40   -109    -44    117    125 160.0 -25.4  33998  286.84 0855.44
2009/04/23 08:08:07.7     134   -125    -53    184    191 133.1 -20.7  34000  286.88 0855.44
2009/04/23 08:08:07.8     119    -95    -50    153    160 128.6 -23.3  34000  286.86 0855.44
2009/04/23 08:08:07.9      72    -87    -46    113    122 140.4 -27.4  33998  286.84 0855.44
2009/04/23 08:08:08.0      33    -95    -34    101    107 160.4 -18.7  33998  286.84 0855.44
2009/04/23 08:08:08.1      50   -104    -20    116    118 154.1  -9.8  33998  286.84 0855.44
2009/04/23 08:08:08.2      72    -87    -33    113    117 140.4 -21.7  34002  286.89 0855.44
2009/04/23 08:08:08.3      36    -77    -27     86     91 154.6 -17.6  33998  286.83 0855.44
2009/04/23 08:08:08.4      59    -94    -41    112    119 147.9 -25.3  33996  286.81 0855.44
2009/04/23 08:08:08.5      61    -87    -35    107    112 144.8 -23.8  33998  286.83 0855.44
2009/04/23 08:08:08.6       9   -117    -15    118    119 175.6  -7.3  33996  286.79 0855.44
2009/04/23 08:08:08.7      10   -134    -12    135    136 175.5  -5.2  33998  286.83 0855.44
2009/04/23 08:08:08.8      22   -157     -4    159    160 172.0  -1.6  34006  286.96 0855.44
2009/04/23 08:08:08.9      38   -141    -11    147    148 164.9  -4.6  34006  286.98 0855.44
2009/04/23 08:08:09.0      59   -142     -8    155    156 157.3  -3.1  34006  286.96 0855.44
2009/04/23 08:08:09.1      54   -142     -6    153    154 159.1  -2.2  34006  286.98 0855.44
2009/04/23 08:08:09.2      42   -152      4    158    159 164.4   1.6  34004  286.94 0855.44
2009/04/23 08:08:09.3      51   -145     10    154    155 160.4   3.8  34006  286.96 0855.44
2009/04/23 08:08:09.4      53   -139     12    149    150 159.1   5.0  34004  286.94 0855.44
2009/04/23 08:08:09.5      50   -134      3    144    145 159.5   1.2  34004  286.93 0855.44
2009/04/23 08:08:09.6      53   -125      1    137    138 156.8   0.8  34002  286.89 0855.44
2009/04/23 08:08:09.7      35   -102     -7    109    110 160.8  -4.1  34000  286.88 0855.44
2009/04/23 08:08:09.8       9   -117     -8    118    119 175.6  -4.1  34000  286.88 0855.44
2009/04/23 08:08:09.9      13   -125     24    126    129 173.8  11.1  34000  286.88 0855.44
2009/04/23 08:08:10.0      39   -138     -2    144    145 164.0  -1.2  34004  286.93 0855.44
2009/04/23 08:08:10.1      41   -124     19    131    133 161.7   8.5  34004  286.93 0855.44
2009/04/23 08:08:10.2      47   -129     43    138    145 159.9  17.4  34004  286.94 0855.44
2009/04/23 08:08:10.3      58   -142     28    154    157 157.7  10.6  34008  287.01 0855.44
2009/04/23 08:08:10.4      63   -117     26    134    137 151.5  11.0  34004  286.94 0855.45
2009/04/23 08:08:10.5      44   -106     41    115    122 157.3  20.4  34000  286.88 0855.45
2009/04/23 08:08:10.6      48   -147     42    155    161 161.7  15.3  34004  286.94 0855.45
2009/04/23 08:08:10.7      51   -138     41    148    154 159.5  15.8  34000  286.88 0855.45
2009/04/23 08:08:10.8      54   -120     45    132    140 155.5  18.9  34004  286.93 0855.45
2009/04/23 08:08:10.9      58   -121     31    135    139 154.5  13.2  34006  286.98 0855.45
2009/04/23 08:08:11.0      60   -104     42    121    129 150.1  19.4  34002  286.91 0855.45
2009/04/23 08:08:11.1      37   -122     44    128    136 163.0  19.2  34006  286.96 0855.45
2009/04/23 08:08:11.2      17   -110     44    112    120 171.1  23.0  34008  287.00 0855.45
2009/04/23 08:08:11.3       7    -98     11     99    100 175.6   6.9  34006  286.96 0855.45
2009/04/23 08:08:11.4      16    -86     25     88     92 168.9  15.8  34006  286.96 0855.45
2009/04/23 08:08:11.5      19    -91    -11     94     95 168.0  -6.7  34008  287.00 0855.45
2009/04/23 08:08:11.6      31    -75    -21     82     85 157.3 -14.5  34006  286.96 0855.45
2009/04/23 08:08:11.7      36    -32     -8     49     50 131.3  -9.3  34006  286.98 0855.45
2009/04/23 08:08:11.8      91    -15      4     93     94  99.7   2.9  34006  286.98 0855.45
2009/04/23 08:08:11.9      78    -31     13     84     86 111.7   9.0  34004  286.94 0855.45
2009/04/23 08:08:12.0      65    -41     27     78     83 122.4  19.4  34006  286.96 0855.45
2009/04/23 08:08:12.1      86    -30     23     92     95 109.5  14.3  34006  286.96 0855.45
2009/04/23 08:08:12.2      85    -48     43     98    107 119.8  24.6  34004  286.93 0855.45
2009/04/23 08:08:12.3      63    -35     78     73    106 118.9  52.1  34004  286.94 0855.45
2009/04/23 08:08:12.4      57    -45     62     73     95 128.6  44.3  34004  286.93 0855.45
2009/04/23 08:08:12.5      71    -23     46     75     87 108.4  35.0  34002  286.89 0855.45
2009/04/23 08:08:12.6     112    -34     49    118    127 106.8  23.6  34004  286.94 0855.45
2009/04/23 08:08:12.7      85    -50     34     99    105 120.7  19.4  34002  286.89 0855.45
2009/04/23 08:08:12.8      40    -40     59     57     82 134.9  50.7  34002  286.91 0855.45
2009/04/23 08:08:12.9      53    -53     42     75     85 135.0  31.9  34002  286.91 0855.45
2009/04/23 08:08:13.0      83    -31     59     89    106 110.8  36.5  34002  286.91 0855.45
2009/04/23 08:08:13.1       1    -76     75     77    107 179.1  50.0  34002  286.89 0855.45
2009/04/23 08:08:13.2     -10    -92     76     93    120 186.2  43.7  34002  286.89 0855.45
2009/04/23 08:08:13.3      23    -17     56     29     63 126.0  70.8  34002  286.89 0855.45
2009/04/23 08:08:13.4      -4    -57     69     58     90 184.4  56.3  34004  286.94 0855.45
2009/04/23 08:08:13.5     -21    -80     51     83     97 194.7  35.5  34004  286.94 0855.45
2009/04/23 08:08:13.6       5    -35     66     36     75 172.0  68.8  34004  286.93 0855.45
2009/04/23 08:08:13.7      37      2     51     38     63  85.6  59.4  34008  287.00 0855.45
2009/04/23 08:08:13.8       0    -21     33     22     39 180.9  63.6  34006  286.96 0855.45
2009/04/23 08:08:13.9       6     -6     41      9     41 136.6  88.0  34004  286.93 0855.45
2009/04/23 08:08:14.0      17    -22     37     28     46 142.2  59.4  34006  286.96 0855.45
2009/04/23 08:08:14.1      33      2     40     34     52  85.6  55.4  34004  286.93 0855.45
2009/04/23 08:08:14.2       6    -18     44     19     47 161.5  76.1  34006  286.98 0855.45
2009/04/23 08:08:14.3      -5    -90     82     91    122 183.6  46.9  34004  286.94 0855.45
2009/04/23 08:08:14.4     -34   -121    135    126    184 196.0  52.1  34004  286.93 0855.46
2009/04/23 08:08:14.5     -29   -124    140    128    189 193.4  52.7  34000  286.88 0855.46
2009/04/23 08:08:14.6     -33   -158    156    162    224 191.8  49.0  34002  286.89 0855.46
2009/04/23 08:08:14.7     -27   -146    123    149    193 190.7  43.7  34002  286.91 0855.46
2009/04/23 08:08:14.8     -68   -134    127    151    197 207.1  44.5  34002  286.91 0855.46
2009/04/23 08:08:14.9     -77   -154    115    173    207 206.7  36.7  34002  286.91 0855.46
2009/04/23 08:08:15.0     -33   -109    115    115    162 196.9  50.1  34000  286.88 0855.46
2009/04/23 08:08:15.1     -26    -92    101     96    139 196.0  51.6  34004  286.93 0855.46
2009/04/23 08:08:15.2     -13    -79     81     81    114 189.8  50.1  34000  286.88 0855.46
2009/04/23 08:08:15.3     -15    -54     61     57     83 196.0  51.6  34002  286.89 0855.46
2009/04/23 08:08:15.4     -18    -24     41     31     51 217.8  58.5  34004  286.93 0855.46
2009/04/23 08:08:15.5       0    -14     20     15     25 182.7  60.5  34002  286.91 0855.46
2009/04/23 08:08:15.6       0     23     12     24     26 359.1  29.3  34000  286.88 0855.46
2009/04/23 08:08:15.7       0     36     10     37     39   0.9  15.3  34002  286.91 0855.46
2009/04/23 08:08:15.8       6     21    -10     23     25  16.9 -27.4  34004  286.94 0855.46
2009/04/23 08:08:15.9       9     39    -45     41     60  13.4 -56.6  34000  286.88 0855.46
2009/04/23 08:08:16.0      29     63    -15     70     72  24.5 -12.4  34002  286.89 0855.46
2009/04/23 08:08:16.1      46     83    -21     96     99  29.0 -12.4  34004  286.94 0855.46
2009/04/23 08:08:16.2      70     72    -36    101    108  44.1 -19.7  34002  286.91 0855.46
2009/04/23 08:08:16.3      10     76      8     77     78   8.0   5.9  34002  286.89 0855.46
2009/04/23 08:08:16.4      16     21     39     27     47  37.8  62.6  34004  286.94 0855.46
2009/04/23 08:08:16.5      47     44     73     65     97  46.9  53.3  34000  286.86 0855.46
2009/04/23 08:08:16.6      32     60     72     69     99  28.1  51.2  34000  286.88 0855.46
2009/04/23 08:08:16.7      48     31     41     58     71  57.5  39.5  34004  286.94 0855.46
2009/04/23 08:08:16.8     -21    -20     25     30     39 226.9  43.8  34002  286.91 0855.46
2009/04/23 08:08:16.9     -13     22     21     26     33 329.3  43.7  34000  286.88 0855.46
2009/04/23 08:08:17.0      17     29     63     34     71  30.7  68.9  34000  286.88 0855.46
2009/04/23 08:08:17.1      -9     12     63     16     65 323.9  85.9  34002  286.89 0855.46
2009/04/23 08:08:17.2     -10    -42     70     44     82 194.3  64.7  34002  286.89 0855.46
2009/04/23 08:08:17.3     -64    -76    119    100    155 220.1  56.3  34004  286.93 0855.46
2009/04/23 08:08:17.4     -94    -94     92    133    161 225.0  38.0  34002  286.89 0855.46
2009/04/23 08:08:17.5     -94   -113     76    148    166 219.6  29.1  34002  286.89 0855.46
2009/04/23 08:08:17.6     -80   -103     65    131    146 217.9  27.8  34002  286.89 0855.46
2009/04/23 08:08:17.7     -54    -86     69    102    123 212.1  37.4  34000  286.86 0855.46
2009/04/23 08:08:17.8    -108    -89     48    141    150 230.4  18.9  33996  286.81 0855.46
2009/04/23 08:08:17.9     -61   -150     91    163    186 202.3  31.4  33996  286.81 0855.46
2009/04/23 08:08:18.0    -173    -88     97    195    217 242.9  28.5  33988  286.67 0855.46
2009/04/23 08:08:18.1    -149    -98    110    179    210 236.5  34.8  33990  286.69 0855.46
2009/04/23 08:08:18.2    -125    -49     80    135    156 248.7  33.1  33992  286.73 0855.46
2009/04/23 08:08:18.4    -113    -49     79    124    147 246.5  35.5  33996  286.79 0855.46
2009/04/23 08:08:18.5     -83     -7     40     84     93 264.8  27.2  34000  286.86 0855.48
2009/04/23 08:08:18.6     -90    102     40    137    143 318.5  16.3  33994  286.78 0855.48
2009/04/23 08:08:18.7     -32     47    -26     58     63 325.7 -29.5  33994  286.78 0855.48
2009/04/23 08:08:18.8      -5     82     43     83     93 356.4  29.3  33996  286.79 0855.48
2009/04/23 08:08:18.9     -26    -36     67     45     80 216.1  62.6  34000  286.88 0855.48
2009/04/23 08:08:19.0     -48    -43     60     65     88 227.8  47.9  34002  286.91 0855.48
2009/04/23 08:08:19.1     -56    -44     36     72     80 231.4  28.7  34002  286.91 0855.48
2009/04/23 08:08:19.2     -49    -40     24     64     68 230.5  20.0  34002  286.91 0855.48
2009/04/23 08:08:19.3     -50    -47     23     69     73 226.9  18.9  34004  286.93 0855.48
2009/04/23 08:08:19.4     -45    -54     35     71     79 219.7  28.2  34000  286.88 0855.48
2009/04/23 08:08:19.5     -52    -50     29     73     78 226.0  22.5  34002  286.91 0855.48
2009/04/23 08:08:19.6     -57    -50     31     77     83 228.7  23.0  34004  286.93 0855.48
2009/04/23 08:08:19.7     -55    -39      4     68     69 234.1   3.8  34004  286.94 0855.48
2009/04/23 08:08:19.8     -48    -21     -6     53     54 245.6  -7.3  34002  286.89 0855.48
2009/04/23 08:08:19.9     -29     -4     -3     30     31 262.1  -7.3  34002  286.91 0855.48
2009/04/23 08:08:20.0     -28     15     -4     33     34 298.9  -7.3  34002  286.89 0855.48
2009/04/23 08:08:20.1     -32     21    -11     39     40 304.2 -20.7  34002  286.91 0855.48
2009/04/23 08:08:20.2     -35     22    -22     42     47 302.4 -34.7  34000  286.88 0855.48
2009/04/23 08:08:20.3     -38     16    -16     42     44 292.6 -25.4  34000  286.88 0855.48
2009/04/23 08:08:20.4     -17     27    -18     33     37 327.4 -35.8  33998  286.84 0855.48
2009/04/23 08:08:20.5     -33     45    -26     56     61 323.9 -31.5  33996  286.81 0855.48
2009/04/23 08:08:20.6     -16     62    -22     65     68 344.9 -23.6  33998  286.83 0855.48
2009/04/23 08:08:20.7     -32     58     -9     67     68 331.0  -8.2  33998  286.84 0855.48
2009/04/23 08:08:20.8     -40     40    -27     57     63 314.9 -31.6  33998  286.83 0855.48
2009/04/23 08:08:20.9     -79     55    -18     97     99 305.1 -10.9  34000  286.86 0855.48
2009/04/23 08:08:21.0     -60     95    -23    113    116 327.5 -11.5  34000  286.88 0855.48
2009/04/23 08:08:21.1     -46    104    -37    114    119 335.9 -23.3  34004  286.94 0855.48
2009/04/23 08:08:21.2     -67    122    -44    140    147 331.0 -17.5  34004  286.93 0855.48
2009/04/23 08:08:21.3    -107     95    -45    144    152 311.4 -17.6  34000  286.86 0855.48
2009/04/23 08:08:21.4    -118     80    -18    143    145 304.2  -7.2  34000  286.88 0855.48
2009/04/23 08:08:21.5    -136     93    -19    165    167 304.4  -6.9  33998  286.83 0855.48
2009/04/23 08:08:21.6    -136     69     -6    153    154 297.1  -2.2  34000  286.88 0855.48
2009/04/23 08:08:21.7    -118     68    -49    137    146 299.8 -19.7  33994  286.78 0855.48
2009/04/23 08:08:21.8     -91     94    -28    131    135 315.9 -12.4  33998  286.83 0855.48
2009/04/23 08:08:21.9    -100     62    -23    118    121 302.0 -11.3  33996  286.81 0855.48
2009/04/23 08:08:22.0     -43     53     -1     69     70 321.3  -1.3  33998  286.83 0855.48
2009/04/23 08:08:22.1     -54     45    -44     71     83 309.5 -38.8  34000  286.86 0855.48
2009/04/23 08:08:22.2     -57     43    -41     72     82 306.9 -36.3  33998  286.84 0855.48
2009/04/23 08:08:22.3     -67     31    -40     75     85 295.2 -34.7  34000  286.88 0855.48
2009/04/23 08:08:22.4     -62     24    -49     67     83 291.7 -44.5  34000  286.86 0855.48
2009/04/23 08:08:22.5     -57     47    -57     75     94 309.5 -45.6  34000  286.88 0855.48
2009/04/23 08:08:22.6     -61     50    -45     80     91 309.5 -36.3  33998  286.83 0855.48
2009/04/23 08:08:22.7     -80     15    -17     82     84 280.6 -11.9  33996  286.81 0855.48
2009/04/23 08:08:22.8     -69    -38    -35     79     86 241.1 -29.5  34000  286.86 0855.48
2009/04/23 08:08:22.9     -65    -41     -4     78     79 237.6  -3.1  33996  286.81 0855.48
2009/04/23 08:08:23.0     -50    -37     33     63     71 233.1  30.3  34000  286.86 0855.48
2009/04/23 08:08:23.1     -16    -38     56     42     70 203.6  59.4  33996  286.79 0855.48
2009/04/23 08:08:23.2      17      7     96     19     97  68.3  89.1  34000  286.86 0855.48
2009/04/23 08:08:23.3      68     22    125     72    144  71.4  67.2  34002  286.89 0855.48
2009/04/23 08:08:23.4      51     20    106     55    119  68.3  70.8  34002  286.89 0855.48
2009/04/23 08:08:23.5      52     11     71     54     89  77.6  59.0  34008  287.00 0855.48
2009/04/23 08:08:23.6      46     21     34     51     61  64.8  36.5  34006  286.98 0855.48
2009/04/23 08:08:23.7      40     25     -1     48     49  57.6  -2.2  34008  287.01 0855.48
2009/04/23 08:08:23.8       0     53     33     54     63 359.1  34.4  34008  287.00 0855.48
2009/04/23 08:08:23.9     -21     25     27     33     42 320.4  44.8  34006  286.98 0855.48
2009/04/23 08:08:24.0     -59      0     43     60     73 270.0  39.7  34006  286.96 0855.48
2009/04/23 08:08:24.1     -59      0     29     60     66 270.0  27.2  34006  286.96 0855.48
2009/04/23 08:08:24.2     -65     -8     31     66     72 263.0  27.1  34000  286.86 0855.48
2009/04/23 08:08:24.3    -109    -25     13    112    113 256.7   6.9  34002  286.91 0855.48
2009/04/23 08:08:24.4     -73    -20    -25     76     80 254.1 -23.3  34002  286.91 0855.48
2009/04/23 08:08:24.5     -74    -48    -31     89     95 237.1 -19.1  34002  286.89 0855.47
2009/04/23 08:08:24.6     -47    -33    -64     58     86 234.9 -57.1  34002  286.89 0855.47
2009/04/23 08:08:24.7     -11     64    -59     65     87 350.2 -51.9  34006  286.96 0855.47
2009/04/23 08:08:24.8     -22     79    -41     83     92 344.0 -32.2  34004  286.94 0855.47
2009/04/23 08:08:24.9     -25     64    -33     69     76 338.2 -31.6  34002  286.89 0855.47
2009/04/23 08:08:25.0     -33     40    -25     53     58 320.4 -31.5  34002  286.91 0855.47
2009/04/23 08:08:25.1     -19     31     -2     37     38 327.4  -3.1  34006  286.96 0855.47
2009/04/23 08:08:25.2      23     30     -4     39     40  37.8  -6.2  34002  286.91 0855.47
2009/04/23 08:08:25.3      72     34     16     80     82  64.7  11.6  34002  286.89 0855.47
2009/04/23 08:08:25.4      91     58    -13    109    110  57.5  -7.2  34002  286.89 0855.47
2009/04/23 08:08:25.5     127     92    -55    158    167  54.1 -23.8  33998  286.83 0855.46
2009/04/23 08:08:25.6     183    179    -61    257    265  45.6 -13.4  34000  286.87 0855.46
2009/04/23 08:08:25.7     188    145    -85    238    253  52.3 -19.7  34000  286.87 0855.46
2009/04/23 08:08:25.8     173    135    -63    220    229  52.2 -16.0  33996  286.81 0855.46
2009/04/23 08:08:25.9     221     57      4    229    230  75.4   1.2  34002  286.89 0855.46
2009/04/23 08:08:26.0     278     57     34    284    287  78.3   6.9  34000  286.85 0855.46
2009/04/23 08:08:26.1     234     60     31    242    245  75.6   7.5  34000  286.87 0855.46
2009/04/23 08:08:26.2     233      2     33    234    237  89.4   8.2  34002  286.89 0855.46
2009/04/23 08:08:26.3     233     17     46    234    239  85.7  11.1  34000  286.87 0855.46
2009/04/23 08:08:26.4     224     10     23    225    227  87.4   5.9  34002  286.89 0855.46
2009/04/23 08:08:26.5     175    -61    -14    186    187 109.3  -4.6  34002  286.89 0855.46
2009/04/23 08:08:26.6     124    -90     33    154    158 125.9  12.4  34000  286.88 0855.46
2009/04/23 08:08:26.7     134    -48     26    143    146 110.0  10.6  34002  286.91 0855.46
2009/04/23 08:08:26.8     228    -31     35    231    234  97.9   8.8  34002  286.90 0855.46
2009/04/23 08:08:26.9     250   -102    -28    270    272 112.2  -6.1  34000  286.87 0855.46
2009/04/23 08:08:27.0     223   -107    -88    248    264 115.8 -19.7  33998  286.84 0855.46
2009/04/23 08:08:27.1     195    -39    -40    199    204 101.5 -11.5  34000  286.86 0855.46
2009/04/23 08:08:27.2     170    -16     -5    171    172  95.7  -1.8  33998  286.84 0855.46
2009/04/23 08:08:27.3     153      2     66    154    167  89.2  24.6  33998  286.84 0855.46
2009/04/23 08:08:27.4     125      9     24    126    129  85.6  11.1  33998  286.83 0855.46
2009/04/23 08:08:27.5     136     12    -57    137    148  84.8 -28.0  34000  286.86 0855.46
2009/04/23 08:08:27.6     166     11    -46    167    174  86.1 -15.5  34000  286.88 0855.46
2009/04/23 08:08:27.7     163    -53    -25    172    174 108.2  -8.6  34000  286.86 0855.46
2009/04/23 08:08:27.8     155      2     62    156    167  89.1  22.8  34000  286.88 0855.46
2009/04/23 08:08:27.9     108    -42     21    116    118 111.3  10.6  34000  286.88 0855.46
2009/04/23 08:08:28.0      93    -81     -4    124    125 130.9  -2.2  34002  286.89 0855.46
2009/04/23 08:08:28.1      94    -88      1    130    131 133.1   0.7  34002  286.89 0855.46
2009/04/23 08:08:28.2      86   -112    -28    142    145 142.6 -11.3  33998  286.83 0855.46
2009/04/23 08:08:28.3      41   -112    -33    120    125 160.0 -15.4  33998  286.84 0855.46
2009/04/23 08:08:28.4      59   -137    -43    150    157 156.8 -16.0  34000  286.88 0855.46
2009/04/23 08:08:28.5      33   -124    -52    129    139 164.9 -27.4  34000  286.88 0855.46
2009/04/23 08:08:28.6      19    -78    -53     81     96 165.7 -40.0  34002  286.89 0855.46
2009/04/23 08:08:28.7      17    -54    -35     57     66 161.7 -39.9  34000  286.88 0855.46
2009/04/23 08:08:28.8      20    -35    -27     41     49 149.3 -40.9  34000  286.86 0855.46
2009/04/23 08:08:28.9      14    -17    -12     23     25 140.4 -33.7  34000  286.86 0855.46
2009/04/23 08:08:29.0      -7    -37    -21     38     43 191.6 -35.8  34000  286.86 0855.46
2009/04/23 08:08:29.1       0    -27     -8     28     30 180.9 -15.5  34002  286.91 0855.46
2009/04/23 08:08:29.2       4    -20      4     21     22 166.6  11.1  33998  286.84 0855.46
2009/04/23 08:08:29.3       2    -26     15     27     30 175.6  31.4  34000  286.86 0855.46
2009/04/23 08:08:29.4      -8    -57     32     58     66 188.0  31.4  34000  286.88 0855.46
2009/04/23 08:08:29.5      12   -125     67    126    142 174.2  30.3  34000  286.86 0855.47
2009/04/23 08:08:29.6     -20   -130     74    132    151 188.9  31.4  34000  286.86 0855.47
2009/04/23 08:08:29.7     -38   -107     45    114    122 199.6  22.5  33998  286.84 0855.47
2009/04/23 08:08:29.8      -6    -66     33     67     74 185.3  27.3  34000  286.86 0855.47
2009/04/23 08:08:29.9       3    -67     34     68     76 177.3  28.2  34000  286.86 0855.47
2009/04/23 08:08:30.0      37    -80     63     89    109 155.1  39.1  33998  286.84 0855.47
2009/04/23 08:08:30.1      77    -86     75    116    138 138.1  35.6  33998  286.83 0855.47
2009/04/23 08:08:30.2     144    -85     48    168    175 120.6  16.0  34002  286.89 0855.47
2009/04/23 08:08:30.3     165    -91     22    189    191 118.9   6.7  33998  286.84 0855.47
2009/04/23 08:08:30.4     170   -122     48    210    216 125.7  12.9  33996  286.81 0855.47
2009/04/23 08:08:30.5     164    -69     29    178    181 112.8   9.3  33998  286.84 0855.47
2009/04/23 08:08:30.6     121    -28     43    125    133 103.3  18.9  33998  286.84 0855.47
2009/04/23 08:08:30.7     185    -92     95    207    227 116.4  26.6  33998  286.84 0855.47
2009/04/23 08:08:30.8     270    -90    144    285    319 108.6  28.9  33994  286.77 0855.47
2009/04/23 08:08:30.9     295     59    214    301    369  78.6  38.8  34004  286.93 0855.47
2009/04/23 08:08:31.0     184     66    367    196    416  70.3  69.8  34002  286.90 0855.47
2009/04/23 08:08:31.1     292    -21    289    293    411  94.3  49.8  34000  286.88 0855.47
2009/04/23 08:08:31.2     207    145    231    253    342  55.0  47.3  34004  286.92 0855.47
2009/04/23 08:08:31.3     197    101    161    222    274  62.9  39.7  34006  286.95 0855.47
2009/04/23 08:08:31.4     170    -58    163    180    242 108.8  47.0  33998  286.84 0855.47
2009/04/23 08:08:31.5     129    -66    164    145    218 117.1  54.0  33998  286.84 0855.47
2009/04/23 08:08:31.6     174    -55    156    183    240 107.7  44.8  34004  286.93 0855.47
2009/04/23 08:08:31.7     137    -15    217    138    257  96.6  64.7  34000  286.88 0855.47
2009/04/23 08:08:31.8      87    204    137    223    261  23.2  34.8  34004  286.92 0855.47
2009/04/23 08:08:31.9     199    123     65    235    244  58.2  15.6  34000  286.87 0855.47
2009/04/23 08:08:32.0     234     -8    -57    235    242  92.1 -13.7  34004  286.94 0855.47
2009/04/23 08:08:32.1     179   -123    -27    218    220 124.4  -7.2  34002  286.91 0855.47
2009/04/23 08:08:32.2     112    -76     -3    136    137 124.2  -1.3  34002  286.89 0855.47
2009/04/23 08:08:32.3     211    -35    -23    214    216  99.5  -6.2  33990  286.69 0855.47
2009/04/23 08:08:32.4     290    -22    270    291    396  94.4  47.8  34002  286.91 0855.47
2009/04/23 08:08:32.5     343    -64    171    349    388 100.6  27.9  33996  286.81 0855.47
2009/04/23 08:08:32.6     359      0    239    360    432  90.0  36.9  33998  286.84 0855.47
2009/04/23 08:08:32.7     119    -98    171    155    230 129.6  53.0  33996  286.79 0855.47
2009/04/23 08:08:32.8     317    -38    253    320    407  97.0  42.4  34004  286.93 0855.47
2009/04/23 08:08:32.9      34   -185    101    189    214 169.5  30.8  34000  286.88 0855.47
2009/04/23 08:08:33.0     103   -261    113    281    302 158.4  23.1  33996  286.80 0855.47
2009/04/23 08:08:33.1    -188   -484    180    520    550 201.3  20.0  33998  286.83 0855.47
2009/04/23 08:08:33.2     -62   -486    312    490    580 187.3  35.6  34000  286.86 0855.47
2009/04/23 08:08:33.3     -95   -466    189    476    512 191.6  22.9  33986  286.63 0855.47
2009/04/23 08:08:33.4     -96   -510    116    520    533 190.7  12.6  33996  286.79 0855.47
2009/04/23 08:08:33.5     -85   -357    288    367    466 193.4  42.1  33994  286.76 0855.48
2009/04/23 08:08:33.6      49   -205    220    211    304 166.4  51.2  33990  286.70 0855.48
2009/04/23 08:08:33.7      29   -212    279    215    352 172.0  58.5  33992  286.74 0855.48
2009/04/23 08:08:33.8      33   -109    221    114    248 163.1  70.8  33994  286.76 0855.48
2009/04/23 08:08:33.9      79   -168    230    186    295 154.6  56.6  33992  286.72 0855.48
2009/04/23 08:08:34.0       8   -173     95    174    198 177.3  31.0  33996  286.81 0855.48
2009/04/23 08:08:34.1    -181    -20     36    183    187 263.4  11.1  33992  286.74 0855.48
2009/04/23 08:08:34.2       1   -117    -60    118    132 179.1 -33.6  33996  286.79 0855.48
2009/04/23 08:08:34.3     103    -98     39    143    149 133.6  15.3  33996  286.79 0855.48
2009/04/23 08:08:34.4      67   -329    240    336    412 168.4  39.1  34000  286.86 0855.48
2009/04/23 08:08:34.5      96   -348    274    362    454 164.6  40.8  33992  286.72 0855.48
2009/04/23 08:08:34.6     133   -212    201    251    321 147.9  42.9  34000  286.87 0855.48
2009/04/23 08:08:34.7      22   -207     83    209    224 173.8  23.0  33996  286.79 0855.48
2009/04/23 08:08:34.8      85     90    144    124    190  43.3  55.0  34000  286.86 0855.48
2009/04/23 08:08:34.9      37      7    129     38    134  78.5  82.8  34000  286.86 0855.48
2009/04/23 08:08:35.0      57     36    161     68    174  57.6  75.9  33998  286.83 0855.48
2009/04/23 08:08:35.1     111    151    135    188    231  36.3  39.3  34002  286.89 0855.48
2009/04/23 08:08:35.2     237    224     88    327    339  46.7  15.2  33996  286.81 0855.48
2009/04/23 08:08:35.3     312    157     25    350    351  63.2   4.2  34008  287.00 0855.48
2009/04/23 08:08:35.4     167    382     98    418    430  23.6  13.2  34004  286.92 0855.48
2009/04/23 08:08:35.5     173    452     82    485    492  21.0   9.6  34010  287.05 0855.48
2009/04/23 08:08:35.6     103    409    101    422    434  14.2  13.5  34008  286.99 0855.48
2009/04/23 08:08:35.7     -35    313     39    316    319 353.5   7.1  34010  287.02 0855.48
2009/04/23 08:08:35.8     -66    305    -57    313    319 347.7 -10.4  34010  287.04 0855.48
2009/04/23 08:08:35.9      14    268     34    269    272   3.1   7.2  34010  287.02 0855.48
2009/04/23 08:08:36.0      36    289    -21    292    293   7.2  -4.1  34004  286.94 0855.48
2009/04/23 08:08:36.1      83    428      8    436    437  11.0   1.1  34002  286.91 0855.48
2009/04/23 08:08:36.2     -72    350     39    358    361 348.3   6.4  34010  287.03 0855.48
2009/04/23 08:08:36.3      25    238    -42    240    244   6.2 -10.1  34008  286.99 0855.48
2009/04/23 08:08:36.4     -66    212   -131    223    258 342.6 -37.5  34008  286.99 0855.48
2009/04/23 08:08:36.5      14    190   -123    191    227   4.5 -40.0  34002  286.91 0855.48
2009/04/23 08:08:36.6     227    201   -112    304    323  48.6 -25.5  34010  287.02 0855.48
2009/04/23 08:08:36.7     200    238    -86    312    323  40.1 -20.1  34004  286.94 0855.48
2009/04/23 08:08:36.8     267    126     75    296    306  64.8  14.3  33988  286.65 0855.48
2009/04/23 08:08:36.9     170    303    214    348    408  29.4  34.6  33994  286.76 0855.48
2009/04/23 08:08:37.0     298    104    271    316    416  70.7  45.0  34006  286.96 0855.48
2009/04/23 08:08:37.1     352    202    152    407    434  60.1  21.4  34004  286.94 0855.48
2009/04/23 08:08:37.2     475    202    315    517    605  66.9  34.3  34002  286.89 0855.48
2009/04/23 08:08:37.3     440    209    333    488    590  64.6  37.6  33988  286.66 0855.48
2009/04/23 08:08:37.4     288     64    260    296    393  77.4  45.8  34000  286.85 0855.48
2009/04/23 08:08:37.5     294    -25    103    296    314  95.0  19.2  33992  286.74 0855.48
2009/04/23 08:08:37.6     364   -172     95    403    415 115.3  13.3  34004  286.94 0855.48
2009/04/23 08:08:37.7     374   -176     80    414    422 115.2  11.0  33996  286.81 0855.48
2009/04/23 08:08:37.8     303    -52     46    308    312  99.9   8.5  34000  286.85 0855.48
2009/04/23 08:08:37.9     204    217    -88    299    311  43.2 -21.5  34000  286.85 0855.48
2009/04/23 08:08:38.0     238    229    -10    331    332  46.1  -1.8  34002  286.90 0855.48
2009/04/23 08:08:38.1     246     59     91    254    269  76.5  20.2  34000  286.85 0855.48
2009/04/23 08:08:38.2     391    -95     23    403    404 103.7   3.3  34000  286.86 0855.48
2009/04/23 08:08:38.3     330    -17    215    331    394  93.0  36.2  34000  286.86 0855.48
2009/04/23 08:08:38.4     161     12    170    162    234  85.6  51.4  34000  286.88 0855.48
2009/04/23 08:08:38.5      90   -214     12    233    234 157.1   3.1  33998  286.84 0855.48
2009/04/23 08:08:38.6     175   -174    -95    247    264 134.8 -26.5  33988  286.67 0855.48
2009/04/23 08:08:38.7     102   -265     57    285    291 158.8  11.4  33996  286.80 0855.48
2009/04/23 08:08:38.8     375    -92    -11    387    388 103.9  -1.7  33990  286.68 0855.48
2009/04/23 08:08:38.9     419    -56     32    423    425  97.7   4.4  33998  286.84 0855.48
2009/04/23 08:08:39.0     364     40      2    367    368  83.6   0.4  34002  286.90 0855.48
2009/04/23 08:08:39.1     396    133     21    418    419  71.4   2.9  33998  286.82 0855.48
2009/04/23 08:08:39.2     444    146    106    468    480  71.7  12.8  34000  286.88 0855.48
2009/04/23 08:08:39.3     310    177     25    358    359  60.2   4.0  33986  286.64 0855.48
2009/04/23 08:08:39.4      40    403    206    405    454   5.7  29.2  33996  286.79 0855.48
2009/04/23 08:08:39.5    -148    324      6    357    358 335.4   1.0  33996  286.81 0855.49
2009/04/23 08:08:39.6     -44    356    -64    359    365 352.9 -10.1  34006  286.95 0855.49
2009/04/23 08:08:39.7     101    355    -42    370    373  15.9  -6.6  34000  286.88 0855.49
2009/04/23 08:08:39.8      99    367   -130    381    402  15.2 -23.8  34006  286.96 0855.49
2009/04/23 08:08:39.9      98    335   -113    350    368  16.4 -17.9  34010  287.03 0855.49
2009/04/23 08:08:40.0      42    294   -125    298    323   8.1 -28.5  34002  286.90 0855.49
2009/04/23 08:08:40.1     217    249   -156    331    365  41.1 -31.5  33998  286.83 0855.49
2009/04/23 08:08:40.2     326     82    127    337    360  75.9  21.5  34000  286.88 0855.49
2009/04/23 08:08:40.3     218     80     97    233    252  69.8  24.1  33998  286.84 0855.49
2009/04/23 08:08:40.4     372    -75    -89    380    391 101.5 -13.3  34000  286.85 0855.49
2009/04/23 08:08:40.5     242   -176   -120    300    323 126.0 -27.4  33996  286.79 0855.49
2009/04/23 08:08:40.6     159   -176   -133    238    272 137.9 -36.0  34000  286.87 0855.49
2009/04/23 08:08:40.7     328   -114   -153    348    380 109.3 -29.6  33994  286.78 0855.49
2009/04/23 08:08:40.8     309   -110    -21    329    330 109.6  -3.7  33996  286.81 0855.49
2009/04/23 08:08:40.9     312   -241     77    395    403 127.6  11.1  33994  286.76 0855.49
2009/04/23 08:08:41.0     325   -114     70    345    352 109.4  11.5  33994  286.76 0855.49
2009/04/23 08:08:41.1     356    -62     63    362    368 100.0   9.9  33984  286.59 0855.49
2009/04/23 08:08:41.2     246   -126    -37    277    280 117.1  -7.7  33998  286.82 0855.49
2009/04/23 08:08:41.3     288   -189    -27    345    347 123.3  -4.5  33996  286.81 0855.49
2009/04/23 08:08:41.4     237   -122    -54    267    273 117.3 -11.6  33996  286.80 0855.49
2009/04/23 08:08:41.5      77     15   -167     79    184  78.5 -77.3  34002  286.89 0855.49
2009/04/23 08:08:41.7      98    177   -116    203    233  28.9 -36.8  33998  286.84 0855.49
2009/04/23 08:08:41.7     193    195    -67    275    284  44.8 -13.7  34000  286.87 0855.49
2009/04/23 08:08:41.8     280    153      5    320    321  61.4   1.0  34004  286.92 0855.49
2009/04/23 08:08:41.9     216     68     -5    227    228  72.3  -1.3  33996  286.81 0855.49
2009/04/23 08:08:42.0     220     27     56    222    230  82.8  14.3  34000  286.88 0855.49
2009/04/23 08:08:42.1     195     -8    167    196    257  92.6  44.8  33992  286.74 0855.49
2009/04/23 08:08:42.2     201     81    205    217    298  68.0  48.0  33998  286.82 0855.49
2009/04/23 08:08:42.3     203     29    182    206    274  81.6  45.9  33994  286.75 0855.49
2009/04/23 08:08:42.4     167    -20     69    169    182  96.8  23.1  33994  286.78 0855.49
2009/04/23 08:08:42.5     149      6     44    150    157  87.4  16.3  34002  286.89 0855.49
2009/04/23 08:08:42.6     203     43     -7    208    209  77.8  -2.1  34000  286.86 0855.49
2009/04/23 08:08:42.7     342     57      6    347    348  80.4   1.1  34000  286.86 0855.49
2009/04/23 08:08:42.8     337    104     67    353    360  72.8  10.8  34000  286.85 0855.49
2009/04/23 08:08:42.9     344    162     92    381    392  64.8  13.6  33998  286.83 0855.49
2009/04/23 08:08:43.0     282    204    121    349    370  54.0  19.2  33998  286.83 0855.49
2009/04/23 08:08:43.1     449    243     81    511    518  61.5   9.0  34000  286.85 0855.49
2009/04/23 08:08:43.2     297    246    105    386    401  50.4  15.3  34006  286.95 0855.49
2009/04/23 08:08:43.3     281    197    -16    344    345  54.9  -2.8  34004  286.93 0855.49
2009/04/23 08:08:43.4     218    170    111    277    298  52.0  23.0  34002  286.89 0855.49
2009/04/23 08:08:43.5     241    242    112    342    360  44.8  18.2  34010  287.03 0855.49
2009/04/23 08:08:43.6     215    253    116    333    353  40.3  19.3  34006  286.96 0855.49
2009/04/23 08:08:43.7     171    339    133    380    403  26.8  19.4  34006  286.98 0855.49
2009/04/23 08:08:43.8     262    322     79    416    424  39.1  10.8  34006  286.97 0855.49
2009/04/23 08:08:43.9     231    350     92    420    431  33.4  12.4  34010  287.03 0855.49
2009/04/23 08:08:44.0     198    311     53    369    373  32.5   8.2  34012  287.08 0855.49
2009/04/23 08:08:44.1     136    300     38    330    333  24.5   6.7  34010  287.03 0855.49
2009/04/23 08:08:44.2     134    238     56    274    280  29.4  11.6  34010  287.04 0855.49
2009/04/23 08:08:44.3     158    263     48    307    311  31.0   9.0  34014  287.09 0855.49
2009/04/23 08:08:44.4     117    389     23    407    408  16.8   3.3  34024  287.26 0855.49
2009/04/23 08:08:44.5     244    395    -21    465    466  31.7  -2.7  34026  287.31 0855.49
2009/04/23 08:08:44.6     220    270      0    349    350  39.2   0.0  34030  287.37 0855.49
2009/04/23 08:08:44.7     218    231    -33    318    320  43.3  -6.0  34026  287.29 0855.49
2009/04/23 08:08:44.8     175    191    -40    260    264  42.5  -8.8  34038  287.51 0855.49
2009/04/23 08:08:44.9      92    152    -39    178    183  31.2 -12.6  34028  287.33 0855.49
2009/04/23 08:08:45.0      60    178    -49    188    195  18.7 -14.7  34028  287.33 0855.49
2009/04/23 08:08:45.1     -67    216     22    227    229 342.6   5.7  34018  287.16 0855.49
2009/04/23 08:08:45.2     -10    203     67    204    215 357.1  18.4  34014  287.11 0855.49
2009/04/23 08:08:45.3      30    161     50    164    172  10.7  17.1  34004  286.93 0855.49
2009/04/23 08:08:45.4      81     97     99    127    161  39.6  42.0  34002  286.89 0855.49
2009/04/23 08:08:45.5     130     71    141    149    205  61.1  48.2  34008  287.01 0855.46
2009/04/23 08:08:45.6      54    124    190    136    233  23.6  60.8  34000  286.86 0855.46
2009/04/23 08:08:45.7     173     40     39    178    183  77.0  12.4  34006  286.98 0855.46
2009/04/23 08:08:45.9     172     35     46    176    182  78.3  14.7  34000  286.88 0855.46
2009/04/23 08:08:46.0      99     83    115    130    173  50.0  46.2  34002  286.91 0855.46
2009/04/23 08:08:46.1     176    134     48    222    228  52.7  12.4  34002  286.89 0855.46
2009/04/23 08:08:46.2     237    143     87    277    291  58.9  17.4  34006  286.95 0855.46
2009/04/23 08:08:46.3     170    219    -30    278    280  37.8  -6.2  34008  287.01 0855.46
2009/04/23 08:08:46.4     184    151    -42    239    243  50.7 -10.1  34006  286.95 0855.46
2009/04/23 08:08:46.5     261    132      9    293    294  63.0   1.8  34002  286.90 0855.46
2009/04/23 08:08:46.6     288    110     32    309    311  69.1   6.1  34000  286.85 0855.46
2009/04/23 08:08:46.7     218    107     94    243    260  63.8  22.1  34004  286.94 0855.46
2009/04/23 08:08:46.8     135    135    119    192    225  45.1  35.2  33998  286.83 0855.46
2009/04/23 08:08:46.9      61    236    161    244    292  14.5  36.5  34004  286.92 0855.46
2009/04/23 08:08:47.0      97    184    -42    209    214  27.9 -11.3  33996  286.81 0855.46
2009/04/23 08:08:47.1     245    100    -79    265    277  67.8 -16.6  33996  286.79 0855.46
2009/04/23 08:08:47.2     365    126   -100    387    400  71.0 -14.5  33996  286.80 0855.46
2009/04/23 08:08:47.3     306     31     30    308    310  84.1   5.7  33996  286.80 0855.46
2009/04/23 08:08:47.4     297     95     61    312    319  72.2  11.1  34000  286.87 0855.46
2009/04/23 08:08:47.5     314    202     -1    374    375  57.2  -0.3  34012  287.07 0855.46
2009/04/23 08:08:47.6      75    316    187    325    374  13.4  32.6  34010  287.02 0855.45
2009/04/23 08:08:47.7     196    285    171    347    386  34.5  28.1  34010  287.02 0855.45
2009/04/23 08:08:47.8     323    234    209    400    451  54.0  29.6  34014  287.09 0855.45
2009/04/23 08:08:47.9     267    261    218    374    432  45.6  33.0  34026  287.30 0855.45
2009/04/23 08:08:48.0     195    241    260    311    405  39.0  44.1  34016  287.15 0855.45
2009/04/23 08:08:48.1     308     48    230    312    387  81.0  40.0  34006  286.95 0855.45
2009/04/23 08:08:48.2     216    217    170    307    350  44.8  31.4  34006  286.98 0855.45
2009/04/23 08:08:48.3     164    339    200    377    426  25.9  30.2  34000  286.87 0855.45
2009/04/23 08:08:48.4     119    312    142    335    363  20.9  24.5  34012  287.07 0855.45
2009/04/23 08:08:48.5     162    273    144    318    349  30.8  26.2  34016  287.12 0855.45
2009/04/23 08:08:48.6     247    236    236    342    415  46.3  38.0  34012  287.07 0855.45
2009/04/23 08:08:48.7     184    238    256    302    395  37.8  44.8  34014  287.10 0855.45
2009/04/23 08:08:48.8     251    267    161    367    400  43.3  25.2  34028  287.34 0855.45
2009/04/23 08:08:48.9     191    365     84    413    422  27.7  11.5  34028  287.35 0855.45
2009/04/23 08:08:49.0     223    203    128    302    328  47.7  24.3  34024  287.26 0855.45
2009/04/23 08:08:49.1     111    279    135    301    329  21.8  25.9  34022  287.22 0855.45
2009/04/23 08:08:49.2     284    311    119    422    439  42.4  15.8  34014  287.11 0855.45
2009/04/23 08:08:49.3     208    378     84    432    441  28.8  11.1  34040  287.55 0855.45
2009/04/23 08:08:49.4     103    410    123    423    441  14.2  16.3  34004  286.92 0855.45
2009/04/23 08:08:49.5     166    416     88    449    458  21.8  11.1  34004  286.92 0855.45
2009/04/23 08:08:49.6     162    368     51    403    407  23.7   7.2  34004  286.92 0855.45
2009/04/23 08:08:49.7     216    380     40    438    441  29.6   5.3  34006  286.96 0855.45
2009/04/23 08:08:49.8     207    350     73    407    414  30.7  10.2  34008  287.01 0855.45
2009/04/23 08:08:49.9     192    328     34    381    383  30.3   5.2  34010  287.02 0855.45
2009/04/23 08:08:50.0     165    324     82    364    374  27.1  12.8  34006  286.98 0855.45
2009/04/23 08:08:50.1     238    255     71    349    357  43.0  11.6  34032  287.42 0855.45
2009/04/23 08:08:50.2     149    218      3    265    266  34.3   0.8  34036  287.48 0855.45
2009/04/23 08:08:50.3     157    257     67    302    310  31.4  12.6  34026  287.29 0855.45
2009/04/23 08:08:50.4     187    289     21    345    346  33.0   3.6  34014  287.10 0855.45
2009/04/23 08:08:50.5     185    293     30    347    349  32.2   5.1  34002  286.91 0855.45
2009/04/23 08:08:50.6     179    318     81    366    375  29.4  12.5  34012  287.08 0855.41
2009/04/23 08:08:50.7     257    390    100    468    479  33.4  12.1  34024  287.27 0855.41
2009/04/23 08:08:50.8     207    234     23    313    314  41.4   4.4  34024  287.26 0855.41
2009/04/23 08:08:50.9     243    244     62    345    351  44.9  10.3  34028  287.34 0855.41
2009/04/23 08:08:51.0     159    363     31    397    399  23.7   4.5  34012  287.08 0855.41
2009/04/23 08:08:51.1     239    285    -74    373    381  40.0 -11.3  34032  287.40 0855.41
2009/04/23 08:08:51.2     167    310     55    353    358  28.4   8.9  34022  287.22 0855.41
2009/04/23 08:08:51.3     242    264      0    359    360  42.6   0.0  34062  287.91 0855.41
2009/04/23 08:08:51.4     276    272     60    388    393  45.4   8.9  34040  287.54 0855.41
2009/04/23 08:08:51.5     268    256     98    372    385  46.3  14.9  34026  287.29 0855.41
2009/04/23 08:08:51.6     304    218    156    375    406  54.3  23.9  34012  287.07 0855.41
2009/04/23 08:08:51.7     312    138     52    342    346  66.1   8.7  34012  287.07 0855.41
2009/04/23 08:08:51.8     332    111    106    351    367  71.4  16.8  34008  287.00 0855.41
2009/04/23 08:08:51.9     218    187    202    288    351  49.3  38.5  34010  287.05 0855.41
2009/04/23 08:08:52.0     148    143    210    207    294  46.0  50.2  34008  286.99 0855.41
2009/04/23 08:08:52.1     126    174    214    216    304  36.0  50.0  34006  286.95 0855.41
2009/04/23 08:08:52.2     145    253    185    292    345  29.8  35.5  34006  286.96 0855.41
2009/04/23 08:08:52.3     315    209     73    379    387  56.4  11.0  34006  286.95 0855.41
2009/04/23 08:08:52.4     304    182     36    355    357  59.1   5.8  34004  286.93 0855.41
2009/04/23 08:08:52.5     287    141     40    320    323  63.8   7.2  34008  287.01 0855.41
2009/04/23 08:08:52.6     279    122    -39    305    308  66.4  -7.3  34036  287.48 0855.42
2009/04/23 08:08:52.7     324    154     15    360    361  64.5   2.4  34028  287.34 0855.42
2009/04/23 08:08:52.8     480    107    158    492    517  77.4  17.8  34024  287.27 0855.42
2009/04/23 08:08:52.9     395     74    132    403    425  79.3  18.2  34018  287.16 0855.42
2009/04/23 08:08:53.0     344    -28     99    346    361  94.8  16.0  34022  287.25 0855.42
2009/04/23 08:08:53.1     347    -30    111    349    367  95.0  17.7  34010  287.03 0855.42
2009/04/23 08:08:53.2     338    -74    115    347    366 102.4  18.4  34006  286.96 0855.42
2009/04/23 08:08:53.3     359   -164    -14    395    396 114.6  -2.1  33996  286.80 0855.42
2009/04/23 08:08:53.4     391   -210    -32    445    447 118.3  -4.1  33996  286.79 0855.42
2009/04/23 08:08:53.5     383   -127    -43    404    407 108.4  -6.1  34006  286.96 0855.42
2009/04/23 08:08:53.6     468    -76    -64    475    480  99.2  -7.7  34010  287.05 0855.42
2009/04/23 08:08:53.7     452    -42    116    455    470  95.3  14.4  34006  286.95 0855.42
2009/04/23 08:08:53.8     394   -135     12    417    418 109.0   1.7  33994  286.77 0855.42
2009/04/23 08:08:53.9     325   -167     61    366    372 117.2   9.5  33994  286.75 0855.42
2009/04/23 08:08:54.0     343    -46    -18    347    348  97.7  -3.0  34000  286.85 0855.42
2009/04/23 08:08:54.1     353    -54     21    358    359  98.8   3.5  33996  286.81 0855.42
2009/04/23 08:08:54.2     336      2     51    337    341  89.5   8.7  34000  286.88 0855.42
2009/04/23 08:08:54.3     310   -128    160    336    372 112.5  27.3  33994  286.76 0855.42
2009/04/23 08:08:54.4     300    -17     98    301    317  93.3  18.0  34000  286.85 0855.42
2009/04/23 08:08:54.5     346    -34     81    348    358  95.7  13.1  34000  286.86 0855.42
2009/04/23 08:08:54.6     321    -84    172    332    373 104.7  29.4  33996  286.81 0855.43
2009/04/23 08:08:54.7     284   -156    191    325    376 118.8  33.3  34000  286.86 0855.43
2009/04/23 08:08:54.8     240   -167    162    293    334 124.9  31.4  33996  286.79 0855.43
2009/04/23 08:08:54.9     144    -18    133    146    197  97.5  47.1  33994  286.78 0855.43
2009/04/23 08:08:55.0     154    -31     94    158    183 101.5  33.7  33998  286.83 0855.43
2009/04/23 08:08:55.1     117    -40    129    124    178 109.1  51.2  34000  286.88 0855.43
2009/04/23 08:08:55.2     216    -96    135    237    272 114.0  32.4  33994  286.77 0855.43
2009/04/23 08:08:55.3     219   -248    105    331    348 138.6  17.7  33996  286.81 0855.43
2009/04/23 08:08:55.4     229   -198     82    303    314 130.9  15.2  33998  286.84 0855.43
2009/04/23 08:08:55.5     196   -208    178    287    337 136.7  34.9  33990  286.68 0855.43
2009/04/23 08:08:55.6     173   -185    110    254    276 137.0  25.1  33990  286.68 0855.43
2009/04/23 08:08:55.7     191   -105    136    219    257 118.9  34.8  33992  286.72 0855.43
2009/04/23 08:08:55.8     190    -92     86    212    228 116.0  23.1  33992  286.73 0855.43
2009/04/23 08:08:55.9      93    -70    100    117    153 127.3  44.8  33994  286.76 0855.43
2009/04/23 08:08:56.0     146   -121     97    190    213 129.6  29.2  33996  286.81 0855.43
2009/04/23 08:08:56.1     145   -145     91    206    225 135.0  25.3  33996  286.79 0855.43
2009/04/23 08:08:56.2     148   -109      7    185    186 126.4   2.3  34006  286.98 0855.43
2009/04/23 08:08:56.3     115    -97      7    151    152 130.0   2.8  34004  286.94 0855.43
2009/04/23 08:08:56.4      91    -57     31    108    113 122.4  16.3  34006  286.98 0855.43
2009/04/23 08:08:56.5     -28    -70     41     76     86 201.8  30.8  34000  286.86 0855.43
2009/04/23 08:08:56.6     -71    -88     31    114    119 218.7  15.2  33994  286.76 0855.41
2009/04/23 08:08:56.7     -52   -116     30    128    132 204.1  13.2  33996  286.79 0855.41
2009/04/23 08:08:56.8      18   -107     48    109    119 170.2  25.1  33996  286.81 0855.41
2009/04/23 08:08:56.9      29    -90     40     95    103 162.2  23.6  34000  286.88 0855.41
2009/04/23 08:08:57.0      71   -107     55    129    140 146.2  24.6  34008  287.00 0855.41
2009/04/23 08:08:57.1      81   -104     55    132    143 142.2  23.1  34004  286.93 0855.41
2009/04/23 08:08:57.2      59   -113     65    128    143 152.4  29.2  34004  286.94 0855.41
2009/04/23 08:08:57.3      90    -81     63    122    137 131.8  29.3  34006  286.98 0855.41
2009/04/23 08:08:57.4       9   -118    116    119    166 175.6  49.4  34000  286.86 0855.41
2009/04/23 08:08:57.5      22   -159    101    161    190 172.0  35.5  34000  286.88 0855.41
2009/04/23 08:08:57.6       5   -169    133    170    215 178.0  42.0  34002  286.89 0855.41
2009/04/23 08:08:57.7     127    -77     81    149    169 121.5  30.8  34006  286.96 0855.41
2009/04/23 08:08:57.8      71    -45     82     85    118 122.5  49.0  34006  286.96 0855.41
2009/04/23 08:08:57.9      23   -162    144    164    218 171.8  45.9  34004  286.94 0855.41
2009/04/23 08:08:58.0      86   -182    138    202    244 154.7  37.6  34004  286.93 0855.41
2009/04/23 08:08:58.1      59   -220    178    228    289 164.8  42.0  34000  286.85 0855.41
2009/04/23 08:08:58.2      11    -27    153     30    155 158.2  89.1  34004  286.94 0855.41
2009/04/23 08:08:58.3      -4     43    104     44    112 354.7  76.1  34006  286.96 0855.41
2009/04/23 08:08:58.4      22    -68    173     72    187 161.5  76.3  33998  286.84 0855.41
2009/04/23 08:08:58.5       8    -26    138     28    140 161.7  89.0  34002  286.89 0855.41
2009/04/23 08:08:58.6      33     31    160     46    166  46.9  83.5  34004  286.94 0855.38
2009/04/23 08:08:58.7      63      8    135     64    149  82.1  72.9  33996  286.81 0855.38
2009/04/23 08:08:58.8     -57   -139    218    151    265 202.3  61.8  33996  286.80 0855.38
2009/04/23 08:08:58.9    -101   -237    213    258    334 203.2  43.7  33996  286.80 0855.38
2009/04/23 08:08:59.0    -150   -200    142    250    287 216.9  32.3  33998  286.82 0855.38
2009/04/23 08:08:59.1    -147   -293    193    329    381 206.7  33.3  33992  286.73 0855.38
2009/04/23 08:08:59.2    -156   -327    173    363    402 205.5  27.3  33994  286.76 0855.38
2009/04/23 08:08:59.3    -116   -234    166    262    310 206.3  35.5  33992  286.74 0855.38
2009/04/23 08:08:59.4     -28   -308    198    310    367 185.4  35.6  33994  286.75 0855.38
2009/04/23 08:08:59.5    -117   -315    126    337    359 200.4  21.3  33990  286.71 0855.38
2009/04/23 08:08:59.6    -189   -344    198    393    440 208.9  28.7  33986  286.62 0855.38
2009/04/23 08:08:59.7    -137   -237    155    274    314 210.1  31.9  33994  286.75 0855.38
2009/04/23 08:08:59.8    -129   -178     68    221    232 216.0  17.1  33992  286.74 0855.38
2009/04/23 08:08:59.9     -88   -194     66    214    225 204.5  17.3  33992  286.74 0855.38
2009/04/23 08:09:00.0    -136   -146     82    200    216 223.0  23.4  33992  286.73 0855.38
2009/04/23 08:09:00.1    -174   -137     80    222    235 231.6  20.7  33990  286.71 0855.38
2009/04/23 08:09:00.2    -213    -60      4    222    223 254.1   1.2  33988  286.66 0855.38
2009/04/23 08:09:00.3    -192    -95     74    215    228 243.6  19.2  33988  286.67 0855.38
2009/04/23 08:09:00.4    -153   -162     44    224    229 223.4  11.1  33990  286.71 0855.38
2009/04/23 08:09:00.5    -140   -220     81    261    274 212.5  17.3  33996  286.79 0855.38
2009/04/23 08:09:00.6    -100   -238     58    259    266 202.9  12.6  33998  286.82 0855.38
2009/04/23 08:09:00.7    -106   -266    112    287    308 201.8  22.5  33998  286.82 0855.40
2009/04/23 08:09:00.8     -78   -217    145    231    272 200.0  35.5  33998  286.82 0855.40
2009/04/23 08:09:00.9     -60   -251    167    259    308 193.4  35.6  34000  286.85 0855.40
2009/04/23 08:09:01.0     -96   -229    150    249    290 202.7  34.0  33990  286.70 0855.40
2009/04/23 08:09:01.1     -85   -280    147    293    327 197.0  28.6  33992  286.72 0855.40
2009/04/23 08:09:01.2    -106   -224    133    249    282 205.4  30.3  33990  286.68 0855.40
2009/04/23 08:09:01.3    -152   -257    151    299    334 210.7  28.7  33990  286.68 0855.40
2009/04/23 08:09:01.4    -187   -278    157    336    370 213.9  27.0  33992  286.73 0855.40
2009/04/23 08:09:01.5    -153   -309    183    346    391 206.4  30.2  33998  286.83 0855.40
2009/04/23 08:09:01.6    -201   -221    130    300    326 222.3  25.0  33994  286.75 0855.40
2009/04/23 08:09:01.7    -145   -162     75    218    231 221.9  19.2  33992  286.74 0855.40
2009/04/23 08:09:01.8     -74   -221    162    234    284 198.7  38.0  34002  286.90 0855.40
2009/04/23 08:09:01.9     -26   -132    184    135    228 191.1  60.5  33996  286.79 0855.40
2009/04/23 08:09:02.0     -10   -171    154    172    230 183.4  46.6  33998  286.84 0855.40
2009/04/23 08:09:02.1     -15   -183    185    184    260 184.9  50.1  34000  286.87 0855.40
2009/04/23 08:09:02.2     -41   -176    133    181    224 193.4  39.9  34000  286.88 0855.40
2009/04/23 08:09:02.3     -10    -92    107     93    141 186.2  54.3  34000  286.86 0855.40
2009/04/23 08:09:02.4      49   -100    112    112    158 153.7  50.1  34004  286.93 0855.40
2009/04/23 08:09:02.5      15    -32     81     36     88 154.6  74.5  34002  286.89 0855.40
2009/04/23 08:09:02.6       3    -70     90     71    114 177.3  57.5  33998  286.83 0855.40
2009/04/23 08:09:02.7      32    -40     91     52    104 141.3  67.7  33998  286.83 0855.42
2009/04/23 08:09:02.8      13   -120    115    121    166 173.8  48.7  33996  286.81 0855.42
2009/04/23 08:09:02.9      26    -78    155     83    175 161.3  69.6  33996  286.79 0855.42
2009/04/23 08:09:03.0      96    -90    101    132    166 133.1  41.2  33996  286.79 0855.42
2009/04/23 08:09:03.1      56   -167     99    177    202 161.3  31.9  33996  286.81 0855.42
2009/04/23 08:09:03.2      47   -134    134    143    195 160.4  47.9  33994  286.76 0855.42
2009/04/23 08:09:03.3      11   -148    118    149    190 175.5  42.7  33996  286.81 0855.42
2009/04/23 08:09:03.5      15   -142     98    143    173 173.8  37.6  33996  286.79 0855.42
2009/04/23 08:09:03.5       9   -129    118    130    175 175.6  47.1  33998  286.84 0855.42
2009/04/23 08:09:03.6      74   -156    115    173    207 154.4  36.7  33998  286.84 0855.42
2009/04/23 08:09:03.7      95   -157     66    184    195 148.8  20.4  33998  286.84 0855.42
2009/04/23 08:09:03.8      91   -204     61    224    233 155.9  15.2  33998  286.84 0855.42
2009/04/23 08:09:03.9      23   -206    128    208    244 173.5  34.5  34004  286.92 0855.42
2009/04/23 08:09:04.0     158   -170    167    233    286 137.0  39.3  34000  286.87 0855.42
2009/04/23 08:09:04.1     127   -199     27    237    239 147.5   6.7  34004  286.94 0855.42
2009/04/23 08:09:04.2      89   -205     92    224    242 156.6  23.6  34006  286.97 0855.42
2009/04/23 08:09:04.3      82   -228    113    243    267 160.2  27.1  34006  286.95 0855.42
2009/04/23 08:09:04.4     129   -220    121    256    283 149.5  27.1  34006  286.97 0855.42
2009/04/23 08:09:04.5     126   -210    154    246    290 149.0  35.5  34006  286.97 0855.42
2009/04/23 08:09:04.6     156   -183    143    241    280 139.5  33.5  34006  286.95 0855.42
2009/04/23 08:09:04.7     161   -189    150    249    290 139.5  34.0  34002  286.90 0855.43
2009/04/23 08:09:04.8     125   -174    139    215    256 144.4  35.7  34008  286.99 0855.43
2009/04/23 08:09:04.9     111   -133    166    174    240 140.4  48.7  34006  286.96 0855.43
2009/04/23 08:09:05.0     108   -101    148    149    210 133.1  50.0  34010  287.03 0855.43
2009/04/23 08:09:05.1     168   -110    133    202    241 123.3  36.5  34004  286.93 0855.43
2009/04/23 08:09:05.2     197   -136    100    240    260 124.6  24.1  34002  286.90 0855.43
2009/04/23 08:09:05.3     202    -60    122    211    243 106.6  32.7  34004  286.94 0855.43
2009/04/23 08:09:05.4     189   -120     79    225    239 122.5  19.4  34010  287.04 0855.43
2009/04/23 08:09:05.5     147   -184     87    236    251 141.3  21.0  34006  286.97 0855.43
2009/04/23 08:09:05.6     102   -145    135    178    223 144.8  40.9  34002  286.89 0855.43
2009/04/23 08:09:05.7     112   -116    151    162    221 136.1  47.9  34006  286.98 0855.43
2009/04/23 08:09:05.8     115   -161    161    199    255 144.4  43.5  34006  286.95 0855.43
2009/04/23 08:09:05.9     144   -121    107    189    217 130.0  31.9  34008  287.00 0855.43
2009/04/23 08:09:06.0      93   -120     69    152    166 142.2  26.2  34006  286.96 0855.43
2009/04/23 08:09:06.1     154   -151     70    216    228 134.4  17.9  34004  286.94 0855.43
2009/04/23 08:09:06.2     179   -127     94    220    239 125.5  24.6  34002  286.90 0855.43
2009/04/23 08:09:06.3     148   -108     65    184    196 126.0  19.6  34002  286.91 0855.43
2009/04/23 08:09:06.4     114    -98    102    151    182 130.9  37.0  34004  286.94 0855.43
2009/04/23 08:09:06.5     105   -119     76    159    176 138.6  27.2  34004  286.93 0855.43
2009/04/23 08:09:06.6     144   -102     65    177    188 125.5  21.0  34008  287.01 0855.43
2009/04/23 08:09:06.7     151   -100     40    182    187 123.7  12.6  34008  287.01 0855.44
2009/04/23 08:09:06.8     205    -83      9    222    223 112.0   2.5  34010  287.03 0855.44
2009/04/23 08:09:06.9     230    -48     32    236    239 101.9   7.8  34010  287.02 0855.44
2009/04/23 08:09:07.0     187    -22     51    189    196  97.0  15.3  34010  287.05 0855.44
2009/04/23 08:09:07.1     195      0     54    196    204  90.0  15.6  34012  287.06 0855.44
2009/04/23 08:09:07.2     197     15      4    198    199  85.6   1.2  34020  287.21 0855.44
2009/04/23 08:09:07.3     186    -20      0    188    189  96.4   0.2  34016  287.15 0855.44
2009/04/23 08:09:07.4     145    -36     29    150    153 104.2  11.1  34010  287.03 0855.44
2009/04/23 08:09:07.5     139    -55     60    150    161 111.8  23.0  34006  286.96 0855.44
2009/04/23 08:09:07.6     152    -55     55    162    172 110.0  18.9  34006  286.96 0855.44
2009/04/23 08:09:07.7     164    -37     58    169    179 102.8  19.2  34008  287.00 0855.44
2009/04/23 08:09:07.8     182    -24     62    184    195  97.7  18.6  34008  287.00 0855.44
2009/04/23 08:09:07.9     216      3     42    217    222  89.1  11.0  34008  287.00 0855.44
2009/04/23 08:09:08.0     223     21     61    225    234  84.5  15.2  34008  287.01 0855.44
2009/04/23 08:09:08.2     182     39     60    187    197  77.8  17.9  34006  286.96 0855.44
2009/04/23 08:09:08.2     129     43     16    137    138  71.4   6.9  34008  287.00 0855.44
2009/04/23 08:09:08.3     113     19     -3    115    116  80.3  -1.8  34008  287.00 0855.44
2009/04/23 08:09:08.4     100    -12     -3    101    102  97.0  -2.2  34008  287.01 0855.44
2009/04/23 08:09:08.5     114     31      6    119    120  74.9   2.9  34006  286.96 0855.44
2009/04/23 08:09:08.6     101     14     27    103    107  82.0  14.7  34006  286.96 0855.44
2009/04/23 08:09:08.7     114     25     18    117    119  77.2   8.9  34004  286.94 0855.44
2009/04/23 08:09:08.8     100     33     19    106    108  71.4  10.6  34008  287.01 0855.44
2009/04/23 08:09:08.9      69     32     45     77     89  64.8  33.5  34006  286.98 0855.44
2009/04/23 08:09:09.0      37     12     45     39     59  71.8  54.3  34004  286.94 0855.44
2009/04/23 08:09:09.1      -6      6     36      9     37 315.0  86.9  34006  286.98 0855.44
2009/04/23 08:09:09.2      25     15     46     30     54  59.3  64.6  34008  287.01 0855.44
2009/04/23 08:09:09.3     -15    -54     86     57    103 196.0  63.6  34006  286.98 0855.44
2009/04/23 08:09:09.4     -24     -7     84     26     87 253.2  81.8  34006  286.96 0855.44
2009/04/23 08:09:09.5    -142    -10     74    143    161 265.6  29.5  34002  286.89 0855.44
2009/04/23 08:09:09.6    -134     45     27    142    145 288.6  11.0  34004  286.93 0855.44
2009/04/23 08:09:09.7      19    -57    116     61    131 161.3  70.8  34006  286.96 0855.46
2009/04/23 08:09:09.8     -39    -67    109     78    134 210.7  61.1  34008  287.01 0855.46
2009/04/23 08:09:09.9     -26    -27    107     38    113 223.4  80.7  34010  287.03 0855.46
2009/04/23 08:09:10.0     -65    -76     96    101    139 220.5  48.5  34008  287.00 0855.46
2009/04/23 08:09:10.1     -25    -75     96     80    124 198.3  56.3  34008  287.01 0855.46
2009/04/23 08:09:10.2       4    -83     58     84    102 176.9  38.6  34006  286.98 0855.46
2009/04/23 08:09:10.3       8   -112    -13    113    114 175.6  -6.7  34008  287.01 0855.46
2009/04/23 08:09:10.4      20    -90     -6     93     94 167.5  -4.1  34006  286.98 0855.46
2009/04/23 08:09:10.5      35    -79     12     87     88 155.9   8.5  34008  287.00 0855.46
2009/04/23 08:09:10.6      23    -86     13     90     92 164.9   8.5  34008  287.01 0855.46
2009/04/23 08:09:10.7       5   -117     14    118    119 177.3   6.9  34008  287.01 0855.46
2009/04/23 08:09:10.8      29   -157    -52    160    168 169.3 -23.3  34006  286.98 0855.46
2009/04/23 08:09:10.9      18   -135    -32    137    141 172.4 -13.4  34006  286.98 0855.46
2009/04/23 08:09:11.0      55   -169    -35    178    182 161.7 -11.1  34002  286.89 0855.46
2009/04/23 08:09:11.1      42   -178     39    183    188 166.6  12.0  34010  287.05 0855.46
2009/04/23 08:09:11.2      77   -120     33    143    147 147.4  13.1  34012  287.06 0855.46
2009/04/23 08:09:11.3      58    -97     33    114    119 149.3  16.3  34012  287.06 0855.46
2009/04/23 08:09:11.4      78   -100     -4    127    128 142.1  -2.2  34012  287.06 0855.46
2009/04/23 08:09:11.5     117   -117    -41    166    171 135.1 -13.9  34010  287.03 0855.46
2009/04/23 08:09:11.7     128    -81    -52    152    161 122.4 -18.9  34008  287.01 0855.46
2009/04/23 08:09:11.7     137    -67    -14    153    154 116.2  -5.6  34010  287.03 0855.46
2009/04/23 08:09:11.8     139    -54    -19    150    152 111.3  -7.3  34010  287.03 0855.46
2009/04/23 08:09:12.0     118   -142   -117    185    218 140.3 -39.9  34010  287.03 0855.46
2009/04/23 08:09:12.0     119    -85    -40    147    153 125.5 -15.5  34004  286.93 0855.46
2009/04/23 08:09:12.2     136   -119    -88    181    201 131.1 -32.2  34006  286.98 0855.46
2009/04/23 08:09:12.3     118    -75      6    141    142 122.5   2.8  34010  287.03 0855.46
2009/04/23 08:09:12.4      81    -81      1    115    116 134.9   0.8  34008  287.01 0855.46
2009/04/23 08:09:12.5      25   -148     -5    151    152 170.2  -2.2  34010  287.03 0855.46
2009/04/23 08:09:12.6      13   -142     -5    143    144 174.7  -2.2  34010  287.03 0855.46
2009/04/23 08:09:12.7       6   -129     33    130    135 177.3  14.3  34008  287.01 0855.46
2009/04/23 08:09:12.8       8   -104     22    105    108 175.5  12.2  34008  287.01 0855.46
2009/04/23 08:09:12.9       8   -112    -14    113    114 175.5  -7.2  34010  287.03 0855.46
2009/04/23 08:09:13.0      13    -76    -18     78     81 170.2 -12.9  34010  287.05 0855.46
2009/04/23 08:09:13.1      23    -69     -9     73     74 161.3  -7.2  34010  287.05 0855.46
2009/04/23 08:09:13.2       0    -63      2     64     65 179.1   1.8  34008  287.00 0855.46
2009/04/23 08:09:13.3     -24    -63     30     68     74 200.9  25.1  34010  287.03 0855.46
2009/04/23 08:09:13.4      -9    -74     26     75     80 187.1  19.2  34010  287.05 0855.46
2009/04/23 08:09:13.5      -5    -75      7     76     77 184.5   5.9  34010  287.05 0855.46
2009/04/23 08:09:13.6       4    -75      2     76     77 176.4   1.8  34010  287.03 0855.46
2009/04/23 08:09:13.7       0    -97     -3     98     99 180.4  -2.2  34010  287.03 0855.46
2009/04/23 08:09:13.8       6    -80    -10     81     82 175.5  -7.3  34008  287.01 0855.45
2009/04/23 08:09:13.9      19    -65     -8     68     69 163.1  -7.3  34008  287.01 0855.45
2009/04/23 08:09:14.0      56    -53    -15     78     80 133.3 -11.3  34010  287.03 0855.45
2009/04/23 08:09:14.1      45   -102    -14    112    113 155.9  -7.2  34008  287.01 0855.45
2009/04/23 08:09:14.2      58    -70     10     92     93 140.4   6.5  34008  287.01 0855.45
2009/04/23 08:09:14.3      37    -74     -3     83     84 153.3  -2.6  34008  287.01 0855.45
2009/04/23 08:09:14.4      30    -75     15     81     83 158.1  10.6  34008  287.00 0855.45
2009/04/23 08:09:14.5      31    -59     41     67     78 151.9  34.4  34008  287.00 0855.45
2009/04/23 08:09:14.6      32    -55     31     64     71 149.3  27.3  34006  286.98 0855.45
2009/04/23 08:09:14.7      39    -41     24     57     61 136.8  23.1  34008  287.01 0855.45
2009/04/23 08:09:14.8      14    -43    -19     46     49 161.5 -27.4  34010  287.03 0855.45
2009/04/23 08:09:14.9       7    -35    -59     36     69 168.4 -69.1  34010  287.03 0855.45
2009/04/23 08:09:15.0      25    -42    -49     50     70 149.3 -55.5  34006  286.98 0855.45
2009/04/23 08:09:15.1      47    -39    -34     62     70 129.5 -35.8  34010  287.03 0855.45
2009/04/23 08:09:15.2      55    -64    -26     85     88 139.0 -22.3  34008  287.00 0855.45
2009/04/23 08:09:15.3      51    -85     -3    100    101 148.8  -2.2  34006  286.98 0855.45
2009/04/23 08:09:15.4      56    -82     -7    100    101 145.3  -4.1  34006  286.98 0855.45
2009/04/23 08:09:15.5      80    -72      4    108    109 132.2   2.3  34006  286.98 0855.45
2009/04/23 08:09:15.6     107    -71      7    129    130 123.7   3.3  34006  286.98 0855.45
2009/04/23 08:09:15.7     143    -73      2    161    162 117.1   1.0  34006  286.98 0855.45
2009/04/23 08:09:15.8     138    -65     44    153    160 115.4  16.0  34006  286.98 0855.45
2009/04/23 08:09:15.9     140    -31     18    144    146 102.8   7.1  34006  286.96 0855.45
2009/04/23 08:09:16.0     148    -16     11    149    150  96.2   4.4  34004  286.94 0855.45
2009/04/23 08:09:16.1     120    -49     25    130    133 112.6  11.0  34006  286.96 0855.45
2009/04/23 08:09:16.2     104    -62      5    122    123 120.7   2.3  34008  287.00 0855.45
2009/04/23 08:09:16.3      84    -75     12    114    115 131.8   6.5  34006  286.96 0855.45
2009/04/23 08:09:16.4      82    -73      2    111    112 131.8   1.2  34006  286.96 0855.45
2009/04/23 08:09:16.5     102    -91    -49    138    147 131.8 -19.6  34006  286.96 0855.45
2009/04/23 08:09:16.6     116    -68    -20    135    137 120.6  -8.8  34006  286.98 0855.45
2009/04/23 08:09:16.7     152    -85     34    175    179 119.1  11.1  34006  286.96 0855.45
2009/04/23 08:09:16.8     139   -139    -23    197    199 135.0  -6.7  34004  286.94 0855.45
2009/04/23 08:09:16.9     137   -117    -31    181    184 130.4  -9.8  34004  286.94 0855.45
2009/04/23 08:09:17.0     126   -135    -44    185    191 137.0 -13.4  34006  286.96 0855.45
2009/04/23 08:09:17.1     139   -214     -2    256    257 147.0  -0.5  34006  286.97 0855.45
2009/04/23 08:09:17.2     166   -169     62    238    247 135.5  14.7  34008  286.99 0855.45
2009/04/23 08:09:17.3     100   -106     69    147    162 136.7  27.0  34008  287.00 0855.45
2009/04/23 08:09:17.4     124   -109     53    166    175 131.3  17.7  34008  287.01 0855.45
2009/04/23 08:09:17.5      54   -102     40    116    123 151.9  19.4  34008  287.01 0855.45
2009/04/23 08:09:17.6       5    -65     48     66     81 175.5  40.1  34008  287.01 0855.45
2009/04/23 08:09:17.7      25    -64     53     69     87 158.1  41.7  34008  287.00 0855.45
2009/04/23 08:09:17.8      41   -123     43    130    137 161.3  18.4  34008  287.00 0855.46
2009/04/23 08:09:17.9      -5   -128     52    129    139 182.2  23.0  34006  286.98 0855.46
2009/04/23 08:09:18.0     -31   -133     60    137    149 193.3  25.2  34004  286.94 0855.46
2009/04/23 08:09:18.1     -33   -149     65    153    166 192.5  24.6  34008  287.00 0855.46
2009/04/23 08:09:18.2     -32   -166     62    170    180 191.1  21.0  34006  286.96 0855.46
2009/04/23 08:09:18.3     -45   -207     38    212    216 192.3  10.3  34004  286.94 0855.46
2009/04/23 08:09:18.4     -51   -205     77    212    225 194.0  20.7  34006  286.96 0855.46
2009/04/23 08:09:18.5     -36   -152     91    157    181 193.4  32.7  34006  286.96 0855.46
2009/04/23 08:09:18.6      28   -196     89    199    217 171.8  25.7  34004  286.93 0855.46
2009/04/23 08:09:18.7      38   -231     84    235    249 170.7  20.2  34004  286.92 0855.46
2009/04/23 08:09:18.8      34   -214     52    217    224 170.9  13.5  34002  286.91 0855.46
2009/04/23 08:09:18.9      15   -203     85    204    221 175.8  23.6  34004  286.94 0855.46
2009/04/23 08:09:19.0     -48   -236     15    242    243 191.6   3.6  34004  286.94 0855.46
2009/04/23 08:09:19.1     -39   -221     48    225    231 190.0  12.1  34002  286.91 0855.46
2009/04/23 08:09:19.2     -56   -294    123    300    324 190.9  23.6  34004  286.92 0855.46
2009/04/23 08:09:19.3    -105   -315    151    333    365 198.5  26.2  34006  286.95 0855.46
2009/04/23 08:09:19.4       7   -246    153    247    290 178.2  35.2  34004  286.94 0855.46
2009/04/23 08:09:19.5      58   -140    159    152    219 157.3  51.4  34000  286.86 0855.46
2009/04/23 08:09:19.6      62   -219    166    228    282 164.0  39.7  34006  286.95 0855.46
2009/04/23 08:09:19.7      57   -257    171    264    314 167.5  36.0  34008  286.99 0855.46
2009/04/23 08:09:19.8       2   -240    128    241    272 179.3  30.3  34006  286.97 0855.46
2009/04/23 08:09:19.9     -16   -214    113    215    242 184.4  30.2  34004  286.94 0855.46
2009/04/23 08:09:20.0     -44   -246    115    250    275 190.2  26.2  34004  286.92 0855.46
2009/04/23 08:09:20.1     -60   -232     38    240    244 194.7   9.0  34004  286.94 0855.46
2009/04/23 08:09:20.2     -75   -213     11    226    227 199.4   2.8  34004  286.94 0855.46
2009/04/23 08:09:20.3     -55   -198      7    206    207 195.6   2.1  34000  286.88 0855.46
2009/04/23 08:09:20.4       8   -157    -24    158    160 176.9  -8.8  34006  286.98 0855.46
2009/04/23 08:09:20.5      21   -114    -53    117    128 169.3 -30.6  34004  286.93 0855.46
2009/04/23 08:09:20.6       9   -104    -34    105    110 174.7 -23.8  34004  286.93 0855.46
2009/04/23 08:09:20.7      31    -93    -43     99    107 161.3 -29.5  34004  286.94 0855.46
2009/04/23 08:09:20.8      77   -106    -41    132    138 143.9 -21.8  34004  286.93 0855.46
2009/04/23 08:09:20.9     148   -104    -38    182    186 125.1 -11.9  34002  286.89 0855.46
2009/04/23 08:09:21.0     139    -55     29    150    153 111.7  11.1  34004  286.94 0855.46
2009/04/23 08:09:21.1     113    -78     -2    138    139 124.6  -1.2  34004  286.94 0855.46
2009/04/23 08:09:21.2      81    -67     15    106    108 129.6   8.0  34004  286.93 0855.46
2009/04/23 08:09:21.3      89    -50     25    103    106 119.3  13.7  34004  286.94 0855.46
2009/04/23 08:09:21.4      95    -42     68    105    125 114.0  35.6  34006  286.96 0855.46
2009/04/23 08:09:21.5      98    -81     33    128    133 129.5  14.7  34006  286.96 0855.46
2009/04/23 08:09:21.6     125    -76     30    147    151 121.5  11.6  34008  287.01 0855.46
2009/04/23 08:09:21.7     149    -78     44    169    175 117.5  14.7  34002  286.91 0855.46
2009/04/23 08:09:21.8     150    -57     36    161    165 110.8  12.6  34008  287.00 0855.47
2009/04/23 08:09:21.9     122    -32     65    127    142 105.0  29.3  34008  287.00 0855.47
2009/04/23 08:09:22.0     114     -3     45    115    123  91.7  22.5  34006  286.98 0855.47
2009/04/23 08:09:22.1     130     22     33    132    137  80.3  14.3  34008  287.00 0855.47
2009/04/23 08:09:22.2     133     26     16    136    137  78.6   6.9  34006  286.96 0855.47
2009/04/23 08:09:22.3     102     53     18    116    118  62.5   9.0  34008  287.00 0855.47
2009/04/23 08:09:22.4      92     25     40     96    104  74.5  23.1  34004  286.94 0855.47
2009/04/23 08:09:22.5     131     14     76    132    152  83.8  32.9  34002  286.89 0855.47
2009/04/23 08:09:22.6     110     24     57    113    126  77.2  29.2  34004  286.93 0855.47
2009/04/23 08:09:22.7      84     19     34     87     93  76.7  22.0  34004  286.94 0855.47
2009/04/23 08:09:22.8       3     10     24     11     26  18.5  75.0  34004  286.94 0855.47
2009/04/23 08:09:22.9     -12    -14     20     19     27 221.4  48.2  34006  286.96 0855.47
2009/04/23 08:09:23.0     -31     11      0     34     35 290.0   0.8  34006  286.96 0855.47
2009/04/23 08:09:23.1     -48     16    -27     51     57 289.1 -34.7  34006  286.96 0855.47
2009/04/23 08:09:23.2     -26      7     -7     27     27 285.1 -21.7  34006  286.96 0855.47
2009/04/23 08:09:23.3       0      0    -25      1     25 270.0 -90.0  34006  286.98 0855.47
2009/04/23 08:09:23.4      -1      6    -33      7     33 350.3 -90.0  34006  286.96 0855.47
2009/04/23 08:09:23.5       0     14    -33     15     36 357.3 -77.5  34002  286.91 0855.47
2009/04/23 08:09:23.6       7      6    -24     10     26  46.9 -81.5  34006  286.96 0855.47
2009/04/23 08:09:23.7      -8     -1    -16      9     18 258.5 -73.2  34002  286.91 0855.47
2009/04/23 08:09:23.8      -7      4    -15      9     17 302.4 -69.1  34004  286.94 0855.47
2009/04/23 08:09:23.9      -7      0    -16      8     17 270.0 -77.3  34002  286.91 0855.47
2009/04/23 08:09:24.0     -47     12     36     49     60 285.1  39.7  34002  286.89 0855.47
2009/04/23 08:09:24.1     -84     -7     20     85     88 265.2  13.7  34006  286.96 0855.47
2009/04/23 08:09:24.2     -47     27     -3     55     56 299.8  -3.1  34004  286.94 0855.47
2009/04/23 08:09:24.3     -41     41    -29     59     65 315.0 -32.6  34004  286.94 0855.47
2009/04/23 08:09:24.4     -52      7    -27     53     59 277.9 -33.7  34006  286.98 0855.47
2009/04/23 08:09:24.5     -79      7    -20     80     83 275.7 -14.5  34000  286.88 0855.47
2009/04/23 08:09:24.6     -57   -164     57    174    184 199.4  18.1  34000  286.88 0855.47
2009/04/23 08:09:24.7    -141   -160      6    214    215 221.4   1.8  33996  286.81 0855.47
2009/04/23 08:09:24.8     -59   -106     77    122    144 209.0  35.5  33996  286.81 0855.47
2009/04/23 08:09:24.9     -59   -142    109    155    189 202.7  38.8  33996  286.81 0855.47
2009/04/23 08:09:25.0     -59   -147    124    159    201 201.8  41.7  33998  286.83 0855.47
2009/04/23 08:09:25.1    -118   -162    111    201    229 216.3  31.4  33992  286.74 0855.47
2009/04/23 08:09:25.2    -110   -200     79    229    243 208.7  19.2  33998  286.82 0855.47
2009/04/23 08:09:25.3    -116   -157     84    196    213 216.5  24.6  33996  286.79 0855.47
2009/04/23 08:09:25.4     -61   -157     50    169    177 201.4  16.6  33994  286.76 0855.47
2009/04/23 08:09:25.5     -78   -124    -34    147    152 212.1 -13.3  33996  286.81 0855.47
2009/04/23 08:09:25.6     -86    -79     -4    117    118 227.3  -2.2  33994  286.78 0855.47
2009/04/23 08:09:25.7     -92    -58     38    109    116 237.6  19.4  33998  286.83 0855.47
2009/04/23 08:09:25.8     -39    -83     25     92     96 205.4  15.2  33998  286.83 0855.48
2009/04/23 08:09:25.9     -61    -91     37    110    117 213.8  18.9  33996  286.79 0855.48
2009/04/23 08:09:26.0    -112    -36    -10    118    119 251.8  -5.2  33992  286.74 0855.48
2009/04/23 08:09:26.1    -140    -59     -8    153    154 246.9  -3.2  33994  286.78 0855.48
2009/04/23 08:09:26.2    -165    -57    -22    175    177 250.9  -7.3  33994  286.76 0855.48
2009/04/23 08:09:26.3    -161    -53    -21    170    172 251.8  -7.3  33992  286.73 0855.48
2009/04/23 08:09:26.4    -133    -88    -28    160    163 236.3 -10.1  33994  286.76 0855.48
2009/04/23 08:09:26.5    -104   -110    -42    152    158 223.2 -15.5  33994  286.78 0855.48
2009/04/23 08:09:26.6     -39   -111      2    118    119 199.6   1.2  33996  286.81 0855.48
2009/04/23 08:09:26.7     -59    -71     49     93    105 219.6  30.3  33996  286.81 0855.48
2009/04/23 08:09:26.8     -73    -91      5    117    118 218.7   2.8  33998  286.84 0855.48
2009/04/23 08:09:26.9     -82   -149    -33    171    175 208.7 -10.9  33998  286.84 0855.48
2009/04/23 08:09:27.0     -72   -175    -57    190    199 202.5 -16.8  34000  286.88 0855.48
2009/04/23 08:09:27.1    -134   -114    -54    177    185 229.6 -22.3  34004  286.94 0855.48
2009/04/23 08:09:27.2    -169    -96    -48    195    201 240.2 -13.9  34000  286.86 0855.48
2009/04/23 08:09:27.3     -87    -26    -29     91     95 253.2 -23.8  33996  286.81 0855.48
2009/04/23 08:09:27.4     -33      6    -12     34     37 281.4 -19.7  34000  286.88 0855.48
2009/04/23 08:09:27.5      -7     15     11     17     20 334.6  37.6  34000  286.88 0855.48
2009/04/23 08:09:27.6      15      1     16     16     22  85.6  50.1  33998  286.84 0855.48
2009/04/23 08:09:27.7     -13    -83     56     85    101 189.3  36.5  33998  286.84 0855.48
2009/04/23 08:09:27.8      12   -123     49    124    133 174.2  22.5  34000  286.86 0855.49
2009/04/23 08:09:27.9      38   -143     78    149    168 164.9  29.8  34000  286.86 0855.49
2009/04/23 08:09:28.0      15   -146     82    147    168 173.8  31.6  34000  286.86 0855.49
2009/04/23 08:09:28.1       8   -111     90    112    143 175.5  43.3  33998  286.84 0855.49
2009/04/23 08:09:28.2      -5   -124     87    125    152 182.7  38.0  34000  286.86 0855.49
2009/04/23 08:09:28.3       0   -160     96    161    187 179.8  33.7  33996  286.81 0855.49
2009/04/23 08:09:28.4     -27   -133     85    136    160 191.5  35.0  33996  286.79 0855.49
2009/04/23 08:09:28.5     -22   -137     69    139    155 189.3  28.2  33998  286.83 0855.49
2009/04/23 08:09:28.6     -35   -117     52    123    133 196.9  24.1  33996  286.81 0855.49
2009/04/23 08:09:28.7     -62   -107     53    124    134 210.3  24.6  33996  286.81 0855.49
2009/04/23 08:09:28.8     -67    -93     45    115    123 216.0  22.5  33996  286.79 0855.49
2009/04/23 08:09:28.9     -80    -61     28    101    105 232.7  15.8  33996  286.81 0855.49
2009/04/23 08:09:29.0     -69    -95     47    118    127 216.1  22.5  33996  286.81 0855.49
2009/04/23 08:09:29.1    -100   -107     35    147    152 223.2  13.7  33998  286.83 0855.49
2009/04/23 08:09:29.2    -157   -110     46    192    198 234.9  13.7  33994  286.76 0855.49
2009/04/23 08:09:29.3    -189   -117      6    223    224 238.2   1.6  33996  286.79 0855.49
2009/04/23 08:09:29.4    -147    -48     -8    155    156 251.8  -3.1  33990  286.71 0855.49
2009/04/23 08:09:29.5    -107   -168    -55    200    208 212.5 -15.5  33990  286.71 0855.49
2009/04/23 08:09:29.6    -116   -225    -70    254    263 207.4 -20.2  33990  286.68 0855.49
2009/04/23 08:09:29.7    -164   -294    -18    337    338 209.1  -3.2  33990  286.68 0855.49
2009/04/23 08:09:29.8    -127   -186    -25    226    228 214.2  -6.5  33990  286.69 0855.49
2009/04/23 08:09:29.9     -82   -221    -13    237    238 200.5  -3.3  33990  286.70 0855.49
2009/04/23 08:09:30.0    -113   -283     -6    305    306 201.9  -1.3  33990  286.70 0855.49
2009/04/23 08:09:30.1     -96   -221    -43    242    246 203.6 -10.3  33990  286.68 0855.49
2009/04/23 08:09:30.2     -55   -338      5    343    344 189.3   0.9  33994  286.75 0855.49
2009/04/23 08:09:30.3     -67   -323    -97    331    346 191.8 -16.4  33990  286.71 0855.49
2009/04/23 08:09:30.4      21   -342    -30    343    345 176.4  -5.1  33988  286.66 0855.49
2009/04/23 08:09:30.5      49   -244     53    249    255 168.5  12.1  33988  286.65 0855.49
2009/04/23 08:09:30.6      42   -192     99    197    220 167.5  28.7  33998  286.83 0855.49
2009/04/23 08:09:30.7      55   -153     99    163    190 160.0  34.4  34000  286.88 0855.49
2009/04/23 08:09:30.8      19   -110     93    112    145 169.8  43.8  33996  286.81 0855.49
2009/04/23 08:09:30.9      10    -32     83     34     89 161.3  77.1  34004  286.93 0855.49
2009/04/23 08:09:31.0     -21    -13     88     25     91 237.6  83.9  34004  286.94 0855.49
2009/04/23 08:09:31.1     -32      6     89     33     94 281.5  79.7  34008  287.00 0855.49
2009/04/23 08:09:31.2     -10      0     83     11     83 265.6  90.0  34006  286.96 0855.49
2009/04/23 08:09:31.3      15      6     64     17     66  68.3  84.9  34006  286.96 0855.49
2009/04/23 08:09:31.4      12      3     47     13     48  74.9  82.8  34004  286.94 0855.49
2009/04/23 08:09:31.5       0    -14     27     15     30 182.7  68.8  33998  286.83 0855.49
2009/04/23 08:09:31.6     -19    -30     29     36     46 212.5  42.7  33998  286.84 0855.49
2009/04/23 08:09:31.7      20    -79     43     82     92 165.7  29.3  33996  286.81 0855.49
2009/04/23 08:09:31.8      42   -112     52    120    130 159.1  25.1  33994  286.76 0855.49
2009/04/23 08:09:31.9      32    -59     89     68    112 151.1  58.5  33994  286.76 0855.49
2009/04/23 08:09:32.0     -11     12     76     17     77 316.8  89.0  33996  286.79 0855.49
2009/04/23 08:09:32.1     -60    -55    123     82    147 227.3  63.6  33994  286.76 0855.49
2009/04/23 08:09:32.2    -129    -66    118    145    186 242.9  43.7  33992  286.73 0855.49
2009/04/23 08:09:32.3    -114   -118     95    165    190 224.1  32.7  33992  286.74 0855.49
2009/04/23 08:09:32.4     -99   -135    117    168    204 216.1  38.0  33984  286.59 0855.49
2009/04/23 08:09:32.5    -149   -149    106    212    237 225.0  28.7  33986  286.64 0855.49
2009/04/23 08:09:32.6    -216   -153     83    265    278 234.7  17.4  33990  286.68 0855.49
2009/04/23 08:09:32.7    -187   -195     73    271    281 223.9  15.2  33986  286.62 0855.49
2009/04/23 08:09:32.8    -199   -180     76    269    280 227.8  15.8  33986  286.63 0855.48
2009/04/23 08:09:32.9    -119   -139     21    184    186 220.5   6.7  33988  286.66 0855.48
2009/04/23 08:09:33.0    -103   -181     17    209    210 209.6   4.9  33982  286.57 0855.48
2009/04/23 08:09:33.1     -46   -163     14    170    171 195.8   4.9  33988  286.66 0855.48
2009/04/23 08:09:33.2     -55   -176     37    185    189 197.4  11.6  33986  286.64 0855.48
2009/04/23 08:09:33.3      26   -127     25    130    133 168.4  11.1  33988  286.67 0855.48
2009/04/23 08:09:33.4      11   -143     64    144    157 175.6  25.3  33990  286.69 0855.48
2009/04/23 08:09:33.5      74    -95     71    121    140 142.2  33.4  33988  286.67 0855.48
2009/04/23 08:09:33.6      48    -50     73     70    101 136.7  51.6  33990  286.69 0855.48
2009/04/23 08:09:33.7      -9     -3    111     10    111 248.3  90.0  33988  286.67 0855.48
2009/04/23 08:09:33.8     -98    -86    126    131    181 228.7  49.0  33988  286.67 0855.48
2009/04/23 08:09:33.9    -174    -33     88    178    198 259.2  28.5  33982  286.56 0855.48
2009/04/23 08:09:34.0    -184     16    -62    185    195 275.2 -23.6  33984  286.59 0855.48
2009/04/23 08:09:34.1    -216      0   -122    217    248 270.0 -36.3  33982  286.55 0855.48
2009/04/23 08:09:34.2    -291     59     25    297    299 281.5   4.9  33980  286.53 0855.48
2009/04/23 08:09:34.3    -359    -78      7    368    369 257.7   1.1  33988  286.66 0855.48
2009/04/23 08:09:34.4    -358      7     98    359    373 271.3  15.3  33984  286.59 0855.48
2009/04/23 08:09:34.5    -230     10     85    231    246 272.5  21.0  33986  286.63 0855.48
2009/04/23 08:09:34.6    -262    -27     65    264    272 264.1  13.9  33984  286.60 0855.48
2009/04/23 08:09:34.7    -311    -90    152    324    357 253.8  27.1  33984  286.61 0855.48
2009/04/23 08:09:34.8    -337    -12     88    338    350 267.9  14.7  33980  286.54 0855.48
2009/04/23 08:09:34.9    -435     97    -90    446    455 282.7 -11.5  33976  286.45 0855.48
2009/04/23 08:09:35.0    -440    -13    -27    441    442 268.2  -3.5  33978  286.50 0855.48
2009/04/23 08:09:35.1    -429     14    -12    430    431 271.9  -1.6  33978  286.49 0855.48
2009/04/23 08:09:35.2    -422    -30      3    424    425 265.9   0.5  33970  286.37 0855.48
2009/04/23 08:09:35.3    -435     39    -49    437    440 275.2  -6.5  33976  286.47 0855.48
2009/04/23 08:09:35.4    -434    -68    -13    440    441 261.0  -1.7  33976  286.45 0855.48
2009/04/23 08:09:35.5    -426     47     -9    429    430 276.4  -1.3  33970  286.35 0855.48
2009/04/23 08:09:35.6    -514    -24      0    515    516 267.3   0.1  33980  286.53 0855.48
2009/04/23 08:09:35.7    -317    -20      6    318    319 266.3   1.2  33984  286.58 0855.48
2009/04/23 08:09:35.8    -258     -4    -23    259    261 269.1  -5.2  33984  286.60 0855.48
2009/04/23 08:09:35.9    -339     55     99    344    359 279.2  16.1  33968  286.34 0855.48
2009/04/23 08:09:36.0    -322      4    105    323    340 270.8  18.0  33980  286.53 0855.48
2009/04/23 08:09:36.1    -278     65     95    286    302 283.2  18.5  33984  286.60 0855.48
2009/04/23 08:09:36.2    -247     52     49    253    258 281.9  11.1  33982  286.55 0855.48
2009/04/23 08:09:36.3    -234      5    140    235    273 271.3  33.5  33982  286.57 0855.48
2009/04/23 08:09:36.5    -353    -46     86    356    367 262.5  13.7  33982  286.56 0855.48
2009/04/23 08:09:36.5    -422   -116     30    438    440 254.6   4.0  33982  286.57 0855.48
2009/04/23 08:09:36.7    -282    -33    -15    284    285 263.2  -3.1  33984  286.58 0855.48
2009/04/23 08:09:36.7    -325    -83     -1    336    337 255.6  -0.3  33984  286.61 0855.48
2009/04/23 08:09:36.8    -273    -16     18    274    275 266.5   3.9  33986  286.63 0855.48
2009/04/23 08:09:37.0    -284     -4    -15    285    286 269.2  -3.1  33984  286.60 0855.48
2009/04/23 08:09:37.0    -181      7    -17    182    183 272.4  -5.6  33984  286.61 0855.48
2009/04/23 08:09:37.2     -50   -185    -68    192    203 195.4 -24.6  33984  286.59 0855.48
2009/04/23 08:09:37.2     -50   -227    -65    233    241 192.5 -20.4  33986  286.62 0855.48
2009/04/23 08:09:37.3     -93   -132    -70    162    176 215.2 -29.3  33984  286.61 0855.48
2009/04/23 08:09:37.5    -135   -118    -58    180    189 228.9 -23.3  33980  286.54 0855.48
2009/04/23 08:09:37.5    -208    -48     41    214    219 257.0  11.0  33976  286.47 0855.48
2009/04/23 08:09:37.6     -99   -161     84    190    207 211.6  25.3  33986  286.64 0855.48
2009/04/23 08:09:37.7     -94   -121     64    154    166 217.8  24.1  33986  286.62 0855.48
2009/04/23 08:09:37.9     -81   -128     31    152    156 212.6  11.6  33986  286.62 0855.48
2009/04/23 08:09:38.0    -119   -169    -75    208    221 215.2 -24.8  33976  286.47 0855.48
2009/04/23 08:09:38.0    -256    -21   -113    257    280 265.2 -29.6  33982  286.57 0855.48
2009/04/23 08:09:38.1    -335   -188    -32    385    387 240.7  -4.9  33980  286.53 0855.48
2009/04/23 08:09:38.3    -261   -215    -73    339    347 230.5 -12.3  33980  286.53 0855.48
2009/04/23 08:09:38.4    -186   -169   -111    252    275 227.8 -29.6  33976  286.47 0855.48
2009/04/23 08:09:38.5     -85   -333    110    344    362 194.4  17.7  33984  286.59 0855.48
2009/04/23 08:09:38.6      37   -435      8    437    438 175.1   1.1  33984  286.60 0855.48
2009/04/23 08:09:38.7     -23   -421     23    422    423 183.2   3.2  33978  286.50 0855.48
2009/04/23 08:09:38.8      13   -465    -25    466    467 178.3  -3.1  33984  286.60 0855.48
2009/04/23 08:09:38.9     -42   -409    -35    412    414 186.0  -4.9  33980  286.54 0855.48
2009/04/23 08:09:39.0     -41   -381     -8    384    385 186.3  -1.3  33978  286.51 0855.48
2009/04/23 08:09:39.1    -210   -229    110    312    330 222.5  20.1  33982  286.55 0855.48
2009/04/23 08:09:39.2    -174   -287     81    336    346 211.3  13.6  33982  286.56 0855.48
2009/04/23 08:09:39.3    -226   -360    -86    425    434 212.1 -11.5  33982  286.55 0855.48
2009/04/23 08:09:39.4    -120   -353    -76    374    382 198.8 -11.5  33982  286.56 0855.48
2009/04/23 08:09:39.5    -117   -364     65    383    389 197.8   9.7  33978  286.49 0855.48
2009/04/23 08:09:39.6     -98   -349     59    363    368 195.7   9.3  33982  286.56 0855.48
2009/04/23 08:09:39.7     -19   -304     31    305    307 183.6   5.9  33986  286.62 0855.48
2009/04/23 08:09:39.8     -59   -317    151    323    356 190.6  27.0  33984  286.58 0855.48
2009/04/23 08:09:39.9       7   -240    214    241    322 178.2  46.2  33982  286.57 0855.48
2009/04/23 08:09:40.0    -110   -250    123    274    300 203.7  25.7  33982  286.57 0855.48
2009/04/23 08:09:40.1     -43   -312     87    316    328 188.0  15.4  33980  286.52 0855.48
2009/04/23 08:09:40.2     -46   -333     -2    337    338 188.0  -0.4  33980  286.53 0855.48
2009/04/23 08:09:40.3     -96   -346     -3    360    361 195.6  -0.5  33982  286.56 0855.48
2009/04/23 08:09:40.4     -70   -317     33    325    327 192.5   5.8  33982  286.57 0855.48
2009/04/23 08:09:40.5     -45   -341     56    345    350 187.6   9.3  33980  286.53 0855.48
2009/04/23 08:09:40.6     -73   -312     44    321    325 193.3   7.9  33984  286.58 0855.48
2009/04/23 08:09:40.7     -95   -286     17    302    303 198.5   3.3  33984  286.58 0855.48
2009/04/23 08:09:40.8     -50   -287     30    292    294 190.0   6.0  33978  286.50 0855.48
2009/04/23 08:09:40.9      -7   -239     38    240    244 181.8   9.0  33980  286.53 0855.49
2009/04/23 08:09:41.0      29   -331    114    333    353 174.9  18.9  33980  286.53 0855.49
2009/04/23 08:09:41.1      82   -401    106    410    424 168.3  14.6  33978  286.50 0855.49
2009/04/23 08:09:41.2      51   -428    244    432    496 173.2  32.0  33978  286.51 0855.49
2009/04/23 08:09:41.3     -14   -317    134    318    345 182.6  24.2  33980  286.54 0855.49
2009/04/23 08:09:41.4      -6   -401    349    402    532 181.0  45.4  33978  286.51 0855.49
2009/04/23 08:09:41.5     -47   -367    270    371    458 187.3  39.7  33980  286.52 0855.49
2009/04/23 08:09:41.6    -165   -455    200    485    524 200.0  23.7  33978  286.51 0855.49
2009/04/23 08:09:41.7       4   -518    182    519    549 179.5  20.1  33978  286.51 0855.49
2009/04/23 08:09:41.8      -9   -579    169    580    605 180.9  16.3  33980  286.52 0855.49
2009/04/23 08:09:41.9     -14   -571    144    572    590 181.5  14.2  33980  286.53 0855.49
2009/04/23 08:09:42.0     -12   -603     51    604    607 181.2   4.9  33982  286.55 0855.49
2009/04/23 08:09:42.1       1   -579    210    580    616 179.9  20.9  33982  286.55 0855.49
2009/04/23 08:09:42.2      64   -585    209    589    626 173.7  19.6  33982  286.55 0855.49
2009/04/23 08:09:42.3       6   -648    227    649    687 179.4  20.1  33980  286.52 0855.49
2009/04/23 08:09:42.4      84   -600    265    607    662 172.0  25.1  33978  286.51 0855.49
2009/04/23 08:09:42.5     190   -647    170    675    697 163.6  14.2  33974  286.43 0855.49
2009/04/23 08:09:42.6     114   -634     96    645    653 169.8   8.5  33976  286.46 0855.49
2009/04/23 08:09:42.7     173   -663     43    686    688 165.3   3.6  33978  286.50 0855.49
2009/04/23 08:09:42.8     118   -607     70    619    623 169.0   6.5  33978  286.49 0855.49
2009/04/23 08:09:42.9      46   -625     91    627    634 175.8   8.3  33982  286.56 0855.49
2009/04/23 08:09:43.0      71   -562    139    567    584 172.8  13.8  33980  286.52 0855.49
2009/04/23 08:09:43.1      33   -586    212    587    625 176.8  19.9  33984  286.58 0855.49
2009/04/23 08:09:43.2      -1   -481    294    482    564 180.2  34.4  33984  286.61 0855.49
2009/04/23 08:09:43.3     101   -397    272    410    492 165.6  36.7  33978  286.51 0855.49
2009/04/23 08:09:43.4     135   -399    188    422    461 161.3  25.8  33984  286.60 0855.49
2009/04/23 08:09:43.5     132   -409    229    430    487 162.1  30.3  33980  286.53 0855.49
2009/04/23 08:09:43.6      47   -403    221    406    462 173.3  31.0  33980  286.54 0855.49
2009/04/23 08:09:43.7      49   -424    208    427    474 173.3  27.9  33984  286.60 0855.49
2009/04/23 08:09:43.8      43   -418    178    421    457 174.1  24.2  33988  286.65 0855.49
2009/04/23 08:09:43.9     -27   -398    123    399    418 183.9  17.2  33984  286.60 0855.49
2009/04/23 08:09:44.0     -16   -438    158    439    466 182.1  20.6  33984  286.59 0855.49
2009/04/23 08:09:44.1      -3   -460    126    461    478 180.5  15.3  33990  286.68 0855.49
2009/04/23 08:09:44.2     -66   -403    144    409    434 189.3  19.5  33992  286.74 0855.49
2009/04/23 08:09:44.3     -55   -271    128    277    305 191.5  27.0  33978  286.50 0855.49
2009/04/23 08:09:44.4     -17   -336    169    337    377 182.9  28.7  33984  286.59 0855.49
2009/04/23 08:09:44.5     -76   -283    166    294    337 195.1  31.9  33986  286.63 0855.49
2009/04/23 08:09:44.6     -88   -346    147    358    387 194.3  23.5  33984  286.59 0855.49
2009/04/23 08:09:44.7     -25   -182    145    184    234 188.1  42.2  33980  286.54 0855.49
2009/04/23 08:09:44.8       0   -113    129    114    172 180.4  54.0  33988  286.67 0855.49
2009/04/23 08:09:44.9     -12   -195    113    196    226 183.8  32.4  33986  286.64 0855.49
2009/04/23 08:09:45.0     -76   -252     98    264    281 196.9  21.0  33984  286.58 0855.49
2009/04/23 08:09:45.1     -14   -328     43    329    332 182.6   7.6  33990  286.69 0855.49
2009/04/23 08:09:45.2     -20   -133     79    135    156 188.9  33.1  33988  286.67 0855.49
2009/04/23 08:09:45.3     -74   -157     19    174    176 205.2   6.5  33986  286.64 0855.49
2009/04/23 08:09:45.4    -112   -151    100    189    213 216.5  30.1  33988  286.66 0855.49
2009/04/23 08:09:45.5    -146    -17    132    148    198 263.0  46.4  33986  286.62 0855.49
2009/04/23 08:09:45.6     -20   -119    115    121    166 189.8  48.7  33990  286.71 0855.49
2009/04/23 08:09:45.7     -27    -79    133     84    157 199.2  64.9  33988  286.67 0855.49
2009/04/23 08:09:45.8    -104   -168     68    198    210 211.9  18.9  33992  286.73 0855.49
2009/04/23 08:09:45.9    -109   -214     43    241    245 207.0  10.3  33988  286.65 0855.49
2009/04/23 08:09:46.0       7   -229     41    230    234 178.2  10.1  33986  286.62 0855.49
2009/04/23 08:09:46.1      38   -277      3    280    281 172.2   0.7  33988  286.65 0855.49
2009/04/23 08:09:46.2      20   -267     -2    268    269 175.5  -0.5  33992  286.72 0855.49
2009/04/23 08:09:46.3     -68   -329    -45    337    341 191.8  -7.7  33988  286.66 0855.49
2009/04/23 08:09:46.4     -42   -303     20    307    308 188.0   3.8  33990  286.70 0855.49
2009/04/23 08:09:46.5      11   -359      7    360    361 178.2   1.2  33990  286.69 0855.49
2009/04/23 08:09:46.6      38   -368    -33    371    373 174.0  -5.1  33990  286.69 0855.49
2009/04/23 08:09:46.7      12   -211    -68    212    222 176.6 -23.3  33990  286.69 0855.49
2009/04/23 08:09:46.8     -15   -205    -72    206    218 184.2 -24.4  33988  286.66 0855.49
2009/04/23 08:09:46.9    -138   -209    -88    251    267 213.4 -19.4  33986  286.62 0855.50
2009/04/23 08:09:47.0    -130   -245     -2    278    279 207.9  -0.5  33990  286.70 0855.50
2009/04/23 08:09:47.1     -49   -393    -61    397    402 187.1  -8.8  33984  286.58 0855.50
2009/04/23 08:09:47.2     -32   -344    -22    346    347 185.3  -3.8  33984  286.58 0855.50
2009/04/23 08:09:47.3    -137   -267    -51    301    306 207.2  -9.6  33988  286.65 0855.50
2009/04/23 08:09:47.4    -101   -292    -52    310    315 199.2  -9.6  33988  286.65 0855.50
2009/04/23 08:09:47.5     -96   -284   -103    300    318 198.7 -19.1  33996  286.80 0855.50
2009/04/23 08:09:47.6    -126   -290   -114    317    336 203.6 -24.8  33998  286.83 0855.50
2009/04/23 08:09:47.7    -192   -366    -33    414    416 207.7  -4.6  33988  286.67 0855.50
2009/04/23 08:09:47.8    -242   -445     39    507    509 208.6   4.5  33990  286.68 0855.50
2009/04/23 08:09:47.9    -242   -436    -35    499    501 209.0  -4.0  33994  286.77 0855.50
2009/04/23 08:09:48.0    -249   -458    -37    522    524 208.5  -4.1  33992  286.74 0855.50
2009/04/23 08:09:48.1    -162   -414    -13    445    446 201.4  -1.8  33992  286.72 0855.50
2009/04/23 08:09:48.2    -159   -416    -17    446    447 200.9  -2.2  33988  286.65 0855.50
2009/04/23 08:09:48.3    -160   -326    -81    364    374 206.2 -12.6  33988  286.66 0855.50
2009/04/23 08:09:48.4     -54   -287    -93    293    307 190.7 -22.9  33990  286.68 0855.50
2009/04/23 08:09:48.5       5   -337    -93    338    351 179.0 -15.5  33992  286.73 0855.50
2009/04/23 08:09:48.6      52   -370    -75    374    382 171.9 -11.3  33990  286.69 0855.50
2009/04/23 08:09:48.7     146   -308     17    341    342 154.6   2.9  33992  286.73 0855.50
2009/04/23 08:09:48.8     137   -282     36    314    317 154.1   6.6  33988  286.65 0855.50
2009/04/23 08:09:48.9     106   -224     76    248    260 154.6  17.1  33992  286.74 0855.51
2009/04/23 08:09:49.0     117   -222    112    252    275 152.1  25.3  33994  286.77 0855.51
2009/04/23 08:09:49.1     111   -135    173    175    246 140.6  49.9  33988  286.67 0855.51
2009/04/23 08:09:49.2      22    -22    152     32    155 134.9  89.0  33992  286.73 0855.51
2009/04/23 08:09:49.3      83     45    169     95    193  61.6  68.3  33994  286.78 0855.51
2009/04/23 08:09:49.4     -63    -46    163     79    181 234.0  72.7  33994  286.78 0855.51
2009/04/23 08:09:49.5    -111    -19    165    113    199 260.3  62.6  33990  286.71 0855.51
2009/04/23 08:09:49.6     -55     -5    212     56    219 264.8  84.9  33992  286.74 0855.51
2009/04/23 08:09:49.7     -58     23    148     63    160 291.7  75.9  33992  286.73 0855.51
2009/04/23 08:09:49.8     -50    -42    155     66    168 230.4  75.9  33990  286.69 0855.51
2009/04/23 08:09:49.9     -89    -43     34     99    105 244.2  18.9  33986  286.64 0855.51
2009/04/23 08:09:50.0    -100    156     71    186    199 327.3  21.7  33990  286.71 0855.51
2009/04/23 08:09:50.1    -121    116    103    168    197 313.8  34.4  33990  286.69 0855.51
2009/04/23 08:09:50.2     -60     49     94     78    122 309.5  56.3  33982  286.57 0855.51
2009/04/23 08:09:50.3    -160     76     72    178    192 295.4  23.1  33984  286.61 0855.51
2009/04/23 08:09:50.4    -249    -23    101    251    270 264.7  23.1  33990  286.68 0855.51
2009/04/23 08:09:50.5    -257    -91    131    273    302 250.3  27.3  33986  286.63 0855.51
2009/04/23 08:09:50.6    -165    -98    189    193    270 239.3  49.8  33982  286.55 0855.51
2009/04/23 08:09:50.7    -169   -129    155    213    263 232.7  39.7  33980  286.53 0855.51
2009/04/23 08:09:50.8     -91    -83    107    124    163 227.8  45.6  33988  286.67 0855.51
2009/04/23 08:09:50.9     163    102    146    193    242  57.8  40.7  33988  286.66 0855.50
2009/04/23 08:09:51.0     166     78    151    184    238  64.9  43.7  33990  286.71 0855.50
2009/04/23 08:09:51.1     125     47    159    134    207  69.2  55.8  33992  286.74 0855.50
2009/04/23 08:09:51.2     222     10    118    223    252  87.4  30.2  33992  286.74 0855.50
2009/04/23 08:09:51.3     169     18     75    171    186  83.6  25.3  33992  286.74 0855.50
2009/04/23 08:09:51.4      74     62     82     97    127  50.0  44.8  33988  286.67 0855.50
2009/04/23 08:09:51.5      38    172     87    177    197  12.5  28.0  34006  286.98 0855.50
2009/04/23 08:09:51.6      77    269     29    280    282  16.1   6.0  34016  287.12 0855.50
2009/04/23 08:09:51.7      15    230    -29    231    233   3.8  -7.3  34012  287.06 0855.50
2009/04/23 08:09:51.8     147    231     13    274    275  32.5   2.8  34010  287.02 0855.50
2009/04/23 08:09:51.9     227    188     35    296    299  50.4   6.9  33994  286.75 0855.50
2009/04/23 08:09:52.0     273    206     -7    343    344  53.0  -1.3  33990  286.68 0855.50
2009/04/23 08:09:52.1     324    195     33    379    381  58.9   5.1  33984  286.59 0855.50
2009/04/23 08:09:52.2     241    258     85    354    365  43.1  13.5  33996  286.81 0855.50
2009/04/23 08:09:52.3     200    294     92    356    368  34.2  14.5  33998  286.83 0855.50
2009/04/23 08:09:52.4      84    307   -101    319    334  15.4 -22.6  34002  286.91 0855.50
2009/04/23 08:09:52.5      76    237    -86    249    263  17.8 -23.8  34002  286.90 0855.50
2009/04/23 08:09:52.6      88    170    -42    192    197  27.4 -12.6  34002  286.91 0855.50
2009/04/23 08:09:52.7     110    172     73    205    217  32.5  20.4  34004  286.93 0855.50
2009/04/23 08:09:52.8     131    124    167    181    246  46.4  47.7  34004  286.93 0855.50
2009/04/23 08:09:52.9     153    123    141    197    242  51.1  39.1  34004  286.93 0855.48
2009/04/23 08:09:53.0     207     54    142    215    257  75.2  36.5  34004  286.94 0855.48
2009/04/23 08:09:53.1     217     87    236    234    332  68.0  50.1  34002  286.90 0855.48
2009/04/23 08:09:53.2     191    109    126    221    254  60.2  32.3  34006  286.95 0855.48
2009/04/23 08:09:53.3     217    119     71    248    259  61.2  16.0  34006  286.95 0855.48
2009/04/23 08:09:53.4     311    236    -70    391    398  52.8 -10.3  34004  286.93 0855.48
2009/04/23 08:09:53.5     284    283    -16    402    403  45.1  -2.3  34006  286.95 0855.48
2009/04/23 08:09:53.6     328    260     38    419    421  51.6   5.2  34006  286.97 0855.48
2009/04/23 08:09:53.7     368    392    202    539    575  43.2  21.5  34026  287.30 0855.48
2009/04/23 08:09:53.8     477    453    259    658    707  46.5  22.7  34022  287.24 0855.48
2009/04/23 08:09:53.9     366    248     62    443    448  55.9   8.0  34020  287.19 0855.48
2009/04/23 08:09:54.0     461    307    193    555    588  56.3  19.2  34016  287.14 0855.48
2009/04/23 08:09:54.1     537    284    113    608    619  62.1  10.6  34012  287.08 0855.48
2009/04/23 08:09:54.2     371    371     34    526    528  45.0   3.7  34022  287.25 0855.48
2009/04/23 08:09:54.3     556    289     74    627    632  62.5   6.8  34012  287.08 0855.48
2009/04/23 08:09:54.4     516    170    239    544    594  71.7  25.2  34016  287.14 0855.48
2009/04/23 08:09:54.5     649     90    252    656    702  82.1  22.1  34012  287.06 0855.48
2009/04/23 08:09:54.6     734    244    120    774    784  71.6   8.8  34006  286.97 0855.48
2009/04/23 08:09:54.7     578    210    102    616    625  70.0   9.4  34010  287.03 0855.48
2009/04/23 08:09:54.8     734    245    132    775    787  71.5   9.7  34002  286.90 0855.48
2009/04/23 08:09:54.9     863    148     46    876    878  80.2   3.0  34000  286.88 0855.47
2009/04/23 08:09:55.0     802    267     41    846    848  71.6   2.8  34016  287.13 0855.47
2009/04/23 08:09:55.1     691    323    -61    763    766  64.9  -4.6  34008  286.99 0855.47
2009/04/23 08:09:55.2     509    291    -83    587    594  60.2  -8.1  34016  287.14 0855.47
2009/04/23 08:09:55.3     574    162   -154    597    617  74.2 -14.5  34014  287.09 0855.47
2009/04/23 08:09:55.4     604    104   -106    614    624  80.2  -9.8  34002  286.91 0855.47
2009/04/23 08:09:55.5     629    208     60    663    666  71.7   5.2  33998  286.82 0855.47
2009/04/23 08:09:55.6     560    151    151    581    601  74.9  14.6  34002  286.90 0855.47
2009/04/23 08:09:55.7     556     42    217    558    598  85.7  22.4  34028  287.34 0855.47
2009/04/23 08:09:55.8     583    140    185    600    629  76.5  17.2  34016  287.13 0855.47
2009/04/23 08:09:55.9     624    146    123    641    653  76.8  10.9  34016  287.13 0855.45
2009/04/23 08:09:56.0     576     97    136    585    601  80.4  13.1  34018  287.17 0855.45
2009/04/23 08:09:56.1     420     32    226    422    478  85.6  30.5  34024  287.28 0855.45
2009/04/23 08:09:56.2     432    -14    224    433    487  91.9  29.4  33998  286.83 0855.45
2009/04/23 08:09:56.3     391   -256    150    468    492 123.3  17.8  33998  286.82 0855.45
2009/04/23 08:09:56.4     472   -134    251    491    551 105.9  29.2  33990  286.69 0855.45
2009/04/23 08:09:56.5     491     -6    178    492    523  90.8  20.9  33994  286.75 0855.45
2009/04/23 08:09:56.6     354     -6    195    355    405  91.0  31.3  33996  286.81 0855.45
2009/04/23 08:09:56.7     338   -114    133    357    380 108.7  21.3  33998  286.83 0855.45
2009/04/23 08:09:56.8     298   -170     58    344    349 119.7   9.7  33996  286.80 0855.45
2009/04/23 08:09:56.9     282   -279    113    397    413 134.7  15.9  33994  286.76 0855.45
2009/04/23 08:09:57.0     131   -110     91    172    194 130.0  30.3  33978  286.49 0855.45
2009/04/23 08:09:57.1     105   -329    173    346    386 162.3  28.5  34000  286.85 0855.45
2009/04/23 08:09:57.2     265   -368    241    454    514 144.2  30.2  33994  286.78 0855.45
2009/04/23 08:09:57.3     173   -395    189    432    471 156.4  25.1  34010  287.04 0855.45
2009/04/23 08:09:57.4      24   -337    177    338    381 175.8  29.8  34002  286.91 0855.45
2009/04/23 08:09:57.5     104   -476    101    488    499 167.6  11.8  34006  286.97 0855.45
2009/04/23 08:09:57.6     318   -374     87    492    500 139.6  10.1  33990  286.70 0855.45
2009/04/23 08:09:57.7     123   -455    151    472    496 164.8  17.8  34000  286.88 0855.45
2009/04/23 08:09:57.8     203   -413    220    461    510 153.8  27.3  33992  286.73 0855.45
2009/04/23 08:09:57.9     133   -374    139    398    422 160.4  19.3  34002  286.89 0855.46
2009/04/23 08:09:58.0     128   -368    107    390    405 160.7  15.4  34004  286.93 0855.46
2009/04/23 08:09:58.1     251   -316    245    404    472 141.5  34.0  33992  286.74 0855.46
2009/04/23 08:09:58.2     133   -294    241    323    403 155.7  40.6  34000  286.86 0855.46
2009/04/23 08:09:58.3     201   -272    164    339    376 143.6  27.7  33994  286.76 0855.46
2009/04/23 08:09:58.4     233   -220    164    321    360 133.3  29.3  33994  286.78 0855.46
2009/04/23 08:09:58.5     160   -203    166    259    307 141.7  35.6  33992  286.72 0855.46
2009/04/23 08:09:58.6     197   -185    157    271    313 133.2  32.7  33992  286.74 0855.46
2009/04/23 08:09:58.7     192   -217    191    291    348 138.5  36.3  33990  286.71 0855.46
2009/04/23 08:09:58.8     191   -203    167    279    325 136.8  33.8  33988  286.65 0855.46
2009/04/23 08:09:58.9      89   -223    199    241    312 158.1  43.7  33990  286.68 0855.46
2009/04/23 08:09:59.0      12    -49    213     51    219 165.7  86.9  33994  286.76 0855.46
2009/04/23 08:09:59.1      15   -199    182    200    270 175.5  47.1  34008  286.99 0855.46
2009/04/23 08:09:59.2     -18   -205    197    206    285 185.1  49.0  34010  287.04 0855.46
2009/04/23 08:09:59.3     -53   -204    162    211    266 194.7  41.6  34010  287.02 0855.46
2009/04/23 08:09:59.4     -73   -217    140    230    269 198.7  34.4  34006  286.97 0855.46
2009/04/23 08:09:59.5    -104   -187    123    215    247 209.0  32.4  34008  286.99 0855.46
2009/04/23 08:09:59.6     -17   -173    115    174    208 185.8  36.5  34008  287.00 0855.46
2009/04/23 08:09:59.7     -51   -153     77    162    179 198.7  27.2  34004  286.93 0855.46
2009/04/23 08:09:59.8    -196    -80      0    212    213 247.8   0.2  34000  286.88 0855.46
2009/04/23 08:09:59.9    -275    -59    -39    282    285 257.7  -8.0  34000  286.87 0855.43
2009/04/23 08:10:00.0    -307    -53    -36    312    315 260.1  -6.6  33992  286.74 0855.43
2009/04/23 08:10:00.1    -328     59    -90    334    347 280.3 -15.2  33994  286.75 0855.43
2009/04/23 08:10:00.2    -402     -5   -125    403    423 269.2 -17.3  33994  286.77 0855.43
2009/04/23 08:10:00.3    -416     18    -45    417    420 272.5  -6.3  33982  286.57 0855.43
2009/04/23 08:10:00.4    -443    -96     13    454    455 257.7   1.7  33990  286.69 0855.43
2009/04/23 08:10:00.5    -264    -79      3    276    277 253.2   0.8  33990  286.70 0855.43
2009/04/23 08:10:00.6    -263   -114    -57    287    293 246.5 -11.3  33990  286.70 0855.43
2009/04/23 08:10:00.7    -363   -108    -45    379    382 253.4  -6.9  33990  286.68 0855.43
2009/04/23 08:10:00.8    -374    -64     38    380    382 260.2   5.8  33986  286.64 0855.43
2009/04/23 08:10:00.9    -386     44    -32    389    391 276.6  -4.8  33984  286.61 0855.43
2009/04/23 08:10:01.0    -331    130    -55    356    361 291.5  -8.9  33990  286.68 0855.43
2009/04/23 08:10:01.1    -260     40     15    264    265 278.8   3.3  33990  286.68 0855.43
2009/04/23 08:10:01.2    -274     -3    -55    275    281 269.2 -11.3  33988  286.67 0855.43
2009/04/23 08:10:01.3    -205    -65    -48    216    222 252.5 -12.6  33988  286.66 0855.43
2009/04/23 08:10:01.4    -298    -60    -75    305    315 258.5 -13.9  33990  286.70 0855.43
2009/04/23 08:10:01.5    -374    -65     82    380    389 260.1  12.3  33990  286.69 0855.43
2009/04/23 08:10:01.6    -401    -78     76    409    417 258.9  10.6  33990  286.69 0855.43
2009/04/23 08:10:01.7    -432    -94     53    443    447 257.7   6.9  33986  286.64 0855.43
2009/04/23 08:10:01.8    -414   -138    111    437    452 251.5  14.3  33992  286.72 0855.43
2009/04/23 08:10:01.9    -404   -105    -52    418    422 255.3  -7.2  33988  286.67 0855.43
2009/04/23 08:10:02.0    -462    -64   -132    467    485 262.1 -20.5  33994  286.75 0855.43
2009/04/23 08:10:02.1    -516   -356    -98    628    636 235.4  -8.9  33976  286.46 0855.43
2009/04/23 08:10:02.2    -464   -246   -151    526    548 242.1 -16.1  33992  286.72 0855.43
2009/04/23 08:10:02.3    -459   -271   -115    534    547 239.4 -12.2  33992  286.72 0855.43
2009/04/23 08:10:02.4    -435   -221    -94    489    499 243.0 -10.9  33994  286.75 0855.43
2009/04/23 08:10:02.5    -480   -250   -157    542    565 242.5 -16.2  33996  286.79 0855.43
2009/04/23 08:10:02.6    -450   -333   -298    561    635 233.5 -34.6  33990  286.68 0855.43
2009/04/23 08:10:02.7    -479   -278   -133    554    570 239.9 -13.6  33990  286.69 0855.43
2009/04/23 08:10:02.8    -347   -386   -130    520    537 221.9 -14.1  33988  286.67 0855.43
2009/04/23 08:10:02.9    -331   -254    -75    418    425 232.5 -10.3  33990  286.70 0855.43
2009/04/23 08:10:03.0    -198   -335   -119    390    407 210.7 -21.9  33990  286.71 0855.43
2009/04/23 08:10:03.1    -276   -287   -109    399    414 223.9 -15.4  33988  286.67 0855.43
2009/04/23 08:10:03.2    -368   -222   -110    431    446 238.9 -14.4  33992  286.72 0855.43
2009/04/23 08:10:03.3    -341   -207    -68    400    406 238.7  -9.7  33990  286.69 0855.43
2009/04/23 08:10:03.4    -444   -141     72    466    472 252.3   8.9  33978  286.51 0855.43
2009/04/23 08:10:03.5    -479    -83     27    487    488 260.1   3.3  33984  286.60 0855.43
2009/04/23 08:10:03.6    -470   -126     81    487    494 255.0   9.5  33984  286.58 0855.43
2009/04/23 08:10:03.7    -522    -93     30    531    532 259.9   3.3  33984  286.59 0855.43
2009/04/23 08:10:03.8    -453     46     78    456    463 275.8   9.7  33996  286.81 0855.43
2009/04/23 08:10:03.9    -422   -119    146    439    463 254.2  18.5  33990  286.70 0855.43
2009/04/23 08:10:04.0    -421    -25    -10    422    423 266.5  -1.4  33982  286.57 0855.43
2009/04/23 08:10:04.1    -297    -98   -205    313    374 251.6 -40.7  33990  286.68 0855.43
2009/04/23 08:10:04.2    -211   -125    -83    246    259 239.4 -23.3  33988  286.65 0855.43
2009/04/23 08:10:04.3    -263    -52    -44    269    273 258.8  -9.4  33984  286.60 0855.43
2009/04/23 08:10:04.4    -349    -17     14    350    351 267.2   2.3  33974  286.43 0855.43
2009/04/23 08:10:04.5    -382     -8    -36    383    385 268.8  -5.5  33986  286.63 0855.43
2009/04/23 08:10:04.7    -291    -14    -16    292    293 267.2  -3.2  33988  286.67 0855.43
2009/04/23 08:10:04.8    -318      0     70    319    327 270.0  12.5  33988  286.65 0855.43
2009/04/23 08:10:04.9    -196    -95    143    219    261 244.0  36.0  33988  286.67 0855.43
2009/04/23 08:10:04.9    -196     54     92    204    223 285.5  25.9  33982  286.56 0855.43
2009/04/23 08:10:05.1    -312     -8    108    313    332 268.5  19.1  33984  286.60 0855.43
2009/04/23 08:10:05.2    -282     -8     55    283    289 268.3  11.1  33984  286.60 0855.43
2009/04/23 08:10:05.3    -253    -30    135    255    288 263.0  30.2  33986  286.62 0855.43
2009/04/23 08:10:05.4    -196    -23    176    198    264 263.2  46.2  33988  286.67 0855.43
2009/04/23 08:10:05.5     -51     17    158     55    167 289.1  80.7  33990  286.71 0855.43
2009/04/23 08:10:05.6      15      4    155     16    155  74.9  90.0  33994  286.76 0855.43
2009/04/23 08:10:05.7      50      9    130     51    139  79.4  77.6  33990  286.69 0855.43
2009/04/23 08:10:05.8      60     50     87     79    117  50.5  52.7  33988  286.67 0855.43
2009/04/23 08:10:05.9      55     36     54     66     85  56.7  43.7  33992  286.73 0855.43
2009/04/23 08:10:06.0       2     34    107     35    112   4.4  80.7  33984  286.61 0855.40
2009/04/23 08:10:06.1     -23     39     77     46     89 329.3  66.2  33984  286.59 0855.40
2009/04/23 08:10:06.2     -20     38     43     44     61 331.9  50.0  33986  286.64 0855.40
2009/04/23 08:10:06.3     107     47     68    118    136  66.0  33.4  33986  286.64 0855.40
2009/04/23 08:10:06.4     174     39    136    179    224  77.4  40.9  33984  286.61 0855.40
2009/04/23 08:10:06.5      51    -82    143     97    172 147.9  62.8  33984  286.61 0855.40
2009/04/23 08:10:06.6       0    -54    121     55    132 180.9  74.0  33992  286.73 0855.40
2009/04/23 08:10:06.7     -48   -157     54    165    174 196.9  18.1  33990  286.69 0855.40
2009/04/23 08:10:06.8    -209   -208     81    296    308 225.1  15.4  33986  286.63 0855.40
2009/04/23 08:10:06.9    -185   -185    -18    263    264 225.0  -4.1  33986  286.62 0855.40
2009/04/23 08:10:07.0     -39    -43     19     59     63 222.3  18.4  33986  286.64 0855.40
2009/04/23 08:10:07.1      41     -7     26     42     49  99.7  35.5  33988  286.66 0855.40
2009/04/23 08:10:07.2      77    -25     75     82    111 108.4  47.5  33986  286.64 0855.40
2009/04/23 08:10:07.3      36    -50     73     62     95 143.9  55.8  33986  286.64 0855.40
2009/04/23 08:10:07.4     -14    -43     56     46     72 198.5  56.3  33988  286.67 0855.40
2009/04/23 08:10:07.5      77    -42      7     89     90 118.9   4.9  33986  286.64 0855.40
2009/04/23 08:10:07.6      53     -4    -15     54     56  94.4 -20.7  33988  286.67 0855.40
2009/04/23 08:10:07.7      14      9    -28     17     32  57.6 -69.1  33986  286.64 0855.40
2009/04/23 08:10:07.8      67      3    -76     68    101  87.4 -57.7  33986  286.62 0855.40
2009/04/23 08:10:07.9      61     15    -90     63    109  75.8 -65.9  33982  286.57 0855.40
2009/04/23 08:10:08.0      85     33   -105     92    139  68.3 -58.7  33984  286.59 0855.41
2009/04/23 08:10:08.1     102     15    -68    104    124  81.6 -40.4  33984  286.59 0855.41
2009/04/23 08:10:08.2      75     54    -41     93    101  54.0 -29.5  33984  286.61 0855.41
2009/04/23 08:10:08.3     169     -5    -45    170    176  91.7 -15.0  33982  286.57 0855.41
2009/04/23 08:10:08.4     257   -148     46    297    301 120.0   8.8  33990  286.70 0855.41
2009/04/23 08:10:08.5      79   -182     39    199    203 156.6  11.1  33988  286.66 0855.41
2009/04/23 08:10:08.6      20   -261     74    262    273 175.6  15.8  33990  286.68 0855.41
2009/04/23 08:10:08.7      78   -263    142    275    309 163.5  29.3  33988  286.67 0855.41
2009/04/23 08:10:08.8      74   -311     90    320    333 166.6  15.8  33988  286.66 0855.41
2009/04/23 08:10:08.9     111   -256     71    280    289 156.6  14.3  33990  286.70 0855.41
2009/04/23 08:10:09.0     126   -265    106    294    312 154.5  20.7  33988  286.67 0855.41
2009/04/23 08:10:09.1      97   -247     82    266    279 158.6  17.3  33988  286.67 0855.41
2009/04/23 08:10:09.2      92   -253     98    270    288 160.0  19.9  33996  286.79 0855.41
2009/04/23 08:10:09.3     123   -214     91    247    263 150.1  21.0  33994  286.75 0855.41
2009/04/23 08:10:09.4      47   -233     59    238    246 168.4  13.9  33992  286.72 0855.41
2009/04/23 08:10:09.5      11   -197    -62    198    208 176.6 -17.5  33988  286.67 0855.41
2009/04/23 08:10:09.6      40   -166     -1    171    172 166.4  -0.5  33990  286.69 0855.41
2009/04/23 08:10:09.7      76   -138     14    158    159 151.1   5.2  33992  286.73 0855.41
2009/04/23 08:10:09.8      34   -199     48    202    208 170.2  13.5  33990  286.71 0855.41
2009/04/23 08:10:09.9     -30   -300    -27    302    304 185.8  -5.2  33988  286.67 0855.41
2009/04/23 08:10:10.0     -10   -222    -12    223    224 182.7  -3.2  33988  286.66 0855.43
2009/04/23 08:10:10.1       9   -168    103    169    197 176.9  34.2  33986  286.64 0855.43
2009/04/23 08:10:10.2     -24   -206    118    208    239 186.7  32.3  33986  286.64 0855.43
2009/04/23 08:10:10.3      -8   -163    156    164    226 183.1  48.2  33986  286.62 0855.43
2009/04/23 08:10:10.4     -12   -154    133    155    204 184.5  45.4  33990  286.69 0855.43
2009/04/23 08:10:10.5       1   -162    140    163    214 179.5  45.1  33988  286.67 0855.43
2009/04/23 08:10:10.6     -48   -146     23    154    156 198.3   8.5  33988  286.66 0855.43
2009/04/23 08:10:10.7     -23   -126    -14    129    130 190.7  -6.2  33988  286.66 0855.43
2009/04/23 08:10:10.8      -3   -115    -15    116    118 181.8  -7.7  33988  286.67 0855.43
2009/04/23 08:10:10.9      52   -133     29    143    147 158.6  11.6  33986  286.64 0855.43
2009/04/23 08:10:11.0      51    -78     77     94    121 146.6  43.7  33990  286.71 0855.43
2009/04/23 08:10:11.1     -32     -4     48     33     58 262.1  63.6  33990  286.71 0855.43
2009/04/23 08:10:11.2       4     36      7     37     38   6.2  11.1  33988  286.66 0855.43
2009/04/23 08:10:11.3      72    122     98    142    172  30.7  37.8  34000  286.86 0855.43
2009/04/23 08:10:11.4     132    133     66    188    200  44.8  19.4  34002  286.89 0855.43
2009/04/23 08:10:11.5      91    166     90    190    210  28.9  27.2  34004  286.93 0855.43
2009/04/23 08:10:11.6      70    107    162    129    207  33.4  57.1  34008  287.01 0855.43
2009/04/23 08:10:11.7      80     75    132    110    171  46.8  56.1  33998  286.84 0855.43
2009/04/23 08:10:11.8      76     97    111    124    166  38.3  46.4  33996  286.81 0855.43
2009/04/23 08:10:11.9      11      6     93     13     93  61.1  90.0  33998  286.83 0855.43
2009/04/23 08:10:12.0       4     38     75     39     84   6.2  70.4  34002  286.89 0855.43
2009/04/23 08:10:12.1       5     52     66     53     84   6.2  57.5  34004  286.94 0855.43
2009/04/23 08:10:12.2      51    108     98    120    154  25.5  43.7  33998  286.83 0855.43
2009/04/23 08:10:12.3     117    102    117    156    195  48.7  40.4  33992  286.74 0855.43
2009/04/23 08:10:12.4      83     56     98    101    140  55.8  49.0  33994  286.76 0855.43
2009/04/23 08:10:12.5      91     22     92     94    131  76.3  50.0  33994  286.78 0855.43
2009/04/23 08:10:12.6      96     31     30    102    107  71.8  16.3  33998  286.83 0855.43
2009/04/23 08:10:12.7      15     15     71     22     74  45.1  80.7  33996  286.81 0855.43
2009/04/23 08:10:12.8      -5     -2     41      6     41 244.7  90.0  33996  286.81 0855.43
2009/04/23 08:10:12.9     -38     34     17     52     55 312.2  18.4  33998  286.84 0855.43
2009/04/23 08:10:13.0     -20     65     -8     69     70 343.1  -7.3  34000  286.86 0855.43
2009/04/23 08:10:13.1       1     70     13     71     73   0.9  11.0  33998  286.83 0855.43
2009/04/23 08:10:13.2       0     52     21     53     57   0.9  22.0  34000  286.88 0855.43
2009/04/23 08:10:13.3      25     54     25     60     65  25.4  23.0  34000  286.86 0855.43
2009/04/23 08:10:13.4      22     39     34     45     56  29.9  40.7  33998  286.83 0855.43
2009/04/23 08:10:13.5      -4     18      6     19     21 346.6  19.2  33998  286.84 0855.43
2009/04/23 08:10:13.6     -60      8     -6     61     62 277.9  -6.2  33998  286.83 0855.43
2009/04/23 08:10:13.7     -74     -5    -22     75     79 265.7 -16.6  33998  286.83 0855.43
2009/04/23 08:10:13.8     -79     -9    -29     80     85 263.0 -24.4  33992  286.74 0855.43
2009/04/23 08:10:13.9     -69     26    -63     74     97 290.8 -49.2  33994  286.78 0855.43
2009/04/23 08:10:14.0     -87     86    -44    123    130 314.9 -24.4  33998  286.83 0855.44
2009/04/23 08:10:14.1    -116     40    -51    123    133 289.1 -28.0  33998  286.83 0855.44
2009/04/23 08:10:14.2    -166    -41   -137    172    219 256.1 -47.1  33996  286.81 0855.44
2009/04/23 08:10:14.3    -261   -117   -122    287    311 245.8 -28.7  34002  286.90 0855.44
2009/04/23 08:10:14.4    -245   -197   -151    315    349 231.1 -31.7  34000  286.85 0855.44
2009/04/23 08:10:14.5    -186   -265   -148    324    356 215.1 -30.6  33996  286.81 0855.44
2009/04/23 08:10:14.6    -114   -316    -46    337    341 199.9  -7.9  34000  286.86 0855.44
2009/04/23 08:10:14.7     -83   -227     46    242    247 200.1  10.8  33996  286.80 0855.44
2009/04/23 08:10:14.8     -22   -179     83    181    199 187.1  26.4  33996  286.81 0855.44
2009/04/23 08:10:14.9      22   -128    110    130    170 170.2  44.5  33996  286.79 0855.44
2009/04/23 08:10:15.0     -19    -71    130     74    149 195.1  68.3  34000  286.88 0855.44
2009/04/23 08:10:15.1     -36    -41    113     55    125 221.4  72.4  34002  286.91 0855.44
2009/04/23 08:10:15.2     -69    -23     80     73    108 251.4  52.7  33998  286.83 0855.44
2009/04/23 08:10:15.3     -78      1     86     79    116 270.8  52.2  34000  286.86 0855.44
2009/04/23 08:10:15.4     -84     73     65    112    129 310.9  32.9  33998  286.84 0855.44
2009/04/23 08:10:15.5    -100     79     35    128    133 308.6  15.3  34008  287.01 0855.44
2009/04/23 08:10:15.6     -70     35     52     79     94 297.1  35.6  34008  287.00 0855.44
2009/04/23 08:10:15.7      -3      3     77      5     77 313.3  90.0  34008  287.01 0855.44
2009/04/23 08:10:15.8      16     52     87     55    102  17.8  64.7  34018  287.18 0855.44
2009/04/23 08:10:15.9      21    138    115    140    181   8.9  43.7  34012  287.06 0855.44
2009/04/23 08:10:16.0     -50    151    123    160    201 341.7  41.6  34016  287.13 0855.44
2009/04/23 08:10:16.1     -24    110     67    113    131 347.5  33.5  34020  287.21 0855.44
2009/04/23 08:10:16.2     -42    128     87    135    160 341.5  36.0  34014  287.11 0855.44
2009/04/23 08:10:16.3     -64    145     65    159    171 335.9  23.6  34018  287.18 0855.44
2009/04/23 08:10:16.4     -94    170     70    195    207 331.1  20.7  34028  287.35 0855.44
2009/04/23 08:10:16.5     -58    195     64    204    214 343.5  17.4  34026  287.32 0855.44
2009/04/23 08:10:16.6     -58    149     16    161    162 338.6   5.7  34036  287.47 0855.44
2009/04/23 08:10:16.7     -93    128     26    159    162 324.2   9.3  34030  287.38 0855.44
2009/04/23 08:10:16.8     -99     93    -12    137    138 313.1  -5.2  34026  287.30 0855.44
2009/04/23 08:10:16.9    -110     85    -25    140    143 307.7 -10.3  34022  287.23 0855.44
2009/04/23 08:10:17.0    -193    122    -21    229    231 302.4  -5.4  34012  287.06 0855.44
2009/04/23 08:10:17.1    -266     37    -19    269    270 277.9  -4.1  34010  287.04 0855.44
2009/04/23 08:10:17.2    -279     54    -45    285    289 281.0  -9.0  34008  287.01 0855.44
2009/04/23 08:10:17.3    -271    105    -70    291    300 291.3 -13.7  34018  287.17 0855.44
2009/04/23 08:10:17.4    -330     49   -127    334    357 278.6 -26.1  34014  287.10 0855.44
2009/04/23 08:10:17.5    -343     86   -129    354    376 284.2 -25.3  34010  287.03 0855.44
2009/04/23 08:10:17.6    -265     96   -142    282    315 290.0 -33.3  34000  286.85 0855.44
2009/04/23 08:10:17.7    -236    125    -48    268    273 297.9 -10.3  34000  286.87 0855.44
2009/04/23 08:10:17.8    -120    189    -32    225    228 327.5  -8.2  34000  286.86 0855.44
2009/04/23 08:10:17.9    -137    194    -48    238    243 324.8 -11.5  34002  286.89 0855.44
2009/04/23 08:10:18.0    -154    192    -28    247    249 321.3  -6.5  34004  286.94 0855.44
2009/04/23 08:10:18.1    -189     83     86    207    224 293.7  23.4  34006  286.96 0855.44
2009/04/23 08:10:18.2    -282      1     88    283    297 270.4  17.3  34014  287.11 0855.44
2009/04/23 08:10:18.3    -202    -61     89    212    229 253.1  24.1  34022  287.25 0855.44
2009/04/23 08:10:18.4     -89     13     74     91    117 278.8  43.7  34034  287.43 0855.44
2009/04/23 08:10:18.5       9     25     65     27     70  20.0  76.1  34042  287.57 0855.44
2009/04/23 08:10:18.6      23     72      9     76     77  18.3   7.1  34042  287.57 0855.44
2009/04/23 08:10:18.7      -6    129     50    130    139 357.3  22.0  34054  287.79 0855.44
2009/04/23 08:10:18.8      33    126     25    131    134  14.7  11.1  34044  287.62 0855.44
2009/04/23 08:10:18.9     -18     91     13     93     94 348.4   8.0  34042  287.59 0855.44
2009/04/23 08:10:19.0     -38     26     36     47     59 304.2  41.7  34060  287.89 0855.44
2009/04/23 08:10:19.1     -48     26     47     55     72 298.9  44.8  34068  288.03 0855.44
2009/04/23 08:10:19.2     -74      4     39     75     84 273.5  29.8  34058  287.86 0855.44
2009/04/23 08:10:19.3     -83      8     57     84    101 275.7  37.6  34048  287.67 0855.44
2009/04/23 08:10:19.4     -37     44     56     58     80 320.4  49.4  34040  287.55 0855.44
2009/04/23 08:10:19.5     -23     -7     57     25     62 251.6  75.0  34050  287.72 0855.44
2009/04/23 08:10:19.6     -38      9     60     40     72 283.3  63.6  34046  287.64 0855.44
2009/04/23 08:10:19.7     -48     31     44     58     72 302.4  41.7  34038  287.52 0855.44
2009/04/23 08:10:19.8     -63     -6     24     64     68 263.9  20.0  34044  287.60 0855.44
2009/04/23 08:10:19.9     -39     -3     23     40     46 265.6  33.5  34046  287.64 0855.44
2009/04/23 08:10:20.0     -83     -7     47     84     96 264.8  31.9  34044  287.60 0855.44
2009/04/23 08:10:20.1    -108     21     50    111    121 281.4  25.7  34032  287.40 0855.44
2009/04/23 08:10:20.2     -92     75     28    119    123 309.1  13.2  34028  287.33 0855.44
2009/04/23 08:10:20.3     -78     35     18     86     88 294.4  12.2  34028  287.35 0855.44
2009/04/23 08:10:20.4    -110     28     11    114    115 284.6   5.9  34032  287.42 0855.44
2009/04/23 08:10:20.5     -76     81    -60    112    127 316.7 -35.2  34018  287.16 0855.44
2009/04/23 08:10:20.6     -36   -126    -42    132    138 196.0 -22.8  34020  287.21 0855.44
2009/04/23 08:10:20.7      62    -87    -43    107    115 144.4 -27.4  34020  287.21 0855.44
2009/04/23 08:10:20.8      52    -38    -18     65     68 125.9 -15.4  34018  287.18 0855.44
2009/04/23 08:10:20.9      56    -57     -3     81     82 135.5  -2.2  34018  287.18 0855.44
2009/04/23 08:10:21.0      14   -102     45    104    113 172.0  24.6  34022  287.25 0855.43
2009/04/23 08:10:21.1     -27   -117     59    121    134 192.9  27.8  34024  287.27 0855.43
2009/04/23 08:10:21.2     -44   -130     90    138    164 198.7  36.0  34022  287.25 0855.43
2009/04/23 08:10:21.3     -70   -177    162    191    250 201.8  44.8  34020  287.20 0855.43
2009/04/23 08:10:21.4     -91   -162    149    187    239 209.4  42.7  34014  287.11 0855.43
2009/04/23 08:10:21.5     -29   -168     99    171    197 190.0  32.9  34014  287.11 0855.43
2009/04/23 08:10:21.6      32   -156     93    160    185 168.4  32.9  34016  287.13 0855.43
2009/04/23 08:10:21.7      14     -6    119     16    120 115.3  90.0  34016  287.13 0855.43
2009/04/23 08:10:21.8     -71      1    120     72    139 270.9  66.7  34020  287.21 0855.43
2009/04/23 08:10:21.9     -43    -17    134     47    142 248.3  80.7  34020  287.20 0855.43
2009/04/23 08:10:22.0     -93   -110    135    145    198 220.1  47.9  34012  287.06 0855.43
2009/04/23 08:10:22.1     -64   -117    139    134    193 208.9  50.9  34010  287.05 0855.43
2009/04/23 08:10:22.2    -129   -164    105    209    233 218.3  28.7  34010  287.05 0855.43
2009/04/23 08:10:22.3    -117   -141    107    184    212 219.7  33.1  34014  287.10 0855.43
2009/04/23 08:10:22.4     -53   -146    142    156    210 200.0  47.1  34014  287.11 0855.43
2009/04/23 08:10:22.5    -119    -53    112    131    172 246.0  44.8  34014  287.10 0855.43
2009/04/23 08:10:22.6     -64    -34    109     73    131 242.0  63.2  34012  287.06 0855.43
2009/04/23 08:10:22.7     -67    -40     65     79    102 239.3  43.8  34014  287.11 0855.43
2009/04/23 08:10:22.8    -125    -80     93    149    175 237.5  35.2  34012  287.08 0855.43
2009/04/23 08:10:22.9    -173    -93     91    197    217 241.6  26.6  34014  287.10 0855.43
2009/04/23 08:10:23.0    -249    -35    -70    252    262 261.9 -15.5  34024  287.28 0855.45
2009/04/23 08:10:23.1    -251   -131    -26    284    286 242.5  -5.4  34016  287.14 0855.45
2009/04/23 08:10:23.2    -179    -50   -104    186    213 254.3 -36.3  34022  287.25 0855.45
2009/04/23 08:10:23.3    -200    -59    -87    209    226 253.6 -28.2  34024  287.27 0855.45
2009/04/23 08:10:23.4    -240    -65    -74    249    259 254.9 -21.5  34026  287.29 0855.45
2009/04/23 08:10:23.5    -253   -119    -24    280    282 244.8  -5.1  34022  287.24 0855.45
2009/04/23 08:10:23.6    -214   -213      9    303    304 225.1   1.8  34018  287.16 0855.45
2009/04/23 08:10:23.7    -166   -145    -46    221    226 228.7 -11.9  34018  287.18 0855.45
2009/04/23 08:10:23.8     -56   -216     33    224    227 194.7   8.5  34014  287.11 0855.45
2009/04/23 08:10:23.9     -33   -235    101    238    258 188.0  24.2  34010  287.04 0855.45
2009/04/23 08:10:24.0     -33   -241    152    244    287 187.8  35.2  34012  287.06 0855.45
2009/04/23 08:10:24.1     -18   -216    142    217    259 184.9  36.3  34012  287.07 0855.45
2009/04/23 08:10:24.2     -34   -192    117    196    228 190.2  33.5  34008  287.01 0855.45
2009/04/23 08:10:24.3     -17   -233     97    234    253 184.4  23.8  34012  287.07 0855.45
2009/04/23 08:10:24.4     -44   -175     53    181    189 194.3  16.3  34004  286.94 0855.45
2009/04/23 08:10:24.5     -61   -139    123    152    195 203.7  43.3  34008  287.00 0855.45
2009/04/23 08:10:24.6     -85   -142    147    166    221 211.0  46.2  34008  287.01 0855.45
2009/04/23 08:10:24.7    -118   -165    105    203    228 215.6  29.3  34008  287.00 0855.45
2009/04/23 08:10:24.8    -112   -218    152    246    289 207.2  34.8  34010  287.02 0855.45
2009/04/23 08:10:24.9    -157   -179     83    239    254 221.2  19.2  34012  287.07 0855.45
2009/04/23 08:10:25.0    -138   -303     93    334    347 204.5  15.6  34004  286.93 0855.45
2009/04/23 08:10:25.1    -150   -298     51    334    338 206.7   8.7  34000  286.85 0855.45
2009/04/23 08:10:25.2    -223   -306     31    379    381 216.1   4.7  34000  286.88 0855.45
2009/04/23 08:10:25.3    -230   -278     42    361    364 219.6   6.7  34000  286.88 0855.45
2009/04/23 08:10:25.4    -169   -266     57    316    322 212.5  10.4  34002  286.89 0855.45
2009/04/23 08:10:25.5    -191   -326     29    379    380 210.4   4.4  34006  286.95 0855.45
2009/04/23 08:10:25.6    -173   -313     31    358    360 209.0   5.0  34004  286.93 0855.45
2009/04/23 08:10:25.7    -158   -289     47    330    334 208.8   8.2  34002  286.90 0855.45
2009/04/23 08:10:25.8    -156   -245     45    291    295 212.5   8.9  34002  286.89 0855.45
2009/04/23 08:10:25.9     -88   -322     22    335    336 195.4   3.8  34004  286.93 0855.45
2009/04/23 08:10:26.0     -85   -324    -21    336    337 194.8  -3.7  34006  286.96 0855.45
2009/04/23 08:10:26.1     -42   -329    -21    332    333 187.3  -3.7  34006  286.96 0855.45
2009/04/23 08:10:26.2     -62   -401    -73    406    413 188.9 -10.3  34004  286.92 0855.45
2009/04/23 08:10:26.3      -7   -448    -14    449    450 181.0  -1.8  34002  286.89 0855.45
2009/04/23 08:10:26.4      38   -369    105    372    387 174.0  15.8  34000  286.86 0855.45
2009/04/23 08:10:26.5      81   -428    212    436    484 169.3  27.8  34008  287.00 0855.45
2009/04/23 08:10:26.6      80   -473    188    480    515 170.4  22.5  34006  286.95 0855.45
2009/04/23 08:10:26.7      75   -448    163    455    483 170.4  20.4  34006  286.95 0855.45
2009/04/23 08:10:26.8     136   -335    171    362    400 157.9  27.1  34006  286.98 0855.45
2009/04/23 08:10:26.9     148   -362    138    392    416 157.7  19.5  34006  286.96 0855.45
2009/04/23 08:10:27.0     146   -351     74    381    389 157.4  11.0  34002  286.90 0855.46
2009/04/23 08:10:27.1     252   -286     98    382    395 138.6  14.4  34006  286.95 0855.46
2009/04/23 08:10:27.2      23   -358    127    359    380 176.3  20.2  33996  286.81 0855.46
2009/04/23 08:10:27.3     147   -367    163    396    428 158.2  23.6  33994  286.76 0855.46
2009/04/23 08:10:27.4     110   -363    206    380    432 163.1  30.8  33996  286.79 0855.46
2009/04/23 08:10:27.5     200   -627     34    659    660 162.3   3.0  33998  286.82 0855.46
2009/04/23 08:10:27.6     214   -643     42    678    680 161.6   3.6  33996  286.79 0855.46
2009/04/23 08:10:27.7     154   -468    115    493    507 161.7  13.1  33990  286.71 0855.46
2009/04/23 08:10:27.8     241   -359     85    433    442 146.1  11.1  33994  286.76 0855.46
2009/04/23 08:10:27.9     189   -285    -32    343    345 146.4  -5.5  34000  286.86 0855.46
2009/04/23 08:10:28.0     232   -286     57    369    374 141.0   8.8  33996  286.80 0855.46
2009/04/23 08:10:28.1     126   -342    155    365    396 159.7  24.3  33996  286.81 0855.46
2009/04/23 08:10:28.2     143   -209    129    254    284 145.7  29.1  33996  286.79 0855.46
2009/04/23 08:10:28.3      66   -286    269    294    398 166.9  47.3  33994  286.78 0855.46
2009/04/23 08:10:28.4      43   -410    239    413    477 173.9  32.9  33994  286.76 0855.46
2009/04/23 08:10:28.5     -39   -377    188    380    423 186.0  28.2  33990  286.70 0855.46
2009/04/23 08:10:28.6     -16   -377    238    378    446 182.5  35.5  33992  286.74 0855.46
2009/04/23 08:10:28.7    -126   -427    189    446    484 196.5  24.5  33992  286.73 0855.46
2009/04/23 08:10:28.8    -117   -245    200    272    337 205.6  39.9  33988  286.67 0855.46
2009/04/23 08:10:28.9      58    -54    194     80    209 133.1  76.3  33994  286.78 0855.46
2009/04/23 08:10:29.0     126   -432    159    451    479 163.7  19.5  33992  286.73 0855.46
2009/04/23 08:10:29.1     187   -350    140    397    420 151.9  20.0  33992  286.74 0855.46
2009/04/23 08:10:29.2     162   -151    103    222    244 133.1  26.6  33994  286.77 0855.46
2009/04/23 08:10:29.3     215    -58    119    223    252 105.3  30.3  33992  286.72 0855.46
2009/04/23 08:10:29.4     294    -44    146    298    331  98.6  28.0  33996  286.80 0855.46
2009/04/23 08:10:29.5      76   -355    126    364    386 167.9  19.1  33986  286.63 0855.46
2009/04/23 08:10:29.6     218   -397     88    454    463 151.2  11.0  33986  286.62 0855.46
2009/04/23 08:10:29.7     312   -176    -78    359    368 119.5 -12.4  33984  286.58 0855.46
2009/04/23 08:10:29.8     121    -78    -40    145    151 122.9 -15.5  33988  286.67 0855.46
2009/04/23 08:10:29.9      65   -215    -12    225    226 163.1  -3.1  33990  286.71 0855.46
2009/04/23 08:10:30.0      21   -256     62    258    266 175.1  13.7  33990  286.68 0855.46
2009/04/23 08:10:30.1      24   -314      8    316    317 175.5   1.5  33990  286.68 0855.46
2009/04/23 08:10:30.2     165   -409     32    442    444 158.1   4.2  33984  286.60 0855.46
2009/04/23 08:10:30.4      51   -333     40    337    340 171.3   6.8  33986  286.64 0855.46
2009/04/23 08:10:30.4     -66   -473    319    478    574 188.0  36.9  33982  286.56 0855.46
2009/04/23 08:10:30.5     135   -169    221    217    309 141.5  50.2  33986  286.62 0855.46
2009/04/23 08:10:30.6      52   -180    201    188    275 163.7  52.2  33988  286.65 0855.46
2009/04/23 08:10:30.7     122    -28     24    126    129 103.3  11.0  33990  286.69 0855.46
2009/04/23 08:10:30.9     -38   -156   -125    161    203 193.8 -46.1  33986  286.64 0855.46
2009/04/23 08:10:30.9     -26    -96   -201    100    224 195.6 -76.1  33988  286.66 0855.46
2009/04/23 08:10:31.0      -9   -125   -123    126    176 184.5 -53.8  33988  286.67 0855.47
2009/04/23 08:10:31.2     -42   -207    -78    212    225 191.6 -25.4  33982  286.57 0855.47
2009/04/23 08:10:31.3      94   -314    -91    328    340 163.2 -20.1  33984  286.58 0855.47
2009/04/23 08:10:31.4     266   -130    104    297    315 116.0  19.3  33988  286.65 0855.47
2009/04/23 08:10:31.5     182   -278    108    333    351 146.8  18.0  33988  286.66 0855.47
2009/04/23 08:10:31.6     211   -353     51    412    416 149.1   7.1  33986  286.64 0855.47
2009/04/23 08:10:31.7     281   -449    -21    530    531 148.0  -2.3  33984  286.59 0855.47
2009/04/23 08:10:31.8     248   -401    -51    472    475 148.3  -6.2  33984  286.60 0855.47
2009/04/23 08:10:31.9     197   -414   -114    459    474 154.5 -14.0  33982  286.56 0855.47
2009/04/23 08:10:32.0     196   -417   -144    461    482 154.8 -22.3  33982  286.56 0855.47
2009/04/23 08:10:32.1     195   -332    -12    386    387 149.5  -1.8  33984  286.59 0855.47
2009/04/23 08:10:32.2     185   -419     89    459    468 156.2  11.0  33984  286.58 0855.47
2009/04/23 08:10:32.3     107   -506    -11    518    519 168.0  -1.3  33982  286.56 0855.47
2009/04/23 08:10:32.4      -8   -570      3    571    572 180.9   0.3  33980  286.53 0855.47
2009/04/23 08:10:32.5      46   -512   -103    515    526 174.8 -11.3  33976  286.46 0855.47
2009/04/23 08:10:32.6     122   -512    -49    527    530 166.6  -5.3  33978  286.49 0855.47
2009/04/23 08:10:32.7     126   -484    -47    501    504 165.4  -5.5  33982  286.55 0855.47
2009/04/23 08:10:32.8     202   -348    -51    403    407 149.8  -7.3  33980  286.54 0855.47
2009/04/23 08:10:32.9     260   -543     -5    603    604 154.4  -0.5  33972  286.41 0855.47
2009/04/23 08:10:33.0     246   -574    -35    625    627 156.8  -3.3  33984  286.58 0855.47
2009/04/23 08:10:33.1     126   -499   -103    515    526 165.8 -11.3  33980  286.54 0855.49
2009/04/23 08:10:33.2     163   -411    -99    443    454 158.3 -12.6  33978  286.50 0855.49
2009/04/23 08:10:33.3     187   -395    -48    438    441 154.7  -6.3  33982  286.55 0855.49
2009/04/23 08:10:33.4     139   -374   -113    400    416 159.5 -15.9  33980  286.52 0855.49
2009/04/23 08:10:33.5     135   -346   -113    372    389 158.7 -17.0  33980  286.54 0855.49
2009/04/23 08:10:33.6     131   -310    -82    337    348 157.0 -13.8  33980  286.54 0855.49
2009/04/23 08:10:33.7      70   -319    -42    327    330 167.5  -7.3  33982  286.56 0855.49
2009/04/23 08:10:33.8      52   -340    -13    345    346 171.2  -2.2  33984  286.58 0855.49
2009/04/23 08:10:33.9      38   -321    -14    324    325 173.1  -2.5  33978  286.50 0855.49
2009/04/23 08:10:34.0     211   -324    106    387    402 146.9  15.3  33982  286.56 0855.49
2009/04/23 08:10:34.1     228   -366     60    432    437 148.1   8.0  33982  286.57 0855.49
2009/04/23 08:10:34.2     173   -388     65    425    430 155.9   8.7  33982  286.57 0855.49
2009/04/23 08:10:34.3     161   -320     52    359    363 153.3   8.3  33984  286.58 0855.49
2009/04/23 08:10:34.4     166   -213     -5    271    272 142.1  -1.2  33984  286.60 0855.49
2009/04/23 08:10:34.5      74   -206     24    219    221 160.2   6.5  33982  286.56 0855.49
2009/04/23 08:10:34.6     111   -307    124    327    349 160.0  21.6  33984  286.58 0855.49
2009/04/23 08:10:34.7      29   -362    255    364    444 175.3  38.5  33984  286.60 0855.49
2009/04/23 08:10:34.8      58   -345    205    350    405 170.4  33.1  33980  286.54 0855.49
2009/04/23 08:10:34.9      23   -295    106    296    314 175.5  20.6  33982  286.55 0855.49
2009/04/23 08:10:35.0      10   -216     49    217    223 177.3  12.9  33980  286.54 0855.49
2009/04/23 08:10:35.1     144   -156     98    213    234 137.2  26.2  33980  286.52 0855.50
2009/04/23 08:10:35.2     128   -156    159    203    257 140.6  42.0  33982  286.57 0855.50
2009/04/23 08:10:35.3     150   -252    117    294    316 149.2  22.9  33982  286.55 0855.50
2009/04/23 08:10:35.4     130   -336     70    361    368 158.8  11.0  33984  286.59 0855.50
2009/04/23 08:10:35.5     118   -355     72    375    382 161.5  11.0  33980  286.54 0855.50
2009/04/23 08:10:35.6      82   -332    109    343    361 166.1  17.7  33980  286.54 0855.50
2009/04/23 08:10:35.7     152   -275    150    315    348 151.1  27.3  33980  286.54 0855.50
2009/04/23 08:10:35.8     115   -300    175    322    366 159.0  30.9  33980  286.54 0855.50
2009/04/23 08:10:35.9      97   -485    175    495    525 168.7  20.3  33984  286.60 0855.50
2009/04/23 08:10:36.0      20   -553    101    554    564 177.9  10.4  33980  286.54 0855.50
2009/04/23 08:10:36.1      97   -417    177    429    464 166.9  23.7  33980  286.54 0855.50
2009/04/23 08:10:36.2      89   -446    237    455    513 168.7  29.8  33978  286.51 0855.50
2009/04/23 08:10:36.3     119   -317     68    339    346 159.3  11.5  33968  286.34 0855.50
2009/04/23 08:10:36.4     317   -256    147    408    434 128.9  19.9  33978  286.50 0855.50
2009/04/23 08:10:36.5     253   -278   -106    377    392 137.7 -15.8  33978  286.49 0855.50
2009/04/23 08:10:36.6     254   -253     77    359    368 134.9  12.2  33980  286.54 0855.50
2009/04/23 08:10:36.7     185   -323     80    373    382 150.3  12.2  33982  286.56 0855.50
2009/04/23 08:10:36.8     248   -364    103    441    453 145.7  13.2  33986  286.62 0855.50
2009/04/23 08:10:36.9     312   -541     55    625    628 150.0   5.1  33980  286.54 0855.50
2009/04/23 08:10:37.0     286   -613     51    677    679 155.0   4.4  33984  286.59 0855.50
2009/04/23 08:10:37.1     288   -520    162    595    617 151.0  15.3  33984  286.60 0855.49
2009/04/23 08:10:37.2     195   -447    179    489    520 156.4  21.0  33972  286.38 0855.49
2009/04/23 08:10:37.3     184   -317    215    367    425 149.9  33.1  33984  286.60 0855.49
2009/04/23 08:10:37.4     199   -332    200    388    436 149.0  29.3  33982  286.55 0855.49
2009/04/23 08:10:37.5     246   -148    264    288    390 121.1  47.1  33984  286.61 0855.49
2009/04/23 08:10:37.6     263   -219    262    343    431 129.7  41.3  33986  286.62 0855.49
2009/04/23 08:10:37.7     181   -367    284    410    498 153.8  38.1  33978  286.50 0855.49
2009/04/23 08:10:37.8     188   -359    263    406    483 152.4  35.9  33984  286.60 0855.49
2009/04/23 08:10:37.9      92   -392    221    403    459 166.8  31.3  33984  286.59 0855.49
2009/04/23 08:10:38.0      67   -303    274    311    414 167.5  45.9  33986  286.64 0855.49
2009/04/23 08:10:38.1      80   -322    281    332    434 166.0  44.7  33984  286.60 0855.49
2009/04/23 08:10:38.2      89   -386    271    397    480 167.0  37.7  33990  286.69 0855.49
2009/04/23 08:10:38.3      64   -376    301    382    486 170.2  42.2  33980  286.52 0855.49
2009/04/23 08:10:38.4       5   -333    333    334    471 179.1  50.0  33990  286.69 0855.49
2009/04/23 08:10:38.5      51   -167    251    175    305 162.8  61.8  33992  286.72 0855.49
2009/04/23 08:10:38.6      76   -297    309    307    435 165.5  50.1  33994  286.75 0855.49
2009/04/23 08:10:38.7      99   -208    217    231    316 154.5  48.2  33994  286.75 0855.49
2009/04/23 08:10:38.8     238   -421    234    484    537 150.5  27.7  33990  286.69 0855.49
2009/04/23 08:10:38.9     189   -333    298    384    486 150.4  41.7  33992  286.74 0855.49
2009/04/23 08:10:39.0      35   -324    278    327    429 173.7  44.8  33986  286.64 0855.49
2009/04/23 08:10:39.1      55   -250    229    257    344 167.5  46.3  33992  286.72 0855.49
2009/04/23 08:10:39.2      12   -329    251    330    414 177.8  40.9  33990  286.69 0855.49
2009/04/23 08:10:39.3      63   -259    204    267    336 166.2  41.2  33990  286.68 0855.49
2009/04/23 08:10:39.4     -14   -301    239    302    385 182.7  42.4  33988  286.66 0855.49
2009/04/23 08:10:39.5       0   -300    204    301    363 180.0  37.4  33994  286.75 0855.49
2009/04/23 08:10:39.6       5   -321    124    322    345 179.1  22.2  33992  286.73 0855.49
2009/04/23 08:10:39.7      68   -385    198    392    439 169.9  29.1  33984  286.60 0855.49
2009/04/23 08:10:39.8      35   -287    173    290    337 172.9  33.6  33990  286.68 0855.49
2009/04/23 08:10:39.9     113   -365    218    383    440 162.7  32.3  33988  286.67 0855.49
2009/04/23 08:10:40.0      87   -428    264    437    510 168.5  34.0  33990  286.71 0855.49
2009/04/23 08:10:40.1      56   -388    268    393    475 171.7  37.6  33992  286.72 0855.49
2009/04/23 08:10:40.2      62   -305    268    312    411 168.5  45.1  33988  286.66 0855.49
2009/04/23 08:10:40.3     212   -156    156    264    306 126.4  33.5  33992  286.74 0855.49
2009/04/23 08:10:40.4     218    -60     89    227    243 105.5  22.3  33990  286.68 0855.49
2009/04/23 08:10:40.5     256    -64     41    265    269 104.2   8.8  33988  286.67 0855.49
2009/04/23 08:10:40.6     168      9     44    169    175  86.7  14.7  33988  286.67 0855.49
2009/04/23 08:10:40.7     108   -158     87    192    210 145.5  26.2  33984  286.59 0855.49
2009/04/23 08:10:40.8      -1     35     42     36     55 357.3  55.4  33986  286.64 0855.49
2009/04/23 08:10:40.9      84     95     46    128    136  41.4  20.4  33988  286.67 0855.49
2009/04/23 08:10:41.0     129   -177    178    220    282 143.9  43.5  33984  286.60 0855.49
2009/04/23 08:10:41.1     133   -293    178    323    368 155.5  31.3  33984  286.59 0855.47
2009/04/23 08:10:41.2     223   -300    201    375    425 143.4  30.6  33988  286.67 0855.47
2009/04/23 08:10:41.3     262   -233    212    351    410 131.7  34.0  33990  286.69 0855.47
2009/04/23 08:10:41.4     334   -344    116    480    494 135.9  13.7  33990  286.70 0855.47
2009/04/23 08:10:41.5     330   -232    142    404    428 125.1  20.0  33988  286.65 0855.47
2009/04/23 08:10:41.6     318   -209    126    381    402 123.4  18.4  33988  286.66 0855.47
2009/04/23 08:10:41.7     190   -169     33    255    258 131.6   7.5  33986  286.63 0855.47
2009/04/23 08:10:41.8     176   -186    -10    257    258 136.7  -2.2  33988  286.65 0855.47
2009/04/23 08:10:41.9     190   -154      3    245    246 129.1   0.8  33988  286.67 0855.47
2009/04/23 08:10:42.0     173   -248      2    303    304 145.0   0.5  33986  286.63 0855.47
2009/04/23 08:10:42.1     248   -299     69    389    396 140.4  10.1  33984  286.59 0855.46
2009/04/23 08:10:42.2     245   -220     60    330    336 132.0  10.4  33990  286.68 0855.46
2009/04/23 08:10:42.3     229   -198     31    303    305 130.9   5.9  33988  286.67 0855.46
2009/04/23 08:10:42.4     196   -239     55    310    315 140.6  10.1  33988  286.67 0855.46
2009/04/23 08:10:42.5     199   -401     88    448    457 153.6  11.1  33986  286.62 0855.46
2009/04/23 08:10:42.6     148   -277    -40    315    318 151.9  -7.4  33986  286.63 0855.46
2009/04/23 08:10:42.7     100   -265     18    284    285 159.3   3.8  33990  286.68 0855.46
2009/04/23 08:10:42.8     248   -186      4    310    311 126.9   0.8  33988  286.67 0855.46
2009/04/23 08:10:42.9     218   -167     18    275    276 127.5   3.8  33992  286.72 0855.46
2009/04/23 08:10:43.0     245   -208     63    322    329 130.4  11.1  33988  286.67 0855.46
2009/04/23 08:10:43.1     267   -158     28    311    313 120.6   5.2  33990  286.68 0855.46
2009/04/23 08:10:43.2     252   -227      4    340    341 132.1   0.7  33990  286.71 0855.46
2009/04/23 08:10:43.3     259   -229      6    347    348 131.5   1.1  33992  286.73 0855.46
2009/04/23 08:10:43.4     272   -216     48    348    352 128.4   7.9  33994  286.76 0855.46
2009/04/23 08:10:43.5     246   -202     61    319    325 129.3  10.8  33990  286.70 0855.46
2009/04/23 08:10:43.6     237   -183     77    300    310 127.7  14.5  33990  286.68 0855.46
2009/04/23 08:10:43.7     264   -109    110    286    306 112.4  22.1  33990  286.70 0855.46
2009/04/23 08:10:43.8     267    -85     80    281    293 107.7  16.0  33994  286.77 0855.46
2009/04/23 08:10:43.9     211    -70     67    223    233 108.4  16.8  33992  286.73 0855.46
2009/04/23 08:10:44.0     212    -69    118    224    253 108.2  30.3  33994  286.77 0855.46
2009/04/23 08:10:44.1     221    -49     95    227    246 102.6  24.1  33992  286.72 0855.46
2009/04/23 08:10:44.2     243    -49    153    248    291 101.5  34.8  33994  286.75 0855.46
2009/04/23 08:10:44.3     251    -14    196    252    319  93.3  41.9  33992  286.72 0855.46
2009/04/23 08:10:44.4     201     19    158    202    256  84.5  42.0  33992  286.74 0855.46
2009/04/23 08:10:44.5     196     30     71    199    211  81.2  20.2  33992  286.74 0855.46
2009/04/23 08:10:44.6     228     75    119    241    268  71.8  28.2  33994  286.77 0855.46
2009/04/23 08:10:44.7     245     67    117    254    279  74.7  26.4  33994  286.75 0855.46
2009/04/23 08:10:44.8     152     72    137    169    217  64.5  43.5  34000  286.88 0855.46
2009/04/23 08:10:44.9     214     54     91    221    239  75.8  23.6  34016  287.12 0855.46
2009/04/23 08:10:45.0     170     83     59    190    200  63.8  17.4  34018  287.16 0855.46
2009/04/23 08:10:45.1     181     54     88    190    209  73.2  27.0  34014  287.11 0855.46
2009/04/23 08:10:45.2     133     28     99    136    168  78.1  39.7  34024  287.27 0855.46
2009/04/23 08:10:45.3     198      0    120    199    232  90.0  34.2  34024  287.28 0855.46
2009/04/23 08:10:45.4     164     39    127    169    211  76.3  40.9  34006  286.96 0855.46
2009/04/23 08:10:45.5      67     67    117     95    150  45.0  56.4  34006  286.98 0855.46
2009/04/23 08:10:45.6      25     30     90     40     98  39.6  74.5  34000  286.86 0855.46
2009/04/23 08:10:45.7     -32      0     95     33    100 270.0  80.7  34006  286.96 0855.46
2009/04/23 08:10:45.8     -54    -34    122     64    137 237.6  70.4  34000  286.88 0855.46
2009/04/23 08:10:45.9      11    -35    109     37    115 161.3  81.2  33994  286.78 0855.46
2009/04/23 08:10:46.0       7   -116    159    117    197 176.4  60.3  33994  286.78 0855.46
2009/04/23 08:10:46.1      19   -276    140    277    310 176.0  28.7  33990  286.70 0855.44
2009/04/23 08:10:46.2      66   -183    169    195    258 160.0  45.4  33990  286.70 0855.44
2009/04/23 08:10:46.3       9   -119    189    120    223 175.6  64.7  33992  286.74 0855.44
2009/04/23 08:10:46.4     -95   -219    225    239    328 203.4  48.4  33996  286.79 0855.44
2009/04/23 08:10:46.5      95   -152    263    180    318 148.1  62.5  33990  286.70 0855.44
2009/04/23 08:10:46.6     130   -107    222    169    279 129.5  59.0  33996  286.79 0855.44
2009/04/23 08:10:46.7      93    -31    233     99    253 108.6  76.0  33986  286.62 0855.44
2009/04/23 08:10:46.8      70    -98    229    121    259 144.4  69.9  33988  286.66 0855.44
2009/04/23 08:10:46.9      51   -155    261    164    308 161.5  64.7  33990  286.70 0855.44
2009/04/23 08:10:47.0      -2   -154    298    155    335 180.9  70.5  33994  286.77 0855.44
2009/04/23 08:10:47.1      22    -50    174     55    182 156.4  81.8  33992  286.74 0855.44
2009/04/23 08:10:47.2     -70   -351    164    359    394 191.4  26.2  33990  286.69 0855.44
2009/04/23 08:10:47.3     -41   -363     29    366    368 186.6   4.6  33992  286.73 0855.44
2009/04/23 08:10:47.4      78   -307    106    317    335 165.7  18.5  33992  286.73 0855.44
2009/04/23 08:10:47.5      82   -222    -13    237    238 159.7  -3.3  33990  286.68 0855.44
2009/04/23 08:10:47.6      60   -199     85    209    225 163.1  23.1  33976  286.47 0855.44
2009/04/23 08:10:47.7      70   -207    122    219    250 161.3  31.4  33994  286.75 0855.44
2009/04/23 08:10:47.8      40   -120     83    127    151 161.3  35.6  33992  286.74 0855.44
2009/04/23 08:10:47.9       0    -49     69     50     85 179.1  61.1  33994  286.76 0855.44
2009/04/23 08:10:48.0      15    -21    123     26    125 143.9  89.0  33992  286.73 0855.44
2009/04/23 08:10:48.1     163    -23    138    165    215  98.1  43.8  33992  286.73 0855.43
2009/04/23 08:10:48.2     110    -15     95    112    146  98.0  44.3  33990  286.69 0855.43
2009/04/23 08:10:48.3      -2    -48     57     49     75 182.7  55.4  33994  286.78 0855.43
2009/04/23 08:10:48.4     -30    -17     52     35     62 239.3  62.6  33996  286.79 0855.43
2009/04/23 08:10:48.5       2      0     37      3     37  90.0  90.0  33996  286.79 0855.43
2009/04/23 08:10:48.6      14     47     61     50     78  16.9  56.4  33996  286.79 0855.43
2009/04/23 08:10:48.7     103     20     22    105    108  79.0  12.2  33988  286.67 0855.43
2009/04/23 08:10:48.8     202     28     82    204    219  82.1  23.1  33994  286.78 0855.43
2009/04/23 08:10:48.9     227     91    146    245    285  68.2  33.5  33994  286.77 0855.43
2009/04/23 08:10:49.0     244     41    147    248    288  80.4  33.5  33994  286.75 0855.43
2009/04/23 08:10:49.1      72    -14    123     74    143 101.5  66.2  33992  286.74 0855.43
2009/04/23 08:10:49.2     162     53    140    171    221  71.8  43.7  33994  286.78 0855.43
2009/04/23 08:10:49.3      56      9    108     57    122  80.3  70.4  33992  286.73 0855.43
2009/04/23 08:10:49.4     213     -3    151    214    261  90.9  38.6  33994  286.75 0855.43
2009/04/23 08:10:49.5     217    -30     93    220    238  98.0  24.1  34004  286.94 0855.43
2009/04/23 08:10:49.6     251     14    166    252    301  86.7  36.5  33990  286.68 0855.43
2009/04/23 08:10:49.7      90     18    117     92    148  78.6  57.9  33992  286.73 0855.43
2009/04/23 08:10:49.8     -43    -27    155     52    163 237.6  81.0  34006  286.96 0855.43
2009/04/23 08:10:49.9       0    -31    160     32    163 180.9  89.4  33994  286.76 0855.43
2009/04/23 08:10:50.0     136    -31    206    140    249 103.2  62.6  33994  286.78 0855.43
2009/04/23 08:10:50.1     247    -31    213    249    327  97.2  44.8  33990  286.68 0855.42
2009/04/23 08:10:50.2     378    114     79    395    403  73.2  11.3  33990  286.71 0855.42
2009/04/23 08:10:50.3     414    136    185    436    473  71.8  24.5  33992  286.72 0855.42
2009/04/23 08:10:50.4     374     -7    209    375    429  91.2  31.6  33990  286.70 0855.42
2009/04/23 08:10:50.5     346   -110    194    364    412 107.7  30.3  33994  286.75 0855.42
2009/04/23 08:10:50.6     316    -64    221    323    391 101.5  37.7  33990  286.69 0855.42
2009/04/23 08:10:50.7     253   -215    230    333    404 130.4  37.9  33990  286.69 0855.42
2009/04/23 08:10:50.8     316   -219    180    385    425 124.8  27.1  33994  286.76 0855.42
2009/04/23 08:10:50.9     261   -257    193    367    414 134.6  30.2  33996  286.80 0855.42
2009/04/23 08:10:51.0     262   -193    208    326    386 126.4  35.6  33996  286.81 0855.42
2009/04/23 08:10:51.1     325   -188    214    376    432 120.0  32.3  33998  286.84 0855.42
2009/04/23 08:10:51.2     318   -151    203    353    407 115.4  32.6  33998  286.83 0855.42
2009/04/23 08:10:51.3     384   -212    214    439    488 118.9  27.8  34000  286.87 0855.42
2009/04/23 08:10:51.4     363   -231    300    431    525 122.5  38.1  34000  286.87 0855.42
2009/04/23 08:10:51.5     358   -213    312    417    520 120.8  40.6  34000  286.88 0855.42
2009/04/23 08:10:51.6     445   -272    254    522    580 121.5  27.8  33994  286.78 0855.42
2009/04/23 08:10:51.7     340   -243    214    419    470 125.6  29.2  33996  286.79 0855.42
2009/04/23 08:10:51.8     444   -245    227    508    556 118.9  25.8  33994  286.78 0855.42
2009/04/23 08:10:51.9     406   -220    161    463    491 118.5  19.2  33994  286.77 0855.42
2009/04/23 08:10:52.0     350   -238     52    424    428 124.3   7.1  33996  286.81 0855.42
2009/04/23 08:10:52.1     328   -183     73    376    384 119.2  11.0  33996  286.81 0855.40
2009/04/23 08:10:52.2     235   -220     48    322    326 133.1   8.5  33996  286.80 0855.40
2009/04/23 08:10:52.3     294   -242    -29    382    384 129.5  -4.5  33994  286.75 0855.40
2009/04/23 08:10:52.4     222   -236     69    325    333 136.8  12.0  33994  286.76 0855.40
2009/04/23 08:10:52.5     184   -274     65    331    338 146.2  11.1  33994  286.78 0855.40
2009/04/23 08:10:52.6     150   -215     75    263    274 145.0  16.0  33998  286.82 0855.40
2009/04/23 08:10:52.7     225   -204     94    304    319 132.2  17.3  33994  286.75 0855.40
2009/04/23 08:10:52.8     144   -185     28    235    237 142.2   6.9  33996  286.79 0855.40
2009/04/23 08:10:52.9     153   -204     55    256    262 143.1  12.2  33998  286.82 0855.40
2009/04/23 08:10:53.0     158   -181     -6    241    242 139.0  -1.6  33994  286.75 0855.40
2009/04/23 08:10:53.1     131   -131     96    186    209 134.9  29.3  33992  286.74 0855.40
2009/04/23 08:10:53.2     144   -129     61    194    204 131.8  17.7  33996  286.79 0855.40
2009/04/23 08:10:53.3     195    -60    -25    205    207 107.3  -7.2  33990  286.71 0855.40
2009/04/23 08:10:53.4      51    -67    110     85    139 142.6  58.5  33996  286.81 0855.40
2009/04/23 08:10:53.5      50    -44     83     67    106 131.3  56.4  33998  286.83 0855.40
2009/04/23 08:10:53.6      46    -29     18     55     58 122.5  18.4  33996  286.81 0855.40
2009/04/23 08:10:53.7      93    -50     -5    106    107 118.4  -3.1  33996  286.79 0855.40
2009/04/23 08:10:53.8     177    -70    -14    191    192 111.7  -4.4  33998  286.84 0855.40
2009/04/23 08:10:53.9     173   -160    -56    236    243 132.7 -13.4  33996  286.80 0855.40
2009/04/23 08:10:54.0      53   -280     14    286    287 169.3   2.9  33994  286.75 0855.40
2009/04/23 08:10:54.1      52   -333     40    338    341 171.0   6.9  33996  286.81 0855.41
2009/04/23 08:10:54.2     108   -398     99    413    425 164.8  13.6  33998  286.82 0855.41
2009/04/23 08:10:54.3      92   -372    119    384    403 166.1  17.2  33994  286.78 0855.41
2009/04/23 08:10:54.4     160   -331     81    368    377 154.1  12.5  33988  286.66 0855.41
2009/04/23 08:10:54.5      80   -298     15    309    310 164.9   2.8  33998  286.84 0855.41
2009/04/23 08:10:54.6     -12   -357     51    358    362 182.0   8.2  33994  286.78 0855.41
2009/04/23 08:10:54.7     116   -271    115    295    316 156.8  22.4  33994  286.77 0855.41
2009/04/23 08:10:54.8     158   -233    136    282    313 145.7  27.8  33996  286.79 0855.41
2009/04/23 08:10:54.9     183   -235     81    298    309 142.1  15.3  33994  286.77 0855.41
2009/04/23 08:10:55.0     138   -230     78    269    281 149.0  16.3  33992  286.72 0855.41
2009/04/23 08:10:55.1      72   -199     18    212    213 160.0   5.0  33996  286.81 0855.41
2009/04/23 08:10:55.2      62   -183    -17    194    195 161.1  -5.2  33996  286.79 0855.41
2009/04/23 08:10:55.3      16   -255    -70    256    266 176.4 -15.4  33996  286.79 0855.41
2009/04/23 08:10:55.4     -66   -215    -70    226    236 197.2 -22.1  33996  286.80 0855.41
2009/04/23 08:10:55.5     -82   -265   -112    278    299 197.2 -27.5  33996  286.80 0855.41
2009/04/23 08:10:55.6     137   -169     44    218    223 141.0  11.6  33988  286.67 0855.41
2009/04/23 08:10:55.7      90   -177    -52    199    206 152.9 -14.7  33996  286.79 0855.41
2009/04/23 08:10:55.8      89   -208    -69    227    237 156.8 -21.7  33998  286.82 0855.41
2009/04/23 08:10:55.9      47   -227    -79    232    246 168.2 -18.9  33996  286.80 0855.41
2009/04/23 08:10:56.0      37   -266    -95    269    286 171.9 -19.6  33994  286.77 0855.41
2009/04/23 08:10:56.1       8   -252    -49    253    258 178.0 -11.1  33986  286.63 0855.40
2009/04/23 08:10:56.2      43   -286    -58    290    296 171.3 -11.3  33996  286.79 0855.40
2009/04/23 08:10:56.3      76   -345    -19    354    355 167.5  -3.2  33992  286.73 0855.40
2009/04/23 08:10:56.4     -73   -269     56    279    285 195.2  11.4  33988  286.67 0855.40
2009/04/23 08:10:56.5    -227   -310     -3    385    386 216.3  -0.5  33990  286.68 0855.40
2009/04/23 08:10:56.6    -215   -244    -99    326    340 221.4 -21.9  33986  286.63 0855.40
2009/04/23 08:10:56.7    -230   -239     53    332    337 223.9   9.2  33986  286.63 0855.40
2009/04/23 08:10:56.8    -175   -276    116    327    348 212.4  19.6  33992  286.73 0855.40
2009/04/23 08:10:56.9     -56   -329    157    334    369 189.8  27.1  33994  286.75 0855.40
2009/04/23 08:10:57.0     -14   -311    133    312    339 182.7  24.5  33990  286.69 0855.40
2009/04/23 08:10:57.1     -38   -305    108    308    327 187.1  19.3  33994  286.77 0855.40
2009/04/23 08:10:57.2      42   -364    163    367    401 173.3  25.6  33994  286.78 0855.40
2009/04/23 08:10:57.3     152   -378    110    408    423 158.1  15.2  33998  286.82 0855.40
2009/04/23 08:10:57.4     155   -356     69    389    396 156.4  10.1  33994  286.76 0855.40
2009/04/23 08:10:57.5     185   -398     50    439    442 155.1   6.6  33998  286.84 0855.40
2009/04/23 08:10:57.6     127   -444     70    462    468 164.0   8.7  34000  286.85 0855.40
2009/04/23 08:10:57.7      76   -423     44    430    433 169.8   5.9  34000  286.86 0855.40
2009/04/23 08:10:57.8      59   -397     78    402    410 171.5  11.0  34000  286.87 0855.40
2009/04/23 08:10:57.9      39   -374     93    377    389 174.0  13.9  34000  286.86 0855.40
2009/04/23 08:10:58.0      45   -329      2    333    334 172.2   0.5  33996  286.80 0855.40
2009/04/23 08:10:58.2      25   -370    -72    371    378 176.0 -11.0  33990  286.71 0855.41
2009/04/23 08:10:58.2      68   -339    -10    346    347 168.5  -1.7  33996  286.80 0855.41
2009/04/23 08:10:58.4      30   -400     93    402    413 175.6  13.1  33994  286.77 0855.41
2009/04/23 08:10:58.5      85   -411     69    420    426 168.2   9.4  33994  286.77 0855.41
2009/04/23 08:10:58.6     -27   -423    -57    424    428 183.7  -7.7  33994  286.76 0855.41
2009/04/23 08:10:58.7     -64   -375    -51    381    385 189.7  -7.7  33994  286.75 0855.41
2009/04/23 08:10:58.8     -96   -329    -40    343    346 196.4  -6.8  33996  286.80 0855.41
2009/04/23 08:10:58.9    -122   -363    -51    384    388 198.6  -7.7  33994  286.75 0855.41
2009/04/23 08:10:59.0    -157   -394   -134    425    446 201.7 -17.6  33996  286.81 0855.41
2009/04/23 08:10:59.1    -103   -388   -118    402    418 194.9 -21.2  33996  286.81 0855.41
2009/04/23 08:10:59.2     -74   -356   -103    364    379 191.8 -15.8  33996  286.81 0855.41
2009/04/23 08:10:59.3     -25   -368    -94    369    381 183.9 -14.4  33994  286.75 0855.41
2009/04/23 08:10:59.4     -79   -379    -49    388    392 191.9  -7.3  33994  286.78 0855.41
2009/04/23 08:10:59.5     -44   -367    -60    370    376 186.9  -9.3  33996  286.80 0855.41
2009/04/23 08:10:59.6      17   -338   -100    339    353 177.1 -21.2  33996  286.81 0855.41
2009/04/23 08:10:59.7      17   -375   -116    376    394 177.3 -17.2  33994  286.75 0855.41
2009/04/23 08:10:59.8      65   -361   -120    367    387 169.7 -18.1  33992  286.73 0855.41
2009/04/23 08:10:59.9      76   -361   -118    370    389 168.0 -17.7  33988  286.66 0855.41
2009/04/23 08:11:00.0      58   -362    -95    367    380 170.9 -14.6  33996  286.81 0855.41
2009/04/23 08:11:00.1      50   -358   -114    362    380 172.0 -17.5  33994  286.78 0855.41
2009/04/23 08:11:00.2       3   -341   -110    342    359 179.4 -23.0  33994  286.75 0855.43
2009/04/23 08:11:00.3      -4   -331   -140    332    360 180.8 -28.6  34000  286.86 0855.43
2009/04/23 08:11:00.4      32   -348   -130    350    373 174.7 -25.8  34002  286.90 0855.43
2009/04/23 08:11:00.5     106   -391   -192    406    449 164.9 -31.5  33996  286.79 0855.43
2009/04/23 08:11:00.6      77   -331   -118    340    359 166.9 -24.3  33996  286.80 0855.43
2009/04/23 08:11:00.7      33   -258   -152    261    302 172.7 -37.5  33998  286.82 0855.43
2009/04/23 08:11:00.8      39   -205   -174    209    271 169.1 -48.2  33996  286.80 0855.43
2009/04/23 08:11:00.9      54   -248   -112    254    277 167.6 -29.6  33998  286.84 0855.43
2009/04/23 08:11:01.0      -7   -156   -116    157    195 182.7 -44.3  33996  286.81 0855.43
2009/04/23 08:11:01.1      26   -132   -136    135    191 168.5 -54.3  34000  286.86 0855.43
2009/04/23 08:11:01.2      25   -127   -126    130    181 168.9 -53.6  33998  286.84 0855.43
2009/04/23 08:11:01.3      37   -106    -97    113    148 160.4 -49.2  34000  286.88 0855.43
2009/04/23 08:11:01.4     -62    -54   -104     83    133 229.1 -61.3  34000  286.86 0855.43
2009/04/23 08:11:01.5    -110    -37    -81    117    142 251.4 -42.4  34000  286.86 0855.43
2009/04/23 08:11:01.6     -74    -76    -78    107    132 224.1 -44.1  34000  286.88 0855.43
2009/04/23 08:11:01.7     -82    -51    -75     97    122 238.0 -46.1  34000  286.88 0855.43
2009/04/23 08:11:01.8     -95    -44    -93    105    140 245.2 -50.3  34000  286.86 0855.43
2009/04/23 08:11:01.9     -33    -83    -67     90    112 201.8 -44.5  34002  286.89 0855.43
2009/04/23 08:11:02.0      10    -82    -61     83    103 172.4 -44.5  34002  286.89 0855.43
2009/04/23 08:11:02.1       3   -112    -66    113    130 178.2 -37.8  34002  286.89 0855.43
2009/04/23 08:11:02.2      51   -120    -78    131    152 156.8 -37.9  34002  286.91 0855.43
2009/04/23 08:11:02.3      43   -128    -69    136    152 161.3 -33.1  34002  286.89 0855.43
2009/04/23 08:11:02.4      92   -126    -52    157    165 143.9 -23.8  33998  286.83 0855.43
2009/04/23 08:11:02.5      99   -133    -54    167    176 143.3 -17.9  34000  286.86 0855.43
2009/04/23 08:11:02.6      84   -131   -106    156    188 147.4 -42.0  33996  286.81 0855.43
2009/04/23 08:11:02.7      72   -132    -78    151    169 151.1 -33.7  33998  286.83 0855.43
2009/04/23 08:11:02.8     -11    -46    -80     48     93 194.3 -70.1  34000  286.86 0855.43
2009/04/23 08:11:02.9       3    -97    -91     98    133 177.8 -52.3  34002  286.91 0855.43
2009/04/23 08:11:03.0      35   -113   -124    119    171 162.6 -55.6  34000  286.86 0855.43
2009/04/23 08:11:03.1     -14    -22   -105     27    108 212.6 -89.8  33998  286.84 0855.43
2009/04/23 08:11:03.2      22    -65   -124     69    141 160.8 -73.2  34002  286.89 0855.43
2009/04/23 08:11:03.3      19    -78   -107     81    134 165.7 -63.4  34000  286.88 0855.43
2009/04/23 08:11:03.4      73   -122   -149    143    206 149.3 -55.6  33998  286.84 0855.43
2009/04/23 08:11:03.5     116   -171    -88    207    224 145.7 -29.0  33996  286.79 0855.43
2009/04/23 08:11:03.6     147   -201    -95    250    267 143.9 -26.4  33996  286.79 0855.43
2009/04/23 08:11:03.7     157   -204    -78    258    269 142.4 -21.8  33994  286.77 0855.43
2009/04/23 08:11:03.8      98   -196    -53    220    227 153.3 -13.7  33994  286.78 0855.43
2009/04/23 08:11:03.9     126   -199    -52    236    242 147.5 -12.6  33994  286.77 0855.43
2009/04/23 08:11:04.0     144   -198    -49    246    251 143.9 -11.3  33994  286.77 0855.43
2009/04/23 08:11:04.1     181   -154    -49    239    245 130.4 -11.6  33998  286.82 0855.43
2009/04/23 08:11:04.2     150   -104    -25    183    185 124.9  -8.0  33994  286.76 0855.45
2009/04/23 08:11:04.3     121   -103    -39    159    164 130.4 -13.9  33998  286.83 0855.45
2009/04/23 08:11:04.4     122    -71    -70    142    158 120.2 -32.6  33998  286.83 0855.45
2009/04/23 08:11:04.5     115    -95    -92    150    175 129.5 -39.4  33998  286.84 0855.45
2009/04/23 08:11:04.6      86   -124   -145    152    210 145.3 -53.1  34000  286.86 0855.45
2009/04/23 08:11:04.7      61    -86   -114    106    155 144.8 -56.6  33996  286.81 0855.45
2009/04/23 08:11:04.8     106    -93    -88    142    167 131.4 -39.4  34000  286.86 0855.45
2009/04/23 08:11:04.9     100   -136    -67    169    181 143.7 -27.4  33996  286.79 0855.45
2009/04/23 08:11:05.0     114   -153    -72    191    204 143.3 -25.7  33994  286.78 0855.45
2009/04/23 08:11:05.1     103   -133    -54    169    178 142.2 -17.9  33994  286.78 0855.45
2009/04/23 08:11:05.2      97   -117    -46    153    159 140.3 -21.7  33996  286.79 0855.46
2009/04/23 08:11:05.3      82   -115    -49    142    150 144.4 -23.3  33994  286.78 0855.46
2009/04/23 08:11:05.4      58   -113    -46    128    137 152.9 -19.7  33996  286.81 0855.46
2009/04/23 08:11:05.5      22   -111    -38    114    120 168.5 -23.6  33996  286.81 0855.46
2009/04/23 08:11:05.6      14    -93     34     95    100 171.1  20.0  33996  286.79 0855.46
2009/04/23 08:11:05.7      52   -139     51    149    158 159.5  18.9  33998  286.83 0855.46
2009/04/23 08:11:05.8      53   -116     57    128    140 155.5  25.2  33994  286.78 0855.46
2009/04/23 08:11:05.9      39   -112     46    119    127 160.4  22.0  33994  286.78 0855.46
2009/04/23 08:11:06.0      44   -103     22    113    116 156.8  11.1  33996  286.79 0855.46
2009/04/23 08:11:06.1      62   -110     15    127    128 150.6   7.1  33994  286.78 0855.46
2009/04/23 08:11:06.2     115    -83     31    142    146 125.9  12.6  33992  286.74 0855.46
2009/04/23 08:11:06.3     107    -89     17    140    142 129.6   7.1  33998  286.83 0855.46
2009/04/23 08:11:06.4     105    -81     13    133    134 127.8   5.9  33998  286.83 0855.46
2009/04/23 08:11:06.5      75   -103      6    128    129 144.0   2.9  33996  286.81 0855.46
2009/04/23 08:11:06.6      61   -119    -17    134    136 152.8  -7.3  33996  286.79 0855.46
2009/04/23 08:11:06.7      39   -106     -9    114    115 159.5  -4.6  33998  286.83 0855.46
2009/04/23 08:11:06.8      13   -101     10    102    103 172.4   5.9  33996  286.81 0855.46
2009/04/23 08:11:06.9      20    -66     53     70     87 163.1  41.2  33998  286.83 0855.46
2009/04/23 08:11:07.0      38    -74     50     84     97 152.4  34.4  33998  286.84 0855.46
2009/04/23 08:11:07.1      28    -55     32     62     69 152.8  29.3  33996  286.79 0855.46
2009/04/23 08:11:07.2      54    -37     45     66     79 125.1  37.6  33996  286.81 0855.47
2009/04/23 08:11:07.3      56    -27     51     63     81 116.2  43.3  33998  286.84 0855.47
2009/04/23 08:11:07.4      40     -8     53     41     67 101.5  58.5  33998  286.83 0855.47
2009/04/23 08:11:07.5      39      7     51     40     64  79.4  58.5  33996  286.81 0855.47
2009/04/23 08:11:07.6      32     13     43     35     55  66.5  56.4  34000  286.88 0855.47
2009/04/23 08:11:07.7      12     39     39     41     56  17.8  50.0  33998  286.83 0855.47
2009/04/23 08:11:07.8       2     -1     30      3     30 122.4  90.0  33998  286.84 0855.47
2009/04/23 08:11:07.9      70     -2     68     71     98  91.7  49.4  33998  286.83 0855.47
2009/04/23 08:11:08.0      85     15     77     87    116  79.9  46.4  33996  286.79 0855.47
2009/04/23 08:11:08.1      62     20     55     66     85  71.8  44.3  33996  286.81 0855.47
2009/04/23 08:11:08.2      92      3     65     93    113  87.9  38.0  33998  286.83 0855.47
2009/04/23 08:11:08.3      96      7     93     97    134  85.7  49.4  33998  286.83 0855.47
2009/04/23 08:11:08.4     104     -1     88    105    137  90.8  43.8  34000  286.86 0855.47
2009/04/23 08:11:08.5     104      7    101    105    145  85.7  49.0  33998  286.83 0855.47
2009/04/23 08:11:08.6      62     15    102     64    120  75.8  64.7  33998  286.83 0855.47
2009/04/23 08:11:08.7      32    -20     73     38     82 122.5  70.8  33998  286.84 0855.47
2009/04/23 08:11:08.8      67    -20     76     70    103 106.8  52.2  33998  286.84 0855.47
2009/04/23 08:11:08.9      80    -23     58     84    102 105.9  38.6  34006  286.96 0855.47
2009/04/23 08:11:09.0      22     10     57     25     62  64.7  75.0  34004  286.94 0855.47
2009/04/23 08:11:09.1      31     12     62     34     70  68.3  68.8  34012  287.06 0855.47
2009/04/23 08:11:09.2      34     22     57     41     70  56.7  60.5  34028  287.33 0855.48
2009/04/23 08:11:09.3      19     34     53     40     66  29.0  59.4  34028  287.35 0855.48
2009/04/23 08:11:09.4      10     16     51     19     54  32.6  80.2  34036  287.49 0855.48
2009/04/23 08:11:09.5      -6     61     53     62     81 353.8  45.4  34048  287.69 0855.48
2009/04/23 08:11:09.6      10     52     71     54     89  11.6  59.0  34044  287.62 0855.48
2009/04/23 08:11:09.7       9     64     57     65     86   8.0  46.4  34038  287.52 0855.48
2009/04/23 08:11:09.8       1     75     72     76    104   0.9  49.0  34042  287.59 0855.48
2009/04/23 08:11:09.9      -8    121    101    122    158 356.0  44.1  34078  288.18 0855.48
2009/04/23 08:11:10.0      43     68    105     81    132  32.6  58.4  34090  288.38 0855.48
2009/04/23 08:11:10.1     134     66     97    150    178  63.8  35.7  34072  288.09 0855.48
2009/04/23 08:11:10.2     162     56    111    172    204  70.7  35.6  34070  288.06 0855.48
2009/04/23 08:11:10.3     199     60    115    209    238  73.1  31.4  34044  287.62 0855.48
2009/04/23 08:11:10.4     164     77    138    182    228  64.9  41.2  34048  287.69 0855.48
2009/04/23 08:11:10.5     144     52    181    154    237  70.0  55.4  34038  287.50 0855.48
2009/04/23 08:11:10.6     173   -185     88    254    270 136.8  19.2  34016  287.12 0855.48
2009/04/23 08:11:10.7     193   -159     89    251    266 129.5  20.0  34008  286.99 0855.48
2009/04/23 08:11:10.8     234      8     45    235    240  87.9  10.8  34010  287.04 0855.48
2009/04/23 08:11:10.9     195    -46     47    201    207 103.3  13.2  33996  286.79 0855.48
2009/04/23 08:11:11.0     267   -126     51    296    301 115.2   9.9  33998  286.82 0855.48
2009/04/23 08:11:11.1     281   -179     95    334    348 122.5  15.9  33996  286.81 0855.48
2009/04/23 08:11:11.2     187   -126     90    226    243 124.1  22.8  34000  286.87 0855.48
2009/04/23 08:11:11.3     257   -107    175    279    329 112.7  35.3  34016  287.12 0855.48
2009/04/23 08:11:11.4     203   -104    131    229    263 117.1  32.4  33998  286.84 0855.48
2009/04/23 08:11:11.5     153   -154     77    218    232 135.2  19.4  33994  286.76 0855.48
2009/04/23 08:11:11.6     102   -145     13    178    179 144.8   4.4  33996  286.79 0855.48
2009/04/23 08:11:11.7      30   -177     90    180    201 170.4  28.7  33994  286.76 0855.48
2009/04/23 08:11:11.8     101   -155    114    186    218 147.0  34.4  33994  286.76 0855.48
2009/04/23 08:11:11.9      83   -144     80    167    185 150.1  27.3  33998  286.83 0855.48
2009/04/23 08:11:12.0      81   -119     45    145    152 145.7  17.4  33994  286.78 0855.48
2009/04/23 08:11:12.1      23    -99     64    102    120 166.6  35.5  33994  286.78 0855.48
2009/04/23 08:11:12.2       8    -94     55     95    109 175.1  32.9  33994  286.78 0855.48
2009/04/23 08:11:12.3     -12    -73     60     75     96 189.8  43.3  33994  286.76 0855.48
2009/04/23 08:11:12.4     -26    -87     79     91    120 196.9  45.8  33992  286.74 0855.48
2009/04/23 08:11:12.5      15    -46     95     49    106 161.5  70.4  33992  286.73 0855.48
2009/04/23 08:11:12.6      35    -32     82     48     95 133.1  66.2  33992  286.74 0855.48
2009/04/23 08:11:12.7     -67    -38     40     78     87 240.2  29.3  33998  286.83 0855.48
2009/04/23 08:11:12.8     -79     30     74     85    112 290.8  45.4  33998  286.83 0855.48
2009/04/23 08:11:12.9     -23    101     35    104    110 347.1  18.9  34010  287.05 0855.48
2009/04/23 08:11:13.0       8     86     66     87    109   5.3  41.2  34022  287.25 0855.48
2009/04/23 08:11:13.1      63     93     66    113    130  34.3  33.4  34044  287.62 0855.48
2009/04/23 08:11:13.2      82     83     67    118    135  44.7  32.4  34036  287.49 0855.49
2009/04/23 08:11:13.3      78    123     30    147    151  32.5  11.6  34038  287.52 0855.49
2009/04/23 08:11:13.4      52     39     24     65     69  53.1  20.0  34028  287.33 0855.49
2009/04/23 08:11:13.5     -63     56     29     85     90 311.3  18.9  34030  287.37 0855.49
2009/04/23 08:11:13.6     -73    115     96    137    167 327.5  38.6  34050  287.70 0855.49
2009/04/23 08:11:13.7     -14    223    123    224    255 356.2  31.3  34100  288.56 0855.49
2009/04/23 08:11:13.8      24    191    136    193    236   7.3  38.6  34076  288.16 0855.49
2009/04/23 08:11:13.9       2    142    156    143    211   0.9  52.7  34080  288.21 0855.49
2009/04/23 08:11:14.0     -56    181    136    190    233 342.8  39.3  34082  288.25 0855.49
2009/04/23 08:11:14.1    -109    168     92    201    221 327.0  26.4  34054  287.77 0855.49
2009/04/23 08:11:14.2     -89    215     50    233    239 337.5  12.1  34024  287.26 0855.49
2009/04/23 08:11:14.3     -66    200    106    211    236 341.7  28.5  34022  287.25 0855.49
2009/04/23 08:11:14.4     -23    204    101    206    229 353.5  27.8  34052  287.76 0855.49
2009/04/23 08:11:14.5       5    207    101    208    231   1.6  27.3  34110  288.74 0855.49
2009/04/23 08:11:14.6     -28    225     60    227    235 352.7  15.0  34112  288.75 0855.49
2009/04/23 08:11:14.7     -67    230     -5    240    241 343.7  -1.3  34044  287.60 0855.49
2009/04/23 08:11:14.8     -70    241     -9    252    253 343.7  -2.2  34066  287.99 0855.49
2009/04/23 08:11:14.9     -70    204    -29    216    218 341.1  -7.7  34064  287.94 0855.49
2009/04/23 08:11:15.0     -46    178    -23    185    187 345.3  -7.3  34066  287.99 0855.49
2009/04/23 08:11:15.1     -81    112    -40    139    144 323.9 -21.2  34062  287.91 0855.49
2009/04/23 08:11:15.2    -106     66    -24    125    128 302.0 -10.9  34068  288.01 0855.49
2009/04/23 08:11:15.4    -155     72    -48    172    179 295.1 -15.8  34052  287.76 0855.49
2009/04/23 08:11:15.4    -164     61    -49    176    182 290.6 -20.2  34058  287.84 0855.49
2009/04/23 08:11:15.5    -143     56    -52    154    163 291.7 -18.9  34054  287.79 0855.49
2009/04/23 08:11:15.6    -146      8   -127    147    194 273.5 -49.5  33990  286.71 0855.49
2009/04/23 08:11:15.7    -101    -24   -147    104    180 256.3 -65.7  33990  286.71 0855.49
2009/04/23 08:11:15.8       7     10    -93     13     93  36.1 -90.0  33996  286.81 0855.49
2009/04/23 08:11:15.9      31     26    -10     41     43  50.5 -14.5  33994  286.78 0855.49
2009/04/23 08:11:16.0      24     47     43     53     68  27.2  43.7  33994  286.78 0855.49
2009/04/23 08:11:16.1      26     56    114     62    129  25.4  68.9  33996  286.81 0855.49
2009/04/23 08:11:16.2      31     39     64     50     81  38.7  57.9  34002  286.89 0855.49
2009/04/23 08:11:16.3       5     43     68     44     80   7.1  64.1  34008  287.01 0855.49
2009/04/23 08:11:16.4       3     48     77     49     91   4.4  64.7  34004  286.94 0855.49
2009/04/23 08:11:16.5     -25    114    123    117    169 347.5  51.2  34030  287.37 0855.49
2009/04/23 08:11:16.6     -27    143    122    146    190 349.3  43.8  34036  287.47 0855.49
2009/04/23 08:11:16.7     -43    190     89    195    214 347.1  26.4  34042  287.59 0855.49
2009/04/23 08:11:16.8     -39    187     82    192    208 348.2  24.6  34046  287.64 0855.49
2009/04/23 08:11:16.9     -65    178     62    190    200 340.0  18.1  34052  287.76 0855.49
2009/04/23 08:11:17.0     -21    186     32    188    191 353.3   9.9  34052  287.76 0855.49
2009/04/23 08:11:17.1     -13    178     59    179    189 355.5  18.4  34052  287.76 0855.49
2009/04/23 08:11:17.2      10    231     89    232    248   2.5  22.0  34050  287.70 0855.48
2009/04/23 08:11:17.3      18    215     81    216    230   4.9  21.0  34044  287.62 0855.48
2009/04/23 08:11:17.4     -19    220     68    221    232 354.9  17.1  34046  287.65 0855.48
2009/04/23 08:11:17.5     -79    247     48    260    265 342.2  10.6  34042  287.56 0855.48
2009/04/23 08:11:17.6    -206    158    -37    260    263 307.5  -8.2  34028  287.33 0855.48
2009/04/23 08:11:17.7    -356    106    -74    372    380 286.6 -11.3  34014  287.10 0855.48
2009/04/23 08:11:17.8    -265     44    -59    269    276 279.5 -12.4  34008  286.99 0855.48
2009/04/23 08:11:18.0    -289      4     68    290    298 270.8  13.2  34018  287.17 0855.48
2009/04/23 08:11:18.0    -362   -113    -36    380    382 252.6  -5.5  34016  287.13 0855.48
2009/04/23 08:11:18.1    -314     29      4    316    317 275.3   0.9  34010  287.02 0855.48
2009/04/23 08:11:18.2    -220    -95     51    240    246 246.5  12.2  34012  287.07 0855.48
2009/04/23 08:11:18.3    -169   -149    -39    226    230 228.7  -9.8  34016  287.13 0855.48
2009/04/23 08:11:18.4     -77   -231     88    244    259 198.5  20.7  34026  287.31 0855.48
2009/04/23 08:11:18.5     -83   -226    107    242    264 200.3  25.3  34034  287.44 0855.48
2009/04/23 08:11:18.6     -81   -202     42    218    223 201.8  11.0  34040  287.54 0855.48
2009/04/23 08:11:18.7    -115   -174     -4    209    210 213.6  -1.3  34034  287.43 0855.48
2009/04/23 08:11:18.8     -64   -205     65    215    225 197.4  16.8  34040  287.54 0855.48
2009/04/23 08:11:18.9    -151   -115    102    190    215 232.7  30.6  34024  287.27 0855.48
2009/04/23 08:11:19.0    -129    -72    -29    148    151 240.7 -11.3  34026  287.32 0855.48
2009/04/23 08:11:19.1     -12    -41     14     43     46 196.9  18.9  34024  287.28 0855.48
2009/04/23 08:11:19.2      -9     19    122     22    123 334.6  90.0  34022  287.25 0855.48
2009/04/23 08:11:19.3    -223     31    144    226    267 278.0  35.6  34002  286.90 0855.48
2009/04/23 08:11:19.4    -171    -19    169    173    241 263.4  49.4  34006  286.96 0855.48
2009/04/23 08:11:19.5    -292   -181    142    344    372 238.2  23.7  34014  287.10 0855.48
2009/04/23 08:11:19.6    -177   -155    189    236    302 228.9  42.7  34010  287.04 0855.48
2009/04/23 08:11:19.7    -184    -62    158    195    250 251.4  43.5  34016  287.12 0855.48
2009/04/23 08:11:19.8    -134    -93    113    164    199 235.4  37.8  34012  287.06 0855.48
2009/04/23 08:11:19.9    -187   -128    147    227    270 235.6  35.6  34010  287.04 0855.48
2009/04/23 08:11:20.0    -221   -144    130    264    294 236.9  28.2  34010  287.02 0855.48
2009/04/23 08:11:20.1    -191   -121     37    227    231 237.5   9.3  34008  287.01 0855.48
2009/04/23 08:11:20.2    -151    -54    -12    161    162 250.1  -4.6  34010  287.03 0855.48
2009/04/23 08:11:20.3    -130     65    -35    146    151 296.6 -13.4  34012  287.06 0855.48
2009/04/23 08:11:20.4     -45    120    -71    129    147 339.5 -35.7  34010  287.05 0855.48
2009/04/23 08:11:20.5     -85    115    -41    144    149 323.5 -20.7  34008  287.01 0855.48
2009/04/23 08:11:20.6     -74    112    -41    135    142 326.6 -17.0  34008  287.00 0855.48
2009/04/23 08:11:20.7    -112    142     -7    182    183 321.7  -2.2  34008  287.00 0855.48
2009/04/23 08:11:20.8    -134    154    -47    205    211 319.0 -12.9  34008  287.01 0855.48
2009/04/23 08:11:20.9    -140    113    -66    181    192 308.9 -24.8  34008  287.00 0855.48
2009/04/23 08:11:21.0    -116    150    -65    190    200 322.2 -23.6  34010  287.05 0855.48
2009/04/23 08:11:21.1     -85    133    -61    158    169 327.4 -26.4  34010  287.05 0855.48
2009/04/23 08:11:21.2     -84    141    -49    165    173 329.3 -16.8  34010  287.05 0855.47
2009/04/23 08:11:21.3     -77    132    -42    154    160 329.7 -15.4  34008  287.01 0855.47
2009/04/23 08:11:21.4     -96    116    -19    151    153 320.4  -7.2  34008  287.01 0855.47
2009/04/23 08:11:21.5    -158    175    -58    236    244 317.9 -13.9  34006  286.97 0855.47
2009/04/23 08:11:21.6    -129    115    -81    174    191 311.8 -31.4  34002  286.91 0855.47
2009/04/23 08:11:21.7     -72     79    -57    108    122 317.7 -34.2  33994  286.76 0855.47
2009/04/23 08:11:21.8     -59    134     -3    147    148 336.3  -1.3  33988  286.67 0855.47
2009/04/23 08:11:21.9    -176    147     24    230    232 310.0   6.1  34000  286.88 0855.47
2009/04/23 08:11:22.0    -231    143     -5    272    273 301.8  -1.1  34004  286.94 0855.47
2009/04/23 08:11:22.1    -186    184    -72    262    272 314.7 -15.4  34008  286.99 0855.47
2009/04/23 08:11:22.2    -112    169    -61    204    212 326.4 -21.7  34008  287.00 0855.47
2009/04/23 08:11:22.3     -93    135     -2    165    166 325.5  -0.7  34008  287.01 0855.47
2009/04/23 08:11:22.4     -94    206    -64    227    236 335.3 -15.8  34010  287.04 0855.47
2009/04/23 08:11:22.5     -78    156    -20    175    177 333.3  -6.7  34006  286.98 0855.47
2009/04/23 08:11:22.6    -207    205     23    292    293 314.7   4.6  34010  287.04 0855.47
2009/04/23 08:11:22.8    -181    108    -97    212    233 300.9 -30.8  34006  286.98 0855.47
2009/04/23 08:11:22.8    -150     41   -106    156    188 285.5 -42.0  34008  287.00 0855.47
2009/04/23 08:11:22.9    -150     55    -55    160    170 290.2 -18.9  34008  287.00 0855.47
2009/04/23 08:11:23.0    -136     79     52    158    167 300.4  18.4  34008  287.01 0855.47
2009/04/23 08:11:23.1    -180     72     -8    194    195 291.8  -2.6  34008  287.00 0855.47
2009/04/23 08:11:23.2    -200      0     31    201    204 270.0   9.0  34002  286.91 0855.46
2009/04/23 08:11:23.3    -174      1     35    175    179 270.6  11.6  34002  286.89 0855.46
2009/04/23 08:11:23.4    -169     -3    -35    170    174 268.7 -11.9  34006  286.98 0855.46
2009/04/23 08:11:23.5    -152     -2    -41    153    159 269.1 -15.0  34008  287.01 0855.46
2009/04/23 08:11:23.6    -152     16      7    153    154 276.2   2.9  33998  286.84 0855.46
2009/04/23 08:11:23.7    -246     38    -30    249    251 278.8  -6.9  33996  286.80 0855.46
2009/04/23 08:11:23.8    -326    -12    -59    327    333 267.9 -10.4  33994  286.78 0855.46
2009/04/23 08:11:23.9    -347    -35    -96    349    363 264.2 -15.4  33996  286.81 0855.46
2009/04/23 08:11:24.0    -402     10    -97    403    415 271.5 -13.6  33998  286.84 0855.46
2009/04/23 08:11:24.1    -322     26    -95    324    338 274.7 -16.4  33998  286.83 0855.46
2009/04/23 08:11:24.2    -219    129    -60    255    263 300.6 -13.4  33998  286.84 0855.46
2009/04/23 08:11:24.3    -362     71   -113    369    385 281.1 -22.1  33998  286.83 0855.46
2009/04/23 08:11:24.4    -267     17    -86    268    281 273.7 -23.0  33998  286.82 0855.46
2009/04/23 08:11:24.5    -173    -14    -92    174    196 265.2 -34.5  33994  286.76 0855.46
2009/04/23 08:11:24.6    -169    -26    -29    171    174 261.2  -9.6  33994  286.78 0855.46
2009/04/23 08:11:24.7     -98     82     44    128    136 310.0  18.9  33996  286.79 0855.46
2009/04/23 08:11:24.8     -12   -104     38    105    111 187.1  20.0  34000  286.86 0855.46
2009/04/23 08:11:24.9     -16   -180    -74    181    195 185.1 -27.8  33994  286.78 0855.46
2009/04/23 08:11:25.0     -29   -105     43    110    118 195.6  22.5  33992  286.74 0855.46
2009/04/23 08:11:25.1      -8    -55     91     56    106 188.9  65.1  33996  286.79 0855.46
2009/04/23 08:11:25.2      33      0     49     34     59  90.0  61.5  33998  286.83 0855.47
2009/04/23 08:11:25.3       7     32     39     33     51  13.4  55.4  33996  286.79 0855.47
2009/04/23 08:11:25.4     -10     66     23     67     72 351.1  19.4  33994  286.78 0855.47
2009/04/23 08:11:25.5     -17     68     24     71     76 345.7  18.9  33996  286.79 0855.47
2009/04/23 08:11:25.6     -44     88     41     99    107 333.3  23.1  33994  286.78 0855.47
2009/04/23 08:11:25.7     -60     52     58     80     98 311.3  39.7  33996  286.79 0855.47
2009/04/23 08:11:25.8    -117    -15     62    118    133 262.5  29.8  33992  286.73 0855.47
2009/04/23 08:11:25.9     -42     83     60     94    111 333.3  35.6  33990  286.71 0855.47
2009/04/23 08:11:26.0     -85    114     14    143    144 323.5   5.9  33992  286.73 0855.47
2009/04/23 08:11:26.2    -124     71      3    144    145 299.8   1.2  33990  286.69 0855.47
2009/04/23 08:11:26.3    -103     59     46    119    127 299.8  22.0  33990  286.71 0855.46
2009/04/23 08:11:26.4    -106     24    -37    109    116 282.8 -18.7  33988  286.66 0855.46
2009/04/23 08:11:26.5    -160    -13    -44    161    168 265.0 -15.4  33988  286.67 0855.46
2009/04/23 08:11:26.6    -181     50    -73    188    201 285.5 -26.7  33994  286.76 0855.46
2009/04/23 08:11:26.7    -196    115    -63    228    237 300.4 -15.5  33990  286.70 0855.46
2009/04/23 08:11:26.8    -274    135    -90    306    318 296.2 -21.4  34004  286.92 0855.46
2009/04/23 08:11:26.9    -330    120    -27    352    354 290.1  -4.5  33992  286.73 0855.46
2009/04/23 08:11:27.0    -325    196    -58    380    385 301.2  -8.7  33992  286.73 0855.46
2009/04/23 08:11:27.1    -267    209    -75    340    349 308.0 -12.5  33990  286.69 0855.46
2009/04/23 08:11:27.2    -120    208    -15    241    242 330.1  -3.7  33990  286.70 0855.46
2009/04/23 08:11:27.3    -200    188     -1    275    276 313.2  -0.3  33988  286.67 0855.46
2009/04/23 08:11:27.4    -233    243    -14    337    338 316.2  -2.5  34000  286.85 0855.46
2009/04/23 08:11:27.5    -263    224    -46    346    350 310.4  -7.6  33996  286.81 0855.46
2009/04/23 08:11:27.6    -312    157    -60    350    356 296.8  -9.8  33994  286.78 0855.46
2009/04/23 08:11:27.7    -300    178    -56    349    354 300.7  -9.1  34016  287.12 0855.46
2009/04/23 08:11:27.8    -245    177    -90    303    316 305.9 -21.4  34004  286.92 0855.46
2009/04/23 08:11:27.9    -233    206    -99    312    328 311.4 -17.6  34006  286.95 0855.46
2009/04/23 08:11:28.0    -173    149    -95    229    247 310.9 -28.5  34002  286.90 0855.46
2009/04/23 08:11:28.1    -190    164     95    252    269 310.9  21.5  33998  286.82 0855.46
2009/04/23 08:11:28.2    -209     98     41    231    235 295.2  10.1  34000  286.85 0855.46
2009/04/23 08:11:28.3    -192    138    -23    237    239 305.9  -5.6  34000  286.87 0855.47
2009/04/23 08:11:28.4    -147    148    -16    209    210 315.2  -4.4  33996  286.79 0855.47
2009/04/23 08:11:28.5    -154    158     80    221    235 315.7  20.7  33994  286.78 0855.47
2009/04/23 08:11:28.6     141    254      9    291    292  29.0   1.8  34006  286.95 0855.47
2009/04/23 08:11:28.7      56    278     98    284    301  11.5  19.2  34002  286.90 0855.47
2009/04/23 08:11:28.8      53    198     78    205    219  15.1  21.7  34026  287.30 0855.47
2009/04/23 08:11:28.9      87    158    117    181    215  29.0  35.7  34004  286.94 0855.47
2009/04/23 08:11:29.0      91    167    169    191    255  28.5  46.2  34002  286.89 0855.47
2009/04/23 08:11:29.1     101    132    141    167    218  37.2  44.3  34004  286.93 0855.47
2009/04/23 08:11:29.2      51    191    143    198    244  15.1  39.3  34062  287.92 0855.47
2009/04/23 08:11:29.3      92    303    140    317    346  16.9  25.3  34094  288.47 0855.47
2009/04/23 08:11:29.4      46    381    166    384    418   7.0  25.0  34052  287.75 0855.47
2009/04/23 08:11:29.5      38    290    211    293    361   7.6  39.3  34042  287.57 0855.47
2009/04/23 08:11:29.6      65    340    182    347    391  10.8  30.0  34004  286.93 0855.47
2009/04/23 08:11:29.7      70    365    173    372    410  10.9  26.6  33994  286.76 0855.47
2009/04/23 08:11:29.8     112    364    171    382    418  17.2  25.8  33996  286.81 0855.47
2009/04/23 08:11:29.9     114    362    142    380    405  17.5  21.4  33990  286.71 0855.47
2009/04/23 08:11:30.0      96    326    139    341    368  16.5  23.4  33996  286.80 0855.47
2009/04/23 08:11:30.1     120    349    101    370    384  19.0  15.3  33996  286.81 0855.47
2009/04/23 08:11:30.2     145    292     39    327    330  26.5   6.8  34002  286.90 0855.47
2009/04/23 08:11:30.3     163    275     24    320    321  30.7   4.3  34010  287.02 0855.48
2009/04/23 08:11:30.4     219    232     54    320    325  43.3   9.7  34006  286.97 0855.48
2009/04/23 08:11:30.5     278    232      4    363    364  50.2   0.7  34034  287.45 0855.48
2009/04/23 08:11:30.6     291    177    -37    341    344  58.7  -6.2  34084  288.27 0855.48
2009/04/23 08:11:30.7     327     94   -103    341    356  73.9 -21.7  34054  287.79 0855.48
2009/04/23 08:11:30.8     489    208     67    532    537  66.9   7.2  34054  287.77 0855.48
2009/04/23 08:11:30.9     435     83    166    443    473  79.2  21.5  34040  287.55 0855.48
2009/04/23 08:11:31.0     272    151    -45    312    316  60.9  -8.2  34028  287.34 0855.48
2009/04/23 08:11:31.1     260    210     73    335    344  51.1  12.4  34012  287.08 0855.48
2009/04/23 08:11:31.2     135    315     55    343    348  23.3   9.2  34002  286.91 0855.48
2009/04/23 08:11:31.3     279    178     35    332    334  57.5   6.1  34014  287.10 0855.48
2009/04/23 08:11:31.4     414    163    -16    445    446  68.5  -2.1  34004  286.94 0855.48
2009/04/23 08:11:31.5     316    275     54    420    424  49.0   7.4  34014  287.09 0855.48
2009/04/23 08:11:31.6     368    366    -25    520    521  45.2  -2.8  33998  286.83 0855.48
2009/04/23 08:11:31.7     283    334    -59    438    442  40.3  -7.7  33998  286.82 0855.48
2009/04/23 08:11:31.8     237    297    -69    381    388  38.6 -10.3  34000  286.86 0855.48
2009/04/23 08:11:31.9     208    365    -92    421    432  29.7 -12.4  34000  286.87 0855.48
2009/04/23 08:11:32.0     252    401    -64    474    479  32.2  -7.7  33998  286.82 0855.48
2009/04/23 08:11:32.1     237    419   -131    482    500  29.5 -15.2  34004  286.92 0855.48
2009/04/23 08:11:32.2     223    309   -125    382    401  35.9 -23.3  34002  286.91 0855.48
2009/04/23 08:11:32.3     233    243    -31    338    340  43.8  -5.3  34000  286.88 0855.50
2009/04/23 08:11:32.4     223    269    -71    350    358  39.7 -11.5  33996  286.81 0855.50
2009/04/23 08:11:32.5     200    190    -84    277    289  46.4 -21.8  33990  286.68 0855.50
2009/04/23 08:11:32.6     185    198   -101    272    290  43.0 -25.4  33994  286.77 0855.50
2009/04/23 08:11:32.7     120    105   -119    160    199  48.7 -44.8  33996  286.79 0855.50
2009/04/23 08:11:32.8     118     86    -67    147    161  54.0 -30.6  33996  286.79 0855.50
2009/04/23 08:11:32.9     111     81    -66    138    152  54.0 -31.6  33996  286.79 0855.50
2009/04/23 08:11:33.0      51    148    -62    157    168  19.2 -26.9  33996  286.81 0855.50
2009/04/23 08:11:33.1     255    203     15    326    327  51.5   2.8  34022  287.22 0855.50
2009/04/23 08:11:33.2     330    117      6    351    352  70.4   1.1  34008  287.00 0855.50
2009/04/23 08:11:33.3     321     96    -84    336    347  73.4 -14.1  33998  286.83 0855.50
2009/04/23 08:11:33.4     279    138   -122    312    335  63.6 -26.9  33998  286.84 0855.50
2009/04/23 08:11:33.5     357    153   -122    389    407  66.8 -22.6  34024  287.27 0855.50
2009/04/23 08:11:33.6     382     32     44    384    387  85.2   6.6  34018  287.18 0855.50
2009/04/23 08:11:33.7     321    182     24    370    371  60.5   3.7  34010  287.02 0855.50
2009/04/23 08:11:33.8     318     82    -22    329    330  75.5  -3.9  34000  286.86 0855.50
2009/04/23 08:11:33.9     326     48    -15    330    331  81.5  -2.6  33998  286.83 0855.50
2009/04/23 08:11:34.0     240     41     34    244    247  80.1   8.0  33996  286.79 0855.50
2009/04/23 08:11:34.1     181     13     82    182    199  85.9  25.9  33990  286.71 0855.50
2009/04/23 08:11:34.2     116    -20     32    118    123 100.1  15.2  34000  286.86 0855.50
2009/04/23 08:11:34.3      42     26    -44     50     66  57.6 -51.3  34004  286.93 0855.51
2009/04/23 08:11:34.4      29     -2    -38     30     48  94.4 -61.9  34006  286.96 0855.51
2009/04/23 08:11:34.5      33    -32    -16     47     49 134.0 -23.6  34006  286.98 0855.51
2009/04/23 08:11:34.6      81    -24    -46     85     96 106.4 -35.2  34008  287.00 0855.51
2009/04/23 08:11:34.7     138     15    -98    139    170  83.4 -43.0  34006  286.98 0855.51
2009/04/23 08:11:34.8     151     66    -44    166    172  66.3 -15.0  34004  286.94 0855.51
2009/04/23 08:11:34.9     250    104     51    271    276  67.4  10.8  33996  286.79 0855.51
2009/04/23 08:11:35.0     234     75     13    246    247  72.1   3.1  33994  286.77 0855.51
2009/04/23 08:11:35.1     168    106     13    199    200  57.6   3.8  33998  286.83 0855.51
2009/04/23 08:11:35.2     185     76    -48    201    207  67.6 -13.4  33998  286.83 0855.51
2009/04/23 08:11:35.3     190    124    -80    228    241  56.9 -24.4  33996  286.80 0855.51
2009/04/23 08:11:35.4     267     76     34    278    281  74.0   7.1  34004  286.94 0855.51
2009/04/23 08:11:35.5     316    107     74    334    343  71.2  12.6  34026  287.32 0855.51
2009/04/23 08:11:35.6     359    170    125    398    418  64.6  17.4  34034  287.43 0855.51
2009/04/23 08:11:35.7     353    122    136    374    397  70.9  20.9  34068  288.01 0855.51
2009/04/23 08:11:35.8     307    120    115    330    350  68.6  19.2  34018  287.18 0855.51
2009/04/23 08:11:35.9     241    164     43    292    296  55.8   8.5  34002  286.90 0855.51
2009/04/23 08:11:36.0     197    182    -28    269    271  47.3  -6.0  34000  286.85 0855.51
2009/04/23 08:11:36.1     131    205    -17    244    245  32.5  -4.1  34000  286.85 0855.51
2009/04/23 08:11:36.2     172    207     -8    270    271  39.7  -1.8  34000  286.85 0855.51
2009/04/23 08:11:36.3     153    185      4    241    242  39.7   1.0  33998  286.84 0855.50
2009/04/23 08:11:36.4     150    207    101    256    275  36.0  22.8  33996  286.80 0855.50
2009/04/23 08:11:36.5     100    195     67    220    231  27.2  17.1  33998  286.84 0855.50
2009/04/23 08:11:36.6     115    195     35    227    230  30.7   8.9  33998  286.84 0855.50
2009/04/23 08:11:36.7      87    219     64    236    245  21.9  15.3  34000  286.85 0855.50
2009/04/23 08:11:36.8      39    167    -16    172    173  13.4  -5.6  34002  286.91 0855.50
2009/04/23 08:11:36.9      71    151    -59    168    179  25.3 -19.6  33998  286.84 0855.50
2009/04/23 08:11:37.0      77    142    -85    162    182  28.5 -34.5  34002  286.91 0855.50
2009/04/23 08:11:37.1      63     72    -63     96    114  41.0 -40.0  34004  286.93 0855.50
2009/04/23 08:11:37.2      31     79    -35     86     92  21.8 -27.4  34000  286.88 0855.50
2009/04/23 08:11:37.3      51     76    -34     92     98  33.8 -25.9  34002  286.91 0855.50
2009/04/23 08:11:37.4      15     77    -25     79     83  11.5 -17.6  34006  286.96 0855.50
2009/04/23 08:11:37.5      24     73    -77     77    108  18.5 -54.5  34004  286.93 0855.50
2009/04/23 08:11:37.6     151     55     -3    161    162  69.8  -1.3  34002  286.91 0855.50
2009/04/23 08:11:37.7     269     16    -59    270    277  86.6 -12.4  34002  286.90 0855.50
2009/04/23 08:11:37.8     270     50    -81    275    287  79.4 -16.5  34004  286.92 0855.50
2009/04/23 08:11:37.9     306     57    -95    312    326  79.4 -21.9  34002  286.90 0855.50
2009/04/23 08:11:38.0     261    151     42    302    306  60.0   8.0  34008  286.99 0855.50
2009/04/23 08:11:38.1     253    162    105    301    319  57.4  19.3  34026  287.29 0855.50
2009/04/23 08:11:38.2     186    186    110    264    286  44.9  24.1  34020  287.21 0855.50
2009/04/23 08:11:38.3     204    121     54    238    245  59.3  12.9  34012  287.06 0855.49
2009/04/23 08:11:38.4     196    154    110    250    273  51.8  25.2  34026  287.31 0855.49
2009/04/23 08:11:38.5     222     89    126    240    271  68.2  30.2  34020  287.21 0855.49
2009/04/23 08:11:38.6     156     42     60    162    172  74.7  21.0  34008  287.01 0855.49
2009/04/23 08:11:38.7     130     61     50    144    153  64.8  19.4  34014  287.10 0855.49
2009/04/23 08:11:38.8     124     93     38    156    161  53.1  13.7  34020  287.21 0855.49
2009/04/23 08:11:38.9      91     79    102    121    158  49.1  44.5  34026  287.32 0855.49
2009/04/23 08:11:39.0      92     86     69    127    144  46.8  31.3  34032  287.42 0855.49
2009/04/23 08:11:39.1      17    124     91    126    155   8.0  39.5  34024  287.28 0855.49
2009/04/23 08:11:39.2       9     67     99     68    120   8.1  62.6  34026  287.30 0855.49
2009/04/23 08:11:39.3       4     -5     88      7     88 136.6  90.0  34028  287.33 0855.49
2009/04/23 08:11:39.4     -20     14     43     25     49 306.0  66.8  34028  287.35 0855.49
2009/04/23 08:11:39.5       3    -14     50     15     52 164.9  82.8  34024  287.28 0855.49
2009/04/23 08:11:39.6      -6    -14     56     16     58 205.4  81.8  34024  287.27 0855.49
2009/04/23 08:11:39.7     -21     46     99     51    111 334.5  70.8  34028  287.35 0855.49
2009/04/23 08:11:39.8      -8     40     78     41     88 347.5  70.4  34034  287.43 0855.49
2009/04/23 08:11:39.9     -11     34     70     36     78 341.7  70.8  34042  287.59 0855.49
2009/04/23 08:11:40.0     -56     87     74    104    127 327.4  39.5  34044  287.60 0855.49
2009/04/23 08:11:40.1     -29     48     75     57     94 328.4  59.0  34040  287.54 0855.49
2009/04/23 08:11:40.2     -30     55     35     63     72 331.0  31.4  34044  287.60 0855.49
2009/04/23 08:11:40.3     -38     21     24     44     50 299.8  31.4  34042  287.59 0855.47
2009/04/23 08:11:40.4     -19     10     40     22     45 298.9  67.7  34036  287.47 0855.47
2009/04/23 08:11:40.5      -3      3     12      5     13 313.3  81.2  34036  287.49 0855.47
2009/04/23 08:11:40.6      11    -18    -15     22     26 149.3 -40.0  34040  287.54 0855.47
2009/04/23 08:11:40.7       3    -31    -15     32     35 173.8 -31.6  34044  287.60 0855.47
2009/04/23 08:11:40.8       3    -38    -15     39     41 175.5 -26.4  34040  287.55 0855.47
2009/04/23 08:11:40.9      16    -21    -33     27     42 142.2 -59.8  34038  287.52 0855.47
2009/04/23 08:11:41.0      45      0    -49     46     67  90.0 -56.5  34034  287.45 0855.47
2009/04/23 08:11:41.1      83     28    -61     88    107  70.9 -42.4  34040  287.54 0855.47
2009/04/23 08:11:41.2     112     49    -24    123    126  66.5 -11.3  34032  287.42 0855.47
2009/04/23 08:11:41.3      85     57     -5    103    104  55.8  -3.2  34032  287.42 0855.47
2009/04/23 08:11:41.4      63     73      3     97     98  41.0   2.3  34026  287.32 0855.47
2009/04/23 08:11:41.5      45     78     15     91     93  30.3   9.5  34026  287.32 0855.47
2009/04/23 08:11:41.6      42     72     10     84     85  30.7   6.9  34034  287.45 0855.47
2009/04/23 08:11:41.7      32    101    -10    107    108  17.8  -5.6  34036  287.49 0855.47
2009/04/23 08:11:41.8      72     51     -6     89     90  54.5  -4.1  34030  287.38 0855.47
2009/04/23 08:11:41.9      72     45     31     86     91  58.0  20.0  34026  287.30 0855.47
2009/04/23 08:11:42.0      47     35     53     59     79  53.1  47.5  34026  287.30 0855.47
2009/04/23 08:11:42.1      22     22     15     32     35  45.0  27.2  34032  287.40 0855.47
2009/04/23 08:11:42.2       4     63    -45     64     78   3.6 -43.0  34066  287.98 0855.47
2009/04/23 08:11:42.3       3     50    -27     51     57   3.6 -34.7  34058  287.86 0855.48
2009/04/23 08:11:42.4      -2     37      9     38     40 355.6  13.2  34056  287.81 0855.48
2009/04/23 08:11:42.5      93     36     32    100    106  68.7  17.9  34040  287.55 0855.48
2009/04/23 08:11:42.6      96     50     49    109    119  62.5  25.7  34038  287.50 0855.48
2009/04/23 08:11:42.7      10     52     -6     54     55  11.6  -7.2  34038  287.52 0855.48
2009/04/23 08:11:42.8     -72     24    -24     77     80 288.6 -22.3  34024  287.28 0855.48
2009/04/23 08:11:42.9    -131     47    -54    140    150 290.0 -26.4  34006  286.96 0855.48
2009/04/23 08:11:43.0    -104     79    -41    131    137 307.3 -22.3  34006  286.96 0855.48
2009/04/23 08:11:43.1     -47     95    -90    107    139 333.7 -48.2  34012  287.08 0855.48
2009/04/23 08:11:43.2     -17     87    -98     89    132 348.9 -57.1  34010  287.05 0855.48
2009/04/23 08:11:43.3    -104     50   -111    116    160 295.8 -53.1  34004  286.93 0855.48
2009/04/23 08:11:43.4    -129     69   -101    147    178 298.4 -42.4  34000  286.88 0855.48
2009/04/23 08:11:43.5    -102     90    -73    137    155 311.4 -35.2  34012  287.06 0855.48
2009/04/23 08:11:43.6     -60     91    -73    110    132 326.6 -40.9  34008  287.01 0855.48
2009/04/23 08:11:43.7     -45     95    -57    106    120 334.7 -35.2  34008  287.00 0855.48
2009/04/23 08:11:43.8      -5     65   -114     66    131 355.5 -71.6  34002  286.89 0855.48
2009/04/23 08:11:43.9     -24     42   -100     49    111 330.1 -77.2  34004  286.93 0855.48
2009/04/23 08:11:44.0       7     56    -71     57     91   8.0 -60.8  34002  286.91 0855.48
2009/04/23 08:11:44.1      75     91    -80    119    143  39.6 -41.4  34004  286.93 0855.48
2009/04/23 08:11:44.2      -5     99    -85    100    131 356.9 -48.7  34006  286.98 0855.48
2009/04/23 08:11:44.3      30     20    -23     37     43  55.8 -39.9  34020  287.21 0855.48
2009/04/23 08:11:44.4       0      0     -5      1      5 270.0 -90.0  34034  287.43 0855.48
2009/04/23 08:11:44.5       9     10    -37     14     39  43.2 -85.6  34016  287.13 0855.48
2009/04/23 08:11:44.6      48    -16    -44     51     67 108.6 -50.2  34010  287.03 0855.48
2009/04/23 08:11:44.7      12      4    -81     13     82  71.8 -90.0  34006  286.98 0855.48
2009/04/23 08:11:44.8      36     37    -91     52    104  44.2 -72.1  34012  287.08 0855.48
2009/04/23 08:11:44.9      41      7   -121     42    128  79.4 -85.1  34012  287.08 0855.48
2009/04/23 08:11:45.0     109     48   -122    120    171  66.0 -54.5  34020  287.21 0855.48
2009/04/23 08:11:45.1     217    161   -189    271    330  53.4 -42.7  34022  287.24 0855.48
2009/04/23 08:11:45.2     274     74    -57    284    290  74.9 -11.5  34030  287.38 0855.48
2009/04/23 08:11:45.3     320    106      2    338    339  71.6   0.4  34022  287.23 0855.48
2009/04/23 08:11:45.4     350    164     -9    387    388  64.8  -1.4  34020  287.20 0855.48
2009/04/23 08:11:45.5     356     49     22    360    361  82.1   3.5  34026  287.29 0855.48
2009/04/23 08:11:45.6     346     35    140    348    375  84.1  23.1  34020  287.20 0855.48
2009/04/23 08:11:45.7     373     36    138    375    399  84.4  21.0  34016  287.13 0855.48
2009/04/23 08:11:45.8     452    111    153    466    491  76.1  18.2  34016  287.15 0855.48
2009/04/23 08:11:45.9     426     55    103    430    443  82.5  13.5  34016  287.13 0855.48
2009/04/23 08:11:46.0     551    111     18    563    564  78.6   1.9  34012  287.08 0855.48
2009/04/23 08:11:46.1     562     71     14    567    568  82.8   1.5  34012  287.08 0855.48
2009/04/23 08:11:46.2     493     39     36    495    497  85.4   4.2  34008  287.00 0855.48
2009/04/23 08:11:46.3     489     33    -26    491    492  86.1  -3.1  34000  286.87 0855.47
2009/04/23 08:11:46.4     184    161   -100    245    264  48.7 -27.5  34014  287.11 0855.47
2009/04/23 08:11:46.5     146    230   -146    273    309  32.5 -34.7  34020  287.19 0855.47
2009/04/23 08:11:46.6     189    255   -119    318    339  36.5 -25.8  34010  287.02 0855.47
2009/04/23 08:11:46.7     267    127    -82    296    308  64.5 -15.5  34020  287.19 0855.47
2009/04/23 08:11:46.8     347     55     26    352    353  81.0   4.4  34008  287.00 0855.47
2009/04/23 08:11:46.9     363    139    113    389    406  69.0  16.3  34002  286.91 0855.47
2009/04/23 08:11:47.0     222    220     96    313    328  45.3  17.1  34010  287.04 0855.47
2009/04/23 08:11:47.1     163    247      6    297    298  33.4   1.2  34014  287.11 0855.47
2009/04/23 08:11:47.2     117    247     15    274    275  25.3   3.3  34018  287.17 0855.47
2009/04/23 08:11:47.3     127    153      0    200    201  39.7   0.2  34016  287.13 0855.47
2009/04/23 08:11:47.4     140     43     54    147    156  72.7  20.9  34014  287.10 0855.47
2009/04/23 08:11:47.5     140     66    129    155    201  64.6  44.1  34012  287.08 0855.47
2009/04/23 08:11:47.6      83     60     80    103    130  54.0  41.7  34012  287.06 0855.47
2009/04/23 08:11:47.7     202     78     94    217    236  68.7  24.9  34016  287.15 0855.47
2009/04/23 08:11:47.8     159     81     45    179    185  62.9  14.3  34018  287.16 0855.47
2009/04/23 08:11:47.9      32    131     89    135    161  13.8  36.7  34012  287.06 0855.47
2009/04/23 08:11:48.0     -32    191     55    194    202 350.4  16.0  34012  287.06 0855.47
2009/04/23 08:11:48.1     -96    175     -1    200    201 331.1  -0.5  34014  287.11 0855.47
2009/04/23 08:11:48.2    -164    166    130    234    267 315.2  31.4  34012  287.06 0855.47
2009/04/23 08:11:48.3    -215    307    133    375    397 325.0  20.3  34004  286.93 0855.49
2009/04/23 08:11:48.4    -215    211     88    302    315 314.4  16.3  34010  287.02 0855.49
2009/04/23 08:11:48.5      -2    304    177    305    352 359.5  32.8  34010  287.03 0855.49
2009/04/23 08:11:48.6    -100    194    159    219    270 332.8  39.5  34012  287.06 0855.49
2009/04/23 08:11:48.7    -164    136    -82    214    229 309.8 -26.4  34004  286.94 0855.49
2009/04/23 08:11:48.8     -40    107      5    115    116 339.5   2.8  34012  287.06 0855.49
2009/04/23 08:11:48.9      -1     66     13     67     69 359.1  11.0  34006  286.98 0855.49
2009/04/23 08:11:49.1      67    130    -48    147    155  27.2 -18.3  34008  287.01 0855.49
2009/04/23 08:11:49.1     128    166    -53    210    217  37.6 -14.3  34008  287.01 0855.49
2009/04/23 08:11:49.2     242    242     10    343    344  45.0   1.7  34006  286.98 0855.49
2009/04/23 08:11:49.3     276    310      8    416    417  41.7   1.2  34014  287.11 0855.49
2009/04/23 08:11:49.4     188    205    -35    279    282  42.5  -7.2  34012  287.06 0855.49
2009/04/23 08:11:49.5     231     98    -41    252    256  66.9  -9.4  34008  287.01 0855.49
2009/04/23 08:11:49.6     289     30    -15    291    292  83.9  -3.1  34006  286.97 0855.49
2009/04/23 08:11:49.7     232    128     99    266    283  61.1  21.0  34006  286.95 0855.49
2009/04/23 08:11:49.8     229    131    129    264    293  60.2  27.8  34006  286.95 0855.49
2009/04/23 08:11:49.9     161    124    145    204    250  52.5  38.8  34004  286.92 0855.49
2009/04/23 08:11:50.0     234     86     89    250    265  69.8  20.2  34004  286.92 0855.49
2009/04/23 08:11:50.1     245    141     92    283    298  60.0  18.1  34006  286.95 0855.49
2009/04/23 08:11:50.2     323    -48    204    327    385  98.5  35.1  34000  286.86 0855.49
2009/04/23 08:11:50.3     353    160     99    388    401  65.6  14.4  34002  286.91 0855.49
2009/04/23 08:11:50.4     403    194     69    448    454  64.3   8.8  34008  287.01 0855.49
2009/04/23 08:11:50.5     409    194    151    453    478  64.6  18.4  34008  287.00 0855.49
2009/04/23 08:11:50.6     366    124    134    387    410  71.2  19.2  34012  287.06 0855.49
2009/04/23 08:11:50.7     364    142    150    391    418  68.6  22.0  34014  287.09 0855.49
2009/04/23 08:11:50.8     316    124    139    340    367  68.5  23.5  34008  287.00 0855.49
2009/04/23 08:11:50.9     337    104    103    353    368  72.8  16.3  34016  287.12 0855.49
2009/04/23 08:11:51.0     321    118    126    343    365  69.7  21.0  34006  286.95 0855.49
2009/04/23 08:11:51.1     318     80    139    328    356  75.8  24.3  34006  286.95 0855.49
2009/04/23 08:11:51.2     249    118    111    276    297  64.7  23.0  34008  287.01 0855.49
2009/04/23 08:11:51.3     248     82    105    262    282  71.6  23.0  34012  287.06 0855.50
2009/04/23 08:11:51.5     238     59    114    246    271  76.1  27.0  34008  287.01 0855.50
2009/04/23 08:11:51.5     196     59     88    205    223  73.2  24.6  34006  286.96 0855.50
2009/04/23 08:11:51.6     170     25     60    172    183  81.6  19.2  34012  287.06 0855.50
2009/04/23 08:11:51.7     137     65     77    152    170  64.6  28.7  34008  287.00 0855.50
2009/04/23 08:11:51.8     187    126    106    226    249  56.0  27.1  34020  287.21 0855.50
2009/04/23 08:11:51.9     301    129    116    328    349  66.7  19.6  34024  287.27 0855.50
2009/04/23 08:11:52.0     276    144     87    312    324  62.5  15.6  34024  287.26 0855.50
2009/04/23 08:11:52.1     286    230    133    368    392  51.1  19.9  34016  287.12 0855.50
2009/04/23 08:11:52.2     270    208    184    341    387  52.4  30.8  34022  287.25 0855.50
2009/04/23 08:11:52.3     198    109    167    227    281  61.2  39.7  34022  287.24 0855.50
2009/04/23 08:11:52.4     282    130    199    311    369  65.2  35.6  34032  287.42 0855.50
2009/04/23 08:11:52.5     332     69    213    340    401  78.2  35.1  34016  287.12 0855.50
2009/04/23 08:11:52.6     376     47    233    379    444  82.8  34.5  34006  286.96 0855.50
2009/04/23 08:11:52.7     261    -31    213    263    338  97.0  43.3  34010  287.02 0855.50
2009/04/23 08:11:52.8     272   -128    173    301    347 115.2  32.6  34012  287.07 0855.50
2009/04/23 08:11:52.9     169   -151    159    228    277 131.8  38.4  34016  287.12 0855.50
2009/04/23 08:11:53.0     134   -152    150    204    253 138.6  39.9  34018  287.16 0855.50
2009/04/23 08:11:53.1      47   -164    133    171    216 163.7  42.0  34014  287.11 0855.50
2009/04/23 08:11:53.3      34   -103    142    109    179 161.5  58.7  34006  286.96 0855.50
2009/04/23 08:11:53.3      96   -107    109    144    180 138.1  40.9  34006  286.96 0855.50
2009/04/23 08:11:53.4     123   -145     56    191    200 139.7  16.3  34004  286.93 0855.50
2009/04/23 08:11:53.5     117   -212     42    243    247 151.0  10.0  34002  286.89 0855.50
2009/04/23 08:11:53.7     165   -207     89    265    280 141.5  18.6  33998  286.82 0855.50
2009/04/23 08:11:53.7     135   -166    128    215    250 140.8  33.5  33998  286.84 0855.50
2009/04/23 08:11:53.8      96   -185     99    209    231 152.4  27.2  34002  286.89 0855.50
2009/04/23 08:11:54.0      39   -192    119    197    230 168.4  34.2  34000  286.88 0855.50
2009/04/23 08:11:54.1     -38   -206    151    210    258 190.5  39.5  34000  286.85 0855.50
2009/04/23 08:11:54.2      73   -147    136    165    213 153.7  43.7  33998  286.84 0855.50
2009/04/23 08:11:54.3     102   -181    172    208    269 150.6  43.8  34000  286.85 0855.50
2009/04/23 08:11:54.4     119   -215    154    246    290 151.0  35.5  33998  286.84 0855.50
2009/04/23 08:11:54.5      17   -224    131    225    260 175.6  33.1  33998  286.84 0855.50
2009/04/23 08:11:54.6      15   -222    164    223    276 176.0  39.7  33992  286.74 0855.50
2009/04/23 08:11:54.7      19    -12    147     23    148 124.2  90.0  33994  286.76 0855.50
2009/04/23 08:11:54.8     -64   -198    115    209    238 198.0  31.4  34006  286.98 0855.50
2009/04/23 08:11:54.9     -58   -175    114    185    217 198.3  34.8  34012  287.06 0855.50
2009/04/23 08:11:55.0     -94   -214    100    235    255 203.8  24.3  34008  287.01 0855.50
2009/04/23 08:11:55.1     -38   -178    -59    183    192 192.0 -23.6  34012  287.08 0855.50
2009/04/23 08:11:55.2     -46   -247    -36    252    255 190.7  -8.2  34016  287.12 0855.50
2009/04/23 08:11:55.3      18   -230    -15    231    232 175.5  -3.7  34008  287.01 0855.50
2009/04/23 08:11:55.4      13   -199     10    200    201 176.2   2.9  34006  286.98 0855.49
2009/04/23 08:11:55.5     -35   -235     31    238    240 188.5   7.5  34012  287.06 0855.49
2009/04/23 08:11:55.6    -127   -238     18    270    271 208.1   3.9  34020  287.21 0855.49
2009/04/23 08:11:55.7    -184   -304     55    356    361 211.1   8.9  34016  287.13 0855.49
2009/04/23 08:11:55.8    -253   -329    129    416    436 217.6  17.3  34006  286.96 0855.49
2009/04/23 08:11:55.9    -153   -382     51    412    416 201.9   7.1  34008  286.99 0855.49
2009/04/23 08:11:56.0     -73   -419     61    426    431 190.0   8.2  34002  286.89 0855.49
2009/04/23 08:11:56.1    -114   -344     10    363    364 198.4   1.7  34008  287.00 0855.49
2009/04/23 08:11:56.2    -111   -296      1    317    318 200.7   0.2  34014  287.09 0855.49
2009/04/23 08:11:56.3     -32   -346     17    348    349 185.4   2.9  34006  286.96 0855.49
2009/04/23 08:11:56.4    -100   -281     36    299    302 199.6   6.9  34006  286.95 0855.49
2009/04/23 08:11:56.5     -80   -241     74    255    266 198.5  16.3  34000  286.87 0855.49
2009/04/23 08:11:56.6     -14   -200     80    201    216 184.0  23.0  34002  286.89 0855.49
2009/04/23 08:11:56.7      21   -203     24    205    207 174.0   6.7  34004  286.94 0855.49
2009/04/23 08:11:56.8      22   -192     23    194    196 173.3   6.9  34004  286.94 0855.49
2009/04/23 08:11:56.9      63   -188     69    199    211 161.3  19.2  34002  286.89 0855.49
2009/04/23 08:11:57.0      45   -123     85    132    157 160.0  35.7  34002  286.89 0855.49
2009/04/23 08:11:57.1      60    -84    102    104    145 144.4  50.0  34002  286.91 0855.49
2009/04/23 08:11:57.2      17    -43     81     47     93 158.2  66.8  34004  286.93 0855.49
2009/04/23 08:11:57.3     -29    -64     87     71    112 204.5  56.4  34004  286.94 0855.49
2009/04/23 08:11:57.4     -42    -73     99     85    130 210.3  54.8  34004  286.93 0855.50
2009/04/23 08:11:57.5     -41    -14     47     44     64 250.9  52.1  34004  286.94 0855.50
2009/04/23 08:11:57.6     -38     12     38     40     55 288.2  50.0  34002  286.89 0855.50
2009/04/23 08:11:57.7     -90     42      4    100    101 295.2   2.8  34002  286.89 0855.50
2009/04/23 08:11:57.8    -169     79     -7    187    188 295.2  -2.3  34006  286.98 0855.50
2009/04/23 08:11:57.9     -82    173     29    192    195 334.5   8.8  34018  287.18 0855.50
2009/04/23 08:11:58.0    -117     77     77    141    160 303.3  31.0  34002  286.91 0855.50
2009/04/23 08:11:58.1    -143     38     95    149    176 285.1  35.6  34004  286.94 0855.50
2009/04/23 08:11:58.2    -200     27    -42    202    207 277.9 -11.9  34004  286.94 0855.50
2009/04/23 08:11:58.3    -211     51    -82    218    232 283.7 -25.7  34008  287.01 0855.50
2009/04/23 08:11:58.4    -163    128    -67    208    219 308.2 -17.9  34004  286.94 0855.50
2009/04/23 08:11:58.5     -98    118     46    154    161 320.3  16.8  34008  287.00 0855.50
2009/04/23 08:11:58.6      -3    137      6    138    139 358.6   2.8  34010  287.05 0855.50
2009/04/23 08:11:58.7     -14    204    -16    205    206 356.0  -4.6  34014  287.10 0855.50
2009/04/23 08:11:58.8     -61    274     -1    281    282 347.3  -0.3  34016  287.14 0855.50
2009/04/23 08:11:58.9     -66    292    -45    300    304 347.1  -8.6  34004  286.94 0855.50
2009/04/23 08:11:59.0     -52    236    -27    242    244 347.5  -6.5  34002  286.90 0855.50
2009/04/23 08:11:59.1     -49    240    -83    246    260 348.4 -18.7  34002  286.89 0855.50
2009/04/23 08:11:59.2     -91    232    -64    250    259 338.4 -14.5  34002  286.89 0855.50
2009/04/23 08:11:59.3    -132    231    -74    267    277 330.2 -20.0  34000  286.85 0855.50
2009/04/23 08:11:59.4    -139    228   -102    268    286 328.6 -26.4  33996  286.79 0855.51
2009/04/23 08:11:59.5      10    174   -127    175    216   3.4 -44.1  33998  286.83 0855.51
2009/04/23 08:11:59.6      74    198    -24    212    214  20.7  -6.5  33994  286.76 0855.51
2009/04/23 08:11:59.7      69    208     11    220    221  18.5   2.9  33996  286.81 0855.51
2009/04/23 08:11:59.8      44    219     55    224    231  11.6  13.9  33992  286.73 0855.51
2009/04/23 08:11:59.9      84    253     33    267    270  18.5   7.2  33994  286.75 0855.51
2009/04/23 08:12:00.0      47    301     71    305    314   8.9  13.2  33998  286.82 0855.51
2009/04/23 08:12:00.1     -15    132    151    133    201 353.3  54.2  34008  287.00 0855.51
2009/04/23 08:12:00.2     -21    122    142    124    188 350.2  54.3  34020  287.20 0855.51
2009/04/23 08:12:00.3       5     64     85     65    107   4.5  59.0  34018  287.18 0855.51
2009/04/23 08:12:00.4     219     59    184    227    292  74.9  43.3  34042  287.56 0855.51
2009/04/23 08:12:00.5     226     38    224    230    321  80.3  49.3  34034  287.44 0855.51
2009/04/23 08:12:00.6     158     92    214    183    281  59.8  55.3  34018  287.17 0855.51
2009/04/23 08:12:00.7     112    105    258    154    300  46.9  66.7  34016  287.12 0855.51
2009/04/23 08:12:00.8     -18     57    165     60    175 342.2  79.9  34012  287.08 0855.51
2009/04/23 08:12:00.9     -16     46    170     49    176 340.0  84.1  34006  286.96 0855.51
2009/04/23 08:12:01.0    -139     -6    166    140    217 267.4  55.6  34006  286.98 0855.51
2009/04/23 08:12:01.1    -141    -17    241    143    280 263.0  66.7  34006  286.97 0855.51
2009/04/23 08:12:01.2    -383   -121   -127    402    422 252.4 -17.5  34004  286.92 0855.51
2009/04/23 08:12:01.3    -442   -276    -54    522    525 238.0  -6.0  34002  286.89 0855.51
2009/04/23 08:12:01.4    -537   -235    -30    587    588 246.4  -3.0  34012  287.06 0855.49
2009/04/23 08:12:01.5    -470   -197   -150    510    531 247.2 -21.2  34004  286.93 0855.49
2009/04/23 08:12:01.6    -253   -272   -222    372    433 222.9 -37.9  34000  286.87 0855.49
2009/04/23 08:12:01.7    -276   -408    -21    493    494 214.1  -2.5  34000  286.85 0855.49
2009/04/23 08:12:01.8    -155   -373    140    404    428 202.6  19.2  33996  286.79 0855.49
2009/04/23 08:12:01.9    -186   -372    136    417    439 206.6  18.1  33998  286.82 0855.49
2009/04/23 08:12:02.0    -288   -288    239    408    472 225.1  33.0  33994  286.77 0855.49
2009/04/23 08:12:02.1    -283   -366    213    463    509 217.8  26.4  33994  286.78 0855.49
2009/04/23 08:12:02.2    -117   -376    240    394    461 197.3  34.3  34006  286.96 0855.49
2009/04/23 08:12:02.3    -247   -436    171    502    531 209.5  18.8  34010  287.05 0855.49
2009/04/23 08:12:02.4    -172   -522    216    550    590 198.3  22.7  34010  287.04 0855.49
2009/04/23 08:12:02.5     -43   -572     49    574    577 184.4   5.0  34014  287.11 0855.49
2009/04/23 08:12:02.6    -152   -528    -76    550    556 196.1  -7.9  34012  287.06 0855.49
2009/04/23 08:12:02.7    -118   -519    -95    533    542 192.9 -10.1  34004  286.93 0855.49
2009/04/23 08:12:02.8     -39   -510   -134    512    530 184.4 -14.7  34000  286.88 0855.49
2009/04/23 08:12:02.9       5   -430   -224    431    485 179.3 -34.0  33998  286.82 0855.49
2009/04/23 08:12:03.0     160   -440   -142    469    490 160.0 -21.7  34000  286.87 0855.49
2009/04/23 08:12:03.1     141   -356   -122    384    402 158.3 -22.8  33998  286.83 0855.49
2009/04/23 08:12:03.2     190   -247   -149    312    345 142.4 -31.7  34000  286.88 0855.49
2009/04/23 08:12:03.3     181    -58   -146    191    240 107.9 -45.8  34006  286.98 0855.49
2009/04/23 08:12:03.4     181     45   -115    187    219  75.8 -39.2  33996  286.81 0855.49
2009/04/23 08:12:03.5     138    191   -173    236    292  35.8 -44.1  34008  287.01 0855.49
2009/04/23 08:12:03.6     229    275   -113    358    375  39.8 -22.5  34010  287.03 0855.49
2009/04/23 08:12:03.7     175    260   -103    314    330  34.1 -23.5  34012  287.06 0855.49
2009/04/23 08:12:03.8     155    242   -104    288    306  32.6 -25.1  34004  286.92 0855.49
2009/04/23 08:12:03.9     159    219   -133    271    301  36.0 -32.6  34006  286.95 0855.49
2009/04/23 08:12:04.0     216    216    -27    306    308  45.0  -5.1  33992  286.72 0855.49
2009/04/23 08:12:04.1     235    209     35    315    317  48.4   6.4  34010  287.04 0855.49
2009/04/23 08:12:04.2     161     98    100    189    213  58.5  30.1  34006  286.96 0855.49
2009/04/23 08:12:04.3     104     53    180    117    214  62.9  64.6  34004  286.93 0855.49
2009/04/23 08:12:04.4     143     52    206    153    256  70.0  60.0  34002  286.91 0855.49
2009/04/23 08:12:04.5     119    151    151    193    245  38.1  42.2  34008  287.01 0855.49
2009/04/23 08:12:04.6       0     23    123     24    125 359.1  89.6  34008  287.01 0855.49
2009/04/23 08:12:04.7     -42     26     98     50    110 302.4  71.4  34006  286.96 0855.49
2009/04/23 08:12:04.8      26     -8    114     28    117 108.2  85.9  34006  286.98 0855.49
2009/04/23 08:12:04.9      75    -26     76     80    110 109.1  48.5  34010  287.03 0855.49
2009/04/23 08:12:05.0      64    -74     48     99    110 139.0  27.3  34008  287.01 0855.49
2009/04/23 08:12:05.1      43    -52     94     68    116 140.4  60.5  34008  287.00 0855.49
2009/04/23 08:12:05.2      24    -91    104     95    140 165.3  52.2  34012  287.06 0855.49
2009/04/23 08:12:05.3       0    -51     78     52     93 180.9  63.6  34008  287.00 0855.49
2009/04/23 08:12:05.4      25    -37     78     45     90 145.7  67.2  34010  287.03 0855.48
2009/04/23 08:12:05.5       1    -31     83     32     88 177.3  78.6  34010  287.03 0855.48
2009/04/23 08:12:05.6     -10    -51     84     53     99 191.6  64.7  34008  287.00 0855.48
2009/04/23 08:12:05.7      38    -12     83     40     92 108.2  72.9  34008  287.01 0855.48
2009/04/23 08:12:05.8      32    -97     86    103    134 161.7  43.8  34006  286.98 0855.48
2009/04/23 08:12:05.9      58   -123    135    137    192 154.5  50.0  34004  286.93 0855.48
2009/04/23 08:12:06.0     108   -115    123    159    201 136.8  41.7  34004  286.93 0855.48
2009/04/23 08:12:06.1      70   -132    101    150    180 151.9  37.3  34002  286.89 0855.48
2009/04/23 08:12:06.2     121    -67     90    139    165 118.9  35.7  34006  286.96 0855.48
2009/04/23 08:12:06.3      75   -150     85    168    188 153.3  28.7  34002  286.89 0855.48
2009/04/23 08:12:06.4     -34   -174    129    178    219 191.1  39.7  34000  286.86 0855.48
2009/04/23 08:12:06.5     -35   -167     97    171    196 192.0  32.1  34000  286.88 0855.48
2009/04/23 08:12:06.6     -42   -119     99    127    161 199.6  42.0  34000  286.88 0855.48
2009/04/23 08:12:06.7     -49   -136     41    145    151 200.1  16.0  34000  286.86 0855.48
2009/04/23 08:12:06.8     -84    -86     81    121    145 224.5  37.0  34000  286.86 0855.48
2009/04/23 08:12:06.9     -98   -104     52    144    153 223.2  20.4  33998  286.84 0855.48
2009/04/23 08:12:07.0    -113    -57     71    127    145 242.9  31.4  33998  286.84 0855.48
2009/04/23 08:12:07.1     -78    -61     80    100    128 231.8  43.7  33998  286.83 0855.48
2009/04/23 08:12:07.2     -91   -104    100    139    171 221.0  39.3  34000  286.86 0855.48
2009/04/23 08:12:07.3     -34   -168     74    172    187 191.6  24.9  33998  286.84 0855.48
2009/04/23 08:12:07.4     -30   -127     82    131    154 193.4  35.5  33996  286.81 0855.47
2009/04/23 08:12:07.5       0   -138     40    139    145 180.4  16.3  34000  286.86 0855.47
2009/04/23 08:12:07.6      17   -114      9    116    117 171.1   4.9  33998  286.84 0855.47
2009/04/23 08:12:07.7      12   -105     39    106    112 173.3  20.4  33998  286.84 0855.47
2009/04/23 08:12:07.8      68    -93     22    116    119 144.0  11.1  33998  286.84 0855.47
2009/04/23 08:12:07.9      83    -76     38    113    120 132.7  18.9  33998  286.84 0855.47
2009/04/23 08:12:08.0      96    -58     -6    113    114 121.1  -3.2  33998  286.84 0855.47
2009/04/23 08:12:08.1      69    -14     -1     71     72 101.5  -1.3  34000  286.86 0855.47
2009/04/23 08:12:08.2      51    -17      8     54     55 108.4   9.0  34000  286.86 0855.47
2009/04/23 08:12:08.3      38      0     25     39     46  89.2  35.6  34000  286.86 0855.47
2009/04/23 08:12:08.4      29     25     29     39     48  48.7  40.7  33998  286.84 0855.47
2009/04/23 08:12:08.5      19     43     19     48     51  23.6  22.0  33998  286.84 0855.47
2009/04/23 08:12:08.6       7     56     21     57     60   8.0  21.0  34000  286.88 0855.47
2009/04/23 08:12:08.7      30     75     26     81     86  21.8  17.9  33998  286.84 0855.47
2009/04/23 08:12:08.8       0    106     -9    107    108 359.6  -5.2  33996  286.81 0855.47
2009/04/23 08:12:08.9       0     87    -25     88     91   0.5 -20.7  33998  286.84 0855.47
2009/04/23 08:12:09.0      24     73    -41     78     88  18.7 -34.2  33998  286.84 0855.47
2009/04/23 08:12:09.1      41     64    -47     77     90  32.6 -39.4  33996  286.81 0855.47
2009/04/23 08:12:09.2      51     27    -35     58     67  62.0 -38.8  33998  286.83 0855.47
2009/04/23 08:12:09.3      32      7    -49     33     59  76.7 -67.0  33998  286.83 0855.47
2009/04/23 08:12:09.4     -36      6    -16     37     40 279.7 -29.5  33994  286.78 0855.47
2009/04/23 08:12:09.5    -122      3     47    123    131 271.7  21.5  33994  286.76 0855.47
2009/04/23 08:12:09.6     -54      0    -14     55     57 270.0 -14.5  33994  286.78 0855.47
2009/04/23 08:12:09.7     -96    -21    -42     99    107 257.2 -28.0  33992  286.74 0855.47
2009/04/23 08:12:09.8     -38    -70     37     80     88 208.9  26.2  33996  286.79 0855.47
2009/04/23 08:12:09.9      57    -88     19    105    107 147.0  10.6  33996  286.79 0855.47
2009/04/23 08:12:10.0     141    -49     -4    150    151 109.1  -1.8  33994  286.78 0855.47
2009/04/23 08:12:10.1     159   -114    -14    197    198 125.7  -4.1  33996  286.79 0855.47
2009/04/23 08:12:10.2      91   -212    -62    231    240 156.8 -15.0  33996  286.79 0855.47
2009/04/23 08:12:10.3     110   -199     -4    228    229 151.0  -1.1  33994  286.76 0855.47
2009/04/23 08:12:10.4     113   -107     46    156    163 133.6  16.6  33998  286.84 0855.46
2009/04/23 08:12:10.5     185   -104      6    213    214 119.3   1.8  33996  286.81 0855.46
2009/04/23 08:12:10.6     168    -56      1    178    179 108.4   0.5  33996  286.81 0855.46
2009/04/23 08:12:10.7     130    -22     -7    132    133  99.6  -3.1  33994  286.76 0855.46
2009/04/23 08:12:10.8     148     15     30    149    153  83.9  11.4  33994  286.76 0855.46
2009/04/23 08:12:10.9     105      6     41    106    113  86.5  22.0  33994  286.76 0855.46
2009/04/23 08:12:11.0      11    -35    108     37    114 161.3  81.2  33994  286.78 0855.46
2009/04/23 08:12:11.1     -14    -43    104     46    113 198.5  74.5  33998  286.84 0855.46
2009/04/23 08:12:11.2     -80    -85     59    117    131 223.3  28.7  33994  286.76 0855.46
2009/04/23 08:12:11.3    -153    -58     58    164    175 249.2  19.6  33994  286.78 0855.46
2009/04/23 08:12:11.4     -89    -20     48     92    103 257.2  30.3  33992  286.74 0855.46
2009/04/23 08:12:11.5     -27    -44    104     52    116 211.6  71.9  33994  286.78 0855.46
2009/04/23 08:12:11.6     -85      5    113     86    142 273.9  59.0  33988  286.66 0855.46
2009/04/23 08:12:11.7    -144    -21     27    146    149 261.6  10.6  33992  286.73 0855.46
2009/04/23 08:12:11.8    -107     21     -6    110    111 281.4  -3.1  33994  286.76 0855.46
2009/04/23 08:12:11.9    -140     43      7    147    148 287.3   2.8  33990  286.69 0855.46
2009/04/23 08:12:12.0    -164     13     61    165    175 274.6  21.3  33986  286.62 0855.46
2009/04/23 08:12:12.1     -87     35     42     94    102 292.2  25.7  33988  286.67 0855.46
2009/04/23 08:12:12.2     -15     -8    113     18    114 241.1  90.0  33992  286.73 0855.46
2009/04/23 08:12:12.3       0      0    112      0    112   0.0  90.0  33992  286.74 0855.46
2009/04/23 08:12:12.4      44    -14    104     47    114 108.2  74.0  33994  286.76 0855.46
2009/04/23 08:12:12.5      22    -66     32     70     76 161.3  27.1  33992  286.73 0855.46
2009/04/23 08:12:12.6      40    -63     -2     75     76 147.4  -2.2  33992  286.73 0855.46
2009/04/23 08:12:12.7      85    -54    -12    101    102 122.4  -7.3  33992  286.73 0855.46
2009/04/23 08:12:12.8      80    -89      5    120    121 138.1   2.8  33992  286.74 0855.46
2009/04/23 08:12:12.9      63    -87      5    108    109 143.9   2.8  33992  286.73 0855.46
2009/04/23 08:12:13.0      75    -62     40     98    105 129.6  23.1  33994  286.76 0855.46
2009/04/23 08:12:13.1      77    -64     49    101    112 129.5  27.3  33990  286.71 0855.46
2009/04/23 08:12:13.2      69    -89     35    113    119 142.2  17.3  33992  286.74 0855.46
2009/04/23 08:12:13.3      58    -83     12    102    103 145.3   7.1  33992  286.74 0855.46
2009/04/23 08:12:13.4      82    -60      0    102    103 126.4  -0.3  33992  286.73 0855.46
2009/04/23 08:12:13.5      74    -69      2    102    103 132.7   1.2  33992  286.74 0855.46
2009/04/23 08:12:13.6      67    -66     -6     95     96 134.6  -3.7  33992  286.73 0855.46
2009/04/23 08:12:13.7      62    -13     13     64     66 102.4  12.2  33992  286.74 0855.46
2009/04/23 08:12:13.8      63     -8     49     64     80  97.9  41.2  33992  286.73 0855.46
2009/04/23 08:12:13.9      58    -34     59     68     90 120.7  45.4  33992  286.74 0855.46
2009/04/23 08:12:14.0      71    -26     55     76     93 110.8  39.1  33992  286.74 0855.46
2009/04/23 08:12:14.1      89    -18     39     91     99 101.5  24.1  33994  286.78 0855.46
2009/04/23 08:12:14.2      47    -50     40     69     79 136.8  32.9  33994  286.76 0855.46
2009/04/23 08:12:14.3      41    -41     41     59     71 135.0  38.6  33994  286.76 0855.46
2009/04/23 08:12:14.4      67    -77     39    103    110 139.0  21.5  33990  286.71 0855.46
2009/04/23 08:12:14.5      93   -120     76    153    170 142.2  28.2  33990  286.71 0855.46
2009/04/23 08:12:14.6      91   -167     38    191    195 151.3  11.4  33994  286.76 0855.46
2009/04/23 08:12:14.7     101   -127    -10    163    164 141.7  -3.7  33994  286.76 0855.46
2009/04/23 08:12:14.8      57   -156     50    167    175 159.9  16.8  33992  286.73 0855.46
2009/04/23 08:12:14.9     149   -199     48    249    254 143.1  11.0  33996  286.80 0855.46
2009/04/23 08:12:15.0     139   -232     99    271    288 149.0  20.9  33996  286.80 0855.46
2009/04/23 08:12:15.1     103   -306    113    324    344 161.3  19.2  33996  286.81 0855.46
2009/04/23 08:12:15.2      79   -237    112    250    273 161.5  25.9  33998  286.84 0855.46
2009/04/23 08:12:15.3     100   -275    183    293    345 160.0  35.2  33996  286.80 0855.46
2009/04/23 08:12:15.4     173   -230    122    289    313 143.0  24.2  33992  286.74 0855.46
2009/04/23 08:12:15.5     188   -212    139    284    316 138.3  28.0  33994  286.75 0855.46
2009/04/23 08:12:15.6     183   -252     57    312    318 143.9  10.4  33994  286.77 0855.46
2009/04/23 08:12:15.7      17   -312     55    313    318 176.9  10.1  33986  286.63 0855.46
2009/04/23 08:12:15.8     -25   -355     55    356    361 184.1   8.9  33990  286.68 0855.46
2009/04/23 08:12:15.9      50   -355    -14    359    360 171.9  -2.2  33988  286.66 0855.46
2009/04/23 08:12:16.0     112   -297     62    318    325 159.3  11.1  33992  286.74 0855.46
2009/04/23 08:12:16.1      95   -231     48    250    255 157.5  11.0  33990  286.70 0855.46
2009/04/23 08:12:16.2      98   -207    -73    230    242 154.5 -17.6  33990  286.68 0855.46
2009/04/23 08:12:16.3     123   -169    -72    210    223 143.9 -18.9  33986  286.62 0855.46
2009/04/23 08:12:16.4      63   -186    -96    197    219 161.1 -32.2  33990  286.69 0855.48
2009/04/23 08:12:16.5      -5   -199    -67    200    210 181.6 -23.6  33988  286.66 0855.48
2009/04/23 08:12:16.6      12   -147      7    148    149 175.1   2.8  33988  286.66 0855.48
2009/04/23 08:12:16.7     -37   -113    -19    120    122 198.3  -9.4  33988  286.66 0855.48
2009/04/23 08:12:16.8     -45    -95    -22    106    109 205.4 -11.9  33986  286.64 0855.48
2009/04/23 08:12:16.9     -39   -102    -86    110    139 200.9 -46.1  33992  286.74 0855.48
2009/04/23 08:12:17.0      30   -112    -72    117    137 164.9 -39.4  33990  286.71 0855.48
2009/04/23 08:12:17.1      35    -44    -52     57     77 141.3 -52.3  33992  286.74 0855.48
2009/04/23 08:12:17.2     -36      0    -67     37     76 270.0 -73.2  33992  286.73 0855.48
2009/04/23 08:12:17.3     -80    -26    -65     85    107 251.6 -45.6  33990  286.69 0855.48
2009/04/23 08:12:17.4     -48    -46    -47     67     81 226.0 -43.0  33990  286.71 0855.48
2009/04/23 08:12:17.5      -1    -20    -50     21     54 184.5 -81.5  33992  286.74 0855.48
2009/04/23 08:12:17.6      -1    -37    -26     38     46 182.6 -42.0  33992  286.73 0855.48
2009/04/23 08:12:17.7      -5    -54     -8     55     56 186.2  -8.2  33990  286.71 0855.48
2009/04/23 08:12:17.8       1    -55     15     56     59 178.2  15.2  33990  286.69 0855.48
2009/04/23 08:12:17.9     -17    -53     -7     56     57 197.8  -7.2  33992  286.73 0855.48
2009/04/23 08:12:18.0     -14    -30     -1     34     35 205.4  -2.2  33990  286.71 0855.48
2009/04/23 08:12:18.1     -15    -25      2     30     31 210.7   4.9  33994  286.78 0855.48
2009/04/23 08:12:18.2       3    -13      3     14     15 164.9  15.3  33992  286.73 0855.48
2009/04/23 08:12:18.3       8    -25     -1     27     28 161.7  -3.1  33990  286.69 0855.48
2009/04/23 08:12:18.4      14     -9    -12     17     20 122.4 -44.1  33988  286.67 0855.47
2009/04/23 08:12:18.5      18      5     -8     19     20  71.8 -27.4  33990  286.71 0855.47
2009/04/23 08:12:18.6      13     12      0     18     19  46.7  -2.2  33992  286.73 0855.47
2009/04/23 08:12:18.7      25      8     -1     27     28  71.4  -2.2  33992  286.73 0855.47
2009/04/23 08:12:18.8      49      0      7     50     51  90.0   9.0  33990  286.71 0855.47
2009/04/23 08:12:18.9      35    -22     46     42     62 122.4  52.2  33990  286.69 0855.47
2009/04/23 08:12:19.0      49     21     29     54     61  66.5  31.3  33992  286.73 0855.47
2009/04/23 08:12:19.1      28     16     16     33     36  59.3  27.2  33990  286.71 0855.47
2009/04/23 08:12:19.2      18      1     -7     19     20  85.6 -25.4  33988  286.67 0855.47
2009/04/23 08:12:19.3      -9    -15    -30     18     35 212.6 -69.1  33990  286.69 0855.47
2009/04/23 08:12:19.4      22    -96    -72     99    122 167.1 -44.1  33990  286.71 0855.47
2009/04/23 08:12:19.5     -21    -39    -96     45    106 209.0 -77.5  33986  286.64 0855.47
2009/04/23 08:12:19.6       9    -68    -66     69     95 172.0 -53.4  33986  286.62 0855.47
2009/04/23 08:12:19.7      -8      8    -66     12     67 316.8 -90.0  33990  286.71 0855.47
2009/04/23 08:12:19.8      96    -47    -48    107    117 116.2 -30.1  33988  286.66 0855.47
2009/04/23 08:12:19.9     101    -22    -28    104    108 102.4 -15.5  33992  286.73 0855.47
2009/04/23 08:12:20.0     107    -28    -39    111    118 105.0 -19.7  33992  286.74 0855.47
2009/04/23 08:12:20.1     113     -8    -46    114    122  94.4 -27.4  33988  286.67 0855.47
2009/04/23 08:12:20.2     101     58    -65    117    133  59.8 -35.8  33990  286.71 0855.47
2009/04/23 08:12:20.3      55     86    -82    103    131  32.6 -47.7  33990  286.69 0855.47
2009/04/23 08:12:20.5     -45     74    -43     87     97 328.8 -32.2  33992  286.74 0855.41
2009/04/23 08:12:20.5     -35     71    -35     80     87 333.7 -29.0  33992  286.73 0855.41
2009/04/23 08:12:20.6      -3     46    -31     47     56 355.5 -40.0  33990  286.69 0855.41
2009/04/23 08:12:20.7      27     45    -19     53     57  31.6 -19.7  33990  286.71 0855.41
2009/04/23 08:12:20.9      35     64     -1     74     75  29.0  -1.3  33992  286.73 0855.41
2009/04/23 08:12:21.0      41    136      7    143    144  16.9   2.9  33990  286.71 0855.41
2009/04/23 08:12:21.1     -42    116     -4    124    125 340.0  -2.2  33988  286.67 0855.41
2009/04/23 08:12:21.2     -24    118     42    121    129 348.4  19.4  33990  286.69 0855.41
2009/04/23 08:12:21.3     -51    107     31    119    124 334.1  14.7  33992  286.74 0855.41
2009/04/23 08:12:21.4     -65     63     -3     91     92 314.0  -2.2  33992  286.74 0855.41
2009/04/23 08:12:21.5     -82      0    -28     83     87 270.4 -23.6  33986  286.64 0855.41
2009/04/23 08:12:21.6     -65     21    -56     69     88 288.4 -48.1  33986  286.62 0855.41
2009/04/23 08:12:21.7     -83     69    -24    109    112 309.6 -12.9  33988  286.66 0855.41
2009/04/23 08:12:21.8     -93     93    -30    132    136 315.0 -12.9  33984  286.59 0855.41
2009/04/23 08:12:21.9     -86    110    -13    140    141 322.1  -5.6  33988  286.66 0855.41
2009/04/23 08:12:22.0     -40    101     10    109    110 338.2   5.4  33988  286.67 0855.41
2009/04/23 08:12:22.1     -33    101     42    107    114 341.7  22.0  33992  286.73 0855.41
2009/04/23 08:12:22.2     -25     78     28     82     87 342.2  19.4  33990  286.69 0855.41
2009/04/23 08:12:22.3     -52     63     55     83     99 320.4  36.5  33986  286.62 0855.41
2009/04/23 08:12:22.4     -84     85     77    120    142 315.5  35.6  33990  286.71 0855.41
2009/04/23 08:12:22.5    -100     63     91    119    149 302.5  41.6  33990  286.69 0855.38
2009/04/23 08:12:22.6     -98     73     44    123    130 306.9  20.0  33990  286.69 0855.38
2009/04/23 08:12:22.7     -72    131    -52    150    158 331.0 -24.4  33992  286.73 0855.38
2009/04/23 08:12:22.8     -85     83    -61    119    133 314.4 -33.7  33992  286.74 0855.38
2009/04/23 08:12:22.9     -58     20     -3     62     63 289.1  -3.1  33988  286.67 0855.38
2009/04/23 08:12:23.0     -92     22     15     95     97 283.7   9.5  33992  286.73 0855.38
2009/04/23 08:12:23.1     -97     51     -6    110    111 298.0  -3.1  33988  286.67 0855.38
2009/04/23 08:12:23.2     -66    101    -16    121    123 326.6  -7.7  33990  286.69 0855.38
2009/04/23 08:12:23.3     -70     44     14     83     85 302.4  10.1  33988  286.66 0855.38
2009/04/23 08:12:23.4    -107    -34     21    113    115 252.3  10.6  33992  286.73 0855.38
2009/04/23 08:12:23.5    -111    -22    -10    114    115 258.5  -5.2  33988  286.66 0855.38
2009/04/23 08:12:23.6    -123    -11    -36    124    129 264.8 -21.7  33986  286.62 0855.38
2009/04/23 08:12:23.7    -103    -25    -38    106    113 256.3 -19.7  33986  286.62 0855.38
2009/04/23 08:12:23.8     -98     -7     -4     99    100 265.7  -2.6  33988  286.67 0855.38
2009/04/23 08:12:23.9    -127     -9      1    128    129 265.6   0.7  33986  286.62 0855.38
2009/04/23 08:12:24.0    -142      7     43    143    150 273.0  16.8  33982  286.56 0855.38
2009/04/23 08:12:24.1    -137     53     41    148    154 291.3  15.8  33988  286.66 0855.38
2009/04/23 08:12:24.2    -138     55     54    149    158 291.7  20.7  33992  286.73 0855.38
2009/04/23 08:12:24.3    -130     54     63    141    154 292.6  26.2  33992  286.73 0855.38
2009/04/23 08:12:24.4    -120     54     46    132    140 294.4  19.4  33990  286.71 0855.38
2009/04/23 08:12:24.5    -121     57     70    134    151 295.2  29.3  33990  286.71 0855.39
2009/04/23 08:12:24.6    -111     61     87    127    153 298.9  37.6  33992  286.73 0855.39
2009/04/23 08:12:24.7     -93     87     59    128    140 313.1  26.6  33990  286.71 0855.39
2009/04/23 08:12:24.8     -92     78     91    121    151 310.4  41.2  33994  286.76 0855.39
2009/04/23 08:12:24.9     -70    100     33    123    128 324.8  15.3  33992  286.73 0855.39
2009/04/23 08:12:25.0    -106     95     13    143    144 311.8   5.4  33992  286.73 0855.39
2009/04/23 08:12:25.1    -109    138      2    177    178 321.7   0.8  33996  286.81 0855.39
2009/04/23 08:12:25.2    -111     91     12    144    145 309.5   5.0  33994  286.76 0855.39
2009/04/23 08:12:25.3    -128    126     28    180    183 314.6   9.0  33992  286.74 0855.39
2009/04/23 08:12:25.4    -167    128     13    211    212 307.5   3.6  33994  286.76 0855.39
2009/04/23 08:12:25.5    -170    103     17    200    201 301.3   4.9  33992  286.74 0855.39
2009/04/23 08:12:25.6    -171     36     61    175    186 281.9  19.2  33990  286.71 0855.39
2009/04/23 08:12:25.7    -169     47     -6    176    177 285.7  -2.1  33996  286.81 0855.39
2009/04/23 08:12:25.8    -161     83     33    182    185 297.3  10.3  34004  286.93 0855.39
2009/04/23 08:12:25.9    -122     48     46    132    140 291.7  19.2  33998  286.83 0855.39
2009/04/23 08:12:26.0    -109    -43     38    118    125 248.2  17.9  33992  286.74 0855.39
2009/04/23 08:12:26.1     -66    -66     19     94     97 225.4  11.6  33994  286.78 0855.39
2009/04/23 08:12:26.2     -45    -27     18     53     57 239.3  18.9  33994  286.76 0855.39
2009/04/23 08:12:26.3     -12      0     13     13     18 270.0  50.1  33990  286.71 0855.39
2009/04/23 08:12:26.4     -45     -1      6     46     47 268.3   8.0  33990  286.71 0855.39
2009/04/23 08:12:26.5     -26     77     10     82     83 340.8   7.5  33988  286.66 0855.40
2009/04/23 08:12:26.6       0     98     64     99    117 359.6  35.6  33988  286.67 0855.40
2009/04/23 08:12:26.7     -21     64     38     68     77 341.7  31.4  33988  286.67 0855.40
2009/04/23 08:12:26.8     -43    -14     51     46     68 251.8  52.2  33990  286.71 0855.40
2009/04/23 08:12:26.9     -61    -43     37     75     83 234.9  28.2  33990  286.69 0855.40
2009/04/23 08:12:27.0     -73    -61     37     96    102 230.0  22.0  33990  286.69 0855.40
2009/04/23 08:12:27.1    -112     15     18    114    116 278.0   9.0  33994  286.76 0855.40
2009/04/23 08:12:27.2     -82     36     25     90     94 294.0  15.8  33992  286.73 0855.40
2009/04/23 08:12:27.3     -43     52     24     68     73 320.3  19.4  33992  286.73 0855.40
2009/04/23 08:12:27.4     -42     46     26     63     68 317.7  23.0  33992  286.73 0855.40
2009/04/23 08:12:27.5     -31     41     30     52     60 322.2  32.4  33994  286.76 0855.40
2009/04/23 08:12:27.6       0     32     64     33     72 359.1  71.9  33994  286.78 0855.40
2009/04/23 08:12:27.7     -12     54     82     56     99 347.5  62.1  33998  286.83 0855.40
2009/04/23 08:12:27.8     -24     60     70     65     95 338.2  52.2  34000  286.88 0855.40
2009/04/23 08:12:27.9      19     64     57     67     87  16.9  44.8  33998  286.83 0855.40
2009/04/23 08:12:28.0       6     58     31     59     66   6.2  30.3  33996  286.81 0855.40
2009/04/23 08:12:28.1      11     34     58     36     68  18.7  64.7  33994  286.78 0855.40
2009/04/23 08:12:28.2       6     42     67     43     79   8.9  64.1  33998  286.83 0855.40
2009/04/23 08:12:28.3       6     47     62     48     78   8.0  57.9  33998  286.83 0855.40
2009/04/23 08:12:28.4      57     31     51     66     83  61.2  41.7  34006  286.96 0855.40
2009/04/23 08:12:28.5      64     21     -2     68     69  71.4  -2.2  34000  286.88 0855.41
2009/04/23 08:12:28.6      88     56    -31    105    110  57.1 -16.6  34012  287.08 0855.41
2009/04/23 08:12:28.7      88     84     22    122    125  46.4  10.6  34002  286.91 0855.41
2009/04/23 08:12:28.8      92    104     88    139    164  41.5  35.5  34010  287.05 0855.41
2009/04/23 08:12:28.9     171     78     90    189    209  65.4  27.2  34006  286.98 0855.41
2009/04/23 08:12:29.0     173    114     59    208    217  56.5  15.8  34008  287.00 0855.41
2009/04/23 08:12:29.1     124     64     98    140    170  62.5  38.6  34010  287.05 0855.41
2009/04/23 08:12:29.2     111     31     48    116    125  74.1  23.6  34012  287.08 0855.41
2009/04/23 08:12:29.3      81     30    -11     87     88  69.6  -7.2  34012  287.06 0855.41
2009/04/23 08:12:29.4     137     40     53    143    152  73.6  21.0  34010  287.05 0855.41
2009/04/23 08:12:29.5     127     42     35    135    140  71.4  14.7  34010  287.05 0855.41
2009/04/23 08:12:29.6     118     50     71    129    147  66.9  31.3  34008  287.01 0855.41
2009/04/23 08:12:29.7     183     55     72    192    205  73.2  21.0  34010  287.03 0855.41
2009/04/23 08:12:29.8     155    109     82    190    206  54.7  25.1  34006  286.98 0855.41
2009/04/23 08:12:29.9     242     44     26    246    248  79.6   6.1  34012  287.06 0855.41
2009/04/23 08:12:30.0     248     93     82    266    279  69.4  17.3  34010  287.04 0855.41
2009/04/23 08:12:30.1     204     96     90    226    243  64.6  22.8  34010  287.02 0855.41
2009/04/23 08:12:30.2     180    101     98    207    229  60.7  27.2  34012  287.06 0855.41
2009/04/23 08:12:30.3     171    133    100    217    238  52.2  26.4  34014  287.11 0855.41
2009/04/23 08:12:30.4     177    112     89    210    228  57.6  24.3  34038  287.50 0855.41
2009/04/23 08:12:30.5     136     81     91    159    183  59.3  32.4  34070  288.04 0855.41
2009/04/23 08:12:30.6     153     68    108    168    199  66.0  35.7  34062  287.92 0855.41
2009/04/23 08:12:30.7     172     86     80    193    208  63.4  23.6  34032  287.42 0855.41
2009/04/23 08:12:30.8     134     81     81    157    176  58.9  29.3  34048  287.69 0855.41
2009/04/23 08:12:30.9     135     44    122    143    187  71.8  44.8  34046  287.65 0855.41
2009/04/23 08:12:31.0     145     81    133    167    213  60.9  42.7  34066  287.99 0855.41
2009/04/23 08:12:31.1     147     91    124    174    213  58.2  39.1  34050  287.70 0855.41
2009/04/23 08:12:31.2     147     68    116    162    199  65.2  39.3  34050  287.70 0855.41
2009/04/23 08:12:31.3     114     73    108    136    173  57.1  42.7  34052  287.76 0855.41
2009/04/23 08:12:31.4     146     76     75    165    181  62.2  26.2  34036  287.49 0855.41
2009/04/23 08:12:31.5     162     94     60    188    198  60.0  17.7  34030  287.37 0855.41
2009/04/23 08:12:31.6     139     76     51    159    168  61.1  17.9  34034  287.43 0855.41
2009/04/23 08:12:31.7     124     52     45    135    143  66.9  18.4  34030  287.37 0855.41
2009/04/23 08:12:31.8     134     57      7    146    147  66.9   2.8  34028  287.33 0855.41
2009/04/23 08:12:31.9      99     93     26    136    139  46.8  11.1  34056  287.81 0855.41
2009/04/23 08:12:32.0      77     89     49    118    127  41.0  23.6  34066  287.99 0855.41
2009/04/23 08:12:32.1     105     92     25    140    143  48.7  10.1  34066  287.99 0855.41
2009/04/23 08:12:32.2      70     68     27     98    102  46.0  15.8  34068  288.01 0855.41
2009/04/23 08:12:32.3      50     39     28     64     69  52.2  26.2  34068  288.01 0855.41
2009/04/23 08:12:32.4      22     11     51     25     56  62.9  72.8  34066  287.98 0855.41
2009/04/23 08:12:32.5      27     22     48     35     59  50.5  60.5  34064  287.94 0855.41
2009/04/23 08:12:32.6      33     40     35     53     63  39.6  36.5  34066  287.98 0855.41
2009/04/23 08:12:32.7      18     55     25     59     64  18.7  23.1  34066  287.99 0855.41
2009/04/23 08:12:32.8      52     95     21    109    112  29.0  11.1  34058  287.86 0855.41
2009/04/23 08:12:32.9     107    109     10    153    154  44.5   3.8  34064  287.96 0855.41
2009/04/23 08:12:33.0     117    156     65    196    207  37.0  18.6  34100  288.57 0855.41
2009/04/23 08:12:33.1     140    180     75    229    242  37.9  18.1  34100  288.56 0855.41
2009/04/23 08:12:33.2      92    179     69    202    214  27.2  18.9  34102  288.58 0855.41
2009/04/23 08:12:33.3     137    129    128    189    228  46.9  37.4  34096  288.48 0855.41
2009/04/23 08:12:33.4     157    115     65    195    206  53.8  18.4  34116  288.84 0855.41
2009/04/23 08:12:33.5     162    103     60    193    203  57.5  17.4  34114  288.79 0855.43
2009/04/23 08:12:33.6     123    107     71    164    178  48.9  24.6  34100  288.55 0855.43
2009/04/23 08:12:33.7     116    108     75    159    175  46.9  27.1  34088  288.36 0855.43
2009/04/23 08:12:33.8     115     83     72    142    159  54.1  29.1  34106  288.67 0855.43
2009/04/23 08:12:33.9     100     84     76    131    151  50.0  32.9  34128  289.02 0855.43
2009/04/23 08:12:34.0     100    128     52    163    172  37.9  17.9  34084  288.30 0855.43
2009/04/23 08:12:34.1     127    139     30    189    192  42.3   9.0  34100  288.57 0855.43
2009/04/23 08:12:34.2     149    154    -25    215    217  43.9  -6.9  34100  288.57 0855.43
2009/04/23 08:12:34.3     137    129      0    189    190  46.8   0.0  34102  288.58 0855.43
2009/04/23 08:12:34.4     124    126     19    178    180  44.5   6.1  34106  288.67 0855.43
2009/04/23 08:12:34.5     187    127    -12    227    228  55.8  -3.1  34088  288.35 0855.43
2009/04/23 08:12:34.6     189    177     22    259    261  46.9   4.9  34086  288.31 0855.43
2009/04/23 08:12:34.7     217    169     12    276    277  52.2   2.5  34100  288.54 0855.43
2009/04/23 08:12:34.8     188    186     33    265    268  45.3   7.1  34096  288.49 0855.43
2009/04/23 08:12:34.9     248    137     83    284    296  61.1  16.3  34072  288.09 0855.43
2009/04/23 08:12:35.0     233    232     93    330    343  45.1  15.8  34074  288.10 0855.43
2009/04/23 08:12:35.1     236    235     74    334    343  45.1  12.5  34058  287.86 0855.43
2009/04/23 08:12:35.2     276    211     45    348    351  52.6   7.5  34018  287.17 0855.43
2009/04/23 08:12:35.3     242    206     49    319    323  49.6   8.9  34018  287.17 0855.43
2009/04/23 08:12:35.4     294    193     61    352    358  56.7   9.9  34016  287.13 0855.43
2009/04/23 08:12:35.5     301    161     32    342    344  61.8   5.5  34014  287.10 0855.41
2009/04/23 08:12:35.6     281    181     83    335    346  57.1  13.9  34000  286.86 0855.41
2009/04/23 08:12:35.7     301    158     30    341    343  62.2   5.1  34026  287.32 0855.41
2009/04/23 08:12:35.8     310    172     37    355    358  60.9   6.1  34052  287.74 0855.41
2009/04/23 08:12:35.9     315    167      5    357    358  62.0   0.8  34048  287.69 0855.41
2009/04/23 08:12:36.0     328    138     20    356    357  67.2   3.3  34048  287.69 0855.41
2009/04/23 08:12:36.1     315    127     21    340    341  67.9   3.6  34046  287.64 0855.41
2009/04/23 08:12:36.2     319    154      0    355    356  64.1   0.1  34052  287.76 0855.41
2009/04/23 08:12:36.3     314    137     50    343    347  66.4   8.3  34058  287.83 0855.41
2009/04/23 08:12:36.4     344    219     38    409    411  57.5   5.4  34040  287.53 0855.41
2009/04/23 08:12:36.5     304    191     75    360    368  57.9  11.8  34028  287.35 0855.41
2009/04/23 08:12:36.6     312    191     53    367    371  58.5   8.3  34022  287.25 0855.41
2009/04/23 08:12:36.7     346    199    108    400    415  60.1  15.2  34042  287.57 0855.41
2009/04/23 08:12:36.8     476    281    118    553    566  59.4  12.1  34046  287.65 0855.41
2009/04/23 08:12:36.9     435    269     70    512    517  58.2   7.8  34046  287.63 0855.41
2009/04/23 08:12:37.0     434    189    129    474    492  66.5  15.3  34056  287.81 0855.41
2009/04/23 08:12:37.1     448    131     91    467    476  73.6  11.1  34026  287.29 0855.41
2009/04/23 08:12:37.2     403    253    -15    476    477  57.9  -1.9  34026  287.32 0855.41
2009/04/23 08:12:37.3     376    295    -94    478    488  51.9 -11.2  34028  287.34 0855.41
2009/04/23 08:12:37.4     438    260     39    510    512  59.3   4.4  34024  287.27 0855.41
2009/04/23 08:12:37.5     404    334     11    525    526  50.4   1.2  34014  287.11 0855.40
2009/04/23 08:12:37.6     390    229     30    453    454  59.5   3.8  34000  286.87 0855.40
2009/04/23 08:12:37.7     407    262    120    485    500  57.2  13.9  34006  286.97 0855.40
2009/04/23 08:12:37.8     506    254     97    567    576  63.3   9.7  34022  287.22 0855.40
2009/04/23 08:12:37.9     465    259     55    533    536  60.9   5.9  34042  287.57 0855.40
2009/04/23 08:12:38.0     493    320      5    589    590  57.0   0.5  34014  287.11 0855.40
2009/04/23 08:12:38.1     490    217      6    537    538  66.1   0.7  34012  287.06 0855.40
2009/04/23 08:12:38.2     586    289    125    654    666  63.7  10.8  34030  287.38 0855.40
2009/04/23 08:12:38.3     653    238     35    696    697  69.9   2.9  34036  287.47 0855.40
2009/04/23 08:12:38.4     545    183     71    576    581  71.4   7.1  34040  287.53 0855.40
2009/04/23 08:12:38.5     535    252     69    592    597  64.8   6.7  34008  286.99 0855.40
2009/04/23 08:12:38.6     493    303    112    579    590  58.4  11.0  34020  287.19 0855.40
2009/04/23 08:12:38.7     431    151    106    457    470  70.6  13.1  34046  287.63 0855.40
2009/04/23 08:12:38.8     402    311     31    509    510  52.3   3.5  34042  287.58 0855.40
2009/04/23 08:12:38.9     530    222     29    575    576  67.3   2.9  34044  287.61 0855.40
2009/04/23 08:12:39.0     322    177    198    368    417  61.1  30.7  34064  287.93 0855.40
2009/04/23 08:12:39.1     358    119    302    378    483  71.5  42.7  34074  288.11 0855.40
2009/04/23 08:12:39.2     361    104    215    376    433  73.9  32.4  34060  287.89 0855.40
2009/04/23 08:12:39.3     510    223    305    557    635  66.4  31.0  34060  287.87 0855.40
2009/04/23 08:12:39.4     390    223    239    450    509  60.2  30.2  34070  288.05 0855.40
2009/04/23 08:12:39.5     501    231    243    552    603  65.2  25.2  34034  287.44 0855.40
2009/04/23 08:12:39.6     512    321    265    605    660  57.9  25.2  34050  287.72 0855.40
2009/04/23 08:12:39.7     604    381     22    715    716  57.8   1.8  34004  286.92 0855.40
2009/04/23 08:12:39.8     565    318     42    649    651  60.6   3.7  34010  287.03 0855.40
2009/04/23 08:12:39.9     553    258    102    611    620  65.0   9.5  34006  286.98 0855.40
2009/04/23 08:12:40.0     508    311     51    596    599  58.5   5.0  34012  287.06 0855.40
2009/04/23 08:12:40.1     529    294      3    606    607  60.9   0.4  34004  286.92 0855.40
2009/04/23 08:12:40.2     504    201      6    543    544  68.2   0.7  34002  286.91 0855.40
2009/04/23 08:12:40.3     454    131      6    473    474  73.9   0.8  34000  286.88 0855.40
2009/04/23 08:12:40.4     433    142    -15    456    457  71.8  -1.9  34002  286.91 0855.40
2009/04/23 08:12:40.5     340     35     -4    342    343  84.0  -0.7  34014  287.10 0855.40
2009/04/23 08:12:40.6     250     95     99    268    285  69.2  21.0  34022  287.24 0855.40
2009/04/23 08:12:40.7     313     90    170    326    367  73.8  29.6  34016  287.15 0855.40
2009/04/23 08:12:40.8     300    118    167    323    363  68.5  29.3  34018  287.18 0855.40
2009/04/23 08:12:40.9     241    133    168    276    323  61.2  34.3  34008  286.99 0855.40
2009/04/23 08:12:41.0     180     21     98    182    206  83.2  30.8  34012  287.06 0855.40
2009/04/23 08:12:41.1     209    117      3    240    241  60.7   0.8  34012  287.07 0855.40
2009/04/23 08:12:41.2     282    112     81    304    315  68.3  15.0  34004  286.94 0855.40
2009/04/23 08:12:41.3     179    -19     54    181    189  96.1  16.6  34016  287.13 0855.40
2009/04/23 08:12:41.4     217    -16     87    218    234  94.4  22.8  34020  287.21 0855.40
2009/04/23 08:12:41.5     183     -6     79    184    200  91.9  24.9  34006  286.98 0855.40
2009/04/23 08:12:41.6     170      4     60    171    182  88.5  19.4  34008  287.00 0855.40
2009/04/23 08:12:41.7     139    -32     78    143    162 103.2  31.0  34006  286.98 0855.40
2009/04/23 08:12:41.8     173    -38    103    178    205 102.6  32.9  34002  286.89 0855.40
2009/04/23 08:12:41.9     189    -28    116    192    224  98.6  34.2  34000  286.88 0855.40
2009/04/23 08:12:42.0     180     -5    117    181    215  91.7  35.7  33998  286.84 0855.40
2009/04/23 08:12:42.1     170   -140    163    221    274 129.6  40.1  34020  287.19 0855.40
2009/04/23 08:12:42.2      47    -59    147     76    165 141.3  70.6  34004  286.94 0855.40
2009/04/23 08:12:42.3      42    -83    109     94    143 153.3  54.3  34020  287.21 0855.40
2009/04/23 08:12:42.4      41    -64    128     77    149 147.5  66.2  34024  287.27 0855.40
2009/04/23 08:12:42.5       6    -68    101     69    122 174.7  62.6  34018  287.18 0855.40
2009/04/23 08:12:42.6      46     34     76     58     95  53.1  58.5  34010  287.05 0855.40
2009/04/23 08:12:42.7      12     18     96     22     98  34.3  87.5  34008  287.01 0855.40
2009/04/23 08:12:42.8      11    -35    104     37    110 161.7  80.7  34016  287.15 0855.40
2009/04/23 08:12:42.9      26     41     72     49     87  32.5  63.2  34012  287.08 0855.40
2009/04/23 08:12:43.0      -3     70     64     71     95 357.3  46.9  34008  287.00 0855.40
2009/04/23 08:12:43.1      -7     86     53     87    101 355.1  34.4  34008  287.01 0855.40
2009/04/23 08:12:43.2      30     64     63     71     94  25.3  46.4  34006  286.96 0855.40
2009/04/23 08:12:43.3     143    109    108    181    210  52.7  33.5  34016  287.15 0855.40
2009/04/23 08:12:43.4      73    114     69    136    152  32.5  28.7  34026  287.30 0855.40
2009/04/23 08:12:43.5     122     57    113    135    176  64.8  44.3  34018  287.18 0855.40
2009/04/23 08:12:43.6     168    105    156    199    252  58.0  42.0  34018  287.17 0855.40
2009/04/23 08:12:43.7     214    108    115    241    267  63.1  27.3  34022  287.22 0855.40
2009/04/23 08:12:43.8     140     92     40    168    173  56.7  13.7  34022  287.25 0855.40
2009/04/23 08:12:43.9      60    104     48    121    130  29.9  22.5  34020  287.20 0855.40
2009/04/23 08:12:44.0      92    113     87    146    169  39.2  33.7  34018  287.16 0855.40
2009/04/23 08:12:44.1      44    116     10    125    126  20.9   5.0  34022  287.23 0855.40
2009/04/23 08:12:44.2     -15     33     78     37     86 334.6  72.9  34020  287.21 0855.40
2009/04/23 08:12:44.3      39    -73    122     83    147 151.9  62.7  34014  287.11 0855.40
2009/04/23 08:12:44.4     -28    -13    156     32    159 244.8  89.0  34012  287.08 0855.40
2009/04/23 08:12:44.5      10     53     82     55     98  11.5  63.2  34010  287.05 0855.40
2009/04/23 08:12:44.6     119    272    -14    298    299  23.6  -2.8  34014  287.11 0855.40
2009/04/23 08:12:44.7      73    294     14    303    304  14.0   2.8  34016  287.14 0855.40
2009/04/23 08:12:44.8     135    304     34    333    335  24.1   6.0  34016  287.12 0855.40
2009/04/23 08:12:44.9      83    208    -61    225    234  21.9 -15.2  34008  287.01 0855.40
2009/04/23 08:12:45.0     -68     64    -96     94    134 313.1 -54.5  34016  287.15 0855.40
2009/04/23 08:12:45.1      80      1      5     81     82  89.2   3.8  34016  287.13 0855.40
2009/04/23 08:12:45.2     -56      6    -35     57     66 276.1 -39.9  34012  287.06 0855.40
2009/04/23 08:12:45.3     -83     40   -123     93    154 295.8 -63.4  34010  287.05 0855.40
2009/04/23 08:12:45.4     -84    -66   -127    107    166 231.8 -60.2  34006  286.96 0855.40
2009/04/23 08:12:45.5    -154    -92   -160    180    240 239.3 -50.8  34008  287.00 0855.41
2009/04/23 08:12:45.6    -142    -78    -78    163    180 241.2 -31.7  34006  286.98 0855.41
2009/04/23 08:12:45.7     -59   -197     34    206    209 196.7   9.5  34008  287.00 0855.41
2009/04/23 08:12:45.8     -65   -180    150    192    243 199.8  42.0  34004  286.93 0855.41
2009/04/23 08:12:45.9    -118   -199    136    232    268 210.8  33.1  34004  286.92 0855.41
2009/04/23 08:12:46.0     -12    -95    171     96    196 187.6  68.8  34008  287.01 0855.41
2009/04/23 08:12:46.1     -22    -76     99     80    127 196.0  56.9  34010  287.05 0855.41
2009/04/23 08:12:46.2     -36   -152    169    157    230 193.4  52.2  34006  286.98 0855.41
2009/04/23 08:12:46.3     -96   -235    251    254    357 202.3  49.9  34010  287.02 0855.41
2009/04/23 08:12:46.4    -140   -199    134    244    278 215.2  31.3  34006  286.95 0855.41
2009/04/23 08:12:46.5    -122   -236    146    266    303 207.4  31.3  34006  286.97 0855.41
2009/04/23 08:12:46.6    -161   -252    137    300    329 212.5  26.3  34014  287.09 0855.41
2009/04/23 08:12:46.8     -94   -161     93    187    208 210.5  28.5  34010  287.05 0855.41
2009/04/23 08:12:46.8      24   -141    124    144    190 170.3  45.1  34012  287.08 0855.41
2009/04/23 08:12:47.0      86   -143    131    167    212 149.0  42.0  34010  287.05 0855.41
2009/04/23 08:12:47.1      45   -120    150    129    197 159.5  54.8  34008  287.00 0855.41
2009/04/23 08:12:47.1      32   -209     47    212    218 171.1  12.6  34006  286.98 0855.41
2009/04/23 08:12:47.3     -31   -186     21    189    191 189.6   6.5  34008  287.00 0855.41
2009/04/23 08:12:47.4      -7     -7    200     11    200 225.0  90.0  34008  287.01 0855.41
2009/04/23 08:12:47.5      -7   -101    190    102    215 184.4  69.6  34008  287.00 0855.41
2009/04/23 08:12:47.6      80     -1    158     81    177  90.8  71.1  34008  287.01 0855.41
2009/04/23 08:12:47.7       0     53    176     54    184 359.1  82.3  34008  287.01 0855.41
2009/04/23 08:12:47.8     -49     78    175     93    198 327.5  69.8  34010  287.05 0855.41
2009/04/23 08:12:47.9     -30     84    155     90    179 340.4  67.5  34010  287.03 0855.41
2009/04/23 08:12:48.0     -54    -15    189     57    197 254.1  82.8  34012  287.06 0855.41
2009/04/23 08:12:48.1     -40    -73    183     84    201 209.0  74.0  34006  286.98 0855.41
2009/04/23 08:12:48.2     -36    107    186    113    217 341.3  66.0  34008  287.01 0855.41
2009/04/23 08:12:48.3     -65     89    139    111    177 323.9  57.5  34010  287.03 0855.41
2009/04/23 08:12:48.4    -195    -16    163    196    254 265.0  43.8  34010  287.04 0855.41
2009/04/23 08:12:48.5    -145   -132     99    197    220 227.6  28.7  34010  287.05 0855.41
2009/04/23 08:12:48.6    -202   -132    176    242    299 236.9  39.7  34014  287.09 0855.41
2009/04/23 08:12:48.7    -131   -201    165    241    292 213.2  37.6  34008  286.99 0855.41
2009/04/23 08:12:48.8     -87   -199    175    218    279 203.6  42.8  34006  286.97 0855.41
2009/04/23 08:12:48.9     -52    -22    152     57    162 246.5  78.9  34010  287.03 0855.41
2009/04/23 08:12:49.0       9     29    143     31    146  18.5  89.0  34018  287.18 0855.41
2009/04/23 08:12:49.1     207     64    105    217    241  72.7  27.8  34020  287.19 0855.41
2009/04/23 08:12:49.2     208     43    140    213    254  78.3  36.5  34038  287.50 0855.41
2009/04/23 08:12:49.3     179     27     79    182    198  81.4  24.9  34068  288.01 0855.41
2009/04/23 08:12:49.4     160     70    239    175    296  66.3  60.5  34086  288.32 0855.41
2009/04/23 08:12:49.5     154     11    189    155    244  85.6  56.4  34076  288.14 0855.41
2009/04/23 08:12:49.6     204     88     71    223    235  66.5  17.7  34070  288.06 0855.42
2009/04/23 08:12:49.7     203     72    115    216    244  70.3  30.2  34090  288.39 0855.42
2009/04/23 08:12:49.8     142     28     71    145    161  78.5  28.0  34078  288.20 0855.42
2009/04/23 08:12:49.9     102     56    146    117    187  61.1  56.9  34094  288.45 0855.42
2009/04/23 08:12:50.0     203     41     73    208    221  78.5  19.4  34080  288.23 0855.42
2009/04/23 08:12:50.1      54     58    132     80    154  43.3  65.1  34094  288.47 0855.42
2009/04/23 08:12:50.2     100     39    168    108    199  68.3  64.4  34096  288.48 0855.42
2009/04/23 08:12:50.3      79    -14    125     81    148 100.6  64.6  34084  288.28 0855.42
2009/04/23 08:12:50.4     105    -32    122    110    164 107.3  53.3  34074  288.11 0855.42
2009/04/23 08:12:50.5     151     16    148    152    212  83.8  49.8  34068  288.03 0855.42
2009/04/23 08:12:50.6     238     96    218    257    337  68.0  44.7  34100  288.56 0855.42
2009/04/23 08:12:50.7     295    185     33    349    351  57.9   5.5  34116  288.81 0855.42
2009/04/23 08:12:50.8     413     70    -23    419    420  80.3  -3.2  34062  287.92 0855.42
2009/04/23 08:12:50.9     306    193    208    362    417  57.7  32.4  34070  288.06 0855.42
2009/04/23 08:12:51.0     372    123    255    392    467  71.7  36.0  34074  288.12 0855.42
2009/04/23 08:12:51.1     406    133    167    428    459  71.8  22.5  34084  288.28 0855.42
2009/04/23 08:12:51.2     417    113    222    433    486  74.8  29.2  34090  288.37 0855.42
2009/04/23 08:12:51.3     450    128    150    468    492  74.1  17.8  34066  287.98 0855.42
2009/04/23 08:12:51.4     343    176    164    386    419  62.7  24.5  34070  288.04 0855.42
2009/04/23 08:12:51.5     410    209    149    461    485  63.0  17.9  34078  288.20 0855.42
2009/04/23 08:12:51.6     258    142    242    295    381  61.1  43.7  34094  288.45 0855.44
2009/04/23 08:12:51.7     380     76     69    388    395  78.6  10.1  34040  287.54 0855.44
2009/04/23 08:12:51.8     384    142     93    410    421  69.7  12.8  34044  287.60 0855.44
2009/04/23 08:12:51.9     471    133    145    490    512  74.2  16.5  34062  287.91 0855.44
2009/04/23 08:12:52.0     353    131    251    377    452  69.6  36.9  34082  288.24 0855.44
2009/04/23 08:12:52.1     416    107    154    430    456  75.5  20.6  34062  287.90 0855.44
2009/04/23 08:12:52.2     354     58    211    359    416  80.6  33.1  34052  287.74 0855.44
2009/04/23 08:12:52.3     302     23    207    303    366  85.6  37.6  34072  288.08 0855.44
2009/04/23 08:12:52.4     341    101    141    356    382  73.5  22.9  34058  287.84 0855.44
2009/04/23 08:12:52.5     283     52    121    288    312  79.5  23.9  34048  287.66 0855.44
2009/04/23 08:12:52.6     220     59    198    228    301  74.9  45.8  34060  287.88 0855.44
2009/04/23 08:12:52.7     244     59     99    252    270  76.3  22.8  34064  287.93 0855.44
2009/04/23 08:12:52.8      57     -4    131     58    143  94.4  75.0  34074  288.11 0855.44
2009/04/23 08:12:52.9     -11     47    119     49    128 346.6  76.6  34078  288.20 0855.44
2009/04/23 08:12:53.0     -36    -31    141     48    148 228.7  81.2  34068  288.01 0855.44
2009/04/23 08:12:53.1     105      3    145    106    179  88.3  60.5  34066  287.98 0855.44
2009/04/23 08:12:53.2     158    -23    203    160    258  98.4  57.9  34058  287.86 0855.44
2009/04/23 08:12:53.3     176     30    189    179    260  80.1  52.0  34048  287.66 0855.44
2009/04/23 08:12:53.4     205     81    172    221    280  68.5  41.7  34046  287.63 0855.44
2009/04/23 08:12:53.5     293     53    138    298    328  79.6  26.6  34038  287.51 0855.44
2009/04/23 08:12:53.6     104    -14    166    106    196  98.0  64.6  34028  287.33 0855.44
2009/04/23 08:12:53.7     131     16    148    132    198  83.0  53.7  34042  287.59 0855.44
2009/04/23 08:12:53.8     126    -21     35    128    133  99.7  15.3  34042  287.57 0855.44
2009/04/23 08:12:53.9      32    -30      2     44     45 133.1   3.8  34036  287.47 0855.44
2009/04/23 08:12:54.0     -17     48    -15     52     55 340.0 -16.6  34040  287.54 0855.44
2009/04/23 08:12:54.1       0      6      0      7      8 355.5  -2.2  34038  287.52 0855.44
2009/04/23 08:12:54.2    -103   -108    -53    150    160 223.7 -19.7  34006  286.96 0855.44
2009/04/23 08:12:54.3    -136   -159     -8    210    211 220.5  -2.3  34006  286.98 0855.44
2009/04/23 08:12:54.4    -130   -130     60    184    194 225.0  18.1  34018  287.16 0855.44
2009/04/23 08:12:54.5     -84   -125    151    151    213 213.8  50.1  34018  287.16 0855.44
2009/04/23 08:12:54.6      -4    -93    162     94    187 182.7  67.2  34014  287.11 0855.44
2009/04/23 08:12:54.7     -97   -104    164    143    217 223.2  54.3  34000  286.88 0855.44
2009/04/23 08:12:54.8     -10   -140    204    141    247 184.5  62.4  33998  286.83 0855.44
2009/04/23 08:12:54.9     -87   -120     81    149    169 216.0  30.8  34006  286.96 0855.44
2009/04/23 08:12:55.0     -41    -92     69    101    122 204.1  37.6  34008  287.01 0855.44
2009/04/23 08:12:55.1     -12    -86     -3     87     88 188.5  -2.2  34010  287.03 0855.44
2009/04/23 08:12:55.2      10    -20      0     23     24 152.8  -2.2  34016  287.15 0855.44
2009/04/23 08:12:55.3       0    -42     28     43     51 180.0  35.6  34014  287.10 0855.44
2009/04/23 08:12:55.4     -70    -45     41     84     93 237.5  27.3  34006  286.98 0855.44
2009/04/23 08:12:55.5     -76    -81     64    112    128 223.2  32.4  34010  287.05 0855.44
2009/04/23 08:12:55.6    -111    -61      6    127    128 241.1   2.8  34010  287.03 0855.44
2009/04/23 08:12:55.7    -147   -106     50    182    189 234.0  15.6  33996  286.79 0855.44
2009/04/23 08:12:55.8    -108   -116     50    159    167 222.8  17.7  33998  286.83 0855.44
2009/04/23 08:12:55.9    -116    -90     67    148    162 232.2  25.9  34004  286.93 0855.44
2009/04/23 08:12:56.0    -136    -88      0    163    164 237.1  -0.3  34014  287.10 0855.44
2009/04/23 08:12:56.1    -146    -33     44    150    157 257.2  16.3  34002  286.91 0855.44
2009/04/23 08:12:56.2     -96      5     88     97    130 273.0  46.9  34004  286.93 0855.44
2009/04/23 08:12:56.3    -132     -4     95    133    163 267.9  39.1  34004  286.94 0855.44
2009/04/23 08:12:56.4    -148    -30    111    151    187 258.5  39.9  34008  287.00 0855.44
2009/04/23 08:12:56.5    -166    -46     82    173    191 254.5  27.1  33998  286.84 0855.44
2009/04/23 08:12:56.6    -189    -72     39    203    207 249.2  11.1  33992  286.73 0855.42
2009/04/23 08:12:56.7    -227   -101    -24    249    251 246.0  -5.6  34002  286.89 0855.42
2009/04/23 08:12:56.8    -190    -39    -24    195    197 258.3  -7.2  34022  287.23 0855.42
2009/04/23 08:12:56.9    -170     -7    -47    171    178 267.4 -15.5  34008  287.00 0855.42
2009/04/23 08:12:57.0    -114     48     10    124    125 293.1   4.9  34006  286.98 0855.42
2009/04/23 08:12:57.1    -119     67     35    137    142 299.3  14.3  34004  286.94 0855.42
2009/04/23 08:12:57.2    -139     66     43    154    161 295.4  15.8  34006  286.98 0855.42
2009/04/23 08:12:57.3    -215     36     25    219    221 279.6   6.7  34006  286.98 0855.42
2009/04/23 08:12:57.4    -224     21     54    226    233 275.5  13.5  34004  286.93 0855.42
2009/04/23 08:12:57.5    -239    106     -5    262    263 294.0  -1.2  34004  286.94 0855.42
2009/04/23 08:12:57.6    -148    -40     19    154    156 254.9   7.1  34006  286.96 0855.42
2009/04/23 08:12:57.7     -15     91     20     93     96 350.2  12.2  34000  286.88 0855.42
2009/04/23 08:12:57.8      18    179    -11    180    181   5.8  -3.7  34014  287.10 0855.42
2009/04/23 08:12:57.9     -56    140     30    152    156 338.1  11.4  34012  287.06 0855.42
2009/04/23 08:12:58.0    -161     -2     54    162    171 269.1  18.6  34012  287.06 0855.42
2009/04/23 08:12:58.1     -76     10     68     77    102 277.9  46.4  34020  287.20 0855.42
2009/04/23 08:12:58.2      28     91     15     96     98  17.4   9.0  34026  287.30 0855.42
2009/04/23 08:12:58.3     -82    139    -75    162    178 329.3 -30.8  34024  287.27 0855.42
2009/04/23 08:12:58.4    -150    230    -83    275    287 326.8 -21.7  34018  287.16 0855.42
2009/04/23 08:12:58.5    -186    184     -5    262    263 314.7  -1.1  34012  287.06 0855.42
2009/04/23 08:12:58.6    -107    209     67    235    245 332.8  16.0  33998  286.82 0855.43
2009/04/23 08:12:58.7    -176     26     88    178    198 278.6  28.5  33998  286.83 0855.43
2009/04/23 08:12:58.8     -80     14      6     82     83 280.1   4.4  34004  286.94 0855.43
2009/04/23 08:12:58.9    -115   -159    -63    197    206 216.0 -22.8  34004  286.93 0855.43
2009/04/23 08:12:59.0     -14   -197    186    198    271 184.2  48.0  33996  286.79 0855.43
2009/04/23 08:12:59.1     -47   -125    194    134    235 200.9  62.1  33998  286.84 0855.43
2009/04/23 08:12:59.2     -30   -118    146    122    190 194.3  56.3  34000  286.88 0855.43
2009/04/23 08:12:59.3     -46    -75    164     89    186 211.6  69.3  33992  286.74 0855.43
2009/04/23 08:12:59.4    -128   -132    199    185    271 224.1  52.2  34000  286.85 0855.43
2009/04/23 08:12:59.5    -228   -116    111    256    279 243.0  25.1  33994  286.77 0855.43
2009/04/23 08:12:59.6    -186   -175     75    256    267 226.7  16.4  34000  286.87 0855.43
2009/04/23 08:12:59.7    -301   -216     49    371    375 234.4   7.6  33994  286.78 0855.43
2009/04/23 08:12:59.8    -239   -179     81    299    310 233.1  15.3  33998  286.82 0855.43
2009/04/23 08:12:59.9     -27   -170    135    173    219 189.1  42.0  33996  286.81 0855.43
2009/04/23 08:13:00.0      13   -179    100    180    205 175.6  31.4  33998  286.83 0855.43
2009/04/23 08:13:00.1      34    -58    125     68    142 149.3  68.9  33998  286.84 0855.43
2009/04/23 08:13:00.2      60    -28    120     67    137 115.2  68.8  33996  286.81 0855.43
2009/04/23 08:13:00.3       0    -18    109     19    110 182.7  90.0  34000  286.86 0855.43
2009/04/23 08:13:00.4    -136    -48     98    145    175 250.5  37.0  34002  286.89 0855.43
2009/04/23 08:13:00.5    -168   -113    126    203    238 236.0  34.8  34004  286.93 0855.43
2009/04/23 08:13:00.6    -327    -84     34    338    340 255.5   5.8  33994  286.76 0855.43
2009/04/23 08:13:00.7    -338    -65     64    345    351 259.1  10.6  33996  286.81 0855.43
2009/04/23 08:13:00.8    -246    -42     91    250    266 260.1  20.7  33996  286.79 0855.43
2009/04/23 08:13:00.9    -370    -11     86    371    381 268.2  13.1  33994  286.75 0855.43
2009/04/23 08:13:01.0    -231    -32    176    234    292 262.0  40.7  33996  286.80 0855.43
2009/04/23 08:13:01.1    -257    -94     61    274    281 249.8  12.6  33994  286.77 0855.43
2009/04/23 08:13:01.2    -172    -50    149    180    233 253.6  43.7  33988  286.67 0855.43
2009/04/23 08:13:01.3     -98    -17    145    100    176 259.9  62.1  33994  286.78 0855.43
2009/04/23 08:13:01.4     -61    201    108    211    237 343.1  29.3  34014  287.11 0855.43
2009/04/23 08:13:01.5    -132    148     42    199    204 318.1  12.0  34010  287.05 0855.43
2009/04/23 08:13:01.6     -35    179     19    183    185 348.7   6.1  34012  287.06 0855.43
2009/04/23 08:13:01.7      37    231     -1    235    236   9.1  -0.3  34048  287.68 0855.43
2009/04/23 08:13:01.8      50    248     -3    253    254  11.5  -0.7  34060  287.87 0855.43
2009/04/23 08:13:01.9      59    317      4    323    324  10.6   0.7  34078  288.19 0855.43
2009/04/23 08:13:02.0    -101    265     39    284    287 339.1   8.0  34050  287.70 0855.43
2009/04/23 08:13:02.1      40    283     51    286    291   8.2  10.1  34058  287.85 0855.43
2009/04/23 08:13:02.2     127    215     67    250    259  30.7  15.0  34110  288.71 0855.43
2009/04/23 08:13:02.3     141    221     72    263    273  32.6  15.3  34118  288.87 0855.43
2009/04/23 08:13:02.4     365    299    162    472    500  50.7  18.9  34044  287.61 0855.43
2009/04/23 08:13:02.5     569    192    141    601    618  71.3  13.2  34028  287.34 0855.43
2009/04/23 08:13:02.6     344    110    305    362    473  72.2  44.4  34032  287.40 0855.44
2009/04/23 08:13:02.7      36    334    228    337    406   6.3  37.4  34044  287.62 0855.44
2009/04/23 08:13:02.8     110    281     28    302    304  21.4   5.4  34040  287.55 0855.44
2009/04/23 08:13:02.9     -59    220    -82    228    242 344.9 -25.1  34024  287.26 0855.44
2009/04/23 08:13:03.0    -122    130    -79    179    195 317.0 -29.6  34008  287.00 0855.44
2009/04/23 08:13:03.1     130    129    -25    184    186  45.1  -8.0  34022  287.25 0855.44
2009/04/23 08:13:03.2     263    170     13    314    315  57.1   2.5  34026  287.29 0855.44
2009/04/23 08:13:03.3      79    203   -125    219    252  21.4 -36.8  34006  286.97 0855.44
2009/04/23 08:13:03.4     249    426   -141    494    513  30.3 -20.7  34010  287.02 0855.44
2009/04/23 08:13:03.5     195    173   -191    262    324  48.4 -44.2  34012  287.06 0855.44
2009/04/23 08:13:03.6       4    337   -260    338    426   0.7 -45.9  34016  287.15 0855.44
2009/04/23 08:13:03.7      39    396   -240    398    464   5.7 -38.4  34016  287.14 0855.44
2009/04/23 08:13:03.8     276    386   -176    475    506  35.6 -25.5  34014  287.10 0855.44
2009/04/23 08:13:03.9    -217     36   -188    220    289 279.5 -49.2  34012  287.06 0855.44
2009/04/23 08:13:04.0     -88    400   -179    410    447 347.5 -29.5  33996  286.79 0855.44
2009/04/23 08:13:04.1      85    502   -170    510    537   9.7 -23.6  33994  286.78 0855.44
2009/04/23 08:13:04.2       0    480   -222    481    529   0.0 -30.9  34000  286.88 0855.44
2009/04/23 08:13:04.3     -85    479   -267    487    555 349.9 -35.7  34000  286.86 0855.44
2009/04/23 08:13:04.4    -139    -69   -215    156    265 243.4 -64.9  34012  287.07 0855.44
2009/04/23 08:13:04.5     -40    175   -141    180    228 347.1 -46.4  34010  287.05 0855.44
2009/04/23 08:13:04.6     -82     88   -160    121    200 316.8 -63.6  34010  287.03 0855.43
2009/04/23 08:13:04.7    -129    -42   -239    136    274 251.8 -72.5  34014  287.09 0855.43
2009/04/23 08:13:04.8     -91     -8   -210     92    229 264.8 -79.3  34008  287.01 0855.43
2009/04/23 08:13:04.9       4    174    -72    175    189   1.6 -27.8  34010  287.03 0855.43
2009/04/23 08:13:05.0      24    193     23    195    197   7.3   6.9  34010  287.05 0855.43
2009/04/23 08:13:05.1     -37    181    -10    185    186 348.2  -3.1  34008  287.01 0855.43
2009/04/23 08:13:05.2       4    147     49    148    157   1.8  18.4  34008  287.01 0855.43
2009/04/23 08:13:05.3      27     65     68     71     98  22.7  49.4  34008  287.01 0855.43
2009/04/23 08:13:05.4      -4     86      3     87     88 356.9   2.3  34006  286.98 0855.43
2009/04/23 08:13:05.5      20     24     -9     32     34  39.6 -15.5  34010  287.03 0855.43
2009/04/23 08:13:05.6      42     -2    -38     43     57  93.5 -51.3  34008  287.01 0855.43
2009/04/23 08:13:05.7      75    -90    -61    118    132 139.9 -33.7  34008  287.01 0855.43
2009/04/23 08:13:05.8     -82   -139    -77    162    179 210.7 -31.6  34004  286.94 0855.43
2009/04/23 08:13:05.9    -219   -121   -179    251    308 241.2 -43.7  34006  286.97 0855.43
2009/04/23 08:13:06.0    -378    -86   -274    388    474 257.1 -43.1  34002  286.91 0855.43
2009/04/23 08:13:06.1    -490    -97   -294    500    580 258.8 -37.7  34000  286.88 0855.43
2009/04/23 08:13:06.2    -284   -151   -186    322    371 242.0 -37.0  34010  287.05 0855.43
2009/04/23 08:13:06.3    -336   -181   -189    382    426 241.7 -32.6  34008  286.99 0855.43
2009/04/23 08:13:06.4    -257   -156   -132    301    328 238.7 -29.6  34008  286.99 0855.43
2009/04/23 08:13:06.5    -194   -114   -182    226    290 239.6 -47.7  34000  286.87 0855.43
2009/04/23 08:13:06.6    -118    115    -84    165    185 314.2 -33.5  34006  286.96 0855.43
2009/04/23 08:13:06.7     -91     94    -75    132    151 315.9 -36.3  34006  286.98 0855.43
2009/04/23 08:13:06.8      35    255   -109    258    280   7.8 -28.6  34008  286.99 0855.43
2009/04/23 08:13:06.9      60    195   -112    205    233  17.2 -35.7  34006  286.98 0855.43
2009/04/23 08:13:07.0     -41    101    -92    110    143 337.7 -48.7  34004  286.94 0855.43
2009/04/23 08:13:07.1     -84     42   -209     94    229 296.6 -78.6  34004  286.94 0855.43
2009/04/23 08:13:07.2     -23     57   -166     62    177 338.2 -83.0  34002  286.89 0855.43
2009/04/23 08:13:07.3      69    123   -159    142    213  29.4 -58.1  34002  286.91 0855.43
2009/04/23 08:13:07.4     104      0   -167    105    197  90.0 -69.1  34002  286.91 0855.43
2009/04/23 08:13:07.5       0    270   -247    271    366   0.0 -51.5  34006  286.95 0855.43
2009/04/23 08:13:07.6     126    407    -70    427    433  17.2  -9.4  33994  286.77 0855.43
2009/04/23 08:13:07.7    -217    -65   -331    227    401 253.2 -66.9  33994  286.75 0855.43
2009/04/23 08:13:07.8    -296    207   -154    362    393 305.0 -28.9  34000  286.86 0855.43
2009/04/23 08:13:07.9    -270    243   -198    364    414 311.9 -35.4  34000  286.88 0855.43
2009/04/23 08:13:08.0    -257     84   -267    271    380 288.2 -54.3  34000  286.86 0855.43
2009/04/23 08:13:08.1    -236    194   -181    306    355 309.5 -37.8  34006  286.95 0855.43
2009/04/23 08:13:08.2    -193    158   -124    250    279 309.3 -32.6  34002  286.89 0855.43
2009/04/23 08:13:08.3    -218     45   -214    223    309 281.9 -53.4  34004  286.92 0855.43
2009/04/23 08:13:08.4    -284     71    -83    293    304 284.2 -20.7  33998  286.84 0855.43
2009/04/23 08:13:08.5    -247     76    141    259    294 287.1  31.3  34000  286.87 0855.43
2009/04/23 08:13:08.6    -236     67    -49    246    251 286.0 -11.3  34006  286.95 0855.43
2009/04/23 08:13:08.7     -93     99     67    137    152 316.8  27.3  34000  286.86 0855.43
2009/04/23 08:13:08.8      46    201   -115    207    236  13.1 -35.8  34000  286.86 0855.43
2009/04/23 08:13:08.9       4    305    -97    306    322   0.9 -17.7  34006  286.97 0855.43
2009/04/23 08:13:09.0     -12    315   -100    316    332 357.8 -17.7  34000  286.87 0855.43
2009/04/23 08:13:09.1      62    261     84    269    282  13.4  17.4  34006  286.97 0855.43
2009/04/23 08:13:09.2     262    125    248    291    382  64.5  44.5  34012  287.07 0855.43
2009/04/23 08:13:09.3     329     64    213    336    397  79.0  35.5  34000  286.88 0855.43
2009/04/23 08:13:09.4     275     48     98    280    296  80.1  20.0  34002  286.89 0855.43
2009/04/23 08:13:09.5     244     22    118    246    272  84.8  27.3  34004  286.94 0855.43
2009/04/23 08:13:09.6     230    -29     11    232    233  97.2   2.9  34008  286.99 0855.43
2009/04/23 08:13:09.7     219   -143     29    262    264 123.1   6.5  34006  286.97 0855.43
2009/04/23 08:13:09.8     305     20    -55    306    311  86.1 -10.3  34004  286.92 0855.43
2009/04/23 08:13:09.9     309      8    -73    310    319  88.5 -13.4  34004  286.92 0855.43
2009/04/23 08:13:10.0     310      6   -105    311    329  88.7 -18.7  34006  286.97 0855.43
2009/04/23 08:13:10.1     192     47   -118    198    230  76.1 -37.9  34004  286.93 0855.43
2009/04/23 08:13:10.2     197    148    -93    247    263  52.9 -26.1  34008  286.99 0855.43
2009/04/23 08:13:10.3     129    111   -144    171    223  49.1 -48.5  34004  286.94 0855.43
2009/04/23 08:13:10.4     104    221   -164    245    294  25.3 -41.7  34002  286.90 0855.43
2009/04/23 08:13:10.5      89    189    -75    209    222  25.2 -25.1  33998  286.83 0855.43
2009/04/23 08:13:10.6     -16    152    -47    153    161 353.8 -17.3  34006  286.96 0855.44
2009/04/23 08:13:10.8     -16     95    -98     97    137 350.2 -54.5  34006  286.96 0855.44
2009/04/23 08:13:10.8      42     43    -61     61     86  44.1 -54.5  34006  286.98 0855.44
2009/04/23 08:13:10.9      31    -55     -8     64     65 151.0  -7.3  34006  286.96 0855.44
2009/04/23 08:13:11.0      25   -127    -42    130    136 168.9 -23.8  34006  286.96 0855.44
2009/04/23 08:13:11.1     199   -118    -74    232    243 120.7 -22.9  34008  286.99 0855.44
2009/04/23 08:13:11.2     248    -56    191    255    318 102.8  40.7  34012  287.06 0855.44
2009/04/23 08:13:11.3     277    130    178    307    354  64.8  32.8  34004  286.93 0855.44
2009/04/23 08:13:11.4     379     59     50    384    388  81.1   7.5  34010  287.02 0855.44
2009/04/23 08:13:11.5     370     12     81    371    380  88.1  12.4  34006  286.98 0855.44
2009/04/23 08:13:11.6     378     93    164    390    423  76.2  24.2  34052  287.75 0855.44
2009/04/23 08:13:11.7     396    174    110    433    447  66.3  14.3  34034  287.45 0855.44
2009/04/23 08:13:11.8     342    161     96    379    392  64.8  14.3  34050  287.71 0855.44
2009/04/23 08:13:11.9     283    222    235    360    429  51.9  36.3  34094  288.46 0855.44
2009/04/23 08:13:12.0     286     16    173    287    335  86.7  34.0  34040  287.55 0855.44
2009/04/23 08:13:12.1     290    101     96    308    323  70.7  17.3  34040  287.53 0855.44
2009/04/23 08:13:12.2     295    157    153    335    368  61.9  26.4  34060  287.89 0855.44
2009/04/23 08:13:12.3     318    158    192    356    404  63.6  30.7  34074  288.10 0855.44
2009/04/23 08:13:12.4     288    211    220    358    420  53.8  34.6  34046  287.64 0855.44
2009/04/23 08:13:12.5     233    139    220    272    349  59.3  43.4  34092  288.41 0855.44
2009/04/23 08:13:12.6     280    190    244    339    417  55.9  39.5  34110  288.74 0855.43
2009/04/23 08:13:12.7     365    159    291    399    493  66.5  39.7  34100  288.54 0855.43
2009/04/23 08:13:12.8     307    150    275    342    438  63.9  42.9  34080  288.23 0855.43
2009/04/23 08:13:12.9     353    140    232    380    445  68.3  34.4  34060  287.87 0855.43
2009/04/23 08:13:13.1     311    205    160    373    405  56.6  24.8  34026  287.32 0855.43
2009/04/23 08:13:13.1     239    191    187    307    359  51.4  34.3  34056  287.81 0855.43
2009/04/23 08:13:13.3     238    202     83    313    324  49.6  14.9  34038  287.50 0855.43
2009/04/23 08:13:13.4     293    164     91    336    349  60.7  15.2  34064  287.93 0855.43
2009/04/23 08:13:13.5     238    112    145    264    301  64.8  31.3  34050  287.70 0855.43
2009/04/23 08:13:13.6      59    177     91    187    207  18.5  27.8  34044  287.60 0855.43
2009/04/23 08:13:13.7      34    183     66    187    198  10.5  20.2  34044  287.60 0855.43
2009/04/23 08:13:13.8      70    228     66    239    249  17.2  15.6  34048  287.66 0855.43
2009/04/23 08:13:13.9     197     85     51    215    222  66.5  13.5  34096  288.50 0855.43
2009/04/23 08:13:14.0      63     73     26     97    101  41.0  15.3  34104  288.62 0855.43
2009/04/23 08:13:14.1      30     81     98     87    131  20.5  54.2  34088  288.36 0855.43
2009/04/23 08:13:14.2     -47     55    150     73    166 319.5  72.7  34058  287.84 0855.43
2009/04/23 08:13:14.3     -35     43     93     56    108 320.4  65.7  34052  287.74 0855.43
2009/04/23 08:13:14.4     -69      7     23     70     74 276.1  18.4  34046  287.64 0855.43
2009/04/23 08:13:14.5    -141    -27    -40    144    150 259.0 -15.5  34046  287.64 0855.43
2009/04/23 08:13:14.6    -134    -22   -148    136    200 260.3 -56.9  34044  287.62 0855.43
2009/04/23 08:13:14.7       1     78   -153     79    172   0.9 -75.2  34056  287.82 0855.45
2009/04/23 08:13:14.8     -52     11   -146     54    155 282.4 -83.6  34046  287.65 0855.45
2009/04/23 08:13:14.9      25      8    -90     27     93  71.8 -86.7  34050  287.70 0855.45
2009/04/23 08:13:15.0      91     28    -89     96    130  72.7 -52.3  34044  287.62 0855.45
2009/04/23 08:13:15.1     206     42    -65    211    221  78.3 -17.3  34052  287.74 0855.45
2009/04/23 08:13:15.2     223    -12     16    224    225  93.3   4.2  34056  287.81 0855.45
2009/04/23 08:13:15.3     116   -152   -111    192    221 142.8 -37.3  34040  287.54 0855.45
2009/04/23 08:13:15.4     230    -17    -88    231    247  94.4 -26.4  34076  288.15 0855.45
2009/04/23 08:13:15.5     234     78     -7    247    248  71.6  -1.8  34142  289.27 0855.45
2009/04/23 08:13:15.6     272     99    -80    290    301  70.0 -15.5  34132  289.09 0855.45
2009/04/23 08:13:15.7     227     98     28    248    250  66.5   6.5  34150  289.41 0855.45
2009/04/23 08:13:15.8     229      1     36    230    233  89.6   9.0  34118  288.86 0855.45
2009/04/23 08:13:15.9     275     83     32    288    290  73.2   6.5  34068  288.02 0855.45
2009/04/23 08:13:16.0     236     77    123    249    277  71.8  28.2  34048  287.68 0855.45
2009/04/23 08:13:16.1     181     91    120    203    235  63.1  33.1  34062  287.91 0855.45
2009/04/23 08:13:16.2     166    119    100    205    228  54.3  27.4  34062  287.91 0855.45
2009/04/23 08:13:16.3     234    124    192    266    328  62.0  39.5  34082  288.24 0855.45
2009/04/23 08:13:16.4     214    111    127    242    273  62.5  30.1  34078  288.17 0855.45
2009/04/23 08:13:16.5     216     78    168    230    284  70.0  39.7  34064  287.95 0855.45
2009/04/23 08:13:16.6     125     50    102    135    169  68.2  40.9  34052  287.74 0855.45
2009/04/23 08:13:16.7     -32    173    124    176    215 349.5  39.1  34032  287.42 0855.44
2009/04/23 08:13:16.8      87     64    162    109    195  53.6  63.4  34040  287.55 0855.44
2009/04/23 08:13:16.9      62     74     74     97    122  40.1  41.6  34052  287.76 0855.44
2009/04/23 08:13:17.0     122     88     78    151    169  54.1  29.3  34074  288.13 0855.44
2009/04/23 08:13:17.1     138     82     49    161    169  59.3  17.1  34064  287.94 0855.44
2009/04/23 08:13:17.2     113     59     77    128    149  62.5  34.0  34080  288.23 0855.44
2009/04/23 08:13:17.3      76     40     60     87    105  62.0  37.6  34086  288.31 0855.44
2009/04/23 08:13:17.4      25     30     21     40     45  39.6  30.3  34090  288.38 0855.44
2009/04/23 08:13:17.5      35     20    -42     41     58  60.2 -52.6  34076  288.16 0855.44
2009/04/23 08:13:17.6      27      9     -3     29     30  70.0  -7.3  34072  288.09 0855.44
2009/04/23 08:13:17.7      38     78    -44     87     97  26.3 -32.6  34098  288.53 0855.44
2009/04/23 08:13:17.8     122     58     16    136    137  64.7   6.9  34092  288.42 0855.44
2009/04/23 08:13:17.9     125     90    -49    155    163  54.1 -17.6  34084  288.30 0855.44
2009/04/23 08:13:18.0     157     67     -1    171    172  66.9  -0.5  34072  288.09 0855.44
2009/04/23 08:13:18.1     118     97    -32    154    158  50.5 -11.9  34076  288.14 0855.44
2009/04/23 08:13:18.2      42     93     -4    103    104  24.5  -2.2  34082  288.25 0855.44
2009/04/23 08:13:18.3      11    147     77    148    166   4.4  29.3  34064  287.96 0855.44
2009/04/23 08:13:18.4     -82     61     19    103    105 306.9  10.6  34072  288.09 0855.44
2009/04/23 08:13:18.5    -157     10    -32    158    162 273.9 -11.6  34068  288.03 0855.44
2009/04/23 08:13:18.6    -173     16     -9    174    175 275.5  -3.2  34068  288.03 0855.44
2009/04/23 08:13:18.7    -151      7     23    152    154 273.0   8.9  34078  288.18 0855.44
2009/04/23 08:13:18.8     -91      6    -27     92     95 274.3 -21.2  34070  288.06 0855.44
2009/04/23 08:13:18.9     -75    -24     25     79     84 252.3  17.9  34066  287.99 0855.44
2009/04/23 08:13:19.0     -76      5     61     77     98 274.3  43.3  34066  287.99 0855.44
2009/04/23 08:13:19.1    -141    -28     27    144    147 258.5  10.6  34068  288.03 0855.44
2009/04/23 08:13:19.2    -140    -47     58    148    158 251.4  22.5  34052  287.74 0855.44
2009/04/23 08:13:19.3     -58    -91     79    109    134 212.6  39.7  34046  287.64 0855.44
2009/04/23 08:13:19.4    -151    -11    -30    152    156 265.6 -11.3  34062  287.92 0855.44
2009/04/23 08:13:19.5    -184    -14    -18    185    186 265.6  -5.6  34066  287.98 0855.44
2009/04/23 08:13:19.6    -202     21    -57    204    211 276.1 -20.2  34064  287.96 0855.44
2009/04/23 08:13:19.7    -169     42    -48    175    182 284.2 -15.5  34038  287.50 0855.48
2009/04/23 08:13:19.8    -247    -23    -69    249    258 264.5 -20.2  34032  287.39 0855.48
2009/04/23 08:13:19.9    -389    -69   -116    396    413 259.9 -16.4  34016  287.14 0855.48
2009/04/23 08:13:20.0    -296   -139    -91    328    341 244.8 -15.5  34026  287.30 0855.48
2009/04/23 08:13:20.1    -240    -52    -54    246    252 257.6 -12.4  34020  287.19 0855.48
2009/04/23 08:13:20.2     -94    -81    -15    125    126 229.1  -7.2  34024  287.28 0855.48
2009/04/23 08:13:20.3    -197   -151    117    249    275 232.5  27.1  34026  287.31 0855.48
2009/04/23 08:13:20.4    -197    -85     68    215    226 246.5  17.7  34024  287.27 0855.48
2009/04/23 08:13:20.5    -231    -94     48    250    255 247.8  11.0  34024  287.26 0855.48
2009/04/23 08:13:20.6    -216    -88    -33    234    237 247.8  -8.2  34020  287.19 0855.48
2009/04/23 08:13:20.7    -145     29     -8    148    149 281.5  -3.1  34020  287.20 0855.48
2009/04/23 08:13:20.8    -221     -8     64    222    232 267.9  16.0  34022  287.25 0855.48
2009/04/23 08:13:20.9    -198   -128     -1    236    237 237.1  -0.3  34024  287.28 0855.48
2009/04/23 08:13:21.0    -162    -88     48    185    192 241.4  14.5  34024  287.27 0855.48
2009/04/23 08:13:21.1    -283     21      2    284    285 274.4   0.5  34024  287.28 0855.48
2009/04/23 08:13:21.2    -233    -36     69    236    246 261.0  16.3  34030  287.36 0855.48
2009/04/23 08:13:21.3    -295    -56    -29    301    303 259.2  -5.6  34024  287.26 0855.48
2009/04/23 08:13:21.4    -217    -50     82    223    237 257.0  21.0  34022  287.24 0855.48
2009/04/23 08:13:21.5    -172    -88     32    194    197 242.9   9.5  34022  287.25 0855.48
2009/04/23 08:13:21.6    -134   -142    148    196    245 223.2  40.9  34024  287.27 0855.48
2009/04/23 08:13:21.7    -140   -114     34    181    185 230.9  10.6  34020  287.20 0855.46
2009/04/23 08:13:21.8    -197    -74     39    211    215 249.2  10.6  34018  287.16 0855.46
2009/04/23 08:13:21.9    -206   -120     -9    239    240 239.8  -2.2  34022  287.22 0855.46
2009/04/23 08:13:22.0    -295   -112    -12    316    317 249.2  -2.3  34012  287.07 0855.46
2009/04/23 08:13:22.1    -164    -61    -38    176    181 249.4 -12.4  34010  287.05 0855.46
2009/04/23 08:13:22.2    -233   -103     12    255    256 246.0   2.8  34018  287.16 0855.46
2009/04/23 08:13:22.3    -242   -145    -26    283    285 239.1  -5.4  34018  287.17 0855.46
2009/04/23 08:13:22.4    -328   -168    -38    369    372 242.9  -6.0  34018  287.17 0855.46
2009/04/23 08:13:22.5    -300    -83   -139    312    341 254.5 -30.1  34018  287.17 0855.46
2009/04/23 08:13:22.6    -173   -110    -79    206    220 237.5 -26.1  34020  287.20 0855.46
2009/04/23 08:13:22.7     -74   -208     86    221    237 199.6  22.3  34024  287.27 0855.46
2009/04/23 08:13:22.8    -118   -279    154    303    339 202.9  29.1  34018  287.18 0855.46
2009/04/23 08:13:22.9    -284   -156     89    325    338 241.2  15.4  34008  287.00 0855.46
2009/04/23 08:13:23.0    -250   -193    115    316    336 232.3  20.8  34012  287.07 0855.46
2009/04/23 08:13:23.1    -115   -119      4    166    167 223.9   1.6  34012  287.08 0855.46
2009/04/23 08:13:23.2    -217    -23    -37    219    223 263.9  -9.8  34012  287.06 0855.46
2009/04/23 08:13:23.3    -300    -33    -94    302    317 263.6 -17.3  34008  286.99 0855.46
2009/04/23 08:13:23.4    -296    -84    -21    308    309 254.1  -3.9  34008  286.99 0855.46
2009/04/23 08:13:23.5    -285   -157      2    326    327 241.2   0.5  34010  287.04 0855.46
2009/04/23 08:13:23.6    -276   -152    -12    316    317 241.2  -2.2  34008  287.01 0855.46
2009/04/23 08:13:23.7    -236   -203    108    312    331 229.3  19.2  34002  286.90 0855.44
2009/04/23 08:13:23.8    -181    -65    173    193    259 250.3  46.6  34008  287.01 0855.44
2009/04/23 08:13:23.9       5    102    204    103    228   3.1  71.4  34010  287.03 0855.44
2009/04/23 08:13:24.0     -14     13    177     20    178 313.1  90.0  34016  287.15 0855.44
2009/04/23 08:13:24.1     -16    -49    154     52    162 198.3  81.0  34010  287.05 0855.44
2009/04/23 08:13:24.2     -77   -105     86    131    156 216.1  35.6  34002  286.89 0855.44
2009/04/23 08:13:24.3      51     46    122     69    140  47.8  68.8  34008  287.00 0855.44
2009/04/23 08:13:24.4     115      0    184    116    217  89.6  64.7  34004  286.94 0855.44
2009/04/23 08:13:24.5      60    -18     -2     63     64 106.8  -2.2  34008  287.00 0855.44
2009/04/23 08:13:24.6     126     50    174    136    220  68.3  58.2  34006  286.98 0855.44
2009/04/23 08:13:24.7      91     40    141    100    172  66.0  61.5  34006  286.96 0855.44
2009/04/23 08:13:24.8       0      8     75      9     75 355.5  90.0  34014  287.10 0855.44
2009/04/23 08:13:24.9     102    -18     85    104    134 100.1  43.7  34008  287.00 0855.44
2009/04/23 08:13:25.0      48   -116    -10    126    127 157.3  -4.6  34006  286.98 0855.44
2009/04/23 08:13:25.1     128    -48     42    137    144 110.8  17.3  34008  287.00 0855.44
2009/04/23 08:13:25.2     201    -47     64    207    217 103.3  17.3  34008  287.01 0855.44
2009/04/23 08:13:25.3     206   -118    -85    238    253 119.8 -19.7  34008  287.01 0855.44
2009/04/23 08:13:25.4     355    -72    -16    363    364 101.5  -2.6  34006  286.98 0855.44
2009/04/23 08:13:25.5     232   -268    -72    355    363 139.1 -11.5  34002  286.91 0855.44
2009/04/23 08:13:25.6     131    -95     61    162    173 126.0  21.3  34008  287.00 0855.44
2009/04/23 08:13:25.7     163    160     69    229    240  45.6  16.8  34008  286.99 0855.42
2009/04/23 08:13:25.8     174     -2    -22    175    177  90.8  -7.3  34006  286.96 0855.42
2009/04/23 08:13:25.9     232    -23    -15    234    235  95.7  -3.9  34002  286.89 0855.42
2009/04/23 08:13:26.0     346    117     44    366    369  71.3   6.9  34012  287.08 0855.42
2009/04/23 08:13:26.1     489    -44    -45    492    495  95.2  -5.3  34010  287.04 0855.42
2009/04/23 08:13:26.2     453    -56     59    457    461  97.1   7.5  34006  286.96 0855.42
2009/04/23 08:13:26.3     595     82    123    601    614  82.1  11.6  34000  286.85 0855.42
2009/04/23 08:13:26.4     676    107    269    685    735  81.0  22.7  34014  287.10 0855.42
2009/04/23 08:13:26.5     516     37    394    518    650  85.9  41.1  34014  287.11 0855.42
2009/04/23 08:13:26.6     388     17    155    389    418  87.4  23.0  34012  287.06 0855.42
2009/04/23 08:13:26.7     290    -12    113    291    312  92.5  22.3  34010  287.02 0855.42
2009/04/23 08:13:26.8     278     27     62    280    287  84.3  12.6  34004  286.92 0855.42
2009/04/23 08:13:26.9     438    106    166    451    480  76.3  21.1  34004  286.93 0855.42
2009/04/23 08:13:27.0     328    122    -26    351    352  69.5  -4.4  34006  286.98 0855.42
2009/04/23 08:13:27.1     361      2    -50    362    366  89.7  -8.0  34008  287.00 0855.42
2009/04/23 08:13:27.2     409    157     69    439    445  68.9   9.0  34012  287.08 0855.42
2009/04/23 08:13:27.3     322     60     -4    328    329  79.4  -0.7  34010  287.02 0855.42
2009/04/23 08:13:27.4     325     24    -14    326    327  85.7  -2.5  34016  287.12 0855.42
2009/04/23 08:13:27.5     209    199     78    289    300  46.4  15.2  34012  287.06 0855.42
2009/04/23 08:13:27.6     259    -17      4    260    261  93.9   1.0  34012  287.06 0855.42
2009/04/23 08:13:27.7     317    -35    -29    319    321  96.4  -5.2  34006  286.97 0855.41
2009/04/23 08:13:27.8     364    148    -15    394    395  67.8  -2.2  34010  287.05 0855.41
2009/04/23 08:13:27.9     384    182    -50    426    429  64.6  -6.7  34014  287.11 0855.41
2009/04/23 08:13:28.0     311    148    -16    345    346  64.5  -2.7  34012  287.08 0855.41
2009/04/23 08:13:28.1     292    188     19    348    349  57.2   3.1  34018  287.17 0855.41
2009/04/23 08:13:28.2     320    232    -55    396    400  54.1  -7.9  34016  287.13 0855.41
2009/04/23 08:13:28.3     224    203      6    303    304  47.7   1.2  34016  287.12 0855.41
2009/04/23 08:13:28.4     160    382    142    415    439  22.7  18.9  34064  287.94 0855.41
2009/04/23 08:13:28.5     332    166     84    372    382  63.4  12.8  34050  287.71 0855.41
2009/04/23 08:13:28.6     -80    157    115    177    211 333.0  35.7  34038  287.50 0855.41
2009/04/23 08:13:28.7     -21    152    101    154    184 352.0  36.0  34042  287.59 0855.41
2009/04/23 08:13:28.8     -51    108     99    120    155 334.5  43.7  34046  287.64 0855.41
2009/04/23 08:13:28.9    -113    125     60    169    179 317.9  20.2  34040  287.54 0855.41
2009/04/23 08:13:29.0     -55    185     60    194    204 343.3  17.3  34044  287.60 0855.41
2009/04/23 08:13:29.1     -92    211    -29    231    233 336.3  -7.2  34054  287.77 0855.41
2009/04/23 08:13:29.2     182    171    -26    251    253  46.8  -6.1  34080  288.22 0855.41
2009/04/23 08:13:29.3     198    116   -148    230    273  59.6 -40.1  34074  288.10 0855.41
2009/04/23 08:13:29.4     198     79    -76    214    228  68.2 -19.7  34074  288.13 0855.41
2009/04/23 08:13:29.5     250     40    -45    254    259  80.8 -10.1  34070  288.04 0855.41
2009/04/23 08:13:29.6     176     58    -66    186    197  71.6 -24.8  34072  288.08 0855.41
2009/04/23 08:13:29.7     121     57    -81    134    156  64.8 -38.8  34072  288.09 0855.41
2009/04/23 08:13:29.8     153     16    -74    154    170  83.9 -31.7  34070  288.04 0855.41
2009/04/23 08:13:29.9     139      4     17    140    142  88.3   7.1  34072  288.09 0855.41
2009/04/23 08:13:30.1     287    -51    -14    292    293 100.1  -2.8  34070  288.04 0855.41
2009/04/23 08:13:30.2     259      5    -11    260    261  88.7  -2.6  34070  288.04 0855.41
2009/04/23 08:13:30.2     192     25    -88    194    213  82.5 -30.6  34070  288.06 0855.41
2009/04/23 08:13:30.3     248     14    -26    249    251  86.7  -6.0  34062  287.92 0855.41
2009/04/23 08:13:30.4     258     48     -5    263    264  79.4  -1.2  34050  287.70 0855.41
2009/04/23 08:13:30.5     179     34     60    183    193  79.2  18.1  34050  287.70 0855.41
2009/04/23 08:13:30.6     177     90    110    199    227  62.9  31.4  34042  287.59 0855.41
2009/04/23 08:13:30.7      89    -54    109    105    151 121.5  51.2  34042  287.59 0855.41
2009/04/23 08:13:30.8       7    -32     89     33     94 166.6  79.7  34046  287.64 0855.41
2009/04/23 08:13:30.9     -91   -107     61    141    153 220.5  25.1  34048  287.67 0855.41
2009/04/23 08:13:31.0    -152    -71     23    169    171 244.8   8.0  34032  287.40 0855.41
2009/04/23 08:13:31.1     -82     56     88    100    133 304.2  45.9  34034  287.43 0855.41
2009/04/23 08:13:31.3     -49   -149    103    157    187 198.3  36.3  34030  287.38 0855.41
2009/04/23 08:13:31.4     -79   -162    105    181    209 205.9  32.9  34034  287.43 0855.41
2009/04/23 08:13:31.4    -108   -225    101    250    269 205.6  23.0  34020  287.19 0855.41
2009/04/23 08:13:31.5     -85    -93     90    127    155 222.3  39.1  34006  286.96 0855.41
2009/04/23 08:13:31.6       0   -111    165    112    199 180.4  62.6  34010  287.03 0855.41
2009/04/23 08:13:31.7     -28   -137    156    140    209 191.6  53.7  34008  287.00 0855.41
2009/04/23 08:13:31.8     -31    -55    129     64    144 209.0  71.9  34018  287.18 0855.41
2009/04/23 08:13:31.9     -20      0     57     21     60 270.0  79.2  34020  287.21 0855.41
2009/04/23 08:13:32.0     -76     52     27     93     97 304.2  16.3  34020  287.20 0855.41
2009/04/23 08:13:32.1    -114    136      3    178    179 319.9   1.2  34004  286.93 0855.41
2009/04/23 08:13:32.2     -61    160     37    172    177 339.1  12.4  33998  286.83 0855.41
2009/04/23 08:13:32.3      14     74    -81     76    111  10.7 -56.5  34006  286.98 0855.41
2009/04/23 08:13:32.5     -71     -5     19     72     75 265.7  15.3  34008  287.00 0855.41
2009/04/23 08:13:32.5    -125      6     21    126    128 273.0   9.5  34014  287.10 0855.41
2009/04/23 08:13:32.6    -232    -44     11    237    238 259.2   2.8  34010  287.04 0855.41
2009/04/23 08:13:32.7    -284    -12    -25    285    287 267.5  -5.2  34014  287.11 0855.41
2009/04/23 08:13:32.8    -279    -58     67    286    294 258.1  13.2  34004  286.94 0855.41
2009/04/23 08:13:32.9    -155    -64     91    168    191 247.4  30.8  34012  287.06 0855.41
2009/04/23 08:13:33.0      42    -34     70     55     89 128.6  57.5  34016  287.13 0855.41
2009/04/23 08:13:33.1     125    -59     87    139    163 115.4  35.2  34020  287.21 0855.41
2009/04/23 08:13:33.2      76    -15     96     78    123 101.4  56.4  34024  287.28 0855.41
2009/04/23 08:13:33.3      75     30    120     81    144  67.8  63.2  34030  287.38 0855.41
2009/04/23 08:13:33.4     101      0    112    102    151  90.0  52.2  34058  287.84 0855.41
2009/04/23 08:13:33.5      67    -18     90     70    114 105.0  57.9  34060  287.87 0855.41
2009/04/23 08:13:33.6      33     40    111     53    123  39.6  72.9  34058  287.86 0855.41
2009/04/23 08:13:33.7      39     52     52     66     84  37.0  42.2  34066  287.98 0855.41
2009/04/23 08:13:33.8      99     13     61    100    117  82.1  35.0  34074  288.13 0855.41
2009/04/23 08:13:33.9     151     50    139    160    211  71.4  45.6  34104  288.64 0855.41
2009/04/23 08:13:34.0     153     54    126    163    206  70.5  41.7  34080  288.21 0855.41
2009/04/23 08:13:34.1      92     30    138     97    168  71.8  61.5  34088  288.35 0855.41
2009/04/23 08:13:34.2      86     24     37     90     97  74.5  23.0  34068  288.03 0855.41
2009/04/23 08:13:34.3      -8     26     47     28     54 341.3  65.7  34086  288.33 0855.41
2009/04/23 08:13:34.4      13      0     33     14     35  90.0  77.1  34090  288.40 0855.41
2009/04/23 08:13:34.5      50      7     49     51     70  81.2  49.0  34092  288.43 0855.41
2009/04/23 08:13:34.6      75     33     74     83    111  66.0  46.4  34098  288.53 0855.41
2009/04/23 08:13:34.7     130     18     80    132    154  82.0  35.0  34068  288.01 0855.41
2009/04/23 08:13:34.8      93      4    111     94    145  87.4  55.8  34070  288.04 0855.41
2009/04/23 08:13:34.9      40     21     84     46     95  62.0  68.8  34056  287.81 0855.41
2009/04/23 08:13:35.0     -22     65     44     69     81 340.8  35.5  34072  288.09 0855.41
2009/04/23 08:13:35.1      71     75     89    104    136  43.7  44.8  34074  288.11 0855.41
2009/04/23 08:13:35.2      66     18     86     69    110  74.9  56.4  34068  288.03 0855.41
2009/04/23 08:13:35.3      52    121     68    132    148  23.2  29.3  34068  288.01 0855.41
2009/04/23 08:13:35.4      -6     85     94     86    127 355.5  52.7  34068  288.03 0855.41
2009/04/23 08:13:35.5      41     17     75     45     87  67.4  65.7  34058  287.84 0855.41
2009/04/23 08:13:35.6     -21     -8     46     23     51 248.3  72.8  34064  287.94 0855.41
2009/04/23 08:13:35.7     -45      0     33     46     56 270.0  38.6  34056  287.82 0855.42
2009/04/23 08:13:35.8     -45     10     12     47     49 283.3  15.3  34054  287.79 0855.42
2009/04/23 08:13:35.9       7     32     42     33     53  13.4  56.4  34054  287.77 0855.42
2009/04/23 08:13:36.0      12     56     40     58     70  12.5  38.6  34054  287.79 0855.42
2009/04/23 08:13:36.1     -13     43     35     45     57 343.1  42.7  34052  287.74 0855.42
2009/04/23 08:13:36.2       1     68     39     69     79   1.0  32.4  34056  287.81 0855.42
2009/04/23 08:13:36.3      -1     69     27     70     75 359.1  21.0  34052  287.76 0855.42
2009/04/23 08:13:36.4     -33     47     64     58     86 324.8  52.7  34050  287.72 0855.42
2009/04/23 08:13:36.5      18     43     59     47     75  22.7  56.4  34048  287.69 0855.42
2009/04/23 08:13:36.6       5     72     59     73     93   4.5  43.7  34056  287.81 0855.42
2009/04/23 08:13:36.7     -13     49      9     51     52 344.9  11.0  34056  287.82 0855.42
2009/04/23 08:13:36.8       8    102    -32    103    107   4.5 -22.8  34056  287.81 0855.42
2009/04/23 08:13:36.9      28    105     -8    109    110  15.2  -4.6  34068  288.03 0855.42
2009/04/23 08:13:37.0      77     63     -2    100    101  50.9  -1.3  34062  287.92 0855.42
2009/04/23 08:13:37.1      70     43     13     83     85  58.5   9.0  34050  287.70 0855.42
2009/04/23 08:13:37.2      28     12     28     31     41  66.5  46.9  34046  287.65 0855.42
2009/04/23 08:13:37.3      20    -36     40     42     58 150.1  51.1  34042  287.57 0855.42
2009/04/23 08:13:37.4      -6    -76     44     77     88 184.5  32.4  34032  287.42 0855.42
2009/04/23 08:13:37.5      -8    -63     38     64     74 188.0  35.5  34030  287.38 0855.42
2009/04/23 08:13:37.6     -16    -47     33     50     59 198.7  36.5  34034  287.43 0855.42
2009/04/23 08:13:37.7     -37    -72     38     81     89 207.2  27.1  34034  287.45 0855.43
2009/04/23 08:13:37.8     -66    -89      5    111    112 216.5   2.9  34034  287.45 0855.43
2009/04/23 08:13:37.9     -89    -19    -22     92     95 257.6 -13.4  34038  287.50 0855.43
2009/04/23 08:13:38.0    -129     76     -3    151    152 300.6  -1.3  34022  287.23 0855.43
2009/04/23 08:13:38.1    -149      7    -49    150    157 273.0 -23.0  34010  287.03 0855.43
2009/04/23 08:13:38.2     -64     22    -48     68     83 289.1 -43.5  34010  287.03 0855.43
2009/04/23 08:13:38.3     -33      2    -33     34     47 274.4 -55.5  34008  287.01 0855.43
2009/04/23 08:13:38.4       8    112    -40    113    120   4.4 -19.6  34020  287.21 0855.43
2009/04/23 08:13:38.5     -46     63    -38     79     87 323.9 -31.6  34008  287.01 0855.43
2009/04/23 08:13:38.6      10     44      6     46     47  13.4   8.0  34012  287.06 0855.43
2009/04/23 08:13:38.8      21    -20     79     30     84 133.1  79.2  34018  287.16 0855.43
2009/04/23 08:13:38.8     -69    -90    104    114    154 217.4  47.9  34018  287.16 0855.43
2009/04/23 08:13:38.9     -20   -122     93    124    155 189.7  40.1  34010  287.03 0855.43
2009/04/23 08:13:39.0     -20   -138    100    140    172 188.5  38.8  34002  286.91 0855.43
2009/04/23 08:13:39.1       0    -88    140     89    165 179.5  64.7  34004  286.93 0855.43
2009/04/23 08:13:39.2     -16   -216    105    217    241 184.4  27.8  34000  286.87 0855.43
2009/04/23 08:13:39.4     -29   -218     87    220    236 187.6  22.8  34002  286.89 0855.43
2009/04/23 08:13:39.4      -5   -152    135    153    204 182.2  45.9  34002  286.89 0855.43
2009/04/23 08:13:39.6     -24   -210     79    212    226 186.7  21.3  34002  286.91 0855.43
2009/04/23 08:13:39.7     -42   -206     57    211    219 191.5  15.2  33996  286.81 0855.43
2009/04/23 08:13:39.8     -58   -174     37    184    188 198.5  11.4  33998  286.83 0855.42
2009/04/23 08:13:39.9     -39   -175     40    180    185 192.7  12.6  33998  286.84 0855.42
2009/04/23 08:13:40.0    -163   -185    -21    247    248 221.4  -4.9  33998  286.82 0855.42
2009/04/23 08:13:40.1     -91   -179     26    201    203 207.0   7.5  34000  286.86 0855.42
2009/04/23 08:13:40.2     -48   -143     53    152    162 198.7  19.4  34002  286.89 0855.42
2009/04/23 08:13:40.3      -1    -89     57     90    106 180.9  35.5  34006  286.98 0855.42
2009/04/23 08:13:40.4      26    -56     86     63    106 154.7  60.5  34004  286.94 0855.42
2009/04/23 08:13:40.5      49    -46     66     68     94 133.1  50.5  34004  286.94 0855.42
2009/04/23 08:13:40.6      85    -40     -3     95     96 115.3  -2.2  34000  286.88 0855.42
2009/04/23 08:13:40.7     102    -48     -4    113    114 115.4  -2.2  34000  286.88 0855.42
2009/04/23 08:13:40.8     127    -12    -28    128    132  95.7 -12.4  34002  286.91 0855.41
2009/04/23 08:13:40.9      87     -8     51     88    101  95.7  32.4  34004  286.94 0855.41
2009/04/23 08:13:41.0      71     40     49     82     95  60.2  34.4  34012  287.08 0855.41
2009/04/23 08:13:41.1      43     44     85     62    105  44.1  60.5  34012  287.08 0855.41
2009/04/23 08:13:41.2      58     32     85     67    108  61.1  56.9  34008  287.01 0855.41
2009/04/23 08:13:41.3      20    -37    110     43    118 151.0  77.6  34010  287.03 0855.41
2009/04/23 08:13:41.4       0     41     79     42     89   0.9  69.8  34010  287.03 0855.41
2009/04/23 08:13:41.5      -7     -6     69     10     69 226.9  90.0  34010  287.03 0855.41
2009/04/23 08:13:41.6     -16     18     57     25     62 318.6  75.0  34012  287.06 0855.41
2009/04/23 08:13:41.7     -31     49     -3     59     60 327.5  -3.1  34012  287.06 0855.41
2009/04/23 08:13:41.8     -27     92     34     96    101 343.5  20.0  34028  287.33 0855.41
2009/04/23 08:13:41.9     -23     60     31     65     72 339.1  27.2  34018  287.18 0855.41
2009/04/23 08:13:42.0     -18      6     59     19     61 288.6  80.7  34020  287.20 0855.41
2009/04/23 08:13:42.1     -35    -38     30     52     60 222.3  32.4  34012  287.08 0855.41
2009/04/23 08:13:42.2     -54     13    -38     56     67 284.2 -42.0  34006  286.96 0855.41
2009/04/23 08:13:42.3      14     12    -32     19     37  50.5 -69.1  34006  286.98 0855.41
2009/04/23 08:13:42.4      -7     44     19     45     48 350.2  23.0  34008  287.01 0855.41
2009/04/23 08:13:42.5      26     20     27     34     43  52.2  42.7  34010  287.03 0855.41
2009/04/23 08:13:42.6      24     -1     51     25     56  94.4  72.8  34006  286.98 0855.41
2009/04/23 08:13:42.7     -78    -15     71     80    106 258.6  46.9  34008  287.01 0855.41
2009/04/23 08:13:42.8    -125    -83     69    151    166 236.3  26.4  34006  286.96 0855.36
2009/04/23 08:13:42.9     -67    -99    129    120    176 214.3  52.2  34006  286.96 0855.36
2009/04/23 08:13:43.0     -34    -46    110     58    124 217.0  69.8  34006  286.98 0855.36
2009/04/23 08:13:43.1     -51    -34     61     62     86 236.7  50.5  34008  287.01 0855.36
2009/04/23 08:13:43.2     -63    -37     39     74     83 239.3  29.8  34008  287.00 0855.36
2009/04/23 08:13:43.3     -70     -4      2     71     72 266.5   1.8  34006  286.96 0855.36
2009/04/23 08:13:43.4     -81     14    -51     83     97 280.1 -39.9  34010  287.05 0855.36
2009/04/23 08:13:43.5     -74     -5      3     75     76 265.7   2.9  34010  287.03 0855.36
2009/04/23 08:13:43.6    -170     71    -29    185    188 292.6  -9.0  34012  287.06 0855.36
2009/04/23 08:13:43.7    -159     50    -61    167    177 287.5 -25.4  34010  287.05 0855.36
2009/04/23 08:13:43.8    -161    112    -44    197    202 304.9 -12.6  34014  287.11 0855.36
2009/04/23 08:13:43.9    -123    150      7    195    196 320.6   2.1  34014  287.11 0855.36
2009/04/23 08:13:44.0    -118    134    -16    179    180 318.6  -5.4  34012  287.06 0855.36
2009/04/23 08:13:44.1     -89    131     -6    159    160 325.7  -2.2  34014  287.10 0855.36
2009/04/23 08:13:44.2     -46    123     53    132    142 339.5  23.0  34012  287.06 0855.36
2009/04/23 08:13:44.3     -36    115     41    121    128 342.6  18.9  34010  287.03 0855.36
2009/04/23 08:13:44.4     -16    111     -7    113    114 351.5  -3.7  34012  287.06 0855.36
2009/04/23 08:13:44.5     -17    124      6    126    127 352.0   2.8  34008  287.01 0855.36
2009/04/23 08:13:44.6     -23     58     55     63     83 338.1  46.4  34010  287.03 0855.36
2009/04/23 08:13:44.7      71     68     80     99    127  46.0  43.3  34008  287.00 0855.36
2009/04/23 08:13:44.8      31     -9     42     33     53 106.8  56.4  34008  287.00 0855.36
2009/04/23 08:13:44.9       8   -109     62    110    126 175.6  31.9  34006  286.98 0855.36
2009/04/23 08:13:45.0      49    -38     81     63    102 127.8  57.9  34004  286.94 0855.36
2009/04/23 08:13:45.1      56      8     89     57    105  81.2  64.6  34004  286.93 0855.36
2009/04/23 08:13:45.2      -2    -35    104     36    110 184.5  81.2  34008  287.00 0855.36
2009/04/23 08:13:45.3       4    -51     85     52     99 175.5  65.7  34006  286.98 0855.36
2009/04/23 08:13:45.4     -32    -63     83     71    109 207.2  55.8  34006  286.96 0855.36
2009/04/23 08:13:45.5     -10    -38     72     40     82 195.1  68.8  34010  287.03 0855.36
2009/04/23 08:13:45.6      57     -4     63     58     85  94.4  52.2  34010  287.03 0855.36
2009/04/23 08:13:45.7      36      7     51     37     63  78.6  60.5  34006  286.98 0855.36
2009/04/23 08:13:45.8      19     50     60     54     80  20.9  53.3  34008  287.01 0855.36
2009/04/23 08:13:45.9     -15     80     84     82    117 349.3  50.2  34086  288.31 0855.36
2009/04/23 08:13:46.0       0    107     76    108    132   0.5  38.6  34162  289.62 0855.36
2009/04/23 08:13:46.1       4     62    100     63    118   4.5  64.7  34106  288.67 0855.36
2009/04/23 08:13:46.2     -23     -1     94     24     97 267.4  85.4  34076  288.14 0855.36
2009/04/23 08:13:46.3      16     47     73     50     88  18.7  62.6  34156  289.50 0855.36
2009/04/23 08:13:46.4      47     88     65    100    119  28.1  36.0  34186  290.02 0855.36
2009/04/23 08:13:46.5      53     68     85     87    121  37.8  49.9  34174  289.82 0855.36
2009/04/23 08:13:46.6      -1    103     69    104    124 359.1  36.5  34166  289.67 0855.36
2009/04/23 08:13:46.7     -61    129    110    143    180 334.5  41.4  34176  289.84 0855.36
2009/04/23 08:13:46.8     -59    124    125    138    186 334.7  46.9  34118  288.86 0855.36
2009/04/23 08:13:46.9     -45    123    149    132    199 340.0  54.0  34142  289.26 0855.36
2009/04/23 08:13:47.0     -95     95    131    135    188 315.0  49.2  34066  287.98 0855.36
2009/04/23 08:13:47.1    -102    149    110    181    211 325.5  34.4  34068  288.01 0855.36
2009/04/23 08:13:47.2    -143    110    113    181    213 307.8  35.5  34036  287.49 0855.36
2009/04/23 08:13:47.3    -160    124     66    203    214 307.8  18.1  34034  287.43 0855.36
2009/04/23 08:13:47.4    -156    194     44    250    254 321.2  10.0  34036  287.48 0855.36
2009/04/23 08:13:47.5    -154    164     33    226    229 316.8   8.5  34046  287.65 0855.36
2009/04/23 08:13:47.6    -164    198      4    258    259 320.4   1.0  34046  287.63 0855.36
2009/04/23 08:13:47.7    -139    159    -25    212    214 318.8  -6.9  34054  287.77 0855.36
2009/04/23 08:13:47.8    -125    133    -20    183    185 316.8  -6.5  34056  287.81 0855.36
2009/04/23 08:13:47.9    -112     92    -40    146    152 309.5 -15.4  34056  287.81 0855.36
2009/04/23 08:13:48.0    -126     50    -12    136    137 291.7  -5.2  34038  287.52 0855.36
2009/04/23 08:13:48.1     -93     34     -7    100    101 290.4  -4.1  34050  287.70 0855.36
2009/04/23 08:13:48.2     -50     76     14     92     94 326.6   9.0  34052  287.76 0855.36
2009/04/23 08:13:48.3     -58     54      9     80     81 313.3   6.9  34062  287.91 0855.36
2009/04/23 08:13:48.4     -56     71      8     91     92 321.7   5.4  34060  287.87 0855.36
2009/04/23 08:13:48.5     -90     60     -4    109    110 303.7  -2.2  34058  287.86 0855.36
2009/04/23 08:13:48.6     -75     46     15     89     91 301.5  10.1  34078  288.20 0855.36
2009/04/23 08:13:48.7     -61     20     16     65     68 288.2  14.3  34090  288.40 0855.36
2009/04/23 08:13:48.8     -45     15      0     48     49 288.4  -0.3  34090  288.40 0855.39
2009/04/23 08:13:48.9      28    -12      6     31     32 113.5  11.1  34110  288.74 0855.39
2009/04/23 08:13:49.0      55    -37     18     67     70 124.2  15.2  34116  288.84 0855.39
2009/04/23 08:13:49.1      77    -28     32     83     88 110.4  21.5  34124  288.97 0855.39
2009/04/23 08:13:49.2      94     16     48     96    107  80.3  27.8  34130  289.06 0855.39
2009/04/23 08:13:49.3      95     21     45     98    107  77.2  26.6  34120  288.91 0855.39
2009/04/23 08:13:49.4      79    -20     51     82     96 104.2  35.5  34116  288.82 0855.39
2009/04/23 08:13:49.5      66      0     13     67     69  90.0  11.0  34114  288.80 0855.39
2009/04/23 08:13:49.6      33    -15     38     37     53 115.3  49.1  34120  288.89 0855.39
2009/04/23 08:13:49.7      52    -22     35     57     66 113.5  35.5  34120  288.89 0855.39
2009/04/23 08:13:49.8       0     23     79     24     82   0.9  82.8  34116  288.82 0855.39
2009/04/23 08:13:49.9      18     54     78     58     97  18.7  59.4  34118  288.87 0855.39
2009/04/23 08:13:50.0     -20    256    102    257    276 355.5  23.0  34094  288.44 0855.39
2009/04/23 08:13:50.1      59    241    158    249    294  13.8  35.5  34102  288.58 0855.39
2009/04/23 08:13:50.2      29    254    137    256    290   6.7  30.3  34122  288.92 0855.39
2009/04/23 08:13:50.3     155    182     82    240    254  40.5  18.9  34108  288.68 0855.39
2009/04/23 08:13:50.4     -92    169     63    193    204 331.5  18.1  34082  288.26 0855.39
2009/04/23 08:13:50.5    -116    174     47    210    216 326.4  12.6  34080  288.23 0855.39
2009/04/23 08:13:50.6      54    111    131    124    180  26.3  52.0  34048  287.69 0855.39
2009/04/23 08:13:50.7     206     64    115    216    244  72.7  30.2  34084  288.27 0855.39
2009/04/23 08:13:50.8     203    100    150    227    272  63.6  36.5  34098  288.51 0855.40
2009/04/23 08:13:50.9     252     57    -41    259    263  77.2  -9.0  34094  288.46 0855.40
2009/04/23 08:13:51.0     204     89    -12    223    224  66.4  -3.1  34066  287.99 0855.40
2009/04/23 08:13:51.1     205    170     98    267    284  50.4  21.0  34136  289.15 0855.40
2009/04/23 08:13:51.2     190     84     76    208    221  66.0  21.0  34148  289.36 0855.40
2009/04/23 08:13:51.3     190     46     30    196    199  76.3   8.9  34138  289.19 0855.40
2009/04/23 08:13:51.4     186     33    -61    189    198  79.9 -23.0  34118  288.87 0855.40
2009/04/23 08:13:51.5     -80    131    -49    154    161 328.4 -22.5  34106  288.67 0855.40
2009/04/23 08:13:51.6      21    181    -81    183    200   6.7 -29.7  34082  288.26 0855.40
2009/04/23 08:13:51.7      46    196    -69    202    214  13.4 -19.1  34066  287.99 0855.40
2009/04/23 08:13:51.8     116    150     -5    190    191  37.8  -1.8  34062  287.92 0855.40
2009/04/23 08:13:51.9     138    210     -7    252    253  33.4  -1.8  34064  287.93 0855.40
2009/04/23 08:13:52.0     210    160    -60    265    272  52.7 -12.9  34070  288.04 0855.40
2009/04/23 08:13:52.1     434    189     93    474    484  66.5  11.1  34068  288.03 0855.40
2009/04/23 08:13:52.2     540    245    -52    594    597  65.6  -5.1  34066  287.97 0855.40
2009/04/23 08:13:52.3     666    169     53    688    691  75.7   4.5  34028  287.35 0855.40
2009/04/23 08:13:52.4     682    271   -101    734    741  68.3  -7.9  34012  287.06 0855.40
2009/04/23 08:13:52.5     611    184     12    639    640  73.2   1.1  34018  287.17 0855.40
2009/04/23 08:13:52.6     426     86   -120    435    452  78.6 -15.5  34026  287.31 0855.40
2009/04/23 08:13:52.7     395    -44     66    398    404  96.5   9.5  34022  287.23 0855.40
2009/04/23 08:13:52.8     348    140    -32    376    378  68.0  -4.9  33996  286.81 0855.41
2009/04/23 08:13:52.9     391    163     32    424    426  67.3   4.4  34016  287.13 0855.41
2009/04/23 08:13:53.0     337     74    -55    346    351  77.6  -9.1  34024  287.27 0855.41
2009/04/23 08:13:53.1     303     42     36    307    310  82.0   6.7  34044  287.61 0855.41
2009/04/23 08:13:53.2     215     -8     29    216    218  92.4   7.8  34040  287.55 0855.41
2009/04/23 08:13:53.3     222    -11    104    223    246  93.0  27.0  34058  287.83 0855.41
2009/04/23 08:13:53.4     357    -87    -21    368    369 103.7  -3.3  34068  288.01 0855.41
2009/04/23 08:13:53.5     259    -87    -55    274    280 108.6 -11.3  34080  288.22 0855.41
2009/04/23 08:13:53.6     205    -17     32    206    209  95.0   8.8  34078  288.20 0855.41
2009/04/23 08:13:53.7     249    -19     44    250    254  94.6  10.0  34074  288.12 0855.41
2009/04/23 08:13:53.8     166     12     43    167    173  85.6  14.5  34076  288.16 0855.41
2009/04/23 08:13:53.9     126    106      5    165    166  50.0   1.8  34068  288.01 0855.41
2009/04/23 08:13:54.0     123    116     82    170    188  46.7  27.3  34064  287.96 0855.41
2009/04/23 08:13:54.1     127     21     83    129    153  80.4  35.6  34070  288.06 0855.41
2009/04/23 08:13:54.2     132   -107    -18    171    173 129.1  -6.2  34058  287.84 0855.41
2009/04/23 08:13:54.3     161   -100     38    190    194 121.8  11.4  34060  287.87 0855.41
2009/04/23 08:13:54.4      98   -101     49    141    150 135.9  19.4  34060  287.87 0855.41
2009/04/23 08:13:54.5     158   -113     42    195    200 125.7  12.4  34054  287.77 0855.41
2009/04/23 08:13:54.6     142     -6     48    143    151  92.5  18.6  34056  287.81 0855.41
2009/04/23 08:13:54.7      84    -95    107    128    166 138.6  44.1  34054  287.79 0855.41
2009/04/23 08:13:54.8     100   -100    135    142    195 134.9  48.5  34052  287.74 0855.42
2009/04/23 08:13:54.9      32    -39     88     51    101 140.4  67.7  34052  287.76 0855.42
2009/04/23 08:13:55.0      12     15     60     20     63  39.6  81.0  34054  287.77 0855.42
2009/04/23 08:13:55.1      -9     14     72     17     73 327.5  86.9  34054  287.79 0855.42
2009/04/23 08:13:55.2      65     21     75     69    101  71.8  52.2  34056  287.81 0855.42
2009/04/23 08:13:55.3     117     32     75    122    143  74.5  35.0  34054  287.77 0855.42
2009/04/23 08:13:55.4      60     49     63     78    100  50.4  43.3  34052  287.74 0855.42
2009/04/23 08:13:55.5      46     42     52     63     81  47.8  43.7  34054  287.77 0855.42
2009/04/23 08:13:55.6      31     41     44     52     68  37.8  44.8  34054  287.77 0855.42
2009/04/23 08:13:55.7      21     46     55     51     75  25.4  52.2  34052  287.76 0855.42
2009/04/23 08:13:55.8      35     35     53     50     72  45.0  52.1  34052  287.74 0855.42
2009/04/23 08:13:55.9      36     12     84     38     92  71.4  74.0  34054  287.77 0855.42
2009/04/23 08:13:56.0      53      8     72     54     90  81.2  59.0  34054  287.79 0855.42
2009/04/23 08:13:56.1       7     61     85     62    105   7.1  60.5  34042  287.57 0855.42
2009/04/23 08:13:56.2      53     49     86     73    112  46.9  55.8  34038  287.52 0855.42
2009/04/23 08:13:56.3      38     40     82     56     99  44.1  62.1  34032  287.42 0855.42
2009/04/23 08:13:56.4      71    139    133    157    205  27.2  44.5  34018  287.16 0855.42
2009/04/23 08:13:56.5     -44    114    186    123    222 338.6  63.9  34018  287.18 0855.42
2009/04/23 08:13:56.6     140     55    234    151    278  68.3  64.4  34022  287.24 0855.42
2009/04/23 08:13:56.7     289    331    354    440    564  41.1  42.9  34028  287.35 0855.42
2009/04/23 08:13:56.8     290    253    355    385    523  48.9  47.5  34014  287.09 0855.42
2009/04/23 08:13:56.9     253    371    336    450    561  34.3  40.6  34074  288.11 0855.42
2009/04/23 08:13:57.0     259    380    233    461    516  34.3  28.9  34102  288.59 0855.42
2009/04/23 08:13:57.1     300    294    112    421    436  45.6  14.9  34094  288.45 0855.42
2009/04/23 08:13:57.2     139    394     85    419    428  19.5  11.5  34070  288.04 0855.42
2009/04/23 08:13:57.3     121    223   -125    254    283  28.5 -32.6  34066  287.97 0855.42
2009/04/23 08:13:57.4     230    276     17    360    361  39.9   2.8  34054  287.79 0855.42
2009/04/23 08:13:57.5     286    320     13    430    431  41.8   1.8  34056  287.80 0855.42
2009/04/23 08:13:57.6      36    275     56    278    284   7.6  11.4  34070  288.05 0855.42
2009/04/23 08:13:57.7     -36    223   -119    227    256 350.7 -34.5  34058  287.83 0855.42
2009/04/23 08:13:57.8      57    277    -56    284    290  11.8 -11.3  34036  287.48 0855.42
2009/04/23 08:13:57.9     282    327    -57    433    437  40.8  -7.6  34068  288.02 0855.42
2009/04/23 08:13:58.0     284    224   -119    362    382  51.7 -18.3  34112  288.77 0855.42
2009/04/23 08:13:58.1     262    256    -33    367    369  45.6  -5.2  34106  288.67 0855.42
2009/04/23 08:13:58.2     238    281    -10    369    370  40.3  -1.6  34012  287.08 0855.42
2009/04/23 08:13:58.3     219    278     17    355    356  38.2   2.8  34002  286.90 0855.42
2009/04/23 08:13:58.4     302    335    -25    452    453  42.0  -3.2  34006  286.96 0855.42
2009/04/23 08:13:58.5     278    365      5    459    460  37.3   0.7  34056  287.82 0855.42
2009/04/23 08:13:58.6     472    160     73    499    505  71.2   8.3  34084  288.30 0855.42
2009/04/23 08:13:58.7     497    216     31    543    544  66.5   3.3  34102  288.58 0855.42
2009/04/23 08:13:58.8     524    184     15    556    557  70.6   1.6  34082  288.26 0855.42
2009/04/23 08:13:58.9     250    319     67    406    412  38.1   9.5  34044  287.62 0855.42
2009/04/23 08:13:59.0     268    344    132    437    457  37.9  16.8  34004  286.94 0855.42
2009/04/23 08:13:59.1     175    377     -8    416    417  24.9  -1.2  34018  287.18 0855.42
2009/04/23 08:13:59.2     167    456     95    486    496  20.2  11.1  34002  286.90 0855.42
2009/04/23 08:13:59.3     152    410    175    438    471  20.4  23.0  34000  286.86 0855.42
2009/04/23 08:13:59.4     133    390     91    413    424  18.9  12.5  34002  286.91 0855.42
2009/04/23 08:13:59.5     292    356     89    461    470  39.4  11.0  34016  287.14 0855.42
2009/04/23 08:13:59.6     294    264    144    396    421  48.1  20.9  34016  287.14 0855.42
2009/04/23 08:13:59.7     255    220    139    337    364  49.2  23.8  34016  287.12 0855.42
2009/04/23 08:13:59.8     218    269    -19    347    348  39.1  -3.3  34026  287.29 0855.42
2009/04/23 08:13:59.9     265    248     31    364    366  46.9   5.0  34036  287.47 0855.42
2009/04/23 08:14:00.0     311    260     71    406    413  50.1  10.0  34042  287.57 0855.42
2009/04/23 08:14:00.1     337    228     30    407    409  55.9   4.2  34060  287.89 0855.42
2009/04/23 08:14:00.2     348    261     76    436    443  53.2  10.0  34048  287.68 0855.42
2009/04/23 08:14:00.3     335    184     28    383    384  61.2   4.2  34052  287.74 0855.42
2009/04/23 08:14:00.4     316    191     18    370    371  58.8   2.9  34052  287.74 0855.42
2009/04/23 08:14:00.5     369    172     -2    408    409  65.0  -0.4  34082  288.24 0855.42
2009/04/23 08:14:00.6     370    121    192    390    434  71.9  28.2  34120  288.89 0855.42
2009/04/23 08:14:00.7     250    314    145    402    428  38.6  19.9  34052  287.73 0855.42
2009/04/23 08:14:00.8     113    270     98    293    310  22.7  18.5  34042  287.56 0855.42
2009/04/23 08:14:00.9     109    359    151    376    405  16.9  23.1  34008  287.00 0855.42
2009/04/23 08:14:01.0     111    352    145    370    397  17.5  22.5  34018  287.18 0855.42
2009/04/23 08:14:01.1      75    457    100    464    475   9.4  12.2  34020  287.19 0855.42
2009/04/23 08:14:01.2     -61    526     66    530    535 353.3   7.1  34010  287.03 0855.42
2009/04/23 08:14:01.3    -292    485    -73    567    572 329.0  -7.4  34004  286.92 0855.42
2009/04/23 08:14:01.4    -319    404   -152    515    536 321.7 -21.4  34000  286.86 0855.42
2009/04/23 08:14:01.5    -434    365    -94    568    576 310.1  -9.5  34006  286.97 0855.42
2009/04/23 08:14:01.6    -340    415    -89    537    545 320.7  -9.5  34002  286.91 0855.42
2009/04/23 08:14:01.7    -248    371   -151    447    473 326.2 -18.7  33996  286.79 0855.42
2009/04/23 08:14:01.8    -182    331   -128    378    399 331.2 -23.7  33996  286.80 0855.43
2009/04/23 08:14:01.9    -107    292   -177    312    358 339.9 -36.4  33996  286.80 0855.43
2009/04/23 08:14:02.0      -9    313   -197    314    370 358.2 -39.7  34000  286.86 0855.43
2009/04/23 08:14:02.1      61    302   -156    309    346  11.6 -33.1  34000  286.85 0855.43
2009/04/23 08:14:02.2     127    346   -114    369    386  20.2 -22.2  33996  286.80 0855.43
2009/04/23 08:14:02.3      57    304   -107    310    327  10.6 -23.9  33998  286.82 0855.43
2009/04/23 08:14:02.4      25    330   -111    331    350   4.4 -18.6  34002  286.90 0855.43
2009/04/23 08:14:02.5     -85    322   -211    333    394 345.2 -39.9  34000  286.88 0855.43
2009/04/23 08:14:02.6      56    331   -241    336    413   9.7 -43.6  34000  286.85 0855.43
2009/04/23 08:14:02.7     -36    119   -302    125    326 343.0 -80.7  34036  287.46 0855.43
2009/04/23 08:14:02.8      11    371   -231    372    437   1.8 -39.3  34082  288.26 0855.43
2009/04/23 08:14:02.9      17    351   -188    352    399   2.8 -34.9  34030  287.37 0855.43
2009/04/23 08:14:03.0       7    256    -80    257    269   1.6 -22.5  34038  287.50 0855.43
2009/04/23 08:14:03.1    -104    197    -61    223    232 332.1 -15.4  34018  287.18 0855.43
2009/04/23 08:14:03.2    -219    322    -15    390    391 325.8  -2.2  34000  286.88 0855.43
2009/04/23 08:14:03.3    -235    314     16    393    394 323.2   2.3  34012  287.07 0855.43
2009/04/23 08:14:03.4    -179    366     81    408    417 333.9  11.3  34008  286.99 0855.43
2009/04/23 08:14:03.5    -188    287      2    344    345 326.7   0.4  34006  286.95 0855.43
2009/04/23 08:14:03.6    -195    214     10    290    291 317.7   2.1  34008  286.99 0855.43
2009/04/23 08:14:03.7    -154    128   -106    201    227 309.6 -34.5  34006  286.98 0855.43
2009/04/23 08:14:03.8    -231     39    -83    235    250 279.6 -19.6  34004  286.92 0855.43
2009/04/23 08:14:03.9    -208    -55    -79    216    229 255.2 -25.3  34014  287.11 0855.43
2009/04/23 08:14:04.0    -148    -39   -140    154    208 255.0 -51.5  34018  287.16 0855.43
2009/04/23 08:14:04.1    -153      3   -177    154    234 271.3 -59.0  34010  287.05 0855.43
2009/04/23 08:14:04.2    -158     46   -176    165    241 286.4 -56.5  34020  287.20 0855.43
2009/04/23 08:14:04.3    -173     36   -170    177    245 281.9 -53.4  34010  287.03 0855.43
2009/04/23 08:14:04.4     -47     47   -144     67    158 315.0 -77.9  34020  287.21 0855.43
2009/04/23 08:14:04.5     -76    -30   -140     82    162 248.3 -71.2  34018  287.18 0855.43
2009/04/23 08:14:04.6    -158    -59   -142    169    220 249.4 -48.5  34022  287.25 0855.43
2009/04/23 08:14:04.7    -103    -27   -114    107    156 254.9 -56.5  34018  287.18 0855.43
2009/04/23 08:14:04.8     -29    -18   -122     35    126 237.5 -87.7  34018  287.18 0855.43
2009/04/23 08:14:04.9       0     62    -79     63    101 359.1 -61.3  34014  287.10 0855.43
2009/04/23 08:14:05.0     -38    150    -15    155    156 345.7  -5.6  34020  287.20 0855.43
2009/04/23 08:14:05.1     -60    235    -43    243    247 345.5 -10.1  34020  287.21 0855.43
2009/04/23 08:14:05.2     -20    140   -115    142    182 351.9 -47.9  34020  287.20 0855.43
2009/04/23 08:14:05.3      43    168   -100    174    200  14.5 -37.1  34018  287.16 0855.43
2009/04/23 08:14:05.4      72     82    -27    110    114  41.4 -13.9  34020  287.20 0855.43
2009/04/23 08:14:05.5      28     40      2     49     50  35.2   2.9  34022  287.23 0855.43
2009/04/23 08:14:05.6      52     92     43    106    114  29.4  23.0  34022  287.23 0855.43
2009/04/23 08:14:05.7      93     96     96    134    164  44.1  39.1  34020  287.20 0855.43
2009/04/23 08:14:05.8     212    121    136    245    280  60.2  31.4  34018  287.16 0855.43
2009/04/23 08:14:05.9     157    125    117    201    232  51.4  33.1  34014  287.11 0855.43
2009/04/23 08:14:06.0      45    142     80    150    170  17.8  30.3  34018  287.18 0855.43
2009/04/23 08:14:06.2     214     33    -58    217    225  81.0 -15.0  34018  287.18 0855.43
2009/04/23 08:14:06.3     244     30    -43    246    250  82.8 -10.1  34016  287.14 0855.43
2009/04/23 08:14:06.4     249     46    -71    254    264  79.5 -15.8  34016  287.12 0855.43
2009/04/23 08:14:06.5     238    113    -38    264    267  64.6  -8.2  34012  287.07 0855.43
2009/04/23 08:14:06.6     192     79    -53    208    215  67.6 -14.3  34008  287.00 0855.43
2009/04/23 08:14:06.7     139     57    -37    151    156  67.8 -13.9  34002  286.91 0855.43
2009/04/23 08:14:06.8      97    222    -44    243    247  23.6 -10.3  34012  287.07 0855.43
2009/04/23 08:14:06.9     122    267    -48    294    299  24.7  -9.4  34006  286.97 0855.43
2009/04/23 08:14:07.0     153    271    -40    312    315  29.4  -7.3  34006  286.97 0855.43
2009/04/23 08:14:07.1      67    202     -8    214    215  18.5  -2.3  34008  287.00 0855.43
2009/04/23 08:14:07.2      25    323   -158    325    361   4.5 -32.2  34004  286.93 0855.43
2009/04/23 08:14:07.3     109    335    -11    353    354  18.0  -1.9  34002  286.91 0855.43
2009/04/23 08:14:07.4     123    244    -18    274    275  26.7  -3.9  34004  286.94 0855.43
2009/04/23 08:14:07.5      47    303     15    307    308   8.9   2.9  34020  287.19 0855.43
2009/04/23 08:14:07.6     -56    352    -19    357    358 350.9  -3.2  34018  287.17 0855.43
2009/04/23 08:14:07.7      -4    341    -43    342    345 359.3  -7.3  34010  287.02 0855.43
2009/04/23 08:14:07.8      45    295    -35    299    302   8.7  -6.7  34006  286.95 0855.43
2009/04/23 08:14:07.9       0    220     11    221    222   0.2   2.9  34006  286.98 0855.43
2009/04/23 08:14:08.0       3    250    -31    251    253   0.9  -7.2  34010  287.02 0855.43
2009/04/23 08:14:08.1      42    208    -42    213    218  11.5 -11.3  34006  286.98 0855.43
2009/04/23 08:14:08.2      63    155    -47    168    175  22.3 -15.8  34002  286.91 0855.43
2009/04/23 08:14:08.3      52     80     30     96    101  33.0  17.3  34004  286.94 0855.43
2009/04/23 08:14:08.4      50     47     29     69     74  46.9  24.1  34006  286.96 0855.43
2009/04/23 08:14:08.5      12     47     60     49     77  15.1  56.4  34006  286.96 0855.43
2009/04/23 08:14:08.6      25     39     54     47     71  32.5  55.4  34008  287.01 0855.43
2009/04/23 08:14:08.7      15     31     43     35     55  27.2  56.4  34008  287.01 0855.43
2009/04/23 08:14:08.8      11      5     39     13     41  64.7  81.0  34010  287.03 0855.43
2009/04/23 08:14:08.9      19      4     61     20     64  76.7  80.7  34008  287.01 0855.43
2009/04/23 08:14:09.0       0      0     53      0     53   0.0 -90.0  34006  286.98 0855.43
2009/04/23 08:14:09.1      20     97     60    100    116  11.6  34.4  34008  287.00 0855.43
2009/04/23 08:14:09.2      22    157     59    159    169   8.0  21.0  34018  287.18 0855.43
2009/04/23 08:14:09.3      -2    168     58    169    179 359.0  19.2  34016  287.13 0855.43
2009/04/23 08:14:09.4      -4    167     48    168    175 358.6  16.0  34018  287.16 0855.43
2009/04/23 08:14:09.5      20    154     27    156    159   7.6   9.9  34022  287.25 0855.43
2009/04/23 08:14:09.6      47    158     17    165    166  16.7   5.9  34022  287.25 0855.43
2009/04/23 08:14:09.7      41    155     -3    161    162  15.1  -1.3  34020  287.21 0855.43
2009/04/23 08:14:09.8      15    144     -9    145    146   6.3  -3.7  34022  287.25 0855.43
2009/04/23 08:14:09.9      16    112    -14    114    115   8.1  -7.3  34036  287.49 0855.43
2009/04/23 08:14:10.0      31     36    -30     48     56  40.5 -39.9  34032  287.40 0855.43
2009/04/23 08:14:10.1      20    168     -6    170    171   6.9  -2.3  34024  287.28 0855.43
2009/04/23 08:14:10.2     -24    204    -16    206    207 353.3  -4.6  34018  287.16 0855.43
2009/04/23 08:14:10.3     -71    195    -44    208    213 339.9 -12.2  34014  287.11 0855.43
2009/04/23 08:14:10.4    -137    135     80    193    208 314.7  23.6  34024  287.28 0855.43
2009/04/23 08:14:10.5    -149    107     18    184    185 305.7   5.7  34014  287.10 0855.43
2009/04/23 08:14:10.6    -100    128     41    163    169 322.2  14.3  34036  287.49 0855.43
2009/04/23 08:14:10.7     -67     82     -9    106    107 320.8  -5.2  34044  287.60 0855.43
2009/04/23 08:14:10.8     -45    114     12    123    124 338.1   5.9  34040  287.54 0855.43
2009/04/23 08:14:10.9      -9    213    -43    214    219 357.5 -11.3  34062  287.92 0855.43
2009/04/23 08:14:11.0      -9    216     24    217    219 357.5   6.5  34060  287.87 0855.43
2009/04/23 08:14:11.1       9    218     46    219    224   2.5  12.0  34074  288.13 0855.43
2009/04/23 08:14:11.2      63    207     51    217    223  16.9  13.2  34066  287.98 0855.43
2009/04/23 08:14:11.3      37    188     69    192    204  11.3  20.4  34064  287.96 0855.43
2009/04/23 08:14:11.4      26    163     72    166    180   9.3  24.9  34064  287.96 0855.43
2009/04/23 08:14:11.5      44    161     58    168    178  15.4  19.2  34082  288.25 0855.43
2009/04/23 08:14:11.6     -80    177     78    195    210 335.7  23.0  34066  287.98 0855.43
2009/04/23 08:14:11.7    -103    218     86    242    256 334.8  20.4  34048  287.68 0855.43
2009/04/23 08:14:11.8    -136    164     68    214    225 320.3  17.7  34046  287.65 0855.43
2009/04/23 08:14:11.9     -68    242    171    252    304 344.2  37.6  34020  287.21 0855.41
2009/04/23 08:14:12.0     -64    238    155    247    291 344.8  35.5  34034  287.43 0855.41
2009/04/23 08:14:12.1    -131    220    111    257    279 329.3  25.1  34062  287.90 0855.41
2009/04/23 08:14:12.2     -17    328    165    329    368 356.9  28.6  34030  287.37 0855.41
2009/04/23 08:14:12.3     -98    344     31    358    360 344.0   5.0  34030  287.37 0855.41
2009/04/23 08:14:12.4    -107    322     44    340    343 341.5   7.4  34058  287.83 0855.41
2009/04/23 08:14:12.5    -105    390     59    405    410 344.9   8.3  34072  288.07 0855.41
2009/04/23 08:14:12.6     -75    358     17    366    367 348.1   2.8  34116  288.81 0855.41
2009/04/23 08:14:12.7     -93    323     67    337    344 343.9  11.3  34156  289.52 0855.41
2009/04/23 08:14:12.8    -152    295     95    333    347 332.7  15.9  34064  287.93 0855.41
2009/04/23 08:14:12.9       9    266    111    267    289   2.0  24.1  34088  288.36 0855.41
2009/04/23 08:14:13.0     -31    192    192    195    273 350.7  49.9  34050  287.71 0855.41
2009/04/23 08:14:13.1     -70    208    133    220    257 341.3  34.0  34072  288.07 0855.41
2009/04/23 08:14:13.2      16    211     92    212    231   4.5  25.1  34054  287.79 0855.41
2009/04/23 08:14:13.3     -86    222    140    239    276 338.8  33.1  34058  287.83 0855.41
2009/04/23 08:14:13.4     -15    140    110    141    178 353.8  42.0  34050  287.70 0855.41
2009/04/23 08:14:13.5     138    161    189    213    284  40.5  45.9  34042  287.56 0855.41
2009/04/23 08:14:13.6      94    199    133    221    257  25.3  34.0  34058  287.83 0855.41
2009/04/23 08:14:13.7      11    258    190    259    321   2.5  39.9  34138  289.20 0855.41
2009/04/23 08:14:13.8      14    310    130    311    337   2.7  23.9  34094  288.47 0855.41
2009/04/23 08:14:13.9     130    163    119    209    240  38.7  32.3  34040  287.54 0855.42
2009/04/23 08:14:14.0     191     94    166    213    270  63.8  42.0  34046  287.65 0855.42
2009/04/23 08:14:14.1     185    107    140    214    255  60.0  36.5  34076  288.15 0855.42
2009/04/23 08:14:14.2     258    133     91    291    306  62.7  17.4  34076  288.14 0855.42
2009/04/23 08:14:14.3     220    180     44    285    289  50.7   8.9  34088  288.34 0855.42
2009/04/23 08:14:14.4     212    204     57    295    301  46.2  11.0  34104  288.61 0855.42
2009/04/23 08:14:14.5     227    209     54    309    314  47.3  10.0  34080  288.21 0855.42
2009/04/23 08:14:14.6     194    233    114    304    324  39.7  21.5  34060  287.88 0855.42
2009/04/23 08:14:14.7     278    304     26    413    414  42.4   3.6  34038  287.52 0855.42
2009/04/23 08:14:14.8     356    233     51    426    430  56.7   6.9  34076  288.16 0855.42
2009/04/23 08:14:14.9     252    261      5    363    364  44.0   0.8  34038  287.51 0855.42
2009/04/23 08:14:15.0     186    286     80    342    352  33.1  13.3  34006  286.96 0855.42
2009/04/23 08:14:15.1     208    264     32    337    339  38.2   5.4  34008  287.00 0855.42
2009/04/23 08:14:15.2     239    246     50    344    348  44.2   8.3  34006  286.96 0855.42
2009/04/23 08:14:15.3     186    285     93    341    354  33.2  15.3  34028  287.34 0855.42
2009/04/23 08:14:15.4     171    284    108    332    350  31.2  18.0  34064  287.94 0855.42
2009/04/23 08:14:15.5     -28    299     89    301    315 354.6  16.5  34052  287.75 0855.42
2009/04/23 08:14:15.6     -20    275     75    276    287 355.8  15.2  34038  287.51 0855.42
2009/04/23 08:14:15.7     149    261     67    301    309  29.8  12.6  34042  287.58 0855.42
2009/04/23 08:14:15.8     310    262    136    407    430  49.8  18.5  34050  287.72 0855.42
2009/04/23 08:14:15.9     318    303    111    440    454  46.4  14.2  34038  287.52 0855.42
2009/04/23 08:14:16.0     337    275     93    436    446  50.8  12.1  34038  287.50 0855.42
2009/04/23 08:14:16.1     384    196     38    432    434  62.9   5.1  34016  287.14 0855.42
2009/04/23 08:14:16.2     395    209     -6    447    448  62.1  -0.9  34014  287.11 0855.42
2009/04/23 08:14:16.3     340    238      0    416    417  55.0   0.0  34002  286.89 0855.42
2009/04/23 08:14:16.4     386    221     24    445    446  60.2   3.1  34024  287.26 0855.42
2009/04/23 08:14:16.5     340    187      5    389    390  61.1   0.8  34082  288.25 0855.42
2009/04/23 08:14:16.6     400    135     43    423    426  71.3   5.8  34112  288.77 0855.42
2009/04/23 08:14:16.7     430    171     42    463    465  68.3   5.2  34072  288.07 0855.42
2009/04/23 08:14:16.8     381    180     76    422    429  64.6  10.2  34030  287.36 0855.42
2009/04/23 08:14:16.9     121    237    -29    267    269  27.2  -6.2  34016  287.12 0855.42
2009/04/23 08:14:17.0      70    257    -73    267    277 360.0 -15.4  34016  287.12 0855.42
2009/04/23 08:14:17.1      43    211    -36    216    220  11.5  -9.6  34012  287.06 0855.42
2009/04/23 08:14:17.2     133    182     37    226    230  36.1   9.3  34002  286.91 0855.42
2009/04/23 08:14:17.3      52    186     16    194    195  15.6   4.9  34006  286.98 0855.42
2009/04/23 08:14:17.4      60    182    -51    192    199  18.3 -15.0  34004  286.93 0855.42
2009/04/23 08:14:17.5      41    191    -50    196    203  12.3 -14.5  34002  286.91 0855.42
2009/04/23 08:14:17.6      26    206    -31    208    211   7.3  -8.6  34004  286.94 0855.42
2009/04/23 08:14:17.7      11    243    -58    244    251   2.6 -13.4  34002  286.90 0855.42
2009/04/23 08:14:17.8      93    186    -34    209    212  26.7  -9.3  33996  286.79 0855.42
2009/04/23 08:14:17.9     134     85     45    159    166  57.6  16.0  34004  286.94 0855.42
2009/04/23 08:14:18.0     105     62     55    123    134  59.3  25.7  34006  286.96 0855.42
2009/04/23 08:14:18.1      95     31     80    101    128  71.6  42.7  34010  287.03 0855.42
2009/04/23 08:14:18.2      94      0    105     95    141  90.4  52.7  34028  287.35 0855.42
2009/04/23 08:14:18.3      81    -39     81     90    121 115.8  46.9  34030  287.38 0855.42
2009/04/23 08:14:18.4     -13    -43    109     45    117 196.9  76.6  34008  287.01 0855.42
2009/04/23 08:14:18.5      69   -109     97    130    162 147.5  40.7  34004  286.93 0855.42
2009/04/23 08:14:18.6      93    -75    134    120    179 129.1  53.5  33996  286.79 0855.42
2009/04/23 08:14:18.7      79   -218     68    233    243 160.0  16.4  34002  286.89 0855.42
2009/04/23 08:14:18.8      68   -201     14    213    214 161.3   3.8  34002  286.91 0855.42
2009/04/23 08:14:18.9      68   -144     52    160    169 154.5  18.1  33998  286.83 0855.42
2009/04/23 08:14:19.0     114   -185     38    218    222 148.4   9.9  34000  286.88 0855.42
2009/04/23 08:14:19.1     100   -201    -53    225    232 153.5 -13.4  34006  286.96 0855.42
2009/04/23 08:14:19.2     120   -208     51    241    247 150.1  12.0  34004  286.94 0855.42
2009/04/23 08:14:19.3     129   -203    -13    241    242 147.5  -3.1  34006  286.97 0855.42
2009/04/23 08:14:19.4     102   -187    -33    214    217 151.3  -8.8  34006  286.98 0855.42
2009/04/23 08:14:19.5      93   -186     69    209    221 153.3  18.4  34002  286.89 0855.42
2009/04/23 08:14:19.6      49   -202     74    208    220 166.2  20.2  34002  286.89 0855.42
2009/04/23 08:14:19.7      88   -253    -41    268    272 160.8  -8.8  34004  286.92 0855.42
2009/04/23 08:14:19.8      83   -244    -41    259    263 161.1  -9.0  34002  286.89 0855.42
2009/04/23 08:14:19.9     100   -213      7    236    237 154.7   1.8  34002  286.89 0855.42
2009/04/23 08:14:20.0     111   -129    -29    171    174 139.5  -9.6  34002  286.89 0855.42
2009/04/23 08:14:20.1     105   -101     12    146    147 134.0   4.9  34002  286.91 0855.42
2009/04/23 08:14:20.2     110   -101     -6    150    151 132.7  -2.6  34002  286.89 0855.42
2009/04/23 08:14:20.3     133    -84     20    158    160 122.5   7.2  34002  286.91 0855.42
2009/04/23 08:14:20.4     131    -95     44    163    169 126.0  15.3  34000  286.88 0855.42
2009/04/23 08:14:20.5      88    -69      4    113    114 128.2   2.3  34004  286.94 0855.42
2009/04/23 08:14:20.6      33    -82     25     89     93 158.2  15.8  34004  286.94 0855.42
2009/04/23 08:14:20.7      78    -21     49     81     94 105.5  35.0  34006  286.96 0855.42
2009/04/23 08:14:20.8      59     20     21     63     67  71.4  18.4  34004  286.94 0855.42
2009/04/23 08:14:20.9      99     39      3    107    108  68.2   1.8  34004  286.94 0855.42
2009/04/23 08:14:21.0     115      4     14    116    117  87.9   7.1  34004  286.93 0855.42
2009/04/23 08:14:21.1     111     31     15    116    117  74.1   7.5  34002  286.89 0855.42
2009/04/23 08:14:21.2      90      4     53     91    105  87.4  33.5  34004  286.93 0855.42
2009/04/23 08:14:21.3      60      3     66     61     89  86.5  52.2  34004  286.93 0855.42
2009/04/23 08:14:21.4      69     -5     67     70     96  94.4  49.4  34006  286.98 0855.42
2009/04/23 08:14:21.5      45     23     57     51     76  62.9  52.2  34004  286.93 0855.42
2009/04/23 08:14:21.6      49     49     41     70     81  45.0  32.9  34004  286.94 0855.42
2009/04/23 08:14:21.7      31     62     50     70     86  27.2  39.1  34006  286.96 0855.42
2009/04/23 08:14:21.8      31     59     54     67     86  28.1  43.3  34006  286.96 0855.42
2009/04/23 08:14:21.9      10     72     54     73     90   8.0  40.1  34006  286.98 0855.39
2009/04/23 08:14:22.0      -5     71     46     72     85 355.5  35.6  34008  287.01 0855.39
2009/04/23 08:14:22.1       0     75     41     76     86   0.0  30.8  34010  287.03 0855.39
2009/04/23 08:14:22.2     -10     75     36     76     84 351.9  27.2  34008  287.00 0855.39
2009/04/23 08:14:22.3      -4     76     49     77     91 356.4  35.5  34006  286.98 0855.39
2009/04/23 08:14:22.4     -13     80     47     82     94 350.2  32.9  34006  286.96 0855.39
2009/04/23 08:14:22.5     -16     63     32     66     73 345.7  27.3  34006  286.96 0855.39
2009/04/23 08:14:22.6      -4     65     14     66     68 356.4  12.2  34006  286.96 0855.39
2009/04/23 08:14:22.7       0     56      5     57     58 359.1   5.9  34004  286.94 0855.39
2009/04/23 08:14:22.8      21     46     15     51     54  25.5  16.3  34004  286.94 0855.39
2009/04/23 08:14:22.9      36     50     31     62     69  36.1  27.3  34002  286.91 0855.39
2009/04/23 08:14:23.0      10     58     40     59     71   9.8  36.5  34006  286.96 0855.39
2009/04/23 08:14:23.1      21     38     35     44     56  29.9  43.7  34006  286.98 0855.39
2009/04/23 08:14:23.2      12     39     46     41     61  17.8  53.3  34002  286.91 0855.39
2009/04/23 08:14:23.3      -6     31     41     32     52 348.5  57.5  34004  286.94 0855.39
2009/04/23 08:14:23.4      17     22     37     28     46  37.8  59.4  34006  286.96 0855.39
2009/04/23 08:14:23.5      30     13     23     33     40  66.5  38.6  34006  286.98 0855.39
2009/04/23 08:14:23.6       8     12     23     15     27  32.6  64.6  34006  286.98 0855.39
2009/04/23 08:14:23.7       9      3     44     10     45  68.3  88.0  34004  286.93 0855.39
2009/04/23 08:14:23.8      33    -14     50     36     61 113.5  60.5  34006  286.96 0855.39
2009/04/23 08:14:23.9      -5    -12     54     14     55 201.8  84.9  34004  286.94 0855.37
2009/04/23 08:14:24.0     -16    -24     69     30     75 214.3  75.0  34004  286.94 0855.37
2009/04/23 08:14:24.1     -26    -43     82     51     96 210.7  64.7  34004  286.94 0855.37
2009/04/23 08:14:24.2      15    -45     63     48     79 161.5  59.0  34004  286.93 0855.37
2009/04/23 08:14:24.3      36    -27     47     45     65 126.9  51.2  34002  286.89 0855.37
2009/04/23 08:14:24.4      36    -41     83     55     99 138.6  63.6  34002  286.91 0855.37
2009/04/23 08:14:24.5      58    -41    106     72    128 125.1  62.6  34000  286.88 0855.37
2009/04/23 08:14:24.6      63      0     82     64    104  90.0  57.9  34002  286.91 0855.37
2009/04/23 08:14:24.7      30     47     89     56    105  32.5  64.7  34002  286.91 0855.37
2009/04/23 08:14:24.8      35    -35     67     50     83 135.0  59.4  34004  286.93 0855.37
2009/04/23 08:14:24.9      60    -49     27     78     83 129.6  19.2  34002  286.91 0855.38
2009/04/23 08:14:25.0      25    -19     57     32     65 127.8  68.8  34004  286.93 0855.38
2009/04/23 08:14:25.1      16    -16     53     24     58 135.0  74.0  34002  286.91 0855.38
2009/04/23 08:14:25.2      -1    -41     61     42     74 181.8  63.6  34002  286.91 0855.38
2009/04/23 08:14:25.3     -29    -92    102     97    140 197.4  52.1  34002  286.91 0855.38
2009/04/23 08:14:25.4       5   -161    140    162    214 178.2  45.4  34002  286.89 0855.38
2009/04/23 08:14:25.5      35   -151    112    156    192 166.7  39.3  33998  286.83 0855.38
2009/04/23 08:14:25.6     -82   -132    150    156    216 212.1  48.7  34002  286.91 0855.38
2009/04/23 08:14:25.7     -65   -163    139    176    224 201.8  42.2  34002  286.89 0855.38
2009/04/23 08:14:25.8    -118   -193     98    227    247 211.4  24.9  34002  286.90 0855.38
2009/04/23 08:14:25.9     -58   -208     26    216    218 195.6   6.9  34004  286.93 0855.38
2009/04/23 08:14:26.0       0   -190     16    191    192 180.0   4.9  34002  286.91 0855.38
2009/04/23 08:14:26.1      31   -130     38    134    140 166.6  15.8  34006  286.96 0855.38
2009/04/23 08:14:26.2      74   -125     19    146    148 149.3   7.5  34004  286.93 0855.38
2009/04/23 08:14:26.3      56    -82     -2    100    101 145.3  -1.3  34004  286.93 0855.38
2009/04/23 08:14:26.4      70    -45     -1     84     85 122.4  -1.3  34006  286.96 0855.38
2009/04/23 08:14:26.5      82     17      4     84     85  78.1   2.9  34002  286.89 0855.38
2009/04/23 08:14:26.6      41    124     78    131    152  18.3  33.5  33998  286.84 0855.38
2009/04/23 08:14:26.7      87    120     58    149    159  36.0  22.0  33996  286.81 0855.38
2009/04/23 08:14:26.8      91    154     74    180    194  30.7  23.6  34000  286.88 0855.38
2009/04/23 08:14:26.9      82    149     83    171    190  28.7  27.4  34000  286.86 0855.41
2009/04/23 08:14:27.0     114     96     88    150    173  50.0  33.5  34000  286.88 0855.41
2009/04/23 08:14:27.1      34    149     74    153    169  12.9  27.4  34012  287.06 0855.41
2009/04/23 08:14:27.2       9    115     38    116    123   4.9  18.4  34026  287.32 0855.41
2009/04/23 08:14:27.3      82    129     30    154    157  32.6  11.1  34070  288.06 0855.41
2009/04/23 08:14:27.4      52    161     75    170    185  17.8  25.1  34090  288.38 0855.41
2009/04/23 08:14:27.5      39    115     21    122    124  18.7  10.1  34088  288.36 0855.41
2009/04/23 08:14:27.6     -45     95     10    106    107 334.7   5.4  34048  287.67 0855.41
2009/04/23 08:14:27.7      71     59     76     93    120  50.5  43.7  34106  288.67 0855.41
2009/04/23 08:14:27.8       6    127     50    128    137   2.7  23.0  34138  289.19 0855.41
2009/04/23 08:14:27.9     -28    121     46    125    133 346.6  20.9  34136  289.16 0855.41
2009/04/23 08:14:28.0     -65     83     54    106    118 321.7  29.3  34110  288.74 0855.41
2009/04/23 08:14:28.1     -33     50     75     60     96 326.6  56.9  34110  288.74 0855.41
2009/04/23 08:14:28.2       2     34     77     35     84   4.4  74.0  34120  288.89 0855.41
2009/04/23 08:14:28.3     -29      9     86     31     91 288.6  80.2  34100  288.57 0855.41
2009/04/23 08:14:28.4     -74     80    156    110    190 317.2  61.3  34062  287.92 0855.41
2009/04/23 08:14:28.5     -38    103    152    111    188 339.5  60.5  34060  287.87 0855.41
2009/04/23 08:14:28.6     -86      0     57     87    104 269.6  36.0  34040  287.54 0855.41
2009/04/23 08:14:28.7    -124    -47     47    133    142 249.2  19.4  34040  287.55 0855.41
2009/04/23 08:14:28.8    -126     -2     89    127    155 268.7  38.6  34036  287.47 0855.41
2009/04/23 08:14:28.9    -108     63     74    126    146 300.2  33.5  34038  287.52 0855.41
2009/04/23 08:14:29.0    -121     99     81    157    176 309.5  29.3  34036  287.47 0855.41
2009/04/23 08:14:29.1     -76    147     78    166    183 332.6  27.1  34036  287.49 0855.41
2009/04/23 08:14:29.2    -115    178     67    213    224 327.0  17.4  34044  287.60 0855.41
2009/04/23 08:14:29.3    -126    264     95    293    309 334.5  18.0  34074  288.12 0855.41
2009/04/23 08:14:29.4    -148    285    104    322    339 332.5  17.9  34090  288.38 0855.41
2009/04/23 08:14:29.5    -145    273     56    310    316 332.0  10.2  34114  288.80 0855.41
2009/04/23 08:14:29.6     -56    315    -34    321    323 349.8  -6.2  34108  288.70 0855.41
2009/04/23 08:14:29.7      22    319    -52    320    325   4.0  -9.3  34072  288.07 0855.41
2009/04/23 08:14:29.8      38    338    -71    341    349   6.5 -11.8  34102  288.60 0855.41
2009/04/23 08:14:29.9      94    286     19    302    303  18.3   3.6  34092  288.43 0855.41
2009/04/23 08:14:30.0      13    290     25    291    293   2.6   5.0  34084  288.29 0855.41
2009/04/23 08:14:30.1     102    287     95    305    320  19.6  17.4  34090  288.37 0855.41
2009/04/23 08:14:30.2     183    215    -40    283    286  40.5  -8.2  34072  288.07 0855.41
2009/04/23 08:14:30.3     155    186     -9    243    244  39.9  -2.2  34060  287.87 0855.41
2009/04/23 08:14:30.4     141    222     37    264    267  32.5   8.0  34070  288.05 0855.41
2009/04/23 08:14:30.5      96    219     58    240    247  23.8  13.7  34076  288.15 0855.41
2009/04/23 08:14:30.6     107    203     62    230    239  27.9  15.2  34096  288.48 0855.41
2009/04/23 08:14:30.7     159    195     67    252    261  39.2  15.0  34070  288.05 0855.41
2009/04/23 08:14:30.8     129    178     79    221    234  36.0  20.4  34078  288.20 0855.41
2009/04/23 08:14:30.9     113    218     82    246    260  27.4  18.4  34084  288.29 0855.42
2009/04/23 08:14:31.0     140    206    115    250    275  34.2  26.2  34118  288.85 0855.42
2009/04/23 08:14:31.1     200    166    119    261    286  50.4  26.2  34084  288.29 0855.42
2009/04/23 08:14:31.2     179    151    144    235    275  49.8  34.4  34144  289.29 0855.42
2009/04/23 08:14:31.3     129    205    159    243    290  32.1  36.0  34184  289.97 0855.42
2009/04/23 08:14:31.4     160    160    194    227    298  45.0  44.8  34180  289.92 0855.42
2009/04/23 08:14:31.5     156    179    197    238    308  41.0  43.8  34144  289.31 0855.42
2009/04/23 08:14:31.6     150     73    157    167    229  64.0  48.0  34054  287.79 0855.42
2009/04/23 08:14:31.7      63     83    132    105    168  37.4  57.5  34082  288.25 0855.42
2009/04/23 08:14:31.8     -41    154     92    160    184 344.8  32.7  34154  289.48 0855.42
2009/04/23 08:14:31.9     -42    158    109    164    196 345.1  36.7  34150  289.41 0855.42
2009/04/23 08:14:32.0     -45    138     69    146    161 341.7  27.0  34134  289.13 0855.42
2009/04/23 08:14:32.1     -77    129     40    151    157 329.2  15.0  34146  289.33 0855.42
2009/04/23 08:14:32.2     -21    106     65    109    126 348.9  33.5  34122  288.94 0855.42
2009/04/23 08:14:32.3     -27    100    137    104    172 344.8  59.0  34080  288.23 0855.42
2009/04/23 08:14:32.4     -27    104    149    108    184 345.3  60.6  34072  288.09 0855.42
2009/04/23 08:14:32.5      66     49    123     83    148  53.1  62.7  34040  287.55 0855.42
2009/04/23 08:14:32.6      22     11    105     25    107  62.9  86.9  34046  287.65 0855.42
2009/04/23 08:14:32.7      88     15     95     90    130  79.9  51.6  34038  287.50 0855.42
2009/04/23 08:14:32.8      47     35     87     59    105  53.1  63.2  34028  287.33 0855.42
2009/04/23 08:14:32.9       0     34     41     35     53 359.1  54.3  34042  287.57 0855.42
2009/04/23 08:14:33.0      22     17     49     29     56  52.2  65.7  34034  287.45 0855.42
2009/04/23 08:14:33.1      18     55     69     59     90  18.7  55.4  34024  287.28 0855.42
2009/04/23 08:14:33.2     -25     82     69     86    110 342.6  43.7  34022  287.23 0855.42
2009/04/23 08:14:33.3     -12    129     69    130    147 354.7  29.8  34038  287.50 0855.42
2009/04/23 08:14:33.4       2     44     76     45     88   3.6  66.8  34042  287.57 0855.42
2009/04/23 08:14:33.5     -11     23    106     26    109 332.8  85.9  34042  287.57 0855.42
2009/04/23 08:14:33.6     -39      3    123     40    129 274.4  80.7  34038  287.52 0855.42
2009/04/23 08:14:33.7     -38    -14    112     41    119 250.0  79.2  34048  287.69 0855.42
2009/04/23 08:14:33.8      29     46    131     55    142  32.6  76.6  34052  287.74 0855.42
2009/04/23 08:14:34.0     100     67    154    121    195  56.3  57.9  34046  287.64 0855.42
2009/04/23 08:14:34.1      41    164    143    170    222  14.0  44.3  34034  287.43 0855.42
2009/04/23 08:14:34.2      41    165    107    171    201  14.0  35.5  34022  287.23 0855.42
2009/04/23 08:14:34.3      40    263    137    267    300   8.7  29.3  34026  287.29 0855.42
2009/04/23 08:14:34.4      59    271     96    278    295  12.3  19.2  34036  287.46 0855.42
2009/04/23 08:14:34.5      62    246     90    254    269  14.3  20.0  34042  287.58 0855.42
2009/04/23 08:14:34.6      -8    182    107    183    211 357.3  33.4  34042  287.57 0855.42
2009/04/23 08:14:34.7     114    122    136    168    216  43.0  43.5  34036  287.47 0855.42
2009/04/23 08:14:34.8     202    180    126    271    298  48.2  27.0  34036  287.46 0855.42
2009/04/23 08:14:34.9     183    208     76    278    289  41.4  15.3  34054  287.77 0855.42
2009/04/23 08:14:35.0      25    208    107    210    235   6.9  29.1  34064  287.94 0855.41
2009/04/23 08:14:35.1      31    192     90    195    214   9.3  26.6  34060  287.87 0855.41
2009/04/23 08:14:35.2     102    129    125    165    207  38.3  41.2  34060  287.89 0855.41
2009/04/23 08:14:35.3      88    219    145    237    277  21.9  34.4  34068  288.02 0855.41
2009/04/23 08:14:35.4     134     98     93    167    191  53.8  31.4  34068  288.01 0855.41
2009/04/23 08:14:35.5     151     95    112    179    211  57.6  35.2  34072  288.08 0855.41
2009/04/23 08:14:35.6      47     74    117     88    146  32.5  59.4  34066  287.98 0855.41
2009/04/23 08:14:35.7      -6    160    108    161    193 357.8  36.7  34056  287.81 0855.41
2009/04/23 08:14:35.8     -60    188    119    198    231 342.2  33.7  34068  288.03 0855.41
2009/04/23 08:14:35.9     -77    198    123    213    245 338.6  32.7  34078  288.19 0855.41
2009/04/23 08:14:36.0     -51    173    115    181    214 343.3  35.5  34078  288.18 0855.41
2009/04/23 08:14:36.1      44    239    116    244    270  10.5  27.2  34074  288.10 0855.41
2009/04/23 08:14:36.2      -9    295    -27    296    298 358.2  -5.4  34062  287.92 0855.41
2009/04/23 08:14:36.3     -42    304    -12    308    309 352.0  -2.2  34058  287.83 0855.41
2009/04/23 08:14:36.4     -62    231     69    240    250 344.8  16.0  34112  288.76 0855.41
2009/04/23 08:14:36.5     -58    262     47    269    274 347.5  10.0  34086  288.32 0855.41
2009/04/23 08:14:36.6     -55    243     35    250    253 347.1   8.0  34106  288.65 0855.41
2009/04/23 08:14:36.7     -50    185     74    192    205 344.9  22.3  34124  288.96 0855.41
2009/04/23 08:14:36.8     -28    224     87    226    242 352.7  22.0  34114  288.80 0855.41
2009/04/23 08:14:36.9      46    238     38    243    247  11.1   8.9  34098  288.53 0855.41
2009/04/23 08:14:37.0       7    272     43    273    277   1.6   9.0  34112  288.75 0855.42
2009/04/23 08:14:37.1     -46    240     62    245    253 349.1  14.3  34086  288.31 0855.42
2009/04/23 08:14:37.2     -97    347     72    361    369 344.3  11.3  34110  288.72 0855.42
2009/04/23 08:14:37.3    -100    374    109    388    404 345.0  15.8  34126  288.99 0855.42
2009/04/23 08:14:37.4     -65    334    107    341    358 349.0  17.4  34124  288.96 0855.42
2009/04/23 08:14:37.5      27    253    125    255    283   6.2  28.0  34094  288.46 0855.42
2009/04/23 08:14:37.6     146    134     65    199    210  47.6  18.1  34118  288.86 0855.42
2009/04/23 08:14:37.7     107    114     57    157    167  43.3  20.7  34110  288.72 0855.42
2009/04/23 08:14:37.8      13     99     67    100    120   7.6  37.4  34096  288.48 0855.42
2009/04/23 08:14:37.9      62    123     86    138    162  26.7  35.2  34082  288.25 0855.42
2009/04/23 08:14:38.0      89    148     87    173    193  31.0  28.7  34104  288.62 0855.42
2009/04/23 08:14:38.1     144    101    106    176    205  54.9  34.0  34114  288.79 0855.42
2009/04/23 08:14:38.2     185    185    110    263    285  45.0  24.1  34138  289.20 0855.42
2009/04/23 08:14:38.3     240    235     49    336    340  45.6   8.3  34036  287.49 0855.42
2009/04/23 08:14:38.4     250    225     47    337    341  48.1   8.0  34026  287.32 0855.42
2009/04/23 08:14:38.5     181    267     57    323    329  34.1  10.1  34010  287.02 0855.42
2009/04/23 08:14:38.6     138    198     38    242    246  35.0   9.0  34028  287.34 0855.42
2009/04/23 08:14:38.7     125    245     60    276    283  27.1  12.4  34070  288.04 0855.42
2009/04/23 08:14:38.8     103    258     54    279    285  21.8  11.1  34122  288.93 0855.42
2009/04/23 08:14:38.9     133    219      0    257    258  31.2   0.2  34090  288.37 0855.42
2009/04/23 08:14:39.0     218    127    121    253    280  59.8  27.3  34048  287.66 0855.42
2009/04/23 08:14:39.1     199     85     34    217    220  66.9   9.0  34078  288.18 0855.42
2009/04/23 08:14:39.2     268     42    -23    272    274  81.0  -4.9  34074  288.12 0855.42
2009/04/23 08:14:39.3     251     26    -42    253    257  83.9  -9.6  34026  287.29 0855.42
2009/04/23 08:14:39.4     234    -12    -81    235    249  93.0 -19.1  34012  287.06 0855.42
2009/04/23 08:14:39.5     299     17   -150    300    335  86.7 -32.9  34006  286.95 0855.42
2009/04/23 08:14:39.6     284     78   -166    295    338  74.5 -36.1  33996  286.80 0855.42
2009/04/23 08:14:39.7     226    224   -283    319    426  45.2 -50.6  34032  287.40 0855.42
2009/04/23 08:14:39.8     211    152   -160    261    306  54.3 -38.9  34016  287.14 0855.42
2009/04/23 08:14:39.9     189    279   -249    338    419  34.2 -44.3  34010  287.03 0855.42
2009/04/23 08:14:40.0     159    250   -208    297    362  32.5 -42.9  34006  286.95 0855.42
2009/04/23 08:14:40.1     219    121   -146    251    290  61.1 -37.5  34010  287.02 0855.42
2009/04/23 08:14:40.2     253     92   -127    270    298  70.0 -31.5  34012  287.07 0855.42
2009/04/23 08:14:40.3     157      0    -78    158    176  90.0 -32.4  34018  287.16 0855.42
2009/04/23 08:14:40.4     121     32    -91    126    155  75.0 -43.9  34016  287.15 0855.42
2009/04/23 08:14:40.5      59     72    -57     94    109  39.2 -38.8  34026  287.30 0855.42
2009/04/23 08:14:40.6      84     51    -14     99    101  58.5  -8.2  34024  287.27 0855.42
2009/04/23 08:14:40.7      88    100      6    134    135  41.4   2.8  34038  287.52 0855.42
2009/04/23 08:14:40.8     125     43     34    133    138  70.9  14.7  34022  287.25 0855.42
2009/04/23 08:14:40.9     176     72     23    191    193  67.8   6.9  34026  287.30 0855.42
2009/04/23 08:14:41.0     239    -68      7    249    250 105.9   1.7  34028  287.33 0855.41
2009/04/23 08:14:41.1     179   -139     61    227    236 127.8  15.2  34026  287.29 0855.41
2009/04/23 08:14:41.2     149    -49     65    158    170 108.4  23.6  34020  287.21 0855.41
2009/04/23 08:14:41.3     207     -3     25    208    210  91.0   6.9  34022  287.25 0855.41
2009/04/23 08:14:41.4     150     59     98    162    189  68.3  34.2  34006  286.96 0855.41
2009/04/23 08:14:41.5     166     31    106    169    199  79.2  35.2  34008  287.00 0855.41
2009/04/23 08:14:41.6     146     26    145    149    207  79.9  49.4  34028  287.35 0855.41
2009/04/23 08:14:41.7      53     17    131     56    142  71.8  76.1  34032  287.42 0855.41
2009/04/23 08:14:41.8      84      0    131     85    156  90.0  64.6  34034  287.43 0855.41
2009/04/23 08:14:41.9      78     15     83     80    115  78.5  50.7  34026  287.30 0855.41
2009/04/23 08:14:42.0       7      7     50     11     51  45.0  89.0  34026  287.30 0855.41
2009/04/23 08:14:42.1     -35     52     54     63     82 325.7  45.4  34024  287.27 0855.41
2009/04/23 08:14:42.2     -65      9      0     66     67 277.9   0.8  34018  287.18 0855.41
2009/04/23 08:14:42.3     -79      1     17     80     82 270.9  12.6  34010  287.03 0855.41
2009/04/23 08:14:42.4     -96    -36     -6    103    104 249.2  -3.7  34022  287.23 0855.41
2009/04/23 08:14:42.5     -78    -60     39     99    106 232.2  22.5  34032  287.40 0855.41
2009/04/23 08:14:42.6     -22   -109    -30    112    116 191.5 -15.0  34036  287.49 0855.41
2009/04/23 08:14:42.7      -6    -85      0     86     87 184.5   0.2  34038  287.52 0855.41
2009/04/23 08:14:42.8     -16    -71     42     73     84 193.4  32.9  34034  287.43 0855.41
2009/04/23 08:14:42.9     -44    -17     32     48     57 248.3  35.6  34036  287.47 0855.41
2009/04/23 08:14:43.0     -85    -13     39     86     94 261.2  25.7  34036  287.49 0855.41
2009/04/23 08:14:43.1     -82      1     25     83     87 270.8  16.8  34032  287.40 0855.41
2009/04/23 08:14:43.2     -70     14     67     72     98 281.5  47.9  34030  287.37 0855.41
2009/04/23 08:14:43.3     -70     22     86     74    113 287.7  54.8  34028  287.33 0855.41
2009/04/23 08:14:43.4     -94     26     19     98    100 285.5  11.1  34020  287.21 0855.41
2009/04/23 08:14:43.5     -55     20     11     59     61 290.8  11.1  34020  287.20 0855.41
2009/04/23 08:14:43.6     -57     45      8     73     74 308.6   6.9  34018  287.18 0855.41
2009/04/23 08:14:43.7     -26     26     24     37     44 315.0  36.5  34026  287.30 0855.41
2009/04/23 08:14:43.8      33    -11     60     35     69 108.4  66.8  34030  287.38 0855.41
2009/04/23 08:14:43.9     -40    -48     75     63     97 219.6  55.8  34032  287.42 0855.41
2009/04/23 08:14:44.0     -82    -58     15    101    103 234.5   8.5  34028  287.35 0855.41
2009/04/23 08:14:44.1     -70    -38     15     80     82 241.1  10.6  34030  287.38 0855.41
2009/04/23 08:14:44.2    -144    -91     10    171    172 237.6   3.6  34030  287.37 0855.41
2009/04/23 08:14:44.3     -88    -88    -16    125    127 225.0  -7.3  34028  287.33 0855.41
2009/04/23 08:14:44.4     -48   -121     31    131    135 201.8  13.7  34018  287.18 0855.41
2009/04/23 08:14:44.5      30    -64     65     72     97 154.5  46.9  34020  287.21 0855.41
2009/04/23 08:14:44.6      23     19    117     30    120  50.5  85.9  34026  287.32 0855.41
2009/04/23 08:14:44.7     -34   -106     99    112    149 197.8  45.8  34026  287.32 0855.41
2009/04/23 08:14:44.8     -87   -203     98    221    241 203.2  25.2  34028  287.33 0855.41
2009/04/23 08:14:44.9     -67   -158     56    172    181 202.9  18.1  34012  287.08 0855.41
2009/04/23 08:14:45.0     -15     24    -46     29     54 327.4 -69.1  34018  287.16 0855.42
2009/04/23 08:14:45.1     -72     48    -61     87    106 303.7 -43.0  34022  287.23 0855.42
2009/04/23 08:14:45.2     -75     31      4     82     83 292.6   3.3  34016  287.13 0855.42
2009/04/23 08:14:45.3     -33     42     79     54     95 321.3  63.2  34018  287.16 0855.42
2009/04/23 08:14:45.4     -75    121     71    143    159 328.4  28.5  34022  287.25 0855.42
2009/04/23 08:14:45.5     -77    159     62    177    188 334.1  19.6  34018  287.18 0855.42
2009/04/23 08:14:45.6    -182    183    132    259    290 315.1  29.2  34024  287.26 0855.42
2009/04/23 08:14:45.7    -197    133    125    239    269 304.1  29.8  34026  287.31 0855.42
2009/04/23 08:14:45.8    -113    129     73    172    186 318.8  24.3  34024  287.28 0855.42
2009/04/23 08:14:45.9    -123    164     -9    206    207 323.0  -2.6  34034  287.45 0855.42
2009/04/23 08:14:46.0     -62    205    -56    215    223 343.1 -14.7  34038  287.52 0855.42
2009/04/23 08:14:46.1     -44    109     53    118    129 338.1  26.2  34030  287.37 0855.42
2009/04/23 08:14:46.2    -156    113     28    193    196 306.0   8.5  34028  287.35 0855.42
2009/04/23 08:14:46.3    -143    142     17    202    203 314.9   5.0  34024  287.27 0855.42
2009/04/23 08:14:46.4    -122    186    104    223    246 326.6  27.0  34026  287.29 0855.42
2009/04/23 08:14:46.5     -79    193    118    209    240 337.5  31.9  34024  287.28 0855.42
2009/04/23 08:14:46.6     -96    146    102    176    203 326.6  33.1  34026  287.30 0855.42
2009/04/23 08:14:46.7     -85    104     87    135    160 320.8  36.0  34024  287.28 0855.42
2009/04/23 08:14:46.8     -24    105     58    108    122 347.1  30.8  34024  287.28 0855.42
2009/04/23 08:14:46.9       0     45     69     46     82   0.9  63.2  34026  287.32 0855.42
2009/04/23 08:14:47.0      20     49    105     54    118  22.7  71.0  34032  287.40 0855.44
2009/04/23 08:14:47.1      17     64     89     67    111  15.1  59.0  34046  287.64 0855.44
2009/04/23 08:14:47.2     -10     32     90     34     96 341.5  79.2  34050  287.72 0855.44
2009/04/23 08:14:47.3     -30    -15     61     34     69 242.9  68.8  34048  287.67 0855.44
2009/04/23 08:14:47.4     -28     13     93     31     98 295.4  81.0  34052  287.76 0855.44
2009/04/23 08:14:47.5     -63    107     60    125    138 329.7  27.2  34058  287.84 0855.44
2009/04/23 08:14:47.6      47     59     44     76     87  38.7  32.9  34048  287.67 0855.44
2009/04/23 08:14:47.7     -22    110     51    113    123 348.5  26.2  34042  287.59 0855.44
2009/04/23 08:14:47.8      22    123     50    125    134  10.2  22.5  34054  287.77 0855.44
2009/04/23 08:14:47.9      93    161    135    187    230  30.1  39.5  34068  288.03 0855.44
2009/04/23 08:14:48.0      31    135    155    139    208  12.9  53.5  34078  288.18 0855.45
2009/04/23 08:14:48.1     -70    -60    115     93    147 229.1  56.4  34052  287.76 0855.45
2009/04/23 08:14:48.2    -189   -134    120    232    261 234.7  29.5  34048  287.66 0855.45
2009/04/23 08:14:48.3    -177   -212     77    277    288 219.9  15.6  34048  287.68 0855.45
2009/04/23 08:14:48.4    -186   -211     99    282    298 221.4  20.0  34046  287.65 0855.45
2009/04/23 08:14:48.5     -30   -307    166    309    350 185.6  30.7  34036  287.49 0855.45
2009/04/23 08:14:48.6     -67   -162    166    176    241 202.7  48.5  34034  287.45 0855.45
2009/04/23 08:14:48.7     -97   -210    275    232    359 204.9  55.7  34030  287.38 0855.45
2009/04/23 08:14:48.8    -149   -315     98    349    363 205.4  15.7  34042  287.59 0855.45
2009/04/23 08:14:48.9    -148   -226    116    271    294 213.2  24.6  34048  287.68 0855.45
2009/04/23 08:14:49.0    -167   -287    117    333    352 210.2  20.3  34044  287.61 0855.45
2009/04/23 08:14:49.1    -244   -206     -6    320    321 229.8  -1.1  34042  287.56 0855.45
2009/04/23 08:14:49.2    -285   -133    -54    315    320 244.9  -9.8  34048  287.66 0855.45
2009/04/23 08:14:49.3    -276   -110    -55    298    304 248.3 -10.5  34070  288.05 0855.45
2009/04/23 08:14:49.4    -302    -86    -34    314    316 254.1  -6.3  34064  287.93 0855.45
2009/04/23 08:14:49.5    -328    -57    -54    334    339 260.1  -9.3  34066  287.98 0855.45
2009/04/23 08:14:49.6    -390    -32    -78    392    400 265.2 -11.3  34072  288.08 0855.45
2009/04/23 08:14:49.7    -489   -103   -118    500    514 258.1 -13.3  34064  287.93 0855.45
2009/04/23 08:14:49.8    -361    -92   -106    373    388 255.7 -15.9  34088  288.35 0855.45
2009/04/23 08:14:49.9    -324     16    -89    325    338 272.9 -15.4  34100  288.54 0855.45
2009/04/23 08:14:50.0    -251     76     72    263    273 286.8  15.3  34058  287.83 0855.46
2009/04/23 08:14:50.1    -274   -166     55    321    326 238.7   9.9  34054  287.78 0855.46
2009/04/23 08:14:50.2    -123   -181    -64    220    230 214.3 -16.4  34032  287.42 0855.46
2009/04/23 08:14:50.3    -111    -63      6    128    129 240.2   2.9  34028  287.35 0855.46
2009/04/23 08:14:50.4    -317    105   -137    335    361 288.4 -28.0  34034  287.45 0855.46
2009/04/23 08:14:50.5    -308    284   -142    419    443 312.7 -18.8  34018  287.18 0855.46
2009/04/23 08:14:50.6    -278    249     12    374    375 311.8   1.9  34022  287.25 0855.46
2009/04/23 08:14:50.7    -193    128     47    232    237 303.7  11.6  34030  287.36 0855.46
2009/04/23 08:14:50.8    -107     16     -4    109    110 278.8  -2.2  34032  287.40 0855.46
2009/04/23 08:14:50.9    -218    -12     52    219    226 266.7  13.5  34018  287.18 0855.46
2009/04/23 08:14:51.0    -347     41   -136    350    375 276.9 -26.9  34014  287.10 0855.46
2009/04/23 08:14:51.1    -225    -61     13    234    235 254.7   3.3  34020  287.21 0855.46
2009/04/23 08:14:51.2    -278    202     39    344    347 306.0   6.6  34010  287.02 0855.46
2009/04/23 08:14:51.3      41    178    -86    183    202  13.1 -31.4  34016  287.15 0855.46
2009/04/23 08:14:51.4    -194    193   -185    274    330 314.8 -41.6  34000  286.87 0855.46
2009/04/23 08:14:51.5     -25    327   -135    329    355 355.5 -28.0  34022  287.23 0855.46
2009/04/23 08:14:51.6     -50    182     18    189    190 344.4   5.7  34010  287.05 0855.46
2009/04/23 08:14:51.7     -18    212     75    213    226 354.9  19.4  34012  287.08 0855.46
2009/04/23 08:14:51.8      43    172     65    178    189  14.0  20.7  34022  287.25 0855.46
2009/04/23 08:14:51.9     -25    164     76    166    182 351.3  26.4  34024  287.27 0855.46
2009/04/23 08:14:52.0     -97    176     17    202    203 331.0   4.9  34024  287.27 0855.45
2009/04/23 08:14:52.1      -7    123     -6    124    125 356.4  -3.1  34022  287.25 0855.45
2009/04/23 08:14:52.2     -31     94     14    100    102 341.7   8.0  34022  287.25 0855.45
2009/04/23 08:14:52.3     -34    113     91    119    149 343.1  41.6  34030  287.37 0855.45
2009/04/23 08:14:52.4     -17     85     57     87    104 348.4  36.0  34028  287.33 0855.45
2009/04/23 08:14:52.5       7     35     28     36     45  11.6  41.7  34026  287.32 0855.45
2009/04/23 08:14:52.6     -23     58     35     63     72 338.1  31.4  34026  287.32 0855.45
2009/04/23 08:14:52.7      -4     57     49     58     75 355.6  43.8  34026  287.32 0855.45
2009/04/23 08:14:52.8     -10     31     59     33     67 341.7  68.8  34026  287.30 0855.45
2009/04/23 08:14:52.9      32    -16     23     37     43 117.1  35.5  34024  287.27 0855.45
2009/04/23 08:14:53.0      34      4    -12     35     37  82.1 -23.6  34024  287.28 0855.45
2009/04/23 08:14:53.1      47    -44     12     65     67 133.1  11.1  34018  287.18 0855.45
2009/04/23 08:14:53.2      14    -71     93     73    118 168.4  57.9  34012  287.08 0855.45
2009/04/23 08:14:53.3       9   -123    132    124    181 175.5  52.1  34014  287.10 0855.45
2009/04/23 08:14:53.4     -46   -163     -6    170    171 195.8  -2.2  34012  287.08 0855.45
2009/04/23 08:14:53.5     -71   -197     -8    210    211 200.0  -2.3  34012  287.06 0855.45
2009/04/23 08:14:53.6       3   -205      2    206    207 179.1   0.7  34008  287.00 0855.45
2009/04/23 08:14:53.7      63   -200     30    210    213 162.4   8.2  34006  286.96 0855.45
2009/04/23 08:14:53.8     141   -193     65    240    249 143.9  15.2  34012  287.07 0855.45
2009/04/23 08:14:53.9     205   -296     37    361    363 145.3   5.9  34010  287.03 0855.45
2009/04/23 08:14:54.0     175   -379    128    418    438 155.2  17.0  34010  287.03 0855.43
2009/04/23 08:14:54.1     116   -348    118    367    386 161.5  17.9  34000  286.88 0855.43
2009/04/23 08:14:54.2     120   -353    160    374    406 161.2  24.6  34006  286.95 0855.43
2009/04/23 08:14:54.3     159   -436    165    465    494 159.9  19.6  34004  286.93 0855.43
2009/04/23 08:14:54.4     145   -353    106    382    397 157.7  15.6  34006  286.98 0855.43
2009/04/23 08:14:54.5     209   -359    144    416    441 149.8  19.2  34002  286.91 0855.43
2009/04/23 08:14:54.6     101   -277    129    296    322 159.9  25.0  33998  286.82 0855.43
2009/04/23 08:14:54.7       1   -179    -23    180    182 179.5  -7.3  34000  286.86 0855.43
2009/04/23 08:14:54.8      61   -129     39    144    150 154.5  15.3  34002  286.89 0855.43
2009/04/23 08:14:54.9       4   -260     81    261    274 179.1  17.3  34004  286.92 0855.43
2009/04/23 08:14:55.0    -133   -402     63    424    429 198.4   8.5  34006  286.96 0855.43
2009/04/23 08:14:55.1     -78   -384    -41    393    396 191.6  -6.1  34000  286.86 0855.43
2009/04/23 08:14:55.2     -17   -403    135    404    427 182.5  18.5  34000  286.86 0855.43
2009/04/23 08:14:55.3     -50   -323     69    327    335 188.8  12.0  34000  286.85 0855.43
2009/04/23 08:14:55.4     -15   -182    226    183    290 184.9  56.6  33998  286.82 0855.43
2009/04/23 08:14:55.5     -29   -186    164    189    250 189.1  45.4  34002  286.91 0855.43
2009/04/23 08:14:55.6      87   -431    257    440    509 168.6  32.9  33996  286.80 0855.43
2009/04/23 08:14:55.7     -37   -443    286    445    528 184.9  35.6  34000  286.88 0855.43
2009/04/23 08:14:55.8     -30   -455    270    457    530 183.8  33.4  33994  286.78 0855.43
2009/04/23 08:14:55.9      10   -539    391    540    666 178.9  39.5  33996  286.80 0855.43
2009/04/23 08:14:56.0      59   -503    296    507    587 173.3  32.9  34000  286.88 0855.43
2009/04/23 08:14:56.1     -91   -438    347    448    566 191.8  41.7  34000  286.88 0855.43
2009/04/23 08:14:56.2     -16   -274    295    275    403 183.5  52.2  34000  286.88 0855.43
2009/04/23 08:14:56.3     -14   -212    312    213    377 184.0  62.6  34004  286.93 0855.43
2009/04/23 08:14:56.4       6   -355    235    356    426 179.0  36.5  34000  286.87 0855.43
2009/04/23 08:14:56.5      98   -310     63    326    333 162.4  11.0  33994  286.76 0855.43
2009/04/23 08:14:56.6     155   -304     18    342    343 153.0   3.0  34000  286.85 0855.43
2009/04/23 08:14:56.7      62   -323     -3    330    331 169.0  -0.6  33998  286.83 0855.43
2009/04/23 08:14:56.8     -56   -266    117    273    297 192.0  24.6  34000  286.87 0855.43
2009/04/23 08:14:56.9     -26   -258     91    260    276 185.8  19.4  33998  286.84 0855.43
2009/04/23 08:14:57.0      16   -295     85    296    309 176.9  16.0  33998  286.84 0855.43
2009/04/23 08:14:57.1     101   -305     88    322    335 161.5  15.4  34000  286.85 0855.43
2009/04/23 08:14:57.2      38   -301     37    304    307 172.8   7.1  33998  286.82 0855.43
2009/04/23 08:14:57.3     -42   -273    117    277    300 188.9  24.2  33992  286.74 0855.43
2009/04/23 08:14:57.4    -100   -262     24    281    283 201.0   5.0  33998  286.84 0855.43
2009/04/23 08:14:57.5     -69   -171    104    185    212 202.1  31.9  33998  286.84 0855.43
2009/04/23 08:14:57.6      42    -80    132     91    160 151.9  62.1  34004  286.93 0855.43
2009/04/23 08:14:57.7       0      0    107      1    107 270.0  90.0  34002  286.91 0855.43
2009/04/23 08:14:57.8     -18     38     41     43     59 334.6  49.0  34004  286.94 0855.43
2009/04/23 08:14:57.9      41     55     59     69     90  37.0  44.8  34002  286.91 0855.43
2009/04/23 08:14:58.0      11     10     -4     16     17  46.7 -15.5  34002  286.91 0855.42
2009/04/23 08:14:58.1     -26    -43     22     51     55 210.7  25.1  34004  286.93 0855.42
2009/04/23 08:14:58.2       4    -88     42     89     98 176.9  27.1  34000  286.86 0855.42
2009/04/23 08:14:58.3      16   -190     79    191    206 174.9  23.8  34002  286.89 0855.42
2009/04/23 08:14:58.4     156   -285    115    326    346 151.3  19.5  34000  286.88 0855.42
2009/04/23 08:14:58.5      33   -274    108    276    296 173.1  22.8  34004  286.92 0855.42
2009/04/23 08:14:58.6      86   -259    122    274    299 161.5  25.3  34006  286.97 0855.42
2009/04/23 08:14:58.7     160   -269    120    313    335 149.3  22.0  34006  286.95 0855.42
2009/04/23 08:14:58.8     130   -167    134    212    250 142.2  35.5  34002  286.89 0855.42
2009/04/23 08:14:58.9      99    -70    129    122    177 125.1  52.0  34002  286.91 0855.42
2009/04/23 08:14:59.0      -6     20    172     22    173 341.5  90.0  34010  287.03 0855.42
2009/04/23 08:14:59.1     133    -58    117    146    187 113.5  43.3  34006  286.96 0855.42
2009/04/23 08:14:59.2     111    -36    115    117    164 108.2  50.0  34006  286.96 0855.42
2009/04/23 08:14:59.3      95      1    126     96    158  89.2  59.0  34002  286.89 0855.42
2009/04/23 08:14:59.4      10     80    119     81    143   7.1  62.6  34000  286.88 0855.42
2009/04/23 08:14:59.5     -77     71     36    106    113 312.7  18.9  34002  286.91 0855.42
2009/04/23 08:14:59.6      41    -13     62     44     76 107.7  60.6  34002  286.89 0855.42
2009/04/23 08:14:59.7      76     13     33     78     84  80.3  23.6  34004  286.93 0855.42
2009/04/23 08:14:59.8      69     47      7     84     85  55.4   4.9  34000  286.88 0855.42
2009/04/23 08:14:59.9      16     56     63     59     86  16.0  51.6  34006  286.96 0855.42
2009/04/23 08:15:00.0      28     57     73     64     97  26.3  54.3  34004  286.94 0855.43
2009/04/23 08:15:00.1      45     56    103     72    125  38.7  62.1  34004  286.93 0855.43
2009/04/23 08:15:00.2     179     71     73    193    206  68.3  21.7  34002  286.91 0855.43
2009/04/23 08:15:00.3     226     38     11    230    231  80.4   2.9  34006  286.96 0855.43
2009/04/23 08:15:00.4     190    -47    135    196    237 104.2  37.8  34004  286.94 0855.43
2009/04/23 08:15:00.5     136     -2    123    137    184  90.9  46.9  34004  286.93 0855.43
2009/04/23 08:15:00.6      20    -65    118     69    136 163.1  66.8  34002  286.91 0855.43
2009/04/23 08:15:00.7      66    -77    151    102    182 139.5  63.2  34004  286.93 0855.43
2009/04/23 08:15:00.8      19    -35    128     41    134 151.0  80.7  34006  286.96 0855.43
2009/04/23 08:15:00.9     -14    -69    128     71    146 191.5  68.8  34004  286.94 0855.43
2009/04/23 08:15:01.0     -43    -58     44     73     85 216.1  34.4  34006  286.96 0855.43
2009/04/23 08:15:01.1     -37   -156    -33    161    165 193.6 -11.6  34002  286.91 0855.43
2009/04/23 08:15:01.2      55   -155    -65    165    177 160.4 -27.2  34002  286.91 0855.43
2009/04/23 08:15:01.3      81    -80    -64    114    130 134.6 -36.3  34004  286.94 0855.43
2009/04/23 08:15:01.4      56    -13    -53     58     78 103.3 -52.3  34002  286.89 0855.43
2009/04/23 08:15:01.6      62     27    -40     68     78  66.5 -37.9  34002  286.91 0855.43
2009/04/23 08:15:01.7     133      0     27    134    137  90.0  11.6  34004  286.94 0855.43
2009/04/23 08:15:01.8     101      6     92    102    137  86.5  47.5  34004  286.93 0855.43
2009/04/23 08:15:01.9      45      0     98     46    108  90.0  73.1  34006  286.96 0855.43
2009/04/23 08:15:02.0     -18      6     54     19     57 288.4  81.2  34004  286.94 0855.43
2009/04/23 08:15:02.1     -38     26     22     47     51 304.2  27.1  34004  286.93 0855.43
2009/04/23 08:15:02.2     -53     53     88     76    116 315.0  54.8  34004  286.94 0855.43
2009/04/23 08:15:02.3     -89     54     77    105    130 301.1  39.7  34004  286.94 0855.43
2009/04/23 08:15:02.4    -132    -22     82    134    157 260.4  34.4  34004  286.93 0855.43
2009/04/23 08:15:02.5    -105    -23     67    108    127 257.6  35.5  34006  286.96 0855.43
2009/04/23 08:15:02.6     -78     71     37    106    113 312.2  19.4  34006  286.96 0855.43
2009/04/23 08:15:02.7      17     44    115     48    124  20.9  77.0  34006  286.98 0855.43
2009/04/23 08:15:02.8      40    -27    150     49    157 124.2  81.6  34006  286.96 0855.43
2009/04/23 08:15:02.9       0   -190    156    191    246 180.0  43.7  34008  287.00 0855.43
2009/04/23 08:15:03.0     -40   -183    116    188    220 192.5  35.0  34004  286.94 0855.43
2009/04/23 08:15:03.1      33   -225    121    228    258 171.5  30.3  34006  286.97 0855.43
2009/04/23 08:15:03.2      14   -132    134    133    188 173.8  49.9  34008  287.00 0855.43
2009/04/23 08:15:03.3       5     11     86     13     86  25.4  90.0  34008  287.01 0855.43
2009/04/23 08:15:03.4     -24    -87    158     91    182 195.6  67.5  34008  287.00 0855.43
2009/04/23 08:15:03.5       7    -21    130     23    132 160.0  90.0  34006  286.98 0855.43
2009/04/23 08:15:03.6     -30    -26    124     40    130 228.7  80.7  34010  287.03 0855.43
2009/04/23 08:15:03.7    -146    -49     93    155    180 251.4  34.0  34006  286.98 0855.43
2009/04/23 08:15:03.8    -213     27     43    215    220 277.5  11.4  34008  287.00 0855.43
2009/04/23 08:15:03.9    -160     58    120    171    208 290.0  38.4  34006  286.98 0855.43
2009/04/23 08:15:04.0    -172     35    113    176    209 281.7  35.6  34004  286.93 0855.43
2009/04/23 08:15:04.1    -239     41    129    243    275 279.9  30.2  34004  286.92 0855.44
2009/04/23 08:15:04.2    -194     -2    117    195    227 269.2  34.0  33996  286.79 0855.44
2009/04/23 08:15:04.3    -124     45    152    132    201 290.0  54.3  34006  286.96 0855.44
2009/04/23 08:15:04.4    -177    -99    125    203    238 240.7  34.5  34008  287.01 0855.44
2009/04/23 08:15:04.5    -173   -128    154    216    265 233.6  39.3  34006  286.95 0855.44
2009/04/23 08:15:04.6     -24    -41     82     48     95 210.7  66.2  34006  286.98 0855.44
2009/04/23 08:15:04.7      47    -38    140     61    152 128.6  75.0  34006  286.96 0855.44
2009/04/23 08:15:04.8     -68   -205    231    217    316 198.5  52.0  34006  286.95 0855.44
2009/04/23 08:15:04.9     -11   -201    154    202    254 183.1  41.2  34008  287.01 0855.44
2009/04/23 08:15:05.0     -23   -183    266    185    324 187.3  61.8  34006  286.95 0855.44
2009/04/23 08:15:05.1    -120   -154    153    196    248 218.1  42.0  34006  286.98 0855.44
2009/04/23 08:15:05.2    -152   -111    187    189    265 233.8  50.0  34004  286.94 0855.44
2009/04/23 08:15:05.3    -211    -39    141    215    257 259.4  36.5  34004  286.94 0855.44
2009/04/23 08:15:05.4    -192      3     36    193    197 270.9  10.6  33998  286.84 0855.44
2009/04/23 08:15:05.5    -188    -59     23    198    200 252.5   6.9  33998  286.83 0855.44
2009/04/23 08:15:05.6    -233   -158     55    282    288 235.8  11.1  34006  286.95 0855.44
2009/04/23 08:15:05.7    -148    -94    101    176    202 237.6  32.7  34006  286.96 0855.44
2009/04/23 08:15:05.8    -130     -3     34    131    136 268.3  14.7  34000  286.86 0855.44
2009/04/23 08:15:05.9     -43     49     91     66    112 318.6  60.5  34008  287.01 0855.44
2009/04/23 08:15:06.0     -21      3     93     22     95 279.7  87.5  34010  287.05 0855.44
2009/04/23 08:15:06.1       5     42     71     43     83   8.0  66.2  34006  286.96 0855.45
2009/04/23 08:15:06.2     -17     84     42     86     95 348.0  27.8  33998  286.84 0855.45
2009/04/23 08:15:06.3     108    100     35    148    153  47.3  13.2  34010  287.05 0855.45
2009/04/23 08:15:06.4      69    110      4    130    131  32.1   1.8  34014  287.10 0855.45
2009/04/23 08:15:06.5      10    101     -5    102    103   5.8  -3.1  34016  287.15 0855.45
2009/04/23 08:15:06.6     -22     70    -42     74     85 342.2 -36.8  34016  287.15 0855.45
2009/04/23 08:15:06.7     -75     41    -60     86    104 298.9 -43.0  34012  287.08 0855.45
2009/04/23 08:15:06.8    -130    -22   -104    132    168 260.3 -46.8  34016  287.13 0855.45
2009/04/23 08:15:06.9     -52    -74   -160     91    184 215.2 -72.5  34010  287.03 0855.45
2009/04/23 08:15:07.0     -98   -119   -151    155    216 219.6 -53.6  34006  286.96 0855.45
2009/04/23 08:15:07.1    -102   -164    -70    194    206 211.9 -25.3  34008  287.01 0855.45
2009/04/23 08:15:07.2    -105    -47   -106    116    157 245.6 -51.9  34006  286.98 0855.45
2009/04/23 08:15:07.3     -90    -18    -80     92    121 258.5 -50.2  34006  286.96 0855.45
2009/04/23 08:15:07.4      30    -55    -12     63     65 151.1 -11.5  34008  287.01 0855.45
2009/04/23 08:15:07.5      -8    -30     52     32     61 195.1  64.7  34006  286.98 0855.45
2009/04/23 08:15:07.6     -26    -41     67     49     83 212.6  60.0  34010  287.03 0855.45
2009/04/23 08:15:07.7     -84   -131    146    156    213 212.6  48.2  34006  286.96 0855.45
2009/04/23 08:15:07.8     -96   -175    195    200    279 208.7  49.4  34004  286.94 0855.45
2009/04/23 08:15:07.9     -86    -90    149    125    194 223.7  56.1  34002  286.91 0855.45
2009/04/23 08:15:08.0      27   -136    205    139    247 168.5  62.7  33992  286.73 0855.45
2009/04/23 08:15:08.1     -17    -60    232     63    240 196.0  84.9  34004  286.94 0855.43
2009/04/23 08:15:08.2     -78   -107    247    133    280 216.1  69.3  34002  286.90 0855.43
2009/04/23 08:15:08.3      14    -17    169     23    170 140.4  90.0  34004  286.94 0855.43
2009/04/23 08:15:08.4     -55    -80    203     98    225 214.7  72.8  33996  286.79 0855.43
2009/04/23 08:15:08.5     -99   -133    198    166    258 216.7  56.1  34000  286.88 0855.43
2009/04/23 08:15:08.6      -5   -129    164    130    209 182.2  57.5  34006  286.98 0855.43
2009/04/23 08:15:08.7     -26   -139    195    142    241 190.7  60.5  34002  286.91 0855.43
2009/04/23 08:15:08.8      14   -166    261    167    309 175.1  64.6  34006  286.95 0855.43
2009/04/23 08:15:08.9     -54   -179    190    188    267 196.9  50.1  34002  286.90 0855.43
2009/04/23 08:15:09.0     -13   -123    170    124    210 186.3  60.5  34008  287.01 0855.43
2009/04/23 08:15:09.1       6   -118    164    119    202 176.9  60.6  34004  286.93 0855.39
2009/04/23 08:15:09.2     -52   -134     96    145    173 201.4  36.3  34002  286.91 0855.39
2009/04/23 08:15:09.3    -129   -136     74    188    202 223.4  22.8  34010  287.03 0855.39
2009/04/23 08:15:09.4     126     26    105    129    166  78.1  43.7  34030  287.37 0855.39
2009/04/23 08:15:09.5      94     -4     76     95    121  93.0  42.7  34038  287.50 0855.39
2009/04/23 08:15:09.6     187    -63     27    198    200 108.6   8.0  34040  287.54 0855.39
2009/04/23 08:15:09.7     122     41     36    129    135  71.4  15.8  34036  287.47 0855.39
2009/04/23 08:15:09.8      -6     81     45     82     93 355.5  30.8  34032  287.42 0855.39
2009/04/23 08:15:09.9      -2      2    -34      4     34 315.0 -90.0  34018  287.18 0855.39
2009/04/23 08:15:10.0      15    -27     -8     31     33 151.0 -15.5  34020  287.20 0855.39
2009/04/23 08:15:10.1     -14    -77     35     79     86 190.7  25.1  34016  287.13 0855.39
2009/04/23 08:15:10.2     -93    -35     74    100    124 249.2  40.1  34012  287.08 0855.39
2009/04/23 08:15:10.3     -90   -101    -49    136    144 221.5 -24.4  34024  287.28 0855.39
2009/04/23 08:15:10.4    -141    -90    -50    168    176 237.5 -16.6  34022  287.25 0855.39
2009/04/23 08:15:10.5     -93    -83     10    125    126 228.2   4.9  34028  287.35 0855.39
2009/04/23 08:15:10.6    -103    -27     -4    107    108 255.0  -2.2  34022  287.25 0855.39
2009/04/23 08:15:10.7     -15    -54     48     57     74 196.0  43.8  34020  287.21 0855.39
2009/04/23 08:15:10.8       9    -28     24     30     38 161.3  43.7  34014  287.11 0855.39
2009/04/23 08:15:10.9       5    -17     38     18     42 161.7  72.9  34014  287.10 0855.39
2009/04/23 08:15:11.0     -36     65     11     75     76 331.0   9.0  34012  287.08 0855.39
2009/04/23 08:15:11.1      -4     53     13     54     56 355.5  14.3  34012  287.06 0855.38
2009/04/23 08:15:11.2      15     12    -43     20     47  50.5 -78.4  34012  287.08 0855.38
2009/04/23 08:15:11.3      31    -44    -29     55     62 144.8 -34.7  34014  287.10 0855.38
2009/04/23 08:15:11.4      74    -51     17     91     93 124.6  11.1  34014  287.10 0855.38
2009/04/23 08:15:11.5      82    -77      7    113    114 133.2   3.8  34016  287.13 0855.38
2009/04/23 08:15:11.6      33    -31      3     46     47 134.0   3.8  34020  287.20 0855.38
2009/04/23 08:15:11.7      15    -16     45     22     50 136.8  72.8  34022  287.25 0855.38
2009/04/23 08:15:11.8      14    -49     96     52    109 164.0  68.9  34032  287.42 0855.38
2009/04/23 08:15:11.9     -33     10     89     35     95 288.2  77.6  34028  287.33 0855.38
2009/04/23 08:15:12.0     176     18     61    177    188  84.1  19.2  34040  287.55 0855.38
2009/04/23 08:15:12.1      91     66    127    113    169  54.1  53.7  34036  287.49 0855.38
2009/04/23 08:15:12.2      99     93     69    137    153  46.8  28.7  34034  287.45 0855.38
2009/04/23 08:15:12.3      29     45     54     54     76  32.5  50.1  34028  287.35 0855.38
2009/04/23 08:15:12.4       8    -49     82     50     96 170.2  65.1  34014  287.10 0855.38
2009/04/23 08:15:12.5     -42    -55    114     70    133 217.8  64.7  34010  287.05 0855.38
2009/04/23 08:15:12.6      -7    -99    140    100    172 184.5  61.3  34008  287.00 0855.38
2009/04/23 08:15:12.7     -25   -125     56    128    139 191.5  25.1  33996  286.79 0855.38
2009/04/23 08:15:12.8      15   -143     54    144    153 173.7  21.0  33998  286.83 0855.38
2009/04/23 08:15:12.9      19    -80     14     83     85 166.6   9.5  33988  286.67 0855.38
2009/04/23 08:15:13.0       8      8     73     12     73  45.0  90.0  33998  286.83 0855.38
2009/04/23 08:15:13.1      -3     16     36     17     39 348.4  74.0  34000  286.88 0855.39
2009/04/23 08:15:13.2     -16     50     -2     53     54 341.3  -2.2  34008  287.01 0855.39
2009/04/23 08:15:13.3      37     92    -36    100    107  21.8 -19.7  34024  287.28 0855.39
2009/04/23 08:15:13.4       7    109     -2    110    111   4.0  -1.3  34032  287.42 0855.39
2009/04/23 08:15:13.5       8    110    -31    111    115   4.5 -20.2  34028  287.35 0855.39
2009/04/23 08:15:13.6     -21    120      1    122    123 349.8   0.7  34024  287.27 0855.39
2009/04/23 08:15:13.7       3    122    -24    123    126   1.8 -11.3  34034  287.45 0855.39
2009/04/23 08:15:13.8       0    127      2    128    129   0.0   1.2  34034  287.43 0855.39
2009/04/23 08:15:13.9      29     90     15     95     97  17.8   9.5  34036  287.47 0855.39
2009/04/23 08:15:14.0      42     89      4     99    100  25.4   2.3  34030  287.37 0855.39
2009/04/23 08:15:14.1      27     60     34     66     74  24.5  29.3  34024  287.27 0855.39
2009/04/23 08:15:14.2      60      8     52     61     80  82.0  44.8  34022  287.23 0855.39
2009/04/23 08:15:14.3      23    -18     69     30     75 127.8  75.0  34026  287.30 0855.39
2009/04/23 08:15:14.4      65     -8     88     66    110  97.0  59.4  34006  286.98 0855.39
2009/04/23 08:15:14.5       0      7     68      8     68 357.3  90.0  34012  287.08 0855.39
2009/04/23 08:15:14.6     -13      1     39     14     41 277.9  80.2  34018  287.16 0855.39
2009/04/23 08:15:14.7     -42    -10     38     44     58 256.7  45.8  34016  287.15 0855.39
2009/04/23 08:15:14.8     -23    -13     27     27     38 239.3  50.1  34022  287.25 0855.39
2009/04/23 08:15:14.9     -17    -36     38     40     55 205.5  50.0  34026  287.30 0855.39
2009/04/23 08:15:15.0     -37      2     30     38     48 274.3  42.7  34028  287.35 0855.39
2009/04/23 08:15:15.1      15     21     44     26     51  36.1  65.7  34056  287.81 0855.39
2009/04/23 08:15:15.2      67     54     40     87     95  51.4  26.6  34096  288.48 0855.39
2009/04/23 08:15:15.3     117     57     89    131    158  63.8  37.6  34120  288.89 0855.39
2009/04/23 08:15:15.4      30    149     89    153    177  11.5  32.9  34070  288.04 0855.39
2009/04/23 08:15:15.5     136    118    110    181    211  49.1  34.4  34110  288.72 0855.39
2009/04/23 08:15:15.6     118     84     93    145    172  54.5  35.6  34120  288.89 0855.39
2009/04/23 08:15:15.7      90     49     88    103    135  61.2  44.8  34120  288.89 0855.39
2009/04/23 08:15:15.8      76     13     82     78    113  80.3  51.2  34118  288.86 0855.39
2009/04/23 08:15:15.9      77     15     80     79    112  78.5  49.7  34118  288.86 0855.39
2009/04/23 08:15:16.0      66     50     78     83    113  52.7  48.5  34116  288.82 0855.39
2009/04/23 08:15:16.1     105     67     82    125    149  57.6  35.6  34110  288.74 0855.39
2009/04/23 08:15:16.2      87     64     77    109    133  53.6  38.6  34110  288.72 0855.39
2009/04/23 08:15:16.3      83     70     73    109    131  49.6  37.0  34110  288.72 0855.39
2009/04/23 08:15:16.4      82     52     73     98    122  57.5  40.7  34110  288.72 0855.39
2009/04/23 08:15:16.5      64     30     69     71     99  64.6  49.4  34108  288.69 0855.39
2009/04/23 08:15:16.6      30     26     68     40     78  48.7  66.8  34102  288.60 0855.39
2009/04/23 08:15:16.7     -15     33     66     37     75 334.7  68.8  34100  288.55 0855.39
2009/04/23 08:15:16.8     -11     35     56     37     67 341.3  64.6  34104  288.62 0855.39
2009/04/23 08:15:16.9       3      8     44      9     44  25.4  90.0  34112  288.75 0855.39
2009/04/23 08:15:17.0      27     -9     60     29     66 110.0  72.9  34112  288.77 0855.39
2009/04/23 08:15:17.1      73     31     72     80    107  66.5  46.9  34112  288.77 0855.40
2009/04/23 08:15:17.2      57     54     60     79     99  46.8  40.7  34100  288.55 0855.40
2009/04/23 08:15:17.3      63     87     42    108    115  36.0  22.5  34110  288.72 0855.40
2009/04/23 08:15:17.4      53     84     44    100    109  32.5  25.7  34122  288.92 0855.40
2009/04/23 08:15:17.5      42     65     59     78     97  33.4  41.2  34122  288.92 0855.40
2009/04/23 08:15:17.6      49     76     47     91    102  32.6  29.3  34118  288.87 0855.40
2009/04/23 08:15:17.7      46     81     22     94     97  29.9  13.7  34120  288.89 0855.40
2009/04/23 08:15:17.8      11     90     20     91     94   7.1  12.6  34122  288.94 0855.40
2009/04/23 08:15:17.9      18     62     32     65     72  16.9  27.3  34122  288.94 0855.40
2009/04/23 08:15:18.0      37     59     49     70     85  32.5  38.0  34130  289.08 0855.40
2009/04/23 08:15:18.1      12     30     80     33     86  21.8  77.1  34124  288.97 0855.40
2009/04/23 08:15:18.2      14     44     56     47     73  18.3  56.3  34128  289.04 0855.40
2009/04/23 08:15:18.3       7     26     67     27     72  15.1  77.1  34130  289.06 0855.40
2009/04/23 08:15:18.4     -20     81     78     84    114 346.2  48.0  34092  288.42 0855.40
2009/04/23 08:15:18.5     -53     97     64    111    128 331.0  32.9  34046  287.64 0855.40
2009/04/23 08:15:18.6     -51     98     45    111    119 332.4  23.1  34060  287.87 0855.40
2009/04/23 08:15:18.7     -63     19     61     66     89 286.8  47.9  34106  288.65 0855.40
2009/04/23 08:15:18.8      -9    -25     57     27     63 200.0  72.9  34072  288.08 0855.40
2009/04/23 08:15:18.9     -36    -59     36     70     78 211.6  29.3  34100  288.57 0855.40
2009/04/23 08:15:19.0     -80     35    -14     88     90 294.0  -9.3  34034  287.43 0855.40
2009/04/23 08:15:19.1     -38     26    -24     47     52 304.2 -32.6  34026  287.32 0855.39
2009/04/23 08:15:19.2      -8      0     -9      9     12 274.4 -54.5  34038  287.52 0855.39
2009/04/23 08:15:19.3       4    -51     18     52     56 175.5  19.4  34036  287.47 0855.39
2009/04/23 08:15:19.4      25    -72     15     77     79 160.8  11.1  34052  287.74 0855.39
2009/04/23 08:15:19.5      22    -83    -11     86     87 164.9  -7.7  34064  287.96 0855.39
2009/04/23 08:15:19.6       1    -72    -23     73     77 179.1 -17.6  34058  287.84 0855.39
2009/04/23 08:15:19.7      -1   -100     12    101    102 180.9   6.9  34054  287.77 0855.39
2009/04/23 08:15:19.8      33    -99    -13    105    106 161.3  -7.2  34056  287.81 0855.39
2009/04/23 08:15:19.9      35    -68    -25     77     80 152.8 -23.3  34064  287.94 0855.39
2009/04/23 08:15:20.0      64    -57    -21     87     90 131.8 -13.9  34062  287.92 0855.39
2009/04/23 08:15:20.1      70    -55    -34     90     96 128.2 -25.4  34068  288.01 0855.39
2009/04/23 08:15:20.2      76    -58    -12     96     97 127.3  -7.3  34066  287.98 0855.39
2009/04/23 08:15:20.3      37    -69    -39     79     88 151.9 -32.6  34054  287.79 0855.39
2009/04/23 08:15:20.4      13    -47    -66     49     82 164.0 -63.8  34048  287.69 0855.39
2009/04/23 08:15:20.5       3    -42    -53     43     68 174.7 -60.8  34048  287.67 0855.39
2009/04/23 08:15:20.6      21    -25    -34     33     47 140.4 -53.5  34046  287.65 0855.39
2009/04/23 08:15:20.7      15     -2    -24     16     28  97.9 -69.0  34046  287.65 0855.39
2009/04/23 08:15:20.8       9     27    -29     29     41  20.0 -54.5  34046  287.65 0855.39
2009/04/23 08:15:20.9      29    -14    -51     33     60 115.2 -69.0  34046  287.65 0855.39
2009/04/23 08:15:21.0      51      0    -51     52     72  90.0 -55.5  34048  287.69 0855.39
2009/04/23 08:15:21.1      80    -35    -47     88     99 113.5 -35.2  34048  287.69 0855.39
2009/04/23 08:15:21.2      93     18    -28     95     99  78.5 -21.2  34050  287.72 0855.39
2009/04/23 08:15:21.3      64     18      0     67     68  74.1  -0.3  34050  287.72 0855.39
2009/04/23 08:15:21.4      25     -8      6     27     28 108.6  13.2  34052  287.76 0855.39
2009/04/23 08:15:21.5      37    -37      0     53     54 135.0   0.8  34054  287.77 0855.39
2009/04/23 08:15:21.6      35    -49     -7     61     62 143.9  -7.2  34054  287.79 0855.39
2009/04/23 08:15:21.7      21    -31      6     38     39 145.7  10.1  34054  287.79 0855.39
2009/04/23 08:15:21.8       8    -56     15     57     60 171.1  15.3  34060  287.89 0855.39
2009/04/23 08:15:21.9       0    -63     34     64     72 180.9  30.3  34050  287.70 0855.39
2009/04/23 08:15:22.0     -46    -92     39    103    110 206.7  21.5  34054  287.79 0855.39
2009/04/23 08:15:22.1     -82    -93     -3    125    126 221.4  -1.8  34060  287.89 0855.39
2009/04/23 08:15:22.2     -84    -75    -34    114    118 228.2 -21.7  34054  287.77 0855.39
2009/04/23 08:15:22.3    -134    -57    -50    146    154 246.9 -23.3  34014  287.11 0855.39
2009/04/23 08:15:22.4       2   -142    -39    143    149 179.1 -15.5  34010  287.05 0855.39
2009/04/23 08:15:22.5      -8   -149    -90    150    174 183.1 -38.6  34016  287.15 0855.39
2009/04/23 08:15:22.6       3   -132    -90    133    160 178.6 -41.7  34016  287.15 0855.39
2009/04/23 08:15:22.7     -19   -260   -131    261    292 184.2 -33.1  34016  287.12 0855.39
2009/04/23 08:15:22.8      92   -268   -141    284    317 160.9 -32.8  34018  287.16 0855.39
2009/04/23 08:15:22.9     140   -220     71    261    271 147.5  15.3  34032  287.39 0855.39
2009/04/23 08:15:23.0      -8   -250     21    251    252 182.0   4.9  34022  287.22 0855.39
2009/04/23 08:15:23.1      -4   -270    -39    271    274 181.0  -8.2  34018  287.16 0855.40
2009/04/23 08:15:23.2     -82   -248    -17    262    263 198.3  -3.7  34026  287.29 0855.40
2009/04/23 08:15:23.3    -140   -213    -10    256    257 213.4  -2.2  34030  287.36 0855.40
2009/04/23 08:15:23.4    -123   -189     27    226    228 213.0   6.9  34024  287.28 0855.40
2009/04/23 08:15:23.5    -115   -227     18    255    256 207.0   4.2  34016  287.12 0855.40
2009/04/23 08:15:23.6    -118   -191     44    225    230 211.6  11.1  34020  287.21 0855.40
2009/04/23 08:15:23.7     -71   -160     87    176    196 203.8  28.2  34016  287.13 0855.40
2009/04/23 08:15:23.8      43   -189     96    194    216 167.1  28.2  34018  287.16 0855.40
2009/04/23 08:15:23.9      64   -208    107    218    242 162.8  28.2  34012  287.07 0855.40
2009/04/23 08:15:24.0      72   -214    101    226    247 161.3  25.7  34014  287.11 0855.40
2009/04/23 08:15:24.1      77   -215     97    229    248 160.2  24.2  34012  287.07 0855.40
2009/04/23 08:15:24.2     180   -265     75    321    330 145.7  13.2  34008  287.01 0855.40
2009/04/23 08:15:24.4     126   -243     98    274    291 152.6  20.2  34016  287.14 0855.40
2009/04/23 08:15:24.4      -6   -147    152    148    212 182.6  50.4  34012  287.08 0855.40
2009/04/23 08:15:24.5     -94   -204    161    225    276 204.7  39.3  34016  287.12 0855.40
2009/04/23 08:15:24.6     -88   -236    152    253    295 200.5  33.7  34018  287.17 0855.40
2009/04/23 08:15:24.7     -84   -219    138    235    272 201.2  33.4  34018  287.17 0855.40
2009/04/23 08:15:24.8     -39   -313    119    316    337 187.1  21.6  34014  287.10 0855.40
2009/04/23 08:15:24.9     -55   -343     92    348    361 189.1  14.9  34010  287.05 0855.40
2009/04/23 08:15:25.0     -33   -319     71    321    329 186.1  12.6  34010  287.02 0855.40
2009/04/23 08:15:25.1     -17   -310     77    311    321 183.1  13.9  34010  287.02 0855.41
2009/04/23 08:15:25.2       4   -283    100    284    302 179.1  19.4  34012  287.07 0855.41
2009/04/23 08:15:25.3       4   -270    146    271    307 179.1  30.8  34018  287.16 0855.41
2009/04/23 08:15:25.4      15   -136    165    137    214 173.7  56.3  34016  287.13 0855.41
2009/04/23 08:15:25.5      -5   -121    140    122    185 182.6  54.6  34018  287.16 0855.41
2009/04/23 08:15:25.6       7     24     67     26     71  16.9  78.2  34008  287.01 0855.41
2009/04/23 08:15:25.7     -10    -54    117     55    129 190.7  72.9  34008  287.01 0855.41
2009/04/23 08:15:25.8      -7   -166    155    167    227 182.7  47.9  34008  287.01 0855.41
2009/04/23 08:15:25.9     -73   -229     49    241    247 197.8  11.6  34008  287.01 0855.41
2009/04/23 08:15:26.0     -16   -212    114    213    241 184.4  30.3  34010  287.02 0855.41
2009/04/23 08:15:26.1     -55   -205     94    213    232 195.2  25.2  34010  287.03 0855.41
2009/04/23 08:15:26.2     -58   -217    114    225    252 195.1  29.1  34006  286.95 0855.41
2009/04/23 08:15:26.3     -64   -238    191    247    312 195.1  41.5  34004  286.94 0855.41
2009/04/23 08:15:26.4     -89   -336    215    348    409 194.9  34.8  34004  286.93 0855.41
2009/04/23 08:15:26.5       4   -241    229    242    333 179.0  48.2  34006  286.97 0855.41
2009/04/23 08:15:26.6      -2    -13    158     14    158 191.6  90.0  34006  286.98 0855.41
2009/04/23 08:15:26.7      53      4    156     54    165  85.6  80.7  34010  287.03 0855.41
2009/04/23 08:15:26.8     147    -48    126    155    199 108.2  43.5  34008  287.01 0855.41
2009/04/23 08:15:26.9     182   -227     68    292    300 141.3  13.2  34006  286.97 0855.41
2009/04/23 08:15:27.0     182   -268     54    325    330 145.8   9.4  34008  286.99 0855.41
2009/04/23 08:15:27.1     175   -290     32    339    341 148.9   5.4  34008  287.00 0855.42
2009/04/23 08:15:27.2      80   -234      3    248    249 161.1   0.8  34006  286.95 0855.42
2009/04/23 08:15:27.3     110   -191     85    221    236 149.9  22.1  34002  286.91 0855.42
2009/04/23 08:15:27.4     108   -269    177    291    340 158.1  34.3  34004  286.94 0855.42
2009/04/23 08:15:27.5     120   -137    189    183    263 138.8  50.9  34006  286.95 0855.42
2009/04/23 08:15:27.6      94    -79    123    123    173 130.0  50.1  34006  286.96 0855.42
2009/04/23 08:15:27.7     110   -131    136    172    219 140.1  42.4  34004  286.93 0855.42
2009/04/23 08:15:27.8     101    -73    138    125    186 126.0  53.3  34004  286.93 0855.42
2009/04/23 08:15:27.9      78   -119    134    143    195 146.6  47.9  34002  286.89 0855.42
2009/04/23 08:15:28.0      91   -280    117    295    317 162.0  22.8  34004  286.92 0855.42
2009/04/23 08:15:28.1     113   -257     66    281    289 156.3  13.2  34002  286.89 0855.42
2009/04/23 08:15:28.3     112   -218    120    246    273 152.8  28.0  34002  286.89 0855.42
2009/04/23 08:15:28.3      75   -174     44    190    196 156.6  13.2  34000  286.86 0855.42
2009/04/23 08:15:28.4      72   -128     64    148    161 150.6  24.9  34002  286.89 0855.42
2009/04/23 08:15:28.5      53   -134     71    145    161 158.2  28.0  34000  286.88 0855.42
2009/04/23 08:15:28.6      37    -80     41     89     97 155.1  26.6  34002  286.89 0855.42
2009/04/23 08:15:28.7      41    -70     60     82    101 149.3  39.7  34002  286.91 0855.42
2009/04/23 08:15:28.9      31    -90     35     96    102 160.8  20.4  34002  286.91 0855.42
2009/04/23 08:15:28.9      52    -82     45     98    107 147.4  26.6  34002  286.91 0855.42
2009/04/23 08:15:29.1     114    -34     54    120    131 106.8  26.2  34002  286.91 0855.42
2009/04/23 08:15:29.2      71     18     42     74     85  75.8  32.4  34002  286.89 0855.43
2009/04/23 08:15:29.2      20     42     32     47     56  26.3  36.5  34004  286.94 0855.43
2009/04/23 08:15:29.3       6     23    -16     24     28  15.1 -40.0  34002  286.89 0855.43
2009/04/23 08:15:29.5      10      2    -22     11     24  74.9 -77.3  34002  286.91 0855.43
2009/04/23 08:15:29.6       3     -3    -51      5     51 133.3 -90.0  34002  286.91 0855.43
2009/04/23 08:15:29.7     -23     19    -37     31     48 309.5 -58.7  34002  286.91 0855.43
2009/04/23 08:15:29.8       0     45    -36     46     58 359.1 -48.1  34004  286.93 0855.43
2009/04/23 08:15:29.9      24     40    -24     47     52  31.6 -32.6  34002  286.91 0855.43
2009/04/23 08:15:30.0      -2     36     -4     37     38 355.6  -7.2  34002  286.89 0855.43
2009/04/23 08:15:30.1     -50     26    -31     57     64 298.0 -35.8  34000  286.86 0855.43
2009/04/23 08:15:30.2     -87      0    -24     88     91 270.0 -20.2  33996  286.81 0855.43
2009/04/23 08:15:30.3     -68    -27     -6     74     75 248.3  -5.2  33998  286.84 0855.43
2009/04/23 08:15:30.4     -45    -24    -29     52     59 242.0 -35.8  34000  286.86 0855.43
2009/04/23 08:15:30.5     -85    -13    -26     86     89 261.2 -22.3  33990  286.69 0855.43
2009/04/23 08:15:30.6     -12     62    -54     64     83 348.4 -49.8  33990  286.71 0855.43
2009/04/23 08:15:30.7     -33     50     68     60     90 326.6  54.3  33996  286.81 0855.43
2009/04/23 08:15:30.8    -106     77     50    132    141 305.9  22.0  33996  286.81 0855.43
2009/04/23 08:15:30.9    -127    142     10    191    192 318.3   3.1  33994  286.76 0855.43
2009/04/23 08:15:31.0    -125     98     39    160    165 308.2  13.9  33996  286.79 0855.43
2009/04/23 08:15:31.1    -117     35     83    123    148 286.8  37.4  33994  286.78 0855.43
2009/04/23 08:15:31.2     -79      6    127     80    150 274.4  64.7  33996  286.81 0855.43
2009/04/23 08:15:31.3      18      3     99     19    100  78.5  89.6  34000  286.86 0855.43
2009/04/23 08:15:31.4      61   -120    103    135    169 152.8  41.4  33996  286.79 0855.43
2009/04/23 08:15:31.5      32    -96     77    102    127 161.7  41.6  33996  286.79 0855.43
2009/04/23 08:15:31.6     -12   -149     54    150    159 184.9  20.4  33996  286.81 0855.43
2009/04/23 08:15:31.7     -84   -102     36    133    138 219.6  15.3  33994  286.76 0855.43
2009/04/23 08:15:31.8     -83   -160     44    181    187 207.4  13.7  33996  286.79 0855.43
2009/04/23 08:15:31.9    -160   -194     39    252    256 219.6   8.9  33994  286.77 0855.43
2009/04/23 08:15:32.0    -183   -203     27    274    276 222.1   5.7  33996  286.79 0855.43
2009/04/23 08:15:32.1    -140   -174     26    224    226 219.0   6.7  33994  286.76 0855.43
2009/04/23 08:15:32.2    -248   -124     54    278    284 243.4  11.1  33992  286.74 0855.45
2009/04/23 08:15:32.3    -300   -187    -37    354    357 238.1  -6.1  33992  286.73 0855.45
2009/04/23 08:15:32.4    -274   -174     15    325    326 237.5   2.8  33990  286.70 0855.45
2009/04/23 08:15:32.5    -275    -74      3    285    286 254.9   0.7  33990  286.70 0855.45
2009/04/23 08:15:32.6    -207    -20    -18    209    210 264.3  -5.2  33988  286.67 0855.45
2009/04/23 08:15:32.7    -294    121     24    319    320 292.4   4.3  33990  286.68 0855.45
2009/04/23 08:15:32.8    -194    179    -54    265    271 312.7 -11.6  33990  286.68 0855.45
2009/04/23 08:15:32.9      12    135    218    136    256   5.3  64.9  33988  286.67 0855.45
2009/04/23 08:15:33.0       0     42    126     43    133 359.1  81.2  33994  286.76 0855.45
2009/04/23 08:15:33.1     -24    -30    117     39    123 219.6  81.0  33996  286.79 0855.45
2009/04/23 08:15:33.2     -98     -3    114     99    150 267.9  54.8  33994  286.78 0855.45
2009/04/23 08:15:33.3    -105     27    148    109    183 284.6  60.5  33994  286.78 0855.45
2009/04/23 08:15:33.4     -64     -4    119     65    135 265.7  68.8  33996  286.81 0855.45
2009/04/23 08:15:33.5     -35     16    125     39    130 295.4  82.3  33996  286.81 0855.45
2009/04/23 08:15:33.6    -129     -2    118    130    175 269.1  47.1  33992  286.74 0855.45
2009/04/23 08:15:33.7    -108    -58    115    123    168 241.6  48.2  33992  286.73 0855.45
2009/04/23 08:15:33.8    -152    -77    193    171    257 242.9  53.7  33982  286.57 0855.45
2009/04/23 08:15:33.9    -226     95    136    246    281 292.8  31.4  33988  286.65 0855.45
2009/04/23 08:15:34.0    -253    -21    172    254    306 265.2  37.4  33992  286.72 0855.45
2009/04/23 08:15:34.1    -158   -111    117    194    226 234.9  34.0  33988  286.66 0855.45
2009/04/23 08:15:34.2     -31   -116    195    121    229 195.2  64.9  33992  286.74 0855.45
2009/04/23 08:15:34.3    -131   -110    183    172    251 229.8  52.1  33990  286.71 0855.45
2009/04/23 08:15:34.4     -34   -243    310    246    395 188.1  57.7  33994  286.75 0855.45
2009/04/23 08:15:34.5    -110   -355    305    372    481 197.3  43.6  34002  286.91 0855.45
2009/04/23 08:15:34.6    -154   -280    324    320    455 208.9  50.2  33994  286.76 0855.45
2009/04/23 08:15:34.7    -165   -445    303    475    563 200.4  35.6  33994  286.78 0855.45
2009/04/23 08:15:34.8     -91   -456    307    466    558 191.3  36.5  33990  286.69 0855.45
2009/04/23 08:15:34.9     -51   -406    296    410    505 187.2  39.5  33998  286.82 0855.45
2009/04/23 08:15:35.0      73   -369    288    377    474 168.8  41.2  33996  286.79 0855.45
2009/04/23 08:15:35.1       0     -6    181      7    181 184.5  90.0  33996  286.79 0855.45
2009/04/23 08:15:35.2      -6   -239    306    240    388 181.6  57.9  33996  286.81 0855.45
2009/04/23 08:15:35.3     -11   -253    295    254    389 182.7  55.0  33996  286.81 0855.45
2009/04/23 08:15:35.4     -94   -319    280    333    435 196.4  44.4  33994  286.77 0855.45
2009/04/23 08:15:35.5    -181   -301     83    352    362 211.1  13.3  33992  286.73 0855.45
2009/04/23 08:15:35.6     -62   -335    129    341    364 190.6  21.6  33992  286.73 0855.45
2009/04/23 08:15:35.7      37   -348     23    351    352 173.8   3.8  33996  286.80 0855.45
2009/04/23 08:15:35.8       0   -294     14    295    296 180.0   2.8  33996  286.80 0855.45
2009/04/23 08:15:35.9      24   -301     34    303    305 175.3   6.5  33994  286.77 0855.45
2009/04/23 08:15:36.0      36   -213    -19    217    218 170.4  -5.1  33996  286.79 0855.45
2009/04/23 08:15:36.1     -24   -200    -34    202    205 187.1  -9.6  33994  286.78 0855.45
2009/04/23 08:15:36.2      -2   -199     -7    200    201 180.7  -2.3  33996  286.79 0855.47
2009/04/23 08:15:36.3      47   -187     -7    193    194 165.7  -2.2  33994  286.76 0855.47
2009/04/23 08:15:36.4     -51   -187    -57    194    202 195.4 -21.2  33992  286.73 0855.47
2009/04/23 08:15:36.5     -75   -188    -60    203    211 201.8 -21.5  33994  286.78 0855.47
2009/04/23 08:15:36.6     -56   -165     -8    175    176 198.9  -2.8  33992  286.73 0855.47
2009/04/23 08:15:36.7     136   -138     69    194    205 135.5  20.0  33996  286.81 0855.47
2009/04/23 08:15:36.8     155   -172    -22    232    234 137.9  -5.6  33996  286.79 0855.47
2009/04/23 08:15:36.9     224   -161    -36    277    280 125.7  -7.5  33996  286.80 0855.47
2009/04/23 08:15:37.0     156   -143    -99    212    233 132.4 -31.5  33996  286.81 0855.47
2009/04/23 08:15:37.1     149   -158    -86    218    234 136.7 -27.2  33996  286.79 0855.47
2009/04/23 08:15:37.2     150    -54   -117    160    198 110.0 -44.1  33996  286.79 0855.47
2009/04/23 08:15:37.3     104     16    -16    106    108  80.8  -8.8  33996  286.79 0855.47
2009/04/23 08:15:37.4      48    -16    -37     51     63 108.6 -44.1  33996  286.79 0855.47
2009/04/23 08:15:37.5     -97    -81      5    127    128 230.0   2.3  33996  286.79 0855.47
2009/04/23 08:15:37.6     -45   -118     57    127    139 200.9  26.2  33996  286.81 0855.47
2009/04/23 08:15:37.7     -11   -108     48    109    119 186.2  25.1  33998  286.83 0855.47
2009/04/23 08:15:37.8     -50   -122     79    132    153 202.3  34.0  33994  286.76 0855.47
2009/04/23 08:15:37.9     -42   -119    114    127    170 199.6  46.6  33994  286.78 0855.47
2009/04/23 08:15:38.0     -81    -55     91     98    133 235.8  47.9  33994  286.78 0855.47
2009/04/23 08:15:38.1     -51    -42    106     67    125 230.5  64.7  33994  286.76 0855.47
2009/04/23 08:15:38.2     -89      0     96     90    131 270.0  52.1  33996  286.81 0855.49
2009/04/23 08:15:38.3     -69      7     87     70    111 276.1  56.4  33998  286.83 0855.49
2009/04/23 08:15:38.4       0     23     66     24     70 359.1  80.2  34000  286.86 0855.49
2009/04/23 08:15:38.5       2     35     41     36     54   4.5  53.3  34000  286.88 0855.49
2009/04/23 08:15:38.6     -11     27    -10     30     31 338.2 -23.6  33998  286.84 0855.49
2009/04/23 08:15:38.7      32     -8    -23     34     41 105.1 -42.0  33998  286.83 0855.49
2009/04/23 08:15:38.8      58    -40     -2     71     72 125.1  -2.2  33998  286.84 0855.49
2009/04/23 08:15:38.9     116    -99    -27    153    156 130.4 -10.1  33996  286.79 0855.49
2009/04/23 08:15:39.0     171    -57     14    181    182 108.4   4.6  33998  286.84 0855.49
2009/04/23 08:15:39.1     130    -10     82    131    154  94.4  35.5  33996  286.79 0855.49
2009/04/23 08:15:39.2     173     61    167    184    248  70.5  47.0  33996  286.81 0855.49
2009/04/23 08:15:39.3     207     53    197    214    290  75.6  47.7  33996  286.80 0855.49
2009/04/23 08:15:39.4     264    101    216    283    356  68.9  41.2  34010  287.03 0855.49
2009/04/23 08:15:39.5     287    285    274    405    488  45.2  37.3  34132  289.11 0855.49
2009/04/23 08:15:39.6     293    280    218    406    460  46.3  30.6  34096  288.48 0855.49
2009/04/23 08:15:39.7     261    282    221    385    443  42.8  32.4  34130  289.07 0855.49
2009/04/23 08:15:39.8     345    190    180    394    433  61.2  26.2  34098  288.51 0855.49
2009/04/23 08:15:39.9     313    232    198    390    437  53.4  29.2  34140  289.24 0855.49
2009/04/23 08:15:40.0     313    378    182    492    524  39.6  21.1  34052  287.74 0855.49
2009/04/23 08:15:40.1     275    417    186    500    533  33.4  21.5  34006  286.96 0855.49
2009/04/23 08:15:40.2     192    424    206    466    509  24.4  25.3  34000  286.87 0855.48
2009/04/23 08:15:40.3      89    580     40    587    589   8.8   3.9  34070  288.04 0855.48
2009/04/23 08:15:40.4     365    616    168    717    737  30.7  13.2  34156  289.49 0855.48
2009/04/23 08:15:40.5     248    422    132    490    508  30.5  15.1  34078  288.20 0855.48
2009/04/23 08:15:40.6     315    432    109    536    548  36.1  11.6  34046  287.64 0855.48
2009/04/23 08:15:40.7     495    462     29    678    679  47.0   2.5  34066  287.99 0855.48
2009/04/23 08:15:40.8     384    385     30    544    545  44.9   3.2  34046  287.65 0855.48
2009/04/23 08:15:40.9     430    448     77    622    627  43.8   7.1  34034  287.44 0855.48
2009/04/23 08:15:41.0     511    492     60    710    713  46.1   4.9  34014  287.09 0855.48
2009/04/23 08:15:41.1     315    313    240    445    505  45.2  30.8  34026  287.31 0855.48
2009/04/23 08:15:41.2     333    126    175    357    397  69.3  28.2  34026  287.32 0855.48
2009/04/23 08:15:41.3     197     37    145    201    247  79.2  39.5  34020  287.21 0855.48
2009/04/23 08:15:41.4     -70   -111     92    132    160 212.5  38.4  34028  287.35 0855.48
2009/04/23 08:15:41.5    -328    223   -177    397    434 304.3 -30.0  34006  286.97 0855.48
2009/04/23 08:15:41.6    -378    355    -61    519    523 313.2  -6.8  34030  287.37 0855.48
2009/04/23 08:15:41.7    -462     74     52    469    472 279.1   6.4  34020  287.19 0855.48
2009/04/23 08:15:41.8    -485     28     46    486    489 273.4   5.5  34022  287.24 0855.48
2009/04/23 08:15:41.9    -486   -151    -49    509    512 252.7  -5.6  34016  287.14 0855.48
2009/04/23 08:15:42.0    -496   -227    -58    546    550 245.4  -6.1  34010  287.05 0855.48
2009/04/23 08:15:42.1    -447   -119    -22    463    464 255.0  -2.8  34008  287.01 0855.48
2009/04/23 08:15:42.2    -346    207    -67    404    410 300.9  -9.5  34004  286.94 0855.48
2009/04/23 08:15:42.3    -286     72    -45    295    299 284.2  -8.8  33998  286.84 0855.48
2009/04/23 08:15:42.4    -334     67    -69    341    348 281.4 -11.5  34004  286.93 0855.48
2009/04/23 08:15:42.5    -231    192    -70    301    310 309.8 -13.2  34006  286.97 0855.48
2009/04/23 08:15:42.6    -287    174   -102    336    352 301.2 -16.9  34004  286.93 0855.48
2009/04/23 08:15:42.7    -299     70    -86    308    319 283.2 -20.4  34006  286.97 0855.48
2009/04/23 08:15:42.8    -397     22   -114    398    414 273.3 -20.7  34004  286.94 0855.48
2009/04/23 08:15:42.9    -343    -27   -180    345    389 265.4 -34.0  34002  286.91 0855.48
2009/04/23 08:15:43.0    -334    -45   -167    338    377 262.2 -32.6  34004  286.93 0855.48
2009/04/23 08:15:43.1    -319     22   -103    320    337 274.1 -17.9  34006  286.95 0855.48
2009/04/23 08:15:43.2    -340     53    -63    345    351 278.9 -10.4  34002  286.90 0855.48
2009/04/23 08:15:43.3    -309    -10   -105    310    328 268.1 -18.8  34006  286.95 0855.48
2009/04/23 08:15:43.4    -376   -144   -123    403    422 248.9 -17.0  34004  286.94 0855.48
2009/04/23 08:15:43.5    -294   -162   -214    336    398 241.1 -40.0  34010  287.02 0855.48
2009/04/23 08:15:43.6    -203   -151   -107    254    275 233.4 -28.6  33996  286.80 0855.48
2009/04/23 08:15:43.7     -30    -91   -132     96    163 198.3 -64.9  34000  286.88 0855.48
2009/04/23 08:15:43.8    -178   -209    -45    275    279 220.5  -9.3  34004  286.92 0855.48
2009/04/23 08:15:43.9    -370   -212   -112    427    442 240.1 -14.7  33998  286.82 0855.48
2009/04/23 08:15:44.0    -430    -89   -135    440    460 258.2 -21.9  34002  286.91 0855.48
2009/04/23 08:15:44.1    -460    -48    -30    463    464 263.9  -3.7  34004  286.92 0855.48
2009/04/23 08:15:44.2    -436    -96      6    447    448 257.5   0.8  34004  286.92 0855.47
2009/04/23 08:15:44.3    -357   -279    141    454    476 232.0  17.3  34002  286.90 0855.47
2009/04/23 08:15:44.4    -343   -348    132    489    507 224.5  15.2  33990  286.68 0855.47
2009/04/23 08:15:44.5    -322   -188    287    373    470 239.7  41.5  33988  286.65 0855.47
2009/04/23 08:15:44.6    -317   -280    265    424    500 228.6  35.0  34000  286.87 0855.47
2009/04/23 08:15:44.7    -203   -366    360    419    552 209.1  45.0  34000  286.87 0855.47
2009/04/23 08:15:44.8    -246   -343    230    423    481 215.7  30.8  33996  286.81 0855.47
2009/04/23 08:15:44.9    -247   -319    276    404    489 217.8  37.7  34000  286.86 0855.47
2009/04/23 08:15:45.0    -312   -310    285    441    525 225.2  35.9  33990  286.71 0855.47
2009/04/23 08:15:45.2    -216   -261    335    339    476 219.6  49.9  34000  286.87 0855.47
2009/04/23 08:15:45.2    -152   -223    292    271    398 214.3  52.3  34000  286.85 0855.47
2009/04/23 08:15:45.3    -321   -255    223    411    467 231.5  30.9  34000  286.86 0855.47
2009/04/23 08:15:45.4     -54    -18    224     57    231 251.4  85.6  33998  286.84 0855.47
2009/04/23 08:15:45.5    -142   -161    214    216    304 221.4  50.0  33996  286.80 0855.47
2009/04/23 08:15:45.6     -59   -177    125    187    224 198.5  37.0  33996  286.79 0855.47
2009/04/23 08:15:45.7    -116   -236    184    264    321 206.3  38.3  34000  286.85 0855.47
2009/04/23 08:15:45.8     -55   -414    235    418    479 187.7  31.9  34000  286.86 0855.47
2009/04/23 08:15:45.9    -383   -219    132    442    462 240.3  16.7  33978  286.49 0855.47
2009/04/23 08:15:46.0    -420   -254    168    492    521 238.8  18.9  33996  286.80 0855.47
2009/04/23 08:15:46.1    -500    -69     60    505    509 262.1   6.9  33994  286.77 0855.47
2009/04/23 08:15:46.2    -318    -69    114    326    346 257.7  19.4  34006  286.98 0855.46
2009/04/23 08:15:46.4    -244   -306    201    392    440 218.6  29.2  33996  286.79 0855.46
2009/04/23 08:15:46.4    -203   -378    143    430    454 208.2  18.5  33996  286.81 0855.46
2009/04/23 08:15:46.5    -383   -135    -98    407    419 250.6 -13.6  34000  286.87 0855.46
2009/04/23 08:15:46.6    -295   -284    -65    410    416 226.1  -9.1  33998  286.84 0855.46
2009/04/23 08:15:46.7    -305    -54   -116    310    330 259.9 -25.8  34004  286.94 0855.46
2009/04/23 08:15:46.8    -376   -254    -44    454    457 235.9  -5.6  34002  286.91 0855.46
2009/04/23 08:15:46.9    -211   -216    -87    302    314 224.3 -20.9  34012  287.06 0855.46
2009/04/23 08:15:47.0    -213    -77    -72    227    239 250.1 -17.6  34006  286.95 0855.46
2009/04/23 08:15:47.1    -307   -141    -52    338    342 245.3  -8.8  34012  287.07 0855.46
2009/04/23 08:15:47.2    -388   -114    -29    405    406 253.6  -4.1  34016  287.14 0855.46
2009/04/23 08:15:47.3    -429   -134    -76    450    457 252.6  -9.6  34024  287.26 0855.46
2009/04/23 08:15:47.4    -410   -155     12    439    440 249.2   1.6  34012  287.06 0855.46
2009/04/23 08:15:47.5    -193    -76    -35    208    211 248.3  -9.6  34006  286.96 0855.46
2009/04/23 08:15:47.6    -149   -337     96    369    382 203.8  14.7  33996  286.81 0855.46
2009/04/23 08:15:47.7     -42   -350    156    353    385 186.9  25.3  34004  286.93 0855.46
2009/04/23 08:15:47.8      16   -342    218    343    406 177.2  35.5  34000  286.86 0855.46
2009/04/23 08:15:47.9      25   -377    206    378    430 176.1  31.0  33998  286.82 0855.46
2009/04/23 08:15:48.0      90   -348    175    360    400 165.5  27.8  34000  286.85 0855.46
2009/04/23 08:15:48.1     124   -293    186    319    369 157.1  33.1  34002  286.90 0855.46
2009/04/23 08:15:48.2     -63   -324    112    331    350 191.1  18.8  33992  286.73 0855.43
2009/04/23 08:15:48.3    -128   -271    152    300    336 205.3  29.1  33998  286.84 0855.43
2009/04/23 08:15:48.4    -158   -186     88    245    261 220.3  19.9  33998  286.82 0855.43
2009/04/23 08:15:48.5    -108   -178     82    209    224 211.2  22.5  34000  286.88 0855.43
2009/04/23 08:15:48.6     -60   -193    128    203    239 197.4  35.2  34000  286.86 0855.43
2009/04/23 08:15:48.7    -178    -87     -7    199    200 244.0  -2.3  34000  286.86 0855.43
2009/04/23 08:15:48.8    -105    -53    -42    118    126 242.9 -19.6  34000  286.88 0855.43
2009/04/23 08:15:48.9     -86   -197    126    216    250 203.6  33.1  33998  286.84 0855.43
2009/04/23 08:15:49.0     -99   -200    147    224    267 206.5  36.3  34002  286.90 0855.43
2009/04/23 08:15:49.1    -186   -144     91    236    252 232.3  22.0  33998  286.84 0855.43
2009/04/23 08:15:49.2    -122   -151    130    195    234 219.0  36.7  34004  286.93 0855.43
2009/04/23 08:15:49.3    -162   -246    102    295    313 213.4  19.2  33996  286.80 0855.43
2009/04/23 08:15:49.4    -124   -296    225    322    392 202.7  38.5  33998  286.83 0855.43
2009/04/23 08:15:49.5    -355   -324    240    481    537 227.6  28.4  33994  286.76 0855.43
2009/04/23 08:15:49.6    -309   -104    123    327    349 251.4  21.5  33994  286.75 0855.43
2009/04/23 08:15:49.7    -275   -162     64    320    327 239.4  11.3  33990  286.70 0855.43
2009/04/23 08:15:49.8    -336   -112    149    355    385 251.5  24.2  33992  286.73 0855.43
2009/04/23 08:15:49.9    -377    -82    215    386    441 257.7  31.4  33994  286.76 0855.43
2009/04/23 08:15:50.0    -373    -63    197    379    427 260.4  29.6  33994  286.77 0855.43
2009/04/23 08:15:50.1    -301    -73    147    310    343 256.3  27.2  33986  286.63 0855.43
2009/04/23 08:15:50.2    -363   -131     69    387    394 250.1  10.1  33986  286.64 0855.42
2009/04/23 08:15:50.3    -411    -18     65    412    418 267.4   9.0  33990  286.70 0855.42
2009/04/23 08:15:50.4    -284     -8    138    285    316 268.3  27.8  33976  286.45 0855.42
2009/04/23 08:15:50.5    -325     14     48    326    330 272.6   8.5  33990  286.70 0855.42
2009/04/23 08:15:50.6    -393    -59     16    398    399 261.4   2.4  33990  286.71 0855.42
2009/04/23 08:15:50.7    -411     47      8    414    415 276.6   1.1  33986  286.64 0855.42
2009/04/23 08:15:50.8    -392    -51     47    396    399 262.6   6.8  33984  286.61 0855.42
2009/04/23 08:15:50.9    -367      7     27    368    369 271.2   4.2  33990  286.68 0855.42
2009/04/23 08:15:51.0    -372    -18    -31    373    375 267.1  -4.9  33986  286.64 0855.42
2009/04/23 08:15:51.1    -416    -28    -48    417    420 266.1  -6.7  33990  286.69 0855.42
2009/04/23 08:15:51.2    -434   -102    -90    446    455 256.7 -11.5  33992  286.72 0855.42
2009/04/23 08:15:51.3    -275   -109    -78    297    308 248.3 -14.7  33988  286.67 0855.42
2009/04/23 08:15:51.4    -197   -181    -82    268    280 227.3 -21.8  33992  286.72 0855.42
2009/04/23 08:15:51.5    -231   -138   -114    270    293 239.1 -28.6  33990  286.70 0855.42
2009/04/23 08:15:51.6    -227   -259    -22    345    346 221.2  -3.7  33996  286.80 0855.42
2009/04/23 08:15:51.7    -180   -247    -27    306    308 216.1  -5.2  33996  286.79 0855.42
2009/04/23 08:15:51.8    -202   -207    -92    290    305 224.3 -17.6  33994  286.75 0855.42
2009/04/23 08:15:51.9    -117   -147    -62    188    198 218.5 -18.3  33988  286.67 0855.42
2009/04/23 08:15:52.0    -162    -66    -82    176    194 247.8 -31.5  33994  286.78 0855.42
2009/04/23 08:15:52.1     -84   -236    -86    251    266 199.8 -18.9  33992  286.74 0855.42
2009/04/23 08:15:52.2    -270   -270   -123    383    402 225.0 -22.9  33994  286.76 0855.42
2009/04/23 08:15:52.3    -283   -128   -107    311    330 245.6 -19.1  33994  286.77 0855.42
2009/04/23 08:15:52.4    -227   -174    -37    287    290 232.5  -7.5  33992  286.72 0855.42
2009/04/23 08:15:52.5    -235   -165     67    288    296 234.9  13.2  33992  286.72 0855.42
2009/04/23 08:15:52.6    -325   -230    100    399    412 234.7  14.2  33994  286.76 0855.42
2009/04/23 08:15:52.7    -305   -110    -28    325    327 250.1  -5.1  33990  286.70 0855.42
2009/04/23 08:15:52.8    -295    -99     43    312    316 251.4   8.0  33994  286.75 0855.42
2009/04/23 08:15:52.9    -211    -77    -40    225    229 250.0 -10.1  33984  286.61 0855.42
2009/04/23 08:15:53.0     -81   -281    -87    293    306 196.1 -16.6  33990  286.68 0855.42
2009/04/23 08:15:53.1     -72   -341   -114    349    368 192.0 -18.2  33992  286.73 0855.42
2009/04/23 08:15:53.2     -99   -165    156    193    248 211.2  43.3  33986  286.64 0855.42
2009/04/23 08:15:53.3     -77    -46    125     90    154 238.9  60.6  33994  286.78 0855.42
2009/04/23 08:15:53.4     -54     17    140     57    151 287.7  77.0  33992  286.74 0855.42
2009/04/23 08:15:53.5     -25     33     90     42     99 323.0  73.1  33994  286.78 0855.42
2009/04/23 08:15:53.6     -22     65     78     69    104 340.8  53.3  33996  286.81 0855.42
2009/04/23 08:15:53.7     -26     16    127     31    130 302.4  86.9  33996  286.79 0855.42
2009/04/23 08:15:53.8       1    -31    116     32    120 177.3  84.8  33996  286.79 0855.42
2009/04/23 08:15:53.9      -7    -58    156     59    166 187.1  78.6  33996  286.79 0855.42
2009/04/23 08:15:54.0     -32    -84    108     91    141 200.9  55.8  33996  286.81 0855.42
2009/04/23 08:15:54.1     -24    -75     74     79    108 197.8  48.0  33992  286.73 0855.42
2009/04/23 08:15:54.2     -71    -87     89    113    143 219.2  42.2  33992  286.74 0855.44
2009/04/23 08:15:54.4     -66    -48     37     82     89 234.0  26.2  33994  286.78 0855.44
2009/04/23 08:15:54.4     -44    -28    -22     53     57 237.6 -27.4  33994  286.78 0855.44
2009/04/23 08:15:54.5      71    -33    -65     79    102 115.3 -48.2  33992  286.74 0855.44
2009/04/23 08:15:54.6      91   -126    -70    156    170 143.9 -30.3  33996  286.79 0855.44
2009/04/23 08:15:54.7      36   -180    -51    184    191 168.7 -15.5  33990  286.71 0855.44
2009/04/23 08:15:54.9      95   -183    -75    207    220 152.4 -25.1  33992  286.74 0855.44
2009/04/23 08:15:54.9     136   -154    -65    206    216 138.6 -22.8  33990  286.71 0855.44
2009/04/23 08:15:55.1      93   -154     68    181    193 148.8  21.3  33992  286.74 0855.44
2009/04/23 08:15:55.2      38   -190     27    194    196 168.5   8.0  33994  286.76 0855.44
2009/04/23 08:15:55.3      47   -159     -6    166    167 163.3  -2.3  33992  286.74 0855.44
2009/04/23 08:15:55.4     -78   -229    -47    243    248 198.9 -11.1  33990  286.68 0855.44
2009/04/23 08:15:55.5    -105   -191    -78    219    233 208.9 -19.6  33978  286.49 0855.44
2009/04/23 08:15:55.6     -54   -213      9    220    221 194.3   2.5  33990  286.69 0855.44
2009/04/23 08:15:55.7     -46   -164     36    171    175 195.8  12.2  33986  286.62 0855.44
2009/04/23 08:15:55.8     -52   -130     83    141    163 201.9  33.5  33992  286.74 0855.44
2009/04/23 08:15:55.9     -59   -115     56    130    141 207.2  25.1  33994  286.76 0855.44
2009/04/23 08:15:56.0     -64    -57     12     86     87 228.2   8.0  33994  286.78 0855.44
2009/04/23 08:15:56.1      -7    -41     11     42     44 190.7  15.3  33994  286.78 0855.44
2009/04/23 08:15:56.2     -22    -76     17     80     82 196.5  12.6  33992  286.73 0855.44
2009/04/23 08:15:56.3     -66    -66      4     94     95 225.0   2.9  33994  286.78 0855.44
2009/04/23 08:15:56.4     -61    -33     -6     70     71 241.1  -5.2  33992  286.73 0855.44
2009/04/23 08:15:56.5     -49    -65    -23     82     86 217.0 -16.0  33988  286.67 0855.44
2009/04/23 08:15:56.6    -100    -83     -5    131    132 230.4  -2.2  33992  286.74 0855.44
2009/04/23 08:15:56.7    -132    -84    -35    157    161 237.5 -12.6  33990  286.71 0855.44
2009/04/23 08:15:56.8    -153    -86     -9    176    177 240.7  -3.1  33990  286.71 0855.44
2009/04/23 08:15:56.9    -174    -69    -56    188    196 248.2 -21.5  33992  286.74 0855.44
2009/04/23 08:15:57.0    -158    -66    -53    172    179 247.4 -22.3  33990  286.69 0855.44
2009/04/23 08:15:57.1    -185    -32    -52    188    195 259.9 -20.2  33992  286.73 0855.44
2009/04/23 08:15:57.2    -193    -71    -35    206    210 249.8  -9.8  33992  286.73 0855.44
2009/04/23 08:15:57.3    -197     12    -38    198    202 273.7 -10.9  33992  286.73 0855.45
2009/04/23 08:15:57.4    -181      2    -42    182    187 270.9 -13.2  33992  286.74 0855.45
2009/04/23 08:15:57.5    -128    -60      3    142    143 244.8   1.2  33992  286.74 0855.45
2009/04/23 08:15:57.6    -168    -12   -227    169    283 265.6 -64.0  33994  286.75 0855.45
2009/04/23 08:15:57.7    -200   -137      2    243    244 235.4   0.5  33984  286.60 0855.45
2009/04/23 08:15:57.8    -165   -122    -34    206    209 233.6  -9.4  33986  286.64 0855.45
2009/04/23 08:15:57.9    -133    -28     75    136    155 258.1  31.4  33986  286.64 0855.45
2009/04/23 08:15:58.0     -76     11     60     77     97 278.8  42.2  33990  286.69 0855.45
2009/04/23 08:15:58.1     -46      0    115     47    124 270.0  77.1  33988  286.67 0855.45
2009/04/23 08:15:58.2       0     92    120     93    151 359.5  58.4  33992  286.73 0855.45
2009/04/23 08:15:58.3      -9     61     76     62     98 351.1  56.4  33990  286.69 0855.45
2009/04/23 08:15:58.4       3    141     71    142    158   1.4  28.5  33992  286.73 0855.45
2009/04/23 08:15:58.5     -46    144     49    152    160 342.2  18.1  33992  286.73 0855.45
2009/04/23 08:15:58.6     -32    203     67    206    217 350.9  18.1  33990  286.71 0855.45
2009/04/23 08:15:58.7     -93    146     16    174    175 327.5   5.4  33988  286.66 0855.45
2009/04/23 08:15:58.8    -166     88    -28    189    192 298.0  -8.6  33992  286.73 0855.45
2009/04/23 08:15:58.9    -132     76    -39    153    159 299.8 -14.5  33990  286.69 0855.45
2009/04/23 08:15:59.0    -132     72     28    151    154 298.8  10.6  33990  286.69 0855.45
2009/04/23 08:15:59.1    -177      8     23    178    180 272.8   7.5  33986  286.64 0855.45
2009/04/23 08:15:59.2    -171     76    -24    188    190 294.0  -7.3  33980  286.54 0855.45
2009/04/23 08:15:59.3    -257    119    -89    284    297 294.8 -22.3  33982  286.57 0855.45
2009/04/23 08:15:59.4    -174    134    -34    220    223 307.7  -9.0  33986  286.64 0855.45
2009/04/23 08:15:59.5    -254     74    -58    265    272 286.4 -12.4  33978  286.50 0855.45
2009/04/23 08:15:59.6    -231     50    -53    237    243 282.4 -12.6  33982  286.57 0855.45
2009/04/23 08:15:59.7    -157    131     10    205    206 309.8   2.8  33986  286.64 0855.45
2009/04/23 08:15:59.8    -197     -9     16    198    199 267.2   4.9  33982  286.57 0855.45
2009/04/23 08:15:59.9    -291    -40     70    294    303 262.1  13.5  33984  286.58 0855.45
2009/04/23 08:16:00.0    -290     73    -24    300    301 284.2  -4.6  33976  286.47 0855.45
2009/04/23 08:16:00.1    -273     65    -97    281    298 283.5 -19.1  33978  286.50 0855.45
2009/04/23 08:16:00.2    -259    129    -15    290    291 296.6  -3.1  33990  286.68 0855.45
2009/04/23 08:16:00.3    -220     88     25    238    240 291.8   6.1  33990  286.68 0855.45
2009/04/23 08:16:00.4    -203     95     77    225    238 295.2  18.9  33986  286.62 0855.45
2009/04/23 08:16:00.5    -158     52     69    167    180 288.4  23.6  33986  286.62 0855.45
2009/04/23 08:16:00.6    -100     28     98    105    143 285.9  48.0  33988  286.66 0855.45
2009/04/23 08:16:00.7    -113     49    111    124    166 293.6  46.4  33986  286.64 0855.45
2009/04/23 08:16:00.8    -178     91    115    201    231 297.1  32.7  33986  286.64 0855.45
2009/04/23 08:16:00.9    -166     96    143    192    239 300.0  40.6  33990  286.71 0855.45
2009/04/23 08:16:01.0    -185     94     96    208    229 297.1  27.0  33986  286.64 0855.45
2009/04/23 08:16:01.1    -194    159     37    251    254 309.3   8.5  33988  286.65 0855.45
2009/04/23 08:16:01.2    -218    198     42    295    299 312.2   8.2  33986  286.63 0855.45
2009/04/23 08:16:01.3    -171    200    114    264    287 319.5  25.1  33986  286.63 0855.45
2009/04/23 08:16:01.4    -139    203    111    247    270 325.5  26.2  33990  286.68 0855.45
2009/04/23 08:16:01.5     -83    248     58    262    269 341.3  12.6  33990  286.70 0855.45
2009/04/23 08:16:01.6     -16    181    -22    182    184 354.7  -6.9  33990  286.71 0855.45
2009/04/23 08:16:01.7     -96     71     35    120    126 306.4  16.3  33990  286.69 0855.45
2009/04/23 08:16:01.8     -75     58     54     95    109 307.8  31.9  33992  286.73 0855.45
2009/04/23 08:16:01.9    -233     17    107    234    257 274.3  26.2  33996  286.79 0855.45
2009/04/23 08:16:02.0    -217    -14     54    218    225 266.3  13.9  33994  286.76 0855.45
2009/04/23 08:16:02.1    -165     -2     59    166    176 269.2  20.0  33990  286.69 0855.45
2009/04/23 08:16:02.2    -178    -20    -40    180    185 263.4 -12.6  33990  286.69 0855.45
2009/04/23 08:16:02.3    -149      2     -8    150    151 270.9  -3.2  33994  286.76 0855.45
2009/04/23 08:16:02.4    -144      4     12    145    146 271.7   5.0  34000  286.86 0855.45
2009/04/23 08:16:02.5    -192     44     42    198    203 283.0  12.2  34030  287.37 0855.45
2009/04/23 08:16:02.6    -259     73     17    270    271 285.9   3.6  34008  287.01 0855.45
2009/04/23 08:16:02.7    -222     53    -13    229    230 283.5  -3.3  34004  286.94 0855.45
2009/04/23 08:16:02.8    -164    -18    -28    166    169 263.6  -9.8  34012  287.08 0855.45
2009/04/23 08:16:02.9    -157    -64     16    170    171 247.6   5.4  34014  287.10 0855.45
2009/04/23 08:16:03.0    -232    -64    -35    241    244 254.5  -8.3  34010  287.02 0855.45
2009/04/23 08:16:03.1    -229    -26     11    231    232 263.4   2.8  34012  287.08 0855.45
2009/04/23 08:16:03.2    -241    -58    -13    248    249 256.3  -3.2  34008  286.99 0855.45
2009/04/23 08:16:03.3    -320     19   -115    321    340 273.5 -24.8  34012  287.08 0855.40
2009/04/23 08:16:03.4    -247    -94    -48    265    270 249.1 -10.3  34004  286.92 0855.40
2009/04/23 08:16:03.5    -246   -107     14    269    270 246.5   3.1  34008  287.01 0855.40
2009/04/23 08:16:03.6    -189    -38    -29    193    196 258.6  -8.6  34022  287.23 0855.40
2009/04/23 08:16:03.7    -101   -122    -47    159    166 219.6 -16.6  34034  287.43 0855.40
2009/04/23 08:16:03.8    -135   -163    -55    212    220 219.7 -14.7  34024  287.28 0855.40
2009/04/23 08:16:03.9    -289   -202   -121    353    374 235.0 -19.0  34016  287.13 0855.40
2009/04/23 08:16:04.0    -273   -176   -114    326    346 237.1 -19.4  34012  287.07 0855.40
2009/04/23 08:16:04.1    -211   -169   -127    271    299 231.4 -31.5  34012  287.06 0855.40
2009/04/23 08:16:04.2    -124   -247   -129    277    305 206.7 -31.5  34010  287.04 0855.40
2009/04/23 08:16:04.3    -196   -325   -140    380    404 211.1 -25.4  34010  287.02 0855.40
2009/04/23 08:16:04.4    -246   -134    -95    281    297 241.4 -18.7  34008  287.01 0855.40
2009/04/23 08:16:04.5    -291     59   -183    297    348 281.5 -39.3  34010  287.05 0855.40
2009/04/23 08:16:04.6    -273     37   -166    276    322 277.9 -38.4  34010  287.02 0855.40
2009/04/23 08:16:04.7    -259     28    -72    261    271 276.2 -15.5  34008  286.99 0855.40
2009/04/23 08:16:04.8    -242     83    -73    256    266 289.0 -20.7  34004  286.94 0855.40
2009/04/23 08:16:04.9    -224     24    -58    226    234 276.2 -14.5  34000  286.86 0855.40
2009/04/23 08:16:05.0    -240     24    -32    242    245 275.9  -7.7  34002  286.90 0855.40
2009/04/23 08:16:05.1    -205     48    -14    211    212 283.3  -3.9  33994  286.78 0855.40
2009/04/23 08:16:05.2    -182     43    -54    188    195 283.5 -20.7  34012  287.08 0855.40
2009/04/23 08:16:05.3    -197     56    -72    205    218 285.9 -19.4  34032  287.40 0855.37
2009/04/23 08:16:05.4    -192     90    -18    213    214 295.2  -5.1  34040  287.54 0855.37
2009/04/23 08:16:05.5    -299     56   -101    305    322 280.6 -18.3  34000  286.85 0855.37
2009/04/23 08:16:05.6    -324     75    -55    333    338 283.2  -9.5  33996  286.81 0855.37
2009/04/23 08:16:05.7    -332     30    -26    334    336 275.2  -4.6  33994  286.75 0855.37
2009/04/23 08:16:05.8    -259    -21    107    260    281 265.2  23.6  33996  286.80 0855.37
2009/04/23 08:16:05.9    -234   -106    131    258    289 245.6  29.1  34008  287.01 0855.37
2009/04/23 08:16:06.0    -177    -56    120    186    221 252.3  35.6  34002  286.89 0855.37
2009/04/23 08:16:06.1    -132     -8     98    133    165 266.5  39.9  34004  286.93 0855.37
2009/04/23 08:16:06.2    -190     36     74    194    207 280.8  21.7  34014  287.11 0855.37
2009/04/23 08:16:06.3    -230     87     88    247    262 290.8  20.2  34044  287.60 0855.37
2009/04/23 08:16:06.4    -195      3    134    196    237 270.9  37.6  34018  287.18 0855.37
2009/04/23 08:16:06.5    -217     74    107    230    253 288.8  27.0  34012  287.07 0855.37
2009/04/23 08:16:06.6    -156     63    145    169    222 292.0  45.4  33998  286.84 0855.37
2009/04/23 08:16:06.7     -92     28    167     97    193 286.8  67.0  33990  286.69 0855.37
2009/04/23 08:16:06.8      22    -52    137     57    148 157.3  76.6  33998  286.83 0855.37
2009/04/23 08:16:06.9     -54    -58    160     80    178 223.3  71.7  33998  286.83 0855.37
2009/04/23 08:16:07.0     -64    -71    173     96    197 221.9  68.8  34000  286.86 0855.37
2009/04/23 08:16:07.1     -23   -213    137    215    254 186.2  35.6  33996  286.79 0855.37
2009/04/23 08:16:07.2     -81   -238    164    252    300 198.9  35.7  33992  286.72 0855.37
2009/04/23 08:16:07.3     -97   -288    106    305    324 198.7  19.2  33990  286.68 0855.37
2009/04/23 08:16:07.4    -156   -245     77    291    302 212.6  14.9  33988  286.65 0855.37
2009/04/23 08:16:07.5    -183   -201      3    272    273 222.3   0.8  33992  286.72 0855.37
2009/04/23 08:16:07.6    -176   -125    -57    217    225 234.5 -14.7  33992  286.73 0855.37
2009/04/23 08:16:07.7    -129   -117    -74    175    190 227.8 -28.7  33990  286.71 0855.37
2009/04/23 08:16:07.8    -206   -139   -149    249    290 235.9 -38.1  33980  286.53 0855.37
2009/04/23 08:16:07.9    -153    -16     -6    154    155 263.9  -2.2  33986  286.64 0855.37
2009/04/23 08:16:08.0    -121    -26     -8    124    125 257.6  -3.7  33988  286.67 0855.37
2009/04/23 08:16:08.1    -111    -26     47    115    124 256.7  23.0  33984  286.59 0855.37
2009/04/23 08:16:08.2     -70    -76    126    104    163 222.3  56.4  33984  286.61 0855.37
2009/04/23 08:16:08.3     -85    -83    145    120    188 225.6  56.3  33984  286.61 0855.37
2009/04/23 08:16:08.4     -93    -64    104    113    153 235.4  47.9  33982  286.57 0855.37
2009/04/23 08:16:08.5    -118    -16    102    120    157 262.1  45.1  33978  286.51 0855.37
2009/04/23 08:16:08.6    -151    -40     72    157    172 255.0  26.4  33982  286.57 0855.37
2009/04/23 08:16:08.7     -62   -142     25    156    159 203.7   9.3  33980  286.54 0855.37
2009/04/23 08:16:08.8     -93    -30    -82     98    127 251.6 -48.2  33982  286.57 0855.37
2009/04/23 08:16:08.9     -94     58    -35    111    117 302.0 -17.6  33980  286.52 0855.37
2009/04/23 08:16:09.0     -80     39    -25     90     93 296.2 -20.2  33982  286.57 0855.37
2009/04/23 08:16:09.1     -84     27    -48     89    101 288.2 -35.2  33984  286.61 0855.37
2009/04/23 08:16:09.2     -22     25      1     34     35 318.6   2.9  33982  286.56 0855.37
2009/04/23 08:16:09.3     -16     49     32     52     61 341.5  35.5  33980  286.54 0855.38
2009/04/23 08:16:09.4     -53     48     32     72     78 312.2  25.1  33982  286.57 0855.38
2009/04/23 08:16:09.5     -42     17     15     46     49 292.6  18.9  33984  286.61 0855.38
2009/04/23 08:16:09.6     -25     -9     22     27     34 248.3  43.8  33984  286.61 0855.38
2009/04/23 08:16:09.7     -34    -16     14     38     40 244.6  21.0  33986  286.62 0855.38
2009/04/23 08:16:09.8     -20    -26     32     34     46 217.8  50.0  33982  286.57 0855.38
2009/04/23 08:16:09.9       7    -22     54     24     59 161.3  75.0  33986  286.62 0855.38
2009/04/23 08:16:10.0      13     12     73     18     75  46.7  86.9  33986  286.64 0855.38
2009/04/23 08:16:10.1      12     20     88     24     91  32.5  84.4  33986  286.64 0855.38
2009/04/23 08:16:10.2      19    142    117    144    185   7.6  43.5  33986  286.64 0855.38
2009/04/23 08:16:10.3     -13    166    129    167    211 355.5  41.7  33984  286.61 0855.38
2009/04/23 08:16:10.4       0    189     49    190    197 359.8  14.5  33988  286.67 0855.38
2009/04/23 08:16:10.5      31    153    109    157    191  11.5  38.4  33988  286.67 0855.38
2009/04/23 08:16:10.6       0    114     69    115    134   0.5  34.4  33986  286.62 0855.38
2009/04/23 08:16:10.7     -23    149     64    151    164 351.1  24.1  33986  286.62 0855.38
2009/04/23 08:16:10.8      14     76      7     78     79  10.7   5.4  33988  286.67 0855.38
2009/04/23 08:16:10.9      99     53     79    113    137  62.0  38.6  33984  286.61 0855.38
2009/04/23 08:16:11.0      70     47    112     85    140  55.8  59.0  33988  286.66 0855.38
2009/04/23 08:16:11.1       3     99     66    100    119   1.8  37.0  33994  286.78 0855.38
2009/04/23 08:16:11.2      33     93     80     99    127  20.0  43.3  33990  286.71 0855.38
2009/04/23 08:16:11.3     -35     56     77     67    102 327.5  54.3  33990  286.71 0855.39
2009/04/23 08:16:11.4     -83     63     72    105    127 307.3  37.6  33990  286.71 0855.39
2009/04/23 08:16:11.5     -95     60     49    113    123 302.4  25.1  33990  286.69 0855.39
2009/04/23 08:16:11.6       7    162     76    163    179   2.6  27.0  33992  286.73 0855.39
2009/04/23 08:16:11.7     125    120     79    174    191  46.0  26.2  34008  287.00 0855.39
2009/04/23 08:16:11.8       2    220    190    221    291   0.7  45.1  34012  287.07 0855.39
2009/04/23 08:16:11.9     -43    167    160    173    235 345.5  47.7  34014  287.10 0855.39
2009/04/23 08:16:12.0      53     83    115     99    151  32.6  54.8  34002  286.91 0855.39
2009/04/23 08:16:12.1      86    157     65    179    190  28.7  20.4  34000  286.86 0855.39
2009/04/23 08:16:12.2      94     88     57    129    141  46.9  25.2  34002  286.89 0855.39
2009/04/23 08:16:12.3      52     55     15     76     78  43.3  11.1  33996  286.79 0855.39
2009/04/23 08:16:12.4      87     63     43    108    116  54.0  23.0  34000  286.88 0855.39
2009/04/23 08:16:12.5      15    176     22    177    179   4.9   7.2  33998  286.83 0855.39
2009/04/23 08:16:12.6      -6     87     88     88    124 356.0  50.1  33998  286.84 0855.39
2009/04/23 08:16:12.7     -32     80    118     87    146 338.2  60.5  33998  286.84 0855.39
2009/04/23 08:16:12.8     -15     81     65     83    105 349.3  42.2  34000  286.86 0855.39
2009/04/23 08:16:12.9      -3    -38     82     39     90 184.5  72.9  33994  286.78 0855.39
2009/04/23 08:16:13.0     -28    -52     49     60     77 208.1  43.7  33988  286.67 0855.39
2009/04/23 08:16:13.1      -7    -38     24     39     45 191.6  35.5  33986  286.64 0855.39
2009/04/23 08:16:13.2      53      8     55     54     77  81.2  49.1  33984  286.59 0855.39
2009/04/23 08:16:13.3      84    -31    118     90    148 110.8  58.5  33986  286.64 0855.38
2009/04/23 08:16:13.4     120    -46    102    129    164 111.3  42.2  33988  286.66 0855.38
2009/04/23 08:16:13.5      87    -35    115     94    148 112.2  56.4  33988  286.67 0855.38
2009/04/23 08:16:13.6      -7    -94     79     95    123 184.5  44.3  33986  286.62 0855.38
2009/04/23 08:16:13.7     -57   -150     12    161    162 200.9   4.6  33986  286.64 0855.38
2009/04/23 08:16:13.8     -42   -174     29    179    182 193.6   9.5  33986  286.62 0855.38
2009/04/23 08:16:13.9     -25   -162     69    165    178 188.9  23.8  33988  286.67 0855.38
2009/04/23 08:16:14.0      46   -134     92    142    169 160.8  36.0  33986  286.62 0855.38
2009/04/23 08:16:14.1     125    -74    137    146    200 120.7  48.0  33990  286.71 0855.38
2009/04/23 08:16:14.2      30    -68    102     75    126 156.4  60.5  33990  286.71 0855.38
2009/04/23 08:16:14.3      50    -73     82     89    121 145.3  47.9  33990  286.71 0855.38
2009/04/23 08:16:14.4      28     -4     89     29     93  99.7  80.7  33990  286.71 0855.38
2009/04/23 08:16:14.5      -8     -3     85      9     85 244.7  90.0  33992  286.73 0855.38
2009/04/23 08:16:14.6      25    -24     78     35     85 133.3  74.5  33992  286.74 0855.38
2009/04/23 08:16:14.7     -38    -77     91     86    125 206.3  51.2  33988  286.67 0855.38
2009/04/23 08:16:14.8     -44    -65     73     79    107 214.3  47.9  33990  286.69 0855.38
2009/04/23 08:16:14.9     -23    -21     49     32     58 226.9  64.6  33992  286.74 0855.38
2009/04/23 08:16:15.0      -5    -17     61     18     63 198.5  82.8  33992  286.74 0855.38
2009/04/23 08:16:15.1      -1    -39     53     40     66 182.6  59.4  33992  286.73 0855.38
2009/04/23 08:16:15.2     -14    -22     38     27     46 212.6  61.5  33992  286.73 0855.38
2009/04/23 08:16:15.3      -1     -6     40      7     40 189.7  90.0  33992  286.73 0855.37
2009/04/23 08:16:15.4      -7    -17     27     19     33 201.8  60.5  33990  286.71 0855.37
2009/04/23 08:16:15.5      -3     -7     15      8     17 205.4  68.8  33992  286.74 0855.37
2009/04/23 08:16:15.6     -21    -15     37     27     45 234.0  60.5  33996  286.79 0855.37
2009/04/23 08:16:15.7     -66     -9     21     67     71 262.1  17.3  33990  286.71 0855.37
2009/04/23 08:16:15.8     -58     -6    -18     59     62 263.9 -17.6  33986  286.64 0855.37
2009/04/23 08:16:15.9     -44     14      7     47     48 288.4   9.0  33988  286.66 0855.37
2009/04/23 08:16:16.0     -32     -3     32     33     45 263.9  50.0  33990  286.69 0855.37
2009/04/23 08:16:16.1     -66    -30     59     73     93 245.6  43.7  33990  286.69 0855.37
2009/04/23 08:16:16.2    -107     -8    -13    108    109 265.7  -7.3  33988  286.67 0855.37
2009/04/23 08:16:16.3    -131     26    -46    134    141 281.5 -23.3  33990  286.69 0855.37
2009/04/23 08:16:16.4    -106     37    -62    113    128 289.5 -35.7  33986  286.64 0855.37
2009/04/23 08:16:16.5     -75    -35    -49     83     96 244.8 -38.4  33988  286.67 0855.37
2009/04/23 08:16:16.6     -25    -45     -7     52     53 209.9  -8.2  33988  286.67 0855.37
2009/04/23 08:16:16.7     -60    -64     26     89     93 223.2  16.3  33988  286.66 0855.37
2009/04/23 08:16:16.8     -77    -63    -21    100    103 230.4 -11.9  33988  286.66 0855.37
2009/04/23 08:16:16.9     -91    -67    -28    114    118 233.6 -13.9  33988  286.67 0855.37
2009/04/23 08:16:17.0     -38    -34    -49     52     71 227.8 -52.4  33990  286.69 0855.37
2009/04/23 08:16:17.1       7     -6    -59     10     59 133.1 -90.0  33988  286.66 0855.37
2009/04/23 08:16:17.2      17      4    -32     18     36  74.9 -71.2  33990  286.69 0855.37
2009/04/23 08:16:17.3      10     19      2     22     23  27.2   6.9  33988  286.66 0855.37
2009/04/23 08:16:17.4     -21     54     31     59     66 338.2  30.3  33988  286.67 0855.37
2009/04/23 08:16:17.5     -47     30     45     56     71 302.5  43.7  33990  286.69 0855.37
2009/04/23 08:16:17.6     -53     -4     42     54     68 265.6  43.7  33990  286.69 0855.37
2009/04/23 08:16:17.7     -29    -53     71     61     93 209.0  54.8  33990  286.69 0855.37
2009/04/23 08:16:17.8     -91    -66     22    113    116 234.0  11.0  33990  286.71 0855.37
2009/04/23 08:16:17.9    -123    -52    -11    134    135 246.9  -5.1  33988  286.66 0855.37
2009/04/23 08:16:18.0     -87    -52     26    102    106 239.3  14.3  33988  286.66 0855.37
2009/04/23 08:16:18.1     -45    -53     73     70    101 220.5  51.6  33988  286.67 0855.37
2009/04/23 08:16:18.2     -16    -62    113     65    130 194.3  67.2  33986  286.64 0855.37
2009/04/23 08:16:18.3      10     22    102     25    105  23.6  86.4  33990  286.71 0855.37
2009/04/23 08:16:18.4     -68     59     74     91    117 310.9  43.7  33984  286.61 0855.37
2009/04/23 08:16:18.5     -83     20     32     86     91 283.7  21.0  33982  286.56 0855.37
2009/04/23 08:16:18.6     -24    -33     36     42     55 216.1  44.8  33988  286.66 0855.37
2009/04/23 08:16:18.7     -41    -78    -10     89     90 208.1  -6.7  33986  286.64 0855.37
2009/04/23 08:16:18.8     -40    -92     55    101    115 203.6  31.4  33984  286.61 0855.37
2009/04/23 08:16:18.9     -14   -120     39    121    128 186.7  17.9  33988  286.67 0855.37
2009/04/23 08:16:19.0     -44   -118     13    127    128 200.5   5.9  33986  286.64 0855.37
2009/04/23 08:16:19.1     -22   -130    -47    132    141 189.7 -19.7  33986  286.64 0855.37
2009/04/23 08:16:19.2       9   -126    -35    127    132 175.6 -15.5  33986  286.62 0855.37
2009/04/23 08:16:19.3      -3    -93     -2     94     95 182.2  -1.3  33986  286.64 0855.37
2009/04/23 08:16:19.4      19    -31    -40     37     54 147.5 -55.6  33988  286.66 0855.37
2009/04/23 08:16:19.5       1    -18    -65     19     67 175.5 -87.2  33986  286.64 0855.37
2009/04/23 08:16:19.6      -3      0    -50      4     50 270.0 -90.0  33986  286.64 0855.37
2009/04/23 08:16:19.7      41    -33    -34     53     62 128.6 -39.9  33986  286.64 0855.37
2009/04/23 08:16:19.8      67    -22    -39     71     81 108.4 -35.8  33988  286.66 0855.37
2009/04/23 08:16:19.9      57    -15    -21     60     64 105.0 -19.6  33986  286.64 0855.37
2009/04/23 08:16:20.0      53    -24      5     59     60 114.4   4.9  33988  286.66 0855.37
2009/04/23 08:16:20.1      82    -30     28     88     93 110.4  17.9  33988  286.66 0855.37
2009/04/23 08:16:20.2      92    -49     38    105    111 118.0  20.0  33986  286.64 0855.37
2009/04/23 08:16:20.3      61    -92     39    111    117 146.6  20.0  33988  286.66 0855.38
2009/04/23 08:16:20.5      49    -93     67    106    125 152.4  35.5  33986  286.62 0855.38
2009/04/23 08:16:20.5      60    -62     65     87    108 136.3  40.7  33986  286.64 0855.38
2009/04/23 08:16:20.6      75    -75     27    107    111 134.9  14.3  33984  286.61 0855.38
2009/04/23 08:16:20.7      45    -40     24     61     65 132.2  23.0  33984  286.61 0855.38
2009/04/23 08:16:20.8      45    -23     25     51     56 118.0  27.3  33988  286.66 0855.38
2009/04/23 08:16:20.9      16    -70     -3     72     73 166.6  -3.1  33986  286.64 0855.38
2009/04/23 08:16:21.0      50    -53     35     74     81 136.8  26.6  33988  286.66 0855.38
2009/04/23 08:16:21.1      70    -38     57     80     98 118.8  39.5  33990  286.71 0855.38
2009/04/23 08:16:21.2      38    -25     62     46     77 124.2  60.5  33990  286.71 0855.38
2009/04/23 08:16:21.4     -13    -65     80     67    104 191.6  56.3  33990  286.71 0855.38
2009/04/23 08:16:21.5     -36    -46     44     59     73 218.7  40.7  33988  286.66 0855.38
2009/04/23 08:16:21.5     -35    -28     47     45     65 231.4  51.2  33990  286.69 0855.38
2009/04/23 08:16:21.6     -57     -3     38     58     69 266.5  35.6  33990  286.69 0855.38
2009/04/23 08:16:21.8     -50     14     45     52     68 285.9  44.8  33990  286.71 0855.38
2009/04/23 08:16:21.9     -69    -26     55     74     92 249.2  40.7  33990  286.69 0855.38
2009/04/23 08:16:22.0    -135     19     43    137    144 278.4  17.4  33984  286.59 0855.38
2009/04/23 08:16:22.1    -148     46     23    156    158 287.3   8.5  33988  286.67 0855.38
2009/04/23 08:16:22.2     -84     15     54     86    101 280.6  35.5  33988  286.67 0855.38
2009/04/23 08:16:22.3     -53     53     47     76     89 315.0  35.0  33986  286.62 0855.38
2009/04/23 08:16:22.4     -10     73     31     74     80 352.0  24.1  33990  286.71 0855.40
2009/04/23 08:16:22.5     -16     81     24     83     87 348.4  16.3  33990  286.69 0855.40
2009/04/23 08:16:22.6       1     48     -1     49     50 360.0  -2.2  33988  286.67 0855.40
2009/04/23 08:16:22.7     -24      1     -1     25     26 272.6  -3.1  33986  286.64 0855.40
2009/04/23 08:16:22.8     -21    -13     62     25     66 237.6  77.1  33986  286.62 0855.40
2009/04/23 08:16:22.9     -35     35     59     50     77 314.9  56.3  33988  286.67 0855.40
2009/04/23 08:16:23.0     -36     -2     34     37     50 265.6  46.9  33988  286.66 0855.40
2009/04/23 08:16:23.1     -27     11     37     30     47 291.7  56.4  33988  286.66 0855.40
2009/04/23 08:16:23.2     -74    -15     14     76     78 258.6  11.0  33988  286.66 0855.40
2009/04/23 08:16:23.3    -135     41     16    142    143 286.9   6.5  33988  286.66 0855.40
2009/04/23 08:16:23.4    -110    100     33    149    153 312.2  12.6  33988  286.66 0855.40
2009/04/23 08:16:23.5    -109    102     92    150    175 313.1  35.0  33990  286.71 0855.40
2009/04/23 08:16:23.6    -103    -18     11    105    106 259.9   6.5  33988  286.67 0855.40
2009/04/23 08:16:23.7     -78     23     91     82    122 286.4  53.3  33990  286.69 0855.40
2009/04/23 08:16:23.8     -55      7     93     56    108 277.9  65.7  33992  286.73 0855.40
2009/04/23 08:16:23.9     -49      8    126     50    135 279.7  77.1  33996  286.79 0855.40
2009/04/23 08:16:24.0     -15    -16     89     22     91 223.2  86.4  33992  286.73 0855.40
2009/04/23 08:16:24.1      60      8    154     61    165  82.1  77.6  33990  286.69 0855.40
2009/04/23 08:16:24.2     -25     42    124     49    133 329.3  77.6  33992  286.73 0855.40
2009/04/23 08:16:24.3      13     25     74     29     79  27.2  78.2  33994  286.78 0855.40
2009/04/23 08:16:24.4     -55     -7    100     56    114 262.1  68.3  33996  286.81 0855.40
2009/04/23 08:16:24.5     -11    -29     86     32     91 201.8  79.2  33990  286.71 0855.40
2009/04/23 08:16:24.6      22    -14     90     27     93 122.4  82.3  33992  286.74 0855.40
2009/04/23 08:16:24.7     -40   -131    102    138    171 196.9  40.4  33982  286.57 0855.40
2009/04/23 08:16:24.8    -101    -40     47    109    118 248.2  25.1  33990  286.69 0855.40
2009/04/23 08:16:24.9      57    -79     96     98    137 144.4  50.0  33986  286.62 0855.40
2009/04/23 08:16:25.0       0    -50    103     51    114 180.9  72.4  33990  286.69 0855.40
2009/04/23 08:16:25.1       0   -103    148    104    180 180.0  61.3  33990  286.69 0855.40
2009/04/23 08:16:25.2      -5   -107    116    108    158 183.1  52.2  33988  286.67 0855.40
2009/04/23 08:16:25.3      42    -24    124     49    133 119.8  77.6  33990  286.71 0855.40
2009/04/23 08:16:25.4      57    -73     96     93    133 141.7  50.2  33990  286.69 0855.40
2009/04/23 08:16:25.5      25    -33     85     42     94 143.0  72.4  33994  286.76 0855.40
2009/04/23 08:16:25.6     -33    -58     84     67    107 209.9  56.9  33990  286.71 0855.40
2009/04/23 08:16:25.7     -40   -100    123    108    163 201.9  54.0  33990  286.69 0855.40
2009/04/23 08:16:25.8     -24    -73     81     78    112 198.7  51.2  33990  286.69 0855.40
2009/04/23 08:16:25.9     -36    -56     72     67     98 212.6  52.2  33990  286.71 0855.40
2009/04/23 08:16:26.0     -57    -49     80     76    110 229.6  51.6  33990  286.71 0855.40
2009/04/23 08:16:26.1     -49    -78     70     93    116 212.1  40.7  33988  286.66 0855.40
2009/04/23 08:16:26.2     -77    -93     43    122    130 219.6  19.4  33986  286.64 0855.40
2009/04/23 08:16:26.3     -49   -110     66    121    137 204.1  31.3  33986  286.62 0855.40
2009/04/23 08:16:26.4    -120    -46     54    129    139 248.7  23.6  33986  286.64 0855.43
2009/04/23 08:16:26.5    -138     -8     23    139    141 266.5   9.5  33982  286.56 0855.43
2009/04/23 08:16:26.6     -48    133     58    142    153 339.9  23.1  33986  286.64 0855.43
2009/04/23 08:16:26.7      65     41    129     77    150  57.6  66.7  33992  286.73 0855.43
2009/04/23 08:16:26.8      25     16    154     30    156  57.6  89.6  33994  286.76 0855.43
2009/04/23 08:16:26.9     112      0    128    113    170  90.0  54.3  33994  286.78 0855.43
2009/04/23 08:16:27.0      81    -44     94     93    132 118.9  50.1  33994  286.76 0855.43
2009/04/23 08:16:27.1      14    -70     85     72    111 168.4  55.8  33992  286.74 0855.43
2009/04/23 08:16:27.2     132    -66    100    148    178 116.6  37.3  33994  286.78 0855.43
2009/04/23 08:16:27.3      99    -44     92    109    142 114.0  44.3  33998  286.83 0855.43
2009/04/23 08:16:27.4      86    -94    116    128    172 137.7  47.1  33996  286.79 0855.43
2009/04/23 08:16:27.5     113    -38    140    120    184 108.6  55.0  33998  286.84 0855.43
2009/04/23 08:16:27.6     108   -124    162    165    231 139.0  49.8  33994  286.76 0855.43
2009/04/23 08:16:27.7      62   -178    153    189    243 160.6  43.0  33994  286.76 0855.43
2009/04/23 08:16:27.8      43   -141    156    148    215 163.0  52.1  33996  286.81 0855.43
2009/04/23 08:16:27.9       0   -139    143    140    200 180.4  50.4  33992  286.74 0855.43
2009/04/23 08:16:28.0       1    -17    162     18    163 175.5  90.0  33998  286.83 0855.43
2009/04/23 08:16:28.1      72    -46    119     86    146 122.4  60.6  33994  286.78 0855.43
2009/04/23 08:16:28.2       2     13     91     14     92  11.6  90.0  33996  286.81 0855.43
2009/04/23 08:16:28.3      85    -10    127     86    153  97.0  63.2  33994  286.78 0855.43
2009/04/23 08:16:28.4      -6    -16     86     18     87 201.8  89.0  33998  286.83 0855.44
2009/04/23 08:16:28.5       8    -15     67     18     69 151.0  84.9  33998  286.83 0855.44
2009/04/23 08:16:28.6       1      8     69      9     69  11.6  90.0  33998  286.84 0855.44
2009/04/23 08:16:28.7       9     10     41     14     43  43.4  81.0  33996  286.79 0855.44
2009/04/23 08:16:28.8     -47     17     95     50    107 290.0  69.8  34000  286.86 0855.44
2009/04/23 08:16:28.9      50     34    113     61    128  55.8  69.3  33994  286.78 0855.44
2009/04/23 08:16:29.0      94    -41    122    103    159 113.5  55.6  33996  286.79 0855.44
2009/04/23 08:16:29.1      46    -27    113     54    125 120.7  72.9  33996  286.81 0855.44
2009/04/23 08:16:29.2     132    -14    151    133    201  96.1  54.2  33994  286.78 0855.44
2009/04/23 08:16:29.3     127     -5    135    128    186  92.5  52.0  33996  286.79 0855.44
2009/04/23 08:16:29.4      82    -22    141     86    165 105.5  65.7  33996  286.79 0855.44
2009/04/23 08:16:29.5     153     -8     85    154    175  93.0  31.4  33992  286.74 0855.44
2009/04/23 08:16:29.6     128     12    109    129    168  84.3  44.3  33996  286.81 0855.44
2009/04/23 08:16:29.7     117     62    115    133    175  62.0  45.4  34010  287.03 0855.44
2009/04/23 08:16:29.8      55     83     95    100    137  33.8  48.0  34020  287.20 0855.44
2009/04/23 08:16:29.9      93     68     49    116    125  53.6  24.1  34032  287.42 0855.44
2009/04/23 08:16:30.0      -2     43     62     44     76 357.3  60.6  34018  287.16 0855.44
2009/04/23 08:16:30.1       0      3     42      4     42   4.5  90.0  34008  287.01 0855.44
2009/04/23 08:16:30.2       2      0     44      3     44  90.0  90.0  34000  286.88 0855.44
2009/04/23 08:16:30.3      59      4     64     60     87  85.7  51.2  33996  286.79 0855.44
2009/04/23 08:16:30.4      91      7     68     92    114  85.2  39.7  33996  286.81 0855.43
2009/04/23 08:16:30.5     154     28     54    157    167  79.4  19.2  33998  286.84 0855.43
2009/04/23 08:16:30.6     149      7     82    150    170  87.0  31.0  34006  286.96 0855.43
2009/04/23 08:16:30.7     214     64     65    224    234  73.4  16.3  34066  287.99 0855.43
2009/04/23 08:16:30.8     264     24     56    266    272  84.7  12.0  34070  288.04 0855.43
2009/04/23 08:16:30.9     268     27    111    270    291  84.1  23.4  34080  288.21 0855.43
2009/04/23 08:16:31.0     253    105    164    275    320  67.4  33.7  34080  288.22 0855.43
2009/04/23 08:16:31.1     192    107     43    220    225  60.9  11.1  34042  287.57 0855.43
2009/04/23 08:16:31.2     155     26     89    158    181  80.3  31.6  34082  288.25 0855.43
2009/04/23 08:16:31.3     240     65    117    249    275  74.9  27.1  34054  287.78 0855.43
2009/04/23 08:16:31.4     242     67    164    252    300  74.5  35.7  34082  288.26 0855.43
2009/04/23 08:16:31.5     250    148    145    291    325  59.3  28.4  34104  288.63 0855.43
2009/04/23 08:16:31.6     256    150    103    297    315  59.6  19.2  34038  287.50 0855.43
2009/04/23 08:16:31.7     245    141    107    283    302  60.0  21.7  34042  287.56 0855.43
2009/04/23 08:16:31.8     317    146    117    350    370  65.3  18.5  34052  287.76 0855.43
2009/04/23 08:16:31.9     271    171    143    321    351  57.8  25.6  34038  287.52 0855.43
2009/04/23 08:16:32.0     273    154    134    314    341  60.5  24.6  34010  287.05 0855.43
2009/04/23 08:16:32.1     319    178     83    366    376  60.8  12.8  34010  287.05 0855.43
2009/04/23 08:16:32.2     304    209     -8    370    371  55.5  -1.3  34004  286.93 0855.43
2009/04/23 08:16:32.3     308    176     67    355    362  60.3  10.8  34012  287.07 0855.43
2009/04/23 08:16:32.4     218    124    172    252    305  60.3  37.6  34014  287.11 0855.42
2009/04/23 08:16:32.5     214    224     84    310    322  43.7  15.3  34024  287.26 0855.42
2009/04/23 08:16:32.6     289    203    -45    354    357  54.9  -7.4  34022  287.25 0855.42
2009/04/23 08:16:32.7     296    164      5    339    340  61.0   1.0  34020  287.20 0855.42
2009/04/23 08:16:32.8     282    108    -66    303    311  68.9 -12.4  34006  286.95 0855.42
2009/04/23 08:16:32.9     264    168     -1    314    315  57.5  -0.3  34014  287.09 0855.42
2009/04/23 08:16:33.0     237    147     97    279    295  58.2  20.0  34008  286.99 0855.42
2009/04/23 08:16:33.1     298    153     26    336    338  62.8   4.6  34022  287.23 0855.42
2009/04/23 08:16:33.2     273     99    -48    291    295  70.0  -9.4  34032  287.41 0855.42
2009/04/23 08:16:33.3     249    117    -15    276    277  64.8  -3.2  34032  287.41 0855.42
2009/04/23 08:16:33.4     274    120    -19    300    301  66.4  -3.7  34034  287.44 0855.42
2009/04/23 08:16:33.5     269    104     34    289    292  68.7   6.9  34034  287.44 0855.42
2009/04/23 08:16:33.6     140    134     34    195    199  46.2  10.1  34042  287.59 0855.42
2009/04/23 08:16:33.7      80    138     13    160    161  30.3   4.9  34050  287.72 0855.42
2009/04/23 08:16:33.8      28    156    -20    159    161  10.2  -7.3  34040  287.55 0855.42
2009/04/23 08:16:33.9     -18    130     -5    132    133 351.9  -2.2  34050  287.70 0855.42
2009/04/23 08:16:34.0      20    168     59    170    181   6.9  19.2  34070  288.06 0855.42
2009/04/23 08:16:34.1      76     74     74    107    130  46.0  37.6  34074  288.11 0855.42
2009/04/23 08:16:34.2      38    101     45    109    117  20.9  23.6  34070  288.04 0855.42
2009/04/23 08:16:34.3      27     43     10     51     52  32.5  11.1  34074  288.11 0855.42
2009/04/23 08:16:34.4      27     -9     34     29     44 108.4  54.3  34070  288.04 0855.42
2009/04/23 08:16:34.5     105     -3     68    106    125  92.1  35.6  34068  288.01 0855.42
2009/04/23 08:16:34.6      86     55     47    103    113  57.6  26.6  34072  288.09 0855.42
2009/04/23 08:16:34.7      36     87     56     95    110  22.3  33.5  34068  288.03 0855.42
2009/04/23 08:16:34.8      24     73     92     77    119  18.5  56.3  34066  287.99 0855.42
2009/04/23 08:16:34.9     -22    160    140    162    214 352.0  45.4  34054  287.77 0855.42
2009/04/23 08:16:35.0      12    181    160    182    242   3.8  45.9  34054  287.79 0855.42
2009/04/23 08:16:35.1     -13    123     24    124    127 353.8  11.1  34054  287.77 0855.42
2009/04/23 08:16:35.2      54    111     10    124    125  25.9   5.0  34050  287.72 0855.42
2009/04/23 08:16:35.3      34    119     24    124    127  16.0  11.1  34050  287.72 0855.42
2009/04/23 08:16:35.4      33     83     10     90     91  21.8   6.9  34050  287.72 0855.42
2009/04/23 08:16:35.5      85    157     36    179    183  28.5  11.6  34058  287.84 0855.42
2009/04/23 08:16:35.6      28    138     33    141    145  11.6  13.2  34050  287.70 0855.42
2009/04/23 08:16:35.7      33    178     47    182    189  10.7  14.7  34044  287.62 0855.42
2009/04/23 08:16:35.8      -6    113     45    114    122 356.9  22.5  34050  287.70 0855.42
2009/04/23 08:16:35.9     -68    166     98    180    204 337.7  31.3  34064  287.96 0855.42
2009/04/23 08:16:36.0     -56    197     13    206    207 344.0   3.8  34056  287.81 0855.42
2009/04/23 08:16:36.1     -45    186     36    192    196 346.2  10.8  34028  287.33 0855.42
2009/04/23 08:16:36.2      -2    201     64    202    213 359.3  17.7  34046  287.64 0855.42
2009/04/23 08:16:36.3     -45    191     70    197    210 346.7  19.6  34062  287.92 0855.42
2009/04/23 08:16:36.4     -27    161     -6    164    165 350.2  -2.2  34060  287.89 0855.41
2009/04/23 08:16:36.5     -33    124     83    129    153 344.8  35.6  34050  287.70 0855.41
2009/04/23 08:16:36.6     -17    101     98    103    142 350.2  48.5  34064  287.94 0855.41
2009/04/23 08:16:36.7      60    107     68    123    140  29.4  31.4  34086  288.31 0855.41
2009/04/23 08:16:36.8      46    106     51    116    126  23.6  25.1  34082  288.25 0855.41
2009/04/23 08:16:36.9      32     97     85    103    133  18.3  43.7  34076  288.16 0855.41
2009/04/23 08:16:37.0      37     97     94    104    140  20.9  47.5  34078  288.18 0855.41
2009/04/23 08:16:37.1      -4     42     83     43     93 353.8  70.8  34068  288.03 0855.41
2009/04/23 08:16:37.2      -2     28     57     29     63 355.5  71.9  34070  288.04 0855.41
2009/04/23 08:16:37.3      14     85     62     87    106   9.8  39.1  34088  288.36 0855.41
2009/04/23 08:16:37.4     -11     76     96     77    123 351.1  56.9  34062  287.92 0855.39
2009/04/23 08:16:37.5      38     51     78     64    100  37.0  56.4  34082  288.25 0855.39
2009/04/23 08:16:37.6      43     54     90     70    114  38.7  57.9  34074  288.13 0855.39
2009/04/23 08:16:37.7     -22     39     98     46    108 330.1  73.1  34068  288.03 0855.39
2009/04/23 08:16:37.8     -50     26     65     57     86 298.0  53.7  34054  287.79 0855.39
2009/04/23 08:16:37.9    -117     -8     69    118    136 265.7  33.4  34046  287.65 0855.39
2009/04/23 08:16:38.0    -113     -3     65    114    131 268.3  32.4  34036  287.49 0855.39
2009/04/23 08:16:38.1    -119      0     97    120    154 270.0  43.7  34034  287.43 0855.39
2009/04/23 08:16:38.2     -90     32     98     96    137 289.5  50.1  34058  287.86 0855.39
2009/04/23 08:16:38.3     -73     -5     91     74    117 265.7  56.4  34040  287.54 0855.39
2009/04/23 08:16:38.4     -60     -4     81     61    101 265.6  59.4  34044  287.62 0855.39
2009/04/23 08:16:38.5     -20    -43     74     48     88 205.4  64.1  34050  287.70 0855.39
2009/04/23 08:16:38.6     -33    -80     69     87    111 202.7  43.3  34072  288.08 0855.39
2009/04/23 08:16:38.7       1   -120     35    121    127 179.5  16.3  34070  288.06 0855.39
2009/04/23 08:16:38.8     -35   -132     37    137    143 195.2  15.3  34062  287.92 0855.39
2009/04/23 08:16:38.9     -42   -131     14    138    139 197.8   5.9  34058  287.84 0855.39
2009/04/23 08:16:39.0     -41   -121     10    128    129 198.7   4.9  34036  287.47 0855.39
2009/04/23 08:16:39.1     -62   -139     19    153    155 204.1   7.2  34010  287.05 0855.39
2009/04/23 08:16:39.2     -64   -153     65    166    178 202.7  22.5  34014  287.11 0855.39
2009/04/23 08:16:39.3     -73   -149     72    167    181 206.1  24.6  34020  287.20 0855.39
2009/04/23 08:16:39.4     -89    -98     56    133    144 222.3  23.6  34030  287.37 0855.39
2009/04/23 08:16:39.5    -117    -97     27    153    156 230.4  10.3  34034  287.43 0855.39
2009/04/23 08:16:39.6     -95   -126     34    159    163 217.0  12.2  34030  287.38 0855.39
2009/04/23 08:16:39.7     -88   -159     33    182    185 209.0  10.3  34020  287.21 0855.39
2009/04/23 08:16:39.8     -29   -184     34    187    191 189.1  10.3  34002  286.89 0855.39
2009/04/23 08:16:39.9      36   -180     84    184    202 168.4  26.2  34006  286.98 0855.39
2009/04/23 08:16:40.0     -17   -173     62    174    184 185.8  20.0  34006  286.98 0855.39
2009/04/23 08:16:40.1     -39   -164     40    169    174 193.4  13.5  34006  286.98 0855.39
2009/04/23 08:16:40.2     -82   -174     57    193    202 205.3  16.6  34014  287.11 0855.39
2009/04/23 08:16:40.3     -16   -169     39    170    175 185.6  12.9  34006  286.96 0855.39
2009/04/23 08:16:40.4     -15   -179     38    180    185 184.9  12.2  33996  286.81 0855.39
2009/04/23 08:16:40.5     -38   -189      9    193    194 191.6   2.9  34000  286.86 0855.39
2009/04/23 08:16:40.6     -21   -173    -30    175    178 187.1  -9.8  34006  286.98 0855.39
2009/04/23 08:16:40.7     -12   -154    -13    155    156 184.5  -4.9  34008  287.00 0855.39
2009/04/23 08:16:40.8     -55   -110     -2    124    125 206.7  -1.3  34018  287.16 0855.39
2009/04/23 08:16:40.9    -132    -99      8    165    166 233.1   2.8  34084  288.28 0855.39
2009/04/23 08:16:41.0    -136   -118     39    181    186 229.1  12.4  34102  288.58 0855.39
2009/04/23 08:16:41.1    -140   -132     25    193    195 226.7   7.5  34118  288.86 0855.39
2009/04/23 08:16:41.2    -133   -118     13    179    180 228.4   4.4  34096  288.48 0855.39
2009/04/23 08:16:41.3    -143   -138     -4    199    200 226.0  -1.3  34062  287.91 0855.39
2009/04/23 08:16:41.4    -192     -3    -17    193    194 269.1  -5.2  34046  287.64 0855.39
2009/04/23 08:16:41.5    -188     -9     -7    189    190 267.2  -2.2  34038  287.50 0855.39
2009/04/23 08:16:41.6     -54    -86     95    102    139 212.1  47.9  34034  287.43 0855.39
2009/04/23 08:16:41.7     -16    -98     91    100    135 189.8  47.5  34016  287.13 0855.39
2009/04/23 08:16:41.8      24   -100     62    103    120 166.2  33.5  33998  286.83 0855.39
2009/04/23 08:16:41.9      36   -111     75    117    138 161.7  35.6  33998  286.83 0855.39
2009/04/23 08:16:42.0      25   -123     63    126    140 168.4  28.2  33996  286.79 0855.39
2009/04/23 08:16:42.1      22   -103     21    106    109 167.5  11.1  33998  286.83 0855.39
2009/04/23 08:16:42.2      20   -116     25    118    121 169.8  12.2  33998  286.83 0855.39
2009/04/23 08:16:42.3      27    -86     27     91     96 162.2  16.8  34000  286.88 0855.39
2009/04/23 08:16:42.4      63    -64     -5     91     92 135.5  -3.7  34026  287.30 0855.39
2009/04/23 08:16:42.5      36    -66      9     76     77 151.0   6.9  34012  287.06 0855.39
2009/04/23 08:16:42.6      17    -48     -1     52     53 160.0  -1.3  34006  286.96 0855.39
2009/04/23 08:16:42.7      23    -30    -10     39     41 142.2 -14.5  34012  287.08 0855.39
2009/04/23 08:16:42.8      32      0    -14     33     35  90.8 -27.4  34014  287.11 0855.39
2009/04/23 08:16:42.9      41    -13    -10     44     46 108.2 -13.4  34012  287.06 0855.39
2009/04/23 08:16:43.0      23    -32    -12     40     42 143.9 -16.6  34014  287.10 0855.39
2009/04/23 08:16:43.1      16    -93    -12     95     96 170.2  -7.2  34004  286.94 0855.39
2009/04/23 08:16:43.2      27   -142     -5    145    146 168.9  -2.2  34008  287.00 0855.39
2009/04/23 08:16:43.3     -12   -115     13    116    117 186.2   6.9  34002  286.91 0855.39
2009/04/23 08:16:43.4     -58   -173    100    183    208 198.7  31.0  34002  286.89 0855.40
2009/04/23 08:16:43.5     -80   -216    135    231    267 200.5  33.1  34000  286.87 0855.40
2009/04/23 08:16:43.6     -21   -170    161    172    235 187.1  47.9  33996  286.81 0855.40
2009/04/23 08:16:43.7      15   -243    107    244    266 176.4  25.2  33998  286.82 0855.40
2009/04/23 08:16:43.8     -30   -177     28    180    183 189.6   8.8  33994  286.76 0855.40
2009/04/23 08:16:43.9     -61   -197    145    207    252 197.2  38.5  34000  286.85 0855.40
2009/04/23 08:16:44.0     -99   -222    101    244    264 204.1  23.6  34000  286.85 0855.40
2009/04/23 08:16:44.1     -83   -209     35    226    229 201.8   8.8  33996  286.81 0855.40
2009/04/23 08:16:44.2     -15   -188     98    189    212 184.7  29.3  33996  286.79 0855.40
2009/04/23 08:16:44.3     -60   -164    106    175    204 200.3  34.2  33998  286.84 0855.40
2009/04/23 08:16:44.4      -4   -120     82    121    146 182.2  37.4  33998  286.84 0855.40
2009/04/23 08:16:44.5     -22   -172     92    174    196 187.3  30.1  33998  286.83 0855.40
2009/04/23 08:16:44.6     -29   -154     64    157    169 190.7  23.4  33998  286.83 0855.40
2009/04/23 08:16:44.7      16   -151     18    152    154 173.8   6.9  33996  286.81 0855.40
2009/04/23 08:16:44.8     -16   -204      0    205    206 184.7   0.2  33996  286.81 0855.40
2009/04/23 08:16:44.9     -34   -152     63    156    168 192.9  23.0  33996  286.81 0855.40
2009/04/23 08:16:45.0     -12   -178     44    179    185 184.0  13.9  34000  286.86 0855.40
2009/04/23 08:16:45.1     -19   -177     31    179    182 186.2  10.1  34000  286.86 0855.40
2009/04/23 08:16:45.2     -23   -218     -6    220    221 186.2  -1.6  33998  286.84 0855.40
2009/04/23 08:16:45.3      30   -183     -2    186    187 170.7  -0.7  33996  286.81 0855.40
2009/04/23 08:16:45.4      41   -229    -27    233    235 169.8  -6.7  33996  286.80 0855.41
2009/04/23 08:16:45.5     102   -195    -70    221    231 152.4 -23.0  33992  286.73 0855.41
2009/04/23 08:16:45.6      18   -219    -27    220    222 175.1  -7.2  33992  286.74 0855.41
2009/04/23 08:16:45.7      60   -209    -40    218    222 164.0 -10.5  33992  286.74 0855.41
2009/04/23 08:16:45.8     103   -187    -59    214    223 151.1 -15.5  33996  286.79 0855.41
2009/04/23 08:16:45.9      36   -141    -46    146    154 165.7 -17.6  33996  286.79 0855.41
2009/04/23 08:16:46.0      30   -147      0    151    152 168.4   0.2  33998  286.83 0855.41
2009/04/23 08:16:46.1      60   -180     53    190    198 161.5  15.6  33996  286.81 0855.41
2009/04/23 08:16:46.2      13   -205     29    206    209 176.4   8.2  33996  286.79 0855.41
2009/04/23 08:16:46.3     -62   -215     44    224    229 196.3  11.1  34000  286.86 0855.41
2009/04/23 08:16:46.4      -2   -154     83    155    175 181.0  30.6  33998  286.84 0855.41
2009/04/23 08:16:46.5       0   -203     86    204    221 180.2  24.1  33998  286.84 0855.41
2009/04/23 08:16:46.6      70   -226     44    237    242 162.6  10.6  33998  286.82 0855.41
2009/04/23 08:16:46.7     113   -281      6    303    304 158.1   1.2  33998  286.84 0855.41
2009/04/23 08:16:46.8     125   -264    -11    293    294 154.7  -2.2  33998  286.84 0855.41
2009/04/23 08:16:47.0     130   -297     63    325    332 156.3  11.1  34000  286.86 0855.41
2009/04/23 08:16:47.1     151   -261     59    302    308 149.9  11.1  33998  286.84 0855.41
2009/04/23 08:16:47.2     206   -346     23    403    404 149.3   3.3  33996  286.81 0855.41
2009/04/23 08:16:47.3     186   -339    -83    387    396 151.2 -12.2  33996  286.80 0855.41
2009/04/23 08:16:47.4     188   -322    -31    373    375 149.7  -4.9  33996  286.80 0855.41
2009/04/23 08:16:47.5      68   -335    -58    343    348 168.4  -9.7  34000  286.85 0855.41
2009/04/23 08:16:47.5      62   -335    -48    341    345 169.5  -8.1  34000  286.85 0855.41
2009/04/23 08:16:47.7      23   -281    -25    283    285 175.1  -5.1  33996  286.80 0855.41
2009/04/23 08:16:47.8     -96   -251     28    269    271 200.9   6.1  33994  286.77 0855.41
2009/04/23 08:16:47.9    -174   -316    128    361    384 208.9  19.6  33998  286.83 0855.41
2009/04/23 08:16:48.0    -275   -354     53    449    453 217.9   6.8  33992  286.74 0855.41
2009/04/23 08:16:48.1    -250   -280      3    376    377 221.8   0.5  33994  286.76 0855.41
2009/04/23 08:16:48.2    -161   -328    132    366    390 206.2  19.9  33996  286.80 0855.41
2009/04/23 08:16:48.3    -283   -373      1    469    470 217.2   0.2  33990  286.71 0855.41
2009/04/23 08:16:48.4    -219   -320     23    388    389 214.4   3.5  33990  286.71 0855.41
2009/04/23 08:16:48.5    -234   -273    -10    360    361 220.6  -1.7  33996  286.80 0855.41
2009/04/23 08:16:48.6    -152   -302     44    339    342 206.8   7.4  33992  286.73 0855.41
2009/04/23 08:16:48.7    -136   -209     21    250    251 213.2   5.0  33992  286.74 0855.41
2009/04/23 08:16:48.8     -84   -203     59    220    228 202.5  15.2  33990  286.71 0855.41
2009/04/23 08:16:48.9    -119   -164     62    203    213 216.0  17.1  33992  286.73 0855.41
2009/04/23 08:16:49.0    -127   -151     27    198    201 219.9   8.0  33994  286.76 0855.41
2009/04/23 08:16:49.1    -119   -144      6    188    189 219.6   2.1  33992  286.73 0855.41
2009/04/23 08:16:49.2    -168   -262     61    312    319 212.6  11.1  33996  286.80 0855.41
2009/04/23 08:16:49.3    -225   -241    -14    331    332 223.0  -2.5  33992  286.73 0855.41
2009/04/23 08:16:49.4    -245   -253    -27    353    354 224.1  -4.4  33998  286.83 0855.41
2009/04/23 08:16:49.5    -213   -209    -53    299    304 225.6 -10.1  33994  286.77 0855.43
2009/04/23 08:16:49.6    -126   -173    -61    215    224 216.1 -16.0  33994  286.76 0855.43
2009/04/23 08:16:49.7     -59   -163    -54    174    182 200.0 -22.5  33992  286.74 0855.43
2009/04/23 08:16:49.8     -87   -193     13    212    213 204.3   3.6  33994  286.76 0855.43
2009/04/23 08:16:49.9    -107   -163     -5    196    197 213.2  -1.6  33992  286.74 0855.43
2009/04/23 08:16:50.0    -212    -81    -61    228    237 248.9 -15.0  33990  286.70 0855.43
2009/04/23 08:16:50.1    -227   -139    -10    267    268 238.5  -2.2  33990  286.70 0855.43
2009/04/23 08:16:50.2    -210   -247    -89    325    338 220.3 -15.4  33988  286.66 0855.43
2009/04/23 08:16:50.3    -148   -157   -151    217    264 223.3 -42.9  33996  286.79 0855.43
2009/04/23 08:16:50.4    -205   -195    -80    283    294 226.4 -20.4  33982  286.57 0855.43
2009/04/23 08:16:50.5    -307   -147    -58    341    347 244.3  -9.8  33986  286.63 0855.43
2009/04/23 08:16:50.6    -289    -96     31    305    307 251.6   5.9  33986  286.63 0855.43
2009/04/23 08:16:50.7    -278    -45     -8    282    283 260.8  -1.8  33988  286.65 0855.43
2009/04/23 08:16:50.8    -260   -221    -73    342    350 229.7 -12.2  33994  286.75 0855.43
2009/04/23 08:16:50.9    -328   -287   -217    437    487 228.8 -32.6  33996  286.80 0855.43
2009/04/23 08:16:51.0    -219   -232   -130    320    345 223.3 -27.8  33990  286.71 0855.43
2009/04/23 08:16:51.1    -228   -136    -90    266    280 239.1 -23.3  33988  286.65 0855.43
2009/04/23 08:16:51.2    -220   -136   -118    259    284 238.2 -30.6  33992  286.72 0855.43
2009/04/23 08:16:51.3    -174    -91   -117    197    229 242.2 -37.9  33992  286.73 0855.43
2009/04/23 08:16:51.4    -129    -67   -137    146    200 242.5 -52.4  33994  286.78 0855.43
2009/04/23 08:16:51.5     -42    -51   -101     67    121 219.6 -67.6  33994  286.78 0855.43
2009/04/23 08:16:51.6     -14    -14    -64     21     67 225.1 -85.1  33992  286.74 0855.43
2009/04/23 08:16:51.7      20    -32    -85     38     93 147.5 -78.9  33996  286.81 0855.43
2009/04/23 08:16:51.8      89    -56   -105    106    149 122.5 -54.4  34000  286.88 0855.43
2009/04/23 08:16:51.9     135     14    -85    136    160  83.9 -39.4  34000  286.88 0855.43
2009/04/23 08:16:52.0      82     78      2    114    115  46.4   1.2  33996  286.79 0855.43
2009/04/23 08:16:52.1     -60     96    -17    114    116 327.9  -8.8  33996  286.81 0855.43
2009/04/23 08:16:52.2     -53     16   -140     56    150 286.8 -81.5  33992  286.73 0855.43
2009/04/23 08:16:52.3      33     46    -88     57    104  36.1 -69.0  33990  286.71 0855.43
2009/04/23 08:16:52.4      11     57    -56     59     81  11.6 -52.9  33990  286.69 0855.43
2009/04/23 08:16:52.5       2     31     -9     32     34   4.5 -15.5  33992  286.73 0855.43
2009/04/23 08:16:52.6      13      4      0     14     15  71.6   2.9  33992  286.74 0855.43
2009/04/23 08:16:52.7      21    -21      1     31     32 135.0   2.8  33992  286.74 0855.43
2009/04/23 08:16:52.8       5    -42    -15     43     46 172.0 -19.7  33990  286.71 0855.43
2009/04/23 08:16:52.9      -8   -108    -56    109    122 184.4 -33.7  33992  286.74 0855.43
2009/04/23 08:16:53.0     -56   -102    -37    117    123 209.0 -17.5  33988  286.67 0855.43
2009/04/23 08:16:53.1     -64   -108    -38    126    131 210.8 -21.8  33990  286.71 0855.43
2009/04/23 08:16:53.2     -39    -87    -34     96    101 204.5 -24.4  33990  286.69 0855.43
2009/04/23 08:16:53.3      46    -72    -17     86     88 147.4 -11.3  33992  286.73 0855.43
2009/04/23 08:16:53.4      97   -124    -55    158    167 142.1 -23.8  33990  286.71 0855.43
2009/04/23 08:16:53.5      41   -102    -74    110    132 158.1 -41.4  33990  286.71 0855.44
2009/04/23 08:16:53.6      -7   -179    -54    180    188 182.5 -16.8  33986  286.64 0855.44
2009/04/23 08:16:53.7    -110   -230    -52    256    262 205.6 -11.5  33994  286.77 0855.44
2009/04/23 08:16:53.8    -140   -218    -88    260    275 212.6 -18.7  33990  286.68 0855.44
2009/04/23 08:16:53.9    -181   -234    -48    296    301 217.8  -9.3  33992  286.74 0855.44
2009/04/23 08:16:54.0    -137   -223     -5    262    263 211.6  -1.2  33992  286.74 0855.44
2009/04/23 08:16:54.1     -50   -213    -42    219    224 193.4 -10.9  33992  286.74 0855.44
2009/04/23 08:16:54.2     -37   -197     -3    201    202 190.7  -1.1  33992  286.73 0855.44
2009/04/23 08:16:54.3      19   -259     22    260    262 175.8   4.9  33988  286.67 0855.44
2009/04/23 08:16:54.4      37   -288     30    291    293 172.7   5.9  33992  286.72 0855.44
2009/04/23 08:16:54.5      21   -313     24    314    315 176.0   4.4  33992  286.72 0855.44
2009/04/23 08:16:54.6       5   -318     -6    319    320 179.0  -1.1  33992  286.72 0855.44
2009/04/23 08:16:54.7      -4   -318    -12    319    320 180.9  -2.2  33990  286.70 0855.44
2009/04/23 08:16:54.8     -19   -269     53    270    276 184.2  11.1  33988  286.67 0855.44
2009/04/23 08:16:54.9     -69   -293     78    302    313 193.3  14.6  33992  286.72 0855.44
2009/04/23 08:16:55.0       9   -325    140    326    354 178.4  24.9  33984  286.61 0855.44
2009/04/23 08:16:55.1     -32   -386     83    388    397 184.9  12.2  33990  286.71 0855.44
2009/04/23 08:16:55.2     -17   -357     94    358    371 182.8  14.7  33990  286.68 0855.44
2009/04/23 08:16:55.3     -31   -343    157    345    379 185.3  26.2  33994  286.76 0855.44
2009/04/23 08:16:55.4     -37   -399    148    401    427 185.3  21.1  33992  286.74 0855.44
2009/04/23 08:16:55.5      -8   -476    124    477    493 181.0  14.6  33990  286.70 0855.45
2009/04/23 08:16:55.6     -55   -406    145    410    434 187.8  20.3  33994  286.76 0855.45
2009/04/23 08:16:55.7     -16   -345    172    346    386 182.8  28.4  33992  286.73 0855.45
2009/04/23 08:16:55.8      -8   -301    179    302    351 181.6  33.5  33990  286.71 0855.45
2009/04/23 08:16:55.9      69   -148    176    164    240 155.1  52.2  34000  286.86 0855.45
2009/04/23 08:16:56.0      17   -216    137    217    256 175.3  35.5  34000  286.85 0855.45
2009/04/23 08:16:56.1      41   -304    141    307    337 172.2  26.5  33994  286.75 0855.45
2009/04/23 08:16:56.2     113   -371    166    389    422 163.0  24.5  33994  286.77 0855.45
2009/04/23 08:16:56.3      92   -379    187    390    432 166.3  27.3  33996  286.81 0855.45
2009/04/23 08:16:56.4      53   -363    163    367    401 171.7  25.6  34000  286.88 0855.45
2009/04/23 08:16:56.5       9   -326    165    327    366 178.3  28.9  34000  286.88 0855.45
2009/04/23 08:16:56.6      58   -253    132    260    291 167.1  29.2  33998  286.82 0855.45
2009/04/23 08:16:56.7     102   -304     58    321    327 161.3  10.3  33998  286.84 0855.45
2009/04/23 08:16:56.8     127   -309     25    335    336 157.6   4.3  33998  286.83 0855.45
2009/04/23 08:16:56.9     142   -217     13    260    261 146.8   2.9  33994  286.77 0855.45
2009/04/23 08:16:57.0      88   -205    104    224    246 156.8  26.6  33996  286.80 0855.45
2009/04/23 08:16:57.1      65   -185    101    197    221 160.4  29.3  33994  286.78 0855.45
2009/04/23 08:16:57.2      29   -174    142    177    226 170.4  43.3  33996  286.79 0855.45
2009/04/23 08:16:57.3      28   -176    115    179    212 170.9  35.6  33996  286.81 0855.45
2009/04/23 08:16:57.4       3   -120    118    121    169 178.2  49.4  33996  286.81 0855.45
2009/04/23 08:16:57.5      17    -80    119     82    144 168.0  62.6  33996  286.81 0855.45
2009/04/23 08:16:57.6     -42    -80     73     91    116 208.1  43.7  33996  286.81 0855.45
2009/04/23 08:16:57.7     -96    -96     70    136    152 225.0  29.3  33998  286.84 0855.45
2009/04/23 08:16:57.8    -108   -106     46    152    160 225.6  17.1  33996  286.79 0855.45
2009/04/23 08:16:57.9      -5   -178    -61    179    190 181.8 -18.9  33996  286.81 0855.45
2009/04/23 08:16:58.0      42   -161     15    167    168 165.3   5.4  33996  286.79 0855.45
2009/04/23 08:16:58.1      15   -285     21    286    287 176.9   4.2  33990  286.70 0855.45
2009/04/23 08:16:58.2     -74   -304     11    314    315 193.8   2.1  33990  286.68 0855.45
2009/04/23 08:16:58.3      64   -257      3    265    266 166.0   0.8  33992  286.74 0855.45
2009/04/23 08:16:58.4      74   -224    -21    236    237 161.7  -5.2  33994  286.75 0855.45
2009/04/23 08:16:58.5      34   -155    -47    159    165 167.5 -21.5  33988  286.67 0855.46
2009/04/23 08:16:58.6     -70   -147    -21    163    165 205.5  -7.3  33990  286.71 0855.46
2009/04/23 08:16:58.7    -176   -149   -118    231    259 229.8 -33.6  33986  286.63 0855.46
2009/04/23 08:16:58.8    -249   -222   -157    334    369 228.3 -31.5  33992  286.73 0855.46
2009/04/23 08:16:58.9    -186   -270     39    329    332 214.6   6.8  33990  286.71 0855.46
2009/04/23 08:16:59.0    -186   -269    107    328    346 214.6  18.1  33990  286.71 0855.46
2009/04/23 08:16:59.1    -130   -203    102    242    262 212.6  24.1  33990  286.70 0855.46
2009/04/23 08:16:59.2      -6   -126     80    127    150 183.1  35.5  33988  286.67 0855.46
2009/04/23 08:16:59.3      46    -42    108     63    125 132.2  66.8  33992  286.73 0855.46
2009/04/23 08:16:59.4     -30    -38    153     49    160 218.7  81.6  33996  286.79 0855.46
2009/04/23 08:16:59.5       0     25    115     26    117 359.1  87.5  33996  286.81 0855.46
2009/04/23 08:16:59.6      -5    -90     82     91    122 183.6  46.9  33994  286.78 0855.46
2009/04/23 08:16:59.7      20    -74    147     77    165 164.9  70.0  33994  286.78 0855.46
2009/04/23 08:16:59.8      29    -54    118     62    133 151.9  70.4  33992  286.74 0855.46
2009/04/23 08:16:59.9      -9    -38    131     40    136 193.4  82.7  33994  286.78 0855.46
2009/04/23 08:17:00.0      97    -79    146    126    192 129.1  54.8  33994  286.78 0855.46
2009/04/23 08:17:00.1      49   -165    141    173    223 163.5  43.7  33992  286.74 0855.46
2009/04/23 08:17:00.2      34   -166    132    170    215 168.2  41.7  33992  286.74 0855.46
2009/04/23 08:17:00.3      65   -134    115    149    188 154.1  41.7  33994  286.78 0855.46
2009/04/23 08:17:00.4     104   -103     82    147    168 134.8  31.6  33992  286.74 0855.46
2009/04/23 08:17:00.5      40    -74     57     85    102 151.9  37.0  33994  286.78 0855.47
2009/04/23 08:17:00.6      25    -76    103     81    131 161.3  57.5  33992  286.74 0855.47
2009/04/23 08:17:00.7      14     22    125     27    127  32.5  88.5  33992  286.74 0855.47
2009/04/23 08:17:00.8       5     -5    101      8    101 135.0  90.0  33990  286.71 0855.47
2009/04/23 08:17:00.9      -3   -102    126    103    162 181.8  56.6  33994  286.76 0855.47
2009/04/23 08:17:01.0      -7    -89    117     90    147 184.9  58.5  33994  286.78 0855.47
2009/04/23 08:17:01.1      11    -60     52     62     80 169.3  44.8  33990  286.71 0855.47
2009/04/23 08:17:01.2      79     29     85     85    120  69.6  50.1  33992  286.73 0855.47
2009/04/23 08:17:01.3      24     20    127     32    130  50.5  86.4  33994  286.78 0855.47
2009/04/23 08:17:01.4      -7    -97    133     98    165 184.5  60.3  33992  286.73 0855.47
2009/04/23 08:17:01.5      24    -54    154     60    165 156.4  77.8  33990  286.69 0855.47
2009/04/23 08:17:01.6      24      0    162     25    163  90.0  90.0  33996  286.79 0855.47
2009/04/23 08:17:01.7      71     26    225     76    237  69.2  81.0  33992  286.74 0855.47
2009/04/23 08:17:01.8     -21    -23    117     32    121 223.2  84.9  33992  286.73 0855.47
2009/04/23 08:17:01.9      -6      5    128      8    128 309.5  90.0  33994  286.76 0855.47
2009/04/23 08:17:02.0      57     23    161     62    172  67.4  78.4  33992  286.74 0855.47
2009/04/23 08:17:02.1     132     95    195    163    254  54.3  56.1  33994  286.78 0855.47
2009/04/23 08:17:02.2     -28     59    137     66    152 334.6  72.8  33994  286.78 0855.47
2009/04/23 08:17:02.3     -44    -40    155     60    166 227.8  78.2  33992  286.74 0855.47
2009/04/23 08:17:02.4     -17    -94    194     96    216 190.7  71.9  33994  286.78 0855.47
2009/04/23 08:17:02.5      -7    -91    191     92    212 184.5  72.8  33996  286.79 0855.48
2009/04/23 08:17:02.6      38   -116    131    123    179 161.5  52.0  33992  286.74 0855.48
2009/04/23 08:17:02.7      79   -128    107    151    185 148.4  38.8  33992  286.73 0855.48
2009/04/23 08:17:02.8      69   -147    129    163    207 154.7  42.4  33992  286.74 0855.48
2009/04/23 08:17:02.9     -51      7    131     52    140 278.8  77.1  33994  286.76 0855.48
2009/04/23 08:17:03.0     -58     21    103     62    120 290.0  66.7  33990  286.71 0855.48
2009/04/23 08:17:03.1     -47     74     79     88    118 327.4  46.9  33994  286.76 0855.48
2009/04/23 08:17:03.2     -68     11     49     69     84 279.7  38.6  33994  286.78 0855.48
2009/04/23 08:17:03.3     -95     45    106    106    149 295.4  50.1  33992  286.74 0855.48
2009/04/23 08:17:03.4     -78     66    144    103    177 310.0  60.6  33994  286.76 0855.48
2009/04/23 08:17:03.5     -78     53    105     95    141 304.2  52.7  33992  286.73 0855.48
2009/04/23 08:17:03.6       2     -3     86      4     86 147.5  90.0  33994  286.76 0855.48
2009/04/23 08:17:03.7     105    -87     81    137    159 129.6  33.5  33992  286.74 0855.48
2009/04/23 08:17:03.8       6    -77    109     78    134 175.5  61.1  33994  286.78 0855.48
2009/04/23 08:17:03.9      11   -114    114    115    161 174.2  50.0  33994  286.76 0855.48
2009/04/23 08:17:04.0      65   -114    117    132    176 150.1  46.2  33992  286.74 0855.48
2009/04/23 08:17:04.1     111   -216     88    243    259 152.8  19.9  33988  286.65 0855.48
2009/04/23 08:17:04.2     132   -208    143    247    285 147.5  32.9  33986  286.62 0855.48
2009/04/23 08:17:04.3      96   -284    181    300    350 161.3  34.1  33996  286.80 0855.48
2009/04/23 08:17:04.4     102   -271    139    290    321 159.3  27.3  33990  286.70 0855.48
2009/04/23 08:17:04.5     127   -249    185    280    335 153.0  36.5  33994  286.77 0855.48
2009/04/23 08:17:04.6     153   -244    180    289    340 147.9  35.1  33994  286.77 0855.48
2009/04/23 08:17:04.7     143   -255    165    293    336 150.6  31.9  33986  286.63 0855.48
2009/04/23 08:17:04.8      47   -232    163    237    287 168.5  37.6  33990  286.70 0855.48
2009/04/23 08:17:04.9     110   -271    164    293    335 157.9  31.6  33994  286.75 0855.48
2009/04/23 08:17:05.0       5   -294    172    295    341 179.0  32.9  33988  286.67 0855.48
2009/04/23 08:17:05.1     -46   -273    167    277    323 189.6  34.0  33986  286.63 0855.48
2009/04/23 08:17:05.2     -56   -271    209    277    347 191.8  40.8  33986  286.62 0855.48
2009/04/23 08:17:05.3     -38   -377     96    379    392 185.9  14.3  33992  286.73 0855.48
2009/04/23 08:17:05.4     -18   -345     72    346    354 183.1  11.8  33992  286.73 0855.48
2009/04/23 08:17:05.5     -10   -331     -1    332    333 181.8  -0.3  33994  286.76 0855.48
2009/04/23 08:17:05.6      23   -286     40    288    291 175.3   8.0  33994  286.77 0855.48
2009/04/23 08:17:05.7      44   -287     92    291    306 171.3  17.7  33992  286.74 0855.48
2009/04/23 08:17:05.8      79   -285     97    296    312 164.4  18.1  33992  286.72 0855.48
2009/04/23 08:17:05.9      81   -370     74    379    387 167.6  11.1  33990  286.71 0855.48
2009/04/23 08:17:06.0      18   -288    124    289    314 176.4  24.8  33994  286.75 0855.48
2009/04/23 08:17:06.1     -12   -259    126    260    288 182.7  27.4  33992  286.74 0855.48
2009/04/23 08:17:06.2     -39   -197    138    201    243 191.3  37.6  33992  286.74 0855.48
2009/04/23 08:17:06.3       6   -173    150    174    229 178.0  45.1  33994  286.78 0855.48
2009/04/23 08:17:06.4     -19   -295    139    296    327 183.8  27.1  33988  286.65 0855.48
2009/04/23 08:17:06.5     -80   -280    158    292    332 196.1  30.9  33988  286.67 0855.49
2009/04/23 08:17:06.6    -125   -277    148    305    339 204.3  27.8  33990  286.68 0855.49
2009/04/23 08:17:06.7    -137   -241    145    278    313 209.6  29.6  33988  286.67 0855.49
2009/04/23 08:17:06.8    -152   -190     79    244    257 218.7  17.9  33990  286.68 0855.49
2009/04/23 08:17:06.9    -157   -178     71    238    249 221.4  16.8  33988  286.67 0855.49
2009/04/23 08:17:07.0     -94   -126    105    158    189 216.5  36.5  33982  286.57 0855.49
2009/04/23 08:17:07.1      26    -35    110     44    118 143.0  77.1  33992  286.74 0855.49
2009/04/23 08:17:07.2      24    -87     61     91    109 164.4  37.0  33990  286.69 0855.49
2009/04/23 08:17:07.3      66    -91     -7    113    114 144.0  -3.7  33988  286.67 0855.49
2009/04/23 08:17:07.4      28   -110    -66    114    131 165.3 -37.3  33988  286.67 0855.49
2009/04/23 08:17:07.5      54    -91    -42    106    114 149.3 -26.9  33990  286.69 0855.49
2009/04/23 08:17:07.6     102    -78    -35    129    134 127.8 -15.4  33990  286.69 0855.49
2009/04/23 08:17:07.7     122    -44     20    130    132 110.0   9.0  33988  286.67 0855.49
2009/04/23 08:17:07.8      98    -62      5    117    118 122.4   2.9  33990  286.69 0855.49
2009/04/23 08:17:07.9      69    -78     10    105    106 138.6   5.9  33992  286.73 0855.49
2009/04/23 08:17:08.0     130    -18     49    132    140  98.0  21.0  33990  286.69 0855.49
2009/04/23 08:17:08.1      41    -69     58     81     99 149.3  39.5  33990  286.69 0855.49
2009/04/23 08:17:08.3      75    -94     77    121    143 141.3  35.5  33994  286.76 0855.49
2009/04/23 08:17:08.3      61   -153     57    165    175 158.2  19.2  33984  286.61 0855.49
2009/04/23 08:17:08.4      45   -266    115    270    293 170.2  24.3  33990  286.70 0855.49
2009/04/23 08:17:08.5      56   -212    122    220    251 165.1  31.6  33994  286.77 0855.47
2009/04/23 08:17:08.6      39   -231    100    235    255 170.4  24.3  33994  286.75 0855.47
2009/04/23 08:17:08.7      52   -206    116    213    242 165.7  31.0  33994  286.75 0855.47
2009/04/23 08:17:08.8     128   -120    131    176    219 133.3  40.1  33994  286.78 0855.47
2009/04/23 08:17:08.9      80   -177     82    195    211 155.7  24.1  33996  286.79 0855.47
2009/04/23 08:17:09.0      50   -206    127    213    247 166.2  33.7  33998  286.82 0855.47
2009/04/23 08:17:09.1      24   -192    176    194    261 172.7  47.1  33996  286.80 0855.47
2009/04/23 08:17:09.2      18   -154    166    156    227 173.3  52.1  33994  286.78 0855.47
2009/04/23 08:17:09.3      -7   -183    148    184    236 182.2  43.0  33994  286.78 0855.47
2009/04/23 08:17:09.4      43   -216    176    221    282 168.7  42.7  33996  286.79 0855.47
2009/04/23 08:17:09.5      10   -236     95    237    255 177.4  23.1  33994  286.75 0855.47
2009/04/23 08:17:09.6       0   -230    103    231    252 179.8  25.7  33994  286.75 0855.47
2009/04/23 08:17:09.7     -40   -210     73    214    227 190.9  18.9  33992  286.74 0855.47
2009/04/23 08:17:09.8     -54   -228    118    235    262 193.4  28.7  33994  286.77 0855.47
2009/04/23 08:17:09.9     -54   -258    136    264    296 192.0  29.3  33994  286.77 0855.47
2009/04/23 08:17:10.0     -36   -262    122    265    291 188.0  26.4  33998  286.82 0855.47
2009/04/23 08:17:10.1     -88   -231    136    248    282 200.9  31.3  33994  286.77 0855.47
2009/04/23 08:17:10.2     -44   -216    113    221    248 191.5  29.2  33996  286.80 0855.47
2009/04/23 08:17:10.3     -26   -177    101    179    205 188.5  31.9  33998  286.83 0855.47
2009/04/23 08:17:10.4     -22   -163     79    165    182 187.8  27.4  33994  286.76 0855.47
2009/04/23 08:17:10.5      -6    -77    123     78    145 184.5  64.7  33994  286.76 0855.46
2009/04/23 08:17:10.6      -8      9     63     13     64 316.6  89.0  33992  286.74 0855.46
2009/04/23 08:17:10.7      26     41     60     49     77  32.6  56.4  33994  286.78 0855.46
2009/04/23 08:17:10.8      -3    -14     54     15     56 191.6  83.9  33998  286.84 0855.46
2009/04/23 08:17:10.9       0    -26     41     27     49 180.9  63.6  33998  286.84 0855.46
2009/04/23 08:17:11.0     -14     -9     29     17     33 237.6  66.8  33996  286.79 0855.46
2009/04/23 08:17:11.1     -10     32     57     34     66 341.3  65.7  33992  286.74 0855.46
2009/04/23 08:17:11.2     -20     45     78     50     92 336.4  64.6  33994  286.78 0855.46
2009/04/23 08:17:11.3     -30     19     41     36     54 302.4  53.3  33994  286.78 0855.46
2009/04/23 08:17:11.4     -25    -23     33     35     48 226.9  50.0  33996  286.81 0855.46
2009/04/23 08:17:11.5      -9    -38     45     40     60 193.4  53.3  34000  286.88 0855.46
2009/04/23 08:17:11.6      -7    -46     44     47     64 189.8  48.0  33996  286.81 0855.46
2009/04/23 08:17:11.7      13    -39     33     42     53 161.5  43.7  34002  286.91 0855.46
2009/04/23 08:17:11.8      34      6     42     35     54  78.5  56.3  34004  286.94 0855.46
2009/04/23 08:17:11.9      43      2     28     44     52  86.5  35.5  34012  287.06 0855.46
2009/04/23 08:17:12.0      27      5     31     28     41  78.5  53.3  34014  287.10 0855.46
2009/04/23 08:17:12.1      31     31     35     45     57  45.0  42.7  34012  287.08 0855.46
2009/04/23 08:17:12.2      66     26     29     72     77  68.3  23.0  34014  287.11 0855.46
2009/04/23 08:17:12.3      66      0      3     67     68  90.8   2.8  34016  287.13 0855.46
2009/04/23 08:17:12.4      62      0     -1     63     64  90.0  -1.3  34012  287.06 0855.46
2009/04/23 08:17:12.5      65     31     19     73     76  64.6  15.2  34012  287.06 0855.44
2009/04/23 08:17:12.6      73     58      8     94     95  51.4   4.9  34006  286.96 0855.44
2009/04/23 08:17:12.7      75     53     14     93     95  54.5   9.0  34002  286.89 0855.44
2009/04/23 08:17:12.8      51     67     -8     85     86  37.0  -5.6  34000  286.86 0855.44
2009/04/23 08:17:12.9       9    112    -22    113    116   4.9 -11.3  34002  286.89 0855.44
2009/04/23 08:17:13.0     -31    123     -2    127    128 345.7  -1.2  33996  286.81 0855.44
2009/04/23 08:17:13.1    -107    114     47    157    165 316.8  16.8  33996  286.79 0855.44
2009/04/23 08:17:13.2    -217     20    -36    219    222 275.5  -9.4  33990  286.69 0855.44
2009/04/23 08:17:13.3    -162     12    -76    163    179 274.3 -31.4  33990  286.71 0855.44
2009/04/23 08:17:13.4     -96     96   -191    136    234 315.0 -65.7  33996  286.81 0855.44
2009/04/23 08:17:13.5     -26    -26    -98     37    104 225.0 -83.6  33986  286.64 0855.44
2009/04/23 08:17:13.6     -99     19     16    101    103 281.4   9.5  33988  286.67 0855.44
2009/04/23 08:17:13.7    -171     84     30    191    194 296.4   9.0  33988  286.67 0855.44
2009/04/23 08:17:13.9    -234     89     -9    251    252 290.8  -2.2  33994  286.77 0855.44
2009/04/23 08:17:14.0    -153     62    -15    166    167 292.0  -5.2  33990  286.71 0855.44
2009/04/23 08:17:14.1    -109     59     66    125    141 298.4  29.8  33994  286.76 0855.44
2009/04/23 08:17:14.2    -170    132     98    216    237 308.0  26.2  33992  286.73 0855.44
2009/04/23 08:17:14.3     -97     91    140    134    193 313.1  51.2  33992  286.73 0855.44
2009/04/23 08:17:14.4     -75    -10    125     76    146 262.1  65.7  33996  286.79 0855.44
2009/04/23 08:17:14.5    -241    -48     20    246    247 258.6   4.9  33992  286.72 0855.44
2009/04/23 08:17:14.6    -156    -26     99    159    187 260.3  35.2  33990  286.69 0855.43
2009/04/23 08:17:14.7     -85     96     99    129    162 318.6  41.4  34000  286.86 0855.43
2009/04/23 08:17:14.8    -109     71     81    131    154 303.3  35.5  33998  286.83 0855.43
2009/04/23 08:17:14.9    -148     68     36    164    168 294.8  12.4  33996  286.79 0855.43
2009/04/23 08:17:15.0    -178    -45    -33    184    187 255.8 -10.3  33996  286.81 0855.43
2009/04/23 08:17:15.1    -103    -54    -22    117    120 242.0 -10.9  33998  286.84 0855.43
2009/04/23 08:17:15.2     -10    -35     52     37     63 196.9  60.6  33994  286.78 0855.43
2009/04/23 08:17:15.3       9    -27    105     29    108 161.7  84.4  34000  286.86 0855.43
2009/04/23 08:17:15.4     -17   -127    181    129    222 188.0  61.1  33994  286.78 0855.43
2009/04/23 08:17:15.5     -54   -270    170    276    324 191.3  34.8  33994  286.75 0855.43
2009/04/23 08:17:15.6      -4   -259     86    260    274 180.9  18.4  33992  286.74 0855.43
2009/04/23 08:17:15.7      39   -238    128    242    273 170.7  30.2  33994  286.77 0855.43
2009/04/23 08:17:15.8      25   -228    114    230    256 173.5  28.2  33996  286.80 0855.43
2009/04/23 08:17:15.9      45   -220     81    225    239 168.4  20.7  33994  286.77 0855.43
2009/04/23 08:17:16.0      27   -249      0    251    252 173.8   0.0  33994  286.77 0855.43
2009/04/23 08:17:16.1     -51   -249     44    255    259 191.6  10.0  33994  286.77 0855.43
2009/04/23 08:17:16.2     -30   -244     63    246    255 187.1  14.5  33996  286.80 0855.43
2009/04/23 08:17:16.3     -39   -183     58    188    197 192.3  17.3  33994  286.76 0855.43
2009/04/23 08:17:16.4      10   -247     39    248    252 177.5   9.0  33996  286.79 0855.43
2009/04/23 08:17:16.5      62   -283     24    290    292 167.5   4.9  33996  286.79 0855.43
2009/04/23 08:17:16.6      20   -269     84    270    283 175.6  17.3  33996  286.80 0855.44
2009/04/23 08:17:16.7      33   -306    -12    308    309 173.7  -2.3  33994  286.77 0855.44
2009/04/23 08:17:16.8     -42   -299    -16    303    304 188.1  -3.1  33996  286.80 0855.44
2009/04/23 08:17:16.9      50   -268    -85    273    286 169.3 -17.3  33996  286.80 0855.44
2009/04/23 08:17:17.0      -7   -246    -39    247    251 181.8  -9.0  33996  286.79 0855.44
2009/04/23 08:17:17.1     -39   -246    -22    250    252 189.1  -5.2  33998  286.84 0855.44
2009/04/23 08:17:17.2     -40   -285    -48    288    293 188.1  -9.6  33996  286.80 0855.44
2009/04/23 08:17:17.3      34   -244    -50    247    253 171.9 -11.6  33996  286.80 0855.44
2009/04/23 08:17:17.4      17   -338    -13    339    340 177.1  -2.2  34000  286.86 0855.44
2009/04/23 08:17:17.5      42   -370     24    373    374 173.5   3.7  33996  286.81 0855.44
2009/04/23 08:17:17.6      25   -342     39    343    346 175.7   6.5  33998  286.83 0855.44
2009/04/23 08:17:17.7       4   -326     89    327    340 179.2  15.3  33996  286.81 0855.44
2009/04/23 08:17:17.8      39   -324    101    327    343 173.1  17.3  33996  286.81 0855.44
2009/04/23 08:17:17.9      96   -300    148    316    348 162.2  27.1  33994  286.76 0855.44
2009/04/23 08:17:18.0      47   -301    118    305    327 171.1  22.2  33998  286.82 0855.44
2009/04/23 08:17:18.1      24   -310    146    312    344 175.5  27.1  33996  286.81 0855.44
2009/04/23 08:17:18.2      38   -345    171    348    387 173.7  28.0  33994  286.76 0855.44
2009/04/23 08:17:18.3      15   -343    157    344    378 177.4  26.3  34000  286.85 0855.44
2009/04/23 08:17:18.4      79   -334    146    344    373 166.6  24.5  33996  286.81 0855.44
2009/04/23 08:17:18.5      19   -254     84    255    269 175.5  18.4  33998  286.84 0855.44
2009/04/23 08:17:18.6      34   -225     79    228    242 171.3  19.2  33998  286.84 0855.44
2009/04/23 08:17:18.7     125   -180     10    220    221 145.3   2.8  33996  286.81 0855.44
2009/04/23 08:17:18.8      71   -151     24    167    169 154.8   8.2  33998  286.84 0855.44
2009/04/23 08:17:18.9     107   -240     76    263    274 155.9  16.3  33998  286.84 0855.44
2009/04/23 08:17:19.0     137   -310     82    340    350 156.2  13.6  33994  286.78 0855.44
2009/04/23 08:17:19.1      55   -286    140    292    323 169.1  27.3  33998  286.82 0855.44
2009/04/23 08:17:19.2      25   -261    127    263    292 174.4  27.4  33998  286.82 0855.44
2009/04/23 08:17:19.3       1   -300    130    301    327 179.8  24.8  33998  286.84 0855.44
2009/04/23 08:17:19.4     -43   -317    113    320    339 187.8  20.1  33994  286.78 0855.44
2009/04/23 08:17:19.5     -43   -279     92    283    298 188.9  18.1  33994  286.77 0855.44
2009/04/23 08:17:19.6     -81   -299     86    310    322 195.2  15.6  33994  286.75 0855.45
2009/04/23 08:17:19.7    -116   -290     42    313    316 201.9   7.8  33994  286.77 0855.45
2009/04/23 08:17:19.8    -135   -244     -5    280    281 209.0  -1.2  33998  286.82 0855.45
2009/04/23 08:17:19.9     -98   -182     74    207    219 208.3  20.4  33998  286.83 0855.45
2009/04/23 08:17:20.0     -35   -234     82    237    251 188.7  19.2  33998  286.82 0855.45
2009/04/23 08:17:20.1      58   -217     61    225    234 164.9  15.3  33998  286.83 0855.45
2009/04/23 08:17:20.2      26   -347     94    348    361 175.7  15.1  34000  286.85 0855.45
2009/04/23 08:17:20.3     -25   -325     64    327    334 184.5  11.1  34002  286.90 0855.45
2009/04/23 08:17:20.4     -16   -275      0    276    277 183.5   0.0  33998  286.82 0855.45
2009/04/23 08:17:20.5     -70   -262    -10    272    273 195.1  -2.2  33998  286.84 0855.45
2009/04/23 08:17:20.6     -75   -248     46    260    265 196.9  10.1  33998  286.84 0855.45
2009/04/23 08:17:20.7     -41   -275     44    279    283 188.5   9.0  33998  286.82 0855.45
2009/04/23 08:17:20.8      -6   -313    101    314    331 181.1  17.9  33998  286.82 0855.45
2009/04/23 08:17:20.9     -41   -263     36    267    270 188.9   7.8  34000  286.87 0855.45
2009/04/23 08:17:21.0    -124   -251     34    280    283 206.3   7.1  33994  286.75 0855.45
2009/04/23 08:17:21.1    -135   -271     59    303    309 206.5  11.1  33998  286.84 0855.45
2009/04/23 08:17:21.2    -245   -280     18    373    374 221.2   2.8  34000  286.85 0855.45
2009/04/23 08:17:21.3    -210   -353     -6    411    412 210.8  -0.9  33998  286.84 0855.45
2009/04/23 08:17:21.4    -251   -253   -121    357    376 224.8 -23.6  34002  286.90 0855.45
2009/04/23 08:17:21.5    -279   -148   -162    316    355 242.0 -33.7  33998  286.83 0855.45
2009/04/23 08:17:21.6    -317   -229   -142    392    416 234.1 -25.2  33996  286.81 0855.46
2009/04/23 08:17:21.7    -240   -211   -113    320    340 228.7 -19.6  34000  286.85 0855.46
2009/04/23 08:17:21.8    -217   -319   -141    387    411 214.3 -25.4  33994  286.76 0855.46
2009/04/23 08:17:21.9    -208   -312   -169    376    412 213.7 -30.3  33996  286.81 0855.46
2009/04/23 08:17:22.0    -186   -178    -91    258    274 226.2 -19.4  33998  286.84 0855.46
2009/04/23 08:17:22.1     -97   -130    -52    163    171 216.7 -23.0  33994  286.78 0855.46
2009/04/23 08:17:22.2    -104   -119    -66    159    172 221.0 -28.2  33996  286.81 0855.46
2009/04/23 08:17:22.3    -102   -107    -53    148    158 223.7 -19.7  33996  286.81 0855.46
2009/04/23 08:17:22.4     -58   -175    -44    185    191 198.3 -13.4  33998  286.83 0855.46
2009/04/23 08:17:22.5       8   -139    -49    140    149 176.4 -19.6  33994  286.78 0855.46
2009/04/23 08:17:22.6     -88    -89      9    126    127 224.5   4.4  33994  286.78 0855.46
2009/04/23 08:17:22.7    -144    -59    -51    156    165 247.4 -18.3  33994  286.76 0855.46
2009/04/23 08:17:22.8    -148    -73    -45    166    173 243.8 -15.2  33992  286.74 0855.46
2009/04/23 08:17:22.9     -94   -130    -83    161    181 216.0 -33.9  33994  286.76 0855.46
2009/04/23 08:17:23.0    -185   -173   -135    254    287 226.9 -34.6  33996  286.80 0855.46
2009/04/23 08:17:23.1    -237   -306   -232    388    452 217.7 -38.0  33998  286.84 0855.46
2009/04/23 08:17:23.2     -62   -346   -263    352    439 190.3 -45.0  34002  286.89 0855.46
2009/04/23 08:17:23.3     136   -315   -146    344    373 156.7 -28.9  33996  286.81 0855.46
2009/04/23 08:17:23.4     192   -300    -18    357    358 147.4  -3.0  33986  286.64 0855.46
2009/04/23 08:17:23.5     -85   -270     21    284    285 197.4   4.2  33996  286.80 0855.46
2009/04/23 08:17:23.6    -141   -246   -122    284    309 209.9 -29.5  33994  286.75 0855.47
2009/04/23 08:17:23.7    -276   -182    -18    331    332 236.5  -3.2  33994  286.75 0855.47
2009/04/23 08:17:23.8    -238   -144    -30    279    281 238.7  -6.2  33998  286.84 0855.47
2009/04/23 08:17:23.9    -189   -128    -39    229    233 235.8  -9.8  33998  286.84 0855.47
2009/04/23 08:17:24.0    -144    -93    -25    172    174 236.9  -8.6  33996  286.79 0855.47
2009/04/23 08:17:24.1     -98    -66      0    119    120 236.3  -0.3  33998  286.83 0855.47
2009/04/23 08:17:24.2    -109   -171    -76    203    216 212.5 -25.9  34000  286.88 0855.47
2009/04/23 08:17:24.3    -127   -210    -45    246    251 211.2 -10.5  33994  286.77 0855.47
2009/04/23 08:17:24.4     -70    -75     43    103    111 223.2  23.6  33998  286.83 0855.47
2009/04/23 08:17:24.5    -113   -164     32    200    203 214.7   9.3  33994  286.76 0855.47
2009/04/23 08:17:24.6    -184   -165     50    248    254 228.2  11.6  33996  286.80 0855.47
2009/04/23 08:17:24.7    -270    -45   -111    274    295 260.5 -27.5  33998  286.82 0855.47
2009/04/23 08:17:24.8    -269   -167    -94    317    331 238.2 -16.6  33998  286.82 0855.47
2009/04/23 08:17:24.9    -221   -102    -43    244    248 245.2 -10.1  34000  286.85 0855.47
2009/04/23 08:17:25.0    -172   -125    -62    213    222 234.0 -16.4  33996  286.79 0855.47
2009/04/23 08:17:25.1     -40   -136    -53    142    151 196.5 -25.4  33996  286.81 0855.47
2009/04/23 08:17:25.2     -18   -187    -53    188    195 185.6 -20.7  33996  286.79 0855.47
2009/04/23 08:17:25.3     -45   -189     41    195    200 193.4  12.0  33992  286.74 0855.47
2009/04/23 08:17:25.4     -77   -189    -24    205    207 202.1  -6.7  33998  286.83 0855.47
2009/04/23 08:17:25.5    -136   -128    -40    188    193 226.7 -12.2  33998  286.83 0855.47
2009/04/23 08:17:25.6     -95   -194    -67    217    227 206.1 -22.1  33998  286.84 0855.48
2009/04/23 08:17:25.7      59   -268    -47    275    280 167.5  -9.8  33992  286.72 0855.48
2009/04/23 08:17:25.8       8   -177     96    178    202 177.3  31.0  33998  286.83 0855.48
2009/04/23 08:17:25.9      43   -252     36    256    259 170.3   8.0  33998  286.82 0855.48
2009/04/23 08:17:26.0      32   -233    -27    236    238 172.0  -6.7  33996  286.79 0855.48
2009/04/23 08:17:26.1      52   -285    -16    290    291 169.5  -3.2  33998  286.82 0855.48
2009/04/23 08:17:26.2     122   -239    -54    269    275 153.0 -11.5  33998  286.84 0855.48
2009/04/23 08:17:26.3     220   -194    -11    294    295 131.3  -2.2  33998  286.82 0855.48
2009/04/23 08:17:26.4     217   -132     21    255    257 121.3   4.9  33998  286.84 0855.48
2009/04/23 08:17:26.5     162   -121     76    203    216 126.9  21.5  33996  286.79 0855.48
2009/04/23 08:17:26.6     262   -115     45    287    291 113.7   9.0  33998  286.84 0855.48
2009/04/23 08:17:26.7     243   -115     73    269    279 115.4  15.3  33998  286.82 0855.48
2009/04/23 08:17:26.8     205    -96    102    227    248 115.2  26.2  33996  286.79 0855.48
2009/04/23 08:17:26.9     165    -58    110    176    207 109.5  35.5  33998  286.83 0855.48
2009/04/23 08:17:27.0     152    -84    117    174    209 119.1  37.3  33998  286.84 0855.48
2009/04/23 08:17:27.1     121    -74    123    142    187 121.5  45.4  33998  286.83 0855.48
2009/04/23 08:17:27.2      54    -81    120     98    154 146.2  56.4  34000  286.86 0855.48
2009/04/23 08:17:27.3     100   -165    133    194    235 148.8  37.6  33996  286.81 0855.48
2009/04/23 08:17:27.4     186   -110    141    217    258 120.7  36.0  33998  286.82 0855.48
2009/04/23 08:17:27.5     198   -130    156    237    283 123.3  36.5  33998  286.84 0855.48
2009/04/23 08:17:27.6      88   -108    172    140    221 140.8  56.4  33998  286.83 0855.46
2009/04/23 08:17:27.7      69    -90    128    114    171 142.2  53.7  33996  286.81 0855.46
2009/04/23 08:17:27.8      63    -87    119    108    160 144.0  53.3  33996  286.81 0855.46
2009/04/23 08:17:27.9     -12   -171    143    172    223 184.0  43.8  33996  286.79 0855.46
2009/04/23 08:17:28.0      -6   -192    196    193    275 182.0  50.2  33994  286.77 0855.46
2009/04/23 08:17:28.1     -29   -175    139    178    225 189.6  42.0  33992  286.74 0855.46
2009/04/23 08:17:28.2      -9   -137    153    138    206 184.0  53.5  33998  286.84 0855.46
2009/04/23 08:17:28.3       0   -139    133    140    193 180.4  48.5  33998  286.84 0855.46
2009/04/23 08:17:28.4      -7   -152    154    153    217 182.7  50.1  34000  286.86 0855.46
2009/04/23 08:17:28.5     -34   -166    131    170    214 191.6  41.6  33998  286.84 0855.46
2009/04/23 08:17:28.6      11   -149    134    150    201 175.6  46.4  33996  286.81 0855.46
2009/04/23 08:17:28.7     -55   -194     88    202    220 196.0  25.1  33998  286.83 0855.46
2009/04/23 08:17:28.8     -29   -185     99    188    212 189.1  30.1  33998  286.83 0855.46
2009/04/23 08:17:28.9     -14   -157    121    158    199 185.3  41.4  33998  286.83 0855.46
2009/04/23 08:17:29.0       7   -212    136    213    252 178.0  35.6  33998  286.82 0855.46
2009/04/23 08:17:29.1     -10   -222    164    223    276 182.7  39.7  34000  286.87 0855.46
2009/04/23 08:17:29.2       2   -186    179    187    258 179.1  49.0  34002  286.90 0855.46
2009/04/23 08:17:29.3      10   -214    160    215    268 177.1  40.4  34000  286.85 0855.46
2009/04/23 08:17:29.4      16   -220    191    221    292 175.6  45.6  34000  286.85 0855.46
2009/04/23 08:17:29.5      14   -200    142    201    246 176.0  38.6  33996  286.79 0855.46
2009/04/23 08:17:29.6      16   -211    162    212    266 175.6  41.4  34000  286.85 0855.47
2009/04/23 08:17:29.7      18   -211    168    212    270 174.9  42.7  33998  286.84 0855.47
2009/04/23 08:17:29.8       0   -244    158    245    291 180.1  35.6  33998  286.82 0855.47
2009/04/23 08:17:29.9       0   -252    146    253    292 180.0  32.7  34000  286.87 0855.47
2009/04/23 08:17:30.0     -11   -245    155    246    290 182.7  35.5  33998  286.82 0855.47
2009/04/23 08:17:30.1     -30   -244    141    246    283 187.1  32.4  33998  286.82 0855.47
2009/04/23 08:17:30.2     -35   -197    170    201    263 190.2  44.5  34000  286.87 0855.47
2009/04/23 08:17:30.3     -94   -272     54    289    294 199.2  10.6  34000  286.85 0855.47
2009/04/23 08:17:30.4     -49   -289    149    294    329 189.6  28.9  33998  286.84 0855.47
2009/04/23 08:17:30.5     -66   -277    106    285    304 193.4  21.0  34000  286.87 0855.47
2009/04/23 08:17:30.6    -103   -246    138    267    300 202.7  29.3  33998  286.84 0855.47
2009/04/23 08:17:30.7     -65   -198    124    209    243 198.3  33.5  34000  286.88 0855.47
2009/04/23 08:17:30.8     -47   -178     75    185    199 194.9  23.4  33996  286.79 0855.47
2009/04/23 08:17:30.9      13   -108    148    109    183 172.9  60.5  33998  286.84 0855.47
2009/04/23 08:17:31.0     -25    -51    106     57    120 206.3  69.3  33998  286.84 0855.47
2009/04/23 08:17:31.1     -40   -198    132    202    241 191.5  36.3  33998  286.83 0855.47
2009/04/23 08:17:31.2     -11   -178    147    179    231 183.8  43.7  33994  286.78 0855.47
2009/04/23 08:17:31.3      -3   -209    136    210    250 181.0  36.0  33998  286.84 0855.47
2009/04/23 08:17:31.4      67   -225    101    235    255 163.3  24.9  33998  286.84 0855.47
2009/04/23 08:17:31.5      55   -213     78    221    235 165.5  19.6  33998  286.84 0855.47
2009/04/23 08:17:31.6      74   -177    124    192    228 157.3  35.6  33996  286.81 0855.45
2009/04/23 08:17:31.7      84   -156    107    178    207 151.7  33.7  33996  286.81 0855.45
2009/04/23 08:17:31.8      79   -142    137    163    212 151.0  44.1  33998  286.83 0855.45
2009/04/23 08:17:31.9      45    -91    125    102    161 153.7  56.6  33998  286.84 0855.45
2009/04/23 08:17:32.0      52    -53     79     75    108 135.8  51.6  33998  286.84 0855.45
2009/04/23 08:17:32.1     117   -117    107    166    197 134.9  35.7  33998  286.83 0855.45
2009/04/23 08:17:32.2     190   -162     96    250    267 130.4  22.1  33998  286.84 0855.45
2009/04/23 08:17:32.3     111   -102    101    151    181 132.7  36.7  33994  286.78 0855.45
2009/04/23 08:17:32.4     102    -84    127    133    183 129.5  49.0  33998  286.83 0855.45
2009/04/23 08:17:32.5     127    -95     77    159    176 126.9  27.4  34000  286.86 0855.45
2009/04/23 08:17:32.6     125    -91     60    155    166 126.0  22.0  34000  286.88 0855.45
2009/04/23 08:17:32.7     152   -101     83    183    200 123.7  25.9  34000  286.86 0855.45
2009/04/23 08:17:32.8     125   -120     93    174    197 134.0  30.6  33998  286.83 0855.45
2009/04/23 08:17:32.9     137    -61     92    151    176 114.0  34.2  33998  286.83 0855.45
2009/04/23 08:17:33.0     114   -101    101    153    183 131.8  36.3  34000  286.88 0855.45
2009/04/23 08:17:33.1     142    -84     73    165    180 120.6  25.3  34000  286.88 0855.45
2009/04/23 08:17:33.2     127    -46     37    136    141 110.0  15.3  34002  286.89 0855.45
2009/04/23 08:17:33.3      78    -87     12    118    119 138.1   5.9  34000  286.88 0855.45
2009/04/23 08:17:33.4      19   -137     32    139    143 171.9  13.2  34000  286.86 0855.45
2009/04/23 08:17:33.5      -4   -149     82    150    170 181.8  31.0  34000  286.86 0855.45
2009/04/23 08:17:33.6       0   -123    112    124    167 180.4  46.9  34002  286.89 0855.44
2009/04/23 08:17:33.7      13   -121     71    122    141 173.8  32.9  34002  286.91 0855.44
2009/04/23 08:17:33.8      28    -55     40     62     73 152.8  35.6  34000  286.88 0855.44
2009/04/23 08:17:33.9      28    -35     94     46    104 141.3  72.4  33996  286.79 0855.44
2009/04/23 08:17:34.0     132      0    104    133    168  90.4  42.2  34002  286.89 0855.44
2009/04/23 08:17:34.1     169    -12     48    170    177  94.3  15.8  33998  286.84 0855.44
2009/04/23 08:17:34.2     170     -4     73    171    185  91.5  24.6  33998  286.83 0855.44
2009/04/23 08:17:34.3     146     -6     61    147    159  92.6  23.8  34000  286.86 0855.44
2009/04/23 08:17:34.4     121    -43     39    129    135 109.9  16.8  34000  286.86 0855.44
2009/04/23 08:17:34.5     113     -3     42    114    121  91.7  21.0  33998  286.84 0855.44
2009/04/23 08:17:34.6     103     47     41    114    121  65.6  20.9  33996  286.81 0855.44
2009/04/23 08:17:34.7     155     31     72    159    174  78.5  26.2  33998  286.83 0855.44
2009/04/23 08:17:34.8     109      3     44    110    118  88.3  23.0  33996  286.81 0855.44
2009/04/23 08:17:34.9       5    -42     73     43     84 172.0  66.2  34002  286.89 0855.44
2009/04/23 08:17:35.0     -17     -7     48     19     51 248.3  78.2  34000  286.88 0855.44
2009/04/23 08:17:35.1     -12     37     43     39     58 341.7  52.2  34000  286.88 0855.44
2009/04/23 08:17:35.2      -2     17     51     18     54 352.0  81.2  34002  286.89 0855.44
2009/04/23 08:17:35.3     -29    -33     65     45     79 221.4  62.1  34000  286.86 0855.44
2009/04/23 08:17:35.4     -27    -43     57     51     76 212.5  52.2  33998  286.84 0855.44
2009/04/23 08:17:35.5     -39    -54     44     67     80 216.1  36.5  34000  286.86 0855.44
2009/04/23 08:17:35.6     -54    -51     77     75    107 226.8  50.1  33998  286.83 0855.44
2009/04/23 08:17:35.7     -44    -41     50     61     78 226.9  43.7  33998  286.83 0855.44
2009/04/23 08:17:35.8     -76    -25     94     81    124 251.8  54.3  33998  286.83 0855.44
2009/04/23 08:17:35.9     -84     61    102    104    145 306.0  50.0  33994  286.76 0855.44
2009/04/23 08:17:36.0    -100     36     70    107    127 290.0  36.0  33996  286.79 0855.44
2009/04/23 08:17:36.1     -75     34     54     83     99 294.4  36.0  33996  286.81 0855.44
2009/04/23 08:17:36.2     -44     45     85     64    106 315.9  59.4  33996  286.79 0855.44
2009/04/23 08:17:36.3       5     64     78     65    101   4.5  56.3  33996  286.79 0855.44
2009/04/23 08:17:36.4      41     70      2     82     83  30.3   1.8  33998  286.83 0855.44
2009/04/23 08:17:36.5      -4     63    -26     64     69 355.5 -27.4  33998  286.83 0855.44
2009/04/23 08:17:36.6     -93     53    -10    108    109 299.8  -5.6  33992  286.73 0855.44
2009/04/23 08:17:36.7    -115    103     33    155    159 311.8  12.2  33988  286.67 0855.44
2009/04/23 08:17:36.8    -123    102     90    160    183 309.6  31.9  33988  286.66 0855.44
2009/04/23 08:17:36.9    -108    119     89    161    183 317.7  31.4  33984  286.61 0855.44
2009/04/23 08:17:37.0    -130    130     73    185    198 315.0  22.8  33984  286.61 0855.44
2009/04/23 08:17:37.1    -112    129     46    171    178 319.0  15.3  34018  287.18 0855.44
2009/04/23 08:17:37.2     -45    113     42    122    130 338.2  19.2  34048  287.67 0855.44
2009/04/23 08:17:37.3     -34     73     34     81     87 335.1  23.6  34030  287.37 0855.44
2009/04/23 08:17:37.4      63     40     59     75     95  57.6  42.7  34012  287.06 0855.44
2009/04/23 08:17:37.5     128    127    120    181    217  45.1  36.7  34018  287.16 0855.44
2009/04/23 08:17:37.6     129    120    134    177    222  46.9  40.7  34022  287.23 0855.44
2009/04/23 08:17:37.7     136    144    104    199    224  43.4  29.8  34018  287.18 0855.44
2009/04/23 08:17:37.8     130    154     70    202    214  40.3  19.2  34018  287.16 0855.44
2009/04/23 08:17:37.9     223    176    -51    285    290  51.8 -10.3  34036  287.48 0855.44
2009/04/23 08:17:38.0     253    186     85    315    327  53.6  15.1  34106  288.65 0855.44
2009/04/23 08:17:38.1     294    163     66    337    344  61.0  11.1  34058  287.83 0855.44
2009/04/23 08:17:38.2     277    155     89    318    331  60.8  15.7  34126  288.98 0855.44
2009/04/23 08:17:38.3     298    196     37    357    359  56.6   6.0  34098  288.52 0855.44
2009/04/23 08:17:38.4     342    188    131    391    413  61.1  18.6  34104  288.61 0855.44
2009/04/23 08:17:38.5     309    163    203    350    404  62.1  32.8  34162  289.59 0855.44
2009/04/23 08:17:38.6     381    162    149    415    440  66.9  20.7  34134  289.12 0855.44
2009/04/23 08:17:38.7     404     97    190    416    457  76.5  26.3  34112  288.75 0855.44
2009/04/23 08:17:38.8     406    131     24    427    428  72.1   3.3  34000  286.87 0855.44
2009/04/23 08:17:38.9     358     69      0    365    366  79.0   0.0  34004  286.93 0855.44
2009/04/23 08:17:39.0     159    136    162    210    265  49.6  41.7  34004  286.92 0855.44
2009/04/23 08:17:39.1      75    241    230    253    341  17.4  47.1  34034  287.43 0855.44
2009/04/23 08:17:39.2      59    120    132    134    188  26.3  50.0  34024  287.27 0855.44
2009/04/23 08:17:39.3     106    192    137    220    259  29.0  35.0  34022  287.22 0855.44
2009/04/23 08:17:39.4     262    306    100    404    417  40.6  13.9  34018  287.18 0855.44
2009/04/23 08:17:39.5     201    278    111    344    362  35.8  17.9  34028  287.35 0855.44
2009/04/23 08:17:39.6     117    273    102    298    316  23.2  18.9  34020  287.21 0855.44
2009/04/23 08:17:39.7      30    277     76    279    290   6.3  15.3  34038  287.51 0855.44
2009/04/23 08:17:39.8      61    301     94    308    323  11.6  17.1  34036  287.46 0855.44
2009/04/23 08:17:39.9     -93    302     -9    317    318 342.8  -1.8  34094  288.44 0855.44
2009/04/23 08:17:40.0     -34    218   -108    221    245 351.1 -32.2  34084  288.29 0855.44
2009/04/23 08:17:40.1     -91    269   -107    285    304 341.3 -25.9  34020  287.21 0855.44
2009/04/23 08:17:40.2    -102    226    -91    249    265 335.7 -25.4  34010  287.02 0855.44
2009/04/23 08:17:40.3     -89    225   -174    243    298 338.4 -43.9  33996  286.79 0855.44
2009/04/23 08:17:40.4      35    315   -150    318    351   6.5 -31.5  34004  286.93 0855.44
2009/04/23 08:17:40.5      62    362   -163    368    402   9.8 -30.0  34000  286.88 0855.44
2009/04/23 08:17:40.6     -28    442   -148    443    467 356.3 -23.6  34050  287.70 0855.43
2009/04/23 08:17:40.7     -73    452   -131    458    477 350.8 -16.0  34032  287.41 0855.43
2009/04/23 08:17:40.8    -147    246   -206    287    353 329.2 -43.7  34042  287.56 0855.43
2009/04/23 08:17:40.9     -54    135    -94    146    173 338.1 -40.0  34044  287.60 0855.43
2009/04/23 08:17:41.0     -25    114    -45    117    125 347.5 -26.4  34040  287.54 0855.43
2009/04/23 08:17:41.1      14     89   -108     91    141   8.9 -60.2  34044  287.60 0855.43
2009/04/23 08:17:41.2     108     53    -39    121    128  63.8 -18.1  34014  287.10 0855.43
2009/04/23 08:17:41.3      74     -9    -37     75     83  97.0 -32.6  34020  287.21 0855.43
2009/04/23 08:17:41.4      17    -56    -20     59     62 163.1 -23.6  34032  287.42 0855.43
2009/04/23 08:17:41.5      33    -43    -14     55     57 143.0 -14.5  34030  287.37 0855.43
2009/04/23 08:17:41.7      25    -19    -16     32     35 127.8 -31.7  34036  287.49 0855.43
2009/04/23 08:17:41.8      28    -15      5     32     33 118.9   9.0  34044  287.62 0855.43
2009/04/23 08:17:41.9      19    -31     11     37     39 147.4  17.3  34048  287.69 0855.43
2009/04/23 08:17:42.0     -27    -81    -30     86     92 198.7 -19.1  34042  287.57 0855.43
2009/04/23 08:17:42.1      -1    -98    -50     99    110 180.9 -32.6  34044  287.62 0855.43
2009/04/23 08:17:42.2      38   -106     12    113    114 160.0   6.5  34042  287.59 0855.43
2009/04/23 08:17:42.3      69    -43    -58     82    100 122.4 -43.5  34044  287.62 0855.43
2009/04/23 08:17:42.4     167    -51    -77    175    191 107.1 -29.7  34042  287.57 0855.43
2009/04/23 08:17:42.5     144    -71    -47    161    167 116.2 -21.2  34042  287.59 0855.43
2009/04/23 08:17:42.6     118   -149    -31    191    194 141.7  -9.4  34040  287.54 0855.43
2009/04/23 08:17:42.7      69   -242    -21    252    253 164.0  -4.9  34034  287.43 0855.42
2009/04/23 08:17:42.8      66   -201    -74    212    225 161.7 -19.4  34032  287.42 0855.42
2009/04/23 08:17:42.9      74   -207    -75    221    233 160.2 -23.3  34040  287.54 0855.42
2009/04/23 08:17:43.0     127   -199   -123    237    267 147.5 -33.9  34022  287.24 0855.42
2009/04/23 08:17:43.1     127    -34    -51    132    141 105.1 -26.9  34010  287.03 0855.42
2009/04/23 08:17:43.2     141     10    -33    142    146  85.6 -13.4  34012  287.06 0855.42
2009/04/23 08:17:43.3     171    -13    -77    172    188  94.4 -30.1  34008  287.01 0855.42
2009/04/23 08:17:43.4      85    -28    -94     90    130 108.6 -55.6  34010  287.05 0855.42
2009/04/23 08:17:43.5     119    -30    -66    123    139 104.2 -35.2  34014  287.11 0855.42
2009/04/23 08:17:43.6     224     53    -32    231    234  76.5  -8.0  34006  286.98 0855.42
2009/04/23 08:17:43.7     229     31    -29    232    234  82.1  -7.3  34006  286.95 0855.42
2009/04/23 08:17:43.8     284     -1    -94    285    301  90.4 -18.3  34016  287.14 0855.42
2009/04/23 08:17:43.9     233    114    -87    260    275  63.8 -18.6  34020  287.19 0855.42
2009/04/23 08:17:44.0     148    160    -81    219    233  42.8 -25.4  34022  287.25 0855.42
2009/04/23 08:17:44.1     118    185   -122    220    251  32.5 -36.0  34028  287.34 0855.42
2009/04/23 08:17:44.2     147    150    -56    211    219  44.3 -15.0  34026  287.30 0855.42
2009/04/23 08:17:44.3     151    167    -41    226    230  42.1 -10.5  34022  287.25 0855.42
2009/04/23 08:17:44.4     131    131    -33    186    189  45.0 -10.1  34020  287.21 0855.42
2009/04/23 08:17:44.5     144     57    -44    155    162  68.3 -16.0  34022  287.23 0855.42
2009/04/23 08:17:44.6     111     23    -32    114    118  78.1 -20.2  34024  287.27 0855.42
2009/04/23 08:17:44.7     137     36    -23    142    144  75.0  -9.3  34022  287.23 0855.41
2009/04/23 08:17:44.8     163     44    -20    169    171  74.9  -6.9  34022  287.25 0855.41
2009/04/23 08:17:44.9     192     35    -25    196    198  79.6  -7.3  34018  287.18 0855.41
2009/04/23 08:17:45.0     183     63     16    194    195  70.9   5.0  34012  287.06 0855.41
2009/04/23 08:17:45.1     208     45     10    213    214  77.6   2.9  34006  286.96 0855.41
2009/04/23 08:17:45.2     205     92     72    225    237  65.8  17.9  34008  286.99 0855.41
2009/04/23 08:17:45.3     198    118     60    231    239  59.3  14.7  34012  287.06 0855.41
2009/04/23 08:17:45.4     112    136     29    177    180  39.6   9.5  34010  287.05 0855.41
2009/04/23 08:17:45.5      -8    163     86    164    185 356.9  30.1  34012  287.06 0855.41
2009/04/23 08:17:45.6      11    143     74    144    161   4.5  29.3  34010  287.03 0855.41
2009/04/23 08:17:45.7      60    181     41    191    196  18.5  12.2  34012  287.06 0855.41
2009/04/23 08:17:45.8      81    330     80    340    350  13.8  13.2  34030  287.37 0855.41
2009/04/23 08:17:45.9      95    363    -21    376    377  14.7  -3.3  34026  287.30 0855.41
2009/04/23 08:17:46.0      21    431     17    432    433   2.8   2.3  34028  287.33 0855.41
2009/04/23 08:17:46.1      48    518     14    521    522   5.3   1.6  34026  287.32 0855.41
2009/04/23 08:17:46.2     198    467     86    508    516  23.0   9.6  34048  287.68 0855.41
2009/04/23 08:17:46.3     213    448    117    497    511  25.5  13.3  34032  287.41 0855.41
2009/04/23 08:17:46.4     226    463     -5    516    517  26.0  -0.6  34006  286.95 0855.41
2009/04/23 08:17:46.5     186    390     21    433    434  25.5   2.8  34008  287.01 0855.41
2009/04/23 08:17:46.6     155    420      9    448    449  20.3   1.2  33994  286.76 0855.41
2009/04/23 08:17:46.7     -35    465    -15    467    468 355.6  -1.9  34022  287.24 0855.41
2009/04/23 08:17:46.8      -4    307     86    308    320 359.1  15.7  34044  287.61 0855.41
2009/04/23 08:17:46.9      50    483     94    486    496   6.0  11.0  34030  287.37 0855.41
2009/04/23 08:17:47.0     188    411     71    453    459  24.6   9.0  34012  287.06 0855.41
2009/04/23 08:17:47.1     160    291    149    333    364  28.8  25.8  34008  287.00 0855.41
2009/04/23 08:17:47.2     168    262    -34    312    314  32.6  -6.3  34014  287.11 0855.41
2009/04/23 08:17:47.3     244    150    -20    287    288  58.5  -4.1  34016  287.12 0855.41
2009/04/23 08:17:47.4     175    139    -94    224    242  51.6 -28.5  34014  287.09 0855.41
2009/04/23 08:17:47.5     169    270   -113    319    339  32.0 -19.5  34018  287.18 0855.41
2009/04/23 08:17:47.6     209    318   -115    381    398  33.3 -16.8  34022  287.23 0855.41
2009/04/23 08:17:47.7     236    383    -78    451    458  31.7  -9.9  34022  287.24 0855.41
2009/04/23 08:17:47.8     175    383     -2    422    423  24.6  -0.4  34022  287.24 0855.41
2009/04/23 08:17:47.9     252    189    -52    316    321  53.1  -9.3  34040  287.55 0855.41
2009/04/23 08:17:48.0     237    184    -55    301    306  52.2 -10.4  34044  287.61 0855.41
2009/04/23 08:17:48.1     245    263    -25    360    361  42.9  -4.1  34016  287.15 0855.41
2009/04/23 08:17:48.2     279    298     41    409    412  43.1   5.8  34012  287.06 0855.41
2009/04/23 08:17:48.3     127    335    -14    359    360  20.8  -2.3  34020  287.20 0855.41
2009/04/23 08:17:48.4     155    224    -32    273    275  34.7  -6.7  34018  287.16 0855.41
2009/04/23 08:17:48.5     194    393     88    439    448  26.3  11.4  34002  286.89 0855.41
2009/04/23 08:17:48.6     227    263     79    348    358  40.8  12.9  34010  287.02 0855.41
2009/04/23 08:17:48.7     183    247      9    308    309  36.5   1.7  34010  287.02 0855.43
2009/04/23 08:17:48.8     131    346    115    371    389  20.8  17.3  34016  287.15 0855.43
2009/04/23 08:17:48.9     123    281    -36    307    310  23.7  -6.8  34014  287.09 0855.43
2009/04/23 08:17:49.0     160    385    117    417    434  22.6  15.7  34002  286.91 0855.43
2009/04/23 08:17:49.1     163    276    -24    321    322  30.7  -4.4  34016  287.14 0855.43
2009/04/23 08:17:49.2     172    314     26    359    360  28.8   4.2  34006  286.96 0855.43
2009/04/23 08:17:49.3     249    271    -32    369    371  42.6  -5.1  34012  287.08 0855.43
2009/04/23 08:17:49.4     341    232     33    413    415  55.8   4.6  34010  287.04 0855.43
2009/04/23 08:17:49.5     372    221     66    433    438  59.3   8.7  34010  287.03 0855.43
2009/04/23 08:17:49.6     405    186     31    446    448  65.3   4.0  34010  287.03 0855.43
2009/04/23 08:17:49.7     342    233     83    414    423  55.7  11.3  34002  286.91 0855.43
2009/04/23 08:17:49.8     227    201     32    304    306  48.6   6.1  34002  286.89 0855.43
2009/04/23 08:17:49.9     289    216     71    362    369  53.2  11.1  34006  286.98 0855.43
2009/04/23 08:17:50.0     316    212    105    381    396  56.1  15.4  34006  286.96 0855.43
2009/04/23 08:17:50.1     317    279    173    423    457  48.6  23.4  33998  286.84 0855.43
2009/04/23 08:17:50.2     402    299    181    502    534  53.4  19.9  34000  286.88 0855.43
2009/04/23 08:17:50.3     467    184    137    503    522  68.4  15.3  34010  287.02 0855.43
2009/04/23 08:17:50.4     462    210    191    508    542  65.6  21.5  34012  287.08 0855.43
2009/04/23 08:17:50.5     534    242     87    587    594  65.6   8.5  33996  286.79 0855.43
2009/04/23 08:17:50.6     469    183     39    504    506  68.6   4.5  34000  286.88 0855.43
2009/04/23 08:17:50.7     478    209     61    522    526  66.4   6.7  34000  286.86 0855.43
2009/04/23 08:17:50.8     396    260     31    474    476  56.7   3.8  33998  286.82 0855.43
2009/04/23 08:17:50.9     353    246     21    431    432  55.1   2.8  33998  286.82 0855.43
2009/04/23 08:17:51.0     372    229     24    437    438  58.4   3.2  34000  286.87 0855.43
2009/04/23 08:17:51.1     396    234     68    461    467  59.4   8.5  33996  286.81 0855.43
2009/04/23 08:17:51.2     474    232    103    528    539  63.9  11.1  34014  287.10 0855.43
2009/04/23 08:17:51.3     492    259    247    557    609  62.2  25.6  34076  288.15 0855.43
2009/04/23 08:17:51.4     414    219    127    469    487  62.1  15.2  34010  287.05 0855.43
2009/04/23 08:17:51.5     430    231     92    489    498  61.7  10.7  33998  286.83 0855.43
2009/04/23 08:17:51.6     512    194    150    548    569  69.2  15.3  34000  286.88 0855.43
2009/04/23 08:17:51.7     386    208    247    439    503  61.7  31.9  33984  286.60 0855.43
2009/04/23 08:17:51.8     309    278     69    416    422  48.0   9.4  33990  286.70 0855.43
2009/04/23 08:17:51.9     410    333      2    529    530  50.9   0.2  33992  286.74 0855.43
2009/04/23 08:17:52.0     439    338     20    555    556  52.4   2.1  33992  286.74 0855.43
2009/04/23 08:17:52.1     442    260     66    513    518  59.5   7.4  33990  286.70 0855.43
2009/04/23 08:17:52.2     435    276     98    516    526  57.6  10.8  33988  286.66 0855.43
2009/04/23 08:17:52.3     436    292    106    526    537  56.2  11.4  33984  286.59 0855.43
2009/04/23 08:17:52.4     475    323    150    575    595  55.8  14.6  33984  286.58 0855.43
2009/04/23 08:17:52.5     460    258    191    528    562  60.7  19.9  34002  286.91 0855.43
2009/04/23 08:17:52.6     489    194    182    527    558  68.3  19.1  34032  287.40 0855.43
2009/04/23 08:17:52.7     463    274    118    539    552  59.4  12.4  33992  286.72 0855.44
2009/04/23 08:17:52.8     456    224    143    509    529  63.8  15.8  33992  286.72 0855.44
2009/04/23 08:17:52.9     469    221    180    519    550  64.8  19.2  33986  286.64 0855.44
2009/04/23 08:17:53.0     517    240    149    571    591  65.1  14.7  34006  286.95 0855.44
2009/04/23 08:17:53.1     491    277    114    564    576  60.6  11.4  33998  286.82 0855.44
2009/04/23 08:17:53.2     450    345    145    568    587  52.5  14.4  34004  286.92 0855.44
2009/04/23 08:17:53.3     412    354    137    544    561  49.4  14.2  34000  286.86 0855.44
2009/04/23 08:17:53.4     385    246    115    458    473  57.4  14.2  34002  286.90 0855.44
2009/04/23 08:17:53.5     270    370    171    459    489  36.1  21.5  33992  286.73 0855.44
2009/04/23 08:17:53.6     331    407     91    525    534  39.1   9.9  33998  286.84 0855.44
2009/04/23 08:17:53.7     353    310    141    470    491  48.7  16.7  33998  286.83 0855.44
2009/04/23 08:17:53.8     349    216    206    411    459  58.2  28.6  33998  286.84 0855.44
2009/04/23 08:17:53.9     349    185    203    396    445  62.0  29.3  34006  286.96 0855.44
2009/04/23 08:17:54.0     442    184    190    479    515  67.4  22.9  34010  287.05 0855.44
2009/04/23 08:17:54.1     468    222    111    518    531  64.6  12.2  34054  287.79 0855.44
2009/04/23 08:17:54.2     448    256    101    517    527  60.2  11.1  34000  286.86 0855.44
2009/04/23 08:17:54.3     433    252    137    502    521  59.8  15.3  34010  287.04 0855.44
2009/04/23 08:17:54.4     555    217    146    597    615  68.6  13.8  34072  288.09 0855.44
2009/04/23 08:17:54.5     408    259    127    484    501  57.5  14.7  34032  287.39 0855.44
2009/04/23 08:17:54.6     287    319     92    430    440  41.9  12.2  34000  286.86 0855.44
2009/04/23 08:17:54.7     224    270    137    351    376  39.7  22.7  34006  286.95 0855.46
2009/04/23 08:17:54.8     237    203     32    313    315  49.5   6.0  34040  287.53 0855.46
2009/04/23 08:17:54.9     381     50     83    385    395  82.4  12.3  34032  287.42 0855.46
2009/04/23 08:17:55.0      88    213     66    231    241  22.5  16.0  34050  287.71 0855.46
2009/04/23 08:17:55.1     172    269     22    320    321  32.6   4.0  34016  287.12 0855.46
2009/04/23 08:17:55.2     272    211     10    345    346  52.2   1.7  34000  286.85 0855.46
2009/04/23 08:17:55.3     258    164     43    306    310  57.5   8.0  34004  286.94 0855.46
2009/04/23 08:17:55.4     367    130     61    390    395  70.4   9.0  34010  287.05 0855.46
2009/04/23 08:17:55.5     329     93     53    343    348  74.1   8.8  34004  286.93 0855.46
2009/04/23 08:17:55.6     286     62    109    293    312  77.6  21.4  34012  287.06 0855.46
2009/04/23 08:17:55.7     201     90     11    221    222  65.8   2.9  33998  286.83 0855.46
2009/04/23 08:17:55.8     288    135    -94    319    332  64.8 -21.2  34008  287.01 0855.46
2009/04/23 08:17:55.9     285    129    -46    314    318  65.6  -8.4  34000  286.87 0855.46
2009/04/23 08:17:56.0     172    133    -69    218    229  52.3 -17.6  33996  286.81 0855.46
2009/04/23 08:17:56.1      84    165    -50    186    193  27.2 -15.2  33994  286.76 0855.46
2009/04/23 08:17:56.2      65    118    -28    136    140  29.0 -11.9  33998  286.83 0855.46
2009/04/23 08:17:56.3      49    126    -17    136    138  21.4  -7.2  33996  286.79 0855.46
2009/04/23 08:17:56.4       7    110    -18    111    113   3.6  -9.3  33994  286.78 0855.46
2009/04/23 08:17:56.5      -1     85     -1     86     87 359.0  -1.3  33996  286.79 0855.46
2009/04/23 08:17:56.6      21     64     27     68     73  18.3  23.0  33996  286.79 0855.46
2009/04/23 08:17:56.7      49     77     53     92    106  32.5  32.4  33994  286.76 0855.47
2009/04/23 08:17:56.9       7    103     25    104    108   4.4  13.7  33996  286.81 0855.47
2009/04/23 08:17:57.0       3    126      0    127    128   1.8  -0.3  33994  286.78 0855.47
2009/04/23 08:17:57.0     -10    160     37    161    166 356.4  12.9  33996  286.79 0855.47
2009/04/23 08:17:57.1      -1    106     -2    107    108 359.1  -1.3  33996  286.79 0855.47
2009/04/23 08:17:57.2      32    136    -18    140    142  13.4  -7.3  33998  286.84 0855.47
2009/04/23 08:17:57.3     -17    101     57    103    117 350.2  31.4  34004  286.94 0855.47
2009/04/23 08:17:57.4       0    146      2    147    148   0.0   0.8  33996  286.79 0855.47
2009/04/23 08:17:57.5      87    260    -19    275    276  18.5  -4.1  34000  286.87 0855.47
2009/04/23 08:17:57.6     141    221    -14    263    264  32.6  -3.2  34006  286.95 0855.47
2009/04/23 08:17:57.7     108    183     38    213    217  30.5  10.3  34006  286.98 0855.47
2009/04/23 08:17:57.8     141    160     31    214    217  41.5   8.2  34010  287.05 0855.47
2009/04/23 08:17:57.9     152    154     42    217    222  44.5  11.1  34044  287.62 0855.47
2009/04/23 08:17:58.0     171    159     70    234    245  47.1  16.8  34064  287.93 0855.47
2009/04/23 08:17:58.2     123    130     60    180    190  43.4  18.6  34044  287.60 0855.47
2009/04/23 08:17:58.2      77    132    100    154    183  30.3  35.7  34054  287.77 0855.47
2009/04/23 08:17:58.3      96    153     50    181    188  32.3  15.6  34028  287.33 0855.47
2009/04/23 08:17:58.4     113    123     28    168    171  42.5   9.5  34006  286.96 0855.47
2009/04/23 08:17:58.5     123    108     36    165    169  48.7  12.4  33998  286.84 0855.47
2009/04/23 08:17:58.6     139    120     43    184    189  49.1  13.2  34002  286.91 0855.47
2009/04/23 08:17:58.7     143    153     37    210    214  43.0  10.1  34000  286.88 0855.48
2009/04/23 08:17:58.8     178    106     93    208    227  59.1  25.7  34002  286.89 0855.48
2009/04/23 08:17:58.9     107    220     94    245    262  26.1  22.0  34006  286.95 0855.48
2009/04/23 08:17:59.0     124    193     63    230    239  32.7  15.3  34002  286.90 0855.48
2009/04/23 08:17:59.1     122    174     29    213    215  35.0   7.8  34000  286.86 0855.48
2009/04/23 08:17:59.2     124    189      2    227    228  33.4   0.7  34000  286.86 0855.48
2009/04/23 08:17:59.3     119    177     10    214    215  34.1   2.8  34000  286.88 0855.48
2009/04/23 08:17:59.4     117    160     10    199    200  36.1   3.1  34002  286.89 0855.48
2009/04/23 08:17:59.5     104    136    -22    172    174  37.6  -7.3  34010  287.03 0855.48
2009/04/23 08:17:59.6      64    158     -6    171    172  22.1  -2.2  34020  287.21 0855.48
2009/04/23 08:17:59.7      61    160     49    172    180  20.9  16.0  34008  287.00 0855.46
2009/04/23 08:17:59.8      52    146     42    156    162  19.6  15.3  34034  287.45 0855.46
2009/04/23 08:17:59.9      28    141     75    144    162  11.6  29.5  34064  287.96 0855.46
2009/04/23 08:18:00.0      85    158     10    180    181  28.3   3.3  34084  288.30 0855.46
2009/04/23 08:18:00.1     105    102    -35    147    152  45.6 -13.4  34074  288.13 0855.46
2009/04/23 08:18:00.2     102     89    -27    136    139  48.7 -11.5  34072  288.08 0855.46
2009/04/23 08:18:00.3      43    127     41    135    142  18.7  16.8  34066  287.99 0855.46
2009/04/23 08:18:00.4     -47    151     99    159    187 342.6  35.2  34066  287.99 0855.46
2009/04/23 08:18:00.5      29    165     61    168    178  10.0  20.7  34104  288.62 0855.46
2009/04/23 08:18:00.6      -4    131     45    132    140 358.2  18.9  34100  288.55 0855.46
2009/04/23 08:18:00.7      22    148     57    150    160   8.5  21.5  34116  288.84 0855.46
2009/04/23 08:18:00.8      67    142     93    158    183  25.3  33.5  34098  288.53 0855.46
2009/04/23 08:18:00.9     105    160    108    192    220  33.4  31.6  34108  288.70 0855.46
2009/04/23 08:18:01.0      92    135     59    164    174  34.3  20.2  34110  288.72 0855.46
2009/04/23 08:18:01.1     105     57     72    120    139  61.2  33.5  34112  288.75 0855.46
2009/04/23 08:18:01.2     106     26     72    110    131  75.8  36.0  34108  288.69 0855.46
2009/04/23 08:18:01.3     109     32     88    114    144  73.6  41.7  34116  288.82 0855.46
2009/04/23 08:18:01.4      90     32     81     96    125  70.5  44.3  34110  288.72 0855.46
2009/04/23 08:18:01.5     117      9     69    118    136  85.6  33.4  34104  288.62 0855.46
2009/04/23 08:18:01.6      84    -24     45     88     98 105.9  28.7  34088  288.35 0855.46
2009/04/23 08:18:01.7      15     21     34     26     42  36.1  58.5  34072  288.09 0855.43
2009/04/23 08:18:01.8      82    136      8    159    160  31.2   3.1  34076  288.14 0855.43
2009/04/23 08:18:01.9     163    134     27    212    214  50.5   7.5  34084  288.30 0855.43
2009/04/23 08:18:02.0     231     83     31    246    248  70.1   7.2  34022  287.22 0855.43
2009/04/23 08:18:02.1     180     82     19    198    199  65.4   5.7  34044  287.62 0855.43
2009/04/23 08:18:02.2     186    221    162    289    331  40.1  31.9  34116  288.81 0855.43
2009/04/23 08:18:02.3     221    157     63    272    280  54.7  13.1  34074  288.10 0855.43
2009/04/23 08:18:02.4     149    146     88    209    226  45.6  24.1  34084  288.28 0855.43
2009/04/23 08:18:02.5     177    138     93    225    243  52.0  23.6  34086  288.32 0855.43
2009/04/23 08:18:02.6     109     68     46    129    136  58.0  20.0  34078  288.20 0855.43
2009/04/23 08:18:02.7      56     53     55     78     95  46.9  38.0  34088  288.35 0855.43
2009/04/23 08:18:02.8      37     68     84     78    114  29.0  52.1  34090  288.38 0855.43
2009/04/23 08:18:02.9     141    103    114    176    209  53.8  35.7  34102  288.58 0855.43
2009/04/23 08:18:03.0     193    123    120    230    259  57.5  29.8  34138  289.20 0855.43
2009/04/23 08:18:03.1     160     57     65    171    182  70.3  21.7  34116  288.84 0855.43
2009/04/23 08:18:03.2     180     80     22    197    199  66.0   6.5  34106  288.67 0855.43
2009/04/23 08:18:03.3     201    124     70    237    248  58.2  16.6  34102  288.59 0855.43
2009/04/23 08:18:03.4     270    164    110    317    336  58.7  19.2  34064  287.94 0855.43
2009/04/23 08:18:03.5     242    -30    126    244    274  97.1  29.3  34024  287.28 0855.43
2009/04/23 08:18:03.6     212    -45     90    217    234 102.2  24.1  34012  287.06 0855.43
2009/04/23 08:18:03.7     217    -86     38    234    238 111.8   9.3  34024  287.26 0855.41
2009/04/23 08:18:03.8     240   -104     36    262    265 113.5   8.0  34036  287.48 0855.41
2009/04/23 08:18:03.9     253      0    106    254    275  90.0  24.1  34098  288.53 0855.41
2009/04/23 08:18:04.0     217      5     85    218    233  88.5  22.3  34102  288.58 0855.41
2009/04/23 08:18:04.1     201    -94    102    223    245 115.2  26.2  34016  287.12 0855.41
2009/04/23 08:18:04.2     208   -132    103    247    267 122.5  24.1  34036  287.48 0855.41
2009/04/23 08:18:04.3     315     -8    201    316    374  91.5  35.5  34068  288.01 0855.41
2009/04/23 08:18:04.4     333    118    148    354    383  70.4  24.1  34094  288.45 0855.41
2009/04/23 08:18:04.5     332     91     99    345    359  74.6  16.0  34084  288.28 0855.41
2009/04/23 08:18:04.6     251     50     92    257    272  78.6  20.2  34088  288.36 0855.41
2009/04/23 08:18:04.7     206    149    199    255    323  54.0  42.1  34042  287.58 0855.41
2009/04/23 08:18:04.8     216    150    210    264    337  55.1  42.6  34050  287.70 0855.41
2009/04/23 08:18:04.9     232     77    183    245    305  71.6  40.6  34048  287.66 0855.41
2009/04/23 08:18:05.0     215     55    164    223    276  75.6  39.7  34060  287.87 0855.41
2009/04/23 08:18:05.1     214     58    126    222    255  74.7  31.9  34062  287.92 0855.41
2009/04/23 08:18:05.2     195     22    109    197    225  83.4  31.4  34068  288.03 0855.41
2009/04/23 08:18:05.3     153     40     78    159    177  75.4  27.8  34052  287.74 0855.41
2009/04/23 08:18:05.4      90     59     90    108    140  56.7  43.8  34042  287.57 0855.41
2009/04/23 08:18:05.5     170     81     66    189    201  64.6  19.4  34058  287.86 0855.41
2009/04/23 08:18:05.6     241     48     90    246    261  78.5  21.0  34102  288.58 0855.41
2009/04/23 08:18:05.7     191     41     68    196    208  77.8  19.2  34108  288.69 0855.41
2009/04/23 08:18:05.8     200     59     80    209    223  73.4  21.7  34102  288.58 0855.41
2009/04/23 08:18:05.9     112     36     59    118    131  71.8  28.2  34102  288.60 0855.41
2009/04/23 08:18:06.0     125     41    149    132    199  71.8  54.0  34114  288.79 0855.41
2009/04/23 08:18:06.1     210     23    100    212    234  83.6  27.1  34128  289.04 0855.41
2009/04/23 08:18:06.2     268     80      5    280    281  73.2   1.2  34120  288.88 0855.41
2009/04/23 08:18:06.3     267    123     19    295    296  65.2   3.8  34154  289.46 0855.41
2009/04/23 08:18:06.4     223     99     -1    245    246  66.0  -0.3  34112  288.76 0855.41
2009/04/23 08:18:06.5     141     67     51    157    166  64.6  18.1  34096  288.48 0855.41
2009/04/23 08:18:06.6     -16    -52    132     55    143 197.8  77.0  34092  288.43 0855.41
2009/04/23 08:18:06.7      51     46    137     69    153  47.8  71.4  34120  288.89 0855.41
2009/04/23 08:18:06.8       9     40    102     42    110  13.4  76.6  34146  289.35 0855.41
2009/04/23 08:18:06.9      54     45     80     71    106  50.4  53.3  34124  288.96 0855.41
2009/04/23 08:18:07.0      72    -34     69     80    105 115.4  45.4  34072  288.09 0855.41
2009/04/23 08:18:07.1      39   -124     71    131    149 162.6  31.3  34104  288.64 0855.41
2009/04/23 08:18:07.2      16   -152    137    153    205 173.8  46.4  34094  288.47 0855.41
2009/04/23 08:18:07.3     134    -26    123    137    184 101.0  46.9  34022  287.25 0855.41
2009/04/23 08:18:07.4     135    -36    177    140    225 105.1  57.5  34014  287.11 0855.41
2009/04/23 08:18:07.5     223      0    125    224    256  90.0  31.4  34014  287.11 0855.41
2009/04/23 08:18:07.6     197     18     80    198    213  84.5  23.0  34094  288.45 0855.41
2009/04/23 08:18:07.7     201     -9    149    202    251  92.8  40.1  34056  287.82 0855.40
2009/04/23 08:18:07.8     161    -22    168    163    234  97.9  50.7  34030  287.37 0855.40
2009/04/23 08:18:07.9      49    -15    134     52    143 106.8  77.6  34024  287.27 0855.40
2009/04/23 08:18:08.0     123    -20    156    125    199  99.2  57.5  34020  287.20 0855.40
2009/04/23 08:18:08.1      92     18    115     94    148  78.6  56.4  34028  287.35 0855.40
2009/04/23 08:18:08.2     100      0    143    101    175  90.4  61.5  34016  287.15 0855.40
2009/04/23 08:18:08.3     146    -45    158    153    219 107.3  50.9  34018  287.16 0855.40
2009/04/23 08:18:08.4      76    -37    106     85    135 116.2  56.9  34016  287.15 0855.40
2009/04/23 08:18:08.5     -19    -64    122     67    139 196.9  68.9  34018  287.18 0855.40
2009/04/23 08:18:08.6     -29   -206    207    209    294 188.0  49.9  34016  287.12 0855.40
2009/04/23 08:18:08.7      15   -204    174    205    268 175.6  44.5  34012  287.06 0855.40
2009/04/23 08:18:08.8       5   -137    107    138    174 177.8  41.7  34010  287.03 0855.40
2009/04/23 08:18:09.0       5    -74    119     75    140 175.5  64.7  34016  287.13 0855.40
2009/04/23 08:18:09.0      17   -170    173    171    243 174.0  50.1  34014  287.10 0855.40
2009/04/23 08:18:09.1      22    -71    142     75    160 162.2  70.0  34016  287.13 0855.40
2009/04/23 08:18:09.2     -11   -143    130    144    194 184.4  47.1  34014  287.11 0855.40
2009/04/23 08:18:09.4      69   -208    125    220    253 161.5  32.3  34016  287.12 0855.40
2009/04/23 08:18:09.4      48   -201    127    207    242 166.6  34.5  34016  287.13 0855.40
2009/04/23 08:18:09.6       1   -162    131    163    209 179.5  43.3  34014  287.11 0855.40
2009/04/23 08:18:09.7       0   -204    164    205    262 179.8  42.7  34014  287.11 0855.40
2009/04/23 08:18:09.8      20   -240    143    241    280 175.1  33.5  34012  287.07 0855.41
2009/04/23 08:18:09.9      -5   -263    179    264    318 181.1  37.4  34016  287.12 0855.41
2009/04/23 08:18:10.0      -8   -235    140    236    274 182.0  33.4  34016  287.14 0855.41
2009/04/23 08:18:10.1       0   -231    148    232    275 180.2  35.6  34010  287.04 0855.41
2009/04/23 08:18:10.2     -44   -219    145    224    266 191.5  35.6  34010  287.02 0855.41
2009/04/23 08:18:10.3     -65   -227     82    237    251 196.0  19.2  34016  287.12 0855.41
2009/04/23 08:18:10.4     -46   -228     76    233    246 191.6  18.1  34020  287.19 0855.41
2009/04/23 08:18:10.5    -106   -198     19    225    226 208.1   4.9  34024  287.27 0855.41
2009/04/23 08:18:10.6     -67   -186     27    198    201 199.8   8.0  34024  287.27 0855.41
2009/04/23 08:18:10.7     -37   -177     45    182    188 192.0  13.9  34018  287.18 0855.41
2009/04/23 08:18:10.8     -35   -147    -25    152    155 193.4  -9.3  34026  287.30 0855.41
2009/04/23 08:18:10.9     -27   -141    -44    144    151 191.1 -17.0  34032  287.40 0855.41
2009/04/23 08:18:11.0     -13   -175    -31    176    179 184.5 -10.3  34030  287.37 0855.41
2009/04/23 08:18:11.1     -60   -191      2    201    202 197.4   0.7  34022  287.23 0855.41
2009/04/23 08:18:11.2     -70   -187     10    200    201 200.7   2.9  34014  287.10 0855.41
2009/04/23 08:18:11.3     -64   -194     18    205    206 198.5   5.2  34028  287.33 0855.41
2009/04/23 08:18:11.4     -71   -196     17    209    210 200.0   4.9  34022  287.23 0855.41
2009/04/23 08:18:11.5     -72   -160      3    176    177 204.3   1.2  34042  287.59 0855.41
2009/04/23 08:18:11.6     -64   -149    -14    163    164 203.4  -5.2  34048  287.67 0855.41
2009/04/23 08:18:11.7     -71   -148    -36    165    169 205.5 -12.4  34016  287.13 0855.41
2009/04/23 08:18:11.8     -75   -168     30    185    188 204.1   9.5  34026  287.32 0855.41
2009/04/23 08:18:11.9     -58   -215     -6    223    224 195.2  -1.8  34000  286.88 0855.41
2009/04/23 08:18:12.0     -83   -244    -18    259    260 198.9  -4.1  34012  287.07 0855.41
2009/04/23 08:18:12.1     -68   -270    -20    279    280 194.3  -4.1  34008  287.01 0855.41
2009/04/23 08:18:12.2     -86   -256    -44    271    275 198.7  -9.3  33998  286.84 0855.41
2009/04/23 08:18:12.3    -118   -231    -54    260    266 207.2 -11.9  34008  286.99 0855.41
2009/04/23 08:18:12.4     -97   -210    -38    232    236 204.9  -9.3  34002  286.89 0855.41
2009/04/23 08:18:12.5     -88   -201    -36    220    224 203.7  -9.3  34002  286.89 0855.41
2009/04/23 08:18:12.6     -75   -209    -67    223    233 199.8 -16.8  34002  286.89 0855.41
2009/04/23 08:18:12.7    -102   -215    -58    239    246 205.5 -13.7  34002  286.90 0855.41
2009/04/23 08:18:12.8     -96   -270    -53    287    292 199.6 -10.5  34004  286.92 0855.41
2009/04/23 08:18:12.9     -92   -277    -27    293    295 198.5  -5.4  34006  286.95 0855.41
2009/04/23 08:18:13.0     -96   -219     65    240    249 203.7  15.2  34004  286.94 0855.41
2009/04/23 08:18:13.1    -110   -233     -5    258    259 205.3  -1.2  34008  286.99 0855.41
2009/04/23 08:18:13.2     -87   -233    -13    249    250 200.5  -3.1  34008  287.01 0855.41
2009/04/23 08:18:13.3     -39   -197     -7    201    202 191.3  -2.2  34006  286.98 0855.41
2009/04/23 08:18:13.4     -70   -210    -67    222    232 198.5 -16.8  34010  287.05 0855.41
2009/04/23 08:18:13.5     -88   -194    -35    214    217 204.5  -9.3  34016  287.13 0855.41
2009/04/23 08:18:13.6    -105   -211    -67    236    246 206.5 -16.0  34012  287.07 0855.41
2009/04/23 08:18:13.7    -111   -200    -67    229    238 209.0 -21.2  34020  287.19 0855.41
2009/04/23 08:18:13.8    -107   -167    -68    199    210 212.6 -23.3  34020  287.21 0855.41
2009/04/23 08:18:13.9    -117   -141    -60    184    194 219.7 -18.3  34020  287.21 0855.41
2009/04/23 08:18:14.0    -126   -126    -36    179    183 225.0 -11.5  34028  287.35 0855.41
2009/04/23 08:18:14.1    -119   -130    -52    177    185 222.3 -16.4  34026  287.32 0855.41
2009/04/23 08:18:14.2     -96   -160    -73    187    200 211.0 -26.9  34006  286.96 0855.41
2009/04/23 08:18:14.3    -101   -141    -80    174    191 215.8 -31.0  34012  287.08 0855.41
2009/04/23 08:18:14.4     -87   -167    -56    189    198 207.6 -16.6  34018  287.18 0855.41
2009/04/23 08:18:14.5     -82   -149    -24    171    173 208.7  -8.2  34012  287.06 0855.41
2009/04/23 08:18:14.6     -68   -147    -41    163    169 204.9 -14.3  34022  287.23 0855.41
2009/04/23 08:18:14.7     -78   -164    -54    182    189 205.5 -21.7  34024  287.27 0855.41
2009/04/23 08:18:14.8     -50   -153    -86    162    183 198.3 -35.0  34024  287.27 0855.42
2009/04/23 08:18:14.9     -35   -159    -62    163    174 192.7 -25.9  34016  287.15 0855.42
2009/04/23 08:18:15.0     -50   -152    -74    161    177 198.3 -30.8  34014  287.11 0855.42
2009/04/23 08:18:15.1     -67   -157    -49    171    178 203.2 -16.0  34024  287.28 0855.42
2009/04/23 08:18:15.2     -48   -132    -40    141    146 200.0 -20.2  34024  287.27 0855.42
2009/04/23 08:18:15.3     -60   -117    -44    132    139 207.2 -23.6  34022  287.23 0855.42
2009/04/23 08:18:15.4     -60   -116    -47    131    139 207.6 -24.8  34026  287.30 0855.42
2009/04/23 08:18:15.5     -68   -133    -44    150    156 207.1 -21.2  34024  287.28 0855.42
2009/04/23 08:18:15.6     -49   -113    -62    124    138 203.7 -33.1  34020  287.20 0855.42
2009/04/23 08:18:15.7     -60   -127    -50    141    150 205.5 -19.7  34022  287.23 0855.42
2009/04/23 08:18:15.8     -74    -88    -45    116    124 220.1 -25.9  34020  287.21 0855.42
2009/04/23 08:18:15.9     -61   -130    -33    144    148 205.3 -13.3  34014  287.10 0855.42
2009/04/23 08:18:16.0     -16   -148    -41    149    155 186.3 -15.5  34008  287.01 0855.42
2009/04/23 08:18:16.1     -25   -174    -12    176    177 188.2  -4.1  34008  287.00 0855.42
2009/04/23 08:18:16.2    -105   -190     -8    218    219 209.0  -2.2  34008  287.00 0855.42
2009/04/23 08:18:16.3     -65   -152      8    166    167 203.2   2.9  34004  286.93 0855.42
2009/04/23 08:18:16.4     -85   -103      6    134    135 219.6   2.9  34012  287.06 0855.42
2009/04/23 08:18:16.5     -76   -103    -46    129    138 216.5 -19.7  34016  287.15 0855.42
2009/04/23 08:18:16.6     -32   -154    -10    158    159 192.0  -3.7  34008  287.00 0855.42
2009/04/23 08:18:16.7     -19   -178     -7    180    181 186.2  -2.2  34004  286.93 0855.42
2009/04/23 08:18:16.8      -3   -188      1    189    190 181.0   0.5  34000  286.88 0855.42
2009/04/23 08:18:16.9     -20   -204     32    206    209 185.6   8.8  33998  286.84 0855.42
2009/04/23 08:18:17.0     -15   -171     37    172    177 185.1  12.4  34002  286.89 0855.42
2009/04/23 08:18:17.1     -51   -190     -3    197    198 195.1  -1.1  34000  286.88 0855.42
2009/04/23 08:18:17.2     -80   -189    -14    206    207 202.9  -3.9  34002  286.89 0855.42
2009/04/23 08:18:17.3      10   -163      0    164    165 176.4   0.0  33998  286.83 0855.42
2009/04/23 08:18:17.4       5   -167     17    168    169 178.2   6.1  34002  286.91 0855.42
2009/04/23 08:18:17.5     -39   -146     10    152    153 195.1   3.8  34000  286.86 0855.42
2009/04/23 08:18:17.6     -28   -140     17    143    145 191.5   6.9  34002  286.91 0855.42
2009/04/23 08:18:17.7     -43   -141      7    148    149 196.9   2.9  34000  286.88 0855.42
2009/04/23 08:18:17.8     -47   -179     32    186    189 194.7   9.9  34000  286.88 0855.42
2009/04/23 08:18:17.9     -42   -193     18    198    199 192.3   5.4  34002  286.89 0855.42
2009/04/23 08:18:18.0     -31   -162     15    166    167 191.1   5.2  34002  286.91 0855.42
2009/04/23 08:18:18.1     -42   -134    -18    141    143 197.4  -7.3  34006  286.96 0855.42
2009/04/23 08:18:18.2     -65   -137    -19    152    154 205.5  -7.3  34004  286.94 0855.42
2009/04/23 08:18:18.3     -62    -91    -35    111    117 214.3 -17.6  34004  286.94 0855.42
2009/04/23 08:18:18.4       6    -97     -9     98     99 176.0  -5.6  34000  286.86 0855.42
2009/04/23 08:18:18.5      -2    -94    -28     95    100 181.4 -16.6  34004  286.94 0855.42
2009/04/23 08:18:18.6     -21   -101    -21    104    107 192.0 -11.3  34002  286.91 0855.42
2009/04/23 08:18:18.7     -64    -55    -35     85     91 229.1 -28.0  34004  286.94 0855.42
2009/04/23 08:18:18.8    -169    -25    -82    171    189 261.4 -31.7  34000  286.88 0855.42
2009/04/23 08:18:18.9    -184    -34    -75    188    202 259.4 -27.4  34004  286.93 0855.42
2009/04/23 08:18:19.0    -141    -22    -75    143    161 260.8 -34.2  34002  286.89 0855.42
2009/04/23 08:18:19.1    -147   -113    -79    186    202 232.5 -28.7  34002  286.91 0855.42
2009/04/23 08:18:19.2    -129     -9    -90    130    158 265.7 -42.4  34004  286.94 0855.42
2009/04/23 08:18:19.3    -102   -156    -87    187    206 213.4 -31.4  34006  286.98 0855.42
2009/04/23 08:18:19.4      -3   -225    -48    226    232 181.0 -12.2  33998  286.83 0855.42
2009/04/23 08:18:19.5      -3   -226      0    227    228 181.0   0.0  33998  286.83 0855.42
2009/04/23 08:18:19.6     -21   -156     84    158    178 188.0  30.6  33998  286.84 0855.42
2009/04/23 08:18:19.7     -77    -49    -13     92     93 237.6  -8.2  34004  286.93 0855.42
2009/04/23 08:18:19.8     -87   -107     11    139    140 219.2   4.9  34004  286.94 0855.42
2009/04/23 08:18:19.9    -117    -96     -3    152    153 230.5  -1.2  34006  286.96 0855.42
2009/04/23 08:18:20.0    -133   -111    -22    174    176 230.0  -7.3  34004  286.94 0855.42
2009/04/23 08:18:20.1    -128   -115     -8    173    174 228.2  -2.8  34002  286.91 0855.42
2009/04/23 08:18:20.2    -118   -163    -80    202    217 216.0 -27.4  34004  286.94 0855.42
2009/04/23 08:18:20.3     -35   -147   -101    152    182 193.4 -40.9  34002  286.89 0855.42
2009/04/23 08:18:20.4      34   -206   -148    209    256 170.4 -43.2  34002  286.89 0855.42
2009/04/23 08:18:20.5     -29   -206    -78    209    223 188.2 -25.4  34004  286.93 0855.42
2009/04/23 08:18:20.6     -42   -182    -61    187    197 193.1 -18.3  34002  286.89 0855.42
2009/04/23 08:18:20.7     -35   -224    -61    227    236 189.1 -15.0  34004  286.94 0855.42
2009/04/23 08:18:20.8     -32   -228    -22    231    233 188.1  -5.6  34002  286.91 0855.43
2009/04/23 08:18:20.9     -27   -209     -4    211    212 187.6  -1.3  34004  286.93 0855.43
2009/04/23 08:18:21.0      -4   -206    -32    207    210 181.1  -8.8  34004  286.93 0855.43
2009/04/23 08:18:21.1       6   -206    -30    207    210 178.2  -8.2  34002  286.89 0855.43
2009/04/23 08:18:21.2       7   -194    -26    195    197 177.8  -7.7  34000  286.88 0855.43
2009/04/23 08:18:21.3      16   -207     -9    208    209 175.5  -2.6  34002  286.91 0855.43
2009/04/23 08:18:21.4      25   -174     13    176    177 171.5   4.2  34002  286.91 0855.43
2009/04/23 08:18:21.5      63   -147     10    160    161 156.8   3.6  34002  286.91 0855.43
2009/04/23 08:18:21.6      76   -139     12    159    160 151.1   4.6  34000  286.88 0855.43
2009/04/23 08:18:21.7      52   -108     23    121    124 154.1  11.1  34002  286.91 0855.43
2009/04/23 08:18:21.8      47   -141      7    149    150 161.3   2.8  34006  286.96 0855.43
2009/04/23 08:18:21.9      72   -130      3    149    150 151.0   1.2  34004  286.93 0855.43
2009/04/23 08:18:22.0      37   -125    -16    131    133 163.5  -7.3  34002  286.91 0855.43
2009/04/23 08:18:22.1      19   -156     23    158    160 172.9   8.5  34004  286.93 0855.43
2009/04/23 08:18:22.2      -2   -130     41    131    138 181.0  17.4  34002  286.89 0855.43
2009/04/23 08:18:22.3      16   -107     60    109    124 171.5  31.4  34000  286.88 0855.43
2009/04/23 08:18:22.4      16    -83     48     85     97 168.9  32.4  34002  286.91 0855.43
2009/04/23 08:18:22.5      30    -47     52     56     76 147.5  48.0  34004  286.94 0855.43
2009/04/23 08:18:22.6      26    -50     43     57     71 151.9  41.7  34004  286.93 0855.43
2009/04/23 08:18:22.7      21    -25     40     33     51 140.4  56.4  34004  286.93 0855.43
2009/04/23 08:18:22.8      12    -27     30     30     42 154.6  50.1  34004  286.93 0855.44
2009/04/23 08:18:22.9       6    -26     47     27     54 166.6  66.8  34002  286.89 0855.44
2009/04/23 08:18:23.0      11    -75     43     76     87 171.1  32.4  34004  286.93 0855.44
2009/04/23 08:18:23.1      30    -89     37     94    101 161.3  23.0  34002  286.91 0855.44
2009/04/23 08:18:23.2      45    -63     52     78     93 143.9  36.5  34002  286.89 0855.44
2009/04/23 08:18:23.3      30    -63     64     70     94 154.5  47.5  34006  286.96 0855.44
2009/04/23 08:18:23.4      32    -67     57     75     94 154.7  41.2  34006  286.96 0855.44
2009/04/23 08:18:23.5      51    -61     55     80     97 140.4  37.6  34004  286.94 0855.44
2009/04/23 08:18:23.6      65    -72     56     98    112 137.7  32.4  34004  286.94 0855.44
2009/04/23 08:18:23.7      29   -116     55    120    132 165.7  26.6  34002  286.89 0855.44
2009/04/23 08:18:23.8      66    -78     48    103    113 139.9  27.1  34006  286.98 0855.44
2009/04/23 08:18:23.9      70    -45     72     84    110 122.4  44.8  34002  286.91 0855.44
2009/04/23 08:18:24.0      61    -43     59     75     95 125.1  42.7  34006  286.96 0855.44
2009/04/23 08:18:24.1      18    -57     50     60     78 162.2  44.8  34006  286.98 0855.44
2009/04/23 08:18:24.2      20    -63     43     67     79 162.2  36.0  34006  286.98 0855.44
2009/04/23 08:18:24.3      27    -39     46     48     66 145.7  50.0  34006  286.96 0855.44
2009/04/23 08:18:24.4      17     -7     37     19     41 111.7  70.8  34006  286.96 0855.44
2009/04/23 08:18:24.5       6     16     34     18     38  21.8  70.8  34006  286.98 0855.44
2009/04/23 08:18:24.6      -2     26     37     27     45 355.5  60.5  34008  287.01 0855.44
2009/04/23 08:18:24.7      -8      0     31      9     32 270.0  82.8  34008  287.00 0855.44
2009/04/23 08:18:24.8     -10      3     29     11     31 288.4  79.2  34006  286.96 0855.45
2009/04/23 08:18:24.9      -7      6     24     10     26 313.1  77.1  34006  286.96 0855.45
2009/04/23 08:18:25.0     -14     17     19     23     29 320.4  43.7  34004  286.94 0855.45
2009/04/23 08:18:25.1      -7     30     -9     31     33 346.6 -17.6  34006  286.96 0855.45
2009/04/23 08:18:25.2       0     39    -21     40     45 359.1 -34.7  34006  286.98 0855.45
2009/04/23 08:18:25.3      -7     40    -15     41     43 349.3 -24.4  34006  286.96 0855.45
2009/04/23 08:18:25.4     -31     14    -24     35     42 295.3 -42.0  34004  286.94 0855.45
2009/04/23 08:18:25.5     -18     -5    -24     19     30 251.8 -60.8  34006  286.96 0855.45
2009/04/23 08:18:25.6     -30     -6     -5     31     32 258.5  -9.3  34004  286.93 0855.45
2009/04/23 08:18:25.7     -48    -15     12     51     53 251.8  13.2  34004  286.94 0855.45
2009/04/23 08:18:25.8     -62    -24     -2     67     68 248.2  -2.2  34002  286.91 0855.45
2009/04/23 08:18:25.9     -67      0     13     68     70 270.8  11.1  34002  286.89 0855.45
2009/04/23 08:18:26.0     -90     25      3     94     95 285.5   2.3  34002  286.89 0855.45
2009/04/23 08:18:26.1     -95     14     -3     97     98 278.8  -2.2  34000  286.88 0855.45
2009/04/23 08:18:26.2     -92     18    -13     94     95 281.5  -8.2  34002  286.91 0855.45
2009/04/23 08:18:26.3     -82      9    -25     83     87 276.6 -17.0  34004  286.93 0855.45
2009/04/23 08:18:26.4     -88     -1    -27     89     93 269.2 -22.3  34002  286.91 0855.45
2009/04/23 08:18:26.5     -62      6    -26     63     68 276.1 -27.4  34004  286.94 0855.45
2009/04/23 08:18:26.6     -38      2    -11     39     40 274.4 -20.7  34002  286.91 0855.45
2009/04/23 08:18:26.7     -23      4     -7     24     26 281.5 -17.6  34006  286.96 0855.45
2009/04/23 08:18:26.8     -35    -11     13     37     40 251.8  19.2  34004  286.93 0855.45
2009/04/23 08:18:26.9     -49    -15     10     52     54 252.3  11.1  34004  286.94 0855.45
2009/04/23 08:18:27.0     -70     -7     19     71     74 263.9  15.3  34002  286.91 0855.45
2009/04/23 08:18:27.1    -100     17     18    102    104 280.1  10.1  34002  286.89 0855.45
2009/04/23 08:18:27.2     -63     -8     32     64     71 262.1  27.3  34000  286.86 0855.45
2009/04/23 08:18:27.3     -82    -50     34     97    103 238.5  19.4  34000  286.88 0855.45
2009/04/23 08:18:27.4     -82    -27     42     87     96 251.8  27.3  34002  286.89 0855.45
2009/04/23 08:18:27.5     -50    -75     63     91    110 213.8  38.0  34002  286.89 0855.45
2009/04/23 08:18:27.6     -47    -88     63    100    118 208.1  35.5  34000  286.88 0855.45
2009/04/23 08:18:27.7     -31   -155    109    159    192 191.5  37.6  34002  286.89 0855.45
2009/04/23 08:18:27.8     -16   -152     78    153    171 186.2  28.7  33998  286.84 0855.45
2009/04/23 08:18:27.9     -38   -142     84    148    170 195.1  32.1  34000  286.88 0855.45
2009/04/23 08:18:28.0     -42   -148     15    155    156 196.0   5.7  34000  286.88 0855.45
2009/04/23 08:18:28.1       2   -153     46    154    161 179.0  16.6  34000  286.86 0855.45
2009/04/23 08:18:28.2     -12   -154     13    155    156 184.5   4.9  34004  286.94 0855.45
2009/04/23 08:18:28.3     -10   -127     -5    128    129 184.9  -2.2  34004  286.94 0855.45
2009/04/23 08:18:28.4      64    -79     57    102    116 140.8  31.4  34000  286.88 0855.45
2009/04/23 08:18:28.5      50   -103     75    115    137 154.1  36.0  34002  286.89 0855.45
2009/04/23 08:18:28.6      12    -99     83    100    129 172.9  43.8  33996  286.81 0855.45
2009/04/23 08:18:28.7     -29    -99     97    104    142 196.5  47.9  33994  286.76 0855.45
2009/04/23 08:18:28.8      -2    -97     77     98    124 181.4  41.7  33998  286.83 0855.45
2009/04/23 08:18:28.9      -1    -78     68     79    104 181.0  45.4  33996  286.79 0855.45
2009/04/23 08:18:29.0     -39   -129    143    135    196 197.0  52.0  34000  286.86 0855.45
2009/04/23 08:18:29.1     -79   -147     57    168    178 208.3  18.9  34004  286.93 0855.45
2009/04/23 08:18:29.2     -68   -173     66    187    199 201.6  19.4  34002  286.89 0855.45
2009/04/23 08:18:29.3     -79   -156     61    176    187 207.0  19.2  34002  286.91 0855.45
2009/04/23 08:18:29.4    -125   -161     63    205    215 217.9  17.1  34000  286.88 0855.45
2009/04/23 08:18:29.5    -101   -141      3    174    175 215.6   1.2  34004  286.93 0855.45
2009/04/23 08:18:29.6     -82   -153     -8    174    175 208.1  -2.8  34002  286.91 0855.45
2009/04/23 08:18:29.7    -101   -174     11    202    203 210.3   3.3  34006  286.96 0855.45
2009/04/23 08:18:29.8    -101   -159     22    189    191 212.5   6.9  34004  286.93 0855.45
2009/04/23 08:18:29.9    -105   -180     50    209    215 210.3  13.5  34002  286.89 0855.45
2009/04/23 08:18:30.0    -106   -207     24    233    235 207.2   6.1  34002  286.89 0855.45
2009/04/23 08:18:30.1    -143   -197    -22    244    246 216.0  -5.4  34002  286.90 0855.45
2009/04/23 08:18:30.2    -183   -167    -57    249    256 227.6 -12.9  34002  286.90 0855.45
2009/04/23 08:18:30.3    -127   -160      1    205    206 218.3   0.5  33996  286.81 0855.45
2009/04/23 08:18:30.4     -95   -289    100    305    321 198.3  18.2  34002  286.90 0855.45
2009/04/23 08:18:30.5     -47   -303     50    307    312 188.9   9.3  34006  286.95 0855.45
2009/04/23 08:18:30.6     -84   -245     11    260    261 199.1   2.5  34004  286.94 0855.45
2009/04/23 08:18:30.7     -69   -194    -27    206    208 199.6  -7.5  34006  286.96 0855.45
2009/04/23 08:18:30.8     -42   -171    -32    177    180 194.0 -10.3  34004  286.93 0855.45
2009/04/23 08:18:30.9     -15   -146     71    147    163 186.2  27.8  34004  286.93 0855.45
2009/04/23 08:18:31.0     -23    -93     92     96    132 194.3  49.4  34006  286.96 0855.45
2009/04/23 08:18:31.1     -34    -97     83    103    132 199.6  43.7  34004  286.94 0855.45
2009/04/23 08:18:31.2     -63   -142    110    156    190 204.1  38.8  34004  286.93 0855.45
2009/04/23 08:18:31.3     -64   -207     84    217    232 197.2  22.3  34006  286.96 0855.45
2009/04/23 08:18:31.4     -39   -207     98    211    232 190.7  27.0  34006  286.98 0855.45
2009/04/23 08:18:31.5     -33   -119    102    124    160 195.6  43.7  34008  287.00 0855.45
2009/04/23 08:18:31.6      35   -138    121    143    187 165.7  44.5  34006  286.98 0855.45
2009/04/23 08:18:31.7      28   -197    150    200    250 171.9  40.7  34004  286.94 0855.45
2009/04/23 08:18:31.9      66   -109    152    128    198 148.8  55.8  34000  286.88 0855.46
2009/04/23 08:18:31.9     -25    -67    123     72    142 200.9  67.2  34004  286.94 0855.46
2009/04/23 08:18:32.0      34    -73    150     81    170 154.5  69.6  34006  286.96 0855.46
2009/04/23 08:18:32.1     -28   -162    150    165    222 190.0  47.5  34002  286.91 0855.46
2009/04/23 08:18:32.2      34   -104    124    110    165 161.7  53.7  34006  286.98 0855.46
2009/04/23 08:18:32.3      45    -74     92     87    126 148.4  51.6  34006  286.96 0855.46
2009/04/23 08:18:32.4       0    -26    100     27    103 180.9  84.9  34002  286.91 0855.46
2009/04/23 08:18:32.5     -29     30     54     42     68 315.9  56.4  34006  286.98 0855.46
2009/04/23 08:18:32.6       8     11     85     14     86  36.1  90.0  34006  286.98 0855.46
2009/04/23 08:18:32.7      13      4     89     14     90  71.4  90.0  34008  287.00 0855.46
2009/04/23 08:18:32.8       8    -26     80     28     84 161.5  80.7  34006  286.98 0855.46
2009/04/23 08:18:32.9       6      0     75      7     75  90.0  90.0  34006  286.96 0855.46
2009/04/23 08:18:33.0     -43    -13     72     46     85 252.3  64.6  34004  286.93 0855.46
2009/04/23 08:18:33.1      11    -67    104     69    124 170.2  63.6  34008  287.00 0855.46
2009/04/23 08:18:33.2      18    -54    129     58    141 161.3  74.5  34004  286.94 0855.46
2009/04/23 08:18:33.3     -20    -97    119    100    155 192.0  56.3  34010  287.03 0855.46
2009/04/23 08:18:33.4     -89    -71     92    114    146 231.4  43.7  34008  287.01 0855.46
2009/04/23 08:18:33.5     -57   -112    121    126    174 207.2  49.2  34010  287.03 0855.46
2009/04/23 08:18:33.6     -22   -100     86    103    134 192.5  43.8  34008  287.01 0855.46
2009/04/23 08:18:33.7       2   -108     98    109    146 178.6  46.9  34010  287.03 0855.46
2009/04/23 08:18:33.8       5   -129     80    130    152 177.8  35.5  34010  287.03 0855.47
2009/04/23 08:18:33.9      31    -91     59     97    113 160.8  35.5  34008  287.00 0855.47
2009/04/23 08:18:34.0      83    -88     42    122    130 136.8  18.9  34012  287.06 0855.47
2009/04/23 08:18:34.1      94    -77     39    122    129 129.5  17.9  34008  287.00 0855.47
2009/04/23 08:18:34.2      75    -24     94     79    122 108.2  55.8  34010  287.03 0855.47
2009/04/23 08:18:34.3     -13    -99     97    100    139 188.0  49.4  34010  287.03 0855.47
2009/04/23 08:18:34.4     -37   -110     91    117    148 198.5  41.7  34010  287.05 0855.47
2009/04/23 08:18:34.5      42   -125     50    132    141 161.3  22.0  34008  287.00 0855.47
2009/04/23 08:18:34.6     -11   -144     28    145    148 184.4  11.1  34008  287.01 0855.47
2009/04/23 08:18:34.7     -21   -112     18    114    116 190.7   9.0  34008  287.01 0855.47
2009/04/23 08:18:34.8     -50   -116      1    127    128 203.6   0.8  34006  286.98 0855.47
2009/04/23 08:18:34.9     -49   -115    -11    126    127 203.2  -5.2  34010  287.03 0855.47
2009/04/23 08:18:35.0      -4   -131     11    132    133 181.8   4.9  34008  287.01 0855.47
2009/04/23 08:18:35.1     -66   -160     25    174    176 202.5   8.5  34008  287.01 0855.47
2009/04/23 08:18:35.2     -25   -171      8    173    174 188.5   2.9  34008  287.01 0855.47
2009/04/23 08:18:35.3     -23   -115     41    118    126 191.6  19.4  34006  286.96 0855.47
2009/04/23 08:18:35.4       3   -139     38    140    146 178.6  15.3  34006  286.96 0855.47
2009/04/23 08:18:35.5     -23   -135     27    138    141 189.8  11.1  34008  287.00 0855.47
2009/04/23 08:18:35.6     -28   -121     15    125    126 193.4   7.1  34006  286.98 0855.47
2009/04/23 08:18:35.7     -39   -101     13    109    110 201.4   6.9  34008  287.00 0855.47
2009/04/23 08:18:35.8     -36    -75     23     84     88 205.4  15.3  34006  286.98 0855.46
2009/04/23 08:18:35.9     -34    -58     31     68     74 210.7  27.1  34008  287.01 0855.46
2009/04/23 08:18:36.1       5    -41     32     42     52 172.0  42.7  34008  287.00 0855.46
2009/04/23 08:18:36.1       0    -25     42     26     49 179.1  64.7  34008  287.01 0855.46
2009/04/23 08:18:36.2      -6    -15     49     17     51 201.8  81.2  34006  286.96 0855.46
2009/04/23 08:18:36.3     -19     -6     29     20     35 251.8  64.6  34006  286.96 0855.46
2009/04/23 08:18:36.4     -26    -62     12     68     70 202.7  10.1  34008  287.00 0855.46
2009/04/23 08:18:36.5      -4    -74    -23     75     79 183.6 -17.6  34010  287.03 0855.46
2009/04/23 08:18:36.6     -60    -58     -3     84     85 226.0  -2.2  34004  286.93 0855.46
2009/04/23 08:18:36.7     -39    -57     15     70     72 214.3  12.2  34002  286.91 0855.46
2009/04/23 08:18:36.8     -56    -15     -1     59     60 254.9  -1.2  34002  286.91 0855.46
2009/04/23 08:18:36.9     -98    -39      5    106    107 248.3   2.8  34002  286.91 0855.46
2009/04/23 08:18:37.1     -95    -61    -17    114    116 237.1  -8.8  34004  286.93 0855.46
2009/04/23 08:18:37.1     -10   -100    -19    101    103 185.8 -10.9  34006  286.98 0855.46
2009/04/23 08:18:37.3     -47   -106    -18    117    119 204.1  -8.8  34008  287.00 0855.46
2009/04/23 08:18:37.4     -45    -78    -14     91     93 209.9  -8.8  34006  286.96 0855.46
2009/04/23 08:18:37.5      55   -149     37    160    165 159.5  13.2  34008  287.00 0855.46
2009/04/23 08:18:37.6      31   -138    -28    142    145 167.1 -11.5  34010  287.03 0855.46
2009/04/23 08:18:37.7      31   -106    -22    111    114 163.5 -11.3  34004  286.94 0855.46
2009/04/23 08:18:37.8       2    -83     29     84     90 178.2  19.4  34006  286.98 0855.46
2009/04/23 08:18:37.9      49    -59     19     77     80 140.4  14.3  34008  287.01 0855.46
2009/04/23 08:18:38.0      36    -31     35     48     59 131.3  39.7  34006  286.98 0855.46
2009/04/23 08:18:38.1      39    -24     36     46     58 121.5  43.7  34006  286.98 0855.46
2009/04/23 08:18:38.2      67    -28     51     73     89 112.6  38.6  34008  287.00 0855.46
2009/04/23 08:18:38.3      84    -61     64    104    122 126.0  34.4  34006  286.96 0855.46
2009/04/23 08:18:38.4      88    -42     73     98    122 115.4  40.7  34006  286.96 0855.46
2009/04/23 08:18:38.5      29    -10     69     31     75 110.0  73.1  34008  287.01 0855.46
2009/04/23 08:18:38.6      59    -42     96     73    120 126.0  59.0  34008  287.01 0855.46
2009/04/23 08:18:38.7     130    -22     51    132    141  99.6  22.5  34014  287.10 0855.46
2009/04/23 08:18:38.8     144     57     30    156    160  68.3  11.1  34012  287.08 0855.46
2009/04/23 08:18:38.9     170      1     60    171    182  89.4  19.4  34014  287.10 0855.44
2009/04/23 08:18:39.0     147    -14     55    148    157  95.7  21.3  34012  287.06 0855.44
2009/04/23 08:18:39.1     117    -23     76    120    142 101.5  35.5  34012  287.06 0855.44
2009/04/23 08:18:39.2      92    -12    105     93    140  97.5  54.2  34018  287.18 0855.44
2009/04/23 08:18:39.3     161    -30     82    164    183 100.8  28.7  34022  287.25 0855.44
2009/04/23 08:18:39.4     135     -4     55    136    146  91.7  23.0  34032  287.42 0855.44
2009/04/23 08:18:39.5     130    -15     34    131    136  97.0  14.7  34038  287.52 0855.44
2009/04/23 08:18:39.6     122    -14     43    123    131  97.0  19.4  34048  287.67 0855.44
2009/04/23 08:18:39.7      85    -10     30     86     92  97.0  19.4  34050  287.70 0855.44
2009/04/23 08:18:39.8      79    -26     57     84    101 108.4  37.6  34052  287.74 0855.44
2009/04/23 08:18:39.9     116    -23     44    119    126 101.4  20.9  34042  287.57 0855.44
2009/04/23 08:18:40.0      74    -22     45     78     90 106.8  32.9  34022  287.25 0855.44
2009/04/23 08:18:40.1      41    -56     32     70     76 143.9  27.1  34018  287.18 0855.44
2009/04/23 08:18:40.2      48    -27     79     56     96 119.8  61.5  34008  287.00 0855.44
2009/04/23 08:18:40.3      54    -29     50     62     79 118.0  43.3  34014  287.11 0855.44
2009/04/23 08:18:40.4      61    -29     35     68     76 115.3  29.3  34026  287.30 0855.44
2009/04/23 08:18:40.5      50     -5     35     51     61  96.1  38.6  34016  287.13 0855.44
2009/04/23 08:18:40.6      12     -8     53     15     55 126.0  83.9  34010  287.05 0855.44
2009/04/23 08:18:40.7      16      5     37     17     40  71.8  74.0  34014  287.11 0855.44
2009/04/23 08:18:40.8      13     12     33     18     37  46.7  68.8  34014  287.11 0855.44
2009/04/23 08:18:40.9       3      0     44      4     44  90.0  90.0  34020  287.20 0855.44
2009/04/23 08:18:41.0      13     14     35     20     40  43.4  67.7  34026  287.30 0855.44
2009/04/23 08:18:41.1       4      9     19     11     21  25.4  66.8  34028  287.33 0855.44
2009/04/23 08:18:41.2       7      6     35     10     36  46.9  82.8  34024  287.28 0855.44
2009/04/23 08:18:41.3      18     14     43     24     49  52.2  68.8  34026  287.30 0855.44
2009/04/23 08:18:41.4      23     -7     34     25     42 108.6  59.4  34022  287.23 0855.44
2009/04/23 08:18:41.5      38    -24     35     45     57 122.4  42.7  34022  287.25 0855.44
2009/04/23 08:18:41.6      28     19     49     34     59  55.8  61.5  34020  287.20 0855.44
2009/04/23 08:18:41.7      16     -1     45     17     48  94.4  80.2  34016  287.13 0855.44
2009/04/23 08:18:41.8      53    -48     77     72    105 132.2  52.1  34014  287.11 0855.44
2009/04/23 08:18:41.9     103    -27     66    107    125 105.0  35.0  34014  287.10 0855.44
2009/04/23 08:18:42.0      81    -32     81     88    119 111.7  47.9  34014  287.11 0855.44
2009/04/23 08:18:42.1     106     -7     74    107    130  94.3  37.6  34016  287.15 0855.44
2009/04/23 08:18:42.2      41    -11     95     43    104 105.9  74.0  34022  287.23 0855.44
2009/04/23 08:18:42.3     103    -59     79    119    142 119.8  36.5  34016  287.15 0855.44
2009/04/23 08:18:42.4     129    -21     85    131    156  99.6  35.6  34018  287.18 0855.44
2009/04/23 08:18:42.5     126    -38     93    132    161 106.8  38.6  34022  287.25 0855.44
2009/04/23 08:18:42.6     111      0     59    112    126  90.0  29.8  34038  287.50 0855.44
2009/04/23 08:18:42.7     109     -2     57    110    123  91.3  29.3  34042  287.59 0855.44
2009/04/23 08:18:42.8      84    -26     63     89    109 107.3  39.1  34030  287.37 0855.44
2009/04/23 08:18:42.9      84    -43     47     95    105 117.1  28.2  34016  287.13 0855.43
2009/04/23 08:18:43.0      71    -43     52     84     98 121.5  35.0  34010  287.05 0855.43
2009/04/23 08:18:43.1      71     -4     55     72     90  93.5  41.7  34014  287.10 0855.43
2009/04/23 08:18:43.2      44     12     54     46     70  74.1  56.3  34018  287.18 0855.43
2009/04/23 08:18:43.3      28     19     62     34     70  55.8  68.8  34028  287.35 0855.43
2009/04/23 08:18:43.4      36     20     56     42     70  60.2  59.4  34036  287.49 0855.43
2009/04/23 08:18:43.5      21     18     66     28     71  48.7  76.1  34042  287.57 0855.43
2009/04/23 08:18:43.6      14    -17     48     23     53 140.4  72.9  34048  287.67 0855.43
2009/04/23 08:18:43.7      37      2     71     38     80  85.6  69.8  34052  287.74 0855.43
2009/04/23 08:18:43.8      49    -23     74     55     92 115.4  59.4  34044  287.60 0855.43
2009/04/23 08:18:43.9     125    -79    101    149    180 122.4  37.6  34022  287.25 0855.43
2009/04/23 08:18:44.0      77     -5     82     78    113  94.4  51.2  34064  287.96 0855.43
2009/04/23 08:18:44.1      98    -36    116    105    156 110.4  52.7  34044  287.62 0855.43
2009/04/23 08:18:44.2     113    -63     95    130    161 119.3  39.9  34070  288.06 0855.43
2009/04/23 08:18:44.3       7      0     93      8     93  90.0  90.0  34050  287.72 0855.43
2009/04/23 08:18:44.4      90    -32     70     96    118 109.5  39.7  34028  287.35 0855.43
2009/04/23 08:18:44.5     143    -62    110    157    191 113.6  38.6  34008  287.01 0855.43
2009/04/23 08:18:44.6     131    -95    110    163    196 126.0  37.6  34006  286.96 0855.43
2009/04/23 08:18:44.7      94   -133     97    163    189 144.8  33.7  34006  286.98 0855.43
2009/04/23 08:18:44.8      57   -120    116    134    177 154.5  45.6  34004  286.94 0855.43
2009/04/23 08:18:44.9      73   -108    101    131    165 145.7  41.7  34008  287.01 0855.44
2009/04/23 08:18:45.0      22   -101    123    104    161 167.5  55.6  34006  286.96 0855.44
2009/04/23 08:18:45.1      26    -45     80     53     95 150.1  64.1  34006  286.98 0855.44
2009/04/23 08:18:45.2      59    -12     85     61    104 101.5  60.6  34008  287.01 0855.44
2009/04/23 08:18:45.3      83    -68    103    108    149 129.6  48.5  34008  287.01 0855.44
2009/04/23 08:18:45.4      85    -53     92    101    136 122.0  47.5  34008  287.01 0855.44
2009/04/23 08:18:45.5     107    -68     83    127    151 122.4  35.6  34006  286.98 0855.44
2009/04/23 08:18:45.6     105    -55     82    119    144 118.0  37.6  34008  287.00 0855.44
2009/04/23 08:18:45.7     147    -90    107    173    203 121.5  35.0  34006  286.96 0855.44
2009/04/23 08:18:45.8     135   -186    121    230    259 144.0  30.1  34006  286.97 0855.44
2009/04/23 08:18:45.9      83   -216     92    232    249 158.8  22.8  34004  286.94 0855.44
2009/04/23 08:18:46.0     121   -171    107    210    235 144.8  29.1  34006  286.96 0855.44
2009/04/23 08:18:46.1      77   -170    121    187    222 155.7  35.6  34004  286.93 0855.44
2009/04/23 08:18:46.2      64   -171    136    183    228 159.3  40.1  34004  286.93 0855.44
2009/04/23 08:18:46.3      56   -123    115    136    178 155.5  44.5  34002  286.91 0855.44
2009/04/23 08:18:46.4      60   -147    106    159    191 157.7  36.7  34002  286.91 0855.44
2009/04/23 08:18:46.5      32   -136    109    140    177 166.6  42.0  33998  286.84 0855.44
2009/04/23 08:18:46.6      55    -77    107     95    143 144.4  53.7  34004  286.94 0855.44
2009/04/23 08:18:46.7      30    -91    101     96    139 161.7  51.6  34004  286.94 0855.44
2009/04/23 08:18:46.8      33      6     90     34     96  78.5  79.2  34004  286.94 0855.44
2009/04/23 08:18:46.9       0      4     68      5     68 350.3  90.0  34010  287.03 0855.45
2009/04/23 08:18:47.0      77    -64     87    101    133 129.5  45.8  34000  286.88 0855.45
2009/04/23 08:18:47.1     102   -203     78    228    242 153.3  18.9  34006  286.95 0855.45
2009/04/23 08:18:47.2     101   -215     61    238    246 154.8  14.5  34006  286.97 0855.45
2009/04/23 08:18:47.3     106   -191     78    219    232 150.8  20.2  34004  286.94 0855.45
2009/04/23 08:18:47.4     106   -166     85    198    215 147.4  24.9  34002  286.91 0855.45
2009/04/23 08:18:47.5      69   -143     63    160    171 154.1  22.5  34002  286.91 0855.45
2009/04/23 08:18:47.6      69    -86     78    111    135 141.3  38.0  34006  286.96 0855.45
2009/04/23 08:18:47.7      60   -147     92    159    183 157.7  32.7  34004  286.93 0855.45
2009/04/23 08:18:47.8      57   -170    121    180    216 161.5  37.3  33998  286.84 0855.45
2009/04/23 08:18:47.9      52   -209    101    216    238 166.0  27.0  34002  286.89 0855.45
2009/04/23 08:18:48.0      72   -200     97    213    234 160.0  26.4  34000  286.86 0855.45
2009/04/23 08:18:48.1      54   -114    118    127    173 154.6  47.9  33998  286.84 0855.45
2009/04/23 08:18:48.2       4    -98     88     99    132 177.3  45.9  33998  286.84 0855.45
2009/04/23 08:18:48.3      51   -120     97    131    163 156.8  40.1  34000  286.88 0855.45
2009/04/23 08:18:48.4      82   -129     54    153    162 147.5  20.0  34006  286.98 0855.45
2009/04/23 08:18:48.5      80   -127     75    151    168 147.9  28.2  34000  286.88 0855.45
2009/04/23 08:18:48.6      34   -116     85    121    147 163.5  38.6  34008  287.01 0855.45
2009/04/23 08:18:48.7      23    -99     71    102    124 166.6  37.6  34004  286.94 0855.45
2009/04/23 08:18:48.8      58    -91     82    109    136 147.5  40.7  34000  286.86 0855.45
2009/04/23 08:18:48.9      57    -92     69    109    129 148.4  35.5  34008  287.01 0855.46
2009/04/23 08:18:49.0      59    -92     75    110    133 147.5  37.4  34004  286.93 0855.46
2009/04/23 08:18:49.1      43    -77     58     89    106 151.0  35.6  34004  286.93 0855.46
2009/04/23 08:18:49.2      31    -79     65     86    107 158.2  40.7  34006  286.96 0855.46
2009/04/23 08:18:49.3      25   -102     72    106    128 166.2  37.6  34004  286.94 0855.46
2009/04/23 08:18:49.4       8   -105     57    106    120 175.5  30.8  34004  286.93 0855.46
2009/04/23 08:18:49.5      10   -126     60    127    140 175.1  27.1  34002  286.91 0855.46
2009/04/23 08:18:49.6     -15   -112     65    114    131 188.0  32.4  34002  286.89 0855.46
2009/04/23 08:18:49.7      13    -84     61     86    105 171.1  39.1  34004  286.93 0855.46
2009/04/23 08:18:49.8      26    -83     16     87     89 162.6  11.0  34004  286.93 0855.46
2009/04/23 08:18:49.9      69    -79    -24    106    109 139.0 -12.9  34004  286.93 0855.46
2009/04/23 08:18:50.0      57    -57     -7     81     82 135.0  -5.2  34004  286.93 0855.46
2009/04/23 08:18:50.1      65    -70     42     96    104 137.2  25.1  34004  286.94 0855.46
2009/04/23 08:18:50.2      72    -82     16    110    112 139.0   8.5  34006  286.96 0855.46
2009/04/23 08:18:50.3      81    -67     15    106    108 129.6   8.0  34004  286.93 0855.46
2009/04/23 08:18:50.4     101    -69      6    123    124 124.6   2.8  34006  286.96 0855.46
2009/04/23 08:18:50.5      70    -85     -5    111    112 140.4  -2.6  34004  286.94 0855.46
2009/04/23 08:18:50.6      49    -91     -4    104    105 151.9  -2.2  34004  286.93 0855.46
2009/04/23 08:18:50.7      31    -75     -8     82     83 157.3  -5.6  34004  286.93 0855.46
2009/04/23 08:18:50.8      50    -49     18     71     74 134.1  14.3  34004  286.93 0855.46
2009/04/23 08:18:50.9      86    -46     44     98    107 118.4  26.2  34006  286.98 0855.46
2009/04/23 08:18:51.0      96    -55     39    111    117 119.8  20.0  34004  286.94 0855.46
2009/04/23 08:18:51.1      77    -56     38     96    103 126.4  23.0  34006  286.96 0855.46
2009/04/23 08:18:51.2      86    -54     44    102    111 122.5  25.1  34004  286.94 0855.46
2009/04/23 08:18:51.3      58    -54     64     80    102 133.2  43.3  34002  286.89 0855.46
2009/04/23 08:18:51.4      63    -40     65     75     99 122.5  45.4  34002  286.91 0855.46
2009/04/23 08:18:51.5      95    -53     53    110    122 119.3  27.3  34004  286.93 0855.46
2009/04/23 08:18:51.6      81    -44     41     93    101 118.9  25.1  34006  286.96 0855.46
2009/04/23 08:18:51.7      70    -45     44     84     94 122.5  29.8  34004  286.94 0855.46
2009/04/23 08:18:51.8      62    -51     40     81     90 129.6  27.8  34004  286.93 0855.46
2009/04/23 08:18:51.9      54    -37     32     66     73 125.1  27.3  34002  286.91 0855.46
2009/04/23 08:18:52.0      51    -17     31     55     63 109.1  31.4  34004  286.94 0855.46
2009/04/23 08:18:52.1      54      6     46     55     71  83.0  43.8  34006  286.96 0855.46
2009/04/23 08:18:52.2      18    -16     39     25     46 131.3  64.6  34006  286.98 0855.46
2009/04/23 08:18:52.3      66     -4     57     67     87  94.3  44.8  34002  286.91 0855.46
2009/04/23 08:18:52.4      73    -14     64     75     98 101.5  44.8  34002  286.91 0855.46
2009/04/23 08:18:52.5      18    -28     52     34     62 147.4  63.6  34004  286.93 0855.46
2009/04/23 08:18:52.6       3    -32     65     33     72 173.8  71.9  34004  286.94 0855.46
2009/04/23 08:18:52.7      60    -67     61     91    109 138.1  37.0  34004  286.94 0855.46
2009/04/23 08:18:52.9      57    -75     75     95    121 142.6  42.2  34004  286.94 0855.46
2009/04/23 08:18:52.9     104    -59     72    120    139 119.8  33.5  34002  286.89 0855.46
2009/04/23 08:18:53.0      83    -65     74    106    129 128.2  38.0  34002  286.89 0855.46
2009/04/23 08:18:53.1      84    -21     77     87    116 104.6  46.4  34000  286.88 0855.46
2009/04/23 08:18:53.2      62     15     68     64     93  75.8  51.2  34002  286.91 0855.46
2009/04/23 08:18:53.3     100      7     70    101    122  85.7  38.0  34000  286.88 0855.46
2009/04/23 08:18:53.4     115     31     57    120    132  74.9  27.1  34000  286.88 0855.46
2009/04/23 08:18:53.5     108     30     31    113    118  74.1  15.3  34002  286.91 0855.46
2009/04/23 08:18:53.6      90     37     33     98    104  67.4  18.9  34000  286.88 0855.46
2009/04/23 08:18:53.7      80     68     70    106    127  49.6  36.5  34000  286.88 0855.46
2009/04/23 08:18:53.8      77     64     62    101    118  50.4  34.4  34000  286.88 0855.46
2009/04/23 08:18:53.9      82     52     50     98    110  57.6  28.7  34002  286.91 0855.46
2009/04/23 08:18:54.0      87     42     52     97    110  64.2  30.8  34004  286.94 0855.46
2009/04/23 08:18:54.1      94     25     34     98    104  74.9  19.2  34004  286.93 0855.46
2009/04/23 08:18:54.2      77     22     20     81     84  73.6  14.3  34020  287.20 0855.46
2009/04/23 08:18:54.3      72     38     22     82     86  62.0  15.3  34046  287.65 0855.46
2009/04/23 08:18:54.4      49     49     41     70     81  45.0  32.9  34066  287.99 0855.46
2009/04/23 08:18:54.5      77     72     47    106    115  46.9  25.7  34122  288.94 0855.46
2009/04/23 08:18:54.6     109     34     49    115    125  72.7  24.6  34160  289.57 0855.46
2009/04/23 08:18:54.7      67     40     60     79     99  59.3  40.7  34154  289.48 0855.46
2009/04/23 08:18:54.8      63     60     32     88     93  46.4  20.0  34144  289.30 0855.46
2009/04/23 08:18:54.9      63     46     12     79     80  54.1   9.0  34146  289.33 0855.46
2009/04/23 08:18:55.0      27     44     36     52     63  31.6  38.6  34164  289.65 0855.46
2009/04/23 08:18:55.1      27     35     24     45     51  37.0  30.3  34184  289.97 0855.46
2009/04/23 08:18:55.2      -2     76     12     77     78 358.2   9.0  34182  289.94 0855.46
2009/04/23 08:18:55.3      -3     69     13     70     72 357.3  11.1  34176  289.84 0855.46
2009/04/23 08:18:55.4     -18     33    -22     38     43 331.0 -36.8  34162  289.62 0855.46
2009/04/23 08:18:55.5     -16     47    -52     50     72 341.3 -54.5  34040  287.54 0855.46
2009/04/23 08:18:55.6      -4     45    -86     46     97 354.7 -74.2  34014  287.11 0855.46
2009/04/23 08:18:55.7       3     30    -74     31     80   6.2 -80.5  34018  287.18 0855.46
2009/04/23 08:18:55.8     -22     25    -80     34     86 318.6 -80.5  34024  287.27 0855.46
2009/04/23 08:18:55.9       9    127    -72    128    146   4.4 -35.8  34038  287.52 0855.47
2009/04/23 08:18:56.0     -11    146    -85    147    169 355.5 -37.3  34042  287.57 0855.47
2009/04/23 08:18:56.1       7    100    -80    101    128   4.5 -47.1  34040  287.55 0855.47
2009/04/23 08:18:56.2      35    104    -42    110    117  18.7 -26.4  34030  287.38 0855.47
2009/04/23 08:18:56.3      67    105    -28    125    129  32.5 -12.9  34034  287.43 0855.47
2009/04/23 08:18:56.4      19    139     -7    141    142   8.0  -3.1  34062  287.92 0855.47
2009/04/23 08:18:56.5      13    149     -4    150    151   5.3  -1.8  34054  287.79 0855.47
2009/04/23 08:18:56.6       1    140     -1    141    142 360.0  -0.7  34046  287.65 0855.47
2009/04/23 08:18:56.7      -1    173     -3    174    175 359.6  -1.1  34048  287.67 0855.47
2009/04/23 08:18:56.8       0    174      4    175    176 359.8   1.6  34036  287.47 0855.47
2009/04/23 08:18:56.9     -49    157     21    165    167 342.4   7.5  34050  287.70 0855.47
2009/04/23 08:18:57.0     -44    137     28    144    147 342.2  11.1  34060  287.89 0855.47
2009/04/23 08:18:57.1     -80    125     52    149    157 327.5  20.0  34080  288.23 0855.47
2009/04/23 08:18:57.2     -97    138     47    169    176 324.8  15.6  34092  288.42 0855.47
2009/04/23 08:18:57.3     -83    130     54    155    165 327.4  19.2  34094  288.47 0855.47
2009/04/23 08:18:57.4     -78    100     54    127    138 322.1  24.1  34098  288.52 0855.47
2009/04/23 08:18:57.5     -31     79     56     86    102 338.2  36.0  34078  288.20 0855.47
2009/04/23 08:18:57.6      27     69     54     75     92  21.8  39.7  34050  287.72 0855.47
2009/04/23 08:18:57.7      81     90      6    122    123  41.9   2.9  34038  287.50 0855.47
2009/04/23 08:18:57.8      99    112     17    150    151  41.5   6.5  34024  287.28 0855.47
2009/04/23 08:18:57.9      82    129     18    153    155  32.5   6.9  34044  287.62 0855.47
2009/04/23 08:18:58.0      76    120     39    143    149  32.5  15.2  34044  287.60 0855.47
2009/04/23 08:18:58.2     109    114     12    158    159  43.7   4.4  34044  287.62 0855.47
2009/04/23 08:18:58.2      78     69     34    105    111  48.7  17.9  34036  287.47 0855.47
2009/04/23 08:18:58.3      77     77     21    109    112  45.0  11.0  34034  287.45 0855.47
2009/04/23 08:18:58.4      79     87     55    118    130  42.3  27.1  34030  287.38 0855.47
2009/04/23 08:18:58.5     113     92     57    146    156  50.9  22.5  34034  287.43 0855.47
2009/04/23 08:18:58.6     221     96    -16    241    242  66.5  -3.9  34028  287.34 0855.47
2009/04/23 08:18:58.7     268     45    -80    272    284  80.4 -16.5  34026  287.31 0855.47
2009/04/23 08:18:58.8     207      6    -26    208    210  88.1  -7.3  34028  287.35 0855.47
2009/04/23 08:18:58.9     151     49    -43    159    165  71.8 -15.2  34030  287.38 0855.47
2009/04/23 08:18:59.0     139     78     53    160    169  60.5  18.6  34042  287.59 0855.47
2009/04/23 08:18:59.1      92     90    113    130    172  45.6  45.6  34048  287.69 0855.47
2009/04/23 08:18:59.2     292    181     30    344    346  58.3   5.1  34052  287.74 0855.47
2009/04/23 08:18:59.3     275    187     18    333    334  55.7   3.1  34060  287.88 0855.47
2009/04/23 08:18:59.4     244    237      7    341    342  45.9   1.2  34096  288.49 0855.47
2009/04/23 08:18:59.5     259    191    -27    322    324  53.6  -4.8  34068  288.00 0855.47
2009/04/23 08:18:59.7     262    198     66    329    336  52.8  11.3  34100  288.54 0855.47
2009/04/23 08:18:59.7     338    212     34    400    402  57.9   5.0  34068  288.00 0855.47
2009/04/23 08:18:59.8     305    181     51    355    359  59.3   8.2  34086  288.32 0855.47
2009/04/23 08:18:59.9     394    142     74    420    427  70.1  10.1  34062  287.90 0855.48
2009/04/23 08:19:00.0     343     77     89    352    364  77.3  14.3  34052  287.74 0855.48
2009/04/23 08:19:00.1     303     47    107    307    326  81.2  19.2  34046  287.65 0855.48
2009/04/23 08:19:00.2     278    160    176    321    366  60.1  31.3  34090  288.37 0855.48
2009/04/23 08:19:00.3     301    114    159    322    359  69.2  28.2  34080  288.23 0855.48
2009/04/23 08:19:00.4     339     47    158    343    377  82.1  26.5  34076  288.16 0855.48
2009/04/23 08:19:00.5     152    204     73    255    266  36.7  16.0  34078  288.17 0855.48
2009/04/23 08:19:00.6     158    198    188    254    316  38.7  40.2  34078  288.19 0855.48
2009/04/23 08:19:00.7     254    127    159    285    326  63.4  31.7  34066  287.99 0855.48
2009/04/23 08:19:00.8     265     80    152    277    315  73.2  31.3  34068  288.02 0855.48
2009/04/23 08:19:00.9     200    125    124    237    267  58.0  29.8  34050  287.70 0855.48
2009/04/23 08:19:01.0     258    127    126    288    314  63.8  25.2  34046  287.63 0855.48
2009/04/23 08:19:01.1     331    155    130    366    388  64.9  20.3  34050  287.71 0855.48
2009/04/23 08:19:01.2     311    163    119    352    372  62.3  18.8  34058  287.86 0855.48
2009/04/23 08:19:01.3     372    160    116    406    423  66.7  16.0  34062  287.90 0855.48
2009/04/23 08:19:01.4     325    166    100    366    380  62.9  15.3  34060  287.89 0855.48
2009/04/23 08:19:01.5     353    126     28    376    377  70.3   4.3  34052  287.76 0855.48
2009/04/23 08:19:01.6     334    211     59    396    401  57.7   8.5  34074  288.11 0855.48
2009/04/23 08:19:01.7     328    148     22    360    361  65.7   3.5  34058  287.83 0855.48
2009/04/23 08:19:01.8     317    120    126    340    362  69.2  21.3  34104  288.64 0855.48
2009/04/23 08:19:01.9     234    220     99    322    338  46.8  17.2  34120  288.89 0855.48
2009/04/23 08:19:02.0     146    220    164    265    311  33.6  35.2  34108  288.68 0855.48
2009/04/23 08:19:02.1     179    217    143    282    316  39.6  29.1  34128  289.02 0855.48
2009/04/23 08:19:02.2     269    117    116    294    316  66.4  22.8  34098  288.51 0855.48
2009/04/23 08:19:02.3     280    127    -37    308    311  65.6  -6.9  34060  287.87 0855.48
2009/04/23 08:19:02.4     253    128      8    284    285  63.1   1.8  34060  287.88 0855.48
2009/04/23 08:19:02.5     249    153     11    293    294  58.4   2.3  34064  287.95 0855.48
2009/04/23 08:19:02.6     284    103      6    303    304  70.0   1.2  34076  288.14 0855.48
2009/04/23 08:19:02.7     111    201     99    230    250  29.0  24.9  34088  288.36 0855.48
2009/04/23 08:19:02.8      77    233    184    246    307  18.3  40.6  34118  288.85 0855.48
2009/04/23 08:19:02.9      70    175    156    189    245  21.9  43.7  34092  288.43 0855.48
2009/04/23 08:19:03.0      45    207    145    212    256  12.3  37.6  34110  288.73 0855.48
2009/04/23 08:19:03.1     -21    201    151    203    253 353.8  40.4  34118  288.85 0855.48
2009/04/23 08:19:03.2      37    194    106    198    224  10.9  30.6  34122  288.94 0855.48
2009/04/23 08:19:03.3      84    195    148    213    259  23.4  38.4  34132  289.09 0855.48
2009/04/23 08:19:03.5     129    210    178    247    304  31.6  39.5  34142  289.25 0855.48
2009/04/23 08:19:03.6       8    272    164    273    318   1.8  33.8  34114  288.78 0855.48
2009/04/23 08:19:03.7     -26    214     16    216    217 352.9   4.4  34094  288.47 0855.48
2009/04/23 08:19:03.8      22    159    -38    161    166   8.0 -13.4  34090  288.38 0855.48
2009/04/23 08:19:03.9      27    120    -53    124    134  12.9 -29.0  34086  288.33 0855.48
2009/04/23 08:19:04.0      73     88    -49    115    125  39.7 -29.0  34098  288.52 0855.48
2009/04/23 08:19:04.1      80    113    -45    139    146  35.6 -23.8  34096  288.50 0855.48
2009/04/23 08:19:04.2     114    120    -23    166    168  43.4  -8.0  34122  288.94 0855.48
2009/04/23 08:19:04.3     109     90     12    142    143  50.4   5.0  34132  289.09 0855.48
2009/04/23 08:19:04.4      82    126     64    151    164  33.0  24.1  34130  289.08 0855.48
2009/04/23 08:19:04.5      89    153     78    178    194  30.3  25.3  34106  288.65 0855.48
2009/04/23 08:19:04.6     101    166     69    195    208  31.2  19.6  34124  288.97 0855.48
2009/04/23 08:19:04.7      84    178     76    197    211  25.3  22.0  34124  288.97 0855.48
2009/04/23 08:19:04.8      74    186    105    201    226  21.8  29.8  34120  288.89 0855.48
2009/04/23 08:19:04.9     135    169     90    217    234  38.7  24.1  34142  289.26 0855.48
2009/04/23 08:19:05.0     107    167     82    199    215  32.6  23.4  34128  289.04 0855.48
2009/04/23 08:19:05.1     102    175     70    203    216  30.3  19.2  34160  289.57 0855.48
2009/04/23 08:19:05.2      97    168     68    195    207  30.1  19.4  34158  289.53 0855.48
2009/04/23 08:19:05.3     174    182     28    253    255  43.7   6.5  34142  289.25 0855.48
2009/04/23 08:19:05.4     129    149     38    198    202  41.0  11.0  34152  289.43 0855.48
2009/04/23 08:19:05.5      82    119     38    145    150  34.7  14.7  34136  289.16 0855.48
2009/04/23 08:19:05.6      88    122     27    151    154  36.0  10.1  34146  289.35 0855.48
2009/04/23 08:19:05.7      30    126     55    130    141  13.4  24.1  34128  289.02 0855.48
2009/04/23 08:19:05.8      32     87    107     93    141  20.5  54.3  34094  288.47 0855.48
2009/04/23 08:19:05.9      43     92    102    102    144  24.9  50.1  34076  288.16 0855.48
2009/04/23 08:19:06.0      28     95     80    100    128  16.5  43.7  34082  288.26 0855.47
2009/04/23 08:19:06.1      29     77     82     83    116  20.5  50.5  34074  288.11 0855.47
2009/04/23 08:19:06.2       4    104     86    105    135   2.7  43.7  34076  288.16 0855.47
2009/04/23 08:19:06.3      -7     66     65     67     93 353.8  50.0  34084  288.28 0855.47
2009/04/23 08:19:06.4       7     51      5     52     53   8.0   5.9  34076  288.14 0855.47
2009/04/23 08:19:06.5      -4     31     16     32     35 352.0  27.3  34068  288.03 0855.47
2009/04/23 08:19:06.6      -2     19     38     20     42 352.0  69.8  34064  287.96 0855.47
2009/04/23 08:19:06.7     -21     21     49     30     57 315.0  64.7  34056  287.82 0855.47
2009/04/23 08:19:06.8      73     -4     85     74    112  93.5  54.8  34080  288.21 0855.47
2009/04/23 08:19:06.9     112     45    139    121    184  67.8  54.6  34086  288.31 0855.47
2009/04/23 08:19:07.0     154     97     90    183    203  57.8  28.2  34102  288.58 0855.47
2009/04/23 08:19:07.1     237    123     78    268    280  62.5  16.3  34138  289.19 0855.47
2009/04/23 08:19:07.2     243     92     51    260    266  69.2  11.1  34132  289.10 0855.47
2009/04/23 08:19:07.3     256    150    107    297    315  59.6  20.7  34102  288.58 0855.47
2009/04/23 08:19:07.4     322    103    134    339    364  72.2  22.8  34102  288.60 0855.47
2009/04/23 08:19:07.5     266    229    134    352    376  49.3  22.0  34120  288.88 0855.47
2009/04/23 08:19:07.6     185    218     55    287    293  40.3  11.0  34062  287.90 0855.47
2009/04/23 08:19:07.7     300    180     -8    351    352  59.0  -1.4  34116  288.82 0855.47
2009/04/23 08:19:07.8     332    117    128    353    375  70.5  20.8  34120  288.89 0855.47
2009/04/23 08:19:07.9     382    280     70    474    480  53.8   8.5  34092  288.42 0855.47
2009/04/23 08:19:08.0     353    353     14    500    501  45.0   1.6  34042  287.56 0855.47
2009/04/23 08:19:08.1     492    274     14    564    565  60.9   1.5  34070  288.04 0855.47
2009/04/23 08:19:08.2     232    355     21    425    426  33.2   2.9  34040  287.55 0855.47
2009/04/23 08:19:08.3      74    275    -11    285    286  15.2  -2.2  34062  287.90 0855.47
2009/04/23 08:19:08.4     218    287     87    361    372  37.3  13.6  34076  288.15 0855.47
2009/04/23 08:19:08.5     322    354     96    479    489  42.3  11.3  34068  288.00 0855.47
2009/04/23 08:19:08.6     297    187     30    352    354  57.8   4.9  34074  288.13 0855.47
2009/04/23 08:19:08.7     365    166     58    402    407  65.5   8.3  34102  288.60 0855.47
2009/04/23 08:19:08.8     371    272    -89    461    470  53.8 -11.0  34088  288.35 0855.47
2009/04/23 08:19:08.9     394    179      5    433    434  65.5   0.7  34076  288.16 0855.47
2009/04/23 08:19:09.0     247    223     24    333    334  47.9   4.2  34074  288.11 0855.47
2009/04/23 08:19:09.1     176    213    -10    277    278  39.7  -2.2  34074  288.12 0855.47
2009/04/23 08:19:09.2     174    228      4    288    289  37.4   0.8  34052  287.75 0855.47
2009/04/23 08:19:09.3     159    242    -13    290    291  33.4  -2.6  34058  287.83 0855.47
2009/04/23 08:19:09.4     152    238    -35    283    286  32.6  -7.2  34074  288.12 0855.47
2009/04/23 08:19:09.5     180    198    -47    268    273  42.3 -10.1  34070  288.05 0855.47
2009/04/23 08:19:09.6     162    154    -80    224    239  46.4 -19.7  34080  288.21 0855.47
2009/04/23 08:19:09.7     199    142    -60    245    253  54.5 -13.9  34070  288.05 0855.47
2009/04/23 08:19:09.8     146    192     25    242    244  37.4   5.9  34072  288.09 0855.47
2009/04/23 08:19:09.9      48    202     36    208    212  13.4   9.9  34076  288.16 0855.47
2009/04/23 08:19:10.0     102    194     12    220    221  27.9   3.3  34076  288.16 0855.47
2009/04/23 08:19:10.1     153    154     -4    218    219  44.8  -1.3  34068  288.01 0855.47
2009/04/23 08:19:10.2     135    125      5    185    186  47.3   1.6  34058  287.84 0855.47
2009/04/23 08:19:10.3     177     63     43    189    194  70.3  12.9  34050  287.72 0855.47
2009/04/23 08:19:10.4     121    121      0    172    173  45.0   0.0  34056  287.82 0855.47
2009/04/23 08:19:10.5      65    118      6    135    136  28.9   2.9  34056  287.82 0855.47
2009/04/23 08:19:10.6      80     90     36    121    127  41.4  16.8  34056  287.81 0855.47
2009/04/23 08:19:10.7     196     33     49    199    206  80.4  13.9  34056  287.81 0855.47
2009/04/23 08:19:10.8     187     59     73    197    210  72.5  21.0  34056  287.81 0855.47
2009/04/23 08:19:10.9     179     -8    -28    180    183  92.6  -9.0  34056  287.82 0855.47
2009/04/23 08:19:11.0     117      8      5    118    119  85.7   2.8  34058  287.86 0855.47
2009/04/23 08:19:11.1      77     60      0     98     99  52.2  -0.3  34060  287.87 0855.47
2009/04/23 08:19:11.2      73     37    -20     83     86  62.9 -13.9  34062  287.91 0855.47
2009/04/23 08:19:11.3      18     69    -40     72     82  15.1 -35.8  34060  287.87 0855.47
2009/04/23 08:19:11.4     -57     35    -40     68     78 301.5 -37.9  34060  287.89 0855.47
2009/04/23 08:19:11.5       0      7    -13      8     15 357.3 -69.1  34056  287.82 0855.47
2009/04/23 08:19:11.6      19     26     33     33     46  36.1  50.1  34054  287.77 0855.47
2009/04/23 08:19:11.7      25     33     46     42     62  37.8  52.2  34058  287.86 0855.47
2009/04/23 08:19:11.8       7     46      7     47     48   8.9   9.0  34054  287.79 0855.47
2009/04/23 08:19:11.9      45     21     24     50     55  64.6  27.3  34052  287.76 0855.47
2009/04/23 08:19:12.0      43      0     18     44     47  90.0  23.0  34054  287.79 0855.47
2009/04/23 08:19:12.1      25     14     26     29     38  61.1  47.9  34054  287.79 0855.47
2009/04/23 08:19:12.2      67     52     70     85    110  52.2  43.7  34068  288.03 0855.47
2009/04/23 08:19:12.3     100    100     62    142    154  45.0  25.1  34070  288.06 0855.47
2009/04/23 08:19:12.4     106     77     49    132    140  54.0  21.0  34072  288.08 0855.47
2009/04/23 08:19:12.5     127     81     67    151    165  57.5  25.3  34080  288.21 0855.47
2009/04/23 08:19:12.6     113    101     61    152    163  48.2  22.8  34080  288.21 0855.47
2009/04/23 08:19:12.7     115    127     20    172    174  42.1   6.7  34062  287.92 0855.47
2009/04/23 08:19:12.8      75    162    -22    179    181  24.9  -7.2  34058  287.86 0855.47
2009/04/23 08:19:12.9      88     62     38    108    115  54.9  19.4  34062  287.91 0855.47
2009/04/23 08:19:13.0      82     36     47     90    101  66.0  29.8  34058  287.84 0855.48
2009/04/23 08:19:13.1      70      5     78     71    105  85.7  52.7  34044  287.60 0855.48
2009/04/23 08:19:13.2      56    -27     64     63     89 116.2  49.7  34040  287.55 0855.48
2009/04/23 08:19:13.3     124    -25     68    127    144 101.5  30.8  34044  287.60 0855.48
2009/04/23 08:19:13.4     127    -13     58    128    140  96.1  26.2  34044  287.62 0855.48
2009/04/23 08:19:13.5     127    -37    110    133    172 106.4  43.8  34038  287.52 0855.48
2009/04/23 08:19:13.6      93    -31     90     99    133 108.6  47.5  34040  287.55 0855.48
2009/04/23 08:19:13.7      76    -24     67     80    104 108.2  43.8  34042  287.57 0855.48
2009/04/23 08:19:13.8      77    -26     51     82     96 108.6  35.5  34042  287.59 0855.48
2009/04/23 08:19:13.9      71    -64     18     96     98 132.2  10.6  34042  287.57 0855.48
2009/04/23 08:19:14.0      96    -31     45    102    111 108.2  25.7  34042  287.59 0855.48
2009/04/23 08:19:14.1     108    -19     64    110    127 100.1  32.9  34038  287.50 0855.48
2009/04/23 08:19:14.2      94    -19     64     96    115 101.5  36.0  34034  287.43 0855.48
2009/04/23 08:19:14.3      88    -19     59     91    108 102.4  35.6  34038  287.50 0855.48
2009/04/23 08:19:14.4      98    -26     51    102    114 105.1  28.2  34046  287.65 0855.48
2009/04/23 08:19:14.5      34    -69     47     78     91 153.7  34.0  34048  287.67 0855.48
2009/04/23 08:19:14.6      68    -83     56    108    121 140.3  29.3  34036  287.49 0855.48
2009/04/23 08:19:14.7      71    -70     65    100    119 134.6  36.0  34036  287.47 0855.48
2009/04/23 08:19:14.8      71    -52     31     89     95 126.4  19.4  34036  287.49 0855.48
2009/04/23 08:19:14.9      70    -59     31     92     98 130.4  18.9  34036  287.49 0855.48
2009/04/23 08:19:15.0      56    -67     30     88     94 140.4  19.2  34044  287.60 0855.48
2009/04/23 08:19:15.1      42    -72     51     84     98 149.3  34.4  34044  287.62 0855.48
2009/04/23 08:19:15.2      25   -102     87    106    137 166.2  43.7  34042  287.57 0855.48
2009/04/23 08:19:15.3      13   -111     94    112    146 173.3  43.8  34038  287.52 0855.48
2009/04/23 08:19:15.4      20   -117     88    119    148 170.2  39.7  34030  287.38 0855.48
2009/04/23 08:19:15.5      10   -118     80    119    143 175.1  37.0  34032  287.42 0855.48
2009/04/23 08:19:15.6       0   -103     62    104    121 179.5  33.5  34032  287.42 0855.48
2009/04/23 08:19:15.7     -35    -89     89     96    130 201.4  47.9  34038  287.50 0855.48
2009/04/23 08:19:15.8     -51    -69     79     86    116 216.5  47.9  34034  287.43 0855.48
2009/04/23 08:19:15.9     -24    -56     52     62     80 203.6  44.8  34030  287.38 0855.48
2009/04/23 08:19:16.0      -7    -38     69     39     79 191.6  67.7  34030  287.38 0855.48
2009/04/23 08:19:16.1     -14    -40     67     43     79 199.2  64.1  34030  287.38 0855.48
2009/04/23 08:19:16.2     -15    -45     59     48     76 198.5  56.4  34032  287.40 0855.48
2009/04/23 08:19:16.3     -23    -39     37     46     59 210.7  43.7  34030  287.38 0855.48
2009/04/23 08:19:16.4     -33    -33     20     48     52 225.0  24.1  34030  287.38 0855.48
2009/04/23 08:19:16.5     -57    -51      9     77     78 227.8   6.9  34028  287.33 0855.48
2009/04/23 08:19:16.6     -50    -41     -3     66     67 230.5  -3.1  34030  287.37 0855.48
2009/04/23 08:19:16.7     -49    -31     -7     59     60 237.6  -7.3  34028  287.35 0855.48
2009/04/23 08:19:16.8     -32      0     15     33     36 269.2  27.1  34032  287.42 0855.48
2009/04/23 08:19:16.9     -17     -3      0     18     19 258.5  -2.2  34032  287.42 0855.48
2009/04/23 08:19:17.0       6    -17     13     19     23 161.3  39.7  34032  287.42 0855.48
2009/04/23 08:19:17.1       0    -48     39     49     62 180.9  43.7  34026  287.32 0855.48
2009/04/23 08:19:17.2      31    -40     51     51     72 142.2  50.1  34024  287.28 0855.48
2009/04/23 08:19:17.3      21    -21     48     31     57 135.0  64.6  34024  287.28 0855.48
2009/04/23 08:19:17.4      17    -44     59     48     76 158.2  56.4  34026  287.32 0855.48
2009/04/23 08:19:17.5       0    -57     55     58     79 179.1  49.0  34028  287.33 0855.48
2009/04/23 08:19:17.6      -3    -48     44     49     65 183.6  47.9  34032  287.40 0855.48
2009/04/23 08:19:17.7       6    -40     34     41     53 171.1  43.8  34030  287.37 0855.48
2009/04/23 08:19:17.8      40     -6     32     41     52  98.8  42.7  34030  287.38 0855.48
2009/04/23 08:19:17.9      48     31     22     58     62  57.6  22.0  34030  287.37 0855.48
2009/04/23 08:19:18.0      50     71     -2     87     88  35.2  -1.8  34030  287.38 0855.48
2009/04/23 08:19:18.1      60     95     31    113    118  32.5  15.3  34028  287.35 0855.48
2009/04/23 08:19:18.2      32     96     15    102    104  18.5   8.5  34030  287.37 0855.48
2009/04/23 08:19:18.3     -17    126     35    128    133 352.0  15.3  34052  287.76 0855.48
2009/04/23 08:19:18.4       0    191    -18    192    193 359.8  -5.6  34062  287.92 0855.48
2009/04/23 08:19:18.5      34    146    -62    150    162  13.3 -28.0  34032  287.42 0855.48
2009/04/23 08:19:18.6      43    139    -65    146    159  17.4 -30.1  34018  287.16 0855.48
2009/04/23 08:19:18.7      50    151    -81    160    179  18.3 -33.1  34022  287.23 0855.48
2009/04/23 08:19:18.8      61    197    -76    207    220  17.4 -25.3  34060  287.87 0855.48
2009/04/23 08:19:18.9      64    171    -99    183    208  20.7 -35.2  34042  287.57 0855.48
2009/04/23 08:19:19.0     127    154    -58    200    208  39.6 -21.2  34068  288.01 0855.48
2009/04/23 08:19:19.1     157     70     -9    173    174  65.8  -3.1  34052  287.76 0855.48
2009/04/23 08:19:19.2     181     42     38    186    190  76.7  11.6  34056  287.82 0855.48
2009/04/23 08:19:19.3     171     46     71    178    191  74.7  23.0  34050  287.72 0855.48
2009/04/23 08:19:19.4     155     50     75    163    179  72.1  26.6  34054  287.79 0855.48
2009/04/23 08:19:19.5     131     47     74    140    158  70.0  30.3  34074  288.11 0855.48
2009/04/23 08:19:19.6     175     26     77    177    193  81.4  24.9  34086  288.33 0855.48
2009/04/23 08:19:19.7     158     14     38    159    164  84.8  13.7  34068  288.03 0855.48
2009/04/23 08:19:19.8     132    -12     60    133    145  95.2  25.7  34086  288.31 0855.48
2009/04/23 08:19:19.9      98    -31    112    103    152 107.7  52.2  34052  287.76 0855.48
2009/04/23 08:19:20.0      86    -45    119     98    154 117.5  56.4  34068  288.03 0855.48
2009/04/23 08:19:20.1      65    -22     89     69    112 109.1  57.9  34074  288.11 0855.48
2009/04/23 08:19:20.2      97      2     80     98    126  88.3  43.7  34110  288.74 0855.48
2009/04/23 08:19:20.3      69      0     79     70    105  89.2  53.7  34114  288.79 0855.48
2009/04/23 08:19:20.4      74    -15     65     76    100 101.5  44.8  34112  288.75 0855.48
2009/04/23 08:19:20.5      65     -8     85     66    107  97.0  57.9  34100  288.55 0855.48
2009/04/23 08:19:20.6     100     -7     60    101    117  94.4  34.0  34100  288.57 0855.48
2009/04/23 08:19:20.7      71    -16     77     73    106 103.3  51.6  34138  289.21 0855.48
2009/04/23 08:19:20.8     -17    -54    102     57    116 197.8  68.8  34126  288.99 0855.48
2009/04/23 08:19:20.9     -35      1     65     36     74 272.6  68.8  34128  289.04 0855.48
2009/04/23 08:19:21.0     147     13    102    148    179  84.8  38.0  34074  288.11 0855.47
2009/04/23 08:19:21.1     148     36     71    153    168  76.3  27.0  34076  288.16 0855.47
2009/04/23 08:19:21.2      83      7     66     84    106  84.8  42.7  34074  288.11 0855.47
2009/04/23 08:19:21.3      75    -20    107     78    132 105.0  60.5  34086  288.33 0855.47
2009/04/23 08:19:21.4      45    -13     58     47     74 106.8  56.4  34088  288.35 0855.47
2009/04/23 08:19:21.5      87    -46     38     99    106 118.0  22.0  34084  288.30 0855.47
2009/04/23 08:19:21.6     111     63    126    128    179  60.2  50.0  34070  288.06 0855.47
2009/04/23 08:19:21.7     166    -42    156    172    232 104.4  47.1  34060  287.87 0855.47
2009/04/23 08:19:21.8     159    -58    111    170    203 110.0  36.0  34056  287.82 0855.47
2009/04/23 08:19:21.9     198    -46     91    204    223 103.3  25.3  34064  287.96 0855.47
2009/04/23 08:19:22.0     205    -26    104    207    231  97.5  28.5  34056  287.81 0855.47
2009/04/23 08:19:22.1     253    -14    132    254    286  93.3  29.5  34066  287.99 0855.47
2009/04/23 08:19:22.2     223      0    119    224    253  90.1  30.3  34068  288.02 0855.47
2009/04/23 08:19:22.3     116    -20    201    118    233 100.1  66.8  34074  288.11 0855.47
2009/04/23 08:19:22.4      70    -26    169     75    184 110.8  74.5  34068  288.03 0855.47
2009/04/23 08:19:22.5      86   -102    190    134    232 139.9  61.5  34060  287.89 0855.47
2009/04/23 08:19:22.6      46   -104    153    114    190 155.9  59.8  34076  288.14 0855.47
2009/04/23 08:19:22.7      96     19    124     98    158  78.5  57.7  34062  287.92 0855.47
2009/04/23 08:19:22.8      57    -50    126     77    147 131.3  65.1  34066  287.98 0855.47
2009/04/23 08:19:22.9      69   -108    119    129    175 147.5  47.9  34068  288.03 0855.47
2009/04/23 08:19:23.0      92    -89    113    129    171 134.0  45.8  34070  288.06 0855.46
2009/04/23 08:19:23.1      91    -96    103    133    168 136.7  42.0  34086  288.31 0855.46
2009/04/23 08:19:23.2      61   -111     86    127    153 151.0  37.0  34084  288.28 0855.46
2009/04/23 08:19:23.3      42    -86     76     97    123 153.7  42.2  34068  288.03 0855.46
2009/04/23 08:19:23.4      47   -139    109    147    183 161.3  40.1  34072  288.09 0855.46
2009/04/23 08:19:23.5      49   -128    123    138    184 159.1  46.4  34062  287.92 0855.46
2009/04/23 08:19:23.6      13   -146    136    147    200 174.7  47.7  34056  287.82 0855.46
2009/04/23 08:19:23.7      -2   -154    126    155    199 180.9  43.5  34052  287.76 0855.46
2009/04/23 08:19:23.8      53   -158    127    167    209 161.3  41.4  34052  287.74 0855.46
2009/04/23 08:19:23.9      27   -217    122    219    250 172.9  31.4  34048  287.66 0855.46
2009/04/23 08:19:24.0      57   -174    115    184    216 161.7  35.2  34042  287.57 0855.46
2009/04/23 08:19:24.1      -3   -224    125    225    257 180.9  31.4  34044  287.60 0855.46
2009/04/23 08:19:24.2     -19   -200     88    201    219 185.6  25.1  34044  287.60 0855.46
2009/04/23 08:19:24.3     -18   -239     51    240    246 184.5  12.0  34040  287.53 0855.46
2009/04/23 08:19:24.4      23   -239     62    241    249 174.4  14.5  34038  287.51 0855.46
2009/04/23 08:19:24.5      11   -241     35    242    245 177.3   8.2  34046  287.63 0855.46
2009/04/23 08:19:24.6      25   -191     56    193    202 172.4  16.3  34036  287.47 0855.46
2009/04/23 08:19:24.7      39   -165    112    170    203 166.6  36.5  34032  287.42 0855.46
2009/04/23 08:19:24.8      24      0    100     25    103  90.0  85.9  34038  287.50 0855.46
2009/04/23 08:19:24.9      51     -5    124     52    134  96.1  76.1  34040  287.55 0855.46
2009/04/23 08:19:25.0       8    -49    103     50    114 170.2  72.8  34044  287.62 0855.45
2009/04/23 08:19:25.1      36   -127    115    133    175 164.0  45.4  34044  287.62 0855.45
2009/04/23 08:19:25.2      23    -40     77     47     90 150.1  65.1  34042  287.57 0855.45
2009/04/23 08:19:25.3      -5    -13     66     15     67 201.8  88.0  34042  287.59 0855.45
2009/04/23 08:19:25.4      51    -37     84     64    105 126.0  59.0  34040  287.55 0855.45
2009/04/23 08:19:25.5      39     14     90     42     99  69.2  73.1  34040  287.54 0855.45
2009/04/23 08:19:25.6      27    -67    114     73    135 158.2  64.6  34038  287.52 0855.45
2009/04/23 08:19:25.7       0    -18     83     19     85 182.7  87.5  34040  287.54 0855.45
2009/04/23 08:19:25.8      46   -113    125    123    175 157.7  49.9  34038  287.52 0855.45
2009/04/23 08:19:25.9      35   -116    102    122    159 163.0  44.3  34038  287.50 0855.45
2009/04/23 08:19:26.0       8   -102    111    103    151 175.5  52.2  34040  287.54 0855.45
2009/04/23 08:19:26.1       8    -61    117     62    132 172.0  70.4  34038  287.50 0855.45
2009/04/23 08:19:26.2      -7    -32     85     33     91 193.4  78.2  34038  287.52 0855.45
2009/04/23 08:19:26.3      -7    -26     66     27     71 195.1  77.1  34042  287.57 0855.45
2009/04/23 08:19:26.4       0    -90     56     91    106 179.5  35.0  34036  287.49 0855.45
2009/04/23 08:19:26.5     -50    -36     40     63     74 234.0  35.5  34042  287.57 0855.45
2009/04/23 08:19:26.6     -12    -21     61     25     65 209.0  77.1  34042  287.57 0855.45
2009/04/23 08:19:26.7      -2    -34     84     35     91 184.4  76.1  34040  287.55 0855.45
2009/04/23 08:19:26.8      -8    -51     81     52     96 189.8  64.6  34036  287.49 0855.45
2009/04/23 08:19:26.9      12    -94     80     95    124 172.4  44.3  34038  287.50 0855.45
2009/04/23 08:19:27.0      15    -46     90     49    102 161.5  68.9  34034  287.45 0855.45
2009/04/23 08:19:27.1     -24   -131    101    134    167 190.7  40.9  34034  287.43 0855.45
2009/04/23 08:19:27.2      67     -4    123     68    140  93.5  68.8  34028  287.35 0855.45
2009/04/23 08:19:27.3       9      0     71     10     71  90.0  90.0  34022  287.23 0855.45
2009/04/23 08:19:27.4      99   -170    134    197    238 149.7  37.6  34020  287.20 0855.45
2009/04/23 08:19:27.5      16   -150     71    151    166 173.7  27.1  34020  287.20 0855.45
2009/04/23 08:19:27.6      42   -158     24    164    166 164.9   8.5  34028  287.33 0855.45
2009/04/23 08:19:27.7      -1   -215     42    216    221 180.5  11.0  34026  287.32 0855.45
2009/04/23 08:19:27.8      31   -200     58    203    212 171.1  16.0  34030  287.37 0855.45
2009/04/23 08:19:27.9      40   -208    107    212    237 169.1  29.1  34018  287.18 0855.45
2009/04/23 08:19:28.0      35   -208    122    211    243 170.3  32.7  34016  287.14 0855.45
2009/04/23 08:19:28.1      47   -187    127    194    231 165.7  35.7  34018  287.16 0855.45
2009/04/23 08:19:28.2      20   -240    126    241    271 175.1  29.8  34022  287.22 0855.45
2009/04/23 08:19:28.3       9   -196    121    197    231 177.1  35.0  34024  287.28 0855.45
2009/04/23 08:19:28.4      13   -227     31    228    231 176.6   7.8  34030  287.38 0855.45
2009/04/23 08:19:28.5      14   -183     53    184    192 175.5  16.3  34024  287.28 0855.45
2009/04/23 08:19:28.7       0   -227    102    228    249 179.8  25.9  34016  287.14 0855.45
2009/04/23 08:19:28.7       8   -222     90    223    240 177.8  23.1  34018  287.16 0855.45
2009/04/23 08:19:28.8       0   -190     99    191    215 180.0  29.3  34014  287.11 0855.45
2009/04/23 08:19:28.9      -1   -106    104    107    149 181.0  49.4  34016  287.15 0855.45
2009/04/23 08:19:29.0       4   -110    111    111    156 177.8  50.1  34020  287.20 0855.44
2009/04/23 08:19:29.1      23   -116     98    119    154 168.5  43.7  34024  287.27 0855.44
2009/04/23 08:19:29.2      -8   -114    106    115    156 184.4  47.9  34030  287.38 0855.44
2009/04/23 08:19:29.3     -72   -139      1    157    158 207.6   0.5  34034  287.45 0855.44
2009/04/23 08:19:29.4     -95   -145     59    174    185 213.2  18.9  34028  287.35 0855.44
2009/04/23 08:19:29.6     -72   -141    105    159    190 207.2  36.5  34018  287.16 0855.44
2009/04/23 08:19:29.6     -25   -114    103    117    155 192.5  46.2  34018  287.18 0855.44
2009/04/23 08:19:29.8     -80    -94     72    124    143 220.5  33.4  34020  287.21 0855.44
2009/04/23 08:19:29.9     -33    -40     55     53     76 219.6  50.1  34020  287.20 0855.44
2009/04/23 08:19:29.9       9    -27     78     29     83 161.7  79.2  34018  287.18 0855.44
2009/04/23 08:19:30.0     -11    -41     73     43     84 195.1  66.2  34018  287.16 0855.45
2009/04/23 08:19:30.2      17      0     86     18     87  90.0  89.0  34016  287.13 0855.45
2009/04/23 08:19:30.3       3     50     98     51    110   3.6  70.8  34020  287.21 0855.45
2009/04/23 08:19:30.4     -81     29     80     87    118 290.0  47.9  34016  287.15 0855.45
2009/04/23 08:19:30.5     -45     60    103     76    128 323.0  60.0  34014  287.11 0855.45
2009/04/23 08:19:30.6     -43     54     71     70     99 321.3  50.1  34016  287.15 0855.45
2009/04/23 08:19:30.7     -41     38     80     57     98 313.1  60.6  34016  287.15 0855.45
2009/04/23 08:19:30.8     -83     27     67     88    110 288.4  41.2  34018  287.16 0855.45
2009/04/23 08:19:30.9     -91     61     37    110    117 303.7  18.9  34020  287.21 0855.45
2009/04/23 08:19:31.0     -99     20     32    101    107 281.5  17.9  34020  287.21 0855.45
2009/04/23 08:19:31.1     -51     12     17     53     56 284.2  18.4  34018  287.16 0855.45
2009/04/23 08:19:31.2     -14    -54     87     56    103 195.1  64.6  34018  287.18 0855.45
2009/04/23 08:19:31.3     -16   -110    104    112    152 188.5  47.9  34014  287.10 0855.45
2009/04/23 08:19:31.4    -129   -201     96    240    258 212.7  23.0  34022  287.24 0855.45
2009/04/23 08:19:31.5     -47   -144     80    152    171 198.3  29.8  34008  287.01 0855.45
2009/04/23 08:19:31.6       5   -177    153    178    234 178.2  45.1  34018  287.18 0855.45
2009/04/23 08:19:31.7      -1   -123    144    124    190 180.5  55.0  34022  287.23 0855.45
2009/04/23 08:19:31.8     -26   -102    179    106    208 194.7  66.8  34022  287.23 0855.45
2009/04/23 08:19:31.9     -75   -205    195    219    293 200.1  46.4  34016  287.14 0855.45
2009/04/23 08:19:32.0    -114   -157    106    195    221 216.0  31.3  34022  287.25 0855.45
2009/04/23 08:19:32.1    -162   -145     91    218    236 228.2  24.1  34030  287.38 0855.45
2009/04/23 08:19:32.2    -154   -165     80    226    240 223.0  19.6  34024  287.26 0855.45
2009/04/23 08:19:32.3       2   -117    111    118    162 178.6  48.2  34018  287.18 0855.45
2009/04/23 08:19:32.4      45   -101     90    111    142 155.9  43.7  34022  287.23 0855.45
2009/04/23 08:19:32.5      41    -87     72     97    120 154.5  40.1  34020  287.21 0855.45
2009/04/23 08:19:32.6      66    -90     42    112    119 143.5  21.0  34024  287.27 0855.45
2009/04/23 08:19:32.7      43    -85     43     96    105 152.8  25.7  34022  287.23 0855.45
2009/04/23 08:19:32.8      65   -117     26    134    137 151.0  11.0  34022  287.25 0855.45
2009/04/23 08:19:32.9      55   -137     23    148    150 158.1   8.9  34018  287.18 0855.45
2009/04/23 08:19:33.0      68   -123     33    141    145 151.1  13.2  34018  287.18 0855.45
2009/04/23 08:19:33.1      30    -92    -18     97     99 161.7 -10.9  34018  287.18 0855.45
2009/04/23 08:19:33.2      24   -158    -55    160    170 171.3 -18.9  34016  287.15 0855.45
2009/04/23 08:19:33.3      81   -202    -74    218    231 158.2 -18.7  34022  287.23 0855.45
2009/04/23 08:19:33.4      88   -219    -87    237    252 158.2 -25.4  34022  287.22 0855.45
2009/04/23 08:19:33.5       3   -212     10    213    214 179.0   2.9  34012  287.06 0855.45
2009/04/23 08:19:33.6      25   -324    -12    326    327 175.5  -2.2  34012  287.06 0855.45
2009/04/23 08:19:33.7     122   -344     -7    366    367 160.5  -1.2  34012  287.08 0855.45
2009/04/23 08:19:33.8      65   -314     29    321    323 168.2   5.3  34012  287.06 0855.45
2009/04/23 08:19:33.9     -22   -299    -13    300    301 184.4  -2.6  34016  287.14 0855.45
2009/04/23 08:19:34.0      -5   -301    -16    302    303 181.0  -3.2  34014  287.09 0855.45
2009/04/23 08:19:34.1      48   -358    -59    362    367 172.3  -9.3  34016  287.12 0855.45
2009/04/23 08:19:34.2      46   -340   -110    344    362 172.3 -17.7  34010  287.02 0855.45
2009/04/23 08:19:34.3      43   -361    -24    364    365 173.1  -3.9  34010  287.02 0855.45
2009/04/23 08:19:34.4      90   -274    -26    289    291 161.7  -5.2  34014  287.09 0855.45
2009/04/23 08:19:34.5      57   -261    -44    268    272 167.5  -9.3  34012  287.06 0855.45
2009/04/23 08:19:34.6      76   -266    -61    277    284 164.0 -12.6  34012  287.06 0855.45
2009/04/23 08:19:34.7     125   -244     -1    275    276 152.8  -0.3  34014  287.09 0855.45
2009/04/23 08:19:34.8     144   -237      2    278    279 148.6   0.5  34012  287.06 0855.45
2009/04/23 08:19:34.9     118   -222     30    252    254 152.0   6.9  34014  287.11 0855.45
2009/04/23 08:19:35.0     120   -159     95    200    221 142.8  27.2  34010  287.03 0855.45
2009/04/23 08:19:35.1      94   -132     87    163    184 144.4  30.6  34014  287.10 0855.45
2009/04/23 08:19:35.2     113   -180     81    213    227 147.9  21.7  34012  287.06 0855.45
2009/04/23 08:19:35.3     146   -184    143    236    275 141.5  34.0  34012  287.07 0855.45
2009/04/23 08:19:35.4      96   -144     93    174    197 146.2  30.6  34010  287.05 0855.45
2009/04/23 08:19:35.5     131   -125     66    182    193 133.6  20.4  34014  287.10 0855.45
2009/04/23 08:19:35.6     142   -127     61    191    201 131.8  17.9  34012  287.06 0855.45
2009/04/23 08:19:35.7     130    -46     77    138    158 109.5  31.6  34012  287.06 0855.45
2009/04/23 08:19:35.8     117    -19    120    119    169  99.2  49.9  34012  287.06 0855.45
2009/04/23 08:19:35.9      30     -8    105     32    109 105.1  82.3  34012  287.08 0855.45
2009/04/23 08:19:36.0      67    -96    112    118    162 145.3  48.7  34012  287.08 0855.45
2009/04/23 08:19:36.1      74    -75    118    106    158 135.5  53.3  34012  287.08 0855.45
2009/04/23 08:19:36.2      72   -116    113    137    177 147.9  43.8  34012  287.08 0855.45
2009/04/23 08:19:36.3      45   -129    127    137    186 160.8  47.9  34010  287.05 0855.45
2009/04/23 08:19:36.4      15   -183    122    184    220 175.1  36.7  34010  287.03 0855.45
2009/04/23 08:19:36.5      -3   -177    111    178    209 181.1  35.2  34014  287.10 0855.45
2009/04/23 08:19:36.6      25   -186     88    188    207 172.2  27.1  34012  287.06 0855.45
2009/04/23 08:19:36.7      76   -184     47    200    206 157.5  13.2  34014  287.11 0855.45
2009/04/23 08:19:36.8      99   -210     74    233    245 154.7  17.7  34014  287.11 0855.45
2009/04/23 08:19:36.9     176   -147      4    230    231 130.0   1.0  34014  287.10 0855.45
2009/04/23 08:19:37.0     129   -154     45    202    208 140.1  12.6  34012  287.06 0855.45
2009/04/23 08:19:37.1      94   -148     76    176    191 147.7  24.9  34008  287.01 0855.45
2009/04/23 08:19:37.2     -24   -139    160    142    213 189.8  54.0  34006  286.98 0855.45
2009/04/23 08:19:37.3      74   -125    108    146    181 149.3  40.1  34012  287.06 0855.45
2009/04/23 08:19:37.4     171   -203     99    266    283 139.9  21.0  34016  287.12 0855.45
2009/04/23 08:19:37.5     131   -127    123    183    220 134.2  37.3  34010  287.03 0855.45
2009/04/23 08:19:37.6      87    -62    115    108    157 125.5  52.0  34014  287.10 0855.45
2009/04/23 08:19:37.7      50    -50     94     72    118 134.9  58.5  34014  287.10 0855.45
2009/04/23 08:19:37.8      40    -17     98     44    107 113.5  74.0  34014  287.11 0855.45
2009/04/23 08:19:37.9     116    -15    116    117    164  97.5  50.2  34010  287.05 0855.45
2009/04/23 08:19:38.0     107     -3    138    108    175  92.1  57.9  34014  287.10 0855.45
2009/04/23 08:19:38.1       0     28     69     29     74   0.9  76.1  34012  287.06 0855.46
2009/04/23 08:19:38.2      17     17     88     25     91  45.0  83.9  34014  287.10 0855.46
2009/04/23 08:19:38.3       2     31     63     32     70   4.4  71.9  34016  287.13 0855.46
2009/04/23 08:19:38.4     -20      0     51     21     55 270.0  76.1  34014  287.10 0855.46
2009/04/23 08:19:38.5      58      0     36     59     69  89.2  35.5  34014  287.10 0855.46
2009/04/23 08:19:38.6      69    -32     46     77     89 115.3  34.0  34014  287.10 0855.46
2009/04/23 08:19:38.7      37    -42     58     57     81 138.6  50.1  34014  287.10 0855.46
2009/04/23 08:19:38.8      42    -36     74     56     92 131.3  58.5  34012  287.08 0855.46
2009/04/23 08:19:38.9      38    -17     87     42     96 114.4  72.8  34016  287.13 0855.46
2009/04/23 08:19:39.0      52     -3     77     53     93  94.3  62.6  34018  287.16 0855.46
2009/04/23 08:19:39.1      58     -6     57     59     82  96.1  49.4  34016  287.15 0855.46
2009/04/23 08:19:39.2      50     -3     41     51     65  93.5  43.7  34012  287.06 0855.46
2009/04/23 08:19:39.3      25     25     17     36     39  45.0  26.2  34014  287.10 0855.46
2009/04/23 08:19:39.4       0      2      9      3      9 350.3  81.0  34012  287.08 0855.46
2009/04/23 08:19:39.5     -24     -8     12     26     28 251.6  25.1  34012  287.06 0855.46
2009/04/23 08:19:39.6     -41      1     -1     42     43 271.7  -2.2  34010  287.03 0855.46
2009/04/23 08:19:39.7     -21     13    -22     26     34 302.5 -50.2  34010  287.03 0855.46
2009/04/23 08:19:39.8       4     61     12     62     64   4.5  11.1  34014  287.10 0855.46
2009/04/23 08:19:39.9      -8     71     -3     72     73 352.9  -3.1  34014  287.11 0855.46
2009/04/23 08:19:40.0     -13     77     -3     79     80 350.2  -2.2  34018  287.18 0855.46
2009/04/23 08:19:40.1       0     86      9     87     88 359.5   6.5  34018  287.16 0855.46
2009/04/23 08:19:40.2      -2     75      3     76     77 358.2   2.8  34014  287.11 0855.46
2009/04/23 08:19:40.3     -13     64     13     66     68 348.5  11.1  34012  287.06 0855.46
2009/04/23 08:19:40.4     -26     40     20     48     52 326.6  24.1  34014  287.11 0855.46
2009/04/23 08:19:40.5     -41     14     33     44     55 289.1  40.7  34014  287.11 0855.46
2009/04/23 08:19:40.6     -84     -1     52     85     99 269.2  34.4  34012  287.06 0855.46
2009/04/23 08:19:40.7    -107    -51     83    119    145 244.2  38.0  34012  287.08 0855.46
2009/04/23 08:19:40.8     -93    -65     61    114    129 234.9  30.3  34020  287.20 0855.46
2009/04/23 08:19:40.9     -32   -105     37    110    117 196.9  18.9  34016  287.15 0855.46
2009/04/23 08:19:41.0       7    -93     49     94    106 175.5  29.8  34012  287.06 0855.46
2009/04/23 08:19:41.1      11   -115     97    116    151 174.2  43.8  34016  287.15 0855.46
2009/04/23 08:19:41.2      -7    -80     73     81    109 185.3  47.5  34018  287.16 0855.46
2009/04/23 08:19:41.3     -95    -60    122    113    166 237.6  52.5  34018  287.16 0855.46
2009/04/23 08:19:41.4    -162    -31     71    166    180 259.0  24.3  34018  287.16 0855.46
2009/04/23 08:19:41.5    -160     -2     39    161    166 269.1  13.7  34020  287.20 0855.46
2009/04/23 08:19:41.6    -146    -49     36    155    160 251.4  13.2  34020  287.20 0855.46
2009/04/23 08:19:41.7    -135    -86     22    161    163 237.5   8.0  34020  287.21 0855.46
2009/04/23 08:19:41.8    -160    -70     11    175    176 246.3   3.8  34026  287.30 0855.46
2009/04/23 08:19:41.9    -209    -98     -4    231    232 244.8  -1.2  34024  287.27 0855.46
2009/04/23 08:19:42.0    -248    -34    -11    251    252 262.1  -2.6  34028  287.33 0855.46
2009/04/23 08:19:42.1    -270     25    -10    272    273 275.3  -2.2  34022  287.22 0855.45
2009/04/23 08:19:42.2    -275    104     15    295    296 290.8   2.9  34018  287.16 0855.45
2009/04/23 08:19:42.3    -258     14     50    259    264 273.3  11.1  34022  287.22 0855.45
2009/04/23 08:19:42.4     -90    -90    147    128    194 225.0  54.8  34016  287.15 0855.45
2009/04/23 08:19:42.5     -49   -202    196    208    285 193.8  48.0  34018  287.17 0855.45
2009/04/23 08:19:42.6     -90   -245    178    262    316 200.3  37.6  34020  287.21 0855.45
2009/04/23 08:19:42.7     -87   -242    117    258    283 199.8  26.2  34018  287.17 0855.45
2009/04/23 08:19:42.8     -45   -163     71    170    184 195.4  23.6  34016  287.15 0855.45
2009/04/23 08:19:42.9     -78   -217     47    231    236 200.0  11.6  34016  287.14 0855.45
2009/04/23 08:19:43.0    -215   -109    -67    242    252 243.0 -15.5  34010  287.02 0855.45
2009/04/23 08:19:43.1    -320    -35    -68    323    331 263.7 -11.9  33984  286.58 0855.45
2009/04/23 08:19:43.2    -332    -25    -43    333    336 265.6  -7.4  33996  286.81 0855.45
2009/04/23 08:19:43.3    -269    -56    -33    275    278 258.1  -6.9  33984  286.60 0855.45
2009/04/23 08:19:43.4    -270    -88    -27    285    287 251.8  -5.6  33982  286.55 0855.45
2009/04/23 08:19:43.5    -294    -89    -43    308    312 253.2  -8.0  33982  286.57 0855.45
2009/04/23 08:19:43.6    -264    -79    -76    276    287 253.2 -15.5  33982  286.57 0855.45
2009/04/23 08:19:43.7    -259    -57    -74    266    276 257.6 -20.2  33984  286.60 0855.45
2009/04/23 08:19:43.8    -261    -53    -75    267    277 258.3 -20.4  33984  286.58 0855.45
2009/04/23 08:19:43.9    -242    -62    -89    250    266 255.6 -19.6  33984  286.58 0855.45
2009/04/23 08:19:44.0    -229    -51    -78    235    248 257.2 -18.6  33988  286.65 0855.45
2009/04/23 08:19:44.1    -220    -10    -96    221    240 267.4 -29.5  33986  286.62 0855.45
2009/04/23 08:19:44.2    -219     -2   -145    220    263 269.4 -40.9  33986  286.63 0855.45
2009/04/23 08:19:44.3    -270    -94   -148    287    322 250.7 -33.7  33994  286.77 0855.45
2009/04/23 08:19:44.4    -281   -121   -125    306    330 246.7 -27.9  33994  286.77 0855.45
2009/04/23 08:19:44.5    -273    -76    -78    284    295 254.3 -15.5  33988  286.67 0855.45
2009/04/23 08:19:44.6    -279    -65    -88    287    300 256.7 -21.8  33994  286.77 0855.45
2009/04/23 08:19:44.7    -229   -148   -173    273    323 237.1 -39.9  33998  286.84 0855.45
2009/04/23 08:19:44.8    -224   -144   -144    267    303 237.1 -35.0  33996  286.80 0855.45
2009/04/23 08:19:44.9    -290   -198    -72    352    360 235.7 -11.6  34000  286.86 0855.45
2009/04/23 08:19:45.0    -279   -230   -154    362    393 230.5 -28.9  34000  286.86 0855.45
2009/04/23 08:19:45.1    -154    -94   -218    181    283 238.5 -60.7  34004  286.92 0855.45
2009/04/23 08:19:45.2    -136    -87   -197    162    255 237.5 -60.8  34000  286.88 0855.45
2009/04/23 08:19:45.3    -147    -69   -155    163    224 244.6 -53.1  33998  286.84 0855.45
2009/04/23 08:19:45.4    -171    -87   -128    193    231 242.9 -40.7  34000  286.86 0855.45
2009/04/23 08:19:45.5    -148    -89   -139    174    222 238.9 -47.1  34000  286.88 0855.45
2009/04/23 08:19:45.6    -139    -72   -139    157    209 242.5 -50.3  34000  286.86 0855.45
2009/04/23 08:19:45.7    -141    -56   -146    152    210 248.3 -53.4  34002  286.89 0855.45
2009/04/23 08:19:45.8     -83    -90    -92    123    153 222.8 -44.5  34000  286.86 0855.45
2009/04/23 08:19:45.9     -35   -163    -30    167    170 192.3 -10.5  33998  286.83 0855.45
2009/04/23 08:19:46.0    -121   -106    -32    162    166 228.7 -11.3  34000  286.88 0855.45
2009/04/23 08:19:46.1    -184     -8    -24    185    187 267.4  -7.5  34000  286.86 0855.45
2009/04/23 08:19:46.2    -214     48    -69    220    231 282.8 -17.5  34000  286.86 0855.45
2009/04/23 08:19:46.3    -181     61    -60    192    202 288.6 -17.5  34000  286.88 0855.45
2009/04/23 08:19:46.4    -144     93    -12    172    173 302.9  -4.1  33996  286.79 0855.45
2009/04/23 08:19:46.5    -106    136      3    173    174 321.9   1.2  34000  286.86 0855.45
2009/04/23 08:19:46.6    -191     22     19    193    194 276.6   5.7  34000  286.86 0855.45
2009/04/23 08:19:46.7    -234     83    -71    249    260 289.5 -16.0  34002  286.89 0855.45
2009/04/23 08:19:46.8    -245     90    -14    262    263 290.2  -3.2  33994  286.75 0855.45
2009/04/23 08:19:46.9    -225     53    -46    232    237 283.3 -11.3  34002  286.90 0855.45
2009/04/23 08:19:47.0    -226      3    -67    227    236 270.8 -21.2  34008  287.01 0855.45
2009/04/23 08:19:47.1    -180    -37    -57    184    192 258.1 -22.5  34008  287.00 0855.45
2009/04/23 08:19:47.2    -108    -89    -89    140    165 230.5 -39.9  34008  287.01 0855.45
2009/04/23 08:19:47.3    -144    -58   -110    156    190 247.8 -43.2  34008  287.00 0855.45
2009/04/23 08:19:47.4    -117    -60   -120    132    178 242.9 -51.9  34010  287.03 0855.45
2009/04/23 08:19:47.5    -120    -69   -124    139    186 240.2 -50.8  34010  287.03 0855.45
2009/04/23 08:19:47.6    -125    -50   -156    135    206 248.2 -59.2  34008  287.01 0855.45
2009/04/23 08:19:47.7    -104    -33    -39    110    117 252.3 -19.7  33992  286.73 0855.45
2009/04/23 08:19:47.8    -172   -132     77    217    231 232.5  19.6  34006  286.98 0855.45
2009/04/23 08:19:47.9    -180    -69   -111    193    222 248.9 -37.1  34002  286.89 0855.45
2009/04/23 08:19:48.0    -191     12   -164    192    252 273.7 -49.3  34002  286.89 0855.45
2009/04/23 08:19:48.1    -160      7   -170    161    234 272.6 -55.8  34006  286.96 0855.45
2009/04/23 08:19:48.2    -148   -115    -52    188    196 232.2 -15.4  34004  286.93 0855.45
2009/04/23 08:19:48.3    -180   -140    -97    229    248 232.2 -28.6  34008  287.01 0855.45
2009/04/23 08:19:48.4    -168   -177   -114    245    270 223.4 -31.4  34012  287.06 0855.45
2009/04/23 08:19:48.5    -198   -171   -137    262    295 229.1 -33.9  34008  286.99 0855.45
2009/04/23 08:19:48.6    -185   -168   -144    251    289 227.8 -36.8  34008  286.99 0855.45
2009/04/23 08:19:48.7     -82   -148   -137    170    218 209.0 -47.7  34014  287.10 0855.45
2009/04/23 08:19:48.8    -203   -160   -141    259    294 231.8 -35.7  34014  287.11 0855.45
2009/04/23 08:19:48.9    -228   -160   -148    279    315 234.9 -34.6  34010  287.04 0855.45
2009/04/23 08:19:49.0    -252   -140   -111    289    309 240.9 -26.4  34014  287.11 0855.45
2009/04/23 08:19:49.1    -212   -169   -107    272    292 231.4 -27.2  34012  287.07 0855.45
2009/04/23 08:19:49.2      24   -160   -142    162    215 171.3 -50.2  34010  287.05 0855.45
2009/04/23 08:19:49.3      80   -216   -139    231    269 159.7 -38.4  34010  287.04 0855.45
2009/04/23 08:19:49.4      51   -213   -125    220    253 166.4 -36.7  34014  287.09 0855.45
2009/04/23 08:19:49.5      10   -219   -133    220    257 177.3 -38.4  34014  287.09 0855.45
2009/04/23 08:19:49.6      33   -159   -116    163    200 168.2 -43.5  34010  287.05 0855.45
2009/04/23 08:19:49.7      50   -105    -80    117    141 154.5 -42.0  34008  287.00 0855.45
2009/04/23 08:19:49.8     -26    -55    -66     61     89 205.3 -56.6  34010  287.05 0855.45
2009/04/23 08:19:49.9     -34    -16    -66     38     76 244.7 -71.2  34012  287.06 0855.45
2009/04/23 08:19:50.0      59     38    -96     71    119  57.5 -64.4  34010  287.05 0855.45
2009/04/23 08:19:50.1      57      4    -92     58    108  85.6 -69.1  34012  287.08 0855.45
2009/04/23 08:19:50.2      31     31   -103     45    112  45.0 -79.4  34010  287.03 0855.45
2009/04/23 08:19:50.3      68     29    -94     75    120  66.5 -61.9  34008  287.01 0855.45
2009/04/23 08:19:50.4     107     16   -133    109    171  81.2 -60.8  34014  287.10 0855.45
2009/04/23 08:19:50.5     126     42   -153    134    203  71.4 -58.7  34014  287.11 0855.45
2009/04/23 08:19:50.6     146    103   -116    179    213  54.7 -40.0  34014  287.10 0855.45
2009/04/23 08:19:50.7     134    169   -130    216    252  38.5 -38.6  34010  287.02 0855.45
2009/04/23 08:19:50.8     131    127   -109    183    213  45.8 -38.1  34008  287.01 0855.45
2009/04/23 08:19:50.9     145     58    -62    157    168  68.3 -26.9  34004  286.94 0855.45
2009/04/23 08:19:51.0     133     83      4    157    158  58.0   1.8  34008  287.00 0855.45
2009/04/23 08:19:51.1      42    138     18    145    147  17.0   7.1  34006  286.98 0855.46
2009/04/23 08:19:51.2      71    209    -24    221    223  18.9  -6.2  34008  287.01 0855.46
2009/04/23 08:19:51.3     108    134     30    173    176  39.0  10.1  34000  286.88 0855.46
2009/04/23 08:19:51.4     127    135    -94    186    208  43.2 -33.5  34008  287.00 0855.46
2009/04/23 08:19:51.5     158     84     -7    180    181  62.0  -2.2  34004  286.94 0855.46
2009/04/23 08:19:51.6     250    -86    -85    265    279 109.1 -17.9  34008  286.99 0855.46
2009/04/23 08:19:51.7     292   -155    -85    331    342 118.0 -14.5  34006  286.96 0855.46
2009/04/23 08:19:51.8     283   -128   -104    311    329 114.4 -18.6  34006  286.97 0855.46
2009/04/23 08:19:51.9     216    -60   -163    225    277 105.5 -44.1  34006  286.97 0855.46
2009/04/23 08:19:52.0     244    -36   -105    247    268  98.6 -28.7  34004  286.94 0855.46
2009/04/23 08:19:52.1     246    -77   -215    258    335 107.5 -48.5  34008  287.01 0855.46
2009/04/23 08:19:52.2     136   -312   -137    341    367 156.5 -27.4  34006  286.96 0855.46
2009/04/23 08:19:52.3      30   -381   -127    383    403 175.4 -23.7  34004  286.93 0855.46
2009/04/23 08:19:52.4     128   -540     -6    556    557 166.6  -0.7  34004  286.93 0855.46
2009/04/23 08:19:52.5     136   -476     61    496    500 164.0   7.1  34006  286.98 0855.46
2009/04/23 08:19:52.6      70   -452    174    458    489 171.1  22.0  34004  286.93 0855.46
2009/04/23 08:19:52.7      78   -404    106    412    426 169.0  14.5  34002  286.91 0855.46
2009/04/23 08:19:52.8      51   -435     85    439    448 173.2  11.0  34006  286.96 0855.46
2009/04/23 08:19:52.9     -24   -497     76    498    504 182.8   8.7  34000  286.88 0855.46
2009/04/23 08:19:53.0     -24   -443     42    444    447 183.2   5.5  34002  286.89 0855.46
2009/04/23 08:19:53.1     -15   -493      8    494    495 181.8   1.0  34006  286.95 0855.48
2009/04/23 08:19:53.2      21   -466    -21    467    468 177.3  -2.7  34006  286.97 0855.48
2009/04/23 08:19:53.3     106   -491     42    503    505 167.7   4.9  34000  286.88 0855.48
2009/04/23 08:19:53.4      85   -516     15    524    525 170.6   1.7  34004  286.93 0855.48
2009/04/23 08:19:53.5      -1   -581     12    582    583 180.1   1.2  34000  286.87 0855.48
2009/04/23 08:19:53.6     -12   -574    -13    575    576 181.3  -1.4  34006  286.95 0855.48
2009/04/23 08:19:53.7     -38   -520    -47    522    525 184.2  -5.2  34006  286.96 0855.48
2009/04/23 08:19:53.8     -27   -503    -66    504    509 183.1  -7.5  34002  286.90 0855.48
2009/04/23 08:19:53.9       4   -477    -40    478    480 179.5  -4.8  33998  286.83 0855.48
2009/04/23 08:19:54.0      76   -561    103    567    577 172.2  10.4  34006  286.95 0855.48
2009/04/23 08:19:54.1     126   -493     96    509    519 165.6  10.7  34004  286.93 0855.48
2009/04/23 08:19:54.2      22   -470    121    471    487 177.3  14.4  34004  286.93 0855.48
2009/04/23 08:19:54.3      86   -462     29    470    471 169.4   3.6  34004  286.92 0855.48
2009/04/23 08:19:54.4     152   -444     34    470    472 161.1   4.2  34010  287.04 0855.48
2009/04/23 08:19:54.5     198   -473    114    513    526 157.3  12.6  34010  287.05 0855.48
2009/04/23 08:19:54.6     185   -485    102    520    531 159.1  11.1  34010  287.05 0855.48
2009/04/23 08:19:54.7     214   -360     69    420    426 149.3   9.3  34006  286.97 0855.48
2009/04/23 08:19:54.8     229   -308      4    384    385 143.4   0.7  34010  287.03 0855.48
2009/04/23 08:19:54.9     173   -337    156    379    409 152.8  23.6  34006  286.98 0855.48
2009/04/23 08:19:55.0      59   -351    -15    356    357 170.4  -2.5  34008  287.00 0855.48
2009/04/23 08:19:55.1      29   -288     -9    290    291 174.2  -1.8  34008  287.01 0855.48
2009/04/23 08:19:55.2     122   -276    -26    302    304 156.2  -5.1  34006  286.97 0855.48
2009/04/23 08:19:55.3     123   -247    -79    277    289 153.5 -16.0  34002  286.90 0855.48
2009/04/23 08:19:55.4      33   -251    -56    254    261 172.4 -12.6  34004  286.92 0855.48
2009/04/23 08:19:55.6      13   -196    -47    197    203 176.0 -13.4  34002  286.91 0855.48
2009/04/23 08:19:55.6      26   -191    -25    193    195 172.0  -7.5  34004  286.93 0855.48
2009/04/23 08:19:55.7      39   -153     -9    158    159 165.7  -3.3  34002  286.89 0855.48
2009/04/23 08:19:55.9      20    -99     -4    102    103 168.4  -2.6  34002  286.91 0855.48
2009/04/23 08:19:56.0      14    -99    -33    101    106 172.0 -23.8  34006  286.96 0855.48
2009/04/23 08:19:56.1      62   -122    -78    138    158 152.9 -36.5  34004  286.94 0855.48
2009/04/23 08:19:56.2     108   -194    -73    223    234 151.0 -23.3  34002  286.89 0855.48
2009/04/23 08:19:56.2     128   -217     -5    253    254 149.5  -1.3  34004  286.92 0855.48
2009/04/23 08:19:56.4     161   -188    -46    248    253 139.5 -10.5  34004  286.92 0855.48
2009/04/23 08:19:56.5     185   -180    -25    259    261 134.2  -5.6  34004  286.94 0855.48
2009/04/23 08:19:56.6     228   -144    -29    270    272 122.4  -6.2  34006  286.95 0855.48
2009/04/23 08:19:56.7     232   -132    131    268    298 119.7  28.0  34006  286.95 0855.48
2009/04/23 08:19:56.8     169   -195     50    259    264 139.0  11.1  34006  286.95 0855.48
2009/04/23 08:19:56.9     247   -276    -20    371    372 138.2  -3.1  34004  286.93 0855.48
2009/04/23 08:19:57.0     223   -353     73    418    425 147.7  10.0  34006  286.96 0855.48
2009/04/23 08:19:57.1     170   -327     88    369    380 152.5  13.5  34004  286.93 0855.48
2009/04/23 08:19:57.2      95   -225    126    245    275 157.1  29.3  34008  286.99 0855.49
2009/04/23 08:19:57.3      55   -272    105    278    297 168.4  21.7  34008  286.99 0855.49
2009/04/23 08:19:57.4     114   -191    125    223    255 149.3  31.6  34004  286.92 0855.49
2009/04/23 08:19:57.5      90   -186    -26    207    209 154.1  -7.3  34000  286.86 0855.49
2009/04/23 08:19:57.6      67   -165   -118    179    214 157.9 -40.7  34004  286.94 0855.49
2009/04/23 08:19:57.7      31    -89    -63     95    113 160.8 -40.4  34008  287.01 0855.49
2009/04/23 08:19:57.8      43    -91    -61    101    117 154.5 -38.4  34006  286.96 0855.49
2009/04/23 08:19:57.9      41    -77      3     88     89 151.9   2.3  34006  286.96 0855.49
2009/04/23 08:19:58.0     136   -145     23    199    201 136.8   6.7  34006  286.96 0855.49
2009/04/23 08:19:58.1      99   -314    -51    330    335 162.4  -8.9  34004  286.93 0855.49
2009/04/23 08:19:58.2     118   -384    -39    402    404 162.8  -5.6  34006  286.97 0855.49
2009/04/23 08:19:58.3     156   -266   -104    309    327 149.6 -18.7  34008  286.99 0855.49
2009/04/23 08:19:58.4     177   -296   -113    346    365 149.1 -18.2  34002  286.90 0855.49
2009/04/23 08:19:58.5     146   -376    -32    404    406 158.7  -4.6  34004  286.92 0855.49
2009/04/23 08:19:58.6     135   -431   -160    452    480 162.6 -19.6  34010  287.04 0855.49
2009/04/23 08:19:58.7      89   -478   -114    487    501 169.4 -13.2  34006  286.97 0855.49
2009/04/23 08:19:58.8      42   -434    -55    437    441 174.4  -7.2  33994  286.77 0855.49
2009/04/23 08:19:58.9     -30   -475     40    476    478 183.6   4.9  34000  286.88 0855.49
2009/04/23 08:19:59.0    -102   -401     18    414    415 194.3   2.5  33998  286.82 0855.49
2009/04/23 08:19:59.1      18   -414     80    415    423 177.4  11.0  34006  286.96 0855.49
2009/04/23 08:19:59.2      67   -472    -18    477    478 171.9  -2.2  34004  286.93 0855.50
2009/04/23 08:19:59.3      46   -495     69    498    503 174.7   7.9  34008  287.00 0855.50
2009/04/23 08:19:59.4      78   -557    110    563    574 172.0  11.1  34008  286.99 0855.50
2009/04/23 08:19:59.5     132   -470     30    489    490 164.3   3.6  34006  286.97 0855.50
2009/04/23 08:19:59.6     101   -475     24    486    487 167.9   2.9  34006  286.98 0855.50
2009/04/23 08:19:59.7      41   -485      9    487    488 175.1   1.1  34010  287.04 0855.50
2009/04/23 08:19:59.8      44   -466    -35    469    471 174.6  -4.4  34008  287.00 0855.50
2009/04/23 08:19:59.9      73   -492    -78    498    505 171.5  -8.9  34010  287.05 0855.50
2009/04/23 08:20:00.0      27   -499    -10    500    501 176.9  -1.2  34010  287.04 0855.50
2009/04/23 08:20:00.1     -39   -517    -37    519    521 184.4  -4.1  34008  287.01 0855.50
2009/04/23 08:20:00.2      38   -498    -63    500    504 175.6  -7.2  34012  287.07 0855.50
2009/04/23 08:20:00.3     118   -484    -64    499    504 166.3  -7.3  34010  287.04 0855.50
2009/04/23 08:20:00.4     118   -412    -66    429    435 164.0  -8.8  34010  287.03 0855.50
2009/04/23 08:20:00.5     109   -366    -34    382    384 163.4  -5.1  34010  287.05 0855.50
2009/04/23 08:20:00.6      90   -410    -82    420    429 167.5 -11.1  34012  287.08 0855.50
2009/04/23 08:20:00.7     116   -453    -90    468    477 165.6 -11.0  34014  287.09 0855.50
2009/04/23 08:20:00.8     114   -382    -72    399    406 163.3 -10.3  34012  287.06 0855.50
2009/04/23 08:20:00.9      40   -372    -36    375    377 173.8  -5.6  34010  287.05 0855.50
2009/04/23 08:20:01.0       6   -395    -43    396    399 179.0  -6.2  34012  287.07 0855.50
2009/04/23 08:20:01.1      16   -374    -14    375    376 177.5  -2.2  34010  287.03 0855.50
2009/04/23 08:20:01.2      82   -369    -17    379    380 167.5  -2.7  34010  287.03 0855.51
2009/04/23 08:20:01.3     120   -382    -81    401    410 162.5 -11.5  34014  287.09 0855.51
2009/04/23 08:20:01.4      28   -434    -26    435    436 176.3  -3.5  34012  287.06 0855.51
2009/04/23 08:20:01.5      42   -443     -2    446    447 174.6  -0.3  34012  287.08 0855.51
2009/04/23 08:20:01.6      51   -444      3    447    448 173.4   0.5  34016  287.13 0855.51
2009/04/23 08:20:01.7      91   -416     -9    426    427 167.6  -1.3  34014  287.11 0855.51
2009/04/23 08:20:01.8      28   -436    -69    437    443 176.2  -9.0  34012  287.08 0855.51
2009/04/23 08:20:01.9      52   -413    -23    417    418 172.8  -3.2  34014  287.09 0855.51
2009/04/23 08:20:02.0      87   -395    -42    405    408 167.5  -6.0  34014  287.09 0855.51
2009/04/23 08:20:02.1     155   -365      0    397    398 157.0   0.1  34016  287.12 0855.51
2009/04/23 08:20:02.2     144   -368     24    396    397 158.6   3.5  34016  287.13 0855.51
2009/04/23 08:20:02.3     133   -323     28    350    352 157.6   4.6  34016  287.12 0855.51
2009/04/23 08:20:02.4     158   -322     52    359    363 153.8   8.3  34012  287.08 0855.51
2009/04/23 08:20:02.5     136   -332     36    359    361 157.7   5.8  34014  287.10 0855.51
2009/04/23 08:20:02.6     153   -324     55    359    364 154.7   8.8  34016  287.13 0855.51
2009/04/23 08:20:02.7     154   -314     68    350    357 153.8  11.0  34016  287.12 0855.51
2009/04/23 08:20:02.8     149   -263    112    303    323 150.4  21.1  34012  287.07 0855.51
2009/04/23 08:20:02.9     165   -303    124    346    367 151.4  20.6  34010  287.03 0855.51
2009/04/23 08:20:03.0     150   -317    165    351    387 154.7  27.1  34016  287.12 0855.51
2009/04/23 08:20:03.1     103   -278    130    297    324 159.5  25.2  34012  287.06 0855.51
2009/04/23 08:20:03.2     198   -310    110    369    386 147.4  16.7  34016  287.15 0855.54
2009/04/23 08:20:03.3     190   -341     61    391    396 150.8   8.9  34014  287.10 0855.54
2009/04/23 08:20:03.4     194   -293     31    352    354 146.4   5.1  34016  287.12 0855.54
2009/04/23 08:20:03.5     181   -289     54    342    347 147.9   9.0  34014  287.10 0855.54
2009/04/23 08:20:03.6     171   -252     58    305    311 145.8  10.8  34014  287.09 0855.54
2009/04/23 08:20:03.7     174   -210     32    273    275 140.3   6.7  34016  287.14 0855.54
2009/04/23 08:20:03.8     134   -216     51    255    261 148.3  11.4  34016  287.12 0855.54
2009/04/23 08:20:03.9     166   -277     36    324    327 149.0   6.4  34014  287.11 0855.54
2009/04/23 08:20:04.0     195   -251     44    319    322 142.2   7.9  34012  287.06 0855.54
2009/04/23 08:20:04.1     161   -251     70    299    308 147.4  13.2  34012  287.07 0855.54
2009/04/23 08:20:04.2     115   -334     83    354    364 161.0  13.2  34010  287.05 0855.54
2009/04/23 08:20:04.3     110   -331     22    350    351 161.5   3.6  34006  286.96 0855.54
2009/04/23 08:20:04.4     182   -452     97    488    498 158.1  11.3  34008  287.00 0855.54
2009/04/23 08:20:04.5     141   -323     94    353    366 156.4  14.9  34006  286.98 0855.54
2009/04/23 08:20:04.6     134   -379     20    403    404 160.5   2.9  34008  287.01 0855.54
2009/04/23 08:20:04.7     150   -365     62    395    400 157.6   9.0  34008  287.00 0855.54
2009/04/23 08:20:04.8     199   -313     97    372    385 147.5  14.6  34010  287.02 0855.54
2009/04/23 08:20:04.9     181   -293    149    345    375 148.3  24.9  34010  287.03 0855.54
2009/04/23 08:20:05.0     186   -273    115    331    351 145.8  19.2  34006  286.98 0855.54
2009/04/23 08:20:05.1     217   -196    113    293    314 132.0  22.2  34012  287.06 0855.54
2009/04/23 08:20:05.2     165   -140    130    217    252 130.4  34.0  34012  287.06 0855.54
2009/04/23 08:20:05.3     175   -124    172    215    275 125.3  42.7  34012  287.06 0855.54
2009/04/23 08:20:05.4     214   -164    226    270    352 127.5  44.2  34010  287.02 0855.54
2009/04/23 08:20:05.5     173    -98    229    199    303 119.5  54.6  34014  287.09 0855.54
2009/04/23 08:20:05.6      84   -181    147    200    248 155.1  39.9  34008  287.01 0855.54
2009/04/23 08:20:05.7     137   -181    135    228    264 142.8  33.4  34014  287.09 0855.54
2009/04/23 08:20:05.8     161   -162     93    229    247 135.2  23.4  34012  287.06 0855.54
2009/04/23 08:20:05.9     169   -218    130    277    305 142.2  27.1  34006  286.97 0855.54
2009/04/23 08:20:06.0     308   -210     80    373    382 124.3  12.1  34008  287.00 0855.54
2009/04/23 08:20:06.1     355   -210    -34    413    415 120.7  -4.8  34010  287.04 0855.54
2009/04/23 08:20:06.2     374   -271    -25    463    464 126.0  -3.1  34010  287.03 0855.54
2009/04/23 08:20:06.3     384   -191     56    430    434 116.5   7.4  34012  287.08 0855.54
2009/04/23 08:20:06.4     357   -182    105    401    415 117.1  14.7  34010  287.04 0855.54
2009/04/23 08:20:06.5     224   -239    -43    328    331 136.9  -7.5  34010  287.05 0855.54
2009/04/23 08:20:06.6     168   -195     19    258    259 139.2   4.4  34010  287.04 0855.54
2009/04/23 08:20:06.7     122   -159    -58    201    209 142.6 -21.0  34010  287.03 0855.54
2009/04/23 08:20:06.8     139   -147   -136    203    244 136.6 -41.1  34008  287.01 0855.54
2009/04/23 08:20:06.9     135    -86   -102    161    190 122.4 -39.9  34004  286.93 0855.54
2009/04/23 08:20:07.0      73   -189     17    203    204 158.8   5.0  34000  286.88 0855.54
2009/04/23 08:20:07.1      81   -158     98    178    203 152.6  31.4  34006  286.98 0855.54
2009/04/23 08:20:07.2     132   -140     74    193    206 136.8  22.0  34008  287.00 0855.55
2009/04/23 08:20:07.3     134    -91     78    162    179 124.2  27.4  34006  286.98 0855.55
2009/04/23 08:20:07.4     163    -93     99    188    212 119.8  30.1  34010  287.03 0855.55
2009/04/23 08:20:07.5     176    -44     68    182    194 104.2  21.3  34008  287.00 0855.55
2009/04/23 08:20:07.6     171    -80     88    189    208 115.1  27.1  34008  287.01 0855.55
2009/04/23 08:20:07.7     134    -41     51    141    149 106.9  20.4  34010  287.03 0855.55
2009/04/23 08:20:07.8     175    -13     82    176    194  94.4  27.1  34010  287.05 0855.55
2009/04/23 08:20:07.9     132    -26    118    135    179 101.5  45.6  34012  287.08 0855.55
2009/04/23 08:20:08.0     134    -44     75    142    160 108.2  30.1  34010  287.05 0855.55
2009/04/23 08:20:08.1     128    -65     39    144    150 117.0  15.3  34010  287.03 0855.55
2009/04/23 08:20:08.2     146    -80     36    167    171 118.8  12.2  34012  287.08 0855.55
2009/04/23 08:20:08.3     133    -40      8    140    141 106.9   3.3  34010  287.05 0855.55
2009/04/23 08:20:08.4     137    -20     47    139    147  98.4  18.9  34012  287.06 0855.55
2009/04/23 08:20:08.5     132      0     17    133    135  90.0   7.5  34010  287.05 0855.55
2009/04/23 08:20:08.6     121     20     43    123    131  80.3  19.4  34010  287.05 0855.55
2009/04/23 08:20:08.7     141     31     58    145    156  77.6  23.0  34012  287.06 0855.55
2009/04/23 08:20:08.8     172     37     31    177    180  77.8  10.1  34010  287.03 0855.55
2009/04/23 08:20:08.9     133     22     -4    135    136  80.3  -1.8  34008  287.01 0855.55
2009/04/23 08:20:09.0     133    -15     47    134    143  96.6  19.4  34010  287.03 0855.55
2009/04/23 08:20:09.1     127     -5     56    128    139  92.5  25.1  34008  287.00 0855.55
2009/04/23 08:20:09.2     170     32     27    174    177  79.2   8.8  34010  287.03 0855.52
2009/04/23 08:20:09.3     200     15     -4    201    202  85.6  -1.3  34010  287.03 0855.52
2009/04/23 08:20:09.4     169     69     97    183    207  67.8  30.3  34026  287.30 0855.52
2009/04/23 08:20:09.5     224      9     84    225    240  87.6  21.3  34012  287.06 0855.52
2009/04/23 08:20:09.7     333     67     39    340    343  78.5   6.6  34082  288.25 0855.52
2009/04/23 08:20:09.7     302     81     10    313    314  75.0   1.9  34198  290.20 0855.52
2009/04/23 08:20:09.8     312     29     76    314    324  84.7  13.6  34052  287.73 0855.52
2009/04/23 08:20:09.9     258      0     49    259    264  89.9  10.8  34026  287.29 0855.52
2009/04/23 08:20:10.0     211      3     49    212    218  89.2  13.2  34032  287.42 0855.52
2009/04/23 08:20:10.1     198    -40     96    202    223 101.5  27.3  34030  287.38 0855.52
2009/04/23 08:20:10.2     190    -66    152    202    252 109.3  40.7  34010  287.02 0855.52
2009/04/23 08:20:10.3     211    -21    142    213    255  95.7  36.7  34010  287.04 0855.52
2009/04/23 08:20:10.4     145      0    119    146    188  90.0  43.7  34028  287.35 0855.52
2009/04/23 08:20:10.5     180     12    166    181    245  86.1  47.1  34012  287.06 0855.52
2009/04/23 08:20:10.6     128     -9    165    129    209  94.4  58.2  34012  287.06 0855.52
2009/04/23 08:20:10.7      58     23    124     63    139  68.3  71.0  34014  287.10 0855.52
2009/04/23 08:20:10.8      58      4     91     59    108  85.6  64.6  34010  287.05 0855.52
2009/04/23 08:20:10.9      97    -75     73    123    143 127.8  33.5  34010  287.03 0855.52
2009/04/23 08:20:11.0      53    -49     52     73     89 133.1  39.1  34006  286.98 0855.52
2009/04/23 08:20:11.1      17    -39     44     43     61 156.4  50.1  34010  287.05 0855.52
2009/04/23 08:20:11.2     -16    -91     78     93    121 190.2  44.3  34008  287.01 0855.50
2009/04/23 08:20:11.3     -42    -96     40    105    112 203.6  21.5  34014  287.10 0855.50
2009/04/23 08:20:11.4     -42    -89     53     99    112 205.5  30.8  34014  287.10 0855.50
2009/04/23 08:20:11.5     -36   -107     81    114    139 198.7  39.5  34006  286.98 0855.50
2009/04/23 08:20:11.6     -28    -83     91     88    126 199.2  50.7  34008  287.01 0855.50
2009/04/23 08:20:11.7     -17    -88    100     90    134 191.1  53.3  34008  287.01 0855.50
2009/04/23 08:20:11.8     -10    -81     68     82    106 187.6  43.8  34008  287.01 0855.50
2009/04/23 08:20:11.9      -5    -75     21     76     79 184.4  15.8  34010  287.03 0855.50
2009/04/23 08:20:12.0      -1    -56     11     57     59 181.8  11.0  34008  287.01 0855.50
2009/04/23 08:20:12.1       9    -29     -1     31     32 161.7  -2.2  34010  287.03 0855.50
2009/04/23 08:20:12.2      36    -35     -6     51     52 134.1  -7.3  34010  287.03 0855.46
2009/04/23 08:20:12.3      49    -15    -15     52     54 106.8 -21.7  34010  287.05 0855.46
2009/04/23 08:20:12.4      53     -6     -2     54     55  97.0  -2.2  34010  287.03 0855.46
2009/04/23 08:20:12.5      62    -11     -3     64     65 100.6  -3.1  34010  287.03 0855.46
2009/04/23 08:20:12.6      -5    -44     34     45     56 187.1  40.7  34010  287.03 0855.46
2009/04/23 08:20:12.7      43    -38     69     58     90 131.3  56.3  34010  287.03 0855.46
2009/04/23 08:20:12.8      67     -1     79     68    104  90.9  54.8  34010  287.03 0855.46
2009/04/23 08:20:12.9      57    -34     86     67    109 120.7  57.9  34012  287.08 0855.46
2009/04/23 08:20:13.0      69      1     90     70    114  89.1  57.9  34012  287.08 0855.46
2009/04/23 08:20:13.1      68     15     66     70     96  77.6  49.0  34010  287.03 0855.46
2009/04/23 08:20:13.2      20      2     52     21     56  82.1  78.2  34012  287.06 0855.46
2009/04/23 08:20:13.3     -16    -18     51     25     56 221.4  72.8  34010  287.05 0855.46
2009/04/23 08:20:13.4     -77    -63      2    100    101 230.5   1.2  34012  287.06 0855.46
2009/04/23 08:20:13.5    -100    -39    -21    108    111 248.3 -11.3  34010  287.03 0855.46
2009/04/23 08:20:13.6    -134   -119    -64    180    192 228.2 -19.7  34008  287.01 0855.46
2009/04/23 08:20:13.7    -115   -112    -16    161    162 225.6  -6.0  34006  286.96 0855.46
2009/04/23 08:20:13.8     -37   -124     60    130    143 197.0  26.6  34008  287.00 0855.46
2009/04/23 08:20:13.9     -46    -70    102     85    132 213.4  56.3  34010  287.05 0855.46
2009/04/23 08:20:14.0     -26    -70     79     75    108 200.9  51.6  34010  287.03 0855.46
2009/04/23 08:20:14.1      10   -100     59    101    116 173.8  33.5  34008  287.00 0855.46
2009/04/23 08:20:14.3      -5    -90     11     91     92 183.6   7.5  34008  287.01 0855.45
2009/04/23 08:20:14.3      14   -107    -53    108    120 172.4 -32.2  34008  287.01 0855.45
2009/04/23 08:20:14.4      42   -108    -42    117    124 158.6 -24.4  34008  287.01 0855.45
2009/04/23 08:20:14.5      41   -124    -16    131    133 161.5  -7.3  34010  287.03 0855.45
2009/04/23 08:20:14.6      45   -110    -33    119    124 157.7 -15.5  34008  287.00 0855.45
2009/04/23 08:20:14.7      60   -110    -23    126    129 151.5 -10.3  34008  287.00 0855.45
2009/04/23 08:20:14.8     100    -87     11    133    134 130.9   5.0  34010  287.03 0855.45
2009/04/23 08:20:14.9      98    -80     24    127    130 129.5  11.0  34010  287.05 0855.45
2009/04/23 08:20:15.0      96    -52    -17    110    112 118.4  -8.8  34012  287.08 0855.45
2009/04/23 08:20:15.1      89    -70    -39    114    120 128.2 -23.3  34010  287.03 0855.45
2009/04/23 08:20:15.2      52    -71    -27     89     94 143.5 -17.0  34008  287.00 0855.45
2009/04/23 08:20:15.3      90    -35      3     97     98 111.3   1.8  34008  287.01 0855.45
2009/04/23 08:20:15.4      87    -56     -4    104    105 122.9  -2.2  34010  287.05 0855.45
2009/04/23 08:20:15.5      77    -93     -4    121    122 140.3  -2.2  34008  287.01 0855.45
2009/04/23 08:20:15.6      69   -125     76    143    161 151.0  30.1  34014  287.10 0855.45
2009/04/23 08:20:15.7      55   -130     74    142    160 156.8  29.8  34014  287.10 0855.45
2009/04/23 08:20:15.8      50   -122     67    132    148 157.7  28.7  34012  287.06 0855.45
2009/04/23 08:20:15.9      43    -91     69    101    122 154.5  37.6  34012  287.06 0855.45
2009/04/23 08:20:16.0      35    -86     49     94    106 157.7  29.8  34010  287.05 0855.45
2009/04/23 08:20:16.1       8   -102     62    103    120 175.5  33.5  34010  287.03 0855.45
2009/04/23 08:20:16.2      40    -86     45     95    105 155.1  27.2  34012  287.06 0855.43
2009/04/23 08:20:16.3      51    -46     36     69     77 132.2  29.3  34010  287.05 0855.43
2009/04/23 08:20:16.4      34    -26     25     43     49 127.8  33.5  34010  287.03 0855.43
2009/04/23 08:20:16.5      26    -26     27     37     45 134.9  39.7  34010  287.03 0855.43
2009/04/23 08:20:16.6      36    -37     21     52     56 135.9  22.0  34010  287.05 0855.43
2009/04/23 08:20:16.7      77    -38     17     87     89 116.6  11.1  34010  287.03 0855.43
2009/04/23 08:20:16.8     116    -76     30    140    144 123.3  12.2  34014  287.11 0855.43
2009/04/23 08:20:16.9     113    -89     66    145    159 128.2  26.2  34010  287.05 0855.43
2009/04/23 08:20:17.0     140   -100     56    173    183 125.7  18.1  34014  287.11 0855.43
2009/04/23 08:20:17.1     138    -86     90    163    186 122.0  31.3  34012  287.06 0855.43
2009/04/23 08:20:17.2     117    -55     71    130    148 115.3  31.3  34012  287.06 0855.43
2009/04/23 08:20:17.3      88    -23     90     92    128 105.1  50.0  34010  287.05 0855.43
2009/04/23 08:20:17.4      92     -7     62     93    111  94.4  36.5  34010  287.05 0855.43
2009/04/23 08:20:17.5      65    -21     -5     69     70 108.6  -4.1  34010  287.03 0855.43
2009/04/23 08:20:17.6      98      7     21     99    102  85.6  12.2  34012  287.06 0855.43
2009/04/23 08:20:17.7      66      7      3     67     68  83.9   2.9  34012  287.06 0855.43
2009/04/23 08:20:17.8      47     22     28     52     59  64.7  31.3  34010  287.05 0855.43
2009/04/23 08:20:17.9      55     30     19     63     66  61.2  17.3  34012  287.06 0855.43
2009/04/23 08:20:18.0      47     57    -20     75     78  39.6 -15.0  34010  287.05 0855.43
2009/04/23 08:20:18.1      42     46    -15     63     65  42.3 -13.4  34010  287.03 0855.43
2009/04/23 08:20:18.2      32     51      4     61     62  32.6   3.8  34008  287.01 0855.42
2009/04/23 08:20:18.3      49     50     22     71     75  44.2  17.3  34010  287.03 0855.42
2009/04/23 08:20:18.4      72     46     50     86     99  57.6  32.9  34012  287.06 0855.42
2009/04/23 08:20:18.5      62     39     48     74     88  57.6  36.0  34010  287.03 0855.42
2009/04/23 08:20:18.6      68     20     41     72     82  73.2  31.9  34008  287.01 0855.42
2009/04/23 08:20:18.7      47      8     56     48     73  80.3  55.4  34012  287.06 0855.42
2009/04/23 08:20:18.8      18     -5     56     19     59 108.2  81.0  34010  287.03 0855.42
2009/04/23 08:20:18.9      21     -3     45     22     50  99.7  72.8  34012  287.08 0855.42
2009/04/23 08:20:19.0       0    -38     42     39     57 179.1  51.2  34010  287.05 0855.42
2009/04/23 08:20:19.1      55      5     40     56     68  83.9  39.5  34010  287.03 0855.42
2009/04/23 08:20:19.2      63     17     55     66     85  74.9  44.3  34012  287.06 0855.42
2009/04/23 08:20:19.3      58      0     43     59     73  90.0  39.7  34010  287.03 0855.42
2009/04/23 08:20:19.4      83    -19     68     86    109 102.8  43.3  34008  287.01 0855.42
2009/04/23 08:20:19.5      83     22     95     86    128  74.9  53.3  34008  287.01 0855.42
2009/04/23 08:20:19.6      65     21     60     69     91  71.4  45.4  34010  287.03 0855.42
2009/04/23 08:20:19.7      68      0     52     69     86  90.0  40.7  34010  287.05 0855.42
2009/04/23 08:20:19.8      87    -31     45     93    103 110.0  27.3  34010  287.03 0855.42
2009/04/23 08:20:19.9      30    -18     70     36     78 120.7  70.8  34010  287.03 0855.42
2009/04/23 08:20:20.0      37    -14     69     40     79 111.7  67.2  34012  287.06 0855.42
2009/04/23 08:20:20.1      58    -91     90    109    141 147.5  43.7  34008  287.01 0855.42
2009/04/23 08:20:20.2     154    -55    118    164    202 110.0  39.3  34010  287.05 0855.42
2009/04/23 08:20:20.3     157    -38    111    162    196 103.9  37.8  34010  287.05 0855.42
2009/04/23 08:20:20.4     100   -128    150    163    221 141.9  47.9  34012  287.06 0855.42
2009/04/23 08:20:20.5      53   -146    161    156    224 160.0  50.7  34014  287.10 0855.42
2009/04/23 08:20:20.6      50   -168    135    176    221 163.3  41.6  34012  287.08 0855.42
2009/04/23 08:20:20.7      23   -147    111    149    185 171.1  40.7  34014  287.11 0855.42
2009/04/23 08:20:20.8      40   -133    102    140    173 163.1  39.7  34012  287.06 0855.42
2009/04/23 08:20:20.9      22    -95     75     98    123 166.6  41.6  34010  287.03 0855.42
2009/04/23 08:20:21.0      98    -26    131    102    166 105.1  58.2  34012  287.08 0855.42
2009/04/23 08:20:21.1      82    -68     58    107    121 129.6  30.8  34012  287.08 0855.42
2009/04/23 08:20:21.2      87   -105     62    137    150 140.4  26.2  34012  287.08 0855.42
2009/04/23 08:20:21.3     145    -80     90    166    188 118.9  31.0  34012  287.06 0855.42
2009/04/23 08:20:21.4      98    -92    109    135    173 133.1  43.3  34010  287.05 0855.42
2009/04/23 08:20:21.5     119   -119     51    169    177 135.0  17.1  34010  287.05 0855.42
2009/04/23 08:20:21.6      85    -68     34    109    115 128.6  17.3  34010  287.03 0855.42
2009/04/23 08:20:21.7      95    -39     20    103    106 112.6  11.1  34010  287.03 0855.42
2009/04/23 08:20:21.8     106    -59     15    122    123 119.3   7.1  34010  287.05 0855.42
2009/04/23 08:20:22.0     126    -46     79    135    156 110.0  33.1  34010  287.03 0855.42
2009/04/23 08:20:22.0     107    -40     68    115    133 110.4  33.5  34008  287.01 0855.42
2009/04/23 08:20:22.1     105    -40     66    113    130 110.8  33.4  34008  287.00 0855.42
2009/04/23 08:20:22.2      95    -32     52    101    113 108.6  28.7  34010  287.05 0855.42
2009/04/23 08:20:22.3     115    -16     51    117    127  97.9  25.1  34014  287.11 0855.42
2009/04/23 08:20:22.5      80    -27     44     85     95 108.6  29.3  34016  287.13 0855.42
2009/04/23 08:20:22.5      80    -66     40    104    111 129.5  22.0  34014  287.10 0855.42
2009/04/23 08:20:22.6      95    -76    -42    122    130 128.6 -19.1  34014  287.11 0855.42
2009/04/23 08:20:22.8      60    -50     45     79     90 129.5  32.4  34018  287.18 0855.42
2009/04/23 08:20:22.9      42    -50     87     66    109 139.5  59.0  34014  287.11 0855.42
2009/04/23 08:20:23.0      57    -19     74     61     95 108.4  56.4  34012  287.06 0855.42
2009/04/23 08:20:23.1     160    -38     51    165    173 103.5  17.3  34022  287.25 0855.42
2009/04/23 08:20:23.2     158    -77     45    176    182 116.0  14.5  34020  287.20 0855.42
2009/04/23 08:20:23.3      94    -88     45    130    138 133.2  19.2  34014  287.11 0855.42
2009/04/23 08:20:23.4      76    -57     61     95    112 126.9  35.6  34014  287.10 0855.42
2009/04/23 08:20:23.5      89    -52     90    104    137 120.2  45.8  34014  287.11 0855.42
2009/04/23 08:20:23.6     152    -59     83    164    183 111.3  29.1  34014  287.10 0855.42
2009/04/23 08:20:23.7     156    -16     56    157    166  96.1  20.2  34014  287.11 0855.42
2009/04/23 08:20:23.8     121    -11     64    122    137  95.2  29.8  34012  287.06 0855.42
2009/04/23 08:20:23.9     103    -41     91    112    144 111.8  43.7  34014  287.11 0855.42
2009/04/23 08:20:24.0      86    -84    121    121    171 134.6  50.1  34012  287.08 0855.42
2009/04/23 08:20:24.1     112   -136     74    177    191 140.4  23.8  34012  287.08 0855.42
2009/04/23 08:20:24.2      31   -153     65    157    169 168.4  23.8  34010  287.05 0855.42
2009/04/23 08:20:24.3      57   -164    135    174    220 160.8  41.7  34012  287.08 0855.43
2009/04/23 08:20:24.4      91   -166    114    190    221 151.1  34.0  34012  287.06 0855.43
2009/04/23 08:20:24.5      72   -161    130    177    219 155.7  39.7  34012  287.06 0855.43
2009/04/23 08:20:24.6      56   -140    102    151    182 158.2  37.0  34012  287.06 0855.43
2009/04/23 08:20:24.7      96    -65     82    117    142 124.2  38.0  34012  287.06 0855.43
2009/04/23 08:20:24.8     139    -32     72    143    160 103.2  28.7  34012  287.06 0855.43
2009/04/23 08:20:24.9     149    -49     76    158    175 108.4  27.4  34010  287.05 0855.43
2009/04/23 08:20:25.0     169    -32     84    173    192 100.8  27.3  34010  287.05 0855.43
2009/04/23 08:20:25.1     137    -32     53    141    150 103.2  21.5  34012  287.08 0855.43
2009/04/23 08:20:25.2      52    -43     50     68     84 129.5  40.1  34012  287.08 0855.43
2009/04/23 08:20:25.3     105    -17     41    107    114  99.2  21.5  34014  287.11 0855.43
2009/04/23 08:20:25.4      85    -28     68     90    112 108.2  41.2  34012  287.06 0855.43
2009/04/23 08:20:25.5      49    -26     79     56     96 118.0  61.5  34012  287.08 0855.43
2009/04/23 08:20:25.6     -10    -10     56     15     57 225.0  84.9  34014  287.10 0855.43
2009/04/23 08:20:25.7       9    -70     44     71     83 172.0  34.4  34014  287.10 0855.43
2009/04/23 08:20:25.8      69    -93      2    116    117 143.5   1.2  34012  287.08 0855.43
2009/04/23 08:20:25.9      74   -135     13    155    156 151.1   4.9  34010  287.05 0855.43
2009/04/23 08:20:26.0      81   -141     28    163    166 150.1   9.9  34012  287.08 0855.43
2009/04/23 08:20:26.1      47   -136     51    145    154 160.8  19.4  34012  287.06 0855.43
2009/04/23 08:20:26.2      76   -119     67    142    157 147.4  27.0  34012  287.06 0855.43
2009/04/23 08:20:26.3      80   -142     63    164    175 150.6  22.0  34012  287.06 0855.44
2009/04/23 08:20:26.4      69    -86     59    111    125 141.3  30.3  34012  287.06 0855.44
2009/04/23 08:20:26.5      19   -138    107    140    176 172.0  41.4  34014  287.10 0855.44
2009/04/23 08:20:26.6      16   -147     81    148    168 173.7  31.0  34012  287.08 0855.44
2009/04/23 08:20:26.7      16   -217     94    218    237 175.6  24.9  34012  287.06 0855.44
2009/04/23 08:20:26.8      18   -238    141    239    277 175.5  33.4  34012  287.06 0855.44
2009/04/23 08:20:26.9       8   -219    137    220    259 177.8  35.0  34014  287.09 0855.44
2009/04/23 08:20:27.0     -16   -152     41    153    159 186.2  15.0  34012  287.06 0855.44
2009/04/23 08:20:27.1     -49   -145      9    154    155 198.7   3.6  34014  287.10 0855.44
2009/04/23 08:20:27.2     -55   -156     57    166    176 199.4  19.2  34014  287.10 0855.44
2009/04/23 08:20:27.3     -33   -162     56    166    176 191.6  18.6  34012  287.08 0855.44
2009/04/23 08:20:27.4      34   -159     83    163    182 167.7  29.3  34010  287.03 0855.44
2009/04/23 08:20:27.5      60   -113     99    129    162 151.9  41.4  34010  287.03 0855.44
2009/04/23 08:20:27.6      70    -48    102     86    133 124.6  55.8  34014  287.10 0855.44
2009/04/23 08:20:27.7      43     32     84     54     99  53.1  64.6  34016  287.15 0855.44
2009/04/23 08:20:27.8      18     -7     79     20     81 111.7  85.9  34014  287.11 0855.44
2009/04/23 08:20:27.9      63      8    108     64    125  82.1  66.7  34016  287.13 0855.44
2009/04/23 08:20:28.0     116     -3     87    117    145  91.7  40.1  34014  287.11 0855.44
2009/04/23 08:20:28.1     121      5     96    122    155  87.4  42.7  34014  287.11 0855.44
2009/04/23 08:20:28.2     117     17     66    119    136  81.6  31.4  34014  287.10 0855.44
2009/04/23 08:20:28.3     110     29     53    114    125  74.9  26.6  34012  287.08 0855.44
2009/04/23 08:20:28.4     103     27     59    107    122  75.0  31.4  34012  287.08 0855.44
2009/04/23 08:20:28.5      99      7     46    100    110  85.6  27.1  34012  287.06 0855.44
2009/04/23 08:20:28.6     134     13     11    135    136  84.3   4.9  34044  287.60 0855.44
2009/04/23 08:20:28.7      86    -30      0     92     93 109.5   0.2  34038  287.52 0855.44
2009/04/23 08:20:28.8      36    -46     32     59     67 142.2  31.3  34018  287.16 0855.44
2009/04/23 08:20:28.9      90    -31     50     96    108 109.1  29.3  34014  287.10 0855.44
2009/04/23 08:20:29.0      81    -26     69     86    110 108.2  43.7  34012  287.08 0855.44
2009/04/23 08:20:29.1     113    -16     79    115    139  98.4  37.6  34014  287.10 0855.44
2009/04/23 08:20:29.2     100     -7     90    101    135  94.4  45.9  34016  287.13 0855.44
2009/04/23 08:20:29.3     124    -57     92    137    165 114.8  37.0  34014  287.11 0855.44
2009/04/23 08:20:29.4      46   -115    121    125    173 158.1  49.4  34012  287.08 0855.44
2009/04/23 08:20:29.5     -14   -165    206    166    264 184.9  56.9  34014  287.11 0855.44
2009/04/23 08:20:29.6      49   -190    142    197    242 165.3  39.3  34014  287.11 0855.44
2009/04/23 08:20:29.7      25   -166    129    168    211 171.3  41.6  34014  287.11 0855.44
2009/04/23 08:20:29.8     -91   -203    135    223    260 204.1  34.4  34018  287.16 0855.44
2009/04/23 08:20:29.9     -70   -227    112    238    263 197.2  27.1  34016  287.14 0855.44
2009/04/23 08:20:30.0     -11   -159     56    160    170 184.0  19.4  34014  287.10 0855.44
2009/04/23 08:20:30.1     -14   -190     95    191    213 184.4  28.5  34016  287.13 0855.44
2009/04/23 08:20:30.2     -34   -183    100    187    212 190.7  30.6  34012  287.08 0855.44
2009/04/23 08:20:30.3     -39   -174     62    179    190 192.7  19.2  34014  287.11 0855.45
2009/04/23 08:20:30.4     -34   -176      0    180    181 191.1   0.2  34014  287.10 0855.45
2009/04/23 08:20:30.5     -26   -149    -26    152    155 190.2  -9.8  34014  287.11 0855.45
2009/04/23 08:20:30.6     -37   -139     28    144    147 195.1  11.1  34012  287.08 0855.45
2009/04/23 08:20:30.7     -34   -146     23    150    152 193.3   8.9  34016  287.13 0855.45
2009/04/23 08:20:30.8     -54   -135      3    146    147 201.8   1.2  34014  287.11 0855.45
2009/04/23 08:20:30.9     -30   -127    -31    131    135 193.4 -13.4  34014  287.11 0855.45
2009/04/23 08:20:31.0     -14    -88    -28     90     95 189.3 -17.6  34016  287.13 0855.45
2009/04/23 08:20:31.1     -13   -124     46    125    133 186.3  20.9  34014  287.11 0855.45
2009/04/23 08:20:31.2     -45   -122    -49    131    139 200.5 -25.4  34012  287.06 0855.45
2009/04/23 08:20:31.3     -11    -84    -89     85    123 187.6 -55.6  34012  287.06 0855.45
2009/04/23 08:20:31.4      45    -88    -57    100    115 152.8 -36.8  34014  287.11 0855.45
2009/04/23 08:20:31.5      66   -103    -38    123    128 147.5 -21.8  34016  287.13 0855.45
2009/04/23 08:20:31.6      86    -79    -23    117    120 132.7 -11.3  34016  287.13 0855.45
2009/04/23 08:20:31.7      78    -51    -14     94     96 122.9  -8.8  34016  287.15 0855.45
2009/04/23 08:20:31.8      78    -31    -15     85     87 111.7 -10.3  34016  287.13 0855.45
2009/04/23 08:20:31.9      61    -12     -8     63     64 101.5  -7.3  34014  287.11 0855.45
2009/04/23 08:20:32.0      49    -46    -38     68     77 133.1 -35.8  34014  287.11 0855.45
2009/04/23 08:20:32.1      36    -39    -24     54     59 137.7 -29.5  34014  287.11 0855.45
2009/04/23 08:20:32.2      46     -7    -15     47     49  98.8 -23.8  34016  287.13 0855.45
2009/04/23 08:20:32.3      28      0     10     29     31  90.0  18.9  34014  287.10 0855.45
2009/04/23 08:20:32.4      19     31     41     37     55  32.6  53.3  34014  287.10 0855.45
2009/04/23 08:20:32.5      21     25     66     33     73  39.6  72.8  34014  287.10 0855.45
2009/04/23 08:20:32.6      40     14     47     43     63  70.0  52.2  34014  287.11 0855.45
2009/04/23 08:20:32.7      16    -15     71     23     74 133.1  80.7  34016  287.13 0855.45
2009/04/23 08:20:32.8      24     -8     54     26     59 108.4  72.8  34020  287.20 0855.45
2009/04/23 08:20:32.9      47     18     47     51     69  68.3  47.9  34016  287.15 0855.45
2009/04/23 08:20:33.0      44     -4     70     45     83  96.1  64.1  34018  287.18 0855.45
2009/04/23 08:20:33.1      55    -35     49     66     82 122.4  40.7  34018  287.18 0855.45
2009/04/23 08:20:33.2      54    -87     63    103    120 147.9  34.4  34016  287.15 0855.45
2009/04/23 08:20:33.3      23   -162     98    164    191 171.8  34.0  34014  287.10 0855.45
2009/04/23 08:20:33.4      37   -122     80    128    150 163.0  35.5  34014  287.10 0855.45
2009/04/23 08:20:33.5     -27   -133    131    136    188 191.6  49.0  34018  287.18 0855.45
2009/04/23 08:20:33.6      67   -137    138    153    206 153.7  46.6  34010  287.05 0855.45
2009/04/23 08:20:33.7      25   -227    125    229    260 173.5  31.3  34016  287.12 0855.45
2009/04/23 08:20:33.8      41   -185     90    190    210 167.3  27.2  34012  287.06 0855.45
2009/04/23 08:20:33.9      71   -213     82    225    239 161.5  20.9  34016  287.12 0855.45
2009/04/23 08:20:34.0     -94   -162     65    188    200 210.1  19.2  34012  287.06 0855.45
2009/04/23 08:20:34.1    -130   -182    172    224    282 215.6  41.6  34012  287.06 0855.45
2009/04/23 08:20:34.2    -132   -210     88    249    265 212.1  19.6  34012  287.06 0855.45
2009/04/23 08:20:34.3    -131   -114     47    174    181 228.9  15.3  34010  287.03 0855.45
2009/04/23 08:20:34.4    -101   -172     79    200    215 210.5  22.8  34008  287.01 0855.45
2009/04/23 08:20:34.5     -94   -176     68    200    212 208.3  18.9  34012  287.06 0855.45
2009/04/23 08:20:34.6     -87   -283    135    297    326 197.2  26.2  34016  287.14 0855.45
2009/04/23 08:20:34.7    -115   -173     59    208    217 213.6  16.0  34010  287.05 0855.45
2009/04/23 08:20:34.8    -132   -158     34    206    209 219.9   9.5  34014  287.11 0855.45
2009/04/23 08:20:34.9     -96   -117     24    152    154 219.6   9.0  34016  287.15 0855.45
2009/04/23 08:20:35.0     -90   -167     -4    190    191 208.3  -1.3  34012  287.06 0855.45
2009/04/23 08:20:35.1     -68   -144    -20    160    162 205.5  -7.3  34010  287.03 0855.45
2009/04/23 08:20:35.2     -41   -199    -49    204    210 191.8 -13.7  34014  287.10 0855.45
2009/04/23 08:20:35.3     -66   -193    -65    205    216 198.9 -17.6  34012  287.06 0855.45
2009/04/23 08:20:35.4     -44   -170    -57    176    186 194.7 -18.1  34012  287.06 0855.45
2009/04/23 08:20:35.5     -44   -135    -90    143    168 198.3 -39.9  34012  287.08 0855.45
2009/04/23 08:20:35.6     -67   -106   -118    126    172 212.1 -52.6  34010  287.05 0855.45
2009/04/23 08:20:35.7      -3    -78    -98     79    125 182.7 -61.3  34010  287.05 0855.45
2009/04/23 08:20:35.8     -38   -111    -66    118    135 199.2 -36.3  34010  287.05 0855.45
2009/04/23 08:20:35.9     -48    -82    -32     96    101 210.3 -23.6  34012  287.06 0855.45
2009/04/23 08:20:36.0     -75    -76    -46    107    116 224.7 -29.0  34016  287.15 0855.45
2009/04/23 08:20:36.1     -47    -60    -82     77    112 217.8 -56.5  34016  287.13 0855.45
2009/04/23 08:20:36.2     -12    -38    -66     40     77 197.8 -69.1  34016  287.15 0855.45
2009/04/23 08:20:36.3      21    -15    -43     27     50 126.0 -69.1  34018  287.18 0855.45
2009/04/23 08:20:36.4      97    -40    -29    106    110 112.6 -15.4  34018  287.16 0855.45
2009/04/23 08:20:36.5     116    -48      7    126    127 112.6   3.3  34014  287.11 0855.45
2009/04/23 08:20:36.6     120      0     19    121    123  90.4   9.0  34018  287.16 0855.45
2009/04/23 08:20:36.7     116    -31     33    121    126 105.0  15.3  34022  287.25 0855.45
2009/04/23 08:20:36.8      99      0     46    100    110  89.6  27.1  34024  287.27 0855.45
2009/04/23 08:20:36.9     101     22     70    104    125  77.6  37.4  34020  287.21 0855.45
2009/04/23 08:20:37.0      89     -7    116     90    146  94.8  57.9  34028  287.35 0855.45
2009/04/23 08:20:37.1      63     17    103     66    122  74.9  64.6  34028  287.35 0855.45
2009/04/23 08:20:37.2      43     22     98     49    109  62.9  71.9  34046  287.64 0855.45
2009/04/23 08:20:37.3      18     26     87     32     92  34.3  79.7  34042  287.59 0855.45
2009/04/23 08:20:37.4      25     16    127     30    130  57.6  87.0  34046  287.65 0855.45
2009/04/23 08:20:37.5      -9     -5     99     11     99 237.6  90.0  34038  287.50 0855.45
2009/04/23 08:20:37.6      12    -12     88     18     89 135.0  89.0  34036  287.47 0855.45
2009/04/23 08:20:37.7      38    -34     64     52     82 132.2  56.4  34032  287.42 0855.45
2009/04/23 08:20:37.8      24    -24     32     34     46 134.9  50.0  34034  287.45 0855.45
2009/04/23 08:20:37.9      61    -17     -3     64     65 105.9  -3.2  34024  287.27 0855.45
2009/04/23 08:20:38.0      42     14     25     45     51  71.6  31.4  34026  287.30 0855.45
2009/04/23 08:20:38.1      60     17     35     63     72  74.1  31.4  34044  287.60 0855.45
2009/04/23 08:20:38.2      89    -26     20     93     96 106.4  12.2  34032  287.42 0855.45
2009/04/23 08:20:38.3      48    -40     23     63     67 129.5  20.0  34034  287.45 0855.45
2009/04/23 08:20:38.4       8    -81     26     82     87 173.8  17.9  34036  287.49 0855.45
2009/04/23 08:20:38.5       0    -76     26     77     82 180.0  19.2  34036  287.47 0855.45
2009/04/23 08:20:38.6       0    -68     33     69     76 180.0  27.2  34034  287.43 0855.45
2009/04/23 08:20:38.7      13    -68     32     70     76 169.3  27.1  34028  287.35 0855.45
2009/04/23 08:20:38.8       8    -56     30     57     64 171.1  30.3  34024  287.27 0855.45
2009/04/23 08:20:38.9     -21    -49     49     54     72 203.6  47.9  34022  287.23 0855.45
2009/04/23 08:20:39.0     -30    -72     44     79     90 202.7  31.4  34026  287.32 0855.45
2009/04/23 08:20:39.1     -24    -73     80     77    111 198.5  51.2  34028  287.33 0855.45
2009/04/23 08:20:39.2     -20    -89    101     92    136 192.9  52.7  34020  287.21 0855.45
2009/04/23 08:20:39.3     -32    -99    110    105    152 198.3  51.6  34020  287.20 0855.44
2009/04/23 08:20:39.4     -22   -110    126    113    169 191.5  53.5  34020  287.20 0855.44
2009/04/23 08:20:39.5      -5    -94    130     95    161 183.1  60.3  34020  287.20 0855.44
2009/04/23 08:20:39.6      11    -67    104     69    124 170.2  63.6  34022  287.23 0855.44
2009/04/23 08:20:39.7      95   -143    120    172    209 146.4  38.4  34018  287.18 0855.44
2009/04/23 08:20:39.8     122   -193     33    229    232 147.5   8.2  34016  287.13 0855.44
2009/04/23 08:20:39.9      16   -178     93    179    201 174.7  29.5  34010  287.03 0855.44
2009/04/23 08:20:40.0       8   -158    102    159    188 176.9  35.6  34016  287.13 0855.44
2009/04/23 08:20:40.1      13   -169    102    170    198 175.5  33.7  34018  287.16 0855.44
2009/04/23 08:20:40.2     -32   -179     66    182    193 190.2  20.4  34016  287.15 0855.44
2009/04/23 08:20:40.3      11   -202     71    203    216 176.9  19.4  34016  287.15 0855.44
2009/04/23 08:20:40.4      32   -150    147    154    212 168.0  48.7  34014  287.10 0855.44
2009/04/23 08:20:40.5      -7   -149    107    150    184 182.7  39.1  34016  287.15 0855.44
2009/04/23 08:20:40.6      -2   -154     57    155    165 181.0  20.7  34016  287.13 0855.44
2009/04/23 08:20:40.7       9   -139     68    140    155 176.0  27.3  34016  287.15 0855.44
2009/04/23 08:20:40.8       0   -114     48    115    124 179.5  23.1  34016  287.13 0855.44
2009/04/23 08:20:40.9      26    -50     37     57     67 152.8  35.6  34012  287.06 0855.44
2009/04/23 08:20:41.0      42     33     63     54     82  51.4  54.8  34012  287.06 0855.44
2009/04/23 08:20:41.1     -10    -32     63     34     71 198.5  68.9  34012  287.08 0855.44
2009/04/23 08:20:41.2     -11    -43     69     45     82 195.1  63.6  34012  287.06 0855.44
2009/04/23 08:20:41.3       7    -38    102     39    109 168.4  78.6  34010  287.05 0855.44
2009/04/23 08:20:41.4      -2    -83     99     84    129 181.4  55.8  34014  287.11 0855.44
2009/04/23 08:20:41.5      48    -82     80     96    124 149.7  43.8  34016  287.15 0855.44
2009/04/23 08:20:41.6       3    -60     83     61    103 176.4  60.0  34018  287.18 0855.44
2009/04/23 08:20:41.7      44    -38     73     59     93 131.3  56.4  34018  287.18 0855.44
2009/04/23 08:20:41.8      26    -66     55     72     90 158.2  41.7  34018  287.16 0855.44
2009/04/23 08:20:41.9      21    -96     75     99    124 167.5  41.2  34020  287.20 0855.44
2009/04/23 08:20:42.0     -16    -99     65    101    120 189.3  35.6  34018  287.16 0855.44
2009/04/23 08:20:42.1      28    -85     55     90    105 161.7  35.0  34018  287.16 0855.44
2009/04/23 08:20:42.2      -5    -67     61     68     91 184.5  46.4  34018  287.16 0855.44
2009/04/23 08:20:42.3      20    -75     59     78     97 164.9  41.2  34018  287.18 0855.44
2009/04/23 08:20:42.4      27    -56     54     63     82 154.6  45.4  34018  287.18 0855.44
2009/04/23 08:20:42.5      16    -22     45     28     53 143.9  64.7  34018  287.18 0855.44
2009/04/23 08:20:42.6       0    -21     53     22     57 180.9  77.1  34020  287.20 0855.44
2009/04/23 08:20:42.7     -16     12     64     21     67 307.8  80.7  34020  287.21 0855.44
2009/04/23 08:20:42.8     -21     21     54     30     61 315.0  68.8  34024  287.27 0855.44
2009/04/23 08:20:42.9     -19     21     49     29     56 318.6  65.7  34020  287.20 0855.44
2009/04/23 08:20:43.0       2     27     56     28     62   4.5  71.9  34018  287.16 0855.44
2009/04/23 08:20:43.1      -4     12     63     13     64 341.3  89.0  34020  287.21 0855.44
2009/04/23 08:20:43.2      -8    -25     85     27     89 198.7  81.2  34020  287.20 0855.44
2009/04/23 08:20:43.3     -10    -74    103     75    127 188.0  60.5  34016  287.15 0855.44
2009/04/23 08:20:43.4       2   -182    165    183    246 179.1  46.9  34014  287.10 0855.44
2009/04/23 08:20:43.5      10   -118    236    119    264 175.1  71.7  34014  287.10 0855.44
2009/04/23 08:20:43.6      -5      5    144      8    144 315.0  90.0  34016  287.13 0855.44
2009/04/23 08:20:43.7     114    -34    119    120    169 106.8  50.2  34018  287.18 0855.44
2009/04/23 08:20:43.8      63    -63    115     90    146 135.0  58.4  34006  286.96 0855.44
2009/04/23 08:20:43.9     119    -32     95    124    156 105.1  41.6  34010  287.03 0855.44
2009/04/23 08:20:44.0     156     -2     55    157    166  90.8  20.0  34010  287.05 0855.44
2009/04/23 08:20:44.1     135     12     66    136    151  84.8  27.3  34002  286.91 0855.44
2009/04/23 08:20:44.2      83     39     71     92    116  64.7  41.7  34006  286.98 0855.44
2009/04/23 08:20:44.3      76     92      6    120    121  39.7   2.9  34010  287.05 0855.44
2009/04/23 08:20:44.4     137     -8     51    138    147  93.5  20.9  34010  287.03 0855.44
2009/04/23 08:20:44.5     154     21    107    156    189  82.1  37.8  34012  287.06 0855.44
2009/04/23 08:20:44.6     109      8     71    110    130  85.6  35.6  34014  287.10 0855.44
2009/04/23 08:20:44.7     129     49     44    138    146  69.2  17.9  34014  287.11 0855.44
2009/04/23 08:20:44.8     111     15     79    113    137  82.0  38.6  34016  287.15 0855.44
2009/04/23 08:20:44.9     100     13     82    101    130  82.1  43.7  34014  287.11 0855.44
2009/04/23 08:20:45.0      22     35     89     42     98  31.6  73.1  34016  287.13 0855.44
2009/04/23 08:20:45.1      50     32     87     60    105  57.6  62.6  34018  287.18 0855.44
2009/04/23 08:20:45.2      16     42     89     45     99  20.9  71.4  34016  287.13 0855.44
2009/04/23 08:20:45.3      -5     18     53     19     56 341.7  81.2  34016  287.15 0855.45
2009/04/23 08:20:45.4      -7     19     52     21     56 338.2  78.2  34016  287.13 0855.45
2009/04/23 08:20:45.5     -11     34     49     36     60 341.3  60.5  34014  287.10 0855.45
2009/04/23 08:20:45.6       3     61     49     62     79   3.6  42.7  34012  287.08 0855.45
2009/04/23 08:20:45.7       4     56     45     57     72   4.5  43.7  34014  287.11 0855.45
2009/04/23 08:20:45.8      16     47     44     50     66  19.2  46.9  34014  287.10 0855.45
2009/04/23 08:20:45.9      36      7     29     37     47  78.5  42.7  34014  287.11 0855.45
2009/04/23 08:20:46.0       9      7     54     12     55  54.0  89.0  34014  287.11 0855.45
2009/04/23 08:20:46.1      34     -4     71     35     79  97.9  71.9  34016  287.13 0855.45
2009/04/23 08:20:46.2      50    -22     61     55     82 114.4  52.7  34018  287.16 0855.45
2009/04/23 08:20:46.3      53     16     80     56     97  73.2  62.1  34016  287.13 0855.45
2009/04/23 08:20:46.4      65     41     71     78    105  57.5  47.5  34016  287.13 0855.45
2009/04/23 08:20:46.5      42     50     49     66     82  40.5  40.7  34016  287.15 0855.45
2009/04/23 08:20:46.6      32     20     47     38     60  57.6  56.4  34016  287.15 0855.45
2009/04/23 08:20:46.7      40     31     60     51     78  52.2  54.8  34014  287.11 0855.45
2009/04/23 08:20:46.8      30     48     64     57     85  32.6  53.7  34016  287.13 0855.45
2009/04/23 08:20:46.9      17     61     45     64     78  16.0  38.6  34016  287.13 0855.45
2009/04/23 08:20:47.0     -10    106     64    107    124 354.2  33.5  34014  287.11 0855.45
2009/04/23 08:20:47.1       4     61     86     62    106   4.4  60.6  34018  287.16 0855.45
2009/04/23 08:20:47.2      30      6     77     31     83  78.5  77.1  34016  287.15 0855.45
2009/04/23 08:20:47.3       7     35     59     36     69  11.6  64.7  34018  287.16 0855.45
2009/04/23 08:20:47.4      34      6     68     35     76  78.5  70.8  34016  287.13 0855.45
2009/04/23 08:20:47.5      34    -25     75     43     86 126.9  67.2  34018  287.18 0855.45
2009/04/23 08:20:47.6      -3    -38     76     39     85 184.5  70.8  34016  287.15 0855.45
2009/04/23 08:20:47.7     -29    -88     48     93    104 198.3  29.8  34014  287.11 0855.45
2009/04/23 08:20:47.8     -60   -111     56    127    138 208.5  25.1  34014  287.11 0855.45
2009/04/23 08:20:47.9     -42   -119     29    127    131 199.6  13.2  34016  287.13 0855.45
2009/04/23 08:20:48.0     -48   -145      7    153    154 198.3   2.9  34014  287.11 0855.45
2009/04/23 08:20:48.1     -28    -98     59    102    117 196.0  32.4  34018  287.16 0855.45
2009/04/23 08:20:48.2      -4    -97     80     98    126 182.7  43.7  34016  287.15 0855.45
2009/04/23 08:20:48.3     -17    -60     84     63    105 196.0  60.0  34016  287.13 0855.45
2009/04/23 08:20:48.4     -43    -33    100     55    114 232.2  68.8  34016  287.13 0855.45
2009/04/23 08:20:48.5     -51     -3     88     52    102 265.6  66.8  34016  287.13 0855.45
2009/04/23 08:20:48.6     -34      3     80     35     87 276.1  75.5  34016  287.15 0855.45
2009/04/23 08:20:48.7     -18      3     67     19     69 281.5  83.9  34016  287.15 0855.45
2009/04/23 08:20:48.8       7     26     53     27     59  15.1  70.8  34016  287.15 0855.45
2009/04/23 08:20:48.9      40     33     74     53     91  50.5  61.1  34014  287.11 0855.45
2009/04/23 08:20:49.0      44     28     88     53    102  57.6  66.2  34016  287.13 0855.45
2009/04/23 08:20:49.1      10     31     95     33    100  18.7  80.7  34018  287.18 0855.45
2009/04/23 08:20:49.2      21     26     82     34     88  39.6  76.6  34026  287.32 0855.45
2009/04/23 08:20:49.3      54      4     63     55     83  85.7  53.7  34036  287.49 0855.44
2009/04/23 08:20:49.5      80      6     78     81    112  85.7  49.0  34036  287.47 0855.44
2009/04/23 08:20:49.6      28     50     81     58     99  29.9  60.6  34024  287.28 0855.44
2009/04/23 08:20:49.7      21     33     48     40     62  32.5  56.3  34020  287.21 0855.44
2009/04/23 08:20:49.8      79    -13     63     81    102  99.7  42.2  34018  287.16 0855.44
2009/04/23 08:20:49.9      29    -46     66     55     85 147.5  55.8  34012  287.08 0855.44
2009/04/23 08:20:50.0      53   -103     54    116    127 152.8  27.1  34018  287.18 0855.44
2009/04/23 08:20:50.1      87   -118     56    147    157 143.5  21.7  34020  287.20 0855.44
2009/04/23 08:20:50.2     100   -120     41    157    163 140.4  14.7  34016  287.15 0855.44
2009/04/23 08:20:50.3      99   -130     49    164    172 142.6  16.8  34014  287.11 0855.44
2009/04/23 08:20:50.4      97   -112     59    149    160 139.0  22.8  34016  287.13 0855.44
2009/04/23 08:20:50.5     110   -110     68    156    170 135.0  25.1  34016  287.13 0855.44
2009/04/23 08:20:50.6      94   -100     69    138    154 136.8  28.2  34014  287.11 0855.44
2009/04/23 08:20:50.7      73   -132     48    151    159 151.0  17.9  34014  287.11 0855.44
2009/04/23 08:20:50.8      74   -273    102    283    302 164.8  19.9  34012  287.06 0855.44
2009/04/23 08:20:50.9      21   -275    138    276    308 175.6  28.5  34010  287.02 0855.44
2009/04/23 08:20:51.0      59   -231    105    239    261 165.5  25.2  34012  287.07 0855.44
2009/04/23 08:20:51.1      49   -182    124    189    226 164.9  36.0  34012  287.06 0855.44
2009/04/23 08:20:51.2      58   -177     51    187    194 161.7  15.3  34012  287.08 0855.44
2009/04/23 08:20:51.3      77   -184    -32    200    203 157.1  -9.3  34014  287.10 0855.44
2009/04/23 08:20:51.4     138   -158      0    211    212 138.8   0.0  34012  287.06 0855.45
2009/04/23 08:20:51.5      98   -170     30    197    200 149.9   8.9  34012  287.06 0855.45
2009/04/23 08:20:51.6     114   -231     23    258    260 153.7   5.2  34012  287.06 0855.45
2009/04/23 08:20:51.7      75   -191    138    206    247 158.4  37.0  34000  286.87 0855.45
2009/04/23 08:20:51.8      64   -160    132    173    217 158.2  41.2  34008  287.01 0855.45
2009/04/23 08:20:51.9     122   -167     82    207    222 143.9  23.0  34002  286.91 0855.45
2009/04/23 08:20:52.0      41   -199     -7    204    205 168.2  -2.2  34004  286.93 0855.45
2009/04/23 08:20:52.1      81   -130     -8    154    155 147.9  -3.1  34008  287.01 0855.45
2009/04/23 08:20:52.2      70   -152    -24    168    170 155.3  -8.2  34008  287.01 0855.45
2009/04/23 08:20:52.3      36   -160    -45    165    171 167.3 -20.0  34012  287.06 0855.45
2009/04/23 08:20:52.4      -2   -139    -82    140    162 180.9 -37.9  34010  287.05 0855.45
2009/04/23 08:20:52.5       3   -173    -63    174    185 178.9 -24.6  34010  287.05 0855.45
2009/04/23 08:20:52.6       0   -117    -67    118    135 180.0 -36.8  34010  287.03 0855.45
2009/04/23 08:20:52.7      20   -121    -65    123    139 170.2 -34.7  34012  287.08 0855.45
2009/04/23 08:20:52.8      26   -111    -45    115    123 166.6 -26.9  34012  287.06 0855.45
2009/04/23 08:20:52.9      41   -136    -34    143    147 163.1 -13.4  34008  287.01 0855.45
2009/04/23 08:20:53.0      42   -206      2    211    212 168.5   0.7  34002  286.91 0855.45
2009/04/23 08:20:53.1     -36   -331     18    334    335 186.2   3.2  34004  286.93 0855.45
2009/04/23 08:20:53.2     100   -350     53    365    369 164.0   8.3  34004  286.93 0855.45
2009/04/23 08:20:53.3     138   -280    113    313    333 153.7  19.9  33998  286.84 0855.45
2009/04/23 08:20:53.4     210   -329    180    391    430 147.5  26.3  33994  286.77 0855.44
2009/04/23 08:20:53.5     172   -364    160    403    433 154.7  22.9  33998  286.82 0855.44
2009/04/23 08:20:53.6     161   -358     95    393    405 155.8  13.7  33994  286.76 0855.44
2009/04/23 08:20:53.7     136   -339      9    366    367 158.2   1.5  34000  286.88 0855.44
2009/04/23 08:20:53.8      84   -356     16    366    367 166.6   2.5  34000  286.85 0855.44
2009/04/23 08:20:53.9      52   -318     57    323    329 170.7  10.0  33998  286.84 0855.44
2009/04/23 08:20:54.0      69   -297     59    305    311 166.9  11.1  34000  286.85 0855.44
2009/04/23 08:20:54.1     127   -268     63    297    304 154.6  12.1  34000  286.87 0855.44
2009/04/23 08:20:54.2      50   -334    182    338    383 171.4  30.8  34002  286.91 0855.44
2009/04/23 08:20:54.3     146   -265    126    303    328 151.1  23.8  34000  286.87 0855.44
2009/04/23 08:20:54.4     118   -249    136    276    307 154.7  28.2  33998  286.84 0855.45
2009/04/23 08:20:54.5      66   -217    104    227    249 163.1  26.2  34000  286.87 0855.45
2009/04/23 08:20:54.6      84   -262     75    276    287 162.1  15.3  34000  286.87 0855.45
2009/04/23 08:20:54.7     117   -302     -6    324    325 158.8  -1.2  34002  286.89 0855.45
2009/04/23 08:20:54.8     113   -268    -36    292    295 157.1  -7.2  34002  286.89 0855.45
2009/04/23 08:20:54.9     111   -242    -36    267    270 155.3  -7.7  34004  286.92 0855.45
2009/04/23 08:20:55.0     141   -281    -56    315    320 153.3 -10.1  34006  286.95 0855.45
2009/04/23 08:20:55.1     120   -273     46    299    303 156.3   8.8  34004  286.92 0855.45
2009/04/23 08:20:55.2     170   -282      2    330    331 149.0   0.4  34002  286.90 0855.45
2009/04/23 08:20:55.3     204   -255     80    327    337 141.3  13.9  34002  286.90 0855.45
2009/04/23 08:20:55.4     187   -298     66    352    359 147.9  10.6  34000  286.86 0855.45
2009/04/23 08:20:55.5     155   -309     16    346    347 153.3   2.8  34002  286.90 0855.45
2009/04/23 08:20:55.6      92   -193    -69    215    226 154.4 -17.9  34002  286.89 0855.45
2009/04/23 08:20:55.7     135   -265    -11    298    299 152.9  -2.2  34000  286.87 0855.45
2009/04/23 08:20:55.8      23   -282     71    283    292 175.3  14.2  34002  286.90 0855.45
2009/04/23 08:20:55.9     -34   -279     69    282    291 187.1  13.9  34000  286.87 0855.45
2009/04/23 08:20:56.0     -26   -179    100    181    206 188.5  31.3  34004  286.93 0855.45
2009/04/23 08:20:56.1      34   -171     54    175    184 168.7  17.1  34004  286.93 0855.45
2009/04/23 08:20:56.2      75   -188     11    203    204 158.1   3.1  34002  286.89 0855.45
2009/04/23 08:20:56.3      58   -144      4    156    157 158.1   1.6  34006  286.96 0855.45
2009/04/23 08:20:56.4      41   -134    -46    141    148 163.1 -23.8  34002  286.89 0855.44
2009/04/23 08:20:56.5      46   -121    -41    130    137 159.1 -17.5  34000  286.88 0855.44
2009/04/23 08:20:56.6      64    -76      4    100    101 139.5   2.8  34002  286.91 0855.44
2009/04/23 08:20:56.7      42   -116     49    124    133 159.9  22.5  34004  286.93 0855.44
2009/04/23 08:20:56.8      61   -177     64    188    199 160.8  18.9  34002  286.91 0855.44
2009/04/23 08:20:56.9      42   -161     55    167    177 165.3  18.4  34000  286.88 0855.44
2009/04/23 08:20:57.0      17   -178     73    179    193 174.4  23.1  34002  286.89 0855.44
2009/04/23 08:20:57.1      11   -261     81    262    275 177.5  17.3  34000  286.85 0855.44
2009/04/23 08:20:57.2      26   -273     85    275    289 174.4  17.3  34000  286.87 0855.44
2009/04/23 08:20:57.3      59   -223     92    231    248 165.1  22.8  34000  286.87 0855.44
2009/04/23 08:20:57.4      91   -193     42    214    219 154.8  11.1  34000  286.88 0855.44
2009/04/23 08:20:57.5      66   -300     93    308    322 167.6  16.8  34000  286.87 0855.44
2009/04/23 08:20:57.6      50   -295     86    300    313 170.4  16.0  34002  286.90 0855.44
2009/04/23 08:20:57.7      47   -322     45    326    330 171.7   7.9  34004  286.92 0855.44
2009/04/23 08:20:57.8      84   -253    132    267    297 161.5  28.2  34004  286.92 0855.44
2009/04/23 08:20:57.9     105   -289    111    308    328 160.0  19.9  34008  286.99 0855.44
2009/04/23 08:20:58.0      74   -242    144    254    291 163.0  32.1  34000  286.87 0855.44
2009/04/23 08:20:58.1      52   -189     96    197    219 164.6  27.8  34004  286.93 0855.44
2009/04/23 08:20:58.2      36   -191     38    195    199 169.1  11.1  34002  286.91 0855.44
2009/04/23 08:20:58.3      66   -203     49    214    220 162.0  12.9  34002  286.91 0855.44
2009/04/23 08:20:58.4      43   -212      3    217    218 168.5   0.8  34002  286.91 0855.44
2009/04/23 08:20:58.5      27   -218     71    220    232 172.9  17.9  34002  286.89 0855.44
2009/04/23 08:20:58.6      60   -261     50    268    273 166.9  10.6  34006  286.95 0855.44
2009/04/23 08:20:58.7      80   -244     36    257    260 161.7   8.0  34006  286.97 0855.44
2009/04/23 08:20:58.8      94   -214     42    234    238 156.3  10.3  34002  286.90 0855.44
2009/04/23 08:20:58.9      69   -188     63    201    211 159.7  17.4  34002  286.91 0855.44
2009/04/23 08:20:59.0      66   -177     46    189    195 159.5  13.7  34004  286.93 0855.44
2009/04/23 08:20:59.1      13   -177     69    178    190 175.5  22.3  34002  286.89 0855.44
2009/04/23 08:20:59.2      23   -256     91    258    274 174.7  19.4  34002  286.89 0855.44
2009/04/23 08:20:59.3      33   -280    102    283    300 173.1  20.7  34000  286.87 0855.44
2009/04/23 08:20:59.4       9   -254     95    255    272 177.8  21.3  34002  286.90 0855.44
2009/04/23 08:20:59.5      30   -213    143    216    259 171.9  36.5  34002  286.89 0855.44
2009/04/23 08:20:59.6      59   -177    124    187    224 161.3  36.5  34000  286.88 0855.44
2009/04/23 08:20:59.7      15   -251    135    252    285 176.5  30.3  34002  286.90 0855.44
2009/04/23 08:20:59.8      45   -289    132    293    321 171.1  25.8  33998  286.84 0855.44
2009/04/23 08:20:59.9      12   -268    146    269    306 177.3  31.0  34000  286.85 0855.44
2009/04/23 08:21:00.0      64   -262    198    270    334 166.2  39.8  34002  286.90 0855.44
2009/04/23 08:21:00.1      80   -236    215    250    329 161.3  45.1  34008  286.99 0855.44
2009/04/23 08:21:00.2      67   -280    203    289    353 166.4  38.7  34006  286.96 0855.44
2009/04/23 08:21:00.3      38   -243    217    247    328 171.1  45.8  34008  287.01 0855.44
2009/04/23 08:21:00.4      23   -285    201    287    350 175.3  38.5  34010  287.03 0855.44
2009/04/23 08:21:00.5     -47   -245    162    250    297 190.9  35.7  34006  286.97 0855.44
2009/04/23 08:21:00.6     -77   -240    143    253    290 197.8  32.3  34008  287.01 0855.44
2009/04/23 08:21:00.7     -62   -180    155    191    245 199.2  43.5  34006  286.98 0855.44
2009/04/23 08:21:00.8     -56   -208    133    216    253 195.1  34.8  34008  286.99 0855.44
2009/04/23 08:21:00.9     -79   -244    133    257    289 197.9  29.3  34008  286.99 0855.44
2009/04/23 08:21:01.0    -102   -214    110    238    262 205.5  26.4  34006  286.97 0855.44
2009/04/23 08:21:01.1     -70   -278    133    287    316 194.3  26.5  34008  287.01 0855.44
2009/04/23 08:21:01.2    -103   -236    106    258    278 203.6  23.4  34008  287.01 0855.44
2009/04/23 08:21:01.3    -105   -195     90    222    239 208.3  23.4  34006  286.97 0855.44
2009/04/23 08:21:01.4     -48   -183     94    190    211 194.9  28.0  34004  286.94 0855.44
2009/04/23 08:21:01.5    -100   -176    128    203    239 209.6  35.2  34002  286.91 0855.44
2009/04/23 08:21:01.6     -35   -140    120    145    188 194.3  43.8  34008  287.00 0855.44
2009/04/23 08:21:01.7     -79   -187     98    204    226 202.9  27.3  34004  286.93 0855.44
2009/04/23 08:21:01.8     -98   -178     76    204    217 208.9  21.3  34004  286.93 0855.44
2009/04/23 08:21:01.9    -150   -170     57    227    235 221.5  14.2  34004  286.94 0855.44
2009/04/23 08:21:02.0    -134   -128     -4    186    187 226.2  -1.3  34000  286.88 0855.44
2009/04/23 08:21:02.1    -158   -156      0    223    224 225.3   0.2  34002  286.89 0855.44
2009/04/23 08:21:02.2    -207   -126    -17    243    244 238.7  -4.1  34002  286.90 0855.44
2009/04/23 08:21:02.3    -170   -212     13    272    273 218.7   2.8  34004  286.94 0855.44
2009/04/23 08:21:02.4    -179   -272     15    326    327 213.4   2.8  34004  286.94 0855.45
2009/04/23 08:21:02.5    -177   -212    -51    277    282 219.9 -10.5  34008  287.01 0855.45
2009/04/23 08:21:02.6    -171   -290   -104    337    353 210.5 -17.3  34008  287.00 0855.45
2009/04/23 08:21:02.7    -220   -234   -163    322    360 223.2 -33.5  34006  286.96 0855.45
2009/04/23 08:21:02.8    -183   -329   -180    377    417 209.2 -31.7  34004  286.94 0855.45
2009/04/23 08:21:02.9     -54   -289   -179    294    344 190.6 -38.7  34006  286.96 0855.45
2009/04/23 08:21:03.0      56   -280   -176    286    335 168.7 -39.0  34006  286.97 0855.45
2009/04/23 08:21:03.1      87   -371      0    382    383 166.7   0.0  33996  286.80 0855.45
2009/04/23 08:21:03.2     100   -291    -60    308    314 160.9 -11.1  34000  286.87 0855.45
2009/04/23 08:21:03.3      46   -190    135    196    237 166.2  37.8  34004  286.94 0855.45
2009/04/23 08:21:03.4     -21   -168    105    170    199 187.1  34.8  34004  286.93 0855.45
2009/04/23 08:21:03.5      -2   -188    178    189    259 180.9  48.0  34008  286.99 0855.45
2009/04/23 08:21:03.6      23   -147    198    149    247 171.1  59.4  34004  286.93 0855.45
2009/04/23 08:21:03.7       8   -203    163    204    261 177.5  42.8  34004  286.92 0855.45
2009/04/23 08:21:03.8      45   -210    136    215    254 167.7  35.5  34006  286.95 0855.45
2009/04/23 08:21:03.9      -4    -76    163     77    180 183.6  72.9  34004  286.93 0855.45
2009/04/23 08:21:04.0      51   -137    138    147    201 159.5  48.0  34006  286.98 0855.45
2009/04/23 08:21:04.1      17   -124    132    126    182 172.0  51.4  34004  286.93 0855.45
2009/04/23 08:21:04.2      22   -142    127    144    192 171.1  46.2  34002  286.91 0855.45
2009/04/23 08:21:04.3     -42   -210    176    215    277 191.3  43.7  34004  286.94 0855.45
2009/04/23 08:21:04.4     -28   -150    167    153    226 190.7  52.5  34006  286.96 0855.44
2009/04/23 08:21:04.5     -19   -200    135    201    242 185.6  37.0  34006  286.98 0855.44
2009/04/23 08:21:04.6     -28   -180    130    183    224 189.1  39.1  34006  286.98 0855.44
2009/04/23 08:21:04.7     -58   -148    138    160    211 201.4  45.4  34006  286.98 0855.44
2009/04/23 08:21:04.8     -15   -143     86    144    167 186.2  34.0  34006  286.96 0855.44
2009/04/23 08:21:04.9     -70   -167    127    182    221 202.9  38.0  34002  286.89 0855.44
2009/04/23 08:21:05.0    -127   -137    111    188    218 222.8  33.4  34004  286.93 0855.44
2009/04/23 08:21:05.1     -14    -72    117     74    138 191.6  64.7  34004  286.93 0855.44
2009/04/23 08:21:05.2      17      7     72     19     74  68.3  84.9  34008  287.01 0855.44
2009/04/23 08:21:05.3     -24      0     82     25     85 270.0  82.8  34008  287.01 0855.44
2009/04/23 08:21:05.4     -12   -127    138    128    188 185.8  52.2  34006  286.96 0855.44
2009/04/23 08:21:05.5       8   -133    135    134    190 176.4  49.9  34006  286.96 0855.44
2009/04/23 08:21:05.6     -42   -160    140    166    217 194.9  44.5  34006  286.98 0855.44
2009/04/23 08:21:05.7     -73   -148    111    166    199 206.3  37.0  34008  287.00 0855.44
2009/04/23 08:21:05.8      -1      6    102      7    102 350.3  90.0  34010  287.03 0855.44
2009/04/23 08:21:05.9     -42      7    124     43    131 279.7  81.2  34008  287.01 0855.44
2009/04/23 08:21:06.0     -41     -7    107     42    114 259.4  78.2  34010  287.03 0855.44
2009/04/23 08:21:06.1     -15     12    105     20    106 307.8  90.0  34008  287.00 0855.44
2009/04/23 08:21:06.2     -81     40    121     91    151 296.2  59.0  34006  286.98 0855.44
2009/04/23 08:21:06.3      20    -44    126     49    135 155.5  78.6  34000  286.88 0855.44
2009/04/23 08:21:06.4     -32    -63    123     71    142 207.2  67.7  34006  286.96 0855.44
2009/04/23 08:21:06.5      11   -151    168    152    226 175.5  53.3  34008  287.01 0855.44
2009/04/23 08:21:06.6     -11      8    121     14    121 306.0  90.0  34008  287.01 0855.44
2009/04/23 08:21:06.7      45    -15    160     48    167 108.6  82.8  34006  286.98 0855.44
2009/04/23 08:21:06.8       0   -101    166    102    194 180.0  65.1  34004  286.93 0855.44
2009/04/23 08:21:06.9       4    -44    175     45    180 173.8  85.4  34006  286.96 0855.44
2009/04/23 08:21:07.0      -2    -30    112     31    116 184.5  84.8  34008  287.00 0855.44
2009/04/23 08:21:07.1       0    -23     90     24     93 180.9  84.9  34008  287.01 0855.44
2009/04/23 08:21:07.2      15    -81    154     83    174 169.3  69.6  34004  286.94 0855.44
2009/04/23 08:21:07.3      11   -143    206    144    251 175.6  61.8  34002  286.89 0855.44
2009/04/23 08:21:07.4     -54   -264    205    270    339 191.6  41.1  34006  286.95 0855.44
2009/04/23 08:21:07.5    -115   -216    115    246    271 208.1  27.1  34004  286.92 0855.44
2009/04/23 08:21:07.6    -111   -181    147    213    258 211.4  38.0  34002  286.90 0855.44
2009/04/23 08:21:07.7     -93   -182     92    205    224 207.0  25.7  33994  286.76 0855.44
2009/04/23 08:21:07.8     -84   -185     66    204    215 204.3  17.9  33988  286.67 0855.44
2009/04/23 08:21:07.9     -31   -220    147    223    267 188.2  36.5  33996  286.80 0855.44
2009/04/23 08:21:08.0    -104   -166    133    197    237 212.1  37.4  33994  286.76 0855.44
2009/04/23 08:21:08.1    -107   -172    175    203    268 211.9  44.9  33998  286.82 0855.44
2009/04/23 08:21:08.2     -98   -136    236    168    289 215.8  61.1  33996  286.79 0855.44
2009/04/23 08:21:08.3     -42    -68    207     81    222 211.6  77.4  33992  286.74 0855.44
2009/04/23 08:21:08.4     -17     26    158     32    161 327.4  89.0  34004  286.93 0855.43
2009/04/23 08:21:08.5     -10      9    164     14    164 313.1  90.0  33998  286.83 0855.43
2009/04/23 08:21:08.6      -2     38    160     39    164 355.6  86.7  34000  286.88 0855.43
2009/04/23 08:21:08.7     -66     10    155     67    168 278.8  75.3  33998  286.84 0855.43
2009/04/23 08:21:08.8     -52     26    176     59    185 296.2  81.0  34000  286.86 0855.43
2009/04/23 08:21:08.9     -52     66    124     85    150 321.7  62.6  33998  286.83 0855.43
2009/04/23 08:21:09.0       9    -15    140     18    141 147.4  90.0  34000  286.88 0855.43
2009/04/23 08:21:09.1      94     16    164     96    190  79.9  67.0  33994  286.78 0855.43
2009/04/23 08:21:09.2     133     31    239    137    275  76.7  67.7  33998  286.82 0855.43
2009/04/23 08:21:09.3      68     40    214     80    228  59.3  78.9  33996  286.81 0855.43
2009/04/23 08:21:09.4      74     56    193     94    214  52.7  72.7  34000  286.86 0855.43
2009/04/23 08:21:09.5      34     35    193     50    199  44.1  85.4  33998  286.83 0855.43
2009/04/23 08:21:09.6     105     50    251    117    276  64.6  73.2  34002  286.89 0855.43
2009/04/23 08:21:09.7     119     36    285    125    311  73.1  74.9  33996  286.80 0855.43
2009/04/23 08:21:09.8     206     58    190    215    286  74.1  45.9  34000  286.87 0855.43
2009/04/23 08:21:09.9     166     61    217    177    280  69.8  56.4  33994  286.75 0855.43
2009/04/23 08:21:10.0     265    120    227    292    369  65.6  41.9  34002  286.90 0855.43
2009/04/23 08:21:10.1     252    129    195    284    344  62.9  37.8  33998  286.82 0855.43
2009/04/23 08:21:10.2     341    122    197    363    413  70.3  30.9  33996  286.81 0855.43
2009/04/23 08:21:10.3     328    114    119    348    368  70.8  18.9  34006  286.95 0855.43
2009/04/23 08:21:10.4     348    122    204    370    422  70.6  31.3  34030  287.38 0855.43
2009/04/23 08:21:10.5     268    147    159    306    344  61.1  29.5  34016  287.13 0855.43
2009/04/23 08:21:10.6     240    112    167    266    314  64.9  35.1  34036  287.48 0855.43
2009/04/23 08:21:10.7     266     97    155    284    323  70.0  30.9  34050  287.71 0855.43
2009/04/23 08:21:10.8     287    154    144    326    356  61.8  25.2  34040  287.54 0855.43
2009/04/23 08:21:10.9     362    120     73    382    389  71.5  10.8  34010  287.02 0855.43
2009/04/23 08:21:11.0     280    139    137    313    341  63.6  25.2  34036  287.47 0855.43
2009/04/23 08:21:11.1     274    120    130    300    326  66.4  25.0  34112  288.76 0855.43
2009/04/23 08:21:11.2     254    184    139    314    343  54.1  25.6  34094  288.47 0855.43
2009/04/23 08:21:11.3     345    249    108    426    440  54.1  14.3  34044  287.60 0855.43
2009/04/23 08:21:11.4     314    220     15    384    385  54.9   2.3  34016  287.15 0855.43
2009/04/23 08:21:11.5     156    170    -20    232    233  42.5  -5.1  34034  287.43 0855.43
2009/04/23 08:21:11.6     -38    175     35    180    184 347.7  11.1  34054  287.79 0855.43
2009/04/23 08:21:11.7     -25    125    109    128    168 348.4  44.8  34064  287.94 0855.43
2009/04/23 08:21:11.8      65    140     80    155    174  24.9  29.3  34058  287.86 0855.43
2009/04/23 08:21:11.9     210    124     70    244    254  59.4  16.0  34022  287.24 0855.43
2009/04/23 08:21:12.0     282    179    131    334    358  57.6  22.5  34042  287.57 0855.43
2009/04/23 08:21:12.1     265    197    169    331    371  53.4  29.2  34060  287.88 0855.43
2009/04/23 08:21:12.2     286    113     68    308    316  68.3  12.6  34026  287.29 0855.43
2009/04/23 08:21:12.3     222    126    152    256    297  60.3  33.5  34050  287.71 0855.43
2009/04/23 08:21:12.4      84    101    198    132    237  39.6  63.2  34090  288.38 0855.43
2009/04/23 08:21:12.5     162     57    153    172    230  70.5  46.2  34090  288.40 0855.43
2009/04/23 08:21:12.6     268     97     14    286    287  70.1   2.9  34016  287.12 0855.43
2009/04/23 08:21:12.7     225    139    103    265    284  58.2  22.3  34058  287.85 0855.43
2009/04/23 08:21:12.8     213    140    166    256    305  56.7  35.7  34108  288.68 0855.43
2009/04/23 08:21:12.9     203     76    200    217    295  69.4  47.7  34100  288.56 0855.43
2009/04/23 08:21:13.0     135     75    180    155    237  60.7  54.8  34096  288.48 0855.43
2009/04/23 08:21:13.1     179     57    139    188    233  72.3  39.9  34098  288.53 0855.43
2009/04/23 08:21:13.2      45     31    131     55    142  54.9  76.6  34100  288.55 0855.43
2009/04/23 08:21:13.3      44     60    113     75    135  36.1  63.6  34112  288.77 0855.43
2009/04/23 08:21:13.4     184     67     86    197    214  69.8  25.1  34118  288.87 0855.43
2009/04/23 08:21:13.5     193    122     67    229    239  57.6  16.4  34068  288.02 0855.43
2009/04/23 08:21:13.6     103    144    114    178    211  35.6  35.6  34058  287.86 0855.43
2009/04/23 08:21:13.7     100    161     99    190    214  31.9  29.5  34074  288.11 0855.43
2009/04/23 08:21:13.8     143     79    127    164    207  60.9  41.7  34096  288.50 0855.43
2009/04/23 08:21:13.9     134    134     77    190    205  45.0  23.1  34110  288.74 0855.43
2009/04/23 08:21:14.0     174     89     67    196    208  62.7  18.9  34082  288.26 0855.43
2009/04/23 08:21:14.1     160    122     77    202    216  52.7  22.0  34062  287.92 0855.43
2009/04/23 08:21:14.2     153    130     78    201    215  49.6  22.5  34044  287.62 0855.43
2009/04/23 08:21:14.3     119    122     21    171    173  44.3   7.2  34042  287.57 0855.43
2009/04/23 08:21:14.4     172    141     27    223    225  50.5   7.1  34042  287.59 0855.43
2009/04/23 08:21:14.5     152     87     42    176    182  60.2  13.5  34048  287.67 0855.43
2009/04/23 08:21:14.6     157    100     78    187    202  57.6  23.8  34048  287.67 0855.43
2009/04/23 08:21:14.7     157    106     61    190    200  56.0  17.9  34034  287.43 0855.43
2009/04/23 08:21:14.8      99    124      6    159    160  38.7   2.5  34026  287.32 0855.43
2009/04/23 08:21:14.9     102     69    -15    124    125  55.8  -7.2  34028  287.35 0855.43
2009/04/23 08:21:15.0      78     73      5    108    109  46.9   2.9  34032  287.40 0855.43
2009/04/23 08:21:15.1      92     99     16    136    137  42.8   6.9  34046  287.65 0855.43
2009/04/23 08:21:15.2     110     85    -16    140    141  52.3  -6.7  34054  287.79 0855.43
2009/04/23 08:21:15.3     173     43      0    179    180  75.8  -0.3  34090  288.38 0855.43
2009/04/23 08:21:15.4     165    108     85    198    215  56.9  24.9  34104  288.64 0855.42
2009/04/23 08:21:15.5     133    108     73    172    186  50.7  24.3  34114  288.79 0855.42
2009/04/23 08:21:15.6      35     63     96     73    120  29.0  59.0  34098  288.52 0855.42
2009/04/23 08:21:15.7     -10     49     83     51     97 348.4  64.7  34088  288.36 0855.42
2009/04/23 08:21:15.8     -40     38     56     56     79 314.1  50.1  34084  288.28 0855.42
2009/04/23 08:21:15.9     -24    -38     57     46     73 212.5  56.4  34062  287.92 0855.42
2009/04/23 08:21:16.0      39    -38    102     55    115 134.1  69.3  34016  287.13 0855.42
2009/04/23 08:21:16.1     144    -11    115    145    185  94.4  43.0  34126  288.99 0855.42
2009/04/23 08:21:16.2     159      2     98    160    187  89.2  34.8  34136  289.18 0855.42
2009/04/23 08:21:16.4     100    -21     63    103    120 101.9  34.4  34116  288.84 0855.42
2009/04/23 08:21:16.5     106     13     57    107    121  82.5  30.3  34116  288.82 0855.42
2009/04/23 08:21:16.5      89     33     39     95    102  69.6  23.1  34118  288.86 0855.42
2009/04/23 08:21:16.6      59     18     21     62     66  72.3  19.4  34110  288.74 0855.42
2009/04/23 08:21:16.7      44     14     17     47     49  71.6  20.0  34102  288.60 0855.42
2009/04/23 08:21:16.8      61      3      3     62     63  86.5   2.9  34090  288.40 0855.42
2009/04/23 08:21:16.9      47     30     30     56     63  57.5  31.3  34082  288.25 0855.42
2009/04/23 08:21:17.1      -9     79     40     80     89 352.9  28.2  34076  288.16 0855.42
2009/04/23 08:21:17.1      16     76     54     78     94  12.5  37.6  34068  288.03 0855.42
2009/04/23 08:21:17.3      89     29    112     94    146  71.8  56.3  34068  288.01 0855.42
2009/04/23 08:21:17.4     139     31    108    143    179  77.2  40.7  34064  287.94 0855.42
2009/04/23 08:21:17.5     122     36    145    128    193  73.2  54.0  34078  288.18 0855.41
2009/04/23 08:21:17.6      36     12    115     39    121  71.4  81.2  34072  288.08 0855.41
2009/04/23 08:21:17.7     150    -45    179    157    238 106.8  54.2  34044  287.60 0855.41
2009/04/23 08:21:17.8     145     -6    164    146    219  92.5  53.7  34044  287.60 0855.41
2009/04/23 08:21:17.9     152     66    187    166    250  66.5  54.0  34072  288.09 0855.41
2009/04/23 08:21:18.0     191     50    163    198    256  75.2  43.7  34070  288.04 0855.41
2009/04/23 08:21:18.1     132     36    163    138    213  74.5  55.8  34064  287.96 0855.41
2009/04/23 08:21:18.2     105     18    153    107    186  80.3  61.5  34068  288.01 0855.41
2009/04/23 08:21:18.3     110     41    154    118    194  69.2  58.7  34080  288.23 0855.41
2009/04/23 08:21:18.4     101     63    107    120    160  58.0  46.4  34086  288.31 0855.41
2009/04/23 08:21:18.5      92     31    134     98    166  71.4  60.0  34064  287.94 0855.41
2009/04/23 08:21:18.6      23    -28    130     37    135 140.4  83.3  34024  287.27 0855.41
2009/04/23 08:21:18.7      29     22     78     37     86  52.2  72.9  34014  287.10 0855.41
2009/04/23 08:21:18.8      -3      4     63      6     63 320.4  90.0  34016  287.13 0855.41
2009/04/23 08:21:18.9     -14      8     41     17     44 298.9  77.1  34016  287.13 0855.41
2009/04/23 08:21:19.0     -40    -95     61    104    120 202.7  33.4  34024  287.27 0855.41
2009/04/23 08:21:19.1     -29   -110     84    114    141 195.2  39.7  34032  287.40 0855.41
2009/04/23 08:21:19.2     -25    -82     89     86    123 197.4  50.7  34032  287.42 0855.41
2009/04/23 08:21:19.3     -22   -111     72    114    134 191.6  35.5  34028  287.35 0855.41
2009/04/23 08:21:19.4     -20   -128     93    130    159 188.9  39.1  34034  287.45 0855.41
2009/04/23 08:21:19.5      -2   -156    107    157    189 181.0  37.6  34038  287.52 0855.42
2009/04/23 08:21:19.6       9   -145    118    146    187 176.4  43.5  34038  287.50 0855.42
2009/04/23 08:21:19.7       7   -161    112    162    196 177.5  38.0  34044  287.62 0855.42
2009/04/23 08:21:19.8      27   -144    101    147    178 169.3  38.0  34048  287.69 0855.42
2009/04/23 08:21:19.9       2   -154     86    155    177 179.0  31.4  34064  287.96 0855.42
2009/04/23 08:21:20.0       1   -168    130    169    213 179.5  41.6  34038  287.52 0855.42
2009/04/23 08:21:20.1      24   -157    132    159    206 171.1  43.8  34046  287.65 0855.42
2009/04/23 08:21:20.2       9   -145    125    146    192 176.4  44.8  34038  287.50 0855.42
2009/04/23 08:21:20.3      -6   -141    109    142    179 182.7  41.4  34058  287.86 0855.42
2009/04/23 08:21:20.4      16    -97     69     99    120 170.2  38.6  34064  287.96 0855.42
2009/04/23 08:21:20.5      10   -126     80    127    150 175.1  35.5  34058  287.84 0855.42
2009/04/23 08:21:20.6     -12   -158    125    159    202 184.4  42.0  34064  287.96 0855.42
2009/04/23 08:21:20.7      -7   -141    137    142    197 183.1  49.0  34030  287.38 0855.42
2009/04/23 08:21:20.8       6   -143    142    144    202 177.4  50.0  34020  287.20 0855.42
2009/04/23 08:21:20.9      55   -136    119    147    189 157.7  43.5  34020  287.20 0855.42
2009/04/23 08:21:21.0      38    -92    105    100    145 157.3  51.2  34018  287.16 0855.42
2009/04/23 08:21:21.1      23    -23     80     33     86 135.0  77.1  34018  287.18 0855.42
2009/04/23 08:21:21.2      28    -20     62     35     71 126.0  68.8  34024  287.28 0855.42
2009/04/23 08:21:21.3      15      0     50     16     52  90.0  80.7  34020  287.21 0855.42
2009/04/23 08:21:21.4      89    -11     65     90    111  97.5  39.7  34022  287.25 0855.42
2009/04/23 08:21:21.5      81     -6     98     82    127  94.8  56.3  34022  287.25 0855.44
2009/04/23 08:21:21.6      16    -47     79     50     93 161.3  64.7  34020  287.21 0855.44
2009/04/23 08:21:21.7      30     18     59     36     69  59.3  64.7  34018  287.18 0855.44
2009/04/23 08:21:21.8      33     26     65     43     77  52.2  64.6  34022  287.23 0855.44
2009/04/23 08:21:21.9      10    -14     47     18     50 143.9  79.2  34024  287.27 0855.44
2009/04/23 08:21:22.0      20      0     71     21     74  89.2  81.8  34024  287.28 0855.44
2009/04/23 08:21:22.1     118     54     74    130    149  65.2  31.9  34046  287.64 0855.44
2009/04/23 08:21:22.2      84     30     99     90    133  70.5  52.7  34046  287.64 0855.44
2009/04/23 08:21:22.3      83    -20     84     86    120 103.7  50.0  34034  287.43 0855.44
2009/04/23 08:21:22.4     -39     -7     96     40    104 259.4  77.0  34022  287.23 0855.44
2009/04/23 08:21:22.5      26    -28    125     39    130 136.6  82.3  34022  287.23 0855.44
2009/04/23 08:21:22.6     -20   -131    108    133    171 188.9  43.5  34016  287.15 0855.44
2009/04/23 08:21:22.7     -10   -173    162    174    237 183.4  47.9  34014  287.11 0855.44
2009/04/23 08:21:22.8      -6    -85    149     86    172 184.4  67.5  34020  287.21 0855.44
2009/04/23 08:21:22.9       3    -48    116     49    125 175.5  76.1  34016  287.13 0855.44
2009/04/23 08:21:23.0      11    -79    120     80    144 171.9  63.6  34020  287.20 0855.44
2009/04/23 08:21:23.1     -40    -67    144     79    164 210.7  68.8  34030  287.38 0855.44
2009/04/23 08:21:23.2     -25   -120    168    123    208 192.0  60.5  34032  287.40 0855.44
2009/04/23 08:21:23.3     -60   -197    177    207    272 197.0  44.9  34030  287.38 0855.44
2009/04/23 08:21:23.4     -74   -166    205    182    274 204.1  54.2  34024  287.28 0855.44
2009/04/23 08:21:23.5    -104    -98    168    144    221 226.8  55.0  34028  287.33 0855.44
2009/04/23 08:21:23.6    -110   -101    125    150    195 227.3  44.1  34026  287.32 0855.44
2009/04/23 08:21:23.7    -125    -92     93    156    181 233.6  33.5  34028  287.33 0855.44
2009/04/23 08:21:23.8     -88   -113     88    144    168 217.8  34.4  34032  287.40 0855.44
2009/04/23 08:21:23.9     -27   -123    120    127    174 192.5  48.7  34030  287.38 0855.44
2009/04/23 08:21:24.0     -39   -108    109    115    158 200.0  48.7  34038  287.50 0855.44
2009/04/23 08:21:24.1     -17    -99    113    101    151 190.2  53.7  34032  287.40 0855.44
2009/04/23 08:21:24.2     -58   -121    110    135    174 205.9  43.5  34028  287.33 0855.44
2009/04/23 08:21:24.3       0    -85    107     86    137 180.0  56.4  34028  287.33 0855.44
2009/04/23 08:21:24.4     -29    -87    107     92    141 198.5  54.8  34028  287.35 0855.44
2009/04/23 08:21:24.5     -48   -101    120    112    164 205.5  52.0  34026  287.32 0855.44
2009/04/23 08:21:24.6       0    -89    120     90    150 180.4  59.4  34028  287.35 0855.44
2009/04/23 08:21:24.7     -16   -150    168    151    225 186.3  53.5  34022  287.25 0855.44
2009/04/23 08:21:24.8     -64   -147    154    161    222 203.6  48.7  34022  287.23 0855.44
2009/04/23 08:21:24.9     -83   -119    154    146    212 214.7  51.6  34024  287.27 0855.44
2009/04/23 08:21:25.0     -94   -123    108    155    188 217.4  38.4  34022  287.23 0855.44
2009/04/23 08:21:25.1     -54    -67     89     87    124 218.7  50.1  34022  287.23 0855.44
2009/04/23 08:21:25.2     -41    -24     51     48     70 239.3  52.1  34024  287.28 0855.44
2009/04/23 08:21:25.3     -23    -30     37     38     53 217.8  51.1  34024  287.28 0855.44
2009/04/23 08:21:25.4     -24    -35     36     43     56 214.3  43.8  34026  287.30 0855.44
2009/04/23 08:21:25.5     -41   -104     75    113    135 201.8  36.5  34030  287.38 0855.43
2009/04/23 08:21:25.6     -52   -158     48    167    174 198.3  16.3  34044  287.62 0855.43
2009/04/23 08:21:25.7     -60   -170     98    181    205 199.6  30.6  34040  287.54 0855.43
2009/04/23 08:21:25.8     -42   -168     93    174    197 194.0  30.6  34036  287.47 0855.43
2009/04/23 08:21:25.9     -46   -153    110    160    194 196.9  37.8  34034  287.43 0855.43
2009/04/23 08:21:26.0     -44   -159    119    166    204 195.6  39.1  34038  287.50 0855.43
2009/04/23 08:21:26.1     -39   -140     90    146    171 195.6  34.8  34032  287.42 0855.43
2009/04/23 08:21:26.2     -37   -133    106    139    174 195.6  41.2  34034  287.43 0855.43
2009/04/23 08:21:26.3     -14   -130    103    131    166 186.2  42.4  34030  287.38 0855.43
2009/04/23 08:21:26.4      -1   -166    119    167    205 180.5  39.1  34028  287.35 0855.43
2009/04/23 08:21:26.5      -8   -197     91    198    217 182.5  26.4  34024  287.28 0855.43
2009/04/23 08:21:26.6     -21   -209    114    211    239 185.8  30.6  34016  287.15 0855.43
2009/04/23 08:21:26.7     -32   -224     88    227    243 188.1  22.0  34014  287.09 0855.43
2009/04/23 08:21:26.8       9   -193    111    194    223 177.3  32.4  34004  286.94 0855.43
2009/04/23 08:21:26.9      59   -207    138    216    256 164.0  35.6  34012  287.06 0855.43
2009/04/23 08:21:27.0      28   -231    115    233    259 172.9  28.2  34010  287.04 0855.43
2009/04/23 08:21:27.1      -7   -236     82    237    252 181.8  19.2  34008  287.01 0855.43
2009/04/23 08:21:27.2     -16   -167     22    168    170 185.6   7.5  34008  287.01 0855.43
2009/04/23 08:21:27.3      18   -180     31    181    184 174.2   9.9  34008  287.01 0855.43
2009/04/23 08:21:27.4      20   -202     13    204    205 174.2   3.8  34008  287.01 0855.43
2009/04/23 08:21:27.5      23   -220    -12    222    223 174.0  -3.2  34010  287.05 0855.43
2009/04/23 08:21:27.6      10   -199    -16    200    201 176.9  -4.6  34008  287.00 0855.43
2009/04/23 08:21:27.7      24   -190    -18    192    193 172.7  -5.6  34016  287.13 0855.43
2009/04/23 08:21:27.8      20   -168    -42    170    176 173.1 -13.9  34018  287.18 0855.43
2009/04/23 08:21:27.9      64    -96    -41    116    124 146.2 -19.7  34018  287.18 0855.43
2009/04/23 08:21:28.0      79    -74     19    109    111 133.2  10.1  34016  287.13 0855.43
2009/04/23 08:21:28.1      -4    -45    123     46    131 185.3  79.1  34012  287.06 0855.43
2009/04/23 08:21:28.2     -37   -133    137    139    195 195.6  50.0  34010  287.03 0855.43
2009/04/23 08:21:28.3      -5   -184     85    185    203 181.8  26.4  34010  287.05 0855.43
2009/04/23 08:21:28.4     -50   -160     84    168    187 197.6  28.5  34010  287.05 0855.43
2009/04/23 08:21:28.5     -64   -147     83    161    181 203.6  29.5  34006  286.98 0855.43
2009/04/23 08:21:28.6     -38   -137     83    143    165 195.6  32.9  34010  287.03 0855.43
2009/04/23 08:21:28.7     -39    -90     36     99    105 203.6  20.0  34008  287.01 0855.43
2009/04/23 08:21:28.8     -27    -86    -26     91     94 197.8 -21.2  34010  287.03 0855.43
2009/04/23 08:21:28.9      20   -102    -57    105    119 168.5 -35.7  34014  287.11 0855.43
2009/04/23 08:21:29.0     -11    -88    -41     89     97 187.6 -31.0  34016  287.13 0855.43
2009/04/23 08:21:29.1      -5   -119    -39    120    126 182.7 -23.8  34014  287.11 0855.43
2009/04/23 08:21:29.2      -8   -112     28    113    117 184.5  14.3  34010  287.05 0855.43
2009/04/23 08:21:29.3     -17   -129     33    131    136 187.6  14.3  34014  287.10 0855.43
2009/04/23 08:21:29.4      10   -132     58    133    145 175.5  25.1  34010  287.03 0855.43
2009/04/23 08:21:29.5      37    -97     62    104    121 159.1  33.5  34016  287.15 0855.42
2009/04/23 08:21:29.6      58   -144     71    156    171 158.1  26.2  34014  287.11 0855.42
2009/04/23 08:21:29.7     129   -125     -3    180    181 134.2  -1.2  34022  287.23 0855.42
2009/04/23 08:21:29.8     115   -143     61    184    194 141.3  18.4  34014  287.10 0855.42
2009/04/23 08:21:29.9      94   -142     70    171    184 146.6  23.1  34010  287.03 0855.42
2009/04/23 08:21:30.0      23   -143     81    145    166 170.7  31.9  34004  286.94 0855.42
2009/04/23 08:21:30.1      29   -115     75    119    140 165.7  35.5  34006  286.96 0855.42
2009/04/23 08:21:30.2      70   -110     65    131    146 147.4  27.8  34008  287.00 0855.42
2009/04/23 08:21:30.3     117   -192    157    226    275 148.6  38.4  34006  286.95 0855.42
2009/04/23 08:21:30.4     217   -424     35    477    479 152.8   4.2  34006  286.98 0855.42
2009/04/23 08:21:30.5      67   -383    189    389    432 170.0  27.9  34006  286.97 0855.42
2009/04/23 08:21:30.6     203   -426    162    472    500 154.5  18.9  34006  286.97 0855.42
2009/04/23 08:21:30.7     171   -285    140    333    361 149.0  24.1  34006  286.96 0855.42
2009/04/23 08:21:30.8     172   -377    319    415    523 155.5  41.5  34010  287.05 0855.42
2009/04/23 08:21:30.9     157   -223    180    273    327 144.8  36.5  34010  287.02 0855.42
2009/04/23 08:21:31.0      75   -241    164    253    301 162.6  35.6  34006  286.95 0855.42
2009/04/23 08:21:31.1     -32   -295    163    297    338 186.2  31.3  34008  287.01 0855.42
2009/04/23 08:21:31.2       4   -334    144    335    364 179.2  24.9  34004  286.93 0855.42
2009/04/23 08:21:31.3       5   -296    162    297    338 178.9  31.0  34004  286.94 0855.42
2009/04/23 08:21:31.4     -20   -282     81    283    295 184.2  16.0  34004  286.92 0855.42
2009/04/23 08:21:31.5       0   -230     88    231    247 180.2  22.0  34006  286.95 0855.42
2009/04/23 08:21:31.6     -51   -245     54    251    257 191.8  12.2  34000  286.85 0855.42
2009/04/23 08:21:31.7     -71   -238    -39    249    253 196.7  -9.0  34002  286.89 0855.42
2009/04/23 08:21:31.8     -31   -268    -14    270    271 186.7  -3.1  34002  286.90 0855.42
2009/04/23 08:21:31.9     -24   -307    -62    309    316 184.5 -11.3  34002  286.89 0855.42
2009/04/23 08:21:32.0     -23   -310   -106    311    329 184.4 -18.8  34000  286.87 0855.42
2009/04/23 08:21:32.1      -4   -279    -77    280    291 180.9 -15.5  34000  286.87 0855.42
2009/04/23 08:21:32.2      37   -247    -97    250    268 171.3 -26.7  34002  286.90 0855.42
2009/04/23 08:21:32.3      51   -269    -70    274    283 169.1 -14.5  34000  286.87 0855.42
2009/04/23 08:21:32.4      45   -292    -86    296    309 171.1 -16.2  34002  286.89 0855.42
2009/04/23 08:21:32.5      73   -272    -48    282    287 164.8  -9.8  34002  286.89 0855.42
2009/04/23 08:21:32.6      88   -173    -30    195    198 153.0  -9.0  33998  286.84 0855.42
2009/04/23 08:21:32.7     117   -117     71    166    180 135.0  24.3  34002  286.91 0855.42
2009/04/23 08:21:32.8     104   -143    141    178    227 143.9  42.7  34002  286.89 0855.42
2009/04/23 08:21:32.9     249   -205     59    323    329 129.5  10.4  34004  286.92 0855.42
2009/04/23 08:21:33.0     219   -262    114    342    361 140.1  18.5  34000  286.88 0855.42
2009/04/23 08:21:33.1     213   -270    140    345    372 141.7  23.2  34002  286.91 0855.42
2009/04/23 08:21:33.2     189   -290    -10    347    348 146.9  -1.7  34006  286.98 0855.42
2009/04/23 08:21:33.3     263   -233     50    352    356 131.5   8.2  34004  286.93 0855.42
2009/04/23 08:21:33.4     215   -274     67    349    356 141.8  11.0  34002  286.91 0855.42
2009/04/23 08:21:33.5     244   -209     33    322    324 130.5   6.0  34000  286.87 0855.42
2009/04/23 08:21:33.6     260   -133     45    293    297 117.1   8.9  34002  286.89 0855.42
2009/04/23 08:21:33.7     152   -143    -24    209    211 133.3  -6.7  34000  286.88 0855.42
2009/04/23 08:21:33.8     126   -153     66    199    210 140.6  18.6  34000  286.88 0855.42
2009/04/23 08:21:33.9     187   -103     96    214    234 118.9  25.9  34002  286.91 0855.42
2009/04/23 08:21:34.0     104    -85    173    135    219 129.1  58.2  34004  286.94 0855.42
2009/04/23 08:21:34.1     184   -101    136    211    251 118.8  35.6  34002  286.90 0855.42
2009/04/23 08:21:34.2      49   -147    153    156    218 161.3  49.8  33998  286.84 0855.42
2009/04/23 08:21:34.3      53   -203    145    210    255 165.3  38.4  34002  286.90 0855.42
2009/04/23 08:21:34.4      57   -213    119    221    251 164.9  30.8  34000  286.87 0855.42
2009/04/23 08:21:34.5      92   -317    139    331    359 163.7  24.2  34004  286.93 0855.42
2009/04/23 08:21:34.6     111   -225    101    252    271 153.7  23.0  34002  286.90 0855.42
2009/04/23 08:21:34.7     159   -131    129    207    243 129.5  35.2  34000  286.88 0855.42
2009/04/23 08:21:34.8     160    -48    148    168    223 106.6  45.9  34006  286.96 0855.42
2009/04/23 08:21:34.9     179    -20    160    181    241  96.6  46.2  34004  286.94 0855.42
2009/04/23 08:21:35.0     137    -12    113    138    178  95.2  43.7  34008  287.00 0855.42
2009/04/23 08:21:35.1      74    -74     74    106    129 135.0  38.0  34010  287.03 0855.42
2009/04/23 08:21:35.2     190   -230    -49    299    304 140.3  -9.3  34006  286.95 0855.42
2009/04/23 08:21:35.3     245   -391   -143    462    484 147.9 -17.3  34006  286.98 0855.42
2009/04/23 08:21:35.4     142   -337    -11    366    367 157.1  -1.8  34012  287.08 0855.42
2009/04/23 08:21:35.5     130   -255    -49    287    292 152.9  -9.8  34010  287.02 0855.41
2009/04/23 08:21:35.6     110   -214     -8    241    242 152.6  -2.1  34012  287.06 0855.41
2009/04/23 08:21:35.7      17   -257      3    258    259 176.2   0.7  34010  287.04 0855.41
2009/04/23 08:21:35.8     103   -143   -130    177    219 144.4 -44.1  34006  286.96 0855.41
2009/04/23 08:21:35.9     252   -157    -91    298    311 122.0 -22.1  34004  286.92 0855.41
2009/04/23 08:21:36.0     210    -16   -108    211    237  94.4 -33.7  34006  286.98 0855.41
2009/04/23 08:21:36.1     152    -38   -120    157    197 104.2 -45.8  34006  286.98 0855.41
2009/04/23 08:21:36.2      58   -255     13    262    263 167.1   2.9  34008  286.99 0855.41
2009/04/23 08:21:36.3      31   -184    -24    187    189 170.4  -7.3  34008  287.00 0855.41
2009/04/23 08:21:36.4      41   -113     -4    121    122 160.0  -2.2  34008  287.01 0855.41
2009/04/23 08:21:36.5      -1    -73    -29     74     79 181.0 -26.4  34010  287.05 0855.41
2009/04/23 08:21:36.6      -4    -44    -29     45     53 186.2 -40.0  34008  287.01 0855.41
2009/04/23 08:21:36.7      56    -38    -35     68     76 124.2 -33.7  34008  287.00 0855.41
2009/04/23 08:21:36.8      74    -59    -41     95    103 128.6 -29.0  34006  286.96 0855.41
2009/04/23 08:21:36.9     105    -58   -112    121    164 118.9 -52.3  34010  287.03 0855.41
2009/04/23 08:21:37.0       0   -113    -82    114    140 180.4 -43.9  34008  287.01 0855.41
2009/04/23 08:21:37.1       3   -164   -151    165    223 178.6 -52.3  34008  287.00 0855.41
2009/04/23 08:21:37.2      67   -184   -167    196    257 160.0 -49.2  34010  287.04 0855.41
2009/04/23 08:21:37.3     147   -223    -89    268    282 146.6 -23.8  34008  287.01 0855.41
2009/04/23 08:21:37.4     225   -212    -80    310    321 133.2 -14.6  34006  286.97 0855.41
2009/04/23 08:21:37.5     186   -211     84    282    295 138.6  16.6  34008  286.99 0855.41
2009/04/23 08:21:37.6     146   -145     37    206    210 134.8  10.3  34012  287.08 0855.41
2009/04/23 08:21:37.7     281    -75    -39    291    294 105.0  -7.7  34012  287.06 0855.41
2009/04/23 08:21:37.8     239    -98      7    259    260 112.4   1.7  34010  287.02 0855.41
2009/04/23 08:21:37.9     205    -73    -12    218    219 109.7  -3.3  34012  287.06 0855.41
2009/04/23 08:21:38.0     223   -221     18    315    316 134.7   3.3  34012  287.07 0855.41
2009/04/23 08:21:38.1     215   -232     -7    317    318 137.2  -1.4  34010  287.04 0855.41
2009/04/23 08:21:38.2     210   -210    -27    297    299 135.0  -5.2  34008  287.01 0855.41
2009/04/23 08:21:38.3     249   -262    -14    362    363 136.5  -2.2  34012  287.08 0855.41
2009/04/23 08:21:38.4     240   -227    -38    331    334 133.5  -6.7  34010  287.05 0855.41
2009/04/23 08:21:38.5     259   -187    -65    320    327 125.9 -11.5  34010  287.02 0855.41
2009/04/23 08:21:38.6     296   -234    -25    378    379 128.3  -3.9  34012  287.08 0855.41
2009/04/23 08:21:38.7     352   -239      6    426    427 124.3   0.8  34016  287.14 0855.41
2009/04/23 08:21:38.8     310   -199     18    369    370 122.8   2.9  34016  287.13 0855.41
2009/04/23 08:21:38.9     296   -217     74    368    376 126.2  11.4  34016  287.15 0855.41
2009/04/23 08:21:39.0     261   -218     18    341    342 129.8   3.1  34012  287.08 0855.41
2009/04/23 08:21:39.1     235   -186     39    301    304 128.4   7.5  34018  287.16 0855.41
2009/04/23 08:21:39.2     181   -187    100    261    279 135.9  22.0  34016  287.12 0855.41
2009/04/23 08:21:39.3     174   -164     83    240    255 133.2  19.2  34016  287.12 0855.41
2009/04/23 08:21:39.4     202   -130     85    241    255 122.9  20.0  34018  287.17 0855.41
2009/04/23 08:21:39.5     193   -115     86    225    240 120.9  22.0  34016  287.12 0855.41
2009/04/23 08:21:39.6     190   -104    117    217    246 118.9  30.6  34018  287.17 0855.41
2009/04/23 08:21:39.7     145    -92     85    173    192 122.5  28.0  34016  287.13 0855.41
2009/04/23 08:21:39.8     101   -107     62    148    160 136.8  24.1  34016  287.15 0855.41
2009/04/23 08:21:39.9     139    -78     39    160    165 119.3  13.9  34014  287.10 0855.41
2009/04/23 08:21:40.0     136    -75     38    156    161 118.9  13.9  34014  287.11 0855.41
2009/04/23 08:21:40.1     142    -56     13    153    154 111.7   4.9  34014  287.11 0855.41
2009/04/23 08:21:40.2      75    -70     25    103    107 133.1  13.7  34016  287.13 0855.41
2009/04/23 08:21:40.3      23    -72     47     76     89 161.7  35.0  34014  287.11 0855.41
2009/04/23 08:21:40.4       4   -102     72    103    125 177.8  38.0  34016  287.13 0855.41
2009/04/23 08:21:40.5       8   -110     38    111    118 175.6  19.2  34016  287.13 0855.40
2009/04/23 08:21:40.6     -15   -139     17    140    142 186.2   7.1  34014  287.11 0855.40
2009/04/23 08:21:40.7      10   -131     11    132    133 175.5   4.9  34014  287.10 0855.40
2009/04/23 08:21:40.8      28   -132     82    135    157 168.0  34.2  34012  287.06 0855.40
2009/04/23 08:21:40.9     115   -158     87    196    214 144.0  25.3  34012  287.08 0855.40
2009/04/23 08:21:41.0      63   -161     68    174    186 158.4  22.8  34012  287.06 0855.40
2009/04/23 08:21:41.1     166    -92     49    191    198 119.1  14.5  34014  287.11 0855.40
2009/04/23 08:21:41.2     123   -101     90    160    183 129.5  31.9  34012  287.06 0855.40
2009/04/23 08:21:41.3     148   -173    183    228    292 139.5  42.8  34012  287.06 0855.40
2009/04/23 08:21:41.4     111    -67    176    130    218 121.1  60.3  34014  287.11 0855.40
2009/04/23 08:21:41.5     141    -61    137    154    206 113.6  46.2  34014  287.10 0855.40
2009/04/23 08:21:41.6      27   -103    140    107    176 165.3  58.7  34016  287.13 0855.40
2009/04/23 08:21:41.7      52   -125    138    136    193 157.3  49.9  34016  287.13 0855.40
2009/04/23 08:21:41.8      60   -141    112    154    190 156.8  39.7  34012  287.06 0855.40
2009/04/23 08:21:41.9      66   -111     81    130    153 149.3  35.5  34012  287.06 0855.40
2009/04/23 08:21:42.0      27    -79     99     84    129 160.8  55.8  34012  287.06 0855.40
2009/04/23 08:21:42.1      32    -97     57    103    117 161.5  31.4  34010  287.05 0855.40
2009/04/23 08:21:42.2      19    -93     65     95    115 168.4  37.6  34012  287.06 0855.40
2009/04/23 08:21:42.3      33   -100     54    106    118 161.5  29.3  34012  287.08 0855.40
2009/04/23 08:21:42.4      30   -111     71    116    136 164.8  35.0  34010  287.05 0855.40
2009/04/23 08:21:42.5      50   -125     76    135    154 158.2  31.4  34012  287.06 0855.40
2009/04/23 08:21:42.6      53   -171     91    180    201 162.8  29.1  34010  287.05 0855.40
2009/04/23 08:21:42.7      20   -181     98    183    207 173.5  30.6  34010  287.03 0855.40
2009/04/23 08:21:42.8      36   -187    125    191    228 169.1  36.0  34014  287.10 0855.40
2009/04/23 08:21:42.9       7   -182     62    183    194 177.5  18.9  34010  287.05 0855.40
2009/04/23 08:21:43.0       4   -158     73    159    174 178.2  26.6  34012  287.06 0855.40
2009/04/23 08:21:43.1     -11   -152     82    153    173 184.4  30.6  34012  287.08 0855.40
2009/04/23 08:21:43.2     -19   -123     67    125    141 188.9  30.8  34014  287.10 0855.40
2009/04/23 08:21:43.3       7    -85    103     86    134 174.7  56.3  34010  287.03 0855.40
2009/04/23 08:21:43.4      10    -45     84     47     96 166.6  68.3  34010  287.03 0855.40
2009/04/23 08:21:43.5      51    -64     68     83    107 141.3  43.7  34012  287.08 0855.40
2009/04/23 08:21:43.6     105    -17     83    107    135  99.2  41.7  34014  287.10 0855.40
2009/04/23 08:21:43.7     102    -64     83    121    146 122.0  38.0  34012  287.08 0855.40
2009/04/23 08:21:43.8     148    -69     78    164    181 115.2  27.2  34014  287.11 0855.40
2009/04/23 08:21:43.9     172   -132    112    218    245 127.5  29.3  34012  287.07 0855.40
2009/04/23 08:21:44.0     180   -114    103    214    237 122.4  27.3  34014  287.10 0855.40
2009/04/23 08:21:44.1     161    -55     75    171    186 108.8  25.3  34016  287.13 0855.40
2009/04/23 08:21:44.2     134    -61     30    148    152 114.4  11.6  34016  287.15 0855.40
2009/04/23 08:21:44.3      96   -108     21    145    147 138.5   8.5  34014  287.11 0855.40
2009/04/23 08:21:44.4     137   -168     11    218    219 140.8   3.1  34014  287.10 0855.40
2009/04/23 08:21:44.5     206   -177    -10    272    273 130.7  -2.1  34014  287.09 0855.40
2009/04/23 08:21:44.6     168   -169     85    239    253 135.2  20.2  34016  287.12 0855.40
2009/04/23 08:21:44.7     109   -193     77    222    236 150.6  19.2  34014  287.11 0855.40
2009/04/23 08:21:44.9     135   -187     12    231    232 144.2   3.1  34018  287.16 0855.40
2009/04/23 08:21:44.9      64   -232     57    241    248 164.6  13.5  34014  287.09 0855.40
2009/04/23 08:21:45.1       0   -221     22    222    224 180.0   5.7  34012  287.06 0855.40
2009/04/23 08:21:45.2     -17   -223     80    224    237 184.4  20.4  34012  287.06 0855.40
2009/04/23 08:21:45.3      44   -289     34    293    296 171.3   6.7  34012  287.06 0855.40
2009/04/23 08:21:45.4      58   -264     28    271    273 167.5   6.1  34014  287.11 0855.40
2009/04/23 08:21:45.5      25   -241     25    243    245 174.0   6.1  34014  287.11 0855.40
2009/04/23 08:21:45.6     -65   -312     36    319    322 191.8   6.5  34012  287.06 0855.40
2009/04/23 08:21:45.7    -146   -298    114    332    352 206.1  18.9  34012  287.07 0855.40
2009/04/23 08:21:45.8    -215   -281     47    354    358 217.4   7.6  34012  287.07 0855.40
2009/04/23 08:21:45.9    -301   -190    -54    357    362 237.7  -8.6  34014  287.10 0855.40
2009/04/23 08:21:46.0    -133   -297    109    326    344 204.2  18.6  34010  287.02 0855.40
2009/04/23 08:21:46.1    -167   -230     62    285    292 216.1  12.4  34012  287.06 0855.40
2009/04/23 08:21:46.2     -74   -221    103    234    255 198.5  25.2  34016  287.12 0855.40
2009/04/23 08:21:46.3     -51   -287     34    292    295 190.2   6.7  34014  287.09 0855.40
2009/04/23 08:21:46.4     -18   -181    -19    182    184 185.8  -6.2  34006  286.98 0855.40
2009/04/23 08:21:46.5    -187    -88    -84    207    223 244.8 -27.4  34014  287.10 0855.40
2009/04/23 08:21:46.6    -214   -104   -118    239    266 244.0 -32.4  34014  287.11 0855.41
2009/04/23 08:21:46.7    -253   -149    -99    294    310 239.4 -23.3  34016  287.12 0855.41
2009/04/23 08:21:46.8    -180   -168      9    247    248 226.9   2.1  34012  287.07 0855.41
2009/04/23 08:21:46.9    -141   -215     37    258    261 213.4   8.2  34012  287.06 0855.41
2009/04/23 08:21:47.0    -178   -251     50    309    314 215.4   9.3  34004  286.94 0855.41
2009/04/23 08:21:47.1    -108   -220     62    246    254 206.1  14.2  34008  287.01 0855.41
2009/04/23 08:21:47.2    -137   -213    -27    254    256 212.7  -6.2  34006  286.95 0855.41
2009/04/23 08:21:47.3    -127   -268    -49    297    302 205.5  -9.4  34002  286.89 0855.41
2009/04/23 08:21:47.4    -188   -243     99    308    324 217.8  17.9  34006  286.95 0855.41
2009/04/23 08:21:47.5    -207   -200    -16    288    289 226.0  -3.3  34000  286.87 0855.41
2009/04/23 08:21:47.6    -274    -69   -132    283    312 255.8 -31.3  34008  287.01 0855.41
2009/04/23 08:21:47.7    -268    -60   -109    275    295 257.4 -27.4  34008  286.99 0855.41
2009/04/23 08:21:47.8    -257    -88    -94    272    288 250.9 -19.1  34006  286.95 0855.41
2009/04/23 08:21:47.9    -215    -82    -46    231    236 249.2 -11.5  34006  286.97 0855.41
2009/04/23 08:21:48.0    -239    -76    -72    251    261 252.3 -20.7  34004  286.94 0855.41
2009/04/23 08:21:48.1    -229    -91    -68    247    257 248.3 -15.5  34004  286.94 0855.41
2009/04/23 08:21:48.2    -242   -106    -68    265    274 246.4 -14.4  34006  286.95 0855.41
2009/04/23 08:21:48.3    -242    -91    -60    259    266 249.2 -13.2  34006  286.97 0855.41
2009/04/23 08:21:48.4    -223    -87    -50    240    246 248.7 -11.9  34010  287.02 0855.41
2009/04/23 08:21:48.5    -251   -114    -56    276    282 245.6 -11.5  34008  286.99 0855.41
2009/04/23 08:21:48.6    -224   -119    -60    254    262 242.0 -13.4  34010  287.02 0855.41
2009/04/23 08:21:48.7    -233   -114    -88    260    275 243.8 -18.7  34010  287.04 0855.41
2009/04/23 08:21:48.8    -255   -154     -1    298    299 238.9  -0.3  34008  286.99 0855.41
2009/04/23 08:21:48.9    -235   -102    -46    257    262 246.5 -10.3  34012  287.06 0855.41
2009/04/23 08:21:49.0    -225    -66    -70    235    246 253.6 -16.6  34008  286.99 0855.41
2009/04/23 08:21:49.1    -130   -122     62    179    190 226.7  19.2  34008  287.01 0855.41
2009/04/23 08:21:49.2     -79   -146    108    167    198 208.5  35.7  34010  287.03 0855.41
2009/04/23 08:21:49.3     -95   -218     84    238    253 203.6  19.4  34012  287.07 0855.41
2009/04/23 08:21:49.4     -47   -218    -71    224    236 192.3 -17.6  34008  287.00 0855.41
2009/04/23 08:21:49.5     -56   -184    -21    193    195 196.9  -6.5  34010  287.05 0855.41
2009/04/23 08:21:49.6     -12   -149     87    150    173 184.9  32.9  34012  287.06 0855.41
2009/04/23 08:21:49.7      -3   -225     78    226    240 180.9  19.2  34010  287.04 0855.41
2009/04/23 08:21:49.8      14   -258     45    259    263 176.9   9.9  34008  287.01 0855.41
2009/04/23 08:21:49.9       4   -229     85    230    245 179.0  21.0  34012  287.06 0855.41
2009/04/23 08:21:50.0     -24   -181     57    183    192 187.8  17.3  34004  286.94 0855.41
2009/04/23 08:21:50.1      26   -153     41    156    162 170.2  15.0  34010  287.03 0855.41
2009/04/23 08:21:50.2      17   -138      8    140    141 172.9   3.3  34010  287.05 0855.41
2009/04/23 08:21:50.3     -22   -171    -16    173    174 187.3  -5.4  34010  287.03 0855.41
2009/04/23 08:21:50.4     -47   -182    -24    189    191 194.5  -7.3  34010  287.03 0855.41
2009/04/23 08:21:50.5      15   -153    -51    154    162 174.2 -23.6  34010  287.05 0855.41
2009/04/23 08:21:50.6      64   -159    -11    172    173 157.9  -3.9  34008  287.00 0855.42
2009/04/23 08:21:50.7       2   -128    -16    129    131 179.0  -7.2  34006  286.98 0855.42
2009/04/23 08:21:50.8     -38   -113     -1    120    121 198.7  -0.7  34008  287.00 0855.42
2009/04/23 08:21:50.9     -71   -109      0    131    132 213.0   0.2  34008  287.01 0855.42
2009/04/23 08:21:51.0    -126   -114    -47    171    178 227.8 -15.4  34010  287.03 0855.42
2009/04/23 08:21:51.1    -148   -119    -51    191    198 231.1 -15.0  34006  286.98 0855.42
2009/04/23 08:21:51.2    -194   -109    -99    223    243 240.5 -30.1  34012  287.07 0855.42
2009/04/23 08:21:51.3    -191   -105   -111    218    244 241.2 -33.5  34014  287.11 0855.42
2009/04/23 08:21:51.4    -112   -171    -92    205    224 213.4 -30.1  34008  287.00 0855.42
2009/04/23 08:21:51.5    -169    -93   -122    193    228 241.1 -39.9  34012  287.06 0855.42
2009/04/23 08:21:51.6    -162      2    -75    163    179 270.8 -31.0  34010  287.03 0855.42
2009/04/23 08:21:51.7     -37    -44    -90     58    107 219.6 -69.0  34006  286.96 0855.42
2009/04/23 08:21:51.8     -52    -22    -63     57     84 246.5 -57.1  34008  287.00 0855.42
2009/04/23 08:21:51.9     -89     60    -43    108    116 304.2 -27.4  34010  287.03 0855.42
2009/04/23 08:21:52.0     -92     58    -50    110    120 302.4 -30.6  34010  287.05 0855.42
2009/04/23 08:21:52.1     -71    -48    -24     86     90 235.8 -15.5  34006  286.96 0855.42
2009/04/23 08:21:52.2     -47    -57    -25     75     80 219.6 -18.7  34008  287.01 0855.42
2009/04/23 08:21:52.3     -53   -122    -62    134    147 203.6 -31.5  34008  287.00 0855.42
2009/04/23 08:21:52.4     -70    -72    -72    101    124 224.1 -43.5  34010  287.03 0855.42
2009/04/23 08:21:52.5     -40    -79    -39     89     97 207.2 -29.5  34010  287.05 0855.42
2009/04/23 08:21:52.6     -55    -55    -51     79     94 225.1 -40.0  34012  287.06 0855.42
2009/04/23 08:21:52.7     -99    -46    -51    110    121 244.8 -31.0  34012  287.06 0855.42
2009/04/23 08:21:52.8     -46    -72   -110     86    139 213.0 -62.8  34010  287.03 0855.42
2009/04/23 08:21:52.9     -52   -130   -105    141    175 201.8 -44.8  34008  287.01 0855.42
2009/04/23 08:21:53.0       2   -155   -112    156    192 179.1 -43.7  34012  287.08 0855.42
2009/04/23 08:21:53.1      -7    -94   -127     95    158 184.5 -63.8  34016  287.13 0855.42
2009/04/23 08:21:53.2      15    -93   -115     95    149 170.7 -60.8  34014  287.10 0855.42
2009/04/23 08:21:53.3      58   -110    -65    125    140 151.9 -33.7  34014  287.10 0855.42
2009/04/23 08:21:53.4      67    -41    -15     79     81 121.5 -10.9  34012  287.06 0855.42
2009/04/23 08:21:53.5      25     21    -24     33     40  50.4 -44.1  34012  287.06 0855.42
2009/04/23 08:21:53.6       0     33    -20     34     39   0.9 -37.9  34012  287.06 0855.42
2009/04/23 08:21:53.7      -1     11     -9     12     15 352.0 -48.1  34012  287.08 0855.42
2009/04/23 08:21:53.8     -19    -31    -49     37     61 212.5 -63.8  34010  287.03 0855.42
2009/04/23 08:21:53.9      -3    -61    -18     62     64 183.6 -21.7  34010  287.03 0855.42
2009/04/23 08:21:54.0      11    -59      9     61     62 169.3   9.0  34010  287.05 0855.42
2009/04/23 08:21:54.1      14    -58     35     60     69 165.7  33.5  34010  287.05 0855.42
2009/04/23 08:21:54.2       5    -67     72     68     99 175.6  51.6  34008  287.00 0855.42
2009/04/23 08:21:54.3     -41   -114     35    122    128 200.0  16.3  34008  287.01 0855.42
2009/04/23 08:21:54.4      26    -87     12     92     93 163.1   7.5  34010  287.03 0855.42
2009/04/23 08:21:54.5       0    -93     14     94     96 179.5   8.5  34010  287.05 0855.42
2009/04/23 08:21:54.6     -42   -165     13    171    172 194.5   4.4  34010  287.03 0855.41
2009/04/23 08:21:54.7      -6   -153     17    154    155 182.6   6.5  34010  287.05 0855.41
2009/04/23 08:21:54.8      17   -161      8    162    163 173.8   2.9  34008  287.00 0855.41
2009/04/23 08:21:54.9      -6   -139     43    140    147 182.7  17.4  34006  286.98 0855.41
2009/04/23 08:21:55.0      20   -121     43    123    131 170.2  19.2  34008  287.01 0855.41
2009/04/23 08:21:55.1     -48   -145     25    153    156 198.3   9.5  34004  286.94 0855.41
2009/04/23 08:21:55.2      10   -168    -11    169    170 176.6  -3.9  34006  286.98 0855.41
2009/04/23 08:21:55.3      10   -163     -4    164    165 176.2  -1.6  34004  286.94 0855.41
2009/04/23 08:21:55.4      -8   -150      7    151    152 183.1   2.8  34004  286.94 0855.41
2009/04/23 08:21:55.5     -11   -151      6    152    153 184.5   2.3  34006  286.96 0855.41
2009/04/23 08:21:55.6     -92   -164     20    189    191 209.4   6.1  34006  286.96 0855.41
2009/04/23 08:21:55.7     -44   -177     35    183    187 194.0  11.0  34002  286.89 0855.41
2009/04/23 08:21:55.8     -44   -194     29    200    203 192.9   8.2  34002  286.91 0855.41
2009/04/23 08:21:55.9     -76   -168     -9    185    186 204.5  -2.8  34002  286.89 0855.41
2009/04/23 08:21:56.0     -72   -199     41    212    216 200.0  11.0  34006  286.96 0855.41
2009/04/23 08:21:56.1     -56   -159     43    169    175 199.6  14.3  34004  286.93 0855.41
2009/04/23 08:21:56.2     -41   -159     31    165    168 194.5  10.8  34004  286.94 0855.41
2009/04/23 08:21:56.3     -47   -143     13    151    152 198.3   5.0  34000  286.88 0855.41
2009/04/23 08:21:56.4     -67   -153     33    168    172 203.8  11.1  33996  286.81 0855.41
2009/04/23 08:21:56.5     -76   -174      9    191    192 203.6   2.9  34000  286.88 0855.41
2009/04/23 08:21:56.6     -50   -167      5    175    176 196.9   1.8  34002  286.91 0855.40
2009/04/23 08:21:56.7     -49   -161     16    169    170 196.9   5.4  34008  287.01 0855.40
2009/04/23 08:21:56.8     -63   -147     44    160    167 203.2  15.6  34010  287.05 0855.40
2009/04/23 08:21:56.9     -46   -162     47    169    176 195.8  15.8  34010  287.05 0855.40
2009/04/23 08:21:57.0     -50   -116     25    127    130 203.2  11.1  34008  287.01 0855.40
2009/04/23 08:21:57.1     -40   -146    -19    152    154 195.6  -7.3  34012  287.08 0855.40
2009/04/23 08:21:57.2     -26   -115     71    118    137 192.9  33.5  34010  287.05 0855.40
2009/04/23 08:21:57.3      -2    -70     94     71    117 181.8  59.4  34010  287.05 0855.40
2009/04/23 08:21:57.4       0    -24     95     25     98 180.9  84.9  34010  287.05 0855.40
2009/04/23 08:21:57.5      22    -42    102     48    112 151.9  73.1  34012  287.08 0855.40
2009/04/23 08:21:57.6       1    -65     96     66    116 179.1  62.6  34012  287.06 0855.40
2009/04/23 08:21:57.7     -13    -38     60     41     72 200.0  62.6  34012  287.06 0855.40
2009/04/23 08:21:57.8     -10     11     48     16     50 316.6  81.0  34014  287.10 0855.40
2009/04/23 08:21:57.9      20     24     74     32     80  39.7  75.0  34012  287.08 0855.40
2009/04/23 08:21:58.0      15     17     62     24     66  41.4  78.2  34012  287.08 0855.40
2009/04/23 08:21:58.1      -4    -21     69     22     72 191.6  80.7  34012  287.06 0855.40
2009/04/23 08:21:58.2      -2      0     64      3     64 288.4  90.0  34010  287.05 0855.40
2009/04/23 08:21:58.3      -3     23     61     24     65 352.0  77.1  34016  287.13 0855.40
2009/04/23 08:21:58.4       1    -23     70     24     74 175.5  81.2  34012  287.08 0855.40
2009/04/23 08:21:58.5      16    -38     66     42     78 156.4  64.7  34012  287.08 0855.40
2009/04/23 08:21:58.6     -12    -49     68     51     85 194.3  59.4  34012  287.06 0855.40
2009/04/23 08:21:58.7      -7    -87     72     88    113 184.9  43.7  34010  287.03 0855.40
2009/04/23 08:21:58.8      41   -208     60    213    222 168.9  15.8  34014  287.11 0855.40
2009/04/23 08:21:58.9      37   -218     98    222    242 170.4  25.2  34012  287.07 0855.40
2009/04/23 08:21:59.0       6   -177    120    178    214 178.0  37.4  34014  287.10 0855.40
2009/04/23 08:21:59.1      27   -137    128    140    189 168.5  47.5  34014  287.11 0855.40
2009/04/23 08:21:59.2      38   -115    114    122    166 161.7  47.9  34014  287.10 0855.40
2009/04/23 08:21:59.3      64   -136    108    151    185 154.5  39.1  34016  287.13 0855.40
2009/04/23 08:21:59.4      84   -162     66    183    194 152.4  20.2  34014  287.11 0855.40
2009/04/23 08:21:59.5      31   -134    109    138    175 166.7  42.4  34016  287.13 0855.40
2009/04/23 08:21:59.6      70   -218    182    229    292 162.2  42.7  34010  287.04 0855.41
2009/04/23 08:21:59.7      48   -159    150    167    224 163.1  46.6  34014  287.11 0855.41
2009/04/23 08:21:59.8     110   -199    166    228    282 151.0  39.7  34010  287.02 0855.41
2009/04/23 08:21:59.9      62   -263    128    271    299 166.6  27.1  34010  287.04 0855.41
2009/04/23 08:22:00.0     119   -182    172    218    277 146.8  42.2  34014  287.09 0855.41
2009/04/23 08:22:00.1     104   -171    136    201    242 148.6  37.3  34010  287.05 0855.41
2009/04/23 08:22:00.2      96   -118    128    153    199 140.8  44.1  34012  287.06 0855.41
2009/04/23 08:22:00.3      42    -83    146     94    173 153.3  64.6  34014  287.10 0855.41
2009/04/23 08:22:00.4      12   -157    146    158    215 175.6  47.9  34012  287.08 0855.41
2009/04/23 08:22:00.5      32   -113    103    118    156 164.0  45.8  34014  287.10 0855.41
2009/04/23 08:22:00.6      63   -142     75    156    173 155.9  27.3  34014  287.10 0855.41
2009/04/23 08:22:00.7      28   -171     59    174    184 170.7  18.9  34014  287.11 0855.41
2009/04/23 08:22:00.8      29   -172     34    175    179 170.2  11.0  34014  287.10 0855.41
2009/04/23 08:22:00.9      29   -146      3    149    150 168.5   1.2  34014  287.10 0855.41
2009/04/23 08:22:01.0      63   -144    -20    158    160 156.4  -7.3  34010  287.05 0855.41
2009/04/23 08:22:01.1     105   -141    -58    177    187 143.3 -18.3  34012  287.08 0855.41
2009/04/23 08:22:01.2      96   -123    -11    157    158 142.2  -4.1  34014  287.10 0855.41
2009/04/23 08:22:01.3     109   -113    -20    158    160 136.1  -7.5  34010  287.03 0855.41
2009/04/23 08:22:01.4      90   -112    -39    144    150 141.3 -15.4  34010  287.03 0855.41
2009/04/23 08:22:01.5      80   -137     -4    159    160 149.7  -1.6  34008  287.01 0855.41
2009/04/23 08:22:01.6      96   -143      8    173    174 145.9   2.8  34010  287.05 0855.42
2009/04/23 08:22:01.7     109   -184     18    215    216 149.3   4.9  34010  287.03 0855.42
2009/04/23 08:22:01.8     -28   -193     53    196    204 188.5  15.3  34010  287.05 0855.42
2009/04/23 08:22:01.9     -48   -191     -1    198    199 194.3  -0.5  34012  287.06 0855.42
2009/04/23 08:22:02.0      76   -253      2    265    266 163.3   0.5  34010  287.02 0855.42
2009/04/23 08:22:02.1     117   -206    141    238    276 150.4  33.5  34010  287.04 0855.42
2009/04/23 08:22:02.2     -21   -234    179    236    296 185.3  40.9  34012  287.06 0855.42
2009/04/23 08:22:02.3      26   -301    212    303    369 174.9  38.3  34010  287.03 0855.42
2009/04/23 08:22:02.4     -37   -207    150    211    258 190.2  39.1  34010  287.04 0855.42
2009/04/23 08:22:02.5     -51   -188     84    195    212 195.2  24.9  34010  287.03 0855.42
2009/04/23 08:22:02.6     -63   -199     57    209    217 197.6  15.3  34014  287.10 0855.42
2009/04/23 08:22:02.7     -59   -157    -24    168    170 200.7  -8.2  34012  287.06 0855.42
2009/04/23 08:22:02.8      11   -190    -40    191    196 176.6 -11.9  34010  287.05 0855.42
2009/04/23 08:22:02.9       0   -224    -37    225    229 179.8  -9.4  34010  287.05 0855.42
2009/04/23 08:22:03.0      96   -198     35    221    224 154.1   9.0  34008  287.01 0855.42
2009/04/23 08:22:03.1     130   -169     25    214    216 142.4   6.9  34010  287.03 0855.42
2009/04/23 08:22:03.2      76   -153     -1    171    172 153.5  -0.5  34012  287.06 0855.42
2009/04/23 08:22:03.3      60   -192      2    202    203 162.6   0.8  34012  287.08 0855.42
2009/04/23 08:22:03.4       8   -202     59    203    212 177.5  16.3  34010  287.03 0855.42
2009/04/23 08:22:03.5       7   -244     89    245    260 178.2  20.7  34010  287.04 0855.42
2009/04/23 08:22:03.6      10   -293    131    294    321 178.0  25.6  34010  287.04 0855.43
2009/04/23 08:22:03.7      49   -218    181    224    287 167.3  43.3  34012  287.06 0855.43
2009/04/23 08:22:03.8      63   -190    180    201    269 161.7  46.6  34012  287.07 0855.43
2009/04/23 08:22:03.9      87   -185    171    205    266 154.7  43.8  34012  287.07 0855.43
2009/04/23 08:22:04.0     138   -113     80    179    196 129.5  25.3  34012  287.06 0855.43
2009/04/23 08:22:04.1     150    -84     29    173    176 119.3   9.5  34010  287.05 0855.43
2009/04/23 08:22:04.2      82   -139      5    162    163 149.3   1.8  34010  287.05 0855.43
2009/04/23 08:22:04.3      60   -137     40    150    156 156.4  15.2  34012  287.06 0855.43
2009/04/23 08:22:04.4     131   -169    -15    215    216 142.2  -4.1  34010  287.03 0855.43
2009/04/23 08:22:04.5     109   -188    -28    218    220 149.7  -7.3  34012  287.06 0855.43
2009/04/23 08:22:04.6     130   -150    -36    199    203 139.2 -10.5  34010  287.03 0855.43
2009/04/23 08:22:04.8     195   -160     -1    253    254 129.5  -0.3  34010  287.04 0855.43
2009/04/23 08:22:04.8     193   -138     20    238    239 125.5   5.0  34012  287.06 0855.43
2009/04/23 08:22:04.9     207   -166     37    266    269 128.9   8.0  34010  287.02 0855.43
2009/04/23 08:22:05.0     204   -129     25    242    244 122.5   5.9  34010  287.02 0855.43
2009/04/23 08:22:05.1     170   -206     52    268    274 140.4  11.0  34008  286.99 0855.43
2009/04/23 08:22:05.2     215   -137     90    256    272 122.5  19.4  34010  287.02 0855.43
2009/04/23 08:22:05.3      39   -177     65    182    193 167.3  20.0  34010  287.03 0855.43
2009/04/23 08:22:05.4     -23   -143     28    145    148 189.3  11.1  34010  287.03 0855.43
2009/04/23 08:22:05.5     -38   -150     19    155    157 194.3   7.2  34014  287.11 0855.43
2009/04/23 08:22:05.6      43   -179     36    185    189 166.4  11.1  34012  287.08 0855.45
2009/04/23 08:22:05.7      91   -332    114    345    364 164.7  18.4  34010  287.02 0855.45
2009/04/23 08:22:05.8     240   -432    -10    495    496 150.9  -1.2  34010  287.04 0855.45
2009/04/23 08:22:05.9     193   -394     33    439    441 153.9   4.3  34008  286.99 0855.45
2009/04/23 08:22:06.0     225   -341     73    409    416 146.5  10.2  34010  287.03 0855.45
2009/04/23 08:22:06.1     234   -547    115    596    608 156.8  11.0  34010  287.02 0855.45
2009/04/23 08:22:06.2     204   -591    126    626    639 160.9  11.4  34006  286.95 0855.45
2009/04/23 08:22:06.3      86   -419   -148    428    452 168.3 -24.3  34008  286.99 0855.45
2009/04/23 08:22:06.4     134   -306    117    335    355 156.4  19.3  34006  286.96 0855.45
2009/04/23 08:22:06.5      62   -305     93    312    326 168.5  16.6  34008  286.99 0855.45
2009/04/23 08:22:06.6     -74   -504     24    510    511 188.4   2.8  34004  286.93 0855.45
2009/04/23 08:22:06.7      98   -415     86    427    436 166.7  11.4  33998  286.84 0855.45
2009/04/23 08:22:06.8      -8   -268    131    269    299 181.8  27.8  34004  286.94 0855.45
2009/04/23 08:22:06.9     -19   -249     88    250    265 184.5  20.0  34012  287.06 0855.45
2009/04/23 08:22:07.0       8   -269     50    270    275 178.2  10.6  34010  287.04 0855.45
2009/04/23 08:22:07.1      68   -273    -46    282    286 166.0  -9.3  34004  286.94 0855.45
2009/04/23 08:22:07.2     124   -259    -71    288    297 154.4 -13.9  34010  287.04 0855.45
2009/04/23 08:22:07.3     168   -250    -46    302    306 146.2  -8.8  34008  286.99 0855.45
2009/04/23 08:22:07.4     148   -310     35    344    346 154.5   5.9  34010  287.02 0855.45
2009/04/23 08:22:07.5     203   -508     81    548    555 158.2   8.5  34012  287.06 0855.45
2009/04/23 08:22:07.6     210   -591    220    628    665 160.4  20.1  34002  286.90 0855.47
2009/04/23 08:22:07.7     428   -246    -15    494    495 119.9  -1.8  34010  287.02 0855.47
2009/04/23 08:22:07.8     352   -189    -57    400    405 118.3  -8.1  34008  287.01 0855.47
2009/04/23 08:22:07.9     260   -311     64    406    412 140.1   9.0  34000  286.86 0855.47
2009/04/23 08:22:08.0     225   -457    194    510    545 153.8  22.0  34002  286.91 0855.47
2009/04/23 08:22:08.1     -70   -470    245    476    535 188.5  29.3  34004  286.92 0855.47
2009/04/23 08:22:08.2     -80   -465    -18    473    474 189.8  -2.2  34000  286.88 0855.47
2009/04/23 08:22:08.3     -40   -430     -1    433    434 185.3  -0.3  34008  286.99 0855.47
2009/04/23 08:22:08.4    -118   -555    250    568    620 192.1  25.2  34008  286.99 0855.47
2009/04/23 08:22:08.5    -286   -557    186    627    655 207.2  16.5  33996  286.80 0855.47
2009/04/23 08:22:08.6    -398   -437      3    592    593 222.3   0.4  34002  286.89 0855.47
2009/04/23 08:22:08.7     -87   -344    123    356    377 194.3  19.2  34006  286.95 0855.47
2009/04/23 08:22:08.8     223   -223    164    316    356 135.0  29.5  34002  286.91 0855.47
2009/04/23 08:22:08.9     280   -184    285    336    440 123.3  44.7  34008  287.01 0855.47
2009/04/23 08:22:09.0     177   -224    227    286    365 141.7  42.6  34006  286.96 0855.47
2009/04/23 08:22:09.1     154   -266    115    308    328 149.9  21.4  34006  286.97 0855.47
2009/04/23 08:22:09.2     311   -389     -2    499    500 141.4  -0.3  34006  286.98 0855.47
2009/04/23 08:22:09.3     303   -240    -15    387    388 128.4  -2.2  34006  286.95 0855.47
2009/04/23 08:22:09.4     308   -140     49    339    343 114.4   8.3  34004  286.93 0855.47
2009/04/23 08:22:09.5     308    -28    143    310    341  95.2  26.4  34006  286.95 0855.47
2009/04/23 08:22:09.6     223   -132    127    260    289 120.6  27.8  34008  287.01 0855.46
2009/04/23 08:22:09.7     158   -218    235    270    357 144.0  45.6  34006  286.98 0855.46
2009/04/23 08:22:09.8      91   -309    306    323    444 163.5  48.4  34010  287.04 0855.46
2009/04/23 08:22:09.9      56   -426    245    430    494 172.4  32.3  34006  286.98 0855.46
2009/04/23 08:22:10.0      50   -406    -16    410    411 172.9  -2.2  34006  286.96 0855.46
2009/04/23 08:22:10.1     -25   -359   -216    360    419 184.1 -38.2  34000  286.86 0855.46
2009/04/23 08:22:10.2     -48   -307     41    311    314 188.9   7.6  34004  286.94 0855.46
2009/04/23 08:22:10.3      24   -292    156    294    332 175.3  30.3  34002  286.90 0855.46
2009/04/23 08:22:10.4      16   -183    245    184    306 174.9  59.4  34010  287.04 0855.46
2009/04/23 08:22:10.5      -1   -179    232    180    293 180.5  58.4  34008  287.01 0855.46
2009/04/23 08:22:10.6      97   -227    188    248    311 156.8  40.9  34012  287.06 0855.46
2009/04/23 08:22:10.7     240   -152     24    285    287 122.4   4.9  34010  287.04 0855.46
2009/04/23 08:22:10.8     247   -204     30    321    323 129.5   5.4  34006  286.95 0855.46
2009/04/23 08:22:10.9      17   -387    194    388    433 177.4  28.6  34004  286.94 0855.46
2009/04/23 08:22:11.0      54   -219    127    226    259 166.0  31.6  34008  287.01 0855.46
2009/04/23 08:22:11.1      37   -137    127    142    190 164.9  46.4  34010  287.03 0855.46
2009/04/23 08:22:11.2      44   -139   -204    147    251 162.2 -65.2  34010  287.05 0855.46
2009/04/23 08:22:11.4     123   -148   -122    193    228 140.3 -39.9  34008  287.01 0855.46
2009/04/23 08:22:11.4      38    -63      3     74     75 148.4   2.8  34000  286.86 0855.46
2009/04/23 08:22:11.6     -71   -284     87    293    306 194.2  16.6  34008  287.01 0855.46
2009/04/23 08:22:11.7     -19   -290     25    291    293 183.8   5.0  34008  286.99 0855.44
2009/04/23 08:22:11.8     -89   -426     39    436    438 191.9   5.2  34010  287.03 0855.44
2009/04/23 08:22:11.9    -205   -499    225    540    585 202.4  24.1  34000  286.87 0855.44
2009/04/23 08:22:12.0     -85   -660    411    666    782 187.4  34.5  34006  286.98 0855.44
2009/04/23 08:22:12.1     -87   -554    376    561    675 189.0  37.0  34008  287.01 0855.44
2009/04/23 08:22:12.2    -300   -576     89    650    656 207.5   7.8  34006  286.98 0855.44
2009/04/23 08:22:12.3    -281   -508    237    581    627 209.0  23.5  34012  287.06 0855.44
2009/04/23 08:22:12.4    -266   -397    290    478    559 213.8  34.1  34010  287.03 0855.44
2009/04/23 08:22:12.5    -190   -305    385    360    527 212.0  52.2  34004  286.92 0855.44
2009/04/23 08:22:12.6    -287   -198     78    349    358 235.4  12.6  34008  287.00 0855.44
2009/04/23 08:22:12.7      24     31    115     40    121  37.8  80.7  34010  287.03 0855.44
2009/04/23 08:22:12.8     -63     70     80     95    124 318.1  44.3  34006  286.98 0855.44
2009/04/23 08:22:12.9       3     10    255     11    255  18.5  90.0  34004  286.93 0855.44
2009/04/23 08:22:13.0       2     93    197     94    218   1.4  72.8  34008  287.00 0855.44
2009/04/23 08:22:13.1     237    -42    179    241    300 100.1  40.1  34014  287.09 0855.44
2009/04/23 08:22:13.2     291     78    292    302    420  74.9  49.1  34008  287.00 0855.44
2009/04/23 08:22:13.3     394    104    288    408    499  75.2  38.7  34008  287.00 0855.44
2009/04/23 08:22:13.4     370    -46    361    373    519  97.2  49.0  34012  287.07 0855.44
2009/04/23 08:22:13.5      85    -28    332     90    343 108.2  84.8  33998  286.84 0855.44
2009/04/23 08:22:13.6     403     30    334    405    524  85.7  43.7  34002  286.90 0855.44
2009/04/23 08:22:13.7     281   -111    308    303    432 111.7  50.6  34012  287.08 0855.42
2009/04/23 08:22:13.8     253   -143    346    291    452 119.5  56.0  34006  286.97 0855.42
2009/04/23 08:22:13.9     391    -52    383    395    550  97.7  49.0  34016  287.15 0855.42
2009/04/23 08:22:14.0     341   -173    212    383    437 116.9  31.4  34010  287.04 0855.42
2009/04/23 08:22:14.1     353    -85     78    364    373 103.5  12.1  34002  286.90 0855.42
2009/04/23 08:22:14.2     383   -266     43    467    470 124.8   5.3  34004  286.93 0855.42
2009/04/23 08:22:14.3     331   -329    100    467    478 134.8  12.2  34000  286.88 0855.42
2009/04/23 08:22:14.4     285   -395    248    488    547 144.2  29.2  33992  286.74 0855.42
2009/04/23 08:22:14.5     182   -409    157    448    475 155.9  19.4  33994  286.78 0855.42
2009/04/23 08:22:14.6     308   -323     38    447    449 136.3   4.9  34002  286.89 0855.42
2009/04/23 08:22:14.7     223   -312     18    384    385 144.4   2.8  34002  286.91 0855.42
2009/04/23 08:22:14.8     184   -184    -20    261    262 135.0  -4.4  34004  286.92 0855.42
2009/04/23 08:22:14.9     -11   -229     11    230    231 182.9   2.8  33994  286.78 0855.42
2009/04/23 08:22:15.0      62   -206    -11    216    217 163.3  -3.1  34004  286.93 0855.42
2009/04/23 08:22:15.1      23   -227     11    229    230 174.0   2.8  34004  286.93 0855.42
2009/04/23 08:22:15.2      13   -167     80    168    186 175.5  27.2  34000  286.88 0855.42
2009/04/23 08:22:15.3      69   -192    -41    205    210 160.2 -11.3  34004  286.94 0855.42
2009/04/23 08:22:15.4      71   -174    -67    189    201 157.7 -19.7  34004  286.94 0855.42
2009/04/23 08:22:15.5      54   -162   -121    171    209 161.5 -43.2  34004  286.94 0855.42
2009/04/23 08:22:15.6     230    -32    -56    233    240  97.9 -13.7  34004  286.94 0855.42
2009/04/23 08:22:15.7     245    -57     -3    252    253 103.3  -0.7  34006  286.97 0855.42
2009/04/23 08:22:15.8     239      3      7    240    241  89.2   1.7  34000  286.87 0855.42
2009/04/23 08:22:15.9     215      0     80    216    230  90.0  21.0  34004  286.93 0855.42
2009/04/23 08:22:16.0     119     94     89    152    176  51.8  32.9  34006  286.96 0855.42
2009/04/23 08:22:16.1     123     74    116    144    184  58.9  43.3  34006  286.96 0855.42
2009/04/23 08:22:16.2     138     94    138    168    217  55.6  43.7  34004  286.93 0855.42
2009/04/23 08:22:16.3      44     82    135     94    164  28.5  62.1  34004  286.94 0855.42
2009/04/23 08:22:16.4     -29    -48    169     57    178 211.6  81.0  34004  286.94 0855.42
2009/04/23 08:22:16.5    -135    -66    168    151    225 243.8  53.5  34002  286.91 0855.42
2009/04/23 08:22:16.6    -171      0    122    172    210 270.0  39.1  34004  286.93 0855.42
2009/04/23 08:22:16.7     -87     31     69     93    115 290.0  40.1  34006  286.96 0855.42
2009/04/23 08:22:16.8      61    109     83    126    150  29.4  36.0  34000  286.86 0855.42
2009/04/23 08:22:16.9      40     40    100     57    115  45.0  67.7  34004  286.93 0855.42
2009/04/23 08:22:17.0     126   -104    197    164    256 129.5  56.3  33998  286.84 0855.42
2009/04/23 08:22:17.1     120   -175    197    213    290 145.5  47.9  34000  286.85 0855.42
2009/04/23 08:22:17.2     135    -31    235    139    273 103.3  66.7  33996  286.79 0855.42
2009/04/23 08:22:17.3      33   -121    206    126    241 164.4  65.7  34002  286.89 0855.42
2009/04/23 08:22:17.4     -37   -121    149    127    195 197.0  55.0  33998  286.84 0855.42
2009/04/23 08:22:17.5     -36    -96    173    103    201 200.5  66.4  34000  286.88 0855.42
2009/04/23 08:22:17.6     -17   -197    162    198    255 185.1  43.7  33998  286.82 0855.42
2009/04/23 08:22:17.7      23    -36    135     43    141 147.5  81.2  33998  286.83 0855.41
2009/04/23 08:22:17.8     -30    -48    129     57    141 212.5  74.9  34002  286.89 0855.41
2009/04/23 08:22:17.9     -15   -109    161    111    195 188.1  62.4  34000  286.88 0855.41
2009/04/23 08:22:18.0      43   -125    215    133    252 160.8  65.1  33998  286.84 0855.41
2009/04/23 08:22:18.1      44    -23    172     50    179 118.0  83.5  33998  286.84 0855.41
2009/04/23 08:22:18.2      55    -82    216     99    237 146.2  74.0  33998  286.84 0855.41
2009/04/23 08:22:18.3      -4   -257    343    258    429 180.9  59.4  34002  286.91 0855.41
2009/04/23 08:22:18.4      70   -117    191    137    235 149.2  60.6  33998  286.83 0855.41
2009/04/23 08:22:18.5     133    -48    187    142    234 110.0  59.0  33998  286.83 0855.41
2009/04/23 08:22:18.6     160    -97    203    188    276 121.3  52.2  34000  286.87 0855.41
2009/04/23 08:22:18.7     197    -44    156    203    256 102.8  41.6  34002  286.89 0855.42
2009/04/23 08:22:18.8     287     72    199    296    356  75.8  37.3  34000  286.88 0855.42
2009/04/23 08:22:18.9     272     -4    257    273    374  90.9  48.0  34000  286.88 0855.42
2009/04/23 08:22:19.0     217    -37    202    221    299  99.7  47.1  34002  286.90 0855.42
2009/04/23 08:22:19.1     269    -14    210    270    342  93.0  42.0  34004  286.92 0855.42
2009/04/23 08:22:19.2     256     77    126    268    296  73.2  27.1  34004  286.94 0855.42
2009/04/23 08:22:19.3     190     45    149    196    246  76.5  41.2  33996  286.79 0855.42
2009/04/23 08:22:19.4     163     81    160    183    243  63.6  45.8  34002  286.89 0855.42
2009/04/23 08:22:19.5     223   -142    136    265    297 122.5  29.3  33998  286.84 0855.42
2009/04/23 08:22:19.6     250   -178    114    308    328 125.5  21.3  34000  286.85 0855.42
2009/04/23 08:22:19.7     266    -87     12    280    281 108.2   2.5  34012  287.06 0855.42
2009/04/23 08:22:19.8     281    -36     38    284    287  97.5   7.8  34034  287.43 0855.42
2009/04/23 08:22:19.9     278      3     34    279    282  89.2   7.1  34024  287.28 0855.42
2009/04/23 08:22:20.0     220    -54     46    227    232 103.9  11.4  34008  287.00 0855.42
2009/04/23 08:22:20.1     124    -98     67    159    172 128.2  24.1  34006  286.96 0855.42
2009/04/23 08:22:20.2     123    -66     77    140    159 118.4  31.0  34000  286.88 0855.42
2009/04/23 08:22:20.3     -11   -177     90    178    199 183.6  29.1  34002  286.89 0855.42
2009/04/23 08:22:20.4     -75   -137      2    157    158 208.9   1.0  34000  286.86 0855.42
2009/04/23 08:22:20.5      40    -40    141     57    152 134.9  77.1  33998  286.83 0855.42
2009/04/23 08:22:20.6     -94   -204    114    225    252 204.9  29.1  33998  286.82 0855.42
2009/04/23 08:22:20.7    -199   -301     89    362    373 213.5  13.9  33996  286.80 0855.42
2009/04/23 08:22:20.8    -184   -273     66    330    337 214.1  11.3  34000  286.88 0855.42
2009/04/23 08:22:20.9    -255   -343    -38    428    430 216.6  -5.1  34000  286.87 0855.42
2009/04/23 08:22:21.0    -211   -274    -73    347    355 217.6 -12.0  34002  286.91 0855.42
2009/04/23 08:22:21.1    -169   -278   -116    326    347 211.4 -19.6  34002  286.90 0855.42
2009/04/23 08:22:21.2    -105   -297    -74    316    325 199.6 -13.3  34000  286.85 0855.42
2009/04/23 08:22:21.3     -58   -279    -90    286    301 191.8 -17.6  34000  286.85 0855.42
2009/04/23 08:22:21.4     -52   -240   -116    246    271 192.4 -31.5  33998  286.84 0855.42
2009/04/23 08:22:21.5     -22   -210   -124    212    245 186.2 -37.5  34000  286.87 0855.42
2009/04/23 08:22:21.6      85   -224   -199    240    311 159.1 -48.2  34000  286.87 0855.42
2009/04/23 08:22:21.7      -4   -208   -179    209    275 181.1 -49.5  34000  286.87 0855.42
2009/04/23 08:22:21.8       5   -177   -129    178    219 178.2 -44.1  34000  286.88 0855.42
2009/04/23 08:22:21.9      78   -123    -24    146    148 147.5  -9.3  33998  286.84 0855.42
2009/04/23 08:22:22.0      86    -28     78     91    119 108.6  45.4  33998  286.83 0855.42
2009/04/23 08:22:22.1      46    -43    140     64    153 133.1  73.1  34004  286.94 0855.42
2009/04/23 08:22:22.2     173   -110    202    206    288 122.4  49.9  34000  286.87 0855.42
2009/04/23 08:22:22.3      85    -78    140    116    181 132.7  56.3  34002  286.89 0855.42
2009/04/23 08:22:22.4      -5   -105    146    106    180 183.1  60.5  34004  286.93 0855.42
2009/04/23 08:22:22.5      14   -100    104    102    145 171.9  50.1  34004  286.94 0855.42
2009/04/23 08:22:22.6     -40   -192     74    197    210 192.0  21.0  34006  286.96 0855.42
2009/04/23 08:22:22.7     -18   -145     67    147    161 187.1  26.2  34002  286.89 0855.42
2009/04/23 08:22:22.8      54    -54     66     77    101 135.0  44.8  34000  286.88 0855.42
2009/04/23 08:22:22.9       5    -81     40     82     91 176.0  27.8  34002  286.89 0855.42
2009/04/23 08:22:23.0      81    -26     46     86     97 107.7  30.3  34004  286.94 0855.42
2009/04/23 08:22:23.1     121    -77     59    144    155 122.4  23.1  34002  286.89 0855.42
2009/04/23 08:22:23.2     154   -118     38    195    199 127.5  11.1  34000  286.86 0855.42
2009/04/23 08:22:23.3     118   -194    158    228    277 148.6  38.0  34004  286.92 0855.42
2009/04/23 08:22:23.4     227   -213    185    312    362 133.1  33.4  34000  286.86 0855.42
2009/04/23 08:22:23.5     241   -147    154    283    322 121.5  30.9  34002  286.90 0855.42
2009/04/23 08:22:23.6     220   -227    190    317    369 135.9  33.8  34004  286.93 0855.42
2009/04/23 08:22:23.7     276   -175    172    328    370 122.4  30.1  34000  286.86 0855.42
2009/04/23 08:22:23.8     292   -173    152    340    372 120.6  25.8  34002  286.90 0855.42
2009/04/23 08:22:23.9     266   -254     11    368    369 133.7   1.8  34002  286.90 0855.42
2009/04/23 08:22:24.0     139   -226     66    266    275 148.3  13.9  34000  286.85 0855.42
2009/04/23 08:22:24.1      48    -94    -94    106    141 152.8 -50.8  34002  286.89 0855.42
2009/04/23 08:22:24.2    -154   -173    -26    232    234 221.7  -6.5  34002  286.89 0855.42
2009/04/23 08:22:24.3    -119   -235    131    264    294 207.0  28.2  33998  286.84 0855.42
2009/04/23 08:22:24.4      13   -178     90    179    200 175.8  28.7  34000  286.88 0855.42
2009/04/23 08:22:24.5      31   -265    155    267    308 173.1  32.9  34004  286.94 0855.42
2009/04/23 08:22:24.6      40   -259    181    263    319 171.1  37.8  34000  286.85 0855.42
2009/04/23 08:22:24.7      14   -186    169    187    252 175.6  46.9  34008  286.99 0855.41
2009/04/23 08:22:24.8     -19   -188     96    189    211 185.8  29.1  34002  286.89 0855.41
2009/04/23 08:22:24.9     -58   -186     78    195    210 197.4  23.0  34002  286.89 0855.41
2009/04/23 08:22:25.0      -6   -179     31    180    183 182.0   9.9  34000  286.86 0855.41
2009/04/23 08:22:25.1      63   -188    -10    199    200 161.5  -3.1  34002  286.89 0855.41
2009/04/23 08:22:25.2      37   -219     78    223    236 170.2  20.0  34002  286.89 0855.41
2009/04/23 08:22:25.3      16   -183     73    184    197 174.9  22.8  34000  286.88 0855.41
2009/04/23 08:22:25.4      69   -197    130    209    246 160.6  35.0  34004  286.92 0855.41
2009/04/23 08:22:25.5       6   -234    144    235    275 178.4  34.4  34000  286.85 0855.41
2009/04/23 08:22:25.6       8   -334    213    335    396 178.6  35.5  34000  286.86 0855.41
2009/04/23 08:22:25.7    -117   -294    131    317    343 201.8  23.7  34000  286.88 0855.41
2009/04/23 08:22:25.8     -86   -327    159    339    374 194.8  27.1  34002  286.90 0855.41
2009/04/23 08:22:25.9     -47   -349    125    353    374 187.8  20.3  34006  286.95 0855.41
2009/04/23 08:22:26.0     -59   -317     29    323    325 190.6   5.2  34004  286.94 0855.41
2009/04/23 08:22:26.1     -18   -343     52    344    348 183.0   8.7  34006  286.95 0855.41
2009/04/23 08:22:26.2     -31   -370      2    372    373 184.9   0.4  34000  286.85 0855.41
2009/04/23 08:22:26.3     -64   -311    138    318    346 191.8  25.0  34002  286.91 0855.41
2009/04/23 08:22:26.4     -48   -378     69    382    389 187.3  10.2  34002  286.90 0855.41
2009/04/23 08:22:26.5     -36   -460    174    462    493 184.6  21.6  34000  286.88 0855.41
2009/04/23 08:22:26.6    -160   -346     84    382    392 204.8  12.4  33996  286.80 0855.41
2009/04/23 08:22:26.7    -129   -333     84    358    368 201.2  13.3  34002  286.90 0855.40
2009/04/23 08:22:26.9    -199   -240     69    312    320 219.7  12.5  34000  286.87 0855.40
2009/04/23 08:22:27.0    -135   -196     37    239    242 214.5   8.9  34000  286.87 0855.40
2009/04/23 08:22:27.0    -161   -116     -1    199    200 234.3  -0.5  34002  286.91 0855.40
2009/04/23 08:22:27.1    -174   -102     -7    202    203 239.6  -2.2  34014  287.10 0855.40
2009/04/23 08:22:27.2    -164    -58    -17    175    176 250.5  -5.6  34010  287.05 0855.40
2009/04/23 08:22:27.3    -228    -39    -60    232    240 260.3 -14.5  34012  287.07 0855.40
2009/04/23 08:22:27.4    -225    -19    -82    226    240 265.0 -25.1  34014  287.09 0855.40
2009/04/23 08:22:27.5    -225      4    -84    226    241 271.3 -25.7  34014  287.11 0855.40
2009/04/23 08:22:27.6    -131    -35    -72    136    153 254.9 -34.7  34010  287.05 0855.40
2009/04/23 08:22:27.7    -163   -105     10    195    196 237.1   3.1  34006  286.96 0855.40
2009/04/23 08:22:27.8     -93   -150     -7    177    178 211.9  -2.3  34006  286.96 0855.40
2009/04/23 08:22:27.9    -173    -68    -36    187    191 248.5 -10.9  34000  286.88 0855.40
2009/04/23 08:22:28.0    -133    -76    -86    154    176 240.2 -35.8  34004  286.94 0855.40
2009/04/23 08:22:28.1    -147    -20      7    149    150 262.0   2.9  34006  286.96 0855.40
2009/04/23 08:22:28.2    -111    -40     40    119    126 250.0  18.9  34008  287.00 0855.40
2009/04/23 08:22:28.3     -78    -44     70     90    114 240.7  42.2  34006  286.98 0855.40
2009/04/23 08:22:28.4     -24    -61     81     66    104 201.8  56.4  34008  287.00 0855.40
2009/04/23 08:22:28.5     -44    -89     62    100    117 206.7  35.0  34010  287.03 0855.40
2009/04/23 08:22:28.6     -49    -59     60     77     97 219.7  42.2  34008  287.01 0855.40
2009/04/23 08:22:28.7     -19    -23    108     30    112 219.6  84.4  34006  286.96 0855.40
2009/04/23 08:22:28.8     -54    -58    129     80    151 223.2  64.7  34004  286.94 0855.40
2009/04/23 08:22:28.9    -131     26     82    134    157 281.5  34.4  34002  286.91 0855.40
2009/04/23 08:22:29.0     -12    -36    103     38    109 198.5  79.7  34004  286.93 0855.40
2009/04/23 08:22:29.1     -99   -195    122    219    250 207.0  31.4  34004  286.92 0855.40
2009/04/23 08:22:29.2     -79   -153     62    173    183 207.2  20.2  33996  286.81 0855.40
2009/04/23 08:22:29.3     -75   -131     50    152    161 209.9  18.4  33990  286.71 0855.40
2009/04/23 08:22:29.4     -97    -91     91    134    161 226.9  37.6  33998  286.83 0855.40
2009/04/23 08:22:29.5    -122   -149    123    193    228 219.4  35.6  34000  286.86 0855.40
2009/04/23 08:22:29.6    -116   -174    131    210    247 213.6  35.0  34000  286.85 0855.40
2009/04/23 08:22:29.7     -63   -187    182    198    268 198.7  47.7  34002  286.89 0855.40
2009/04/23 08:22:29.8      -4   -186    197    187    271 181.4  51.6  34004  286.92 0855.40
2009/04/23 08:22:29.9       2   -119    176    120    213 178.6  62.7  34004  286.94 0855.40
2009/04/23 08:22:30.0     -68   -157    135    172    218 203.6  42.0  34002  286.91 0855.40
2009/04/23 08:22:30.1     -82    -49    115     96    149 238.9  56.3  34002  286.91 0855.40
2009/04/23 08:22:30.2     -55     35     79     66    102 302.5  55.8  34000  286.88 0855.40
2009/04/23 08:22:30.3     -33      6     82     34     88 281.5  76.6  34002  286.91 0855.40
2009/04/23 08:22:30.4     -73     58    151     94    177 308.2  65.1  34008  287.00 0855.40
2009/04/23 08:22:30.5    -114     82    185    141    232 305.9  59.0  34024  287.27 0855.40
2009/04/23 08:22:30.6     -79      5    113     80    138 274.3  61.1  34010  287.05 0855.40
2009/04/23 08:22:30.7    -159    -53     81    168    186 251.6  27.3  34008  287.00 0855.37
2009/04/23 08:22:30.8       4      0    167      5    167  90.0  90.0  34006  286.98 0855.37
2009/04/23 08:22:30.9      15   -200     82    201    217 175.5  23.1  34008  287.00 0855.37
2009/04/23 08:22:31.0      50   -167    149    175    229 163.1  44.5  34008  287.00 0855.37
2009/04/23 08:22:31.1     146   -164    113    220    247 138.3  29.3  34008  286.99 0855.37
2009/04/23 08:22:31.2     186   -203      3    276    277 137.5   0.8  34008  287.01 0855.37
2009/04/23 08:22:31.3     138   -201    114    244    269 145.5  27.1  34006  286.95 0855.37
2009/04/23 08:22:31.4     117   -161     82    200    216 144.0  23.4  34008  287.01 0855.37
2009/04/23 08:22:31.5     162   -182     26    244    246 138.3   6.1  34008  287.01 0855.37
2009/04/23 08:22:31.6     131   -129     25    184    186 134.6   7.8  34008  287.01 0855.37
2009/04/23 08:22:31.7     109   -133     20    173    175 140.6   6.7  34008  287.01 0855.37
2009/04/23 08:22:31.8      25   -102     47    106    115 166.2  25.7  34004  286.94 0855.37
2009/04/23 08:22:31.9      -2    -81     91     82    122 181.8  53.3  34008  287.01 0855.37
2009/04/23 08:22:32.0      36    -53    113     65    130 145.7  67.2  34004  286.94 0855.37
2009/04/23 08:22:32.1     -88   -186     74    206    218 205.3  20.7  34006  286.96 0855.37
2009/04/23 08:22:32.2     -59   -191     10    200    201 197.2   2.9  34002  286.91 0855.37
2009/04/23 08:22:32.3     -95   -188     74    211    224 207.0  19.4  34000  286.88 0855.37
2009/04/23 08:22:32.4    -125   -227     63    260    268 208.9  13.7  34004  286.92 0855.37
2009/04/23 08:22:32.5    -118   -231    -29    260    262 207.1  -6.5  34004  286.94 0855.37
2009/04/23 08:22:32.6     -87   -235    -22    251    253 200.5  -5.2  34004  286.94 0855.37
2009/04/23 08:22:32.7     -57   -262    -14    269    270 192.4  -3.2  34006  286.95 0855.36
2009/04/23 08:22:32.8     -23   -310    -48    311    315 184.4  -8.8  34004  286.92 0855.36
2009/04/23 08:22:32.9     -12   -284     35    285    288 182.6   7.1  34002  286.89 0855.36
2009/04/23 08:22:33.0     -28   -258     65    260    269 186.2  14.2  34002  286.90 0855.36
2009/04/23 08:22:33.1     -58   -362     44    367    370 189.2   6.9  34004  286.93 0855.36
2009/04/23 08:22:33.2    -112   -363      0    381    382 197.2   0.1  34006  286.95 0855.36
2009/04/23 08:22:33.3     -89   -291    -97    305    321 197.0 -17.7  34004  286.92 0855.36
2009/04/23 08:22:33.4    -105   -302     19    320    321 199.2   3.5  34002  286.89 0855.36
2009/04/23 08:22:33.5    -150   -208    -20    257    258 215.8  -4.6  34004  286.92 0855.36
2009/04/23 08:22:33.6    -113   -229     30    256    258 206.3   6.9  34002  286.89 0855.36
2009/04/23 08:22:33.7    -125   -314     17    339    340 201.8   2.9  34006  286.95 0855.36
2009/04/23 08:22:33.8     -38   -356     98    359    373 186.2  15.3  34008  287.00 0855.36
2009/04/23 08:22:33.9      18   -284     77    285    296 176.4  15.2  34004  286.94 0855.36
2009/04/23 08:22:34.0      16   -309     63    310    317 176.9  11.5  34008  286.99 0855.36
2009/04/23 08:22:34.1     -12   -345     32    346    348 182.1   5.4  34006  286.98 0855.36
2009/04/23 08:22:34.2     -89   -276     14    291    292 197.9   2.9  34010  287.02 0855.36
2009/04/23 08:22:34.3     -73   -332    -23    341    342 192.5  -4.0  34010  287.02 0855.36
2009/04/23 08:22:34.4      33   -355    -38    357    360 174.7  -6.2  34006  286.96 0855.36
2009/04/23 08:22:34.5      27   -321    -21    323    324 175.0  -3.8  34010  287.02 0855.36
2009/04/23 08:22:34.6      32   -288   -108    290    309 173.5 -25.4  34006  286.97 0855.36
2009/04/23 08:22:34.7     -19   -275    -78    276    287 184.0 -15.8  34006  286.95 0855.36
2009/04/23 08:22:34.8      23   -281    -72    283    293 175.1 -14.4  34004  286.92 0855.36
2009/04/23 08:22:34.9     -42   -313    -26    316    318 187.8  -4.8  34010  287.02 0855.36
2009/04/23 08:22:35.0     -40   -331      9    334    335 187.0   1.7  34006  286.98 0855.36
2009/04/23 08:22:35.1     -15   -333    -28    334    336 182.7  -4.9  34010  287.02 0855.36
2009/04/23 08:22:35.2      19   -366    -70    367    374 177.0 -10.8  34010  287.03 0855.36
2009/04/23 08:22:35.4      41   -326    -65    329    336 172.7 -11.2  34010  287.02 0855.36
2009/04/23 08:22:35.4     111   -329    -10    348    349 161.3  -1.8  34010  287.02 0855.36
2009/04/23 08:22:35.5     153   -321     27    356    357 154.5   4.4  34014  287.10 0855.36
2009/04/23 08:22:35.6     176   -263     -1    317    318 146.2  -0.3  34012  287.07 0855.36
2009/04/23 08:22:35.7      86   -268      0    282    283 162.2   0.0  34004  286.94 0855.36
2009/04/23 08:22:35.9      56   -209    -12    217    218 164.9  -3.3  34006  286.96 0855.36
2009/04/23 08:22:35.9     143   -236     43    277    281 148.8   9.0  34012  287.06 0855.36
2009/04/23 08:22:36.0     126   -212     53    247    253 149.2  12.2  34008  287.01 0855.36
2009/04/23 08:22:36.1     141   -126     74    190    203 131.8  22.3  34012  287.08 0855.36
2009/04/23 08:22:36.2     141   -110     82    180    197 128.0  26.2  34016  287.13 0855.36
2009/04/23 08:22:36.3     162   -134    126    211    245 129.6  33.5  34016  287.12 0855.36
2009/04/23 08:22:36.4     103   -143    150    177    232 144.4  44.3  34014  287.11 0855.36
2009/04/23 08:22:36.5      86   -203    104    221    244 157.1  27.1  34016  287.12 0855.36
2009/04/23 08:22:36.6     201    -64     63    211    221 107.7  16.8  34016  287.15 0855.36
2009/04/23 08:22:36.7     178    -50     79    186    202 105.9  24.3  34016  287.15 0855.37
2009/04/23 08:22:36.8     127     17     60    129    142  82.1  27.1  34012  287.08 0855.37
2009/04/23 08:22:36.9      59    -87     64    106    123 145.7  34.4  34016  287.13 0855.37
2009/04/23 08:22:37.0      -2   -113     64    114    130 181.4  31.9  34010  287.05 0855.37
2009/04/23 08:22:37.1      82   -100     63    130    144 140.4  27.3  34010  287.03 0855.37
2009/04/23 08:22:37.2      22   -135     82    137    159 170.7  33.7  34010  287.05 0855.37
2009/04/23 08:22:37.4      24   -202     91    204    223 173.1  25.3  34010  287.05 0855.37
2009/04/23 08:22:37.4      43   -181     79    187    203 166.6  24.1  34012  287.06 0855.37
2009/04/23 08:22:37.5      67   -122     99    140    171 151.0  38.8  34010  287.03 0855.37
2009/04/23 08:22:37.6      85    -78    116    116    164 132.7  50.1  34014  287.10 0855.37
2009/04/23 08:22:37.7     111    -79    124    137    184 125.5  47.1  34016  287.13 0855.37
2009/04/23 08:22:37.8      72   -101     90    125    154 144.4  39.5  34014  287.11 0855.37
2009/04/23 08:22:37.9      70   -111    113    132    173 147.9  45.1  34014  287.11 0855.37
2009/04/23 08:22:38.1      75    -62     99     98    139 129.6  50.1  34016  287.13 0855.37
2009/04/23 08:22:38.1      90     -9    109     91    141  96.1  56.3  34014  287.11 0855.37
2009/04/23 08:22:38.3      23    -15     82     28     86 122.5  81.2  34014  287.11 0855.37
2009/04/23 08:22:38.4      31     19     73     37     81  57.5  71.4  34016  287.13 0855.37
2009/04/23 08:22:38.5      25      0     53     26     59  90.0  72.9  34016  287.15 0855.37
2009/04/23 08:22:38.6      34      6     68     35     76  78.5  70.8  34016  287.13 0855.37
2009/04/23 08:22:38.7      15     46     45     49     66  18.3  47.9  34016  287.15 0855.37
2009/04/23 08:22:38.8     -50     32     37     60     70 303.3  35.5  34016  287.13 0855.37
2009/04/23 08:22:38.9      -5     66     55     67     86 355.5  43.7  34014  287.11 0855.37
2009/04/23 08:22:39.0      -9     46     17     47     49 348.4  20.0  34014  287.10 0855.37
2009/04/23 08:22:39.1       0      3     35      4     35   4.5  90.0  34014  287.10 0855.37
2009/04/23 08:22:39.2     -24     33     38     42     56 323.9  47.9  34012  287.08 0855.37
2009/04/23 08:22:39.3     -74     64    -30     98    102 310.9 -22.3  34016  287.13 0855.37
2009/04/23 08:22:39.4     -47     81     31     94    100 329.7  18.4  34014  287.11 0855.37
2009/04/23 08:22:39.5      73      4    110     74    132  86.5  63.2  34018  287.16 0855.37
2009/04/23 08:22:39.6      82    129     24    153    155  32.5   9.0  34018  287.18 0855.37
2009/04/23 08:22:39.7      74    101     71    126    144  36.1  31.4  34018  287.18 0855.37
2009/04/23 08:22:39.8     173     69     59    187    197  68.3  17.7  34022  287.23 0855.38
2009/04/23 08:22:39.9      91    110    118    143    185  39.7  43.7  34024  287.28 0855.38
2009/04/23 08:22:40.0     142     51    138    152    205  70.1  46.9  34026  287.30 0855.38
2009/04/23 08:22:40.1     201     81     80    217    231  68.0  20.9  34022  287.23 0855.38
2009/04/23 08:22:40.2     207     85     80    224    237  67.6  20.4  34018  287.16 0855.38
2009/04/23 08:22:40.3     215     66     94    225    243  72.9  23.8  34018  287.16 0855.38
2009/04/23 08:22:40.4     203     95     89    225    241  64.8  22.8  34016  287.14 0855.38
2009/04/23 08:22:40.5     234     89     84    251    265  69.2  18.6  34016  287.14 0855.38
2009/04/23 08:22:40.6     250     54     94    256    272  77.6  21.0  34020  287.19 0855.38
2009/04/23 08:22:40.7     191     69     74    204    217  70.0  21.0  34014  287.11 0855.38
2009/04/23 08:22:40.8     190    -22    141    192    238  96.6  39.9  34016  287.15 0855.38
2009/04/23 08:22:40.9     170    -20    179    172    248  97.0  51.2  34014  287.11 0855.38
2009/04/23 08:22:41.0     132    -34    140    137    195 104.6  50.2  34014  287.10 0855.38
2009/04/23 08:22:41.1     159    -46     97    166    192 106.2  33.1  34016  287.13 0855.38
2009/04/23 08:22:41.2     283     52    102    288    305  79.4  20.2  34014  287.11 0855.38
2009/04/23 08:22:41.3     251     50    174    257    310  78.6  37.3  34018  287.16 0855.38
2009/04/23 08:22:41.4     197      3    142    198    243  89.1  39.1  34016  287.15 0855.38
2009/04/23 08:22:41.5     127    -88    110    155    190 124.6  39.1  34018  287.18 0855.38
2009/04/23 08:22:41.6     139   -111     73    179    193 128.6  23.1  34018  287.16 0855.38
2009/04/23 08:22:41.7     188   -163     67    249    259 130.9  15.2  34014  287.09 0855.38
2009/04/23 08:22:41.8     198    -91     88    219    236 114.8  23.0  34020  287.20 0855.40
2009/04/23 08:22:41.9     131   -141     55    193    201 137.2  16.0  34018  287.16 0855.40
2009/04/23 08:22:42.0     119   -130     86    177    196 137.7  27.4  34018  287.16 0855.40
2009/04/23 08:22:42.1      -9   -164    131    165    210 183.1  42.7  34016  287.13 0855.40
2009/04/23 08:22:42.2     -42   -174     87    180    199 193.8  27.4  34016  287.13 0855.40
2009/04/23 08:22:42.3      90   -133     58    161    171 145.8  20.2  34018  287.16 0855.40
2009/04/23 08:22:42.4     138   -197     71    241    252 145.0  16.4  34018  287.17 0855.40
2009/04/23 08:22:42.5     166   -175     75    242    254 136.6  17.3  34018  287.17 0855.40
2009/04/23 08:22:42.6     140   -224     99    265    282 147.9  21.3  34018  287.17 0855.40
2009/04/23 08:22:42.7     134   -242     56    277    283 151.0  11.4  34012  287.06 0855.40
2009/04/23 08:22:42.8     112   -228     58    255    262 153.7  12.9  34018  287.17 0855.40
2009/04/23 08:22:42.9     114   -241    -12    267    268 154.5  -2.6  34016  287.14 0855.40
2009/04/23 08:22:43.0     110   -238    -23    263    265 155.1  -5.2  34016  287.14 0855.40
2009/04/23 08:22:43.1     208   -150    -47    257    262 126.0 -10.5  34014  287.09 0855.40
2009/04/23 08:22:43.2     255   -125     -1    285    286 116.2  -0.3  34016  287.14 0855.40
2009/04/23 08:22:43.3     239    -82    -13    253    254 109.1  -3.1  34016  287.14 0855.40
2009/04/23 08:22:43.4     283    -21     21    284    285  94.4   4.2  34018  287.17 0855.40
2009/04/23 08:22:43.5     313    -89    -30    326    328 105.9  -5.4  34016  287.14 0855.40
2009/04/23 08:22:43.6     317     -6      2    318    319  91.3   0.5  34016  287.12 0855.40
2009/04/23 08:22:43.7     283     17      8    284    285  86.5   1.7  34020  287.21 0855.40
2009/04/23 08:22:43.8     237      9     95    238    256  87.6  23.0  34016  287.14 0855.41
2009/04/23 08:22:43.9     257     15     90    258    273  86.6  20.0  34016  287.14 0855.41
2009/04/23 08:22:44.0     365     49     82    369    379  82.3  12.6  34018  287.17 0855.41
2009/04/23 08:22:44.1     347      2    162    348    383  89.6  27.1  34014  287.10 0855.41
2009/04/23 08:22:44.2     220    130     42    256    260  59.3   9.3  34014  287.11 0855.41
2009/04/23 08:22:44.3     170     75     29    187    190  66.0   8.8  34018  287.16 0855.41
2009/04/23 08:22:44.4     209     51    -77    216    230  76.3 -19.6  34016  287.15 0855.41
2009/04/23 08:22:44.5     182    -34   -124    186    223 100.8 -41.1  34016  287.15 0855.41
2009/04/23 08:22:44.6     232   -103    -78    254    265 114.0 -22.3  34016  287.14 0855.41
2009/04/23 08:22:44.7     289    -58    -93    295    310 101.5 -17.6  34014  287.09 0855.41
2009/04/23 08:22:44.8     290    -60    -97    297    313 101.7 -18.1  34010  287.04 0855.41
2009/04/23 08:22:44.9     274    -23    -68    276    285  95.0 -13.9  34012  287.06 0855.41
2009/04/23 08:22:45.0     256      7    -56    257    264  88.3 -12.4  34012  287.06 0855.41
2009/04/23 08:22:45.1     224      0    -29    225    227  90.0  -7.5  34012  287.06 0855.41
2009/04/23 08:22:45.2     224      3    -18    225    226  89.0  -4.6  34012  287.06 0855.41
2009/04/23 08:22:45.3     199     55     37    207    211  74.3  10.3  34010  287.05 0855.41
2009/04/23 08:22:45.4     205     69     18    217    218  71.4   4.9  34010  287.03 0855.41
2009/04/23 08:22:45.5     190     32    -25    193    195  80.3  -7.5  34010  287.05 0855.41
2009/04/23 08:22:45.6     176     55     15    185    186  72.7   4.9  34010  287.03 0855.41
2009/04/23 08:22:45.7     141     86    -11    166    167  58.7  -4.1  34018  287.18 0855.41
2009/04/23 08:22:45.8     169    113     37    204    208  56.3  10.3  34046  287.64 0855.44
2009/04/23 08:22:45.9     178    139     79    227    241  52.0  19.2  34062  287.92 0855.44
2009/04/23 08:22:46.0     234    146     75    277    288  58.0  15.2  34054  287.78 0855.44
2009/04/23 08:22:46.1     230     94    122    249    277  67.8  28.2  34054  287.77 0855.44
2009/04/23 08:22:46.2     165     86    119    187    221  62.5  35.5  34060  287.89 0855.44
2009/04/23 08:22:46.3     120     54    107    132    169  65.6  43.5  34066  287.98 0855.44
2009/04/23 08:22:46.4     115     20    125    117    171  79.9  52.0  34078  288.20 0855.44
2009/04/23 08:22:46.5     106      0    183    107    211  89.6  66.8  34084  288.30 0855.44
2009/04/23 08:22:46.6     147     39    119    153    193  75.0  42.0  34084  288.30 0855.44
2009/04/23 08:22:46.7     188     13     91    189    209  85.9  27.3  34072  288.08 0855.44
2009/04/23 08:22:46.8      63     12    130     65    145  78.5  71.4  34068  288.03 0855.44
2009/04/23 08:22:46.9      65     13    104     67    123  78.5  64.6  34082  288.26 0855.44
2009/04/23 08:22:47.0     124     21    160    126    203  80.3  57.9  34070  288.04 0855.44
2009/04/23 08:22:47.1     105     32    156    110    190  72.7  61.3  34068  288.01 0855.44
2009/04/23 08:22:47.2      65      0    107     66    125  90.8  65.1  34066  287.99 0855.44
2009/04/23 08:22:47.3      82     25    105     86    135  72.7  56.4  34064  287.96 0855.44
2009/04/23 08:22:47.4     209     13     49    210    216  86.3  13.2  34062  287.92 0855.44
2009/04/23 08:22:47.5     159     -7     53    160    169  92.6  18.4  34030  287.37 0855.44
2009/04/23 08:22:47.6     122     20      0    124    125  80.4  -0.3  34032  287.40 0855.44
2009/04/23 08:22:47.7      80    -23     58     84    102 105.9  38.6  34034  287.43 0855.44
2009/04/23 08:22:47.8      46    -51     88     69    111 137.7  57.5  34048  287.67 0855.45
2009/04/23 08:22:47.9      32    -96     83    102    131 161.5  43.7  34048  287.67 0855.45
2009/04/23 08:22:48.0      41    -85     62     95    113 154.1  35.6  34040  287.55 0855.45
2009/04/23 08:22:48.1      38    -17     63     42     75 114.4  64.6  34050  287.72 0855.45
2009/04/23 08:22:48.2      11    -34     51     36     62 161.3  60.6  34046  287.65 0855.45
2009/04/23 08:22:48.3       0    -35     37     36     51 180.9  50.1  34042  287.59 0855.45
2009/04/23 08:22:48.4      -4    -51     58     52     77 185.3  52.2  34040  287.54 0855.45
2009/04/23 08:22:48.5     -81    -17     32     83     88 258.1  21.5  34040  287.55 0855.45
2009/04/23 08:22:48.6     -90    -23     -4     94     95 255.4  -2.6  34044  287.60 0855.45
2009/04/23 08:22:48.7     -92    -58    -30    109    114 237.6 -15.5  34040  287.55 0855.45
2009/04/23 08:22:48.8     -86    -42    -19     96     98 243.8 -11.5  34038  287.50 0855.45
2009/04/23 08:22:48.9     -67    -32     -4     75     76 244.6  -3.2  34038  287.50 0855.45
2009/04/23 08:22:49.0     -95    -22     23     98    101 256.7  13.2  34032  287.42 0855.45
2009/04/23 08:22:49.1    -109    -36     -2    115    116 251.6  -1.3  34018  287.16 0855.45
2009/04/23 08:22:49.2    -104    -27    -10    108    109 255.0  -5.6  34018  287.18 0855.45
2009/04/23 08:22:49.3    -108    -29    -14    112    113 254.9  -7.2  34018  287.18 0855.45
2009/04/23 08:22:49.4     -95    -42    -13    104    105 246.0  -7.2  34018  287.18 0855.45
2009/04/23 08:22:49.5     -28    -81      5     86     87 199.6   3.8  34020  287.21 0855.45
2009/04/23 08:22:49.6      -1    -76     31     77     83 181.0  23.0  34030  287.37 0855.45
2009/04/23 08:22:49.7     -10   -131     72    132    150 184.4  31.3  34028  287.33 0855.45
2009/04/23 08:22:49.8     -36   -168    107    172    202 192.3  35.2  34012  287.08 0855.45
2009/04/23 08:22:49.9     -45   -125    107    134    171 200.0  43.0  34020  287.21 0855.45
2009/04/23 08:22:50.0     -46   -147     26    155    158 197.4   9.5  34014  287.11 0855.45
2009/04/23 08:22:50.1     -48   -146     51    154    163 198.5  18.4  34012  287.08 0855.45
2009/04/23 08:22:50.2     -55   -156    113    166    200 199.4  37.6  34012  287.08 0855.45
2009/04/23 08:22:50.3    -105   -154    132    187    228 214.3  38.8  34012  287.08 0855.45
2009/04/23 08:22:50.4     -33   -142    136    146    199 193.4  48.0  34014  287.11 0855.45
2009/04/23 08:22:50.5     -75   -210     82    224    238 199.8  21.0  34016  287.12 0855.45
2009/04/23 08:22:50.6     -51   -151     96    160    186 198.7  34.0  34012  287.08 0855.45
2009/04/23 08:22:50.7     -83   -216     71    232    243 201.2  17.1  34016  287.12 0855.45
2009/04/23 08:22:50.8     -64   -221     96    231    250 196.3  24.1  34016  287.12 0855.45
2009/04/23 08:22:50.9     -73   -225     46    237    242 198.0  11.0  34012  287.06 0855.45
2009/04/23 08:22:51.0     -43   -226     -7    231    232 190.9  -1.8  34014  287.10 0855.45
2009/04/23 08:22:51.1      38   -189    -28    193    196 168.5  -8.2  34014  287.10 0855.45
2009/04/23 08:22:51.2      -4   -280    -61    281    288 180.9 -12.4  34012  287.06 0855.45
2009/04/23 08:22:51.3      22   -299   -100    300    317 175.6 -18.6  34014  287.09 0855.45
2009/04/23 08:22:51.4      86   -208    -98    226    246 157.5 -29.5  34014  287.09 0855.45
2009/04/23 08:22:51.5      20   -131    -66    133    148 171.1 -32.2  34014  287.10 0855.45
2009/04/23 08:22:51.6      -3   -109    -51    110    121 181.8 -31.0  34014  287.10 0855.45
2009/04/23 08:22:51.7      35   -132    -13    137    138 164.9  -5.6  34012  287.06 0855.45
2009/04/23 08:22:51.8      45   -136      3    144    145 161.5   1.2  34014  287.11 0855.46
2009/04/23 08:22:51.9      37    -89     12     97     98 157.3   7.5  34014  287.11 0855.46
2009/04/23 08:22:52.0      58    -59     29     84     90 135.5  19.2  34016  287.15 0855.46
2009/04/23 08:22:52.1      96    -79     32    125    130 129.5  14.3  34014  287.11 0855.46
2009/04/23 08:22:52.2      69    -95     73    118    138 144.0  35.0  34014  287.11 0855.46
2009/04/23 08:22:52.3      -3   -170     83    171    190 181.1  27.4  34014  287.11 0855.46
2009/04/23 08:22:52.4      12   -219     92    220    238 176.9  24.1  34012  287.06 0855.46
2009/04/23 08:22:52.5     -25   -227    101    229    250 186.5  25.3  34012  287.06 0855.46
2009/04/23 08:22:52.6     -22   -189    111    191    220 186.7  32.9  34010  287.05 0855.46
2009/04/23 08:22:52.7     -55   -162     96    172    196 198.7  31.6  34010  287.05 0855.46
2009/04/23 08:22:52.8     -51   -125     83    136    159 202.3  34.2  34010  287.05 0855.46
2009/04/23 08:22:52.9     -53   -116     96    128    160 204.9  40.7  34010  287.05 0855.46
2009/04/23 08:22:53.0     -60   -126     90    140    166 205.4  35.7  34010  287.05 0855.46
2009/04/23 08:22:53.1     -55   -116     55    129    140 205.3  24.6  34012  287.06 0855.46
2009/04/23 08:22:53.2     -85   -125     21    152    154 214.2   8.0  34010  287.03 0855.46
2009/04/23 08:22:53.3     -76    -43     -4     88     89 240.2  -3.1  34010  287.05 0855.46
2009/04/23 08:22:53.4     -57    -50     48     77     90 228.7  35.5  34012  287.06 0855.46
2009/04/23 08:22:53.5     -45     25     41     52     66 298.9  42.7  34014  287.11 0855.46
2009/04/23 08:22:53.6      26     27     46     38     59  43.4  56.4  34012  287.08 0855.46
2009/04/23 08:22:53.7       8    -77     43     78     89 173.8  31.4  34006  286.98 0855.46
2009/04/23 08:22:53.8     -93   -206    119    227    256 204.3  30.1  33996  286.79 0855.45
2009/04/23 08:22:53.9     -86   -119     82    148    169 216.0  31.6  34008  287.01 0855.45
2009/04/23 08:22:54.0     -45    -97    -38    107    114 204.9 -19.7  34008  287.00 0855.45
2009/04/23 08:22:54.1      16    -81      4     83     84 168.4   3.3  34006  286.96 0855.45
2009/04/23 08:22:54.2      27   -159     16    162    163 170.2   5.7  34008  287.01 0855.45
2009/04/23 08:22:54.3      55   -186     37    195    199 163.5  10.8  34010  287.03 0855.45
2009/04/23 08:22:54.4      96   -138     65    169    181 145.3  22.3  34008  287.00 0855.45
2009/04/23 08:22:54.5      38   -170     64    175    186 167.3  21.0  34008  287.00 0855.45
2009/04/23 08:22:54.6      71   -144     -6    161    162 153.7  -2.2  34010  287.03 0855.45
2009/04/23 08:22:54.7      42   -126      7    134    135 161.3   3.3  34010  287.05 0855.45
2009/04/23 08:22:54.8      23    -95    -44     98    107 166.2 -30.6  34010  287.03 0855.45
2009/04/23 08:22:54.9       3   -121    -29    122    126 178.2 -13.4  34010  287.05 0855.45
2009/04/23 08:22:55.0     -32   -119    -33    124    129 195.2 -15.0  34012  287.06 0855.45
2009/04/23 08:22:55.1     -20   -143    -29    145    148 188.1 -11.5  34010  287.03 0855.45
2009/04/23 08:22:55.2      62   -155      0    168    169 158.2   0.0  34008  287.01 0855.45
2009/04/23 08:22:55.3      64   -119      2    136    137 151.5   1.2  34010  287.03 0855.45
2009/04/23 08:22:55.4      26   -100    -16    104    106 165.3  -8.8  34010  287.03 0855.45
2009/04/23 08:22:55.5      -5   -119    -19    120    122 182.7  -9.3  34012  287.06 0855.45
2009/04/23 08:22:55.6      -2   -137    -38    138    144 180.9 -15.4  34010  287.03 0855.45
2009/04/23 08:22:55.7       8   -130    -25    131    134 176.4 -10.9  34010  287.03 0855.45
2009/04/23 08:22:55.8      59   -160     11    171    172 159.5   3.8  34010  287.05 0855.44
2009/04/23 08:22:55.9      81   -128     57    152    162 147.5  21.3  34010  287.05 0855.44
2009/04/23 08:22:56.0      69   -173     -3    187    188 158.2  -1.1  34012  287.06 0855.44
2009/04/23 08:22:56.1      57   -188      1    197    198 163.1   0.5  34012  287.08 0855.44
2009/04/23 08:22:56.2      46   -204    -26    210    212 167.1  -7.2  34010  287.05 0855.44
2009/04/23 08:22:56.3     116    -80     31    142    146 124.6  12.6  34010  287.05 0855.44
2009/04/23 08:22:56.4      79   -129      7    152    153 148.4   2.8  34012  287.06 0855.44
2009/04/23 08:22:56.5      83    -94     33    126    131 138.6  14.7  34012  287.08 0855.44
2009/04/23 08:22:56.6      73    -72     44    103    112 134.4  24.1  34008  287.01 0855.44
2009/04/23 08:22:56.7     137    -47    100    145    176 109.1  38.0  34012  287.06 0855.44
2009/04/23 08:22:56.8     112    -46     87    122    149 112.6  39.5  34012  287.06 0855.44
2009/04/23 08:22:56.9      61     -5     81     62    102  95.2  59.0  34014  287.10 0855.44
2009/04/23 08:22:57.0      30     25     92     40    100  50.5  75.0  34014  287.11 0855.44
2009/04/23 08:22:57.1     -29     54     80     62    101 331.9  57.9  34012  287.06 0855.44
2009/04/23 08:22:57.2     -58     73     92     94    131 321.3  50.0  34012  287.06 0855.44
2009/04/23 08:22:57.3     -64     55     38     85     93 310.4  25.7  34014  287.10 0855.44
2009/04/23 08:22:57.4     -14     12     52     19     55 311.3  81.2  34018  287.18 0855.44
2009/04/23 08:22:57.5      -3      0     49      4     49 270.0  90.0  34020  287.20 0855.44
2009/04/23 08:22:57.6      14     12     29     19     34  50.5  64.6  34018  287.16 0855.44
2009/04/23 08:22:57.7      22     -7     36     24     43 108.6  62.6  34016  287.15 0855.44
2009/04/23 08:22:57.8      11    -27     40     30     50 158.2  58.5  34018  287.18 0855.44
2009/04/23 08:22:57.9       0     28     37     29     47 359.1  57.5  34018  287.18 0855.44
2009/04/23 08:22:58.0     -12     14     40     19     44 318.6  74.0  34020  287.20 0855.44
2009/04/23 08:22:58.1     -42     26     24     50     55 302.4  27.3  34022  287.23 0855.44
2009/04/23 08:22:58.2     -50     14     24     52     57 285.9  27.1  34024  287.28 0855.44
2009/04/23 08:22:58.3     -60     57     27     83     88 313.6  18.4  34026  287.30 0855.44
2009/04/23 08:22:58.4     -92     63     45    112    120 304.6  23.0  34036  287.47 0855.44
2009/04/23 08:22:58.5    -152     49      9    160    161 288.2   3.3  34046  287.65 0855.44
2009/04/23 08:22:58.6    -187     51      7    194    195 285.3   2.3  34034  287.45 0855.44
2009/04/23 08:22:58.7    -157     53     10    166    167 288.8   3.6  34034  287.45 0855.44
2009/04/23 08:22:58.8    -177     26    -31    179    182 278.4 -10.1  34018  287.16 0855.44
2009/04/23 08:22:58.9    -139     28    -32    142    146 281.5 -12.9  34024  287.27 0855.44
2009/04/23 08:22:59.0    -172     47     20    179    181 285.3   6.5  34030  287.37 0855.44
2009/04/23 08:22:59.1    -142     24     41    145    151 279.6  15.8  34038  287.52 0855.44
2009/04/23 08:22:59.2    -133     42     23    140    142 287.7   9.5  34030  287.38 0855.44
2009/04/23 08:22:59.3     -67     20     42     70     81 286.8  34.0  34022  287.23 0855.44
2009/04/23 08:22:59.4     -34     73     61     81    101 335.1  40.7  34018  287.16 0855.44
2009/04/23 08:22:59.5      -9     72     44     73     85 352.9  34.4  34020  287.20 0855.44
2009/04/23 08:22:59.6       4     62     34     63     71   4.5  31.3  34020  287.20 0855.44
2009/04/23 08:22:59.7      34     30     91     46    101  48.7  71.4  34022  287.23 0855.44
2009/04/23 08:22:59.8     -11     80     91     81    121 352.0  53.7  34020  287.21 0855.45
2009/04/23 08:22:59.9       1     69     60     70     92   0.9  45.4  34022  287.23 0855.45
2009/04/23 08:23:00.0       7     23     62     25     66  18.5  77.1  34020  287.20 0855.45
2009/04/23 08:23:00.1      43     58     76     73    105  37.0  50.7  34016  287.15 0855.45
2009/04/23 08:23:00.2      30     48     64     57     85  32.6  53.7  34016  287.13 0855.45
2009/04/23 08:23:00.3      -2     64     55     65     85 358.2  44.8  34024  287.27 0855.45
2009/04/23 08:23:00.4     -15    143     66    144    158 353.8  26.2  34110  288.74 0855.45
2009/04/23 08:23:00.5     -23    179     81    181    198 352.7  25.3  34118  288.87 0855.45
2009/04/23 08:23:00.6     -70    172     66    186    198 337.7  19.6  34114  288.80 0855.45
2009/04/23 08:23:00.7     -55    212     81    220    234 345.3  21.0  34096  288.48 0855.45
2009/04/23 08:23:00.8     -72    193     92    207    226 339.5  25.3  34086  288.31 0855.44
2009/04/23 08:23:00.9       0    180     53    181    189   0.0  16.3  34048  287.67 0855.44
2009/04/23 08:23:01.0      -3    144      9    145    146 358.6   3.8  34046  287.65 0855.44
2009/04/23 08:23:01.1     -15    140     23    141    143 353.8   9.5  34046  287.64 0855.44
2009/04/23 08:23:01.2     -33    127     20    132    134 345.3   9.0  34042  287.57 0855.44
2009/04/23 08:23:01.3     -35    113     54    119    130 342.6  26.2  34034  287.45 0855.44
2009/04/23 08:23:01.4     -25     92     42     96    104 344.9  25.1  34030  287.38 0855.44
2009/04/23 08:23:01.5     -15    106     52    108    119 351.9  27.3  34038  287.52 0855.44
2009/04/23 08:23:01.6      -9     76     35     77     84 352.9  26.2  34046  287.65 0855.44
2009/04/23 08:23:01.7      -7     50     -2     51     52 351.1  -2.2  34050  287.72 0855.44
2009/04/23 08:23:01.8      36      5    -13     37     40  82.1 -19.7  34040  287.54 0855.44
2009/04/23 08:23:01.9      37     -4    -30     38     48  96.1 -47.1  34036  287.49 0855.44
2009/04/23 08:23:02.0      42    -14    -26     45     51 108.4 -36.8  34038  287.52 0855.44
2009/04/23 08:23:02.1      67     26    -41     73     83  68.3 -36.8  34040  287.54 0855.44
2009/04/23 08:23:02.2      82     31    -48     88    100  69.2 -35.7  34042  287.59 0855.44
2009/04/23 08:23:02.3      87     71    -75    113    135  50.5 -40.9  34038  287.50 0855.44
2009/04/23 08:23:02.4      52     74   -117     91    148  35.2 -62.8  34022  287.25 0855.44
2009/04/23 08:23:02.5      53    133   -163    144    217  21.9 -58.6  34034  287.43 0855.44
2009/04/23 08:23:02.6      18     88    -97     91    133  12.0 -56.0  34040  287.54 0855.44
2009/04/23 08:23:02.7      -2     68   -118     69    136 358.2 -71.2  34024  287.28 0855.44
2009/04/23 08:23:02.8      -3     62   -102     63    119 356.4 -70.1  34034  287.45 0855.43
2009/04/23 08:23:02.9     101     81    -97    130    162  51.4 -45.1  34058  287.86 0855.43
2009/04/23 08:23:03.0     182     54    -36    190    194  73.4 -10.9  34062  287.91 0855.43
2009/04/23 08:23:03.1     111     11    -96    112    147  84.3 -49.2  34030  287.37 0855.43
2009/04/23 08:23:03.2      58      1    -92     59    109  88.3 -69.0  34028  287.33 0855.43
2009/04/23 08:23:03.3      64     53    -99     84    129  50.5 -60.2  34020  287.20 0855.43
2009/04/23 08:23:03.4      64    109    -98    127    160  30.3 -46.1  34036  287.49 0855.43
2009/04/23 08:23:03.5     234     70   -116    245    271  73.4 -31.5  34060  287.88 0855.43
2009/04/23 08:23:03.6     140     22     79    142    162  80.8  31.4  34050  287.70 0855.43
2009/04/23 08:23:03.7     108    101     91    149    174  46.9  34.8  34070  288.06 0855.43
2009/04/23 08:23:03.8     134     72    115    153    191  61.6  40.9  34050  287.72 0855.43
2009/04/23 08:23:03.9     127     28    103    131    166  77.2  42.4  34048  287.67 0855.43
2009/04/23 08:23:04.0      53     -4     93     54    107  94.4  67.2  34056  287.82 0855.43
2009/04/23 08:23:04.1       3     12     23     13     26  15.1  66.8  34054  287.77 0855.43
2009/04/23 08:23:04.2       1    -11      0     12     13 172.0  -2.2  34052  287.76 0855.43
2009/04/23 08:23:04.4       6    -32     41     33     52 168.4  56.4  34058  287.84 0855.43
2009/04/23 08:23:04.4     -48    -53      8     72     73 222.3   6.9  34052  287.76 0855.43
2009/04/23 08:23:04.6     -69    -67      7     97     98 226.0   4.4  34050  287.70 0855.43
2009/04/23 08:23:04.7     -78    -78      3    111    112 224.7   1.8  34044  287.62 0855.43
2009/04/23 08:23:04.8     -89    -94     21    130    132 223.3   9.5  34048  287.67 0855.43
2009/04/23 08:23:04.9     -84   -101     -7    132    133 219.7  -3.1  34040  287.55 0855.42
2009/04/23 08:23:05.0    -118   -111    -56    163    173 226.9 -18.9  34022  287.23 0855.42
2009/04/23 08:23:05.1     -87   -113    -76    143    161 217.8 -34.5  34024  287.27 0855.42
2009/04/23 08:23:05.2     -63    -76    -86     99    131 219.6 -50.2  34020  287.21 0855.42
2009/04/23 08:23:05.3     -44    -69    -97     83    127 212.5 -59.2  34018  287.18 0855.42
2009/04/23 08:23:05.4     -19    -96    -67     99    119 191.6 -42.0  34032  287.40 0855.42
2009/04/23 08:23:05.5       7    -94    -57     95    110 175.5 -38.8  34036  287.47 0855.42
2009/04/23 08:23:05.6      49    -85    -41     99    107 150.1 -27.5  34038  287.50 0855.42
2009/04/23 08:23:05.7      50    -97    -42    110    117 152.8 -26.4  34030  287.38 0855.42
2009/04/23 08:23:05.8      87    -92    -21    127    129 136.7  -9.8  34024  287.27 0855.42
2009/04/23 08:23:05.9     103    -88     48    136    145 130.4  19.4  34030  287.37 0855.42
2009/04/23 08:23:06.0     115    -63     64    132    146 118.8  27.3  34028  287.33 0855.42
2009/04/23 08:23:06.1     118    -57     15    132    133 115.8   6.9  34024  287.28 0855.42
2009/04/23 08:23:06.2      71    -28     15     77     79 111.7  11.6  34026  287.32 0855.42
2009/04/23 08:23:06.3      26    -21     25     34     42 129.6  40.7  34028  287.33 0855.42
2009/04/23 08:23:06.4     -30    -89     70     95    118 198.7  40.1  34028  287.33 0855.42
2009/04/23 08:23:06.5     -22   -123    120    126    174 190.2  49.0  34026  287.30 0855.42
2009/04/23 08:23:06.6     -46      1     87     47     98 271.7  68.9  34024  287.28 0855.42
2009/04/23 08:23:06.7     -41     62     48     75     89 326.6  35.5  34024  287.27 0855.42
2009/04/23 08:23:06.8      -5     91     20     92     95 356.9  12.6  34026  287.30 0855.42
2009/04/23 08:23:06.9     -45     40     -6     61     62 311.3  -6.2  34028  287.33 0855.43
2009/04/23 08:23:07.0      -2     59     31     60     67 357.3  29.3  34026  287.32 0855.43
2009/04/23 08:23:07.1      17     52     -9     55     56  18.7 -10.3  34028  287.35 0855.43
2009/04/23 08:23:07.2      26     51    -16     58     61  27.2 -15.5  34028  287.35 0855.43
2009/04/23 08:23:07.3       4     74     -9     75     76   3.6  -7.3  34036  287.47 0855.43
2009/04/23 08:23:07.4     -26     16     31     31     43 302.5  50.1  34030  287.38 0855.43
2009/04/23 08:23:07.5     -19     39     72     44     84 333.7  65.1  34026  287.32 0855.43
2009/04/23 08:23:07.6      62     24     40     67     78  68.3  34.4  34024  287.27 0855.43
2009/04/23 08:23:07.7      43     41      3     60     61  46.9   2.9  34030  287.37 0855.43
2009/04/23 08:23:07.8      23     40    -22     47     51  29.9 -31.5  34034  287.45 0855.43
2009/04/23 08:23:07.9     -17     39    -44     43     61 336.4 -54.5  34030  287.37 0855.43
2009/04/23 08:23:08.0     -45     38    -42     60     73 310.4 -43.9  34028  287.35 0855.43
2009/04/23 08:23:08.1     -17     53    -56     56     79 341.3 -54.5  34028  287.33 0855.43
2009/04/23 08:23:08.2     -58     67    -56     89    105 319.0 -39.9  34028  287.33 0855.43
2009/04/23 08:23:08.3     -53     56    -65     78    101 316.8 -48.2  34020  287.21 0855.43
2009/04/23 08:23:08.4     -41     58    -64     72     96 324.8 -50.8  34022  287.25 0855.43
2009/04/23 08:23:08.5     -39     40    -60     56     82 315.8 -56.0  34028  287.33 0855.43
2009/04/23 08:23:08.6     -26      7    -53     27     59 285.1 -75.2  34028  287.35 0855.43
2009/04/23 08:23:08.7      -8      8    -24     12     26 313.1 -75.2  34028  287.35 0855.43
2009/04/23 08:23:08.8       8     43    -15     44     47  11.6 -18.7  34028  287.33 0855.43
2009/04/23 08:23:08.9      18     56    -16     60     63  18.3 -15.5  34026  287.30 0855.43
2009/04/23 08:23:09.0      35     69    -47     78     91  27.2 -38.4  34026  287.32 0855.43
2009/04/23 08:23:09.1      72     61    -13     95     96  50.0  -8.2  34028  287.33 0855.43
2009/04/23 08:23:09.2      60     50     10     79     80  50.5   7.5  34036  287.47 0855.43
2009/04/23 08:23:09.3      56     35      5     67     68  57.6   4.9  34036  287.47 0855.43
2009/04/23 08:23:09.4      28     38     21     48     52  37.0  25.1  34034  287.43 0855.43
2009/04/23 08:23:09.5      21     20     25     30     39  46.9  43.8  34040  287.55 0855.43
2009/04/23 08:23:09.6       2     27      7     28     30   4.4  15.3  34044  287.62 0855.43
2009/04/23 08:23:09.7       2     13     -8     14     16  11.6 -39.9  34048  287.67 0855.43
2009/04/23 08:23:09.8     -15    -32    -20     36     41 205.5 -35.8  34032  287.42 0855.43
2009/04/23 08:23:09.9     -23    -38     15     45     48 211.6  19.2  34012  287.08 0855.43
2009/04/23 08:23:10.0      -8    -55     36     56     66 188.9  35.6  34014  287.11 0855.43
2009/04/23 08:23:10.1     -15    -75     27     77     82 191.6  19.4  34022  287.23 0855.43
2009/04/23 08:23:10.2      -6    -57     11     58     60 186.2  11.1  34024  287.28 0855.43
2009/04/23 08:23:10.3      -8    -39     11     40     42 192.5  15.3  34024  287.28 0855.43
2009/04/23 08:23:10.4     -56    -19      1     60     61 251.4   1.8  34022  287.25 0855.43
2009/04/23 08:23:10.5     -54    -22     -8     59     60 247.4  -8.2  34016  287.15 0855.43
2009/04/23 08:23:10.6     -51    -24    -43     57     71 244.6 -46.1  34020  287.21 0855.43
2009/04/23 08:23:10.7     -65    -18     -2     68     69 254.1  -2.2  34012  287.08 0855.43
2009/04/23 08:23:10.8     -33      2     73     34     80 274.4  73.5  34018  287.18 0855.43
2009/04/23 08:23:10.9     -44    -12     48     46     66 254.9  50.1  34018  287.16 0855.44
2009/04/23 08:23:11.0     -16      1     57     17     59 274.4  82.8  34018  287.18 0855.44
2009/04/23 08:23:11.1     -16    -10     51     20     54 237.6  79.2  34020  287.20 0855.44
2009/04/23 08:23:11.2     -37     -1     54     38     66 267.4  61.5  34018  287.18 0855.44
2009/04/23 08:23:11.3     -84     15     28     86     91 280.1  17.9  34030  287.37 0855.44
2009/04/23 08:23:11.4     -81     22     46     85     96 285.5  30.8  34032  287.42 0855.44
2009/04/23 08:23:11.5     -71     -1     30     72     78 269.2  23.1  34024  287.27 0855.44
2009/04/23 08:23:11.6     -50    -14     32     52     61 254.1  35.5  34020  287.20 0855.44
2009/04/23 08:23:11.7     -38    -12     24     40     46 251.8  34.4  34020  287.20 0855.44
2009/04/23 08:23:11.8     -34    -16     35     38     51 244.6  47.9  34020  287.20 0855.44
2009/04/23 08:23:11.9       0      0     41      1     41 270.0  90.0  34022  287.25 0855.44
2009/04/23 08:23:12.0       2     46     31     47     56   2.7  35.6  34020  287.21 0855.44
2009/04/23 08:23:12.1     -48     60     16     78     80 321.3  11.6  34018  287.18 0855.44
2009/04/23 08:23:12.2     -99     32     -4    105    106 288.2  -2.2  34020  287.21 0855.44
2009/04/23 08:23:12.3    -123     41    -37    130    136 288.6 -16.0  34020  287.20 0855.44
2009/04/23 08:23:12.4    -115     38    -22    122    124 288.4 -10.3  34024  287.27 0855.44
2009/04/23 08:23:12.5     -98     15    -15    100    102 278.8  -8.8  34020  287.21 0855.44
2009/04/23 08:23:12.6     -64    -25    -32     69     76 248.3 -31.5  34020  287.21 0855.44
2009/04/23 08:23:12.7      -7    -49     20     50     53 188.9  22.0  34022  287.23 0855.44
2009/04/23 08:23:12.8     -48    -51     34     71     78 223.2  27.2  34020  287.21 0855.44
2009/04/23 08:23:12.9     -43    -52     24     68     73 219.7  19.4  34020  287.20 0855.43
2009/04/23 08:23:13.0     -49    -56      3     75     76 221.4   2.8  34022  287.25 0855.43
2009/04/23 08:23:13.1     -32    -66      3     74     75 206.3   2.9  34024  287.28 0855.43
2009/04/23 08:23:13.2     -40    -61      3     74     75 213.4   2.8  34024  287.27 0855.43
2009/04/23 08:23:13.3     -52    -95     45    109    117 208.5  23.6  34020  287.21 0855.43
2009/04/23 08:23:13.4     -17    -67     78     70    104 194.3  53.3  34036  287.49 0855.43
2009/04/23 08:23:13.5     109     -1    132    110    171  90.8  56.1  34082  288.26 0855.43
2009/04/23 08:23:13.6      72    -23     83     76    112 108.2  52.2  34060  287.89 0855.43
2009/04/23 08:23:13.7     -53    -52    102     75    126 225.1  60.5  34032  287.42 0855.43
2009/04/23 08:23:13.8     -63   -105     52    123    133 210.8  24.1  34026  287.30 0855.43
2009/04/23 08:23:13.9     -42    -95     93    105    140 204.1  45.9  34028  287.33 0855.43
2009/04/23 08:23:14.0     -48   -105     78    116    139 204.5  37.4  34016  287.15 0855.43
2009/04/23 08:23:14.1     -60    -95     62    113    128 212.5  31.3  34020  287.20 0855.43
2009/04/23 08:23:14.2     -89   -127     56    156    165 215.2  20.2  34026  287.32 0855.43
2009/04/23 08:23:14.3      -7   -139     11    140    141 183.1   4.9  34060  287.89 0855.43
2009/04/23 08:23:14.4     101     -7    111    102    150  94.4  52.2  34088  288.35 0855.43
2009/04/23 08:23:14.5     -11    -96     81     97    126 187.1  44.3  34098  288.53 0855.43
2009/04/23 08:23:14.6     -34   -106    146    112    184 197.8  58.7  34112  288.75 0855.43
2009/04/23 08:23:14.7     -30     55    210     63    219 331.0  82.8  34070  288.04 0855.43
2009/04/23 08:23:14.8     266     21    181    267    322  85.4  37.4  34048  287.66 0855.43
2009/04/23 08:23:14.9     154      9    192    155    246  86.5  56.9  34056  287.82 0855.42
2009/04/23 08:23:15.0       3      4    154      6    154  39.6  90.0  34074  288.13 0855.42
2009/04/23 08:23:15.1       7     -4    231      9    231 122.4  90.0  34058  287.84 0855.42
2009/04/23 08:23:15.2      18     -5    154     19    155 108.2  90.0  34058  287.86 0855.42
2009/04/23 08:23:15.3     -24     12    157     28    159 297.1  90.0  34050  287.70 0855.42
2009/04/23 08:23:15.4      98    -46    202    109    229 115.2  69.3  34034  287.45 0855.42
2009/04/23 08:23:15.5     120    -40    225    127    258 108.6  68.3  34038  287.50 0855.42
2009/04/23 08:23:15.6     233      7    284    234    367  88.1  56.4  34028  287.35 0855.42
2009/04/23 08:23:15.7     179     -8    347    180    390  92.8  70.6  34034  287.44 0855.42
2009/04/23 08:23:15.8     189      4    324    190    375  88.7  67.0  34024  287.26 0855.42
2009/04/23 08:23:15.9     156    -46    223    163    276 106.6  60.5  34022  287.24 0855.42
2009/04/23 08:23:16.0     103     16    207    105    232  80.8  71.0  34026  287.32 0855.42
2009/04/23 08:23:16.1     203     29    222    206    302  81.6  52.2  34026  287.31 0855.42
2009/04/23 08:23:16.2     287     47    214    291    361  80.5  39.9  34028  287.35 0855.42
2009/04/23 08:23:16.3     237   -143    211    277    348 121.1  41.2  34030  287.38 0855.42
2009/04/23 08:23:16.4     227   -125    184    260    318 118.9  38.8  34026  287.31 0855.42
2009/04/23 08:23:16.5     215     36    221    219    311  80.4  50.1  34034  287.44 0855.42
2009/04/23 08:23:16.6     238    -40    217    242    325  99.7  46.5  34028  287.33 0855.42
2009/04/23 08:23:16.7     282      4    189    283    340  89.0  36.9  34036  287.46 0855.42
2009/04/23 08:23:16.8     239     70    190    250    314  73.6  41.2  34032  287.41 0855.42
2009/04/23 08:23:16.9     215     81    205    230    308  69.2  46.4  34026  287.29 0855.43
2009/04/23 08:23:17.0     233     47    238    238    336  78.6  50.1  34080  288.21 0855.43
2009/04/23 08:23:17.1     221     39    208    225    306  79.9  47.9  34068  288.02 0855.43
2009/04/23 08:23:17.2     141     33    214    145    258  76.7  62.7  34058  287.86 0855.43
2009/04/23 08:23:17.3      89     65    209    111    236  54.0  69.8  34052  287.74 0855.43
2009/04/23 08:23:17.4     166     -8    167    167    236  92.8  50.1  34056  287.82 0855.43
2009/04/23 08:23:17.5      95     14    140     97    170  81.2  62.1  34056  287.82 0855.43
2009/04/23 08:23:17.6      47     -3    127     48    135  94.4  79.1  34036  287.49 0855.43
2009/04/23 08:23:17.7     201     -8     91    202    221  92.4  25.7  34066  287.99 0855.43
2009/04/23 08:23:17.8     268     89     77    283    294  71.6  15.3  34100  288.54 0855.43
2009/04/23 08:23:17.9     260    165    100    309    325  57.6  18.0  34120  288.88 0855.43
2009/04/23 08:23:18.0     228    111     79    254    267  64.0  17.4  34100  288.56 0855.43
2009/04/23 08:23:18.1     209     79    120    224    254  69.2  30.3  34130  289.07 0855.43
2009/04/23 08:23:18.2     253      4    181    254    311  89.0  39.0  34128  289.02 0855.43
2009/04/23 08:23:18.3     268     60    110    275    296  77.4  23.0  34130  289.07 0855.43
2009/04/23 08:23:18.4     306     62    122    313    335  78.5  22.5  34132  289.10 0855.43
2009/04/23 08:23:18.5     230     -3    181    231    293  90.8  42.0  34076  288.15 0855.43
2009/04/23 08:23:18.6     265    -18    127    266    294  93.9  27.3  34110  288.73 0855.43
2009/04/23 08:23:18.7     248    -34     72    251    262  98.0  16.0  34126  289.00 0855.43
2009/04/23 08:23:18.8     247      3     92    248    264  89.2  21.3  34146  289.32 0855.43
2009/04/23 08:23:18.9     292    100    132    309    336  70.9  24.5  34156  289.49 0855.44
2009/04/23 08:23:19.0     233    139    100    272    289  59.3  21.0  34100  288.56 0855.44
2009/04/23 08:23:19.1     282     85     84    295    307  73.1  16.0  34168  289.70 0855.44
2009/04/23 08:23:19.2     266     93    153    282    320  70.7  30.9  34134  289.12 0855.44
2009/04/23 08:23:19.3     191      0    218    192    290  90.0  54.2  34128  289.02 0855.44
2009/04/23 08:23:19.4     350    114    179    369    410  71.9  27.9  34158  289.55 0855.44
2009/04/23 08:23:19.5     290     45    155    294    332  81.2  30.1  34156  289.51 0855.44
2009/04/23 08:23:19.6     376     76     82    384    393  78.6  12.2  34142  289.26 0855.44
2009/04/23 08:23:19.7     468    122    189    484    519  75.4  22.4  34116  288.83 0855.44
2009/04/23 08:23:19.8     467    155    144    493    514  71.6  16.3  34108  288.69 0855.44
2009/04/23 08:23:19.9     494    117     86    508    516  76.6   9.7  34100  288.56 0855.44
2009/04/23 08:23:20.0     386    135    144    410    434  70.7  20.2  34080  288.21 0855.44
2009/04/23 08:23:20.1     369    166    141    405    428  65.8  20.0  34042  287.58 0855.44
2009/04/23 08:23:20.2     316    190    100    369    383  59.0  15.2  34050  287.71 0855.44
2009/04/23 08:23:20.3     350    178    107    393    408  63.0  15.3  34042  287.58 0855.44
2009/04/23 08:23:20.4     316    119    108    338    355  69.3  17.8  34064  287.94 0855.44
2009/04/23 08:23:20.5     267    208    104    339    355  52.1  17.2  34054  287.79 0855.44
2009/04/23 08:23:20.6     317    196     75    373    381  58.3  11.5  34038  287.52 0855.44
2009/04/23 08:23:20.7     345    171     54    386    390  63.6   8.1  34042  287.56 0855.44
2009/04/23 08:23:20.8     362    158     51    396    400  66.4   7.4  34048  287.69 0855.44
2009/04/23 08:23:20.9     390    117     57    408    413  73.2   8.0  34100  288.56 0855.44
2009/04/23 08:23:21.0     428    113     21    443    444  75.1   2.8  34058  287.85 0855.44
2009/04/23 08:23:21.1     332    177     96    377    390  62.0  14.4  34044  287.62 0855.44
2009/04/23 08:23:21.2     313    131     76    340    349  67.3  12.6  34052  287.76 0855.44
2009/04/23 08:23:21.3     304    168     81    348    358  61.1  13.1  34064  287.94 0855.44
2009/04/23 08:23:21.4     286    132      8    316    317  65.2   1.5  34040  287.53 0855.44
2009/04/23 08:23:21.5     284    183     59    339    345  57.2   9.9  34090  288.37 0855.44
2009/04/23 08:23:21.6     372    114     40    390    393  73.0   5.9  34112  288.77 0855.44
2009/04/23 08:23:21.7     353    106     74    369    377  73.2  11.3  34114  288.79 0855.44
2009/04/23 08:23:21.8     336    148     86    368    379  66.3  13.2  34106  288.66 0855.44
2009/04/23 08:23:21.9     329    159     50    366    370  64.2   7.9  34072  288.08 0855.46
2009/04/23 08:23:22.0     256    151     35    298    301  59.4   6.9  34062  287.92 0855.46
2009/04/23 08:23:22.1     290    156      0    330    331  61.8   0.1  34058  287.84 0855.46
2009/04/23 08:23:22.2     347    186     40    394    397  61.8   5.8  34078  288.18 0855.46
2009/04/23 08:23:22.3     357    180     42    400    403  63.2   6.1  34084  288.30 0855.46
2009/04/23 08:23:22.4     389    125     12    409    410  72.2   1.7  34104  288.63 0855.46
2009/04/23 08:23:22.5     387     56     61    392    397  81.7   8.9  34144  289.30 0855.46
2009/04/23 08:23:22.6     405     92     26    416    417  77.2   3.6  34134  289.12 0855.46
2009/04/23 08:23:22.7     377    123     12    397    398  71.9   1.8  34112  288.76 0855.46
2009/04/23 08:23:22.8     409     96     48    421    424  76.7   6.6  34094  288.46 0855.46
2009/04/23 08:23:22.9     404    124     29    423    425  72.9   4.0  34070  288.04 0855.46
2009/04/23 08:23:23.0     432    137     46    454    457  72.3   5.9  34094  288.46 0855.46
2009/04/23 08:23:23.1     438     88     66    447    452  78.5   8.5  34136  289.17 0855.46
2009/04/23 08:23:23.2     418     82     67    427    433  78.9   9.0  34140  289.22 0855.46
2009/04/23 08:23:23.3     383    102     29    397    399  75.0   4.2  34078  288.18 0855.46
2009/04/23 08:23:23.4     398    107     30    413    415  74.9   4.2  34060  287.87 0855.46
2009/04/23 08:23:23.5     338     73      6    346    347  77.7   1.0  34064  287.93 0855.46
2009/04/23 08:23:23.6     378     53     36    382    384  82.0   5.4  34120  288.91 0855.46
2009/04/23 08:23:23.7     411     23     96    412    423  86.7  13.1  34150  289.41 0855.46
2009/04/23 08:23:23.8     416     84    153    425    451  78.6  20.8  34086  288.33 0855.46
2009/04/23 08:23:23.9     389    -12    110    390    406  91.8  15.8  34078  288.18 0855.47
2009/04/23 08:23:24.0     422     13    129    423    443  88.2  17.0  34078  288.19 0855.47
2009/04/23 08:23:24.1     309     41     15    312    313  82.3   2.9  34060  287.87 0855.47
2009/04/23 08:23:24.2     224     73     36    236    239  71.8   8.9  34058  287.85 0855.47
2009/04/23 08:23:24.3     179    120     26    216    218  56.0   6.9  34066  287.98 0855.47
2009/04/23 08:23:24.4     189    155     85    245    260  50.7  19.2  34062  287.92 0855.47
2009/04/23 08:23:24.5     258    213    138    335    362  50.5  23.7  34048  287.69 0855.47
2009/04/23 08:23:24.6     186    186    138    264    297  45.0  29.8  34062  287.92 0855.47
2009/04/23 08:23:24.7     300     60    147    307    340  78.6  27.3  34078  288.18 0855.47
2009/04/23 08:23:24.8     369     86    118    380    398  76.8  17.3  34116  288.84 0855.47
2009/04/23 08:23:24.9     301     66    180    309    357  77.6  32.9  34084  288.27 0855.47
2009/04/23 08:23:25.0     306     12    111    307    326  87.6  20.6  34078  288.17 0855.47
2009/04/23 08:23:25.1     293     12     76    294    304  87.6  14.6  34084  288.29 0855.47
2009/04/23 08:23:25.2     231     -6     49    232    238  91.7  12.0  34066  287.97 0855.47
2009/04/23 08:23:25.3     278      0     54    279    285  90.0  11.0  34058  287.85 0855.47
2009/04/23 08:23:25.4     333      4     99    334    349  89.3  16.6  34070  288.05 0855.47
2009/04/23 08:23:25.5     318     -5    121    319    341  91.0  21.8  34058  287.83 0855.47
2009/04/23 08:23:25.6     293    -41    119    296    319  98.0  23.0  34068  288.00 0855.47
2009/04/23 08:23:25.7     295    -22    113    296    316  94.4  21.8  34068  288.02 0855.47
2009/04/23 08:23:25.8     300     50    106    305    323  80.4  19.2  34070  288.05 0855.47
2009/04/23 08:23:25.9     295     20    135    296    325  86.1  26.3  34064  287.95 0855.48
2009/04/23 08:23:26.0     321     14    133    322    348  87.4  23.6  34068  288.01 0855.48
2009/04/23 08:23:26.1     297      4    107    298    316  89.2  20.4  34122  288.92 0855.48
2009/04/23 08:23:26.2     264    -36    111    267    289  97.9  24.1  34112  288.76 0855.48
2009/04/23 08:23:26.3     242    -32     82    245    259  97.7  18.5  34066  287.97 0855.48
2009/04/23 08:23:26.4     246      0     89    247    262  90.0  20.7  34074  288.12 0855.48
2009/04/23 08:23:26.5     263    -13    122    264    290  93.0  26.6  34086  288.31 0855.48
2009/04/23 08:23:26.6     235     -7    102    236    257  91.9  24.9  34084  288.27 0855.48
2009/04/23 08:23:26.7     295    -20     90    296    310  93.9  17.0  34048  287.68 0855.48
2009/04/23 08:23:26.8     291    -41     57    295    301  98.1  11.0  34058  287.85 0855.48
2009/04/23 08:23:26.9     358    -52     50    362    366  98.3   7.9  34064  287.94 0855.48
2009/04/23 08:23:27.0     380     -9     43    381    384  91.4   6.5  34058  287.86 0855.48
2009/04/23 08:23:27.1     272      2      3    273    274  89.4   0.8  34060  287.87 0855.48
2009/04/23 08:23:27.2      64    -77    127    101    162 140.3  57.5  34064  287.96 0855.48
2009/04/23 08:23:27.3      94   -156     89    183    203 149.0  28.0  34034  287.45 0855.48
2009/04/23 08:23:27.4     152   -116     72    192    205 127.3  21.0  34036  287.47 0855.48
2009/04/23 08:23:27.5     104   -110    141    152    207 136.8  47.9  34046  287.64 0855.48
2009/04/23 08:23:27.6      35    -47    116     59    130 143.0  71.0  34058  287.84 0855.48
2009/04/23 08:23:27.7      35   -169     96    173    197 168.0  31.4  34028  287.33 0855.48
2009/04/23 08:23:27.8      50   -217    102    223    245 166.9  26.2  34028  287.33 0855.48
2009/04/23 08:23:27.9      69   -290     82    299    311 166.6  15.3  34030  287.36 0855.47
2009/04/23 08:23:28.0      67   -268     59    277    284 165.8  12.1  34030  287.38 0855.47
2009/04/23 08:23:28.1     126   -151    155    197    250 140.1  42.4  34034  287.44 0855.47
2009/04/23 08:23:28.2     116   -108    133    159    207 133.1  44.1  34040  287.54 0855.47
2009/04/23 08:23:28.3     118    -75    126    141    189 122.5  46.6  34044  287.60 0855.47
2009/04/23 08:23:28.4      71    -64    117     96    151 132.2  56.4  34044  287.60 0855.47
2009/04/23 08:23:28.5      33    -79    103     86    134 156.8  56.3  34044  287.62 0855.47
2009/04/23 08:23:28.6     106    -69    123    127    176 123.3  49.0  34040  287.55 0855.47
2009/04/23 08:23:28.7     125   -134    144    184    233 136.8  42.0  34024  287.28 0855.47
2009/04/23 08:23:28.8     148   -143    140    207    249 134.0  37.3  34026  287.29 0855.47
2009/04/23 08:23:28.9      58    -67    128     89    155 139.0  62.6  34028  287.33 0855.47
2009/04/23 08:23:29.0      61   -183     91    194    214 161.5  27.1  34032  287.42 0855.47
2009/04/23 08:23:29.1      69   -152     60    168    178 155.5  20.4  34030  287.38 0855.47
2009/04/23 08:23:29.2      30   -169     28    172    175 169.8   9.3  34030  287.38 0855.47
2009/04/23 08:23:29.3      71   -168     14    183    184 157.1   4.4  34030  287.38 0855.47
2009/04/23 08:23:29.4     142    -65     84    157    178 114.8  30.6  34030  287.37 0855.47
2009/04/23 08:23:29.5     136    -86     66    162    174 122.4  23.4  34032  287.40 0855.47
2009/04/23 08:23:29.6     120    -48    113    130    172 111.7  45.6  34030  287.37 0855.47
2009/04/23 08:23:29.7     124    -41    149    131    198 108.4  54.2  34026  287.32 0855.47
2009/04/23 08:23:29.8      60    -33    152     69    166 118.9  74.0  34026  287.30 0855.47
2009/04/23 08:23:29.9      -5      1     98      6     98 288.4  90.0  34026  287.32 0855.47
2009/04/23 08:23:30.0     -17   -105    195    107    222 189.3  68.8  34028  287.33 0855.47
2009/04/23 08:23:30.2     -49   -145    169    154    228 198.7  52.7  34028  287.33 0855.47
2009/04/23 08:23:30.2     -50    -88    133    102    167 209.9  58.5  34026  287.32 0855.47
2009/04/23 08:23:30.3      -3    -22     61     23     65 188.0  78.2  34030  287.38 0855.47
2009/04/23 08:23:30.4      -5    -66    147     67    161 184.5  74.0  34026  287.30 0855.47
2009/04/23 08:23:30.5     -20   -128    134    130    186 188.9  50.9  34028  287.33 0855.47
2009/04/23 08:23:30.7     -41   -136    141    143    200 196.9  49.9  34030  287.38 0855.47
2009/04/23 08:23:30.8      -9   -121    145    122    189 184.5  56.1  34032  287.42 0855.47
2009/04/23 08:23:30.9     -31   -165    125    168    209 190.7  40.4  34028  287.35 0855.47
2009/04/23 08:23:31.0     -14   -158     88    159    181 185.3  31.4  34030  287.38 0855.47
2009/04/23 08:23:31.1     -24   -238     90    240    256 185.8  21.7  34030  287.38 0855.47
2009/04/23 08:23:31.2       0   -284     -5    285    286 180.0  -1.1  34030  287.36 0855.47
2009/04/23 08:23:31.3     -23   -303     53    305    310 184.5   9.9  34028  287.34 0855.47
2009/04/23 08:23:31.4      -4   -276     77    277    288 180.9  15.6  34028  287.33 0855.47
2009/04/23 08:23:31.5       3   -270     68    271    280 179.3  14.2  34028  287.33 0855.47
2009/04/23 08:23:31.6       8   -258     50    259    264 178.2  11.1  34026  287.31 0855.47
2009/04/23 08:23:31.7      77   -238     19    251    252 162.1   4.4  34024  287.28 0855.47
2009/04/23 08:23:31.8      91   -204     87    224    240 155.9  22.1  34022  287.24 0855.47
2009/04/23 08:23:31.9      20   -247     59    248    256 175.3  13.5  34022  287.24 0855.47
2009/04/23 08:23:32.0     -42   -255     55    259    265 189.3  12.1  34026  287.31 0855.47
2009/04/23 08:23:32.1     -89   -265    -91    280    295 198.7 -18.1  34024  287.28 0855.47
2009/04/23 08:23:32.2     -91   -252    -20    269    270 200.0  -4.4  34022  287.24 0855.47
2009/04/23 08:23:32.3     -48   -236     12    241    242 191.6   2.9  34022  287.22 0855.47
2009/04/23 08:23:32.4     -18   -237     10    238    239 184.5   2.5  34020  287.21 0855.47
2009/04/23 08:23:32.5     -39   -266    -12    269    270 188.5  -2.6  34018  287.16 0855.47
2009/04/23 08:23:32.6     -80   -253    -27    266    268 197.6  -6.0  34016  287.12 0855.47
2009/04/23 08:23:32.7     -63   -220     27    229    231 196.0   6.9  34018  287.18 0855.47
2009/04/23 08:23:32.8     -65   -232     -5    242    243 195.8  -1.3  34020  287.19 0855.47
2009/04/23 08:23:32.9    -112   -282    -34    304    306 201.8  -6.5  34016  287.14 0855.47
2009/04/23 08:23:33.0      -7   -230     27    231    233 181.8   6.9  34014  287.11 0855.47
2009/04/23 08:23:33.1       2   -155     57    156    166 179.1  20.4  34020  287.20 0855.47
2009/04/23 08:23:33.2      50   -177     19    184    185 164.2   5.9  34020  287.21 0855.47
2009/04/23 08:23:33.3      60   -182     12    192    193 161.7   3.6  34018  287.16 0855.47
2009/04/23 08:23:33.4      37   -197    -11    201    202 169.3  -3.3  34020  287.20 0855.47
2009/04/23 08:23:33.5      32   -197    -31    200    203 170.7  -9.0  34016  287.15 0855.47
2009/04/23 08:23:33.6      87   -166    -17    188    189 152.4  -5.4  34016  287.15 0855.47
2009/04/23 08:23:33.7     101   -134     -2    169    170 143.0  -0.7  34020  287.20 0855.47
2009/04/23 08:23:33.8     136   -124     21    185    187 132.4   6.5  34018  287.18 0855.47
2009/04/23 08:23:33.9     127   -105     31    166    169 129.6  10.6  34020  287.21 0855.47
2009/04/23 08:23:34.0     120   -107     40    162    167 131.8  13.9  34018  287.16 0855.47
2009/04/23 08:23:34.1     117   -134    -16    179    180 138.8  -5.4  34016  287.13 0855.47
2009/04/23 08:23:34.2      66   -163    -57    176    186 157.9 -17.9  34016  287.13 0855.47
2009/04/23 08:23:34.3      88   -150    -56    175    184 149.5 -17.9  34016  287.15 0855.47
2009/04/23 08:23:34.4      95   -141    -15    171    172 145.9  -5.2  34016  287.15 0855.47
2009/04/23 08:23:34.5     124   -124      1    176    177 134.8   0.5  34016  287.13 0855.47
2009/04/23 08:23:34.6      51    -61     69     80    105 140.4  45.4  34014  287.11 0855.47
2009/04/23 08:23:34.7      47    -27     65     55     85 119.8  55.4  34016  287.13 0855.47
2009/04/23 08:23:34.8     -16    -15     74     22     77 226.9  81.8  34016  287.15 0855.47
2009/04/23 08:23:34.9     -37     11     57     39     69 286.8  62.6  34020  287.21 0855.47
2009/04/23 08:23:35.0     -32     15     49     36     60 295.3  60.5  34020  287.20 0855.47
2009/04/23 08:23:35.1     -36     -7     45     37     58 258.5  56.3  34020  287.20 0855.47
2009/04/23 08:23:35.2     -75     16     48     77     90 282.4  35.5  34018  287.16 0855.47
2009/04/23 08:23:35.3     -85     23     25     89     93 285.1  15.8  34018  287.18 0855.47
2009/04/23 08:23:35.4     -69     56     38     90     97 309.1  24.1  34018  287.16 0855.47
2009/04/23 08:23:35.5     -96     26     41    100    108 285.5  23.0  34018  287.16 0855.47
2009/04/23 08:23:35.6    -104     48     30    115    119 294.8  14.7  34018  287.18 0855.47
2009/04/23 08:23:35.7    -118      9     16    119    121 274.4   8.0  34018  287.16 0855.47
2009/04/23 08:23:35.8    -151     16     -5    152    153 276.2  -2.2  34018  287.18 0855.47
2009/04/23 08:23:35.9    -162      6    -13    163    164 272.4  -4.9  34032  287.42 0855.47
2009/04/23 08:23:36.0    -164     -9    -28    165    168 266.7  -9.8  34034  287.43 0855.47
2009/04/23 08:23:36.1    -145    -80     -9    166    167 241.1  -3.3  34024  287.27 0855.47
2009/04/23 08:23:36.2    -103    -34    -13    109    110 251.8  -7.2  34018  287.16 0855.47
2009/04/23 08:23:36.3     -57    -89     21    106    109 212.6  11.1  34018  287.16 0855.47
2009/04/23 08:23:36.4     -28   -105     30    109    114 195.2  15.3  34016  287.15 0855.47
2009/04/23 08:23:36.5     -10    -89     21     90     93 186.7  13.2  34016  287.15 0855.47
2009/04/23 08:23:36.6       3    -90     31     91     97 177.8  18.9  34014  287.10 0855.47
2009/04/23 08:23:36.7       6    -52     14     53     55 172.9  15.3  34014  287.10 0855.47
2009/04/23 08:23:36.8       8    -62     22     63     67 171.9  19.2  34016  287.13 0855.47
2009/04/23 08:23:36.9     -14    -36     69     39     79 201.8  67.7  34016  287.15 0855.47
2009/04/23 08:23:37.0     -30    -68     65     75     99 203.6  45.4  34014  287.11 0855.47
2009/04/23 08:23:37.1     -63    -62     43     89     98 225.4  27.8  34014  287.11 0855.47
2009/04/23 08:23:37.2     -47    -69     41     84     93 214.7  27.3  34014  287.11 0855.47
2009/04/23 08:23:37.3     -51    -63     37     82     89 218.7  26.2  34014  287.11 0855.47
2009/04/23 08:23:37.4     -48   -104     18    115    117 204.9   8.9  34012  287.06 0855.47
2009/04/23 08:23:37.5     -81   -110      1    137    138 216.5   0.8  34012  287.08 0855.47
2009/04/23 08:23:37.6     -92   -131     21    161    163 215.0   7.5  34014  287.10 0855.47
2009/04/23 08:23:37.7    -120   -145     18    189    190 219.6   5.7  34012  287.08 0855.47
2009/04/23 08:23:37.8     -66   -186     31    198    201 199.6   8.9  34014  287.10 0855.47
2009/04/23 08:23:37.9     -73   -165     59    181    191 204.1  18.1  34012  287.08 0855.47
2009/04/23 08:23:38.0     -44   -181     41    187    192 193.8  12.6  34014  287.10 0855.46
2009/04/23 08:23:38.1     -66   -165     38    178    183 201.8  12.2  34014  287.10 0855.46
2009/04/23 08:23:38.2     -95   -122     17    155    156 217.9   6.5  34014  287.11 0855.46
2009/04/23 08:23:38.3    -106   -122     52    163    172 221.0  17.7  34014  287.10 0855.46
2009/04/23 08:23:38.4    -125   -120     39    174    179 226.2  12.6  34014  287.10 0855.46
2009/04/23 08:23:38.5     -81   -129     37    153    158 212.1  13.7  34012  287.06 0855.46
2009/04/23 08:23:38.6     -52   -120     98    131    163 203.6  40.4  34014  287.10 0855.46
2009/04/23 08:23:38.7      -6   -107    149    108    184 183.6  60.6  34014  287.10 0855.46
2009/04/23 08:23:38.8      17   -177    120    178    214 174.4  37.4  34012  287.08 0855.46
2009/04/23 08:23:38.9      68   -177    150    190    242 158.8  42.2  34006  286.96 0855.46
2009/04/23 08:23:39.0      20   -188    123    190    226 173.8  35.6  34014  287.11 0855.46
2009/04/23 08:23:39.1      24   -192     96    194    216 172.7  28.2  34014  287.10 0855.46
2009/04/23 08:23:39.2      40   -236    123    240    269 170.4  29.2  34014  287.09 0855.46
2009/04/23 08:23:39.3      25   -221    150    223    268 173.5  37.0  34010  287.04 0855.46
2009/04/23 08:23:39.4      50   -189    140    196    240 165.1  38.8  34016  287.13 0855.46
2009/04/23 08:23:39.5      61   -180     74    191    204 161.3  22.0  34018  287.16 0855.46
2009/04/23 08:23:39.6      72   -172     47    187    193 157.3  14.3  34012  287.06 0855.46
2009/04/23 08:23:39.7      84   -132     59    157    167 147.4  21.5  34014  287.10 0855.46
2009/04/23 08:23:39.8     119   -144     52    187    195 140.4  15.6  34014  287.11 0855.46
2009/04/23 08:23:39.9      96   -148    103    177    204 146.8  33.1  34012  287.08 0855.46
2009/04/23 08:23:40.0      93   -152     82    179    196 148.4  26.2  34016  287.13 0855.46
2009/04/23 08:23:40.1      99   -168     50    196    203 149.5  14.5  34014  287.11 0855.46
2009/04/23 08:23:40.2     137   -190     37    235    238 144.2   9.0  34014  287.11 0855.46
2009/04/23 08:23:40.3     109   -172      9    204    205 147.5   2.8  34012  287.08 0855.46
2009/04/23 08:23:40.4      79   -144     57    165    175 151.1  19.2  34014  287.11 0855.46
2009/04/23 08:23:40.5     107   -254     77    276    287 157.2  15.6  34016  287.14 0855.46
2009/04/23 08:23:40.6      85   -218    112    235    260 158.6  27.2  34014  287.09 0855.46
2009/04/23 08:23:40.7      43   -212    115    217    245 168.5  30.2  34014  287.11 0855.46
2009/04/23 08:23:40.8      26   -136    113    139    179 168.9  43.5  34016  287.13 0855.46
2009/04/23 08:23:40.9      41    -87     75     97    122 154.5  41.7  34016  287.13 0855.46
2009/04/23 08:23:41.0      77    -56     50     96    108 126.4  29.3  34014  287.11 0855.46
2009/04/23 08:23:41.1     115    -95     28    150    153 129.5  10.6  34018  287.18 0855.46
2009/04/23 08:23:41.2     115    -82      7    142    143 125.5   2.9  34018  287.16 0855.46
2009/04/23 08:23:41.3     145    -77     -2    165    166 118.0  -0.7  34024  287.27 0855.46
2009/04/23 08:23:41.4     165   -159     43    230    234 134.0  10.6  34022  287.24 0855.46
2009/04/23 08:23:41.5     143   -118     82    186    203 129.5  25.1  34022  287.23 0855.46
2009/04/23 08:23:41.6     143    -73     56    161    171 117.0  19.2  34026  287.30 0855.46
2009/04/23 08:23:41.7     205    -48     10    211    212 103.3   2.9  34030  287.38 0855.46
2009/04/23 08:23:41.8     194    -91    -27    215    217 115.1  -7.2  34016  287.13 0855.46
2009/04/23 08:23:41.9     210    -97    -45    232    237 114.8 -11.1  34016  287.14 0855.46
2009/04/23 08:23:42.0     185    -76    -17    201    202 112.4  -4.9  34012  287.06 0855.45
2009/04/23 08:23:42.1     168   -109    -11    201    202 122.9  -3.1  34016  287.13 0855.45
2009/04/23 08:23:42.2     134   -117     -6    178    179 131.1  -2.2  34014  287.10 0855.45
2009/04/23 08:23:42.3      91   -105    -50    140    149 139.0 -19.7  34012  287.08 0855.45
2009/04/23 08:23:42.4      76   -119    -56    142    152 147.5 -27.4  34014  287.11 0855.45
2009/04/23 08:23:42.5      78   -123    -47    147    154 147.5 -23.8  34012  287.06 0855.45
2009/04/23 08:23:42.6      25   -106    -56    109    122 166.6 -33.7  34012  287.06 0855.45
2009/04/23 08:23:42.7       7    -98    -60     99    115 175.6 -39.4  34018  287.18 0855.45
2009/04/23 08:23:42.8     -11    -85    -58     86    103 187.6 -41.4  34022  287.23 0855.45
2009/04/23 08:23:42.9     -45    -63    -44     78     89 216.0 -36.8  34016  287.13 0855.45
2009/04/23 08:23:43.0     -45    -48    -47     67     81 223.2 -43.0  34018  287.16 0855.44
2009/04/23 08:23:43.1     -14    -42    -55     45     71 199.2 -60.8  34018  287.16 0855.44
2009/04/23 08:23:43.2      -9    -45    -49     46     67 191.6 -56.5  34016  287.15 0855.44
2009/04/23 08:23:43.3     -16      0    -71     17     73 270.0 -90.0  34016  287.13 0855.44
2009/04/23 08:23:43.4      -1    -20    -63     21     66 184.5 -85.4  34012  287.08 0855.44
2009/04/23 08:23:43.5      22    -65    -44     69     81 160.8 -39.9  34008  287.01 0855.44
2009/04/23 08:23:43.6      50    -39    -14     64     66 127.8 -12.4  34010  287.05 0855.44
2009/04/23 08:23:43.7      54    -42     32     69     76 127.8  27.1  34012  287.08 0855.44
2009/04/23 08:23:43.8     113    -89     49    145    154 128.2  18.9  34014  287.11 0855.44
2009/04/23 08:23:43.9      46    -49     61     68     91 136.8  46.4  34014  287.11 0855.44
2009/04/23 08:23:44.0      22    -46     69     52     86 154.5  59.4  34014  287.11 0855.44
2009/04/23 08:23:44.1      42    -88     66     98    118 154.5  37.4  34016  287.13 0855.44
2009/04/23 08:23:44.2      83   -130      7    155    156 147.5   2.8  34014  287.10 0855.44
2009/04/23 08:23:44.3      56   -123     75    136    155 155.5  31.4  34014  287.11 0855.44
2009/04/23 08:23:44.4      -1   -170    148    171    226 180.4  45.4  34014  287.10 0855.44
2009/04/23 08:23:44.5      20   -147    183    149    235 172.0  56.6  34012  287.08 0855.44
2009/04/23 08:23:44.6      66   -196    178    207    273 161.3  45.1  34018  287.16 0855.44
2009/04/23 08:23:44.7      94    -36     33    101    107 111.3  18.4  34014  287.11 0855.44
2009/04/23 08:23:44.8     133    -98     53    166    175 126.4  17.9  34018  287.18 0855.44
2009/04/23 08:23:44.9     195   -206    -25    284    286 136.6  -5.2  34016  287.12 0855.44
2009/04/23 08:23:45.0     247   -182     15    308    309 126.4   2.9  34020  287.19 0855.44
2009/04/23 08:23:45.1     198   -166     90    259    275 130.0  19.2  34016  287.14 0855.44
2009/04/23 08:23:45.2     278   -222     86    357    368 128.6  13.5  34020  287.20 0855.44
2009/04/23 08:23:45.3     230   -178     79    291    302 127.8  15.3  34018  287.17 0855.44
2009/04/23 08:23:45.4     229   -146     17    272    273 122.6   3.6  34016  287.12 0855.44
2009/04/23 08:23:45.5     170    -93    -64    195    206 118.8 -18.3  34016  287.13 0855.44
2009/04/23 08:23:45.6     174   -179    -89    250    265 135.9 -24.6  34016  287.12 0855.44
2009/04/23 08:23:45.7     212   -135   -129    252    283 122.5 -33.7  34012  287.06 0855.44
2009/04/23 08:23:45.9     113   -106    -91    156    180 133.1 -37.3  34018  287.16 0855.44
2009/04/23 08:23:45.9     118   -124   -114    172    206 136.6 -41.1  34012  287.08 0855.44
2009/04/23 08:23:46.0      92    -88   -131    128    183 133.6 -55.1  34014  287.11 0855.44
2009/04/23 08:23:46.1      63   -134    -71    149    165 154.7 -31.8  34018  287.18 0855.44
2009/04/23 08:23:46.2     -27   -153    -71    156    171 190.2 -30.6  34016  287.13 0855.44
2009/04/23 08:23:46.3     -15   -245   -101    246    265 183.6 -28.0  34012  287.06 0855.44
2009/04/23 08:23:46.4       5   -183    -53    184    192 178.4 -16.0  34014  287.11 0855.44
2009/04/23 08:23:46.5      57   -241   -111    248    271 166.6 -30.3  34012  287.07 0855.44
2009/04/23 08:23:46.6     104   -176    -49    205    211 149.5 -13.7  34010  287.03 0855.44
2009/04/23 08:23:46.7     229   -190    -73    298    307 129.6 -13.9  34012  287.07 0855.44
2009/04/23 08:23:46.8     223   -142    -57    265    272 122.4 -12.2  34016  287.14 0855.44
2009/04/23 08:23:46.9     179   -139    -35    227    230 127.8  -9.0  34014  287.11 0855.44
2009/04/23 08:23:47.0     128   -116    -22    174    176 132.2  -7.5  34014  287.11 0855.43
2009/04/23 08:23:47.1     158    -39    -56    163    172 103.9 -23.6  34016  287.13 0855.43
2009/04/23 08:23:47.2     132   -123   -122    181    218 133.1 -41.7  34010  287.05 0855.43
2009/04/23 08:23:47.3     179   -129     -4    221    222 125.9  -1.3  34008  287.01 0855.43
2009/04/23 08:23:47.4     172   -116   -111    208    235 124.0 -34.7  34010  287.05 0855.43
2009/04/23 08:23:47.5     199   -110    -83    228    242 119.1 -25.3  34014  287.11 0855.43
2009/04/23 08:23:47.6     240    -53    -45    246    251 102.6 -10.4  34016  287.14 0855.43
2009/04/23 08:23:47.7     238    -40      3    242    243  99.6   0.8  34012  287.07 0855.43
2009/04/23 08:23:47.8     209     11     10    210    211  87.0   2.8  34018  287.16 0855.43
2009/04/23 08:23:47.9     218     -9     19    219    220  92.4   5.2  34012  287.06 0855.43
2009/04/23 08:23:48.0     278    -24     -5    280    281  95.0  -1.2  34016  287.12 0855.43
2009/04/23 08:23:48.1     215     72    -63    227    236  71.4 -15.5  34010  287.04 0855.43
2009/04/23 08:23:48.2     212      3    108    213    238  89.2  29.1  34018  287.16 0855.43
2009/04/23 08:23:48.3     199     40     39    204    208  78.5  10.8  34012  287.08 0855.43
2009/04/23 08:23:48.4     180     56     40    189    194  72.5  12.0  34012  287.06 0855.43
2009/04/23 08:23:48.5     147     37     67    152    166  75.8  25.3  34014  287.11 0855.43
2009/04/23 08:23:48.6     164     41     71    170    184  75.8  23.6  34016  287.15 0855.43
2009/04/23 08:23:48.7     129     53     61    140    152  67.4  25.1  34016  287.13 0855.43
2009/04/23 08:23:48.8      85     28     23     90     94  71.8  14.7  34014  287.11 0855.43
2009/04/23 08:23:48.9      61     73     32     96    102  39.7  18.4  34016  287.15 0855.43
2009/04/23 08:23:49.0      23     42    -11     49     51  29.0 -13.4  34014  287.11 0855.44
2009/04/23 08:23:49.1       5     27    -32     28     42  11.6 -57.7  34016  287.15 0855.44
2009/04/23 08:23:49.2       8    -29    -12     31     33 164.9 -23.3  34012  287.08 0855.44
2009/04/23 08:23:49.3      11      0     19     12     22  89.2  64.7  34014  287.10 0855.44
2009/04/23 08:23:49.4     -36    -24     11     44     46 236.7  14.3  34014  287.10 0855.44
2009/04/23 08:23:49.5     -74    -57     13     94     95 232.2   8.0  34014  287.11 0855.44
2009/04/23 08:23:49.6     -59    -86     33    105    111 214.7  17.3  34012  287.06 0855.44
2009/04/23 08:23:49.7     -93   -113     34    147    151 219.6  13.2  34014  287.10 0855.44
2009/04/23 08:23:49.8    -143    -79    -40    164    169 241.2 -13.9  34010  287.05 0855.44
2009/04/23 08:23:49.9    -177    -12    -79    178    194 265.9 -30.1  34012  287.08 0855.44
2009/04/23 08:23:50.0    -131    -83    -27    156    159 237.6  -9.8  34016  287.13 0855.44
2009/04/23 08:23:50.1     -73    -73    -15    104    106 225.1  -8.2  34014  287.11 0855.44
2009/04/23 08:23:50.2     -51    -32    -18     61     64 237.5 -16.6  34014  287.11 0855.44
2009/04/23 08:23:50.3     -26    -23    -33     35     48 228.7 -54.4  34014  287.10 0855.44
2009/04/23 08:23:50.4     -58    -15    -63     61     87 255.0 -54.5  34014  287.11 0855.44
2009/04/23 08:23:50.5     -87    -12    -90     88    125 261.6 -54.5  34014  287.10 0855.44
2009/04/23 08:23:50.6    -139     37   -107    144    179 285.0 -44.5  34016  287.15 0855.44
2009/04/23 08:23:50.7    -115     -3    -77    116    139 268.3 -40.9  34016  287.13 0855.44
2009/04/23 08:23:50.8    -100    -24    -80    103    130 256.3 -46.1  34016  287.15 0855.44
2009/04/23 08:23:50.9    -124     -5   -113    125    168 267.4 -51.3  34014  287.11 0855.44
2009/04/23 08:23:51.0    -119    -19    -69    121    139 260.8 -36.3  34014  287.10 0855.43
2009/04/23 08:23:51.1     -47    -24   -118     53    129 242.9 -78.4  34014  287.11 0855.43
2009/04/23 08:23:51.2     -67     15    -86     69    110 283.3 -60.8  34014  287.11 0855.43
2009/04/23 08:23:51.3     -61     58    -82     85    118 313.6 -53.4  34014  287.11 0855.43
2009/04/23 08:23:51.4     -75     48   -117     90    147 302.9 -62.9  34018  287.16 0855.43
2009/04/23 08:23:51.5     -27    -39    -73     48     87 214.3 -68.5  34014  287.11 0855.43
2009/04/23 08:23:51.6     -51   -128    -38    138    144 201.8 -15.5  34014  287.11 0855.43
2009/04/23 08:23:51.7     -17   -151    -14    153    154 186.7  -5.6  34014  287.10 0855.43
2009/04/23 08:23:51.8      75   -136    -33    156    160 151.0 -12.2  34014  287.11 0855.43
2009/04/23 08:23:51.9      51   -149    -28    158    161 160.8 -10.3  34012  287.06 0855.43
2009/04/23 08:23:52.0      57   -139    -19    151    153 157.7  -7.2  34010  287.03 0855.43
2009/04/23 08:23:52.1      -1   -119     39    120    127 180.9  17.9  34012  287.06 0855.43
2009/04/23 08:23:52.2      11   -154     30    155    158 175.6  11.1  34014  287.10 0855.43
2009/04/23 08:23:52.3      -6   -140     49    141    150 182.7  19.4  34012  287.06 0855.43
2009/04/23 08:23:52.4     -46   -156     25    163    166 196.7   9.0  34012  287.06 0855.43
2009/04/23 08:23:52.5     -14   -141     23    142    144 185.8   9.5  34010  287.05 0855.43
2009/04/23 08:23:52.6     -23   -118     28    121    125 191.1  13.2  34012  287.06 0855.43
2009/04/23 08:23:52.7     -16   -110     44    112    120 188.5  23.0  34010  287.05 0855.43
2009/04/23 08:23:52.8     -32    -34     32     47     56 223.2  36.5  34014  287.11 0855.43
2009/04/23 08:23:52.9     -39    -47      5     62     63 219.6   4.9  34014  287.10 0855.43
2009/04/23 08:23:53.0     -42    -71      4     83     84 210.7   2.9  34010  287.05 0855.43
2009/04/23 08:23:53.1     -26    -45     -6     53     54 209.9  -7.3  34012  287.06 0855.43
2009/04/23 08:23:53.2     -31    -26     -1     41     42 229.6  -2.2  34012  287.06 0855.43
2009/04/23 08:23:53.3      -7    -22     10     24     26 198.7  23.0  34014  287.10 0855.43
2009/04/23 08:23:53.4      12    -16    -18     21     27 143.9 -50.2  34014  287.10 0855.43
2009/04/23 08:23:53.5      -4     26    -32     27     41 350.2 -59.8  34012  287.06 0855.43
2009/04/23 08:23:53.6     -20     26    -47     34     58 322.2 -64.9  34012  287.06 0855.43
2009/04/23 08:23:53.7     -41      9    -74     43     85 283.3 -71.6  34014  287.10 0855.43
2009/04/23 08:23:53.8      17    -13    -66     22     69 127.8 -85.4  34012  287.08 0855.43
2009/04/23 08:23:53.9     -14     10    -68     18     70 306.0 -89.3  34012  287.06 0855.43
2009/04/23 08:23:54.0     -28      2    -62     29     68 274.4 -77.5  34014  287.10 0855.43
2009/04/23 08:23:54.1     -14     -2    -49     15     51 258.5 -86.2  34014  287.10 0855.43
2009/04/23 08:23:54.2       4     12    -38     13     40  18.3 -85.4  34012  287.06 0855.43
2009/04/23 08:23:54.3      11     36    -49     38     62  16.9 -62.9  34014  287.11 0855.43
2009/04/23 08:23:54.4      11     42    -49     44     65  15.1 -56.6  34014  287.10 0855.43
2009/04/23 08:23:54.5       0     32    -60     33     68 359.1 -73.2  34012  287.06 0855.43
2009/04/23 08:23:54.6     -27     39    -53     48     71 325.7 -56.6  34010  287.05 0855.43
2009/04/23 08:23:54.7     -25     53    -52     59     78 334.6 -50.8  34012  287.06 0855.43
2009/04/23 08:23:54.8     -43     41    -43     60     73 314.0 -44.1  34010  287.03 0855.43
2009/04/23 08:23:54.9     -45     54    -57     71     91 320.4 -48.1  34010  287.03 0855.43
2009/04/23 08:23:55.0     -25     72    -40     77     86 340.8 -34.2  34010  287.05 0855.43
2009/04/23 08:23:55.1     -25     72    -40     77     86 340.8 -34.2  34010  287.05 0855.43
2009/04/23 08:23:55.2      -7     56    -49     57     75 352.0 -49.2  34010  287.05 0855.43
2009/04/23 08:23:55.3     -20     32    -33     39     51 327.5 -49.2  34008  287.01 0855.43
2009/04/23 08:23:55.4     -11     54     -9     56     57 348.5  -9.3  34010  287.05 0855.43
2009/04/23 08:23:55.5     -21     55     -3     59     60 339.1  -3.2  34010  287.05 0855.43
2009/04/23 08:23:55.6     -28     40     -1     49     50 324.8  -2.2  34012  287.06 0855.43
2009/04/23 08:23:55.7     -13     46     -1     48     49 344.0  -2.2  34010  287.03 0855.43
2009/04/23 08:23:55.8     -21     29      1     37     38 323.9   2.9  34010  287.05 0855.43
2009/04/23 08:23:55.9     -56     35    -22     67     71 302.4 -18.7  34010  287.03 0855.43
2009/04/23 08:23:56.0     -56     26    -29     63     69 295.3 -31.5  34012  287.06 0855.43
2009/04/23 08:23:56.1     -38     30    -16     49     52 308.6 -18.7  34010  287.05 0855.43
2009/04/23 08:23:56.2     -20     28     -9     35     37 323.9 -15.4  34012  287.06 0855.43
2009/04/23 08:23:56.3     -21     15      2     26     27 306.0   4.9  34010  287.05 0855.43
2009/04/23 08:23:56.4     -31     15      6     35     36 295.4  11.1  34010  287.05 0855.43
2009/04/23 08:23:56.5     -21     22      9     31     33 316.8  17.3  34012  287.06 0855.43
2009/04/23 08:23:56.6     -16     18     10     25     26 318.6  21.0  34012  287.06 0855.43
2009/04/23 08:23:56.7       1     24     12     25     27   2.7  27.2  34010  287.05 0855.43
2009/04/23 08:23:56.8      22     23     -1     33     34  43.4  -3.2  34012  287.06 0855.43
2009/04/23 08:23:56.9      26     24     -3     36     37  46.7  -5.2  34012  287.06 0855.43
2009/04/23 08:23:57.0      13     22      5     26     27  30.7  11.1  34012  287.06 0855.43
2009/04/23 08:23:57.1      10     22      6     25     26  25.4  15.3  34010  287.05 0855.43
2009/04/23 08:23:57.3      18     19      6     27     28  43.4  13.2  34012  287.06 0855.43
2009/04/23 08:23:57.4      21     13      9     26     28  57.5  19.4  34010  287.03 0855.43
2009/04/23 08:23:57.5      18     22      2     29     30  39.6   4.9  34010  287.03 0855.43
2009/04/23 08:23:57.6      18     22      2     29     30  39.6   4.9  34010  287.03 0855.43
2009/04/23 08:23:57.7      28     35     -1     45     46  38.7  -1.3  34012  287.08 0855.43
2009/04/23 08:23:57.8      55     30     19     63     66  61.2  17.3  34012  287.06 0855.43
2009/04/23 08:23:57.9      55     39      8     68     69  54.0   6.9  34012  287.06 0855.43
2009/04/23 08:23:58.0      55     20     11     59     61  69.2  11.1  34010  287.05 0855.43
2009/04/23 08:23:58.1      66      5     37     67     76  85.7  31.4  34010  287.05 0855.43
2009/04/23 08:23:58.2      71      5     14     72     74  85.6  11.1  34010  287.03 0855.43
2009/04/23 08:23:58.3      89     -1     18     90     92  90.8  11.6  34010  287.05 0855.43
2009/04/23 08:23:58.4     113     -3     48    114    123  91.7  24.1  34016  287.13 0855.43
2009/04/23 08:23:58.5     127    -30     41    131    138 103.3  17.3  34014  287.11 0855.43
2009/04/23 08:23:58.6     149    -30     61    152    163 101.5  22.8  34016  287.13 0855.43
2009/04/23 08:23:58.7     169    -57     22    179    181 108.8   7.2  34016  287.15 0855.43
2009/04/23 08:23:58.8     138    -46    -14    146    147 108.6  -5.6  34018  287.16 0855.43
2009/04/23 08:23:58.9     170    -26    -13    172    173  98.8  -4.6  34016  287.15 0855.43
2009/04/23 08:23:59.0     172    -37     -8    176    177 102.2  -2.6  34016  287.15 0855.43
2009/04/23 08:23:59.1     123    -78     -8    146    147 122.4  -3.1  34012  287.08 0855.43
2009/04/23 08:23:59.2     110    -62     -4    127    128 119.3  -2.2  34018  287.16 0855.43
2009/04/23 08:23:59.3      91    -40     15    100    102 114.0   9.0  34016  287.15 0855.43
2009/04/23 08:23:59.4     107    -58     22    122    125 118.4  10.6  34014  287.11 0855.43
2009/04/23 08:23:59.5     129    -72     -3    149    150 119.3  -1.3  34016  287.15 0855.43
2009/04/23 08:23:59.6     101    -78    -22    128    130 127.8  -9.8  34018  287.16 0855.43
2009/04/23 08:23:59.7      80    -91     -1    122    123 138.6  -0.7  34016  287.15 0855.43
2009/04/23 08:23:59.8      60    -87     -2    107    108 145.3  -1.3  34016  287.13 0855.43
2009/04/23 08:23:59.9      87   -120     52    149    158 143.9  19.4  34016  287.15 0855.43
2009/04/23 08:24:00.0     136   -123     77    184    199 132.0  23.8  34016  287.15 0855.43
2009/04/23 08:24:00.1     150   -107     60    185    195 125.5  18.1  34016  287.15 0855.43
2009/04/23 08:24:00.2     195   -107    112    223    249 118.8  28.5  34014  287.09 0855.43
2009/04/23 08:24:00.3     154    -47     71    162    176 107.1  25.1  34016  287.13 0855.43
2009/04/23 08:24:00.4     155    -43     56    161    171 105.7  19.2  34014  287.11 0855.43
2009/04/23 08:24:00.5     132     -3     39    133    139  91.7  16.3  34016  287.13 0855.43
2009/04/23 08:24:00.6     158    -12      5    159    160  94.4   2.1  34018  287.16 0855.43
2009/04/23 08:24:00.7     165     -2     17    166    167  91.0   6.1  34016  287.15 0855.43
2009/04/23 08:24:00.8     145     -2     -1    146    147  90.9  -0.7  34018  287.18 0855.43
2009/04/23 08:24:00.9     156     -2     15    157    158  90.8   5.7  34018  287.16 0855.43
2009/04/23 08:24:01.0     142     -7     40    143    149  93.0  15.8  34014  287.11 0855.43
2009/04/23 08:24:01.1     146     53     67    156    169  70.0  24.9  34014  287.11 0855.44
2009/04/23 08:24:01.2     158     44     79    165    182  74.5  27.4  34016  287.13 0855.44
2009/04/23 08:24:01.3     166      5     98    167    193  88.1  33.5  34014  287.10 0855.44
2009/04/23 08:24:01.4     167     -7     79    168    185  92.6  27.1  34016  287.15 0855.44
2009/04/23 08:24:01.5     160     -8     62    161    172  93.0  21.7  34016  287.15 0855.44
2009/04/23 08:24:01.6     113     -8     58    114    127  94.3  28.7  34016  287.13 0855.44
2009/04/23 08:24:01.7     125    -15     46    126    134  97.0  20.4  34014  287.11 0855.44
2009/04/23 08:24:01.8      91    -29     33     96    102 108.2  18.9  34016  287.13 0855.44
2009/04/23 08:24:01.9      92    -22     43     95    104 103.7  26.2  34014  287.11 0855.44
2009/04/23 08:24:02.0      90    -23     42     94    102 104.6  25.7  34014  287.11 0855.44
2009/04/23 08:24:02.1      82    -37     43     91    100 114.4  27.2  34016  287.15 0855.44
2009/04/23 08:24:02.2      88    -51     52    102    114 120.2  29.3  34016  287.15 0855.44
2009/04/23 08:24:02.3      73    -48     64     88    108 123.3  39.7  34018  287.16 0855.44
2009/04/23 08:24:02.4      50    -41     62     65     89 129.5  49.0  34014  287.11 0855.44
2009/04/23 08:24:02.5      31    -31     58     45     73 135.0  57.5  34020  287.20 0855.44
2009/04/23 08:24:02.6      17    -11     47     21     51 124.2  74.0  34018  287.16 0855.44
2009/04/23 08:24:02.7     -13    -13     53     19     56 225.0  81.2  34020  287.20 0855.44
2009/04/23 08:24:02.8      -1    -17     51     18     54 184.5  81.2  34020  287.20 0855.44
2009/04/23 08:24:02.9      36    -12     31     38     49 108.4  43.7  34022  287.23 0855.44
2009/04/23 08:24:03.0      22    -14     35     27     44 122.5  57.5  34020  287.20 0855.44
2009/04/23 08:24:03.1      19    -31     36     37     51 147.5  50.0  34018  287.18 0855.43
2009/04/23 08:24:03.2      36    -38     52     53     74 136.8  51.1  34018  287.16 0855.43
2009/04/23 08:24:03.3      65    -26     65     71     96 111.8  47.9  34018  287.16 0855.43
2009/04/23 08:24:03.4      59    -42     83     73    110 126.0  54.3  34018  287.16 0855.43
2009/04/23 08:24:03.5      20      0     61     21     64  92.6  81.2  34018  287.16 0855.43
2009/04/23 08:24:03.6     -10    -10     49     15     51 225.0  81.8  34016  287.15 0855.43
2009/04/23 08:24:03.7      73   -108     21    131    133 145.8   9.5  34016  287.13 0855.43
2009/04/23 08:24:03.8      87   -150     34    174    178 149.7  11.1  34016  287.15 0855.43
2009/04/23 08:24:03.9      97   -117    -13    153    154 140.4  -5.2  34016  287.13 0855.43
2009/04/23 08:24:04.0     146   -158    -11    216    217 137.2  -3.1  34016  287.15 0855.43
2009/04/23 08:24:04.1     127   -145      9    193    194 138.8   2.8  34016  287.15 0855.43
2009/04/23 08:24:04.2     138   -134    -15    193    194 134.0  -4.6  34016  287.13 0855.43
2009/04/23 08:24:04.3      99   -140    -27    172    175 144.6  -9.0  34014  287.11 0855.43
2009/04/23 08:24:04.4      75   -187      5    202    203 158.1   1.6  34016  287.13 0855.43
2009/04/23 08:24:04.5      66   -137     35    153    158 154.1  13.1  34020  287.20 0855.43
2009/04/23 08:24:04.6      75   -120     30    142    146 147.9  12.2  34020  287.20 0855.43
2009/04/23 08:24:04.7      55   -125     40    137    143 156.3  16.3  34018  287.18 0855.43
2009/04/23 08:24:04.8      32   -115     60    120    134 164.4  28.7  34018  287.16 0855.43
2009/04/23 08:24:04.9      37   -137     44    142    149 164.8  17.4  34014  287.11 0855.43
2009/04/23 08:24:05.0      -7   -181     80    182    198 182.2  25.2  34018  287.16 0855.43
2009/04/23 08:24:05.1     -47   -172     54    179    187 195.4  16.8  34016  287.15 0855.43
2009/04/23 08:24:05.2       1   -168    108    169    200 179.5  35.6  34018  287.18 0855.43
2009/04/23 08:24:05.3      13   -178     97    179    203 175.8  31.0  34018  287.16 0855.43
2009/04/23 08:24:05.4       7   -159     78    160    178 177.3  28.0  34016  287.13 0855.43
2009/04/23 08:24:05.5      25   -124    109    127    167 168.4  45.1  34016  287.13 0855.43
2009/04/23 08:24:05.6       9   -118     96    119    152 175.6  43.7  34016  287.13 0855.43
2009/04/23 08:24:05.7      32   -113     91    118    149 164.0  41.7  34014  287.11 0855.43
2009/04/23 08:24:05.8      22   -112     96    115    149 168.5  43.8  34014  287.11 0855.43
2009/04/23 08:24:05.9      48   -120     76    130    150 158.2  33.4  34016  287.15 0855.43
2009/04/23 08:24:06.0      62   -112     76    129    149 151.1  33.5  34016  287.13 0855.43
2009/04/23 08:24:06.1      56   -100     61    115    130 150.6  30.3  34016  287.15 0855.43
2009/04/23 08:24:06.2      34   -105     66    111    129 161.7  33.5  34016  287.15 0855.43
2009/04/23 08:24:06.3      23   -126     44    129    137 169.3  18.9  34016  287.13 0855.43
2009/04/23 08:24:06.4      36   -130     37    136    141 164.4  15.3  34016  287.13 0855.43
2009/04/23 08:24:06.5      46   -104     22    115    118 155.9  11.0  34014  287.11 0855.43
2009/04/23 08:24:06.6      28   -104     20    108    110 164.9  10.6  34014  287.11 0855.43
2009/04/23 08:24:06.7      15   -128      5    129    130 172.9   2.3  34012  287.08 0855.43
2009/04/23 08:24:06.8       0   -131      2    132    133 180.4   1.2  34014  287.11 0855.43
2009/04/23 08:24:06.9       9   -117     12    118    119 175.6   5.9  34014  287.11 0855.43
2009/04/23 08:24:07.0      28   -105     37    109    116 164.9  18.9  34014  287.10 0855.43
2009/04/23 08:24:07.1      74   -109     17    132    134 145.7   7.5  34018  287.16 0855.43
2009/04/23 08:24:07.2      89   -118     26    148    151 143.0  10.1  34018  287.16 0855.43
2009/04/23 08:24:07.3      66   -104      9    124    125 147.4   4.4  34016  287.13 0855.43
2009/04/23 08:24:07.4      59   -106     27    122    126 150.6  12.6  34018  287.18 0855.43
2009/04/23 08:24:07.5      54    -93      9    108    109 149.7   4.9  34016  287.15 0855.43
2009/04/23 08:24:07.6      63    -67     20     93     96 136.8  12.2  34018  287.18 0855.43
2009/04/23 08:24:07.7      33    -75     33     83     89 155.9  22.5  34018  287.16 0855.43
2009/04/23 08:24:07.8      51   -135     49    145    154 159.1  18.9  34018  287.16 0855.43
2009/04/23 08:24:07.9      30    -91     49     96    107 161.7  28.2  34016  287.15 0855.43
2009/04/23 08:24:08.0      59   -106     24    122    125 151.0  11.1  34020  287.20 0855.43
2009/04/23 08:24:08.1      -1    -94     80     95    124 180.9  44.3  34016  287.15 0855.43
2009/04/23 08:24:08.2       3   -113    101    114    152 178.2  45.9  34012  287.06 0855.43
2009/04/23 08:24:08.3     -23   -113    120    116    166 191.5  50.9  34014  287.10 0855.43
2009/04/23 08:24:08.4      -1    -86    113     87    142 180.9  58.5  34014  287.11 0855.43
2009/04/23 08:24:08.5     -26    -82     96     87    129 197.8  52.7  34020  287.21 0855.43
2009/04/23 08:24:08.6      -3    -76     64     77    100 182.7  43.8  34018  287.18 0855.43
2009/04/23 08:24:08.7       0    -71     66     72     97 180.0  47.9  34020  287.20 0855.43
2009/04/23 08:24:08.8       7    -55     48     56     73 172.0  44.8  34020  287.20 0855.43
2009/04/23 08:24:08.9      11    -34     65     36     74 161.3  68.8  34018  287.18 0855.43
2009/04/23 08:24:09.0      -3    -31     49     32     58 186.2  64.6  34020  287.20 0855.43
2009/04/23 08:24:09.1      -2    -46     47     47     66 183.6  50.1  34020  287.20 0855.43
2009/04/23 08:24:09.2      -5    -71     55     72     90 184.4  41.7  34018  287.16 0855.43
2009/04/23 08:24:09.3     -16    -75     38     77     85 192.5  28.2  34018  287.16 0855.43
2009/04/23 08:24:09.4     -13    -76     27     78     83 189.8  19.4  34020  287.20 0855.43
2009/04/23 08:24:09.5       0    -67     39     68     78 180.0  32.4  34020  287.20 0855.43
2009/04/23 08:24:09.6       7    -45     54     46     70 170.2  56.3  34018  287.16 0855.43
2009/04/23 08:24:09.7      -7    -67     30     68     74 186.2  25.1  34018  287.18 0855.43
2009/04/23 08:24:09.8     -15    -57     10     60     61 195.2  10.1  34018  287.16 0855.43
2009/04/23 08:24:09.9       4    -45     23     46     51 173.8  27.3  34016  287.13 0855.43
2009/04/23 08:24:10.0       0    -57     36     58     68 180.9  35.5  34018  287.16 0855.43
2009/04/23 08:24:10.1       3    -49     38     50     62 175.6  41.7  34018  287.16 0855.42
2009/04/23 08:24:10.2      -5    -74     47     75     88 184.5  35.5  34018  287.18 0855.42
2009/04/23 08:24:10.3      -4    -60      7     61     62 184.5   6.9  34020  287.20 0855.42
2009/04/23 08:24:10.4      -5    -62      7     63     64 185.3   7.1  34018  287.16 0855.42
2009/04/23 08:24:10.5       5    -50     -2     51     52 173.8  -2.2  34016  287.13 0855.42
2009/04/23 08:24:10.6       3    -49    -12     50     52 175.6 -13.4  34018  287.16 0855.42
2009/04/23 08:24:10.7      35    -32     15     48     51 132.2  17.3  34018  287.16 0855.42
2009/04/23 08:24:10.8      28    -27     15     40     42 134.0  21.0  34018  287.18 0855.42
2009/04/23 08:24:10.9      31    -28      0     43     44 132.2  -0.3  34018  287.18 0855.42
2009/04/23 08:24:11.0      39     -8     13     40     43 102.4  18.9  34016  287.15 0855.42
2009/04/23 08:24:11.1      49      0     26     50     56  89.2  29.3  34016  287.13 0855.42
2009/04/23 08:24:11.2      34      9     -7     36     37  74.9 -11.3  34016  287.13 0855.42
2009/04/23 08:24:11.3      23    -15    -38     28     47 122.5 -63.8  34014  287.11 0855.42
2009/04/23 08:24:11.4      34    -58    -20     68     72 149.3 -16.6  34016  287.15 0855.42
2009/04/23 08:24:11.5      40    -63     -9     75     76 147.5  -7.2  34014  287.10 0855.42
2009/04/23 08:24:11.6      64    -86    -14    108    109 143.5  -7.7  34014  287.11 0855.42
2009/04/23 08:24:11.7      77   -108    -17    133    135 144.4  -7.3  34014  287.11 0855.42
2009/04/23 08:24:11.8      66    -90    -26    112    116 143.9 -13.3  34016  287.13 0855.42
2009/04/23 08:24:11.9      77    -71     -9    106    107 132.7  -5.2  34016  287.15 0855.42
2009/04/23 08:24:12.0      71    -61      4     94     95 130.9   2.8  34014  287.11 0855.42
2009/04/23 08:24:12.1      57    -36     36     68     76 122.4  30.3  34014  287.11 0855.41
2009/04/23 08:24:12.2      38    -24     42     45     61 122.4  47.9  34014  287.11 0855.41
2009/04/23 08:24:12.3      44    -14     16     47     50 108.4  18.9  34016  287.15 0855.41
2009/04/23 08:24:12.4      49    -22     25     54     59 114.4  26.2  34016  287.13 0855.41
2009/04/23 08:24:12.5      45    -40     23     61     65 131.3  22.0  34014  287.11 0855.41
2009/04/23 08:24:12.6      45    -40     23     61     65 131.3  22.0  34014  287.11 0855.41
2009/04/23 08:24:12.7      49    -35     12     61     63 126.0  11.1  34014  287.10 0855.41
2009/04/23 08:24:12.8      40    -28     17     49     52 125.1  19.2  34014  287.10 0855.41
2009/04/23 08:24:12.9      24    -41     13     48     50 149.3  15.3  34010  287.05 0855.41
2009/04/23 08:24:13.0      23    -19     31     31     43 129.5  50.1  34014  287.10 0855.41
2009/04/23 08:24:13.1      15    -13     33     20     38 131.3  64.7  34014  287.10 0855.41
2009/04/23 08:24:13.2      17     -5     38     18     42 108.2  72.9  34014  287.11 0855.41
2009/04/23 08:24:13.3       2      7     32      8     33  18.5  84.9  34016  287.15 0855.41
2009/04/23 08:24:13.4      -3     -8     29      9     30 205.4  80.7  34020  287.21 0855.41
2009/04/23 08:24:13.5      57    -15     50     60     78 105.1  44.8  34014  287.11 0855.41
2009/04/23 08:24:13.6      80     -2     44     81     92  91.7  30.8  34014  287.10 0855.41
2009/04/23 08:24:13.7      64    -40     44     76     87 122.5  32.9  34014  287.10 0855.41
2009/04/23 08:24:13.8      39    -63     47     75     88 148.4  35.5  34014  287.10 0855.41
2009/04/23 08:24:13.9      23    -23     49     33     59 135.0  62.6  34014  287.10 0855.41
2009/04/23 08:24:14.0      36     16     83     40     92  65.6  72.9  34014  287.11 0855.41
2009/04/23 08:24:14.1      32    -20     64     38     74 122.4  64.7  34014  287.10 0855.42
2009/04/23 08:24:14.2      94    -50     64    107    124 118.4  33.5  34014  287.11 0855.42
2009/04/23 08:24:14.3      76   -120     12    143    144 147.5   5.0  34010  287.05 0855.42
2009/04/23 08:24:14.4      49   -128     75    138    157 159.1  30.6  34010  287.05 0855.42
2009/04/23 08:24:14.5      10   -160     90    161    184 176.4  31.6  34012  287.06 0855.42
2009/04/23 08:24:14.6       4   -184     80    185    201 178.6  24.9  34010  287.05 0855.42
2009/04/23 08:24:14.7       4   -187     35    188    192 178.6  10.6  34012  287.06 0855.42
2009/04/23 08:24:14.8      12   -110     40    111    117 173.3  20.9  34010  287.05 0855.42
2009/04/23 08:24:14.9      -8    -99     47    100    110 184.9  27.1  34012  287.08 0855.42
2009/04/23 08:24:15.0     -17   -102     31    104    109 189.8  16.8  34012  287.08 0855.42
2009/04/23 08:24:15.1     -12    -90     31     91     97 188.0  18.9  34014  287.11 0855.42
2009/04/23 08:24:15.2     -27   -100    -12    104    105 195.6  -6.7  34012  287.08 0855.42
2009/04/23 08:24:15.3     -11    -87    -30     88     94 187.6 -19.1  34010  287.05 0855.42
2009/04/23 08:24:15.4     -43    -74     -3     86     87 210.3  -2.6  34010  287.05 0855.42
2009/04/23 08:24:15.5      16    -81     -9     83     84 168.4  -6.2  34012  287.06 0855.42
2009/04/23 08:24:15.6      36    -43     15     57     60 140.4  15.2  34012  287.06 0855.42
2009/04/23 08:24:15.7      76    -26     39     81     89 109.1  27.3  34014  287.10 0855.42
2009/04/23 08:24:15.8      56    -29      7     64     65 117.1   6.9  34012  287.08 0855.42
2009/04/23 08:24:15.9      23    -34      3     42     43 145.7   4.9  34012  287.08 0855.42
2009/04/23 08:24:16.0       0    -49      7     50     51 180.0   8.0  34012  287.06 0855.42
2009/04/23 08:24:16.1      -6    -58     23     59     63 186.2  22.0  34012  287.06 0855.41
2009/04/23 08:24:16.2     -25    -45     17     52     55 209.9  18.9  34012  287.06 0855.41
2009/04/23 08:24:16.3     -28    -27     -3     39     40 226.0  -5.2  34012  287.06 0855.41
2009/04/23 08:24:16.4     -13    -22     -7     26     27 210.7 -15.5  34012  287.06 0855.41
2009/04/23 08:24:16.5       4    -14    -16     15     21 161.5 -54.5  34014  287.11 0855.41
2009/04/23 08:24:16.6       8    -23    -11     25     27 160.0 -29.5  34014  287.11 0855.41
2009/04/23 08:24:16.7       5    -16    -28     17     32 161.3 -69.1  34014  287.11 0855.41
2009/04/23 08:24:16.8       9     -3    -35     10     36 111.7 -87.2  34012  287.08 0855.41
2009/04/23 08:24:16.9      16      0    -29     17     33  90.0 -71.2  34012  287.06 0855.41
2009/04/23 08:24:17.0       0      5    -19      6     19   4.5 -85.1  34014  287.10 0855.41
2009/04/23 08:24:17.1      -1     13    -21     14     25 353.8 -69.0  34012  287.08 0855.41
2009/04/23 08:24:17.2       0      3    -27      4     27 350.3 -90.0  34012  287.06 0855.41
2009/04/23 08:24:17.3      -3      3    -27      5     27 316.6 -90.0  34012  287.08 0855.41
2009/04/23 08:24:17.4     -14     -3    -22     15     26 254.9 -69.0  34012  287.08 0855.41
2009/04/23 08:24:17.5      -1    -18    -16     19     24 184.4 -50.2  34012  287.06 0855.41
2009/04/23 08:24:17.6      19    -30    -15     36     39 147.5 -25.4  34012  287.06 0855.41
2009/04/23 08:24:17.7       6    -33     -9     34     36 168.4 -15.4  34012  287.06 0855.41
2009/04/23 08:24:17.8      21    -21      8     31     33 135.0  15.3  34014  287.10 0855.41
2009/04/23 08:24:17.9      13    -44    -10     47     49 163.1 -12.4  34014  287.11 0855.41
2009/04/23 08:24:18.0       5    -33     -1     34     35 170.2  -2.2  34014  287.10 0855.41
2009/04/23 08:24:18.1      -5    -42     27     43     50 188.0  35.5  34014  287.10 0855.41
2009/04/23 08:24:18.2       5    -75     23     76     80 175.5  16.8  34012  287.08 0855.41
2009/04/23 08:24:18.3       1    -87     23     88     91 179.1  14.7  34012  287.08 0855.41
2009/04/23 08:24:18.4     -26   -114     30    117    121 192.9  14.7  34014  287.10 0855.41
2009/04/23 08:24:18.5       0    -93     87     94    128 180.4  47.9  34012  287.08 0855.41
2009/04/23 08:24:18.6     -45    -95     42    106    114 205.4  22.5  34012  287.06 0855.41
2009/04/23 08:24:18.7     -51    -78     77     94    121 213.4  43.7  34014  287.10 0855.41
2009/04/23 08:24:18.8     -45    -91     57    102    116 206.3  31.4  34014  287.11 0855.41
2009/04/23 08:24:18.9     -14   -112     16    113    115 187.6   8.5  34014  287.11 0855.41
2009/04/23 08:24:19.0       2   -139     22    140    142 179.1   9.0  34014  287.11 0855.41
2009/04/23 08:24:19.1      58   -133    -17    146    147 156.3  -6.7  34016  287.13 0855.41
2009/04/23 08:24:19.2      42   -110     16    118    120 159.1   8.0  34014  287.11 0855.41
2009/04/23 08:24:19.3      47   -137     -8    146    147 160.8  -3.1  34014  287.10 0855.41
2009/04/23 08:24:19.4      34   -145     38    150    155 166.6  14.3  34014  287.10 0855.41
2009/04/23 08:24:19.5      17   -103     51    105    116 170.7  27.3  34016  287.13 0855.41
2009/04/23 08:24:19.6     -22   -103     38    106    112 192.5  20.0  34008  287.01 0855.41
2009/04/23 08:24:19.8     -54   -120     36    132    137 204.5  15.3  34008  287.01 0855.41
2009/04/23 08:24:19.8     -33    -88     57     95    110 200.9  34.4  34012  287.06 0855.41
2009/04/23 08:24:19.9      51    -92     -5    106    107 151.0  -3.1  34010  287.05 0855.41
2009/04/23 08:24:20.0      93    -43     36    103    110 114.8  19.4  34012  287.06 0855.41
2009/04/23 08:24:20.1      45    -81    -10     93     94 151.0  -6.2  34012  287.08 0855.41
2009/04/23 08:24:20.2      31    -78      1     85     86 158.2   0.8  34010  287.05 0855.41
2009/04/23 08:24:20.3       5    -74     14     75     77 175.5  11.0  34012  287.08 0855.41
2009/04/23 08:24:20.5      36    -57     41     68     79 147.5  34.0  34014  287.11 0855.41
2009/04/23 08:24:20.5      50    -69     28     86     91 144.4  17.9  34012  287.08 0855.41
2009/04/23 08:24:20.6      56    -88     60    105    120 147.5  32.4  34014  287.11 0855.41
2009/04/23 08:24:20.7      66    -91     71    113    133 143.9  35.5  34014  287.10 0855.41
2009/04/23 08:24:20.8      57    -75     62     95    113 142.6  35.6  34014  287.10 0855.41
2009/04/23 08:24:20.9      49    -60     64     78    100 140.3  43.7  34010  287.05 0855.41
2009/04/23 08:24:21.0      58    -59     74     84    111 135.5  46.4  34012  287.08 0855.41
2009/04/23 08:24:21.1      69    -22     60     73     94 108.2  43.7  34012  287.06 0855.41
2009/04/23 08:24:21.2      85    -23     63     89    109 105.1  39.1  34012  287.06 0855.41
2009/04/23 08:24:21.3      89     -6     72     90    115  94.4  43.7  34012  287.06 0855.41
2009/04/23 08:24:21.4      98     -4     74     99    123  92.6  40.1  34012  287.08 0855.41
2009/04/23 08:24:21.5      79    -15     55     81     97 101.0  37.0  34014  287.11 0855.41
2009/04/23 08:24:21.6      24    -24     59     34     68 134.9  67.7  34016  287.13 0855.41
2009/04/23 08:24:21.7       0    -33     48     34     58 180.9  61.5  34014  287.10 0855.41
2009/04/23 08:24:21.8       6    -39     82     40     91 170.2  72.4  34014  287.11 0855.41
2009/04/23 08:24:21.9      -6    -30     46     31     55 191.6  64.6  34016  287.15 0855.41
2009/04/23 08:24:22.0       4    -27     26     28     38 170.2  52.0  34016  287.15 0855.41
2009/04/23 08:24:22.1      17    -22     24     29     37 142.2  43.8  34014  287.11 0855.41
2009/04/23 08:24:22.2      -2    -35     24     36     43 184.4  37.6  34012  287.08 0855.41
2009/04/23 08:24:22.3     -13    -54     40     56     68 194.3  39.5  34016  287.15 0855.41
2009/04/23 08:24:22.4     -20    -50     33     54     63 201.8  34.4  34018  287.16 0855.41
2009/04/23 08:24:22.5     -23    -58     28     63     68 201.9  25.1  34018  287.16 0855.41
2009/04/23 08:24:22.6     -13    -45     33     48     58 196.9  36.5  34014  287.11 0855.41
2009/04/23 08:24:22.7      -3    -31     41     32     52 186.2  57.5  34014  287.11 0855.41
2009/04/23 08:24:22.8      -2    -25     44     26     51 184.5  65.7  34016  287.15 0855.41
2009/04/23 08:24:22.9      -1    -18     37     19     41 184.4  70.8  34018  287.18 0855.41
2009/04/23 08:24:23.0       2      0     32      3     32  90.0  90.0  34020  287.20 0855.41
2009/04/23 08:24:23.1       9     27     40     29     49  20.0  60.5  34016  287.15 0855.41
2009/04/23 08:24:23.2      17     -2     47     18     50  97.9  79.2  34024  287.28 0855.41
2009/04/23 08:24:23.3      18     -2     53     19     56  97.9  81.2  34080  288.21 0855.41
2009/04/23 08:24:23.4       9     12     51     16     53  36.1  80.7  34116  288.82 0855.41
2009/04/23 08:24:23.5      33     32     48     47     67  46.0  49.1  34186  290.02 0855.41
2009/04/23 08:24:23.6      64     46     62     80    101  54.0  42.2  34220  290.58 0855.41
2009/04/23 08:24:23.7      29     53     59     61     84  29.0  50.0  34220  290.58 0855.41
2009/04/23 08:24:23.8     -15     35     31     39     49 336.4  43.7  34216  290.53 0855.41
2009/04/23 08:24:23.9     -24     36     35     44     56 325.7  43.7  34222  290.64 0855.41
2009/04/23 08:24:24.0     -13      8     33     16     36 302.4  72.9  34218  290.57 0855.41
2009/04/23 08:24:24.1      -3     -9     26     10     27 201.8  81.2  34210  290.41 0855.41
2009/04/23 08:24:24.2      22      0     28     23     36  90.0  56.4  34192  290.13 0855.41
2009/04/23 08:24:24.3      26    -14     53     30     60 118.9  68.8  34168  289.70 0855.41
2009/04/23 08:24:24.4      40    -27     51     49     70 124.2  51.2  34150  289.40 0855.41
2009/04/23 08:24:24.5      62    -34     32     71     77 118.9  26.2  34118  288.87 0855.41
2009/04/23 08:24:24.6      69    -41     67     81    105 120.7  43.8  34062  287.91 0855.41
2009/04/23 08:24:24.7      78    -34     54     86    101 113.5  35.5  34034  287.43 0855.41
2009/04/23 08:24:24.8     104    -13     53    105    117  97.5  28.7  34028  287.35 0855.41
2009/04/23 08:24:24.9      81    -15     52     83     97 100.6  35.5  34032  287.42 0855.41
2009/04/23 08:24:25.1      72    -10     25     73     78  97.9  19.2  34042  287.59 0855.41
2009/04/23 08:24:25.2      55     -4     10     56     57  94.4  10.1  34048  287.69 0855.41
2009/04/23 08:24:25.3      36     -2     -4     37     38  94.4  -7.2  34058  287.84 0855.41
2009/04/23 08:24:25.4      18     -5     11     19     21 108.2  33.5  34062  287.92 0855.41
2009/04/23 08:24:25.5      40    -10     14     42     45 105.1  19.2  34046  287.65 0855.41
2009/04/23 08:24:25.6      50      0     22     51     55  90.0  25.1  34036  287.47 0855.41
2009/04/23 08:24:25.7      49     -6     28     50     57  97.0  32.4  34030  287.38 0855.41
2009/04/23 08:24:25.8      52    -10     23     54     58 101.5  23.0  34020  287.21 0855.41
2009/04/23 08:24:25.9      70    -20     14     73     75 105.9  11.1  34020  287.21 0855.41
2009/04/23 08:24:26.0      60    -24     20     65     69 112.6  17.3  34018  287.16 0855.41
2009/04/23 08:24:26.1      52     -4     10     53     55  94.4  11.1  34038  287.52 0855.41
2009/04/23 08:24:26.2      70     21     24     74     79  73.2  18.4  34070  288.04 0855.41
2009/04/23 08:24:26.3      78     42     15     89     91  61.6  10.1  34108  288.70 0855.41
2009/04/23 08:24:26.4      87     44      5     98     99  62.9   3.3  34134  289.14 0855.41
2009/04/23 08:24:26.5      75     46     30     88     94  58.5  18.9  34128  289.04 0855.41
2009/04/23 08:24:26.6      76     48     27     90     95  57.6  16.8  34136  289.18 0855.41
2009/04/23 08:24:26.7      64     67     10     93     94  43.7   6.5  34134  289.13 0855.41
2009/04/23 08:24:26.8      53     49     17     73     76  46.9  13.2  34134  289.14 0855.41
2009/04/23 08:24:26.9      72     19     21     75     78  75.0  15.8  34130  289.06 0855.41
2009/04/23 08:24:27.0      88     11     14     89     91  82.5   9.5  34104  288.64 0855.41
2009/04/23 08:24:27.1      62     17     44     65     78  74.1  36.5  34108  288.70 0855.41
2009/04/23 08:24:27.2      43      0     40     44     59  90.0  47.9  34120  288.89 0855.41
2009/04/23 08:24:27.3      33     -2     40     34     52  94.4  55.4  34122  288.92 0855.41
2009/04/23 08:24:27.4      41     -5     34     42     54  97.9  43.7  34112  288.77 0855.41
2009/04/23 08:24:27.5      35     -7     42     36     55 101.5  55.4  34116  288.84 0855.41
2009/04/23 08:24:27.6      86     -9     33     87     93  96.6  21.5  34064  287.94 0855.41
2009/04/23 08:24:27.7      80    -46     39     93    100 120.2  24.1  34032  287.42 0855.41
2009/04/23 08:24:27.8      77    -45     37     90     97 120.2  23.0  34060  287.87 0855.41
2009/04/23 08:24:27.9      85    -31     42     91    100 110.4  26.6  34112  288.75 0855.41
2009/04/23 08:24:28.0      71     -6     72     72    101  95.2  50.1  34148  289.38 0855.41
2009/04/23 08:24:28.1      54     -4     83     55     99  94.3  63.6  34132  289.09 0855.41
2009/04/23 08:24:28.2      52     -3     56     53     77  93.5  51.2  34154  289.46 0855.41
2009/04/23 08:24:28.3      49     12     52     51     72  75.8  49.1  34162  289.60 0855.41
2009/04/23 08:24:28.4       8     20     57     22     61  21.8  78.2  34152  289.43 0855.41
2009/04/23 08:24:28.5      -1      8     51      9     51 350.3  90.0  34136  289.18 0855.41
2009/04/23 08:24:28.6      14    -29     55     33     64 154.6  64.7  34104  288.64 0855.41
2009/04/23 08:24:28.7      52    -11     78     54     94 102.4  62.6  34088  288.36 0855.41
2009/04/23 08:24:28.8      70    -31     78     77    109 114.4  49.7  34082  288.26 0855.41
2009/04/23 08:24:28.9      71     -5     72     72    101  94.4  50.1  34074  288.13 0855.41
2009/04/23 08:24:29.0      73    -14     64     75     98 101.4  44.8  34066  287.98 0855.41
2009/04/23 08:24:29.1      62    -34     64     71     95 118.9  46.9  34058  287.84 0855.41
2009/04/23 08:24:29.2      21    -15     57     27     63 126.0  72.9  34064  287.94 0855.42
2009/04/23 08:24:29.3       8     12     49     15     51  32.6  81.8  34066  287.99 0855.42
2009/04/23 08:24:29.4       2    -33     49     34     59 175.5  61.5  34064  287.94 0855.42
2009/04/23 08:24:29.5       5    -10     53     12     54 151.0  88.0  34060  287.89 0855.42
2009/04/23 08:24:29.6       8     13     42     16     44  32.5  79.2  34060  287.87 0855.42
2009/04/23 08:24:29.7       9     -3     31     10     32 111.7  80.7  34068  288.01 0855.42
2009/04/23 08:24:29.8       0      0     26      0     26   0.0 -90.0  34074  288.11 0855.42
2009/04/23 08:24:29.9     -19    -23     42     30     51 219.6  60.5  34084  288.30 0855.42
2009/04/23 08:24:30.0      -1    -18     31     19     36 184.5  64.7  34090  288.38 0855.42
2009/04/23 08:24:30.1       2     -3     36      4     36 147.5  90.0  34088  288.35 0855.42
2009/04/23 08:24:30.2      19      3     59     20     62  78.5  81.0  34072  288.08 0855.42
2009/04/23 08:24:30.3      40     -6     47     41     62  98.8  53.3  34062  287.92 0855.42
2009/04/23 08:24:30.4      18      6     43     20     47  70.0  74.0  34062  287.92 0855.42
2009/04/23 08:24:30.5      37     12     44     40     59  71.4  52.2  34044  287.62 0855.42
2009/04/23 08:24:30.6      19     19     40     27     48  45.0  63.6  34052  287.74 0855.42
2009/04/23 08:24:30.7      25     25     38     36     52  45.0  50.1  34052  287.76 0855.42
2009/04/23 08:24:30.8      23     13     31     27     41  61.1  54.3  34050  287.72 0855.42
2009/04/23 08:24:30.9      13     16     32     21     38  39.6  64.6  34046  287.65 0855.42
2009/04/23 08:24:31.0      13     23     26     27     37  30.7  52.0  34048  287.69 0855.42
2009/04/23 08:24:31.1       1     16     25     17     30   4.4  62.6  34054  287.77 0855.42
2009/04/23 08:24:31.2     -12     11     21     17     27 313.3  56.4  34098  288.53 0855.42
2009/04/23 08:24:31.3     -12     16     21     21     29 323.9  50.1  34124  288.96 0855.42
2009/04/23 08:24:31.4       7     36     19     37     41  11.6  29.3  34094  288.45 0855.42
2009/04/23 08:24:31.5      27     31      7     42     43  41.4  10.1  34090  288.40 0855.42
2009/04/23 08:24:31.6      10     68      2     69     70   8.9   1.8  34042  287.57 0855.42
2009/04/23 08:24:31.7      29     67     14     74     76  23.6  11.0  34034  287.43 0855.42
2009/04/23 08:24:31.8      45     45      8     65     66  45.0   7.1  34034  287.43 0855.42
2009/04/23 08:24:31.9      37     44     25     58     63  40.5  24.1  34024  287.28 0855.42
2009/04/23 08:24:32.0       3     50     10     51     52   4.5  11.1  34034  287.43 0855.42
2009/04/23 08:24:32.1     -14     37      2     40     41 339.1   2.9  34078  288.20 0855.42
2009/04/23 08:24:32.2     -15     31     -4     35     36 334.5  -7.2  34108  288.69 0855.42
2009/04/23 08:24:32.3     -24     45      3     52     53 331.9   3.8  34130  289.08 0855.42
2009/04/23 08:24:32.4     -15     34      1     38     39 336.4   2.9  34146  289.35 0855.42
2009/04/23 08:24:32.5     -34     42     -7     55     56 321.3  -7.3  34168  289.70 0855.42
2009/04/23 08:24:32.6     -40     45     -8     61     62 318.6  -8.2  34176  289.85 0855.42
2009/04/23 08:24:32.7     -44     27     -2     52     53 301.5  -3.1  34168  289.70 0855.42
2009/04/23 08:24:32.8     -49     15     30     52     60 287.7  32.4  34152  289.43 0855.42
2009/04/23 08:24:32.9     -58     19     12     62     64 288.6  11.0  34158  289.55 0855.42
2009/04/23 08:24:33.0     -63     45     -4     78     79 305.9  -3.1  34164  289.63 0855.42
2009/04/23 08:24:33.1     -58     32     -2     67     68 298.9  -2.2  34162  289.60 0855.42
2009/04/23 08:24:33.2     -50     33     -1     61     62 303.3  -1.3  34160  289.58 0855.42
2009/04/23 08:24:33.3     -35     22    -16     42     44 302.4 -25.4  34148  289.38 0855.42
2009/04/23 08:24:33.4     -24      4    -24     25     34 279.7 -56.4  34144  289.31 0855.42
2009/04/23 08:24:33.5     -16     10    -22     19     29 302.5 -56.6  34140  289.24 0855.42
2009/04/23 08:24:33.6     -22      3    -19     23     29 279.7 -48.1  34140  289.23 0855.42
2009/04/23 08:24:33.7     -34     11      4     36     37 288.2   6.9  34152  289.43 0855.42
2009/04/23 08:24:33.8     -53     -4    -18     54     56 265.6 -23.6  34156  289.50 0855.42
2009/04/23 08:24:33.9     -70    -33    -24     78     82 244.8 -17.6  34158  289.53 0855.42
2009/04/23 08:24:34.0     -63    -41    -15     76     78 236.7 -11.3  34160  289.58 0855.42
2009/04/23 08:24:34.1     -51    -32    -18     61     64 237.5 -16.6  34156  289.52 0855.42
2009/04/23 08:24:34.2     -34    -41      4     54     55 219.6   4.9  34154  289.48 0855.42
2009/04/23 08:24:34.3     -24    -15     11     29     31 237.5  21.0  34158  289.53 0855.42
2009/04/23 08:24:34.4     -14    -14     14     21     25 225.1  35.6  34158  289.55 0855.42
2009/04/23 08:24:34.5      -7     -9     26     12     28 216.1  75.0  34150  289.40 0855.42
2009/04/23 08:24:34.6      10    -19     44     22     49 152.8  72.8  34144  289.30 0855.42
2009/04/23 08:24:34.7      42    -13     70     45     83 107.7  64.1  34156  289.50 0855.42
2009/04/23 08:24:34.8      63      8     83     64    104  82.1  59.0  34158  289.53 0855.42
2009/04/23 08:24:34.9      52     15     81     55     97  74.1  63.2  34166  289.67 0855.42
2009/04/23 08:24:35.0      35     15     86     39     94  66.5  74.5  34158  289.53 0855.42
2009/04/23 08:24:35.1      98     72     53    122    133  53.6  25.1  34146  289.35 0855.42
2009/04/23 08:24:35.2      82     16      3     84     85  79.0   2.3  34152  289.43 0855.42
2009/04/23 08:24:35.3      48      9      1     49     50  78.5   1.8  34150  289.41 0855.42
2009/04/23 08:24:35.4       7      4     37      9     38  57.6  84.9  34154  289.46 0855.42
2009/04/23 08:24:35.5       5     11     61     13     62  25.4  89.0  34144  289.31 0855.42
2009/04/23 08:24:35.6       9     27     46     29     54  18.5  64.7  34146  289.35 0855.42
2009/04/23 08:24:35.7       8     12     54     15     56  32.5  83.9  34146  289.33 0855.42
2009/04/23 08:24:35.8      47      3     73     48     87  85.6  64.1  34144  289.31 0855.42
2009/04/23 08:24:35.9     148     53     62    158    169  70.1  22.3  34126  289.01 0855.42
2009/04/23 08:24:36.0     171     94     40    196    201  61.1  11.6  34126  288.99 0855.42
2009/04/23 08:24:36.1     165     96     54    192    200  59.8  15.8  34134  289.14 0855.42
2009/04/23 08:24:36.2     115     45     98    124    158  68.3  42.4  34152  289.45 0855.42
2009/04/23 08:24:36.3     119    104     74    159    175  48.7  27.0  34164  289.65 0855.42
2009/04/23 08:24:36.4      67     96     88    118    147  34.7  40.7  34152  289.45 0855.42
2009/04/23 08:24:36.5     130     82     46    154    161  57.6  16.8  34162  289.60 0855.42
2009/04/23 08:24:36.6     158    105     27    190    192  56.3   8.2  34112  288.75 0855.42
2009/04/23 08:24:36.7     161    102     49    191    198  57.6  14.5  34120  288.91 0855.42
2009/04/23 08:24:36.8     120     97    -10    155    156  50.9  -3.9  34112  288.75 0855.42
2009/04/23 08:24:36.9     129      5     81    130    153  87.5  35.5  34130  289.08 0855.42
2009/04/23 08:24:37.0     153    -12     86    154    176  94.8  31.4  34138  289.21 0855.42
2009/04/23 08:24:37.1     168    -29     67    171    183  99.9  22.5  34136  289.18 0855.42
2009/04/23 08:24:37.2     155    -45     36    162    167 106.2  12.6  34136  289.18 0855.42
2009/04/23 08:24:37.3     155    -54     30    165    168 109.3  10.3  34124  288.97 0855.42
2009/04/23 08:24:37.4     204    -88     19    223    224 113.5   5.0  34120  288.91 0855.42
2009/04/23 08:24:37.5     209    -62     19    219    220 106.6   5.2  34108  288.69 0855.42
2009/04/23 08:24:37.6     159   -127      0    204    205 128.6   0.2  34114  288.80 0855.42
2009/04/23 08:24:37.7     159   -114     -3    197    198 125.7  -1.1  34118  288.87 0855.42
2009/04/23 08:24:37.8     165    -99    -20    193    195 120.9  -6.0  34114  288.79 0855.42
2009/04/23 08:24:37.9     153    -98     18    182    183 122.6   5.7  34110  288.74 0855.42
2009/04/23 08:24:38.0     154    -97     45    183    189 122.2  13.9  34096  288.50 0855.42
2009/04/23 08:24:38.1     184   -103     56    211    219 119.3  15.0  34070  288.04 0855.42
2009/04/23 08:24:38.2     176    -80     73    194    207 114.6  21.5  34064  287.96 0855.42
2009/04/23 08:24:38.3     142    -77     82    162    181 118.4  28.7  34062  287.92 0855.42
2009/04/23 08:24:38.4      99    -99     56    141    151 135.0  23.0  34064  287.96 0855.42
2009/04/23 08:24:38.5      98   -104     97    144    173 136.8  36.7  34086  288.31 0855.42
2009/04/23 08:24:38.6     115    -63    136    132    189 118.9  50.7  34082  288.25 0855.42
2009/04/23 08:24:38.7      90    -75     86    118    146 130.0  39.7  34084  288.28 0855.42
2009/04/23 08:24:38.8      21    -34     99     41    107 148.4  77.0  34088  288.35 0855.42
2009/04/23 08:24:38.9      19     21     81     29     86  41.4  80.2  34084  288.28 0855.42
2009/04/23 08:24:39.0      -2    -70    101     71    123 181.8  61.5  34090  288.38 0855.42
2009/04/23 08:24:39.1     -37   -112    146    118    187 198.3  56.6  34092  288.42 0855.42
2009/04/23 08:24:39.2    -102    -40     61    110    125 248.3  31.4  34090  288.38 0855.42
2009/04/23 08:24:39.3     -45    -48     57     66     87 223.3  45.8  34088  288.36 0855.42
2009/04/23 08:24:39.4      19      0     78     20     80  90.8  85.9  34094  288.47 0855.42
2009/04/23 08:24:39.5     -13    -13     53     19     56 225.0  81.2  34096  288.48 0855.42
2009/04/23 08:24:39.6       8    -26     33     28     43 161.5  54.3  34092  288.43 0855.42
2009/04/23 08:24:39.7      -2      6     49      7     49 341.7  90.0  34092  288.42 0855.42
2009/04/23 08:24:39.8     -20      8     26     22     34 291.7  54.3  34088  288.36 0855.42
2009/04/23 08:24:39.9       6     10     20     13     23  32.5  64.7  34082  288.25 0855.42
2009/04/23 08:24:40.0      21    -20     34     30     45 133.3  53.3  34074  288.13 0855.42
2009/04/23 08:24:40.1      23    -42     51     49     70 151.0  51.2  34068  288.03 0855.42
2009/04/23 08:24:40.2      45    -48     46     66     80 136.8  38.6  34060  287.87 0855.42
2009/04/23 08:24:40.3       4     22     46     23     51  11.6  72.8  34052  287.74 0855.42
2009/04/23 08:24:40.4      34     53     48     64     80  32.5  40.7  34056  287.82 0855.42
2009/04/23 08:24:40.5     -22     46     31     52     60 334.5  33.5  34058  287.84 0855.42
2009/04/23 08:24:40.6     -41     34      8     54     55 309.6   9.0  34060  287.87 0855.42
2009/04/23 08:24:40.7     -14     13    -56     20     59 313.1 -84.6  34058  287.84 0855.42
2009/04/23 08:24:40.8     -24     29   -113     38    119 320.3 -85.4  34058  287.86 0855.42
2009/04/23 08:24:40.9       9     69   -115     70    134   8.0 -69.5  34064  287.96 0855.42
2009/04/23 08:24:41.0      37      0   -131     38    136  90.0 -87.7  34064  287.96 0855.42
2009/04/23 08:24:41.1      76     97   -103    124    161  38.3 -48.5  34064  287.94 0855.42
2009/04/23 08:24:41.2      86      9    -84     87    120  83.4 -53.4  34062  287.92 0855.42
2009/04/23 08:24:41.3      60     60    -83     86    119  45.0 -53.8  34062  287.91 0855.42
2009/04/23 08:24:41.4     143     97    -58    173    183  55.8 -18.7  34064  287.94 0855.42
2009/04/23 08:24:41.5     245     75    -42    257    261  72.9  -9.3  34068  288.02 0855.42
2009/04/23 08:24:41.6     205     67      9    216    217  71.8   2.5  34066  287.98 0855.42
2009/04/23 08:24:41.7     265     97     88    283    297  69.8  17.4  34084  288.29 0855.42
2009/04/23 08:24:41.8     270     88     99    285    302  71.8  19.2  34092  288.41 0855.42
2009/04/23 08:24:41.9     243    171     78    298    309  54.9  14.7  34096  288.48 0855.42
2009/04/23 08:24:42.0     133    120     94    180    203  48.0  29.8  34094  288.45 0855.42
2009/04/23 08:24:42.2      80    128    109    152    187  32.1  39.5  34092  288.42 0855.42
2009/04/23 08:24:42.2      92    111    139    145    200  39.6  49.0  34092  288.43 0855.42
2009/04/23 08:24:42.3     203    125    141    239    277  58.2  33.4  34082  288.24 0855.42
2009/04/23 08:24:42.4     222    117    118    252    278  62.1  27.1  34084  288.27 0855.42
2009/04/23 08:24:42.5     144    135     83    198    214  46.9  23.8  34092  288.43 0855.42
2009/04/23 08:24:42.6     143     91    107    170    200  57.5  35.2  34084  288.30 0855.42
2009/04/23 08:24:42.7     215      1    185    216    284  89.6  44.8  34062  287.90 0855.42
2009/04/23 08:24:42.8     232      1    124    233    263  89.6  30.3  34070  288.05 0855.42
2009/04/23 08:24:42.9     281     21    153    282    320  85.6  30.9  34134  289.14 0855.42
2009/04/23 08:24:43.0     212     56    174    220    280  75.0  42.4  34214  290.48 0855.42
2009/04/23 08:24:43.1     150     79    204    170    265  62.0  56.3  34182  289.95 0855.42
2009/04/23 08:24:43.2     125    149    201    195    280  39.9  50.7  34132  289.10 0855.43
2009/04/23 08:24:43.3     147    141    168    204    264  46.2  43.7  34112  288.75 0855.43
2009/04/23 08:24:43.4      94    187    130    210    246  26.7  34.8  34106  288.65 0855.43
2009/04/23 08:24:43.5      62    222     94    231    249  15.8  23.1  34084  288.27 0855.43
2009/04/23 08:24:43.6      63    167    115    179    212  20.7  35.6  34082  288.25 0855.43
2009/04/23 08:24:43.7      48    143    110    151    186  18.7  39.7  34082  288.26 0855.43
2009/04/23 08:24:43.8      45    170    138    176    223  14.9  42.0  34058  287.86 0855.43
2009/04/23 08:24:43.9      34    238     84    241    256   8.2  19.2  34060  287.87 0855.43
2009/04/23 08:24:44.0      63    237    109    246    269  14.9  25.7  34086  288.32 0855.43
2009/04/23 08:24:44.1      65    218    130    228    262  16.7  32.4  34114  288.80 0855.43
2009/04/23 08:24:44.2      94    161    115    187    219  30.3  34.8  34110  288.74 0855.43
2009/04/23 08:24:44.3      85    134     97    160    187  32.5  34.2  34076  288.16 0855.43
2009/04/23 08:24:44.4     134     95    109    165    197  54.7  36.7  34062  287.92 0855.43
2009/04/23 08:24:44.5     142    151    111    208    235  43.2  30.3  34072  288.08 0855.43
2009/04/23 08:24:44.6     177    151     90    233    249  49.6  22.0  34078  288.19 0855.43
2009/04/23 08:24:44.7      85    174     -7    194    195  26.1  -2.2  34058  287.86 0855.43
2009/04/23 08:24:44.8      34    140      1    145    146  13.8   0.7  34054  287.77 0855.43
2009/04/23 08:24:44.9      73    171      3    187    188  23.2   1.2  34040  287.54 0855.43
2009/04/23 08:24:45.0     -60    197     86    207    224 343.0  23.4  34086  288.33 0855.43
2009/04/23 08:24:45.1      45    127    -27    135    138  19.6 -11.5  34114  288.80 0855.43
2009/04/23 08:24:45.2      19    161    -38    163    168   6.7 -13.2  34100  288.55 0855.43
2009/04/23 08:24:45.3      21    172    -55    174    183   7.1 -17.6  34120  288.91 0855.43
2009/04/23 08:24:45.4      -2    185    -10    186    187 359.1  -3.1  34076  288.16 0855.43
2009/04/23 08:24:45.5     -11    166     53    167    176 356.0  17.7  34094  288.45 0855.43
2009/04/23 08:24:45.6      87    157    114    180    213  29.2  35.5  34114  288.79 0855.43
2009/04/23 08:24:45.7     104    156     75    188    202  33.8  23.0  34126  289.01 0855.43
2009/04/23 08:24:45.8      91     96     63    133    147  43.3  27.2  34120  288.89 0855.43
2009/04/23 08:24:45.9     108     52     78    121    143  64.2  35.6  34110  288.74 0855.43
2009/04/23 08:24:46.0     181    130    101    223    244  54.3  26.2  34112  288.76 0855.43
2009/04/23 08:24:46.1     221    150     52    268    273  55.8  11.0  34126  289.00 0855.43
2009/04/23 08:24:46.2     188     48     44    195    201  75.6  12.9  34114  288.80 0855.43
2009/04/23 08:24:46.3     290    137      9    321    322  64.7   1.6  34082  288.24 0855.43
2009/04/23 08:24:46.4     240    162    -28    290    292  55.9  -5.6  34074  288.10 0855.43
2009/04/23 08:24:46.5     240    125     32    271    273  62.5   6.9  34098  288.51 0855.43
2009/04/23 08:24:46.6     261    143     46    298    302  61.1   8.8  34076  288.14 0855.43
2009/04/23 08:24:46.7     231    112     26    257    259  64.0   5.9  34070  288.05 0855.43
2009/04/23 08:24:46.9     303    106     19    322    323  70.7   3.5  34046  287.65 0855.43
2009/04/23 08:24:46.9     382     57    -21    387    388  81.4  -3.1  34056  287.81 0855.43
2009/04/23 08:24:47.0     297     94     17    312    313  72.3   3.3  34056  287.82 0855.43
2009/04/23 08:24:47.1     238    117     53    266    272  63.8  11.4  34068  288.02 0855.43
2009/04/23 08:24:47.2     230    166     47    284    288  54.1   9.5  34080  288.21 0855.43
2009/04/23 08:24:47.3     194    155     55    249    256  51.4  12.6  34098  288.53 0855.43
2009/04/23 08:24:47.4     207    219     82    302    314  43.3  15.3  34118  288.85 0855.43
2009/04/23 08:24:47.5     207    234    109    313    332  41.4  19.2  34110  288.71 0855.43
2009/04/23 08:24:47.6     189    217    129    288    315  41.0  25.7  34110  288.73 0855.43
2009/04/23 08:24:47.7     141    210    112    254    277  33.8  25.2  34136  289.15 0855.43
2009/04/23 08:24:47.8     167    208    116    268    292  38.8  24.9  34116  288.81 0855.43
2009/04/23 08:24:47.9     208    208    101    295    312  45.0  18.9  34152  289.42 0855.43
2009/04/23 08:24:48.0     234    167    120    288    312  54.5  23.8  34120  288.90 0855.43
2009/04/23 08:24:48.1     197    166    137    258    292  49.8  30.3  34120  288.90 0855.43
2009/04/23 08:24:48.2     175    219    178    281    332  38.7  35.5  34116  288.81 0855.42
2009/04/23 08:24:48.3     139    227    148    267    305  31.4  31.4  34088  288.36 0855.42
2009/04/23 08:24:48.4      75    257    156    268    310  16.3  33.1  34088  288.36 0855.42
2009/04/23 08:24:48.5      86    250    152    265    305  19.1  32.4  34086  288.31 0855.42
2009/04/23 08:24:48.6     103    252    119    273    297  22.3  25.1  34082  288.26 0855.42
2009/04/23 08:24:48.7      93    229    108    248    270  22.1  25.1  34082  288.24 0855.42
2009/04/23 08:24:48.8     101    219    106    242    264  24.7  25.2  34074  288.12 0855.42
2009/04/23 08:24:48.9     120    250     96    278    295  25.6  19.2  34074  288.10 0855.42
2009/04/23 08:24:49.0      99    256    102    275    293  21.2  21.0  34076  288.14 0855.42
2009/04/23 08:24:49.1     148    179     59    233    241  39.6  14.3  34080  288.22 0855.42
2009/04/23 08:24:49.2      72    220    102    232    253  18.3  25.3  34122  288.92 0855.42
2009/04/23 08:24:49.3      81    215     56    230    237  20.7  13.9  34116  288.83 0855.42
2009/04/23 08:24:49.4     101    185     55    211    219  28.7  14.7  34096  288.48 0855.42
2009/04/23 08:24:49.5     152    113     56    190    199  53.4  16.6  34102  288.60 0855.42
2009/04/23 08:24:49.6     147    137     75    202    215  47.1  21.0  34098  288.52 0855.42
2009/04/23 08:24:49.7     165    136     57    214    222  50.5  15.0  34078  288.20 0855.42
2009/04/23 08:24:49.8     149    136     55    203    211  47.6  15.3  34080  288.23 0855.42
2009/04/23 08:24:49.9     115    143     14    184    185  39.0   4.6  34070  288.04 0855.42
2009/04/23 08:24:50.0      19    135     37    137    143   8.0  15.3  34102  288.60 0855.42
2009/04/23 08:24:50.1       8    106     43    107    115   4.5  23.0  34114  288.80 0855.42
2009/04/23 08:24:50.2      47     69     38     84     92  34.3  26.2  34124  288.97 0855.42
2009/04/23 08:24:50.3      82     69     29    108    112  49.6  15.3  34132  289.11 0855.42
2009/04/23 08:24:50.4     160     66    -21    174    176  67.6  -6.9  34134  289.14 0855.42
2009/04/23 08:24:50.5      74    157     55    174    183  25.2  17.7  34120  288.91 0855.42
2009/04/23 08:24:50.6      78     85     11    116    117  42.8   5.4  34132  289.09 0855.42
2009/04/23 08:24:50.7     108     92     18    142    144  49.6   7.5  34132  289.09 0855.42
2009/04/23 08:24:50.8     210     99     72    233    245  64.6  17.3  34076  288.15 0855.42
2009/04/23 08:24:50.9     225     23    -39    227    231  84.1  -9.8  34086  288.31 0855.42
2009/04/23 08:24:51.0     172     -9   -118    173    209  93.0 -42.0  34086  288.31 0855.42
2009/04/23 08:24:51.1     141    -51    -41    151    156 110.0 -20.0  34078  288.20 0855.42
2009/04/23 08:24:51.2     102    -55    -14    116    117 118.4  -7.3  34068  288.03 0855.42
2009/04/23 08:24:51.3     127    -42    -40    135    141 108.6 -16.6  34060  287.89 0855.42
2009/04/23 08:24:51.4     214    -43    -61    219    227 101.4 -20.0  34052  287.76 0855.42
2009/04/23 08:24:51.5     225    -43    -12    230    231 101.0  -3.2  34052  287.74 0855.42
2009/04/23 08:24:51.6     229    -83    -74    244    254 110.0 -21.7  34044  287.60 0855.42
2009/04/23 08:24:51.7     207    -55    -74    215    227 105.0 -23.6  34040  287.54 0855.42
2009/04/23 08:24:51.8     191    -28    -70    194    206  98.6 -25.3  34040  287.54 0855.42
2009/04/23 08:24:51.9     192      0    -61    193    203  90.0 -17.6  34038  287.52 0855.42
2009/04/23 08:24:52.0     156      8    -82    157    177  87.0 -33.9  34044  287.60 0855.42
2009/04/23 08:24:52.1     133    -10    -37    134    140  94.4 -15.4  34054  287.79 0855.42
2009/04/23 08:24:52.2      90    -64     46    111    120 125.5  23.6  34056  287.82 0855.42
2009/04/23 08:24:52.3     105    -42     76    114    137 111.7  37.0  34054  287.77 0855.42
2009/04/23 08:24:52.4     144    -63     28    158    161 113.6  10.1  34056  287.82 0855.42
2009/04/23 08:24:52.5     136    -55     56    147    157 112.2  21.7  34056  287.82 0855.42
2009/04/23 08:24:52.6     132    -37     48    138    147 105.9  19.4  34054  287.77 0855.42
2009/04/23 08:24:52.7     115    -62     56    131    142 118.4  24.1  34056  287.81 0855.42
2009/04/23 08:24:52.9      82   -100     23    130    133 140.4  10.1  34056  287.82 0855.42
2009/04/23 08:24:53.0     106    -93     23    142    144 131.3   9.5  34050  287.72 0855.42
2009/04/23 08:24:53.1      99    -92     41    136    143 132.7  16.8  34054  287.77 0855.42
2009/04/23 08:24:53.2      97   -100     38    140    146 135.9  15.3  34050  287.70 0855.42
2009/04/23 08:24:53.3      99    -84    -30    131    135 130.4 -12.9  34046  287.65 0855.42
2009/04/23 08:24:53.4      52    -91    -27    105    109 150.1 -14.5  34046  287.65 0855.42
2009/04/23 08:24:53.5      74    -69    -28    102    106 133.1 -15.5  34046  287.65 0855.42
2009/04/23 08:24:53.6      71    -63    -12     96     97 131.8  -7.3  34046  287.65 0855.42
2009/04/23 08:24:53.7      41    -83    -57     93    109 153.3 -39.4  34050  287.70 0855.42
2009/04/23 08:24:53.8      59    -64    -37     88     95 137.2 -28.5  34046  287.64 0855.42
2009/04/23 08:24:53.9      72    -74     -5    104    105 135.5  -3.1  34050  287.72 0855.42
2009/04/23 08:24:54.0      51   -128    -26    139    142 158.1 -10.9  34050  287.72 0855.42
2009/04/23 08:24:54.1      55    -95    -23    111    114 149.7 -11.9  34048  287.67 0855.42
2009/04/23 08:24:54.2       1   -110    -39    111    118 179.1 -19.7  34032  287.42 0855.42
2009/04/23 08:24:54.3      -5   -118    -35    119    125 182.7 -16.6  34024  287.28 0855.42
2009/04/23 08:24:54.4       1   -101    -30    102    107 179.1 -16.6  34028  287.33 0855.42
2009/04/23 08:24:54.5      -2    -86    -67     87    109 181.4 -46.1  34028  287.33 0855.42
2009/04/23 08:24:54.6      17   -102    -89    104    136 170.2 -49.2  34030  287.37 0855.42
2009/04/23 08:24:54.7       9    -70    -84     71    109 172.0 -60.7  34028  287.35 0855.42
2009/04/23 08:24:54.8      20   -109    -84    111    139 169.3 -45.1  34028  287.35 0855.42
2009/04/23 08:24:54.9      42   -128   -107    135    172 161.5 -47.1  34030  287.37 0855.42
2009/04/23 08:24:55.0      81   -152    -98    173    198 151.7 -36.3  34046  287.64 0855.42
2009/04/23 08:24:55.1      70   -111   -101    132    166 147.5 -45.6  34044  287.60 0855.42
2009/04/23 08:24:55.2      79    -95    -64    124    139 140.4 -33.7  34046  287.64 0855.42
2009/04/23 08:24:55.3      69   -128    -76    146    164 151.5 -34.2  34032  287.42 0855.42
2009/04/23 08:24:55.4      55   -153    -54    163    171 160.0 -23.8  34038  287.52 0855.42
2009/04/23 08:24:55.5      57   -170    -59    180    189 161.5 -23.6  34040  287.55 0855.42
2009/04/23 08:24:55.6      21   -149    -41    151    157 171.9 -15.5  34046  287.65 0855.42
2009/04/23 08:24:55.7      27   -142     -5    145    146 168.9  -2.2  34046  287.64 0855.42
2009/04/23 08:24:55.8     -18   -120    -22    122    124 188.5 -10.3  34046  287.65 0855.42
2009/04/23 08:24:55.9     -53   -160    -56    169    178 198.5 -23.6  34050  287.72 0855.42
2009/04/23 08:24:56.0     -72   -173   -114    188    219 202.7 -38.6  34056  287.81 0855.42
2009/04/23 08:24:56.1     -71   -145   -144    162    216 206.3 -50.8  34052  287.74 0855.42
2009/04/23 08:24:56.2     -60    -95    -84    113    140 212.5 -44.5  34058  287.86 0855.42
2009/04/23 08:24:56.3     -69   -106    -88    127    154 213.4 -42.0  34060  287.89 0855.43
2009/04/23 08:24:56.4     -79    -81    -73    114    135 224.5 -40.0  34060  287.87 0855.43
2009/04/23 08:24:56.5     -84   -101    -68    132    148 219.7 -33.7  34060  287.89 0855.43
2009/04/23 08:24:56.6    -118   -167    -53    205    212 215.2 -14.5  34058  287.86 0855.43
2009/04/23 08:24:56.7    -161   -198    -47    256    261 219.0 -10.4  34058  287.83 0855.43
2009/04/23 08:24:56.8    -187   -174    -50    256    261 227.1 -11.1  34060  287.88 0855.43
2009/04/23 08:24:56.9    -176   -159      0    238    239 227.8   0.2  34056  287.80 0855.43
2009/04/23 08:24:57.0    -214   -127     47    250    255 239.3  10.8  34060  287.88 0855.43
2009/04/23 08:24:57.1    -260    -99     17    279    280 249.2   3.6  34060  287.87 0855.43
2009/04/23 08:24:57.2    -283    -64     14    291    292 257.2   2.9  34050  287.71 0855.43
2009/04/23 08:24:57.3    -285    -62    -14    292    293 257.7  -2.8  34048  287.66 0855.43
2009/04/23 08:24:57.4    -256      4    -58    257    264 270.9 -12.9  34038  287.51 0855.43
2009/04/23 08:24:57.5    -223   -111     35    250    253 243.6   8.0  34052  287.75 0855.43
2009/04/23 08:24:57.6    -186   -102     71    213    225 241.2  18.6  34046  287.64 0855.43
2009/04/23 08:24:57.7    -375    -88     -7    386    387 256.7  -1.2  34032  287.42 0855.43
2009/04/23 08:24:57.8    -363   -130   -112    386    402 250.2 -16.2  34032  287.42 0855.43
2009/04/23 08:24:57.9    -240    -65    107    249    271 254.9  24.9  34042  287.58 0855.43
2009/04/23 08:24:58.0    -130   -220    193    256    320 210.7  40.7  34054  287.77 0855.43
2009/04/23 08:24:58.1    -169   -180    176    248    304 223.2  39.1  34054  287.78 0855.43
2009/04/23 08:24:58.2    -231   -226    149    324    356 225.6  26.3  34054  287.79 0855.43
2009/04/23 08:24:58.3    -220   -234    167    322    362 223.3  29.4  34052  287.74 0855.42
2009/04/23 08:24:58.4    -221   -263    139    344    371 220.0  23.1  34052  287.76 0855.42
2009/04/23 08:24:58.5    -219   -252    140    335    363 221.0  23.9  34050  287.71 0855.42
2009/04/23 08:24:58.6    -212   -219    139    306    336 224.1  26.0  34048  287.66 0855.42
2009/04/23 08:24:58.7    -203   -223    144    302    334 222.3  27.3  34050  287.70 0855.42
2009/04/23 08:24:58.8    -223   -234    123    324    346 223.7  21.8  34048  287.66 0855.42
2009/04/23 08:24:58.9    -208   -246     96    323    338 220.2  16.6  34040  287.54 0855.42
2009/04/23 08:24:59.0    -243   -218     94    327    341 228.1  16.1  34042  287.59 0855.42
2009/04/23 08:24:59.1    -263   -190    124    325    347 234.1  21.8  34046  287.64 0855.42
2009/04/23 08:24:59.2    -191   -148    202    242    315 232.2  44.2  34050  287.70 0855.42
2009/04/23 08:24:59.3    -136   -175    193    222    294 217.9  45.6  34050  287.70 0855.42
2009/04/23 08:24:59.4    -159   -167    157    231    279 223.7  37.6  34050  287.70 0855.42
2009/04/23 08:24:59.5    -123   -148    189    193    270 219.9  49.8  34048  287.66 0855.42
2009/04/23 08:24:59.6    -103   -171    187    200    273 211.0  47.9  34048  287.68 0855.42
2009/04/23 08:24:59.7    -102   -219    175    242    298 204.9  39.5  34052  287.73 0855.42
2009/04/23 08:24:59.8     -60   -172    189    183    263 199.4  50.9  34048  287.66 0855.42
2009/04/23 08:24:59.9      -2   -183    186    184    261 180.7  50.1  34042  287.56 0855.42
2009/04/23 08:25:00.0     -35   -159    183    163    245 192.7  54.0  34040  287.54 0855.42
2009/04/23 08:25:00.1     -12   -175    223    176    284 184.0  57.7  34042  287.56 0855.42
2009/04/23 08:25:00.2       2   -167    221    168    277 179.1  59.0  34042  287.56 0855.42
2009/04/23 08:25:00.3     -51   -220    193    226    297 193.1  44.9  34040  287.55 0855.41
2009/04/23 08:25:00.4     -66   -186    218    198    294 199.6  53.2  34040  287.55 0855.41
2009/04/23 08:25:00.5       0   -198    222    199    298 180.0  53.5  34040  287.55 0855.41
2009/04/23 08:25:00.6      -5   -204    156    205    257 181.6  40.9  34040  287.53 0855.41
2009/04/23 08:25:00.7     -17   -187    171    188    254 185.3  47.5  34032  287.39 0855.41
2009/04/23 08:25:00.8      -6   -158    151    159    219 182.2  48.5  34032  287.42 0855.41
2009/04/23 08:25:00.9      -6   -194    154    195    248 182.0  42.4  34030  287.37 0855.41
2009/04/23 08:25:01.0     -55   -224    152    231    276 194.0  36.5  34030  287.36 0855.41
2009/04/23 08:25:01.1     -32   -213    142    216    258 188.7  36.5  34032  287.39 0855.41
2009/04/23 08:25:01.2     -36   -210    114    214    242 189.8  30.3  34030  287.36 0855.41
2009/04/23 08:25:01.3     -33   -161    138    165    215 191.8  43.8  34030  287.37 0855.41
2009/04/23 08:25:01.4     -17   -177    136    178    224 185.6  41.4  34032  287.40 0855.41
2009/04/23 08:25:01.5      -6   -173    129    174    216 182.0  40.1  34028  287.35 0855.41
2009/04/23 08:25:01.6     -21   -155     99    157    185 188.0  35.5  34030  287.38 0855.41
2009/04/23 08:25:01.7      -5   -125    116    126    171 182.6  47.7  34030  287.37 0855.41
2009/04/23 08:25:01.8      -1   -119    119    120    169 180.9  50.2  34030  287.38 0855.41
2009/04/23 08:25:01.9     -13   -161     97    162    188 184.9  34.0  34030  287.38 0855.41
2009/04/23 08:25:02.0       0   -252     89    253    269 179.8  19.4  34026  287.31 0855.41
2009/04/23 08:25:02.1      -3   -245    117    246    272 180.9  27.3  34028  287.34 0855.41
2009/04/23 08:25:02.2      33   -242    127    245    275 172.2  29.5  34028  287.33 0855.41
2009/04/23 08:25:02.3     -62   -221    197    230    302 195.8  44.8  34032  287.39 0855.41
2009/04/23 08:25:02.4     -17   -258    130    259    289 183.8  28.5  34030  287.38 0855.41
2009/04/23 08:25:02.5      -3   -221    116    222    250 181.0  29.8  34030  287.38 0855.41
2009/04/23 08:25:02.6      -7   -220    130    221    256 182.0  33.1  34030  287.36 0855.41
2009/04/23 08:25:02.7       0   -227    106    228    251 179.8  27.0  34030  287.36 0855.41
2009/04/23 08:25:02.8     -18   -237    105    238    260 184.4  25.2  34028  287.33 0855.41
2009/04/23 08:25:02.9     -22   -203    149    205    253 186.2  39.7  34030  287.36 0855.41
2009/04/23 08:25:03.0      -7   -218    128    219    253 182.0  32.9  34030  287.36 0855.41
2009/04/23 08:25:03.1     -58   -218     61    226    235 195.1  15.3  34030  287.37 0855.41
2009/04/23 08:25:03.2     -21   -197     70    199    211 186.3  19.4  34028  287.35 0855.41
2009/04/23 08:25:03.3     -35   -175     80    179    196 191.5  25.3  34026  287.32 0855.41
2009/04/23 08:25:03.4     -19   -180     88    182    202 186.2  27.4  34030  287.37 0855.41
2009/04/23 08:25:03.5     -25   -178     69    180    192 188.2  21.7  34030  287.37 0855.41
2009/04/23 08:25:03.6      -9   -188     78    189    204 182.9  23.4  34030  287.38 0855.41
2009/04/23 08:25:03.7       0   -180     75    181    195 180.0  23.8  34032  287.40 0855.41
2009/04/23 08:25:03.8     -11   -206     87    207    224 183.1  24.1  34032  287.42 0855.41
2009/04/23 08:25:03.9     -34   -189     89    193    212 190.2  26.6  34030  287.37 0855.41
2009/04/23 08:25:04.0     -37   -183     85    187    205 191.5  26.4  34030  287.37 0855.41
2009/04/23 08:25:04.1      37   -193     50    197    204 169.1  14.3  34032  287.40 0855.41
2009/04/23 08:25:04.2      22   -228     23    230    232 174.4   5.9  34028  287.35 0855.41
2009/04/23 08:25:04.3     -29   -217     18    220    221 187.8   4.9  34030  287.38 0855.41
2009/04/23 08:25:04.4       2   -163     70    164    178 179.3  24.3  34032  287.40 0855.41
2009/04/23 08:25:04.5     -24   -255    110    257    279 185.6  24.6  34032  287.39 0855.41
2009/04/23 08:25:04.6     -44   -219     79    224    238 191.6  19.4  34030  287.38 0855.41
2009/04/23 08:25:04.7     -42   -173     63    179    190 193.8  19.4  34030  287.37 0855.41
2009/04/23 08:25:04.8      -7   -164     97    165    191 182.5  33.1  34028  287.35 0855.41
2009/04/23 08:25:04.9     -11   -169    102    170    198 184.0  33.7  34028  287.35 0855.41
2009/04/23 08:25:05.0     -25   -173     99    175    201 188.2  31.9  34028  287.35 0855.41
2009/04/23 08:25:05.1      25   -170    147    172    226 171.5  44.8  34030  287.38 0855.41
2009/04/23 08:25:05.2     -23   -174    112    176    208 187.8  35.5  34030  287.37 0855.41
2009/04/23 08:25:05.3     -51   -192    118    199    231 195.1  33.5  34024  287.28 0855.41
2009/04/23 08:25:05.4      -3   -195    160    196    253 180.9  43.7  34030  287.36 0855.41
2009/04/23 08:25:05.5     -48   -213     98    219    239 192.7  25.7  34030  287.36 0855.41
2009/04/23 08:25:05.6     -29   -202     77    205    218 188.2  21.5  34030  287.37 0855.41
2009/04/23 08:25:05.7     -20   -197    107    199    225 185.8  30.6  34026  287.30 0855.41
2009/04/23 08:25:05.8       0   -141    152    142    208 180.0  52.1  34028  287.35 0855.41
2009/04/23 08:25:05.9       6   -143    101    144    175 177.4  38.4  34028  287.33 0855.41
2009/04/23 08:25:06.0       2   -189     28    190    193 179.1   8.5  34026  287.32 0855.41
2009/04/23 08:25:06.1      17   -217     27    218    220 175.3   7.2  34028  287.33 0855.41
2009/04/23 08:25:06.2      25   -169     49    171    178 171.5  16.0  34026  287.30 0855.41
2009/04/23 08:25:06.3      52   -162     52    171    179 162.0  17.1  34028  287.35 0855.41
2009/04/23 08:25:06.4       8   -104     97    105    142 175.5  47.9  34026  287.30 0855.41
2009/04/23 08:25:06.5     -16   -122     65    124    140 187.6  29.8  34028  287.33 0855.41
2009/04/23 08:25:06.6      -7    -94     84     95    126 184.4  45.9  34022  287.25 0855.41
2009/04/23 08:25:06.7     -33   -187    116    191    223 190.2  34.2  34028  287.33 0855.41
2009/04/23 08:25:06.8     -42   -142    120    149    191 196.5  43.5  34028  287.35 0855.41
2009/04/23 08:25:06.9     -19    -96    124     99    158 191.6  57.5  34030  287.37 0855.41
2009/04/23 08:25:07.0     -21    -94    100     97    139 192.9  50.7  34028  287.33 0855.41
2009/04/23 08:25:07.1       9    -60     92     61    110 171.1  64.1  34028  287.35 0855.41
2009/04/23 08:25:07.2      28     26     70     39     80  46.9  68.8  34028  287.35 0855.41
2009/04/23 08:25:07.3      41     36     82     55     98  48.7  63.2  34028  287.33 0855.40
2009/04/23 08:25:07.4      58     56     70     81    107  46.0  45.4  34026  287.32 0855.40
2009/04/23 08:25:07.5       0     23     52     24     57   0.9  73.1  34028  287.35 0855.40
2009/04/23 08:25:07.6     -64     51     68     83    107 308.6  43.7  34026  287.32 0855.40
2009/04/23 08:25:07.7     -47     77     43     91    100 328.4  27.2  34024  287.27 0855.40
2009/04/23 08:25:07.8     -91     72     65    117    133 308.2  31.4  34024  287.28 0855.40
2009/04/23 08:25:07.9     -41    114     24    122    125 340.0  11.1  34026  287.30 0855.40
2009/04/23 08:25:08.0       1    127     44    128    136   0.9  18.9  34034  287.45 0855.40
2009/04/23 08:25:08.1      -7    131     60    132    145 356.9  26.2  34038  287.50 0855.40
2009/04/23 08:25:08.2     -52    158     64    167    178 341.5  22.0  34022  287.25 0855.40
2009/04/23 08:25:08.3     -66    135     64    151    164 333.7  24.1  34024  287.28 0855.40
2009/04/23 08:25:08.4      42     99     70    108    128  23.2  35.6  34026  287.32 0855.40
2009/04/23 08:25:08.5      43     52     59     68     90  39.7  45.4  34028  287.33 0855.40
2009/04/23 08:25:08.6     -21     54     45     59     74 338.2  41.7  34026  287.32 0855.40
2009/04/23 08:25:08.7      -7     65     29     66     72 353.8  25.1  34036  287.49 0855.40
2009/04/23 08:25:08.8     -20     75     34     78     85 344.9  25.1  34050  287.70 0855.40
2009/04/23 08:25:08.9       0     50     46     51     68   0.0  47.9  34030  287.37 0855.40
2009/04/23 08:25:09.0      22     33     42     40     58  34.3  49.1  34036  287.49 0855.40
2009/04/23 08:25:09.1     -21     89     43     92    101 346.6  27.1  34076  288.14 0855.40
2009/04/23 08:25:09.2     -22    105     60    108    123 348.0  31.4  34056  287.81 0855.40
2009/04/23 08:25:09.3     -40     84     24     94     98 334.5  14.3  34036  287.47 0855.40
2009/04/23 08:25:09.4     -27     99     33    103    109 344.4  17.9  34044  287.60 0855.40
2009/04/23 08:25:09.5     -41     57     15     71     73 323.9  12.2  34036  287.49 0855.40
2009/04/23 08:25:09.6     -63     48    -25     80     84 307.3 -17.6  34040  287.55 0855.40
2009/04/23 08:25:09.7     -68     55    -21     88     91 309.1 -13.9  34040  287.54 0855.40
2009/04/23 08:25:09.8     -92     56     40    108    115 301.5  20.4  34034  287.45 0855.40
2009/04/23 08:25:09.9     -34     -6     70     35     78 258.5  72.8  34030  287.37 0855.40
2009/04/23 08:25:10.0      22   -111     89    114    144 168.5  41.7  34030  287.37 0855.40
2009/04/23 08:25:10.1      -5   -109     83    110    137 182.7  41.2  34024  287.28 0855.40
2009/04/23 08:25:10.2     -41   -139    116    145    185 196.5  43.3  34026  287.30 0855.40
2009/04/23 08:25:10.3     -35   -106    106    112    154 198.7  48.5  34024  287.27 0855.40
2009/04/23 08:25:10.4     -12   -108    115    109    158 186.7  51.4  34024  287.28 0855.40
2009/04/23 08:25:10.5     -26    -56    113     62    128 205.4  68.9  34024  287.27 0855.40
2009/04/23 08:25:10.6      20     -1     74     21     76  94.4  83.9  34028  287.33 0855.40
2009/04/23 08:25:10.7      -3    -62     95     63    113 183.6  64.1  34024  287.28 0855.40
2009/04/23 08:25:10.8     -54    -78    110     96    146 214.7  54.3  34026  287.32 0855.40
2009/04/23 08:25:10.9     -54    -98     99    113    150 209.0  45.8  34028  287.33 0855.40
2009/04/23 08:25:11.0     -42    -95     93    105    140 204.1  45.9  34028  287.33 0855.40
2009/04/23 08:25:11.1     -72   -113     90    135    162 212.6  37.0  34026  287.32 0855.40
2009/04/23 08:25:11.2     -87   -116     79    146    166 217.0  30.8  34026  287.32 0855.40
2009/04/23 08:25:11.3     -88   -100     81    134    156 221.4  34.4  34028  287.35 0855.39
2009/04/23 08:25:11.4     -24    -79     91     83    123 197.4  52.2  34044  287.60 0855.39
2009/04/23 08:25:11.5      -3    -63     76     64     99 182.7  55.8  34050  287.72 0855.39
2009/04/23 08:25:11.6     -25    -75     57     80     98 198.3  39.5  34040  287.54 0855.39
2009/04/23 08:25:11.7     -58    -73     52     94    107 218.7  31.4  34040  287.55 0855.39
2009/04/23 08:25:11.8     -67    -39     32     78     84 239.3  23.0  34052  287.76 0855.39
2009/04/23 08:25:11.9     -53    -13     51     55     75 255.8  47.9  34062  287.92 0855.39
2009/04/23 08:25:12.0     -65    -17     65     68     94 254.9  49.4  34064  287.94 0855.39
2009/04/23 08:25:12.1     -50     -7     64     51     81 261.2  57.5  34066  287.98 0855.39
2009/04/23 08:25:12.2     -13     -5     54     14     55 248.3  84.9  34070  288.04 0855.39
2009/04/23 08:25:12.3      35      0     35     36     50  90.0  51.1  34076  288.16 0855.39
2009/04/23 08:25:12.4      79     57     -7     98     99  54.0  -4.1  34096  288.48 0855.39
2009/04/23 08:25:12.5     133     90     59    161    171  55.8  21.0  34148  289.38 0855.39
2009/04/23 08:25:12.6     164     65     60    177    188  68.3  18.9  34152  289.43 0855.39
2009/04/23 08:25:12.7     229     87     64    246    255  69.1  14.7  34112  288.75 0855.39
2009/04/23 08:25:12.8     210    157     82    263    276  53.2  17.3  34140  289.24 0855.39
2009/04/23 08:25:12.9     210    122     88    243    258  59.8  20.7  34128  289.03 0855.39
2009/04/23 08:25:13.0     267     21    114    268    291  85.4  24.6  34138  289.20 0855.39
2009/04/23 08:25:13.1     225     39    206    229    308  80.1  46.9  34148  289.36 0855.39
2009/04/23 08:25:13.2     302    112    142    323    352  69.5  25.2  34128  289.03 0855.39
2009/04/23 08:25:13.3     272     75    154    283    322  74.5  30.9  34126  289.00 0855.40
2009/04/23 08:25:13.4     290     -4    117    291    313  90.8  23.2  34120  288.88 0855.40
2009/04/23 08:25:13.5     323     59    150    329    361  79.6  26.2  34142  289.26 0855.40
2009/04/23 08:25:13.6     242     61    216    250    330  75.8  45.4  34166  289.66 0855.40
2009/04/23 08:25:13.7     226     44    210    231    312  79.0  47.1  34164  289.64 0855.40
2009/04/23 08:25:13.8      57    -36    193     68    204 122.4  80.2  34152  289.45 0855.40
2009/04/23 08:25:13.9      15     71    178     73    192  12.5  76.8  34116  288.84 0855.40
2009/04/23 08:25:14.0      15     44    123     47    131  18.7  78.6  34106  288.67 0855.40
2009/04/23 08:25:14.1      81     34    121     89    150  66.9  60.5  34100  288.55 0855.40
2009/04/23 08:25:14.2      84     49     56     98    112  59.8  32.4  34112  288.77 0855.40
2009/04/23 08:25:14.3      82     37     45     91    101  65.6  28.2  34118  288.87 0855.40
2009/04/23 08:25:14.4      40     25     -3     48     49  57.6  -4.1  34116  288.84 0855.40
2009/04/23 08:25:14.5      57     31    -54     66     85  61.1 -48.1  34118  288.87 0855.40
2009/04/23 08:25:14.6     137     10    -68    138    153  85.7 -32.2  34112  288.75 0855.40
2009/04/23 08:25:14.7     210   -115    -72    240    250 118.8 -21.8  34110  288.71 0855.40
2009/04/23 08:25:14.8     243   -106    -93    266    281 113.5 -24.3  34082  288.26 0855.40
2009/04/23 08:25:14.9     306    -43     40    310    313  98.0   7.4  34070  288.04 0855.40
2009/04/23 08:25:15.0     282    -75     66    292    300 105.0  12.9  34062  287.90 0855.40
2009/04/23 08:25:15.1     105   -187    -72    215    226 150.6 -23.6  34078  288.20 0855.40
2009/04/23 08:25:15.2      84   -173    -53    193    201 153.9 -15.4  34066  287.99 0855.40
2009/04/23 08:25:15.3     178    -85    -39    198    202 115.5 -11.3  34070  288.06 0855.38
2009/04/23 08:25:15.4     191    -64     47    202    208 108.6  13.1  34066  287.98 0855.38
2009/04/23 08:25:15.5     209    -18     74    210    223  95.2  19.4  34056  287.82 0855.38
2009/04/23 08:25:15.6     156    -42     43    162    168 105.1  15.0  34062  287.91 0855.38
2009/04/23 08:25:15.8     180    -67      9    193    194 110.4   2.9  34064  287.96 0855.38
2009/04/23 08:25:15.8     109    -42     76    117    139 111.3  35.6  34072  288.08 0855.38
2009/04/23 08:25:15.9      63    -30     65     70     95 115.4  47.9  34072  288.09 0855.38
2009/04/23 08:25:16.0      25    -36     65     45     79 144.8  62.1  34066  287.99 0855.38
2009/04/23 08:25:16.1     -53    -34     52     64     82 237.5  43.7  34070  288.06 0855.38
2009/04/23 08:25:16.2     -64    -41     42     77     87 237.5  30.8  34074  288.11 0855.38
2009/04/23 08:25:16.3     -76    -13     16     78     80 260.3  11.6  34074  288.13 0855.38
2009/04/23 08:25:16.4     -80    -68     -6    106    107 229.6  -3.7  34082  288.26 0855.38
2009/04/23 08:25:16.5     -92    -66    -32    114    119 234.0 -16.0  34082  288.25 0855.38
2009/04/23 08:25:16.6    -115    -23    -50    118    128 258.5 -29.0  34084  288.30 0855.38
2009/04/23 08:25:16.7     -63    -40    -65     75     99 237.5 -49.8  34074  288.13 0855.38
2009/04/23 08:25:16.8     -77      5   -102     78    128 274.4 -62.9  34082  288.25 0855.38
2009/04/23 08:25:16.9     -47    -42    -78     64    100 227.8 -60.8  34054  287.77 0855.38
2009/04/23 08:25:17.0     -23    -40    -56     47     73 209.9 -60.7  34048  287.69 0855.38
2009/04/23 08:25:17.1       2     -9    -78     10     78 168.4 -90.0  34046  287.64 0855.38
2009/04/23 08:25:17.2      12    -19    -55     23     59 147.5 -81.4  34050  287.70 0855.38
2009/04/23 08:25:17.3      21    -64    -40     68     78 161.3 -37.9  34050  287.70 0855.37
2009/04/23 08:25:17.4      74    -89    -44    116    124 140.4 -25.4  34052  287.76 0855.37
2009/04/23 08:25:17.5     166    -41    -60    171    182 103.9 -19.4  34052  287.76 0855.37
2009/04/23 08:25:17.6     186     25     62    188    199  82.1  18.4  34058  287.86 0855.37
2009/04/23 08:25:17.7     151    -16     85    152    174  96.2  31.9  34062  287.91 0855.37
2009/04/23 08:25:17.8     131    -33    131    136    188 104.2  49.0  34066  287.99 0855.37
2009/04/23 08:25:17.9     172    -48     77    179    194 105.7  24.9  34062  287.92 0855.37
2009/04/23 08:25:18.0     130    -45    129    138    188 109.1  48.0  34058  287.86 0855.37
2009/04/23 08:25:18.1      64    -34    110     73    132 118.0  63.6  34056  287.82 0855.37
2009/04/23 08:25:18.2     -42    -55    114     70    133 217.8  64.7  34056  287.82 0855.37
2009/04/23 08:25:18.3       5     -5     98      8     98 135.0  90.0  34054  287.77 0855.37
2009/04/23 08:25:18.4      37      0     58     38     69  90.0  64.6  34058  287.86 0855.37
2009/04/23 08:25:18.5      19     50     60     54     80  20.9  53.3  34054  287.79 0855.37
2009/04/23 08:25:18.6      33     32     76     47     89  46.0  65.1  34064  287.94 0855.37
2009/04/23 08:25:18.7      33     26     73     43     84  51.4  66.2  34064  287.94 0855.37
2009/04/23 08:25:18.8      71     58     48     92    103  50.5  30.3  34060  287.89 0855.37
2009/04/23 08:25:18.9      52    125      5    136    137  22.7   2.3  34060  287.89 0855.37
2009/04/23 08:25:19.0     108    129      5    169    170  39.9   1.8  34064  287.96 0855.37
2009/04/23 08:25:19.1     177    196     30    265    267  42.1   6.5  34068  288.02 0855.37
2009/04/23 08:25:19.3     196    137    -17    240    241  54.9  -4.1  34066  287.99 0855.37
2009/04/23 08:25:19.3     236    126      7    268    269  61.8   1.6  34060  287.87 0855.37
2009/04/23 08:25:19.4     232    110     20    257    258  64.6   4.6  34060  287.87 0855.37
2009/04/23 08:25:19.5     149    140     80    205    220  46.9  22.5  34070  288.06 0855.37
2009/04/23 08:25:19.6     199    127    104    237    258  57.5  25.2  34072  288.09 0855.37
2009/04/23 08:25:19.8     174    143    146    226    269  50.5  35.6  34080  288.22 0855.37
2009/04/23 08:25:19.9      79    159    110    178    209  26.5  35.0  34070  288.04 0855.37
2009/04/23 08:25:19.9     128    110     33    169    173  49.3  11.1  34054  287.79 0855.37
2009/04/23 08:25:20.1     115    119     13    166    167  43.9   4.6  34052  287.76 0855.37
2009/04/23 08:25:20.2       0    125     68    126    143 359.6  31.3  34060  287.89 0855.37
2009/04/23 08:25:20.3     -39    170     65    175    186 347.1  21.5  34062  287.92 0855.37
2009/04/23 08:25:20.4      21    170     -5    172    173   7.3  -1.8  34054  287.79 0855.37
2009/04/23 08:25:20.5     134    124     56    183    192  47.3  17.1  34046  287.65 0855.37
2009/04/23 08:25:20.6     113    117     -1    163    164  44.1  -0.5  34052  287.74 0855.37
2009/04/23 08:25:20.7      48    119     58    129    141  21.9  25.7  34056  287.82 0855.37
2009/04/23 08:25:20.8      82    144     85    166    186  29.6  29.1  34054  287.77 0855.37
2009/04/23 08:25:20.9      18    198     70    199    211   5.3  19.4  34078  288.20 0855.37
2009/04/23 08:25:21.0      38    116     26    123    126  18.5  12.2  34094  288.47 0855.37
2009/04/23 08:25:21.1      25    125      6    128    129  11.6   2.9  34100  288.57 0855.37
2009/04/23 08:25:21.2      40    128     48    135    143  17.4  20.0  34108  288.70 0855.37
2009/04/23 08:25:21.3      62    143     41    157    163  23.6  14.7  34078  288.20 0855.37
2009/04/23 08:25:21.4     138    177     69    225    236  38.1  17.1  34082  288.26 0855.37
2009/04/23 08:25:21.5      80    255     -5    268    269  17.4  -1.2  34122  288.93 0855.37
2009/04/23 08:25:21.6     136    187     11    232    233  36.1   2.9  34122  288.92 0855.37
2009/04/23 08:25:21.7      82    184    102    202    226  24.1  28.7  34092  288.42 0855.37
2009/04/23 08:25:21.8     102    192     25    218    220  28.1   6.7  34078  288.18 0855.37
2009/04/23 08:25:21.9     113    136     50    178    186  39.7  15.8  34062  287.91 0855.37
2009/04/23 08:25:22.0     178     68     51    191    198  68.9  15.0  34052  287.76 0855.37
2009/04/23 08:25:22.1     168     51    122    176    214  72.9  37.8  34050  287.72 0855.37
2009/04/23 08:25:22.2     183    -30    111    186    216  99.5  33.5  34054  287.77 0855.37
2009/04/23 08:25:22.3     159    -35    106    163    194 102.6  35.6  34048  287.67 0855.37
2009/04/23 08:25:22.4      96    -32    134    102    168 108.4  59.0  34048  287.69 0855.37
2009/04/23 08:25:22.5      60     34    100     70    122  60.2  61.5  34052  287.74 0855.37
2009/04/23 08:25:22.6      51    -12     70     53     87 104.2  59.0  34052  287.76 0855.37
2009/04/23 08:25:22.7      43     43     62     62     87  45.0  50.1  34052  287.74 0855.37
2009/04/23 08:25:22.8      62     34     91     71    115  61.2  57.9  34052  287.76 0855.37
2009/04/23 08:25:22.9      80     26     64     85    106  71.6  40.7  34062  287.91 0855.37
2009/04/23 08:25:23.0      37     -1     67     38     77  92.6  67.7  34056  287.82 0855.37
2009/04/23 08:25:23.1      40      0     60     41     72  90.0  62.6  34052  287.76 0855.37
2009/04/23 08:25:23.2      76     11     54     77     94  81.2  38.0  34054  287.77 0855.37
2009/04/23 08:25:23.3      59     31     63     67     91  62.0  48.5  34050  287.72 0855.37
2009/04/23 08:25:23.4      96     49     60    108    123  62.9  31.4  34054  287.77 0855.38
2009/04/23 08:25:23.5      66     59      8     89     90  48.2   5.4  34056  287.81 0855.38
2009/04/23 08:25:23.6     103     75     50    128    137  54.0  23.0  34058  287.84 0855.38
2009/04/23 08:25:23.7      87     89     57    125    137  44.5  26.2  34060  287.89 0855.38
2009/04/23 08:25:23.8      59    116     70    131    148  27.2  30.8  34096  288.48 0855.38
2009/04/23 08:25:23.9       9    170     24    171    173   3.1   8.2  34098  288.52 0855.38
2009/04/23 08:25:24.0      12    160     47    161    168   4.5  16.3  34096  288.48 0855.38
2009/04/23 08:25:24.1      71    159     -9    175    176  24.1  -3.1  34094  288.45 0855.38
2009/04/23 08:25:24.2      72    133     41    152    158  28.5  15.3  34096  288.48 0855.38
2009/04/23 08:25:24.3      99    133    -16    167    168  36.7  -5.6  34092  288.42 0855.38
2009/04/23 08:25:24.4     106     63     44    124    131  59.4  20.0  34086  288.31 0855.38
2009/04/23 08:25:24.5      99     32     66    105    124  71.8  35.5  34082  288.26 0855.38
2009/04/23 08:25:24.6     125    134    -35    184    188  43.2 -10.9  34076  288.16 0855.38
2009/04/23 08:25:24.7     130    116    -14    175    176  48.2  -4.9  34078  288.18 0855.38
2009/04/23 08:25:24.8     102    109      0    150    151  43.2   0.2  34080  288.23 0855.38
2009/04/23 08:25:24.9     175     28     53    178    186  80.8  16.6  34066  287.99 0855.38
2009/04/23 08:25:25.0     153     41     16    159    160  74.9   6.1  34082  288.26 0855.38
2009/04/23 08:25:25.1     153     38     -6    158    159  75.8  -2.2  34082  288.25 0855.38
2009/04/23 08:25:25.2     183     43     35    189    193  76.7  10.6  34082  288.26 0855.38
2009/04/23 08:25:25.3     206    135     87    247    261  56.7  20.0  34082  288.24 0855.38
2009/04/23 08:25:25.4     241    104     67    263    272  66.7  14.3  34084  288.29 0855.38
2009/04/23 08:25:25.5     223    135     15    261    262  58.7   3.3  34086  288.32 0855.38
2009/04/23 08:25:25.6     228    145     90    271    286  57.4  18.4  34090  288.39 0855.38
2009/04/23 08:25:25.7     240    152     65    285    293  57.6  12.9  34092  288.41 0855.38
2009/04/23 08:25:25.8     217    146     64    262    270  55.9  13.9  34090  288.37 0855.38
2009/04/23 08:25:25.9     176    165     75    242    254  46.9  17.3  34096  288.49 0855.38
2009/04/23 08:25:26.0     209    157    -51    262    268  53.2 -11.1  34090  288.39 0855.38
2009/04/23 08:25:26.1     232    140    -90    272    287  58.9 -18.3  34076  288.15 0855.38
2009/04/23 08:25:26.2     248    117    -35    275    278  64.8  -7.3  34066  287.97 0855.38
2009/04/23 08:25:26.3     232     81     16    246    247  70.7   3.8  34084  288.29 0855.38
2009/04/23 08:25:26.4     133    111     18    174    176  50.4   6.1  34080  288.23 0855.38
2009/04/23 08:25:26.5     159     87     64    182    193  61.4  19.4  34082  288.25 0855.38
2009/04/23 08:25:26.6     155     95     35    182    186  58.5  11.0  34082  288.25 0855.38
2009/04/23 08:25:26.7     115    122      2    168    169  43.2   0.8  34088  288.35 0855.38
2009/04/23 08:25:26.8      59    142     14    154    155  22.7   5.4  34082  288.26 0855.38
2009/04/23 08:25:26.9      82    126     36    151    156  33.0  13.7  34086  288.31 0855.38
2009/04/23 08:25:27.0      82    106     16    135    137  37.8   7.1  34096  288.48 0855.38
2009/04/23 08:25:27.1      47    143     25    151    154  18.3   9.5  34098  288.52 0855.38
2009/04/23 08:25:27.2      74    122     49    143    152  31.2  18.9  34098  288.53 0855.38
2009/04/23 08:25:27.3     164    132     33    211    214  51.1   9.0  34064  287.94 0855.38
2009/04/23 08:25:27.4     214    136      9    254    255  57.6   2.1  34076  288.15 0855.39
2009/04/23 08:25:27.5     136    111    100    176    202  50.9  32.4  34086  288.33 0855.39
2009/04/23 08:25:27.6      87    104    107    136    173  40.1  42.2  34088  288.35 0855.39
2009/04/23 08:25:27.7     157     91     68    182    194  59.8  21.3  34082  288.26 0855.39
2009/04/23 08:25:27.8     145     47     66    153    166  71.8  24.9  34072  288.09 0855.39
2009/04/23 08:25:27.9      48    -40     97     63    115 129.6  64.6  34074  288.13 0855.39
2009/04/23 08:25:28.0      50     13    103     52    115  74.9  71.9  34076  288.16 0855.39
2009/04/23 08:25:28.1      54     11    110     56    123  78.5  70.8  34074  288.11 0855.39
2009/04/23 08:25:28.2     115    -20     71    117    136 100.1  34.4  34068  288.03 0855.39
2009/04/23 08:25:28.3     113    -23     76    116    138 101.9  36.0  34070  288.04 0855.39
2009/04/23 08:25:28.4     124    -79     29    148    151 122.4  11.1  34066  287.98 0855.40
2009/04/23 08:25:28.5     185    -74      2    200    201 111.8   0.7  34064  287.96 0855.40
2009/04/23 08:25:28.6     168     -8     47    169    176  93.0  15.6  34066  287.99 0855.40
2009/04/23 08:25:28.7     175    -13     62    176    186  94.4  20.2  34064  287.96 0855.40
2009/04/23 08:25:28.8     142      2     80    143    163  89.2  31.9  34064  287.96 0855.40
2009/04/23 08:25:28.9     187    -35     49    191    198 100.6  14.5  34066  287.98 0855.40
2009/04/23 08:25:29.0     178     39     -7    183    184  77.4  -2.2  34060  287.89 0855.40
2009/04/23 08:25:29.1     193     59     92    202    221  72.9  26.2  34056  287.82 0855.40
2009/04/23 08:25:29.2     107     78     -2    133    134  54.0  -1.2  34052  287.74 0855.40
2009/04/23 08:25:29.3     175    -39     51    180    188 102.6  16.0  34050  287.72 0855.40
2009/04/23 08:25:29.4     164     -4     39    165    170  91.5  13.5  34044  287.60 0855.40
2009/04/23 08:25:29.5     262    -10     77    263    275  92.4  16.4  34046  287.63 0855.40
2009/04/23 08:25:29.6     295    -79     68    306    314 105.1  12.6  34054  287.78 0855.40
2009/04/23 08:25:29.7     234    -66     66    244    253 105.9  15.3  34058  287.83 0855.40
2009/04/23 08:25:29.8     186    -16    115    187    219  95.2  34.8  34048  287.69 0855.40
2009/04/23 08:25:29.9     223    -55     99    230    250 103.9  24.9  34048  287.68 0855.40
2009/04/23 08:25:30.0     232    -91     67    250    259 111.5  15.0  34056  287.80 0855.40
2009/04/23 08:25:30.1     187   -109     85    217    233 120.2  22.5  34054  287.79 0855.40
2009/04/23 08:25:30.2     231   -113     17    258    259 116.0   3.8  34052  287.73 0855.40
2009/04/23 08:25:30.3     246    -94     82    264    277 111.1  17.4  34054  287.77 0855.40
2009/04/23 08:25:30.4     240    -84     72    255    266 109.3  15.8  34054  287.78 0855.40
2009/04/23 08:25:30.5     203    -31    108    206    232  98.8  30.1  34044  287.60 0855.40
2009/04/23 08:25:30.6     126    -50     58    136    147 111.7  24.6  34034  287.43 0855.40
2009/04/23 08:25:30.7      65   -138     75    153    170 154.7  28.0  34056  287.82 0855.40
2009/04/23 08:25:30.8      57   -166     42    176    181 161.1  13.5  34054  287.79 0855.40
2009/04/23 08:25:30.9     139    -76    109    159    192 118.9  37.6  34054  287.77 0855.40
2009/04/23 08:25:31.0     120    -40    123    127    176 108.6  49.0  34052  287.74 0855.40
2009/04/23 08:25:31.1     122    -87    150    150    212 125.5  50.1  34052  287.74 0855.40
2009/04/23 08:25:31.2      67   -137    100    153    182 153.7  36.0  34050  287.70 0855.40
2009/04/23 08:25:31.3       7   -142    103    143    176 176.9  39.7  34050  287.72 0855.40
2009/04/23 08:25:31.4      23   -134     96    137    167 170.2  38.6  34048  287.69 0855.40
2009/04/23 08:25:31.5      35   -138     91    143    169 165.7  35.5  34046  287.65 0855.40
2009/04/23 08:25:31.6      18    -55    112     59    126 161.3  70.4  34048  287.67 0855.40
2009/04/23 08:25:31.7      75    -80     79    111    136 136.8  39.1  34050  287.70 0855.40
2009/04/23 08:25:31.8      74    -86     85    114    142 139.5  40.1  34050  287.70 0855.40
2009/04/23 08:25:31.9      63    -92     61    112    127 145.3  31.3  34046  287.64 0855.40
2009/04/23 08:25:32.0      89    -59     81    107    134 123.7  41.2  34044  287.62 0855.40
2009/04/23 08:25:32.1     110    -43    104    119    158 111.7  45.8  34048  287.69 0855.40
2009/04/23 08:25:32.2     155     -7    136    156    206  92.6  45.8  34038  287.50 0855.40
2009/04/23 08:25:32.3     148     25    133    151    201  80.3  45.9  34036  287.49 0855.40
2009/04/23 08:25:32.4     154     71    166    170    237  65.2  49.4  34038  287.50 0855.42
2009/04/23 08:25:32.5      64     64    155     91    179  45.1  67.0  34034  287.45 0855.42
2009/04/23 08:25:32.6     -34     -3     87     35     93 263.9  77.6  34040  287.55 0855.42
2009/04/23 08:25:32.7     -45    -56    136     72    153 218.7  69.8  34042  287.59 0855.42
2009/04/23 08:25:32.8     -45    -78    141     91    167 209.9  64.4  34044  287.60 0855.42
2009/04/23 08:25:32.9    -102   -123     64    161    173 219.6  22.5  34040  287.55 0855.42
2009/04/23 08:25:33.0     -51    -47     72     70    100 226.9  50.7  34040  287.54 0855.42
2009/04/23 08:25:33.1     -77    -20     43     80     90 255.0  30.3  34042  287.57 0855.42
2009/04/23 08:25:33.2    -128    -50     86    138    162 248.7  35.2  34042  287.59 0855.42
2009/04/23 08:25:33.3      -9    -91    117     92    148 185.8  57.9  34040  287.55 0855.42
2009/04/23 08:25:33.4     -32   -124    167    129    211 194.7  58.4  34036  287.49 0855.42
2009/04/23 08:25:33.5     -94   -204    191    225    295 204.7  44.8  34034  287.43 0855.42
2009/04/23 08:25:33.6    -178   -254    142    311    341 215.1  26.3  34030  287.37 0855.42
2009/04/23 08:25:33.7    -193   -206     90    283    298 223.2  17.7  34024  287.28 0855.42
2009/04/23 08:25:33.8    -231   -246     79    338    348 223.2  13.2  34022  287.25 0855.42
2009/04/23 08:25:33.9    -180   -282     79    335    345 212.6  13.3  34020  287.20 0855.42
2009/04/23 08:25:34.0    -190   -286    176    344    386 213.6  29.2  34022  287.25 0855.42
2009/04/23 08:25:34.1    -243   -200     96    315    330 230.5  17.1  34024  287.28 0855.42
2009/04/23 08:25:34.2    -318   -228     94    392    404 234.3  13.6  34024  287.27 0855.42
2009/04/23 08:25:34.3    -264   -287    142    391    415 222.6  20.8  34022  287.24 0855.42
2009/04/23 08:25:34.4    -293   -215     99    364    378 233.6  15.2  34022  287.22 0855.41
2009/04/23 08:25:34.5    -333   -134    111    360    377 248.0  17.2  34026  287.32 0855.41
2009/04/23 08:25:34.6    -364   -193    115    413    429 242.0  15.6  34020  287.21 0855.41
2009/04/23 08:25:34.7    -320   -172    126    364    386 241.7  19.2  34026  287.29 0855.41
2009/04/23 08:25:34.8    -414    -41     23    417    418 264.3   3.2  34022  287.23 0855.41
2009/04/23 08:25:34.9    -341   -170    108    381    397 243.5  15.8  34024  287.27 0855.41
2009/04/23 08:25:35.0    -309   -150     58    344    349 244.0   9.7  34026  287.30 0855.41
2009/04/23 08:25:35.1    -207   -215    159    299    338 223.9  30.3  34026  287.31 0855.41
2009/04/23 08:25:35.2    -135   -271    121    303    326 206.5  23.0  34028  287.33 0855.41
2009/04/23 08:25:35.3    -210   -104    173    235    291 243.6  39.9  34022  287.22 0855.41
2009/04/23 08:25:35.4    -172   -191    212    258    333 222.1  43.7  34022  287.24 0855.41
2009/04/23 08:25:35.5    -236   -236    164    335    372 225.0  27.9  34024  287.27 0855.41
2009/04/23 08:25:35.6    -295   -250    144    388    413 229.7  21.4  34020  287.21 0855.41
2009/04/23 08:25:35.7    -298   -189     44    353    356 237.6   7.2  34018  287.18 0855.41
2009/04/23 08:25:35.8    -307    -83     -7    319    320 254.9  -1.4  34018  287.16 0855.41
2009/04/23 08:25:35.9    -313    -23    -52    314    319 265.7  -9.5  34020  287.19 0855.41
2009/04/23 08:25:36.0    -240   -187     92    305    319 232.2  16.8  34024  287.28 0855.41
2009/04/23 08:25:36.1    -299   -213     71    368    375 234.5  11.0  34022  287.22 0855.41
2009/04/23 08:25:36.2    -233   -105     30    256    258 245.6   6.9  34024  287.26 0855.41
2009/04/23 08:25:36.3    -274   -104    -11    294    295 249.2  -2.2  34026  287.31 0855.41
2009/04/23 08:25:36.4    -271     11    -75    272    283 272.5 -15.5  34016  287.12 0855.41
2009/04/23 08:25:36.5    -332    -71   -103    340    356 257.9 -17.0  34022  287.23 0855.41
2009/04/23 08:25:36.6    -319   -162    -87    359    370 243.0 -13.7  34022  287.23 0855.41
2009/04/23 08:25:36.7    -266   -212     38    341    344 231.5   6.4  34022  287.22 0855.41
2009/04/23 08:25:36.8    -428     -3   -124    429    446 269.5 -20.9  34016  287.14 0855.41
2009/04/23 08:25:36.9    -418    -49    -88    421    431 263.2 -11.9  34014  287.09 0855.41
2009/04/23 08:25:37.0    -345      0   -107    346    363 270.1 -17.2  34012  287.08 0855.41
2009/04/23 08:25:37.1    -197   -185    -96    271    287 226.8 -24.6  34022  287.22 0855.41
2009/04/23 08:25:37.2    -197   -173     -7    263    264 228.7  -1.6  34022  287.24 0855.41
2009/04/23 08:25:37.3    -220   -159    -19    272    273 234.1  -4.1  34020  287.21 0855.41
2009/04/23 08:25:37.4    -340    -16   -136    341    367 267.2 -27.4  34022  287.22 0855.41
2009/04/23 08:25:37.5    -279   -165     22    325    326 239.4   4.0  34020  287.21 0855.41
2009/04/23 08:25:37.6    -345   -106    -14    362    363 252.8  -2.2  34016  287.12 0855.41
2009/04/23 08:25:37.7    -300     22   -107    301    320 274.4 -19.7  34024  287.26 0855.41
2009/04/23 08:25:37.8    -274    -16    -70    275    284 266.6 -14.4  34018  287.17 0855.41
2009/04/23 08:25:37.9    -287    -34    -62    290    297 263.2 -12.2  34016  287.14 0855.41
2009/04/23 08:25:38.0    -239    -22    -46    241    246 264.7 -10.9  34018  287.16 0855.41
2009/04/23 08:25:38.1    -157   -113    -24    194    196 234.0  -7.3  34022  287.25 0855.41
2009/04/23 08:25:38.2    -235    -57     35    242    245 256.3   8.2  34020  287.21 0855.41
2009/04/23 08:25:38.3    -331   -182     99    378    391 241.1  14.7  34018  287.17 0855.41
2009/04/23 08:25:38.4    -330   -104   -109    347    364 252.4 -17.5  34030  287.37 0855.41
2009/04/23 08:25:38.5    -335    -87   -131    347    370 255.4 -26.0  34030  287.37 0855.41
2009/04/23 08:25:38.6    -260   -122    -15    288    289 244.8  -3.1  34020  287.21 0855.41
2009/04/23 08:25:38.7    -355    -56   -102    360    375 261.0 -15.9  34026  287.32 0855.41
2009/04/23 08:25:38.8    -346   -119    -98    367    380 250.9 -15.0  34020  287.20 0855.41
2009/04/23 08:25:38.9    -330    -43   -103    333    349 262.5 -17.3  34022  287.25 0855.41
2009/04/23 08:25:39.0    -366    -16   -109    367    383 267.5 -16.6  34032  287.39 0855.41
2009/04/23 08:25:39.1    -365    -47   -110    369    386 262.5 -16.6  34032  287.39 0855.41
2009/04/23 08:25:39.2    -358     27   -116    359    378 274.4 -17.9  34032  287.39 0855.41
2009/04/23 08:25:39.3    -380     44   -109    383    398 276.7 -20.7  34028  287.34 0855.41
2009/04/23 08:25:39.4    -364      5   -110    365    381 270.8 -21.7  34028  287.34 0855.41
2009/04/23 08:25:39.5    -298    -32   -104    300    317 263.8 -24.3  34028  287.33 0855.41
2009/04/23 08:25:39.6    -322    -15   -111    323    341 267.2 -23.8  34026  287.30 0855.41
2009/04/23 08:25:39.7    -316    -44   -120    320    341 262.0 -25.9  34022  287.23 0855.41
2009/04/23 08:25:39.8    -277    -61    -80    284    295 257.4 -20.4  34018  287.16 0855.41
2009/04/23 08:25:39.9    -249    -40    -74    253    263 260.8 -21.2  34018  287.17 0855.41
2009/04/23 08:25:40.0    -220     23    -60    222    231 276.1 -15.2  34018  287.18 0855.41
2009/04/23 08:25:40.1    -266    -24    -95    268    284 264.7 -24.6  34018  287.17 0855.41
2009/04/23 08:25:40.2    -289     40   -113    292    313 278.0 -26.6  34022  287.24 0855.41
2009/04/23 08:25:40.3    -255     19    -86    256    271 274.3 -18.6  34020  287.19 0855.41
2009/04/23 08:25:40.4    -331     -7   -123    332    354 268.7 -25.7  34028  287.34 0855.40
2009/04/23 08:25:40.5    -310     17   -146    311    343 273.3 -31.5  34026  287.32 0855.40
2009/04/23 08:25:40.6    -329    -60   -113    335    354 259.7 -18.7  34022  287.22 0855.40
2009/04/23 08:25:40.7    -306     -4   -124    307    331 269.1 -27.5  34026  287.29 0855.40
2009/04/23 08:25:40.8    -290     12   -124    291    316 272.4 -28.9  34030  287.36 0855.40
2009/04/23 08:25:40.9    -240      3   -135    241    276 270.9 -36.0  34032  287.39 0855.40
2009/04/23 08:25:41.0    -198     -8    -60    199    208 267.5 -16.8  34022  287.25 0855.40
2009/04/23 08:25:41.1    -231    -16    -81    232    245 265.9 -24.3  34018  287.17 0855.40
2009/04/23 08:25:41.2    -299      0    -97    300    315 270.0 -22.9  34026  287.31 0855.40
2009/04/23 08:25:41.3    -320     34   -100    322    337 276.2 -22.4  34028  287.35 0855.40
2009/04/23 08:25:41.4    -281    -29    -74    283    293 263.9 -14.7  34024  287.26 0855.40
2009/04/23 08:25:41.5    -289    -17   -109    290    309 266.5 -25.7  34028  287.34 0855.40
2009/04/23 08:25:41.6    -209     78    -63    224    233 290.6 -15.8  34022  287.25 0855.40
2009/04/23 08:25:41.7    -196    125    -83    233    247 302.5 -24.8  34032  287.41 0855.40
2009/04/23 08:25:41.8    -188    -31   -109    191    219 260.5 -36.5  34024  287.27 0855.40
2009/04/23 08:25:41.9    -216    -53   -107    223    247 256.1 -31.7  34024  287.26 0855.40
2009/04/23 08:25:42.0    -193     26    -97    195    217 277.9 -32.9  34032  287.42 0855.40
2009/04/23 08:25:42.1    -175     82   -130    194    233 295.3 -41.1  34028  287.33 0855.40
2009/04/23 08:25:42.2    -170     27    -88    173    194 279.2 -33.5  34026  287.32 0855.40
2009/04/23 08:25:42.3    -145   -112    -84    184    202 232.2 -30.6  34026  287.32 0855.40
2009/04/23 08:25:42.4    -153    -89    -50    178    184 239.8 -20.7  34022  287.23 0855.41
2009/04/23 08:25:42.5    -180      0    -16    181    182 270.0  -5.2  34020  287.21 0855.41
2009/04/23 08:25:42.6    -155     17     -1    157    158 276.6  -0.5  34024  287.27 0855.41
2009/04/23 08:25:42.7    -159    -12    -51    160    167 265.6 -22.8  34018  287.16 0855.41
2009/04/23 08:25:42.8    -167    -37    -70    172    185 257.4 -27.5  34026  287.32 0855.41
2009/04/23 08:25:42.9    -183     18    -82    184    201 275.7 -29.7  34024  287.28 0855.41
2009/04/23 08:25:43.0    -155     39   -103    160    190 284.2 -40.0  34022  287.25 0855.41
2009/04/23 08:25:43.1    -144     48    -83    153    174 288.6 -35.4  34020  287.20 0855.41
2009/04/23 08:25:43.2    -170     58    -96    180    204 289.1 -35.0  34018  287.16 0855.41
2009/04/23 08:25:43.3    -125     45   -106    133    170 290.0 -47.1  34018  287.18 0855.41
2009/04/23 08:25:43.4    -208     42    -64    213    223 281.4 -16.8  34020  287.20 0855.41
2009/04/23 08:25:43.5    -198     27    -76    201    214 278.0 -25.7  34016  287.15 0855.41
2009/04/23 08:25:43.6    -213     16    -82    214    229 274.4 -26.4  34018  287.16 0855.41
2009/04/23 08:25:43.7    -199     35    -67    203    214 280.1 -18.3  34022  287.25 0855.41
2009/04/23 08:25:43.8    -174     23    -66    176    187 277.7 -25.9  34024  287.28 0855.41
2009/04/23 08:25:43.9    -134     17    -54    136    146 277.5 -27.4  34026  287.30 0855.41
2009/04/23 08:25:44.0    -160     21    -15    162    163 277.5  -5.6  34024  287.27 0855.41
2009/04/23 08:25:44.1    -137    -26     42    140    147 259.0  16.8  34022  287.23 0855.41
2009/04/23 08:25:44.2     -86    -20     65     89    110 256.7  39.7  34022  287.23 0855.41
2009/04/23 08:25:44.3    -103    -41     44    112    120 248.2  23.0  34024  287.27 0855.41
2009/04/23 08:25:44.4     -86     17     22     88     91 281.5  14.3  34026  287.32 0855.39
2009/04/23 08:25:44.5     -50     24     49     56     74 296.2  45.8  34022  287.25 0855.39
2009/04/23 08:25:44.6     -40     64     82     76    111 327.5  52.2  34024  287.27 0855.39
2009/04/23 08:25:44.7     -64     40     71     76    104 302.4  48.0  34030  287.37 0855.39
2009/04/23 08:25:44.8     -31     41     77     52     92 322.2  63.2  34026  287.32 0855.39
2009/04/23 08:25:44.9     -75     62     47     98    108 309.5  27.2  34030  287.37 0855.39
2009/04/23 08:25:45.0     -61     39     29     73     78 302.4  22.5  34032  287.40 0855.39
2009/04/23 08:25:45.1     -50      4     35     51     61 275.2  38.6  34028  287.33 0855.39
2009/04/23 08:25:45.2     -27     25     39     38     54 313.1  49.1  34028  287.35 0855.39
2009/04/23 08:25:45.3     -25    -23     26     35     43 226.9  40.7  34030  287.37 0855.39
2009/04/23 08:25:45.4     -11    -73      3     74     75 188.9   2.9  34026  287.30 0855.39
2009/04/23 08:25:45.6      39   -147    -19    153    155 164.9  -7.2  34024  287.27 0855.39
2009/04/23 08:25:45.7     102   -150     36    182    186 145.9  11.4  34020  287.21 0855.39
2009/04/23 08:25:45.7     108   -148     83    184    201 143.7  25.7  34026  287.30 0855.39
2009/04/23 08:25:45.9     104   -149     84    183    201 145.0  26.2  34028  287.33 0855.39
2009/04/23 08:25:46.0      99   -133     95    167    192 143.3  32.4  34028  287.33 0855.39
2009/04/23 08:25:46.0      88   -128     12    156    157 145.3   4.6  34030  287.37 0855.39
2009/04/23 08:25:46.2      79   -168     -5    186    187 154.7  -1.8  34030  287.37 0855.39
2009/04/23 08:25:46.3     102   -210     78    234    247 154.1  18.6  34028  287.34 0855.39
2009/04/23 08:25:46.4     119   -176     97    213    234 145.9  26.4  34028  287.35 0855.39
2009/04/23 08:25:46.5      17   -174     98    175    200 174.2  31.6  34026  287.30 0855.40
2009/04/23 08:25:46.6      47   -176    109    183    213 164.9  33.7  34024  287.27 0855.40
2009/04/23 08:25:46.7      45   -172     74    178    192 165.1  23.6  34026  287.32 0855.40
2009/04/23 08:25:46.8      12   -173     73    174    188 176.0  23.8  34024  287.28 0855.40
2009/04/23 08:25:46.9      59   -160    104    171    200 159.7  34.0  34024  287.28 0855.40
2009/04/23 08:25:47.0      64   -188     31    199    202 161.1   9.0  34028  287.33 0855.40
2009/04/23 08:25:47.1     152   -121     80    195    210 128.6  23.4  34028  287.35 0855.40
2009/04/23 08:25:47.2     142   -161     75    216    229 138.6  19.2  34030  287.37 0855.40
2009/04/23 08:25:47.3      90   -170     56    193    202 152.1  16.3  34032  287.40 0855.40
2009/04/23 08:25:47.4      77   -192    102    208    231 158.1  27.8  34028  287.35 0855.40
2009/04/23 08:25:47.5     226   -154    120    274    299 124.4  25.2  34026  287.29 0855.40
2009/04/23 08:25:47.6     193    -73    101    207    230 110.8  27.4  34030  287.37 0855.40
2009/04/23 08:25:47.7     153    -18     65    155    168  97.0  24.1  34032  287.40 0855.40
2009/04/23 08:25:47.8      48    -98     34    110    116 154.1  17.3  34032  287.40 0855.40
2009/04/23 08:25:47.9      46   -103     44    113    121 155.9  22.5  34030  287.37 0855.40
2009/04/23 08:25:48.0      32    -78     42     85     94 157.7  27.8  34028  287.33 0855.40
2009/04/23 08:25:48.1      17    -54     32     57     65 161.7  31.4  34030  287.38 0855.40
2009/04/23 08:25:48.2     -12    -62     12     64     66 191.5  11.1  34028  287.35 0855.40
2009/04/23 08:25:48.3     -36    -46    -21     59     63 218.7 -19.7  34030  287.37 0855.40
2009/04/23 08:25:48.4     -20    -32    -34     38     50 212.5 -51.3  34028  287.35 0855.40
2009/04/23 08:25:48.5      -1    -18    -42     19     46 184.4 -79.4  34028  287.33 0855.41
2009/04/23 08:25:48.6      -9     -3    -44     10     45 248.3 -90.0  34026  287.30 0855.41
2009/04/23 08:25:48.7      26    -16    -45     31     54 122.4 -67.0  34028  287.33 0855.41
2009/04/23 08:25:48.8      54     -4    -41     55     68  94.4 -46.1  34030  287.38 0855.41
2009/04/23 08:25:48.9      77    -22    -15     81     83 106.4 -10.9  34030  287.38 0855.41
2009/04/23 08:25:49.0      77    -49     16     92     94 122.4  10.1  34032  287.42 0855.41
2009/04/23 08:25:49.1      81    -51     21     97    100 122.4  12.6  34030  287.38 0855.41
2009/04/23 08:25:49.2     110    -57     10    125    126 117.5   5.0  34030  287.38 0855.41
2009/04/23 08:25:49.3      90    -42    -30    100    105 115.2 -17.0  34032  287.42 0855.41
2009/04/23 08:25:49.4      10     -6    -16     12     20 122.4 -62.9  34030  287.37 0855.41
2009/04/23 08:25:49.5      -6     -6    -37      9     38 226.7 -89.3  34030  287.37 0855.41
2009/04/23 08:25:49.6     -29    -12    -42     32     52 246.5 -61.9  34030  287.38 0855.41
2009/04/23 08:25:49.7     -54    -46    -25     71     76 229.6 -19.6  34028  287.33 0855.41
2009/04/23 08:25:49.8     -88   -101     -2    135    136 221.0  -1.3  34028  287.33 0855.41
2009/04/23 08:25:49.9     -60    -94    -58    112    126 212.5 -33.7  34028  287.35 0855.41
2009/04/23 08:25:50.0     -32    -58    -87     67    109 209.0 -62.9  34028  287.35 0855.41
2009/04/23 08:25:50.1     -34   -130    -80    135    156 194.7 -37.5  34028  287.35 0855.41
2009/04/23 08:25:50.2      49   -172    -57    180    188 164.0 -22.8  34028  287.35 0855.41
2009/04/23 08:25:50.3      44   -112   -106    121    160 158.2 -50.2  34028  287.35 0855.41
2009/04/23 08:25:50.4      54    -46    -46     72     85 130.4 -40.0  34028  287.33 0855.41
2009/04/23 08:25:50.5      39    -14    -12     42     43 110.8 -21.7  34028  287.35 0855.41
2009/04/23 08:25:50.6      11    -17     25     21     32 145.7  56.3  34028  287.35 0855.41
2009/04/23 08:25:50.7      33     -2     60     34     68  94.4  67.7  34030  287.37 0855.41
2009/04/23 08:25:50.8      -7      4     99      9     99 302.4  90.0  34028  287.35 0855.41
2009/04/23 08:25:50.9     -43    -33     98     55    112 232.2  68.8  34032  287.42 0855.41
2009/04/23 08:25:51.0     -21    -47     97     52    110 204.5  69.3  34030  287.38 0855.41
2009/04/23 08:25:51.1      -2    -35     64     36     73 184.5  68.8  34030  287.38 0855.41
2009/04/23 08:25:51.2     -15    -49     70     52     87 196.9  59.4  34034  287.43 0855.41
2009/04/23 08:25:51.3     -26    -59     76     65    100 203.6  55.4  34032  287.42 0855.41
2009/04/23 08:25:51.4     -43    -13     44     46     63 252.3  50.0  34030  287.38 0855.41
2009/04/23 08:25:51.5     -29    -18     37     35     50 237.5  51.2  34030  287.37 0855.42
2009/04/23 08:25:51.6      -6    -42     60     43     73 188.9  60.5  34028  287.35 0855.42
2009/04/23 08:25:51.7     -23    -58     82     63    103 201.9  58.5  34030  287.37 0855.42
2009/04/23 08:25:51.8      11    -25     62     28     68 156.4  74.0  34028  287.33 0855.42
2009/04/23 08:25:51.9      54     -7     67     55     86  97.9  56.4  34028  287.35 0855.42
2009/04/23 08:25:52.0      23    -68     71     73    101 160.8  49.4  34026  287.32 0855.42
2009/04/23 08:25:52.1      23    -96     76     99    124 166.2  41.6  34028  287.35 0855.42
2009/04/23 08:25:52.2      19    -97     94     99    136 168.5  49.0  34026  287.30 0855.42
2009/04/23 08:25:52.3      16    -86     84     88    121 169.3  49.0  34030  287.37 0855.42
2009/04/23 08:25:52.4      13    -51     81     53     96 165.7  64.6  34026  287.32 0855.42
2009/04/23 08:25:52.5      -9    -27     82     29     86 198.5  80.7  34026  287.32 0855.42
2009/04/23 08:25:52.6     -74     -1     41     75     85 269.2  31.4  34024  287.27 0855.42
2009/04/23 08:25:52.7     -98    -80     19    127    129 230.5   8.9  34024  287.27 0855.42
2009/04/23 08:25:52.8    -106    -93     21    142    144 228.6   8.5  34024  287.28 0855.42
2009/04/23 08:25:52.9     -56    -31     48     65     80 241.2  40.1  34024  287.27 0855.42
2009/04/23 08:25:53.0     -75     -5     41     76     86 265.7  30.8  34024  287.27 0855.42
2009/04/23 08:25:53.1     -85    -22     -7     88     89 255.4  -4.6  34026  287.30 0855.42
2009/04/23 08:25:53.2    -121     26    -52    124    134 282.4 -28.5  34026  287.32 0855.42
2009/04/23 08:25:53.3    -106     34    -42    112    119 287.7 -25.4  34024  287.27 0855.42
2009/04/23 08:25:53.4    -108    -36    -23    114    117 251.4 -11.5  34024  287.28 0855.42
2009/04/23 08:25:53.5    -132    -23     31    135    139 259.9  13.1  34024  287.27 0855.43
2009/04/23 08:25:53.6    -172      5     49    173    181 271.9  16.0  34024  287.28 0855.43
2009/04/23 08:25:53.7    -209     44     32    214    217 281.9   8.5  34022  287.25 0855.43
2009/04/23 08:25:53.8    -171     49     21    179    181 286.2   6.7  34020  287.20 0855.43
2009/04/23 08:25:53.9    -163    -11     -6    164    165 265.9  -2.2  34022  287.23 0855.43
2009/04/23 08:25:54.0    -106    -81    -72    134    152 232.7 -35.2  34026  287.30 0855.43
2009/04/23 08:25:54.1     -71   -160    -58    176    186 203.8 -18.3  34024  287.27 0855.43
2009/04/23 08:25:54.2     -31   -154     32    158    162 191.5  11.4  34020  287.20 0855.43
2009/04/23 08:25:54.3    -114   -165      0    201    202 214.7   0.0  34026  287.32 0855.43
2009/04/23 08:25:54.4     -84   -156     22    178    180 208.5   7.2  34024  287.27 0855.43
2009/04/23 08:25:54.5     -35   -148     21    153    155 193.3   8.0  34024  287.27 0855.43
2009/04/23 08:25:54.6       8   -109     49    110    120 175.6  25.2  34024  287.28 0855.43
2009/04/23 08:25:54.7     -63   -100     -8    119    120 212.5  -4.1  34020  287.21 0855.43
2009/04/23 08:25:54.8     -86   -104    -31    136    140 219.6 -12.9  34022  287.25 0855.43
2009/04/23 08:25:54.9    -141    -36      7    146    147 255.4   2.8  34016  287.15 0855.43
2009/04/23 08:25:55.0    -145     17     84    147    169 277.0  32.4  34014  287.11 0855.43
2009/04/23 08:25:55.1    -126      0     60    127    140 270.0  27.1  34016  287.13 0855.43
2009/04/23 08:25:55.2    -152    -72     77    169    185 244.6  26.4  34014  287.11 0855.43
2009/04/23 08:25:55.3     -71    -63    107     96    143 228.2  53.3  34010  287.05 0855.43
2009/04/23 08:25:55.4     -26      0     88     27     92 269.2  82.3  34012  287.08 0855.43
2009/04/23 08:25:55.5      12    -27     76     30     81 154.5  77.6  34016  287.13 0855.43
2009/04/23 08:25:55.6       1    -65     89     66    110 179.0  60.0  34022  287.23 0855.43
2009/04/23 08:25:55.7     119   -123    120    172    209 135.9  38.4  34026  287.30 0855.43
2009/04/23 08:25:55.8      83   -166     97    186    209 153.3  29.5  34028  287.35 0855.43
2009/04/23 08:25:55.9      61   -168     93    179    201 160.0  29.5  34024  287.28 0855.43
2009/04/23 08:25:56.0      67   -153     79    168    185 156.2  27.1  34026  287.30 0855.43
2009/04/23 08:25:56.1      89   -138     92    165    188 147.3  31.4  34026  287.32 0855.43
2009/04/23 08:25:56.2      87   -136    134    162    210 147.5  43.8  34028  287.35 0855.43
2009/04/23 08:25:56.3      86   -137    121    162    202 147.9  40.4  34028  287.35 0855.43
2009/04/23 08:25:56.4      93   -106    105    142    176 138.6  40.1  34028  287.33 0855.43
2009/04/23 08:25:56.5      86   -111     98    141    171 142.1  38.0  34030  287.37 0855.43
2009/04/23 08:25:56.6     108    -83     88    137    162 127.3  35.6  34028  287.35 0855.43
2009/04/23 08:25:56.7      43    -85     96     96    135 153.3  50.1  34030  287.38 0855.43
2009/04/23 08:25:56.8     110    -92     77    144    163 130.0  30.6  34028  287.33 0855.43
2009/04/23 08:25:56.9     113   -111     98    159    186 134.4  35.0  34028  287.35 0855.43
2009/04/23 08:25:57.0      48   -107    107    118    159 155.9  47.1  34026  287.30 0855.43
2009/04/23 08:25:57.1     110    -37    119    117    166 108.6  50.4  34024  287.27 0855.43
2009/04/23 08:25:57.2     143    -66    111    158    193 114.8  38.4  34026  287.32 0855.43
2009/04/23 08:25:57.3     145    -67    113    160    195 114.8  38.6  34018  287.18 0855.43
2009/04/23 08:25:57.4      21    -87    109     90    141 166.2  56.4  34020  287.20 0855.43
2009/04/23 08:25:57.5      24    -29    116     38    122 140.3  80.7  34022  287.23 0855.40
2009/04/23 08:25:57.6       0      1    138      2    138 341.5  90.0  34020  287.21 0855.40
2009/04/23 08:25:57.7      19     35    119     41    125  29.0  81.2  34026  287.32 0855.40
2009/04/23 08:25:57.8      43    -45     81     63    102 136.7  57.9  34020  287.21 0855.40
2009/04/23 08:25:57.9      50    -53     91     74    117 136.7  56.4  34016  287.15 0855.40
2009/04/23 08:25:58.0      44    -13     58     46     74 106.8  56.4  34022  287.25 0855.40
2009/04/23 08:25:58.1     -35     22     24     42     48 302.4  33.5  34024  287.28 0855.40
2009/04/23 08:25:58.2     -27     39     33     48     58 325.7  36.5  34024  287.28 0855.40
2009/04/23 08:25:58.3     -50    -77    119     93    151 213.0  57.9  34022  287.23 0855.40
2009/04/23 08:25:58.4     -46   -101    145    111    182 204.5  59.0  34020  287.21 0855.40
2009/04/23 08:25:58.5     -41   -111    101    119    156 200.5  44.8  34024  287.28 0855.40
2009/04/23 08:25:58.6      -4    -81    119     82    144 183.1  62.6  34020  287.21 0855.40
2009/04/23 08:25:58.7      15    -40     85     43     95 159.1  71.4  34012  287.08 0855.40
2009/04/23 08:25:58.8       1   -123    200    124    235 179.5  65.4  34012  287.08 0855.40
2009/04/23 08:25:58.9     -18   -153    241    155    286 186.7  64.6  34010  287.04 0855.40
2009/04/23 08:25:59.0     -85   -228    190    244    309 200.5  41.7  34014  287.11 0855.40
2009/04/23 08:25:59.1     -55   -201    214    209    299 195.4  50.7  34010  287.04 0855.40
2009/04/23 08:25:59.2      -2    -82    130     83    154 181.8  64.7  34008  287.01 0855.40
2009/04/23 08:25:59.3      18    -41    103     45    112 156.4  75.0  34004  286.93 0855.40
2009/04/23 08:25:59.4      18     -3     80     19     82 101.5  86.9  34010  287.05 0855.40
2009/04/23 08:25:59.5      18      0     80     19     82  90.0  86.9  34014  287.10 0855.38
2009/04/23 08:25:59.6      75    -28    114     81    139 110.8  60.6  34014  287.10 0855.38
2009/04/23 08:25:59.7      11      0     87     12     87  90.0  90.0  34016  287.13 0855.38
2009/04/23 08:25:59.8      95      0     85     96    128  90.0  45.9  34014  287.10 0855.38
2009/04/23 08:25:59.9       2    -85    169     86    189 178.6  71.4  34010  287.05 0855.38
2009/04/23 08:26:00.0     -19   -154    147    156    214 187.1  48.5  34006  286.98 0855.38
2009/04/23 08:26:00.1      -6   -261    141    262    297 181.4  30.8  34010  287.02 0855.38
2009/04/23 08:26:00.2     -42   -250    181    254    311 189.7  39.0  34004  286.94 0855.38
2009/04/23 08:26:00.3      -2   -158    183    159    242 181.0  54.3  34006  286.96 0855.38
2009/04/23 08:26:00.4      26    -64    148     70    163 158.1  72.9  34006  286.96 0855.38
2009/04/23 08:26:00.5      21    -20    111     30    114 133.3  84.8  34010  287.05 0855.38
2009/04/23 08:26:00.6     131    -30    113    135    176 103.2  44.3  34010  287.03 0855.38
2009/04/23 08:26:00.7     142    -32     81    146    166 102.8  31.4  34008  287.01 0855.38
2009/04/23 08:26:00.8     170    -31    130    173    216 100.6  40.7  34006  286.96 0855.38
2009/04/23 08:26:00.9     168    -43    149    174    229 104.6  44.8  34006  286.98 0855.38
2009/04/23 08:26:01.0     125     29    131    129    183  76.8  50.1  34010  287.05 0855.38
2009/04/23 08:26:01.1     205     35    135    208    247  80.3  36.0  34012  287.07 0855.38
2009/04/23 08:26:01.2     166     33     45    170    177  78.6  15.0  34016  287.15 0855.38
2009/04/23 08:26:01.3     229     10     29    230    232  87.4   7.2  34016  287.13 0855.38
2009/04/23 08:26:01.4     193     63     55    204    212  71.8  15.2  34030  287.37 0855.38
2009/04/23 08:26:01.5     185     88     71    206    219  64.5  19.2  34032  287.40 0855.38
2009/04/23 08:26:01.6     183     93     72    206    219  63.0  19.4  34024  287.28 0855.38
2009/04/23 08:26:01.7     223     31    119    226    255  82.0  30.1  34008  287.01 0855.38
2009/04/23 08:26:01.8      58     17    138     61    150  73.2  74.9  34008  287.00 0855.38
2009/04/23 08:26:01.9     168     45    143    175    225  74.9  43.7  34008  287.01 0855.38
2009/04/23 08:26:02.0     105      9     58    106    120  84.8  31.3  34008  287.01 0855.38
2009/04/23 08:26:02.1      83    -31    120     89    149 110.8  60.5  34008  287.00 0855.38
2009/04/23 08:26:02.2      -7    -26    107     27    110 195.1  85.9  34014  287.10 0855.38
2009/04/23 08:26:02.3     -28    -85    137     90    163 198.7  63.9  34008  287.00 0855.38
2009/04/23 08:26:02.4     -46   -147    132    155    203 197.4  44.8  34008  287.01 0855.38
2009/04/23 08:26:02.5      14   -141     82    142    163 174.2  32.9  34010  287.05 0855.38
2009/04/23 08:26:02.6      25   -151     66    154    167 170.3  24.6  34008  287.01 0855.38
2009/04/23 08:26:02.7      13   -186    150    187    239 175.8  42.8  34008  287.01 0855.38
2009/04/23 08:26:02.8      66   -219    155    230    277 163.1  37.4  34006  286.97 0855.38
2009/04/23 08:26:02.9      51   -258    117    264    288 168.7  25.3  34008  287.01 0855.38
2009/04/23 08:26:03.0      59   -266    174    273    323 167.3  35.5  34008  287.01 0855.38
2009/04/23 08:26:03.1      84   -242    170    257    308 160.8  36.5  34006  286.97 0855.38
2009/04/23 08:26:03.2      88   -249    136    265    297 160.6  29.3  34006  286.97 0855.38
2009/04/23 08:26:03.3      94   -263    175    280    330 160.2  35.2  34008  286.99 0855.38
2009/04/23 08:26:03.4      94   -236    197    255    322 158.2  41.7  34008  287.01 0855.38
2009/04/23 08:26:03.5      78   -242    187    255    316 162.1  39.9  34006  286.97 0855.39
2009/04/23 08:26:03.6      62   -265    184    273    329 166.7  37.2  34006  286.97 0855.39
2009/04/23 08:26:03.7     131   -204    181    243    303 147.3  40.6  34010  287.02 0855.39
2009/04/23 08:26:03.8      95   -185    207    209    294 152.8  49.9  34006  286.97 0855.39
2009/04/23 08:26:03.9      42   -207    192    212    286 168.5  46.9  34006  286.97 0855.39
2009/04/23 08:26:04.0      16   -237    181    238    299 176.0  41.2  34008  286.99 0855.39
2009/04/23 08:26:04.1     -46   -243    192    248    313 190.9  41.7  34008  286.99 0855.39
2009/04/23 08:26:04.2     -87   -250    117    265    289 199.2  25.2  34006  286.95 0855.39
2009/04/23 08:26:04.3    -117   -235     46    263    268 206.5  10.0  34004  286.92 0855.39
2009/04/23 08:26:04.4     -66   -233     20    243    244 195.8   4.9  34004  286.94 0855.39
2009/04/23 08:26:04.5     -30   -225     56    228    235 187.8  13.9  34004  286.93 0855.39
2009/04/23 08:26:04.6     -66   -145     36    160    165 204.7  12.9  34002  286.91 0855.39
2009/04/23 08:26:04.7     -55   -153     60    163    173 200.1  20.7  34004  286.94 0855.39
2009/04/23 08:26:04.8     -83   -102    102    132    166 219.2  42.0  34004  286.94 0855.39
2009/04/23 08:26:04.9     -28    -18     74     34     81 237.5  74.0  34006  286.98 0855.39
2009/04/23 08:26:05.0     -54      0     52     55     75 270.8  48.0  34008  287.00 0855.39
2009/04/23 08:26:05.1    -148     -5     39    149    155 267.9  14.7  34010  287.05 0855.39
2009/04/23 08:26:05.2    -170     67     36    183    187 291.5  11.1  33996  286.79 0855.39
2009/04/23 08:26:05.3     -56    119     11    132    133 334.7   5.0  34012  287.06 0855.39
2009/04/23 08:26:05.4       4    101     27    102    106   2.7  15.3  34026  287.30 0855.39
2009/04/23 08:26:05.5     -96     97    -24    137    140 315.5 -10.3  34030  287.37 0855.40
2009/04/23 08:26:05.6     -86     71     -7    112    113 309.6  -3.7  34054  287.77 0855.40
2009/04/23 08:26:05.7     -28    141     67    144    158 348.4  26.6  34068  288.01 0855.40
2009/04/23 08:26:05.8     -28    134     48    138    147 348.0  19.4  34050  287.70 0855.40
2009/04/23 08:26:05.9    -113     57      1    127    128 297.0   0.8  34044  287.62 0855.40
2009/04/23 08:26:06.0    -120     71    -33    140    144 300.7 -13.4  34034  287.45 0855.40
2009/04/23 08:26:06.1     -81     29    -20     87     90 290.0 -12.9  34032  287.42 0855.40
2009/04/23 08:26:06.2     -33     96    -40    102    109 340.8 -26.9  34032  287.40 0855.40
2009/04/23 08:26:06.3      -4      0     -5      5      7 281.5 -54.5  34010  287.03 0855.40
2009/04/23 08:26:06.4     -98    -33     35    104    111 251.4  18.9  34008  287.01 0855.40
2009/04/23 08:26:06.5    -138    126     29    187    190 312.4   8.8  34026  287.32 0855.40
2009/04/23 08:26:06.6    -106     98     60    145    156 312.7  23.8  34064  287.94 0855.40
2009/04/23 08:26:06.7      34      0    109     35    114  90.0  80.7  34050  287.72 0855.40
2009/04/23 08:26:06.8      35      3    110     36    115  83.9  80.7  34038  287.52 0855.40
2009/04/23 08:26:06.9      93     30     72     98    121  71.8  40.1  34068  288.03 0855.40
2009/04/23 08:26:07.0      67     46     66     82    105  55.8  43.3  34084  288.28 0855.40
2009/04/23 08:26:07.1      93     34    118    100    154  69.6  55.8  34142  289.28 0855.40
2009/04/23 08:26:07.2     100     33    104    106    148  71.4  50.0  34132  289.09 0855.40
2009/04/23 08:26:07.3      69     58    132     91    160  50.0  62.1  34112  288.75 0855.40
2009/04/23 08:26:07.4      73     64     57     98    113  48.7  33.5  34108  288.70 0855.40
2009/04/23 08:26:07.5     144    143     25    203    205  45.2   7.1  34112  288.77 0855.42
2009/04/23 08:26:07.6     126    149      2    196    197  40.3   0.8  34096  288.50 0855.42
2009/04/23 08:26:07.7     157     85    -54    179    187  61.4 -16.8  34098  288.53 0855.42
2009/04/23 08:26:07.8     224     37    -78    228    242  80.5 -18.9  34126  289.00 0855.42
2009/04/23 08:26:07.9     346     83     23    356    357  76.5   3.8  34154  289.47 0855.42
2009/04/23 08:26:08.0     334     81     22    344    345  76.3   3.7  34150  289.40 0855.42
2009/04/23 08:26:08.1     307     52    110    312    331  80.4  19.5  34142  289.25 0855.42
2009/04/23 08:26:08.2     169     23    160    171    234  82.1  48.0  34138  289.19 0855.42
2009/04/23 08:26:08.3     216    106    148    241    282  63.8  34.5  34150  289.39 0855.42
2009/04/23 08:26:08.4     190     62    167    201    261  71.8  43.8  34166  289.66 0855.42
2009/04/23 08:26:08.5     264     53    201    270    336  78.5  40.2  34140  289.24 0855.42
2009/04/23 08:26:08.6     193     36    162    197    255  79.2  43.7  34104  288.61 0855.42
2009/04/23 08:26:08.7      91      2    156     92    181  88.3  67.0  34120  288.91 0855.42
2009/04/23 08:26:08.8     122     72    174    142    224  59.4  56.4  34100  288.55 0855.42
2009/04/23 08:26:08.9     198     43    135    203    243  77.6  36.5  34086  288.31 0855.42
2009/04/23 08:26:09.0     232     46    121    237    266  78.6  29.1  34072  288.07 0855.42
2009/04/23 08:26:09.1     211     36    157    215    266  80.1  39.7  34092  288.43 0855.42
2009/04/23 08:26:09.2     201     80    147    217    262  68.3  37.4  34084  288.29 0855.42
2009/04/23 08:26:09.3     153     91    116    179    213  59.1  35.6  34084  288.28 0855.42
2009/04/23 08:26:09.4     137     71    124    155    198  62.5  42.7  34078  288.18 0855.42
2009/04/23 08:26:09.5     117     89     89    148    172  52.7  34.2  34072  288.09 0855.43
2009/04/23 08:26:09.6     103     57     94    118    150  61.1  43.3  34082  288.25 0855.43
2009/04/23 08:26:09.7      83    162     60    183    193  27.2  18.4  34070  288.04 0855.43
2009/04/23 08:26:09.8     -44     53    -42     69     80 320.4 -38.4  34058  287.86 0855.43
2009/04/23 08:26:09.9    -145     29    -51    148    156 281.5 -23.3  34044  287.60 0855.43
2009/04/23 08:26:10.0    -212     44    -85    217    233 281.9 -26.9  34024  287.27 0855.43
2009/04/23 08:26:10.1    -206     73    -98    219    239 289.7 -30.1  34024  287.26 0855.43
2009/04/23 08:26:10.2    -202    111   -131    231    265 298.8 -36.5  34024  287.26 0855.43
2009/04/23 08:26:10.3    -269     58   -148    276    313 282.2 -34.9  34024  287.28 0855.43
2009/04/23 08:26:10.4    -120     51    -11    131    132 293.1  -5.2  34022  287.25 0855.43
2009/04/23 08:26:10.5    -114     16     -9    116    117 278.4  -4.6  34028  287.35 0855.43
2009/04/23 08:26:10.7    -113     31    -15    118    119 285.5  -7.3  34026  287.32 0855.43
2009/04/23 08:26:10.7    -184    153    -21    240    241 309.6  -5.2  34044  287.60 0855.43
2009/04/23 08:26:10.8    -188    101    -67    214    225 298.4 -17.6  34036  287.47 0855.43
2009/04/23 08:26:10.9    -123    136     50    184    191 317.9  15.3  34036  287.49 0855.43
2009/04/23 08:26:11.0     -63    149     20    162    164 337.1   7.2  34054  287.77 0855.43
2009/04/23 08:26:11.1     -69    153     77    168    184 335.7  26.4  34046  287.65 0855.43
2009/04/23 08:26:11.2     -23    115     75    118    139 348.4  35.5  34050  287.72 0855.43
2009/04/23 08:26:11.3     -80    126     51    150    159 327.4  18.9  34048  287.69 0855.43
2009/04/23 08:26:11.4    -119    123     88    172    193 315.9  29.3  34050  287.70 0855.43
2009/04/23 08:26:11.5     -87    137     58    163    173 327.5  20.0  34044  287.62 0855.43
2009/04/23 08:26:11.6     -91    105     53    140    149 319.0  21.0  34042  287.57 0855.43
2009/04/23 08:26:11.7     -63     74     76     98    124 319.5  41.7  34050  287.70 0855.43
2009/04/23 08:26:11.8     -72     19     52     75     91 285.1  38.0  34050  287.70 0855.43
2009/04/23 08:26:11.9     -36     75    127     84    152 334.1  64.1  34046  287.65 0855.43
2009/04/23 08:26:12.0     -51     -5     90     52    103 263.9  67.2  34042  287.59 0855.43
2009/04/23 08:26:12.2     -86     19     44     89     99 282.8  28.2  34046  287.64 0855.43
2009/04/23 08:26:12.2     -72    -13     31     74     80 259.4  24.1  34040  287.55 0855.43
2009/04/23 08:26:12.3     -41    -34     68     54     86 230.5  57.5  34042  287.57 0855.43
2009/04/23 08:26:12.5      -5    -37     78     38     86 188.0  72.4  34042  287.59 0855.43
2009/04/23 08:26:12.5     -31    -37     50     49     70 219.6  49.1  34042  287.57 0855.43
2009/04/23 08:26:12.6     -88    -29     32     93     99 251.8  19.4  34042  287.59 0855.43
2009/04/23 08:26:12.8     -94    -21     16     97     99 257.2   9.5  34036  287.49 0855.43
2009/04/23 08:26:12.9    -138    -23     -5    140    141 260.4  -2.2  34038  287.52 0855.43
2009/04/23 08:26:13.0    -136    -44     35    144    149 251.8  13.7  34036  287.47 0855.43
2009/04/23 08:26:13.1     -93     22    -41     96    104 283.7 -28.0  34034  287.43 0855.43
2009/04/23 08:26:13.2    -179     70    -27    193    195 291.3  -8.0  34030  287.37 0855.43
2009/04/23 08:26:13.3    -190     78     29    206    209 292.4   8.0  34030  287.37 0855.43
2009/04/23 08:26:13.4    -219     42     -4    224    225 281.0  -1.3  34030  287.37 0855.43
2009/04/23 08:26:13.5    -245    -21     -3    246    247 265.0  -0.7  34032  287.41 0855.43
2009/04/23 08:26:13.6    -289   -102     15    307    308 250.5   2.9  34030  287.36 0855.43
2009/04/23 08:26:13.7    -277    -43     -1    281    282 261.2  -0.3  34034  287.44 0855.43
2009/04/23 08:26:13.8    -250    -20     58    251    258 265.2  13.1  34036  287.46 0855.43
2009/04/23 08:26:13.9    -185   -158     95    244    261 229.6  22.3  34036  287.46 0855.43
2009/04/23 08:26:14.0    -144   -174     96    227    246 219.6  24.2  34034  287.44 0855.43
2009/04/23 08:26:14.1     -34   -205    109    208    234 189.6  29.8  34034  287.43 0855.43
2009/04/23 08:26:14.2      23   -257    196    259    324 174.7  41.1  34036  287.48 0855.43
2009/04/23 08:26:14.3     -18   -237    166    238    290 184.4  38.0  34044  287.60 0855.43
2009/04/23 08:26:14.4       0   -281    117    282    305 179.9  23.8  34042  287.58 0855.43
2009/04/23 08:26:14.5     -39   -274     34    277    280 188.2   7.1  34038  287.50 0855.43
2009/04/23 08:26:14.6      25   -272    -46    274    278 174.6  -9.6  34038  287.50 0855.42
2009/04/23 08:26:14.7     -60   -340    -81    346    356 190.0 -13.2  34036  287.49 0855.42
2009/04/23 08:26:14.8      14   -322    -77    323    333 177.4 -13.4  34036  287.47 0855.42
2009/04/23 08:26:14.9     101   -289     72    307    316 160.6  13.2  34034  287.44 0855.42
2009/04/23 08:26:15.0      97   -150    117    179    213 147.0  36.0  34040  287.54 0855.42
2009/04/23 08:26:15.1     163   -104    103    194    219 122.6  30.3  34040  287.54 0855.42
2009/04/23 08:26:15.2     212   -178     99    278    295 130.0  20.4  34036  287.46 0855.42
2009/04/23 08:26:15.3     171   -200     -1    264    265 139.5  -0.3  34040  287.53 0855.42
2009/04/23 08:26:15.4     236    -93    -33    254    257 111.7  -7.5  34040  287.55 0855.42
2009/04/23 08:26:15.5     245   -107    -10    268    269 113.6  -2.3  34038  287.51 0855.42
2009/04/23 08:26:15.6     314    -18     37    315    318  93.4   6.7  34062  287.92 0855.42
2009/04/23 08:26:15.7     363     12     99    364    378  88.1  15.3  34062  287.91 0855.42
2009/04/23 08:26:15.8     417    -23     55    418    422  93.2   7.6  34060  287.89 0855.42
2009/04/23 08:26:15.9     338   -152     -8    371    372 114.3  -1.3  34050  287.71 0855.42
2009/04/23 08:26:16.0     393    -16    103    394    408  92.4  14.7  34038  287.52 0855.42
2009/04/23 08:26:16.1     326     11     54    327    332  88.0   9.5  34044  287.62 0855.42
2009/04/23 08:26:16.2     213   -100    -22    236    238 115.2  -5.4  34048  287.68 0855.42
2009/04/23 08:26:16.3     225   -138    -48    264    269 121.5 -10.4  34052  287.73 0855.42
2009/04/23 08:26:16.4     192   -162    -28    252    254 130.2  -6.5  34050  287.70 0855.42
2009/04/23 08:26:16.5     175   -141    -37    226    230 128.9  -9.3  34052  287.74 0855.42
2009/04/23 08:26:16.6     206   -149     14    255    256 125.9   3.1  34052  287.73 0855.41
2009/04/23 08:26:16.7     199   -165     13    259    260 129.6   2.9  34052  287.73 0855.41
2009/04/23 08:26:16.8     158   -190     44    248    252 140.3  10.1  34052  287.73 0855.41
2009/04/23 08:26:16.9     225   -152     86    272    286 124.0  17.7  34066  287.97 0855.41
2009/04/23 08:26:17.0     208   -172     95    271    287 129.6  20.0  34054  287.78 0855.41
2009/04/23 08:26:17.1     210    -83     14    227    228 111.7   3.6  34050  287.70 0855.41
2009/04/23 08:26:17.2     215      1    135    216    254  89.6  35.2  34038  287.50 0855.41
2009/04/23 08:26:17.3     215    -25     23    217    219  96.8   6.1  34044  287.62 0855.41
2009/04/23 08:26:17.4     214    -43     -8    219    220 101.4  -2.2  34042  287.57 0855.41
2009/04/23 08:26:17.5     356    -83      3    366    367 103.2   0.5  34048  287.66 0855.41
2009/04/23 08:26:17.6     283   -207    -80    352    362 126.2 -12.9  34042  287.59 0855.41
2009/04/23 08:26:17.7     205      0     52    206    213  90.1  14.3  34032  287.42 0855.41
2009/04/23 08:26:17.8     125     54    161    137    211  66.5  55.4  34040  287.55 0855.41
2009/04/23 08:26:17.9     285     11     97    286    303  87.6  18.8  34042  287.58 0855.41
2009/04/23 08:26:18.0     268   -132     96    299    315 116.2  17.9  34038  287.51 0855.41
2009/04/23 08:26:18.1     172    -72    -53    187    194 112.8 -20.7  34036  287.49 0855.41
2009/04/23 08:26:18.2     229    -22     -5    231    232  95.7  -1.3  34036  287.47 0855.41
2009/04/23 08:26:18.3     296     41     56    299    305  82.1  10.6  34024  287.26 0855.41
2009/04/23 08:26:18.4     265     89     14    280    281  71.4   2.9  34034  287.44 0855.41
2009/04/23 08:26:18.5     258     62     71    266    276  76.5  15.0  34036  287.46 0855.41
2009/04/23 08:26:18.6     287     49    -92    292    307  80.3 -17.6  34032  287.41 0855.41
2009/04/23 08:26:18.7     330    102    -13    346    347  72.7  -2.2  34032  287.42 0855.41
2009/04/23 08:26:18.8     318    141     35    348    350  66.1   5.9  34034  287.45 0855.41
2009/04/23 08:26:18.9     291     87    -71    304    313  73.2 -13.2  34034  287.44 0855.41
2009/04/23 08:26:19.0     260     75    -45    271    275  73.8  -9.6  34036  287.48 0855.41
2009/04/23 08:26:19.1     189     82    -24    207    209  66.4  -6.7  34058  287.86 0855.41
2009/04/23 08:26:19.2     178     95     65    202    213  61.8  17.9  34084  288.30 0855.41
2009/04/23 08:26:19.3     154     67      2    168    169  66.5   0.8  34084  288.30 0855.41
2009/04/23 08:26:19.4     103     75     35    128    133  53.6  15.3  34092  288.42 0855.41
2009/04/23 08:26:19.5     128     56     51    140    149  66.4  20.9  34090  288.40 0855.41
2009/04/23 08:26:19.6     185     42     18    190    191  77.2   5.7  34108  288.69 0855.41
2009/04/23 08:26:19.7     120     52     83    132    155  66.4  35.5  34124  288.97 0855.41
2009/04/23 08:26:19.8      82     82     71    116    136  45.0  35.0  34128  289.02 0855.41
2009/04/23 08:26:19.9     158     77     96    176    200  64.0  31.0  34090  288.38 0855.41
2009/04/23 08:26:20.0     159     76     72    177    191  64.2  23.1  34048  287.67 0855.41
2009/04/23 08:26:20.1      51     80     72     96    120  32.5  40.7  34044  287.62 0855.41
2009/04/23 08:26:20.2       0    -40    112     41    119 180.9  79.2  34062  287.92 0855.41
2009/04/23 08:26:20.3      96     -8    115     97    150  94.8  56.3  34044  287.62 0855.41
2009/04/23 08:26:20.4      56    -16     72     59     93 105.9  56.4  34040  287.54 0855.41
2009/04/23 08:26:20.5     152    -94    131    179    221 121.8  39.7  34040  287.55 0855.41
2009/04/23 08:26:20.6     230    -66    121    240    268 106.2  28.5  34048  287.68 0855.41
2009/04/23 08:26:20.7     214     57     56    222    230  75.0  14.3  34138  289.19 0855.41
2009/04/23 08:26:20.8     231     73    115    243    268  72.5  27.2  34148  289.37 0855.41
2009/04/23 08:26:20.9     235    -41    137    239    275  99.9  32.4  34130  289.05 0855.41
2009/04/23 08:26:21.0     183    -45    177    189    258 103.9  48.0  34068  288.02 0855.41
2009/04/23 08:26:21.1     241     -3    154    242    286  90.8  35.5  34038  287.51 0855.41
2009/04/23 08:26:21.2     229      0    130    230    264  90.0  31.9  34028  287.34 0855.41
2009/04/23 08:26:21.3     187    -30    116    190    222  99.2  34.8  34030  287.38 0855.41
2009/04/23 08:26:21.4     246    -18    171    247    300  94.3  37.8  34096  288.49 0855.41
2009/04/23 08:26:21.5     245    -42    139    249    285  99.9  31.6  34100  288.56 0855.41
2009/04/23 08:26:21.6     257    -55     95    263    279 102.2  20.9  34054  287.78 0855.41
2009/04/23 08:26:21.7     339    -22    146    340    370  93.8  24.8  34094  288.45 0855.41
2009/04/23 08:26:21.8     343     19    152    344    376  86.7  25.2  34038  287.51 0855.41
2009/04/23 08:26:21.9     292     17    128    293    319  86.6  25.1  34088  288.34 0855.41
2009/04/23 08:26:22.0     222    114    117    250    276  62.7  27.0  34152  289.44 0855.41
2009/04/23 08:26:22.1     263    156     43    306    310  59.3   8.0  34154  289.46 0855.41
2009/04/23 08:26:22.2     250    113     13    275    276  65.6   2.9  34108  288.70 0855.41
2009/04/23 08:26:22.3     251    181    110    310    328  54.1  20.2  34118  288.85 0855.41
2009/04/23 08:26:22.4     255    101    143    275    309  68.3  29.3  34172  289.76 0855.41
2009/04/23 08:26:22.5     250     19    121    251    278  85.6  27.4  34122  288.92 0855.41
2009/04/23 08:26:22.6     418     54     70    422    428  82.5   9.5  34128  289.04 0855.41
2009/04/23 08:26:22.7     383    154     64    413    419  68.0   8.9  34048  287.67 0855.41
2009/04/23 08:26:22.8     252    243    140    351    377  46.1  23.0  34052  287.76 0855.41
2009/04/23 08:26:22.9     164    317    214    358    417  27.4  33.6  34092  288.42 0855.41
2009/04/23 08:26:23.0     253    182    120    312    334  54.3  22.2  34072  288.09 0855.41
2009/04/23 08:26:23.1     338    229    143    409    434  55.9  19.3  34100  288.55 0855.41
2009/04/23 08:26:23.2     346    173    138    388    411  63.4  20.4  34098  288.51 0855.41
2009/04/23 08:26:23.3     299    198     51    359    363  56.4   8.2  34108  288.69 0855.41
2009/04/23 08:26:23.4     273    150    154    312    347  61.2  28.1  34144  289.30 0855.41
2009/04/23 08:26:23.5     223    161    127    276    303  54.1  26.6  34128  289.02 0855.41
2009/04/23 08:26:23.6     305    106     88    324    336  70.8  15.3  34064  287.93 0855.41
2009/04/23 08:26:23.7     322     82     41    333    336  75.6   7.1  34030  287.37 0855.41
2009/04/23 08:26:23.8     386    118     12    404    405  72.9   1.8  34108  288.70 0855.41
2009/04/23 08:26:23.9     345    134     58    371    376  68.7   9.0  34148  289.38 0855.41
2009/04/23 08:26:24.0     352    105     73    368    376  73.4  11.3  34176  289.84 0855.41
2009/04/23 08:26:24.1     339    134     -3    365    366  68.3  -0.5  34152  289.43 0855.41
2009/04/23 08:26:24.2     370    128    125    392    412  70.8  17.7  34184  289.97 0855.41
2009/04/23 08:26:24.3     484    142    163    505    531  73.6  17.9  34192  290.13 0855.41
2009/04/23 08:26:24.4     455     64     26    460    461  82.0   3.3  34166  289.66 0855.41
2009/04/23 08:26:24.5     394    172    -18    431    432  66.4  -2.5  34146  289.33 0855.41
2009/04/23 08:26:24.6     504    120     21    519    520  76.6   2.3  34112  288.77 0855.42
2009/04/23 08:26:24.7     558    149    100    578    587  75.0   9.9  34112  288.76 0855.42
2009/04/23 08:26:24.8     461    153    194    486    523  71.6  23.0  34110  288.74 0855.42
2009/04/23 08:26:24.9     519     76    191    525    558  81.6  21.0  34088  288.36 0855.42
2009/04/23 08:26:25.0     282     10    263    283    386  87.9  47.9  34102  288.60 0855.42
2009/04/23 08:26:25.1     -41     74    122     85    148 330.6  62.1  34096  288.50 0855.42
2009/04/23 08:26:25.2     -23    329    110    330    348 356.0  18.5  34104  288.64 0855.42
2009/04/23 08:26:25.3       8    315    145    316    347   1.6  26.5  34078  288.18 0855.42
2009/04/23 08:26:25.4      92    303    -19    317    318  16.9  -3.5  34078  288.17 0855.42
2009/04/23 08:26:25.5     232    206     45    311    315  48.4   8.2  34056  287.82 0855.42
2009/04/23 08:26:25.6      87    279    105    293    311  17.4  20.2  34062  287.90 0855.42
2009/04/23 08:26:25.7     208    249     96    325    340  39.9  16.5  34104  288.64 0855.42
2009/04/23 08:26:25.8     242    175    115    299    320  54.1  22.0  34114  288.78 0855.42
2009/04/23 08:26:25.9     221    160    104    274    293  54.0  22.0  34078  288.17 0855.42
2009/04/23 08:26:26.0     232    197     24    305    307  49.6   4.6  34066  287.97 0855.42
2009/04/23 08:26:26.1     291    139    -27    323    325  64.5  -4.9  34050  287.70 0855.42
2009/04/23 08:26:26.2     330    144      4    361    362  66.4   0.7  34122  288.93 0855.42
2009/04/23 08:26:26.3     351    152     54    383    387  66.5   8.1  34164  289.65 0855.42
2009/04/23 08:26:26.4     330    134      2    357    358  67.9   0.4  34146  289.33 0855.42
2009/04/23 08:26:26.5     347    109     70    364    371  72.4  11.0  34086  288.33 0855.42
2009/04/23 08:26:26.6     345     96     56    359    364  74.4   9.0  34058  287.84 0855.42
2009/04/23 08:26:26.7     307    108     71    326    334  70.5  12.4  34036  287.47 0855.42
2009/04/23 08:26:26.8     294     97     48    310    314  71.6   8.9  34032  287.39 0855.42
2009/04/23 08:26:26.9     229    126    -10    262    263  61.1  -2.2  34032  287.41 0855.42
2009/04/23 08:26:27.0     264    179     29    320    322  55.8   5.2  34028  287.33 0855.42
2009/04/23 08:26:27.1     361    136     59    386    391  69.3   8.8  34096  288.50 0855.42
2009/04/23 08:26:27.2     335    133     43    361    364  68.3   6.8  34086  288.32 0855.42
2009/04/23 08:26:27.3     298    127      2    324    325  66.9   0.4  34034  287.44 0855.42
2009/04/23 08:26:27.4     309     92     17    323    324  73.4   3.0  34090  288.37 0855.42
2009/04/23 08:26:27.5     349     83     36    359    361  76.6   5.8  34146  289.33 0855.42
2009/04/23 08:26:27.6     318     94     99    332    347  73.5  16.7  34110  288.71 0855.42
2009/04/23 08:26:27.7     295     89     56    309    315  73.2  10.3  34066  287.99 0855.42
2009/04/23 08:26:27.8     296     94     51    311    316  72.3   9.3  34026  287.29 0855.42
2009/04/23 08:26:27.9     307     77     40    317    320  75.9   7.2  34072  288.07 0855.42
2009/04/23 08:26:28.0     299     79     65    310    317  75.2  12.0  34120  288.88 0855.42
2009/04/23 08:26:28.1     309     36     58    312    318  83.2  10.6  34092  288.41 0855.42
2009/04/23 08:26:28.2     336     89     43    348    351  75.1   7.1  34086  288.32 0855.42
2009/04/23 08:26:28.3     267    154    134    309    336  60.0  24.9  34042  287.56 0855.42
2009/04/23 08:26:28.4     249    131     68    282    291  62.2  13.5  34088  288.36 0855.42
2009/04/23 08:26:28.5     250     94     52    268    274  69.4  11.1  34100  288.56 0855.42
2009/04/23 08:26:28.6     219     72     32    231    234  71.8   8.0  34120  288.88 0855.43
2009/04/23 08:26:28.7     303    154     86    341    352  63.0  14.3  34120  288.89 0855.43
2009/04/23 08:26:28.8     307     94     65    322    329  72.9  11.6  34142  289.25 0855.43
2009/04/23 08:26:28.9     303     37    144    306    338  82.9  27.1  34128  289.02 0855.43
2009/04/23 08:26:29.0     341     65    207    348    404  79.2  33.5  34122  288.94 0855.43
2009/04/23 08:26:29.1     294     63    200    301    361  77.7  36.7  34130  289.08 0855.43
2009/04/23 08:26:29.2     232     17    169    233    287  85.7  39.7  34128  289.02 0855.43
2009/04/23 08:26:29.3     173    -13    150    174    229  94.4  45.1  34096  288.48 0855.43
2009/04/23 08:26:29.4     233     65    109    243    266  74.3  26.2  34102  288.58 0855.43
2009/04/23 08:26:29.5     237     68    129    247    278  74.0  29.8  34080  288.22 0855.43
2009/04/23 08:26:29.6     208   -166     46    267    272 128.6   9.9  34070  288.04 0855.43
2009/04/23 08:26:29.7     167   -215    -20    273    274 142.2  -4.4  34036  287.48 0855.43
2009/04/23 08:26:29.8     211    -64     71    221    233 107.1  17.9  34050  287.70 0855.43
2009/04/23 08:26:29.9     201   -166     36    261    264 129.5   8.0  34052  287.75 0855.43
2009/04/23 08:26:30.0     173   -177     61    248    256 135.7  13.9  34046  287.63 0855.43
2009/04/23 08:26:30.1     120   -154    -23    196    198 142.2  -6.7  34060  287.87 0855.43
2009/04/23 08:26:30.2     144     39     -3    150    151  74.9  -1.2  34046  287.65 0855.43
2009/04/23 08:26:30.3     145     74      1    163    164  62.9   0.5  34064  287.96 0855.43
2009/04/23 08:26:30.4      87    122     42    151    157  35.6  15.8  34088  288.35 0855.43
2009/04/23 08:26:30.5     111     -8    187    112    217  94.4  66.7  34090  288.40 0855.43
2009/04/23 08:26:30.6     197    -36    183    201    271 100.4  47.1  34086  288.32 0855.44
2009/04/23 08:26:30.7     213     85    237    230    330  68.2  50.8  34060  287.88 0855.44
2009/04/23 08:26:30.8     159     79    284    178    335  63.4  64.9  34058  287.83 0855.44
2009/04/23 08:26:30.9     138    -23    194    141    239  99.7  60.5  34054  287.79 0855.44
2009/04/23 08:26:31.0     103   -116    114    156    193 138.6  39.7  34024  287.28 0855.44
2009/04/23 08:26:31.1     181   -170    100    249    268 133.1  23.0  34048  287.68 0855.44
2009/04/23 08:26:31.2     245    -73     65    256    265 106.8  14.3  34024  287.28 0855.44
2009/04/23 08:26:31.3     252    -14     49    253    258  93.3  11.0  34026  287.31 0855.44
2009/04/23 08:26:31.5     267    -28     32    269    271  96.1   6.9  34036  287.46 0855.44
2009/04/23 08:26:31.5     204      3    105    205    230  89.1  29.2  34034  287.45 0855.44
2009/04/23 08:26:31.6     265    123     30    293    295  65.2   5.9  34070  288.04 0855.44
2009/04/23 08:26:31.7     333    177    148    378    405  62.0  22.5  34094  288.45 0855.44
2009/04/23 08:26:31.8     305    148    144    340    369  64.0  24.5  34084  288.30 0855.44
2009/04/23 08:26:31.9     215     91     95    234    252  66.9  23.1  34058  287.83 0855.44
2009/04/23 08:26:32.0     288     69     76    297    307  76.5  14.4  34058  287.83 0855.44
2009/04/23 08:26:32.1     263     52    188    269    328  78.8  38.4  34098  288.53 0855.44
2009/04/23 08:26:32.2     327     74    181    336    381  77.1  30.7  34092  288.42 0855.44
2009/04/23 08:26:32.3     365    120    163    385    418  71.8  24.3  34090  288.39 0855.44
2009/04/23 08:26:32.4     374    147     80    402    411  68.5  11.3  34052  287.73 0855.44
2009/04/23 08:26:32.5     448    114    102    463    475  75.7  12.5  34056  287.81 0855.44
2009/04/23 08:26:32.6     480    139    -83    500    507  73.8  -9.5  34032  287.41 0855.44
2009/04/23 08:26:32.7     520    139      7    539    540  75.0   0.8  34024  287.28 0855.44
2009/04/23 08:26:32.8     604    105    -27    614    615  80.1  -2.6  34016  287.15 0855.44
2009/04/23 08:26:32.9     593     36    -65    595    599  86.5  -6.3  34016  287.12 0855.44
2009/04/23 08:26:33.0     547     -7    -86    548    555  90.8  -9.0  34014  287.11 0855.44
2009/04/23 08:26:33.1     446    176    -34    480    482  68.4  -4.1  34036  287.46 0855.44
2009/04/23 08:26:33.2     318    153     58    353    358  64.3   9.5  34048  287.69 0855.44
2009/04/23 08:26:33.3     342    110    116    360    379  72.2  17.9  34040  287.54 0855.44
2009/04/23 08:26:33.4     247    263     78    362    371  43.2  12.2  34034  287.45 0855.44
2009/04/23 08:26:33.5     137    208     65    250    259  33.4  14.7  34028  287.34 0855.44
2009/04/23 08:26:33.6     181    144     67    232    242  51.6  16.3  34038  287.50 0855.42
2009/04/23 08:26:33.7     142    191    -39    239    243  36.7  -9.3  34036  287.48 0855.42
2009/04/23 08:26:33.8     160    274    -94    318    332  30.4 -16.5  34042  287.56 0855.42
2009/04/23 08:26:33.9     314    199     24    372    373  57.6   3.7  34034  287.44 0855.42
2009/04/23 08:26:34.1     260    171     54    312    317  56.7   9.9  34040  287.53 0855.42
2009/04/23 08:26:34.1     233    168     51    288    293  54.3  10.1  34034  287.44 0855.42
2009/04/23 08:26:34.2     135    184     27    229    231  36.3   6.9  34056  287.81 0855.42
2009/04/23 08:26:34.3     -48    175     22    182    184 344.6   7.1  34054  287.77 0855.42
2009/04/23 08:26:34.4    -223    138    -55    263    269 301.8 -11.9  34054  287.78 0855.42
2009/04/23 08:26:34.5    -205    156     38    258    261 307.3   8.5  34054  287.78 0855.42
2009/04/23 08:26:34.6    -189    287     71    344    352 326.6  11.8  34062  287.91 0855.42
2009/04/23 08:26:34.7    -243    241    -10    343    344 314.8  -1.8  34058  287.83 0855.42
2009/04/23 08:26:34.8    -299    291     13    418    419 314.2   1.9  34044  287.62 0855.42
2009/04/23 08:26:34.9    -269    320    -13    419    420 320.0  -1.9  34020  287.21 0855.42
2009/04/23 08:26:35.0    -326    212     61    390    395 303.1   9.0  34032  287.42 0855.42
2009/04/23 08:26:35.1    -337    228    -12    408    409 304.1  -1.7  34024  287.26 0855.42
2009/04/23 08:26:35.2    -333    169    -54    374    378 297.0  -8.2  34026  287.30 0855.42
2009/04/23 08:26:35.3    -314    155    -41    351    354 296.2  -6.8  34022  287.23 0855.42
2009/04/23 08:26:35.4    -309    167    -83    352    362 298.4 -13.3  34018  287.17 0855.42
2009/04/23 08:26:35.5    -255     98    -83    274    287 291.1 -17.0  34018  287.16 0855.42
2009/04/23 08:26:35.6    -218     44    -88    223    239 281.5 -26.9  34020  287.19 0855.40
2009/04/23 08:26:35.7    -249     75   -131    261    292 286.8 -33.1  34022  287.24 0855.40
2009/04/23 08:26:35.8    -265      7   -173    266    317 271.7 -40.6  34024  287.28 0855.40
2009/04/23 08:26:35.9     -24    117    -86    120    147 348.4 -43.9  34038  287.52 0855.40
2009/04/23 08:26:36.0     -76     54     25     94     98 305.5  15.2  34036  287.49 0855.40
2009/04/23 08:26:36.1     -99   -139     71    171    185 215.6  23.6  34034  287.45 0855.40
2009/04/23 08:26:36.2     -72   -141     61    159    170 207.2  22.0  34040  287.55 0855.40
2009/04/23 08:26:36.3     -15   -140     87    141    165 186.3  35.0  34040  287.55 0855.40
2009/04/23 08:26:36.4     -35   -128     36    133    138 195.6  15.3  34042  287.59 0855.40
2009/04/23 08:26:36.5      24   -140     65    143    157 170.2  26.2  34036  287.49 0855.40
2009/04/23 08:26:36.6       7    -95     28     96    101 175.5  16.3  34038  287.50 0855.40
2009/04/23 08:26:36.7     -28      0     39     29     48 270.8  59.4  34034  287.45 0855.40
2009/04/23 08:26:36.8     -56    107     42    121    129 332.4  19.4  34034  287.43 0855.40
2009/04/23 08:26:36.9    -157    100    -51    187    195 302.6 -15.4  34034  287.43 0855.40
2009/04/23 08:26:37.0    -131    106    -91    169    191 308.9 -35.4  34040  287.54 0855.40
2009/04/23 08:26:37.1     -85     62    -38    106    112 306.4 -24.4  34040  287.54 0855.40
2009/04/23 08:26:37.2     -50     69     30     86     92 323.9  19.4  34032  287.42 0855.40
2009/04/23 08:26:37.3     -10     75     66     76    100 352.0  45.8  34036  287.47 0855.40
2009/04/23 08:26:37.4      -1     78     57     79     97 359.1  39.7  34036  287.49 0855.40
2009/04/23 08:26:37.5     -26     77    101     82    130 341.3  56.4  34040  287.55 0855.40
2009/04/23 08:26:37.6      31     87    118     93    150  19.6  57.5  34038  287.52 0855.40
2009/04/23 08:26:37.7      77    132    144    154    210  30.3  48.0  34036  287.49 0855.40
2009/04/23 08:26:37.8      21    290    131    291    319   4.2  25.9  34040  287.55 0855.40
2009/04/23 08:26:37.9      92    344    156    357    389  15.1  25.1  34048  287.69 0855.40
2009/04/23 08:26:38.0     151    376    193    406    449  21.9  27.2  34048  287.67 0855.40
2009/04/23 08:26:38.1     170    360    212    399    451  25.3  30.2  34046  287.65 0855.40
2009/04/23 08:26:38.2     113    140    -29    181    184  39.0  -9.3  34040  287.54 0855.40
2009/04/23 08:26:38.3     131     89    -23    159    161  55.8  -8.2  34040  287.55 0855.40
2009/04/23 08:26:38.5     174    -48   -132    181    224 105.7 -44.1  34046  287.64 0855.40
2009/04/23 08:26:38.5     227   -131    -44    263    267 120.0  -9.6  34042  287.58 0855.40
2009/04/23 08:26:38.7     240     77     60    253    261  72.2  13.5  34032  287.39 0855.40
2009/04/23 08:26:38.8     215     80    228    230    323  69.4  50.0  34044  287.60 0855.40
2009/04/23 08:26:38.8     260     31    216    262    339  83.2  43.7  34038  287.51 0855.40
2009/04/23 08:26:39.0     180      3    211    181    277  89.0  55.0  34044  287.60 0855.40
2009/04/23 08:26:39.1      89    -19    152     92    177 102.4  66.0  34044  287.62 0855.40
2009/04/23 08:26:39.2      19     15    123     25    125  50.5  89.0  34042  287.57 0855.40
2009/04/23 08:26:39.3     116     69    131    136    188  59.3  49.0  34030  287.38 0855.40
2009/04/23 08:26:39.4     199    198     82    281    293  45.1  16.3  34036  287.48 0855.40
2009/04/23 08:26:39.5      34    192     -2    196    197  10.2  -0.7  34024  287.28 0855.40
2009/04/23 08:26:39.6     -39    185     24    190    192 348.0   7.5  34030  287.37 0855.40
2009/04/23 08:26:39.7    -126    126     29    179    182 315.1   9.3  34030  287.37 0855.40
2009/04/23 08:26:39.8    -138     92    -11    166    167 303.7  -4.1  34030  287.38 0855.40
2009/04/23 08:26:39.9     -96     69     25    119    122 306.0  12.2  34032  287.40 0855.40
2009/04/23 08:26:40.0     -58     15     48     61     77 285.0  43.7  34030  287.37 0855.40
2009/04/23 08:26:40.1    -104     54      7    118    119 297.5   3.8  34030  287.38 0855.40
2009/04/23 08:26:40.2    -105    105    -35    149    154 315.0 -13.4  34036  287.47 0855.40
2009/04/23 08:26:40.3      20    241      5    242    243   4.9   1.2  34032  287.39 0855.40
2009/04/23 08:26:40.4     -14     22    161     27    163 327.5  90.0  34028  287.35 0855.40
2009/04/23 08:26:40.5     -29     43     38     53     65 325.7  39.5  34028  287.33 0855.40
2009/04/23 08:26:40.6    -136    -36     77    141    160 254.9  31.0  34026  287.30 0855.40
2009/04/23 08:26:40.7    -261    -20     43    262    266 265.6   9.5  34022  287.24 0855.40
2009/04/23 08:26:40.8    -174   -215     86    277    291 219.0  17.3  34028  287.33 0855.40
2009/04/23 08:26:40.9       1   -139    160    140    212 179.5  54.3  34020  287.21 0855.40
2009/04/23 08:26:41.0     -81   -117     61    143    155 214.7  24.6  34028  287.35 0855.40
2009/04/23 08:26:41.1    -140   -186     15    233    234 217.0   3.8  34030  287.38 0855.40
2009/04/23 08:26:41.2    -121   -220    104    252    272 208.9  23.6  34026  287.31 0855.40
2009/04/23 08:26:41.3    -285   -246     88    377    388 229.2  13.2  34024  287.27 0855.40
2009/04/23 08:26:41.4    -377   -216     67    435    441 240.2   8.8  34014  287.11 0855.40
2009/04/23 08:26:41.5    -353   -110    -24    370    371 252.7  -3.7  34028  287.35 0855.40
2009/04/23 08:26:41.6    -385    -41   -117    388    406 263.8 -16.8  34026  287.29 0855.40
2009/04/23 08:26:41.7    -530     68    -96    535    544 277.4 -10.3  34022  287.23 0855.41
2009/04/23 08:26:41.8    -634    -80   -117    640    651 262.8 -10.4  34012  287.07 0855.41
2009/04/23 08:26:41.9    -274   -221     73    353    361 231.2  11.8  34006  286.95 0855.41
2009/04/23 08:26:42.0     -61   -422    202    427    472 188.3  27.1  34028  287.35 0855.41
2009/04/23 08:26:42.1     -66   -340     67    347    354 191.0  11.0  34028  287.35 0855.41
2009/04/23 08:26:42.2     -79   -296     78    307    317 195.1  14.4  34030  287.36 0855.41
2009/04/23 08:26:42.3     -71   -226     89    238    254 197.6  21.3  34028  287.33 0855.41
2009/04/23 08:26:42.4    -178    -81     97    196    218 245.4  28.2  34028  287.33 0855.41
2009/04/23 08:26:42.5    -180    -35     69    184    196 258.8  21.5  34030  287.38 0855.41
2009/04/23 08:26:42.6     -27    -64    133     70    150 202.7  70.4  34032  287.40 0855.41
2009/04/23 08:26:42.7     -26    -78    197     83    213 198.7  76.1  34030  287.38 0855.41
2009/04/23 08:26:42.8     -41     46    102     62    119 318.6  66.2  34032  287.42 0855.41
2009/04/23 08:26:42.9      -3     84     37     85     92 357.3  25.1  34028  287.33 0855.41
2009/04/23 08:26:43.0     -55   -152    107    162    194 200.0  36.0  34030  287.37 0855.41
2009/04/23 08:26:43.1    -135   -103      8    170    171 232.7   2.8  34030  287.38 0855.41
2009/04/23 08:26:43.2    -108   -183    -76    213    227 210.7 -19.7  34030  287.38 0855.41
2009/04/23 08:26:43.3    -227   -116   -138    256    290 242.9 -35.2  34014  287.09 0855.41
2009/04/23 08:26:43.4    -273    -28    -29    275    277 264.1  -6.1  34018  287.16 0855.41
2009/04/23 08:26:43.5    -305     60    -77    311    321 281.2 -14.1  34020  287.19 0855.41
2009/04/23 08:26:43.6    -343    -16   -115    344    362 267.2 -23.6  34026  287.29 0855.41
2009/04/23 08:26:43.7    -271     11    -97    272    289 272.5 -19.7  34022  287.24 0855.42
2009/04/23 08:26:43.8    -176    -35   -115    180    213 258.8 -40.0  34022  287.23 0855.42
2009/04/23 08:26:43.9    -110    -74     70    133    150 235.8  29.8  34022  287.25 0855.42
2009/04/23 08:26:44.0    -134    -58    117    147    187 246.5  43.0  34028  287.35 0855.42
2009/04/23 08:26:44.1    -239      3     -2    240    241 270.8  -0.5  34020  287.21 0855.42
2009/04/23 08:26:44.2    -334    -40    -43    337    340 263.1  -7.4  34024  287.27 0855.42
2009/04/23 08:26:44.3    -327    153   -123    362    382 295.1 -23.5  34016  287.13 0855.42
2009/04/23 08:26:44.4    -358    137   -122    384    403 291.0 -17.7  34018  287.17 0855.42
2009/04/23 08:26:44.5    -367     70   -100    374    388 280.8 -15.0  34010  287.05 0855.42
2009/04/23 08:26:44.6    -361     67   -114    368    386 280.6 -17.3  34016  287.12 0855.42
2009/04/23 08:26:44.7    -341    135    -60    368    374 291.7  -9.3  34010  287.05 0855.42
2009/04/23 08:26:44.8    -295     69    -39    304    307 283.3  -7.5  34012  287.07 0855.42
2009/04/23 08:26:44.9    -296    104   -108    314    333 289.4 -19.0  34010  287.04 0855.42
2009/04/23 08:26:45.0    -295     57   -120    301    324 281.0 -27.3  34016  287.14 0855.42
2009/04/23 08:26:45.1    -240     14    -85    241    256 273.5 -19.4  34016  287.14 0855.42
2009/04/23 08:26:45.2    -313      6   -100    314    330 271.2 -17.7  34008  287.01 0855.42
2009/04/23 08:26:45.3    -315     66    -92    322    334 281.9 -20.7  34010  287.02 0855.42
2009/04/23 08:26:45.4    -284     44    -98    288    305 278.8 -18.9  34012  287.07 0855.42
2009/04/23 08:26:45.5    -232      3    -96    233    252 270.9 -28.0  34014  287.11 0855.42
2009/04/23 08:26:45.6    -221   -146   -132    266    296 236.5 -32.6  34024  287.26 0855.42
2009/04/23 08:26:45.7    -220    -59   -201    228    303 254.9 -50.2  34014  287.09 0855.42
2009/04/23 08:26:45.8    -274    -39   -103    277    295 261.9 -25.7  34016  287.14 0855.42
2009/04/23 08:26:45.9    -197     56     11    205    206 285.9   3.1  34016  287.13 0855.42
2009/04/23 08:26:46.0    -153     60    128    165    208 291.5  41.7  34014  287.11 0855.42
2009/04/23 08:26:46.1    -105     99     68    145    160 313.1  27.0  34018  287.16 0855.42
2009/04/23 08:26:46.2     -54     91    -18    107    109 329.3  -9.8  34018  287.18 0855.42
2009/04/23 08:26:46.3     -32     88     11     94     95 340.0   6.9  34014  287.10 0855.42
2009/04/23 08:26:46.4     -40     52    -14     66     68 322.2 -12.4  34018  287.16 0855.42
2009/04/23 08:26:46.5     -97     62   -113    116    161 302.4 -53.8  34016  287.13 0855.42
2009/04/23 08:26:46.6    -106     95   -108    143    179 311.8 -45.1  34014  287.11 0855.42
2009/04/23 08:26:46.7       2    162    -83    163    182   1.0 -33.7  34018  287.16 0855.42
2009/04/23 08:26:46.8     -61    150    -51    163    172 337.7 -17.6  34022  287.23 0855.42
2009/04/23 08:26:46.9    -137    172   -113    221    248 321.5 -33.6  34012  287.06 0855.42
2009/04/23 08:26:47.0    -268    170    -99    318    333 302.4 -22.3  34014  287.09 0855.42
2009/04/23 08:26:47.1    -393     61    -71    398    405 278.9 -10.1  34018  287.16 0855.42
2009/04/23 08:26:47.2    -315     41    -63    318    325 277.5 -11.3  34012  287.07 0855.42
2009/04/23 08:26:47.3    -235    200    -82    309    320 310.4 -15.0  34014  287.09 0855.42
2009/04/23 08:26:47.4    -244    183    -93    305    319 306.9 -17.0  34014  287.11 0855.42
2009/04/23 08:26:47.5    -213     92    -55    233    240 293.5 -13.4  34014  287.09 0855.42
2009/04/23 08:26:47.6    -182     96    -63    206    216 297.8 -17.0  34012  287.08 0855.42
2009/04/23 08:26:47.7    -165     99    -63    193    204 301.1 -18.1  34012  287.06 0855.42
2009/04/23 08:26:47.8    -149     78    -48    169    175 297.8 -20.4  34014  287.10 0855.42
2009/04/23 08:26:47.9    -111     86    -44    141    147 307.8 -22.3  34010  287.03 0855.42
2009/04/23 08:26:48.0    -198    169    -71    261    271 310.4 -15.4  34018  287.17 0855.42
2009/04/23 08:26:48.1    -231    187    -70    298    307 309.1 -13.3  34020  287.19 0855.42
2009/04/23 08:26:48.2    -180    159    -30    241    243 311.6  -7.3  34014  287.11 0855.42
2009/04/23 08:26:48.3    -190     62    -17    200    201 288.2  -5.1  34018  287.18 0855.42
2009/04/23 08:26:48.4    -185     82    -58    203    211 294.0 -20.7  34016  287.15 0855.42
2009/04/23 08:26:48.5    -208     89    -37    227    231 293.3  -9.3  34016  287.13 0855.42
2009/04/23 08:26:48.6    -177     74    -51    193    200 292.8 -15.0  34018  287.18 0855.42
2009/04/23 08:26:48.7    -173     55    -30    182    185 287.7  -9.3  34016  287.15 0855.42
2009/04/23 08:26:48.8    -179     25    -40    181    186 278.1 -12.6  34014  287.11 0855.42
2009/04/23 08:26:48.9    -278     92    -31    293    295 288.4  -6.2  34020  287.19 0855.42
2009/04/23 08:26:49.0    -333     40    -52    336    341 276.9  -8.9  34018  287.18 0855.42
2009/04/23 08:26:49.1    -457     47    -97    460    471 276.0 -11.9  34018  287.17 0855.42
2009/04/23 08:26:49.2    -452     -7    -31    453    455 269.0  -4.0  34016  287.14 0855.42
2009/04/23 08:26:49.3    -463    -57     56    467    471 262.9   6.9  34016  287.15 0855.42
2009/04/23 08:26:49.4    -390     -6    -40    391    394 269.1  -5.9  34016  287.12 0855.42
2009/04/23 08:26:49.5    -380    -17    -41    381    384 267.4  -6.3  34020  287.20 0855.42
2009/04/23 08:26:49.6    -325    -54    -56    330    335 260.6  -9.8  34016  287.15 0855.42
2009/04/23 08:26:49.7    -226   -111    -84    252    266 243.8 -18.6  34014  287.11 0855.42
2009/04/23 08:26:49.8     -71    -58     35     92     98 230.9  22.0  34016  287.13 0855.42
2009/04/23 08:26:49.9       2    -48    117     49    126 177.3  76.6  34016  287.13 0855.42
2009/04/23 08:26:50.0      54      7     81     55     97  82.1  63.2  34020  287.20 0855.42
2009/04/23 08:26:50.1     105    -21    107    108    152 101.4  50.0  34020  287.20 0855.42
2009/04/23 08:26:50.2      54      4     92     55    107  85.7  66.2  34018  287.18 0855.42
2009/04/23 08:26:50.3      92    -24     73     96    120 104.6  41.2  34020  287.21 0855.42
2009/04/23 08:26:50.4     135    -80     54    157    167 120.7  19.2  34018  287.16 0855.42
2009/04/23 08:26:50.5     123   -207    -75    241    252 149.3 -22.5  34016  287.12 0855.42
2009/04/23 08:26:50.6     131   -237     38    272    275 151.0   8.0  34014  287.09 0855.42
2009/04/23 08:26:50.7     102   -340     67    356    363 163.2  10.7  34016  287.12 0855.42
2009/04/23 08:26:50.8      76   -395    -15    403    404 169.1  -2.2  34016  287.14 0855.42
2009/04/23 08:26:50.9     -73   -433     71    440    446 189.6   9.2  34010  287.04 0855.42
2009/04/23 08:26:51.0      64   -379    -43    385    388 170.3  -6.5  34012  287.08 0855.42
2009/04/23 08:26:51.1     -11   -387    -21    388    389 181.7  -3.2  34010  287.02 0855.42
2009/04/23 08:26:51.2      17   -328      4    329    330 177.0   0.7  34012  287.08 0855.42
2009/04/23 08:26:51.3    -115   -300      2    322    323 201.0   0.4  34006  286.95 0855.42
2009/04/23 08:26:51.4    -132   -197     -1    238    239 213.8  -0.3  34002  286.90 0855.42
2009/04/23 08:26:51.5      79   -207    -79    222    236 159.1 -19.6  34008  287.01 0855.42
2009/04/23 08:26:51.6      63   -224    -51    233    239 164.2 -12.4  34006  286.95 0855.42
2009/04/23 08:26:51.7     127   -268    -96    297    313 154.5 -18.0  34010  287.02 0855.43
2009/04/23 08:26:51.8     127   -223    -89    257    271 150.4 -23.8  34010  287.04 0855.43
2009/04/23 08:26:51.9     123   -335   -141    358    384 159.8 -27.2  34010  287.02 0855.43
2009/04/23 08:26:52.0     -25   -237   -200    239    311 186.2 -48.2  34008  287.01 0855.43
2009/04/23 08:26:52.1     102   -216   -169    239    292 154.7 -43.2  34012  287.07 0855.43
2009/04/23 08:26:52.2     154   -324   -116    359    377 154.5 -23.2  34006  286.98 0855.43
2009/04/23 08:26:52.3     118   -294   -161    318    356 158.1 -33.5  34010  287.05 0855.43
2009/04/23 08:26:52.4     140   -236   -135    275    306 149.2 -32.4  34008  287.01 0855.43
2009/04/23 08:26:52.5     158   -258   -162    303    343 148.4 -34.9  34008  287.00 0855.43
2009/04/23 08:26:52.7     240     74   -193    252    317  72.7 -45.7  34010  287.04 0855.44
2009/04/23 08:26:52.7     232     57    -87    239    254  76.1 -25.3  34012  287.07 0855.44
2009/04/23 08:26:52.8     147    -85    -42    170    176 120.0 -13.9  34012  287.08 0855.44
2009/04/23 08:26:52.9     179    -58   -117    189    222 108.2 -39.6  34010  287.03 0855.44
2009/04/23 08:26:53.0     306     23    -93    307    320  85.6 -21.9  34012  287.07 0855.44
2009/04/23 08:26:53.1     260      4    -86    261    275  89.1 -18.3  34014  287.11 0855.44
2009/04/23 08:26:53.2     277     93    -59    293    299  71.4 -11.5  34010  287.02 0855.44
2009/04/23 08:26:53.3     213     85     17    230    231  68.2   4.4  34012  287.08 0855.44
2009/04/23 08:26:53.4     213     30     90    216    234  82.0  23.8  34010  287.05 0855.44
2009/04/23 08:26:53.5     142    -56     99    153    182 111.7  35.7  34016  287.13 0855.44
2009/04/23 08:26:53.6      89     -4    120     90    150  92.6  59.4  34016  287.15 0855.44
2009/04/23 08:26:53.7     109      6     17    110    112  86.5   9.0  34014  287.11 0855.44
2009/04/23 08:26:53.9     129    -62    -29    144    147 115.8 -11.5  34014  287.11 0855.44
2009/04/23 08:26:53.9     219    -87     85    236    250 111.7  20.2  34012  287.07 0855.44
2009/04/23 08:26:54.0     262   -124     79    291    302 115.4  15.3  34014  287.09 0855.44
2009/04/23 08:26:54.1     287   -114    106    309    327 111.7  19.1  34014  287.11 0855.44
2009/04/23 08:26:54.2     240    -64    182    249    308 105.1  39.7  34012  287.07 0855.44
2009/04/23 08:26:54.3     215   -133    185    254    314 121.8  39.8  34014  287.11 0855.44
2009/04/23 08:26:54.4      86      0    185     87    204  89.6  73.1  34010  287.05 0855.44
2009/04/23 08:26:54.5     108     30    189    113    220  74.1  66.7  34016  287.13 0855.44
2009/04/23 08:26:54.6      15    -32    143     36    147 154.6  85.9  34014  287.11 0855.44
2009/04/23 08:26:54.7      33     28    132     44    139  49.6  81.0  34012  287.08 0855.44
2009/04/23 08:26:54.8      65      4    116     66    133  86.5  67.2  34018  287.16 0855.44
2009/04/23 08:26:54.9     132    -99    112    165    199 126.9  37.6  34014  287.11 0855.44
2009/04/23 08:26:55.1     180    -82    100    198    221 114.6  29.1  34014  287.11 0855.44
2009/04/23 08:26:55.2      83   -122    100    148    178 145.7  37.3  34014  287.10 0855.44
2009/04/23 08:26:55.2      74   -135    118    155    194 151.1  41.2  34016  287.13 0855.44
2009/04/23 08:26:55.3     128    -99    113    163    198 127.8  38.0  34016  287.13 0855.44
2009/04/23 08:26:55.4     112    -81    107    139    175 126.0  41.7  34016  287.15 0855.44
2009/04/23 08:26:55.5     111   -102    137    151    203 132.7  47.5  34018  287.16 0855.44
2009/04/23 08:26:55.6     111    -98    132    149    199 131.3  46.2  34016  287.15 0855.44
2009/04/23 08:26:55.7      72    -72    131    102    166 135.0  58.2  34012  287.06 0855.44
2009/04/23 08:26:55.8      86     97    190    130    230  41.4  62.6  34022  287.23 0855.44
2009/04/23 08:26:55.9      24      0    116     25    118  90.0  88.5  34018  287.18 0855.44
2009/04/23 08:26:56.0      18     -3     87     19     89 101.5  88.0  34022  287.23 0855.44
2009/04/23 08:26:56.1      49    -60     87     78    116 140.4  53.3  34020  287.20 0855.44
2009/04/23 08:26:56.2      98    -56    140    113    179 119.8  56.9  34018  287.16 0855.44
2009/04/23 08:26:56.3      39   -146    104    152    184 164.8  37.6  34018  287.18 0855.44
2009/04/23 08:26:56.4      79   -197     75    213    226 158.1  19.4  34016  287.13 0855.44
2009/04/23 08:26:56.5      91   -185     10    207    208 153.9   2.8  34020  287.20 0855.44
2009/04/23 08:26:56.6     146    -36     80    151    170 104.2  30.1  34020  287.20 0855.44
2009/04/23 08:26:56.7     224   -197    104    299    317 131.4  19.2  34014  287.11 0855.43
2009/04/23 08:26:56.8     276   -319    118    423    440 139.1  15.7  34016  287.14 0855.43
2009/04/23 08:26:56.9     174   -287    182    336    382 148.8  30.9  34012  287.07 0855.43
2009/04/23 08:26:57.0     158   -212    181    265    320 143.3  37.6  34018  287.17 0855.43
2009/04/23 08:26:57.1     -16      5    138     17    139 288.6  90.0  34026  287.30 0855.43
2009/04/23 08:26:57.2     171   -166    146    239    280 134.2  34.4  34020  287.19 0855.43
2009/04/23 08:26:57.3     170   -205    156    267    309 140.3  33.1  34018  287.16 0855.43
2009/04/23 08:26:57.4     261   -113    200    285    348 113.5  38.6  34006  286.96 0855.43
2009/04/23 08:26:57.5     114    -53    180    126    219 115.2  61.5  34018  287.16 0855.43
2009/04/23 08:26:57.6      83   -225    123    240    269 159.7  29.2  34020  287.21 0855.43
2009/04/23 08:26:57.7     104   -272    140    292    323 159.0  27.3  34020  287.21 0855.43
2009/04/23 08:26:57.8      98   -172    162    199    256 150.4  43.7  34020  287.19 0855.43
2009/04/23 08:26:57.9      99   -247     66    267    276 158.1  13.9  34020  287.19 0855.43
2009/04/23 08:26:58.0     128   -305    105    331    348 157.2  17.7  34012  287.08 0855.43
2009/04/23 08:26:58.1     117   -316     99    338    353 159.7  16.3  34016  287.13 0855.43
2009/04/23 08:26:58.2     110   -249     23    273    275 156.2   4.9  34012  287.06 0855.43
2009/04/23 08:26:58.3      98   -219    137    240    276 155.9  32.3  34016  287.12 0855.43
2009/04/23 08:26:58.4     100   -160     51    189    196 147.9  15.2  34016  287.15 0855.43
2009/04/23 08:26:58.5      54   -120     45    132    140 155.5  18.9  34016  287.15 0855.43
2009/04/23 08:26:58.6      41    -78     61     89    107 151.9  37.6  34012  287.08 0855.43
2009/04/23 08:26:58.7     112   -116     71    162    176 136.1  25.1  34018  287.16 0855.41
2009/04/23 08:26:58.8     159   -143     26    215    217 132.0   7.1  34014  287.10 0855.41
2009/04/23 08:26:58.9     165   -155     27    227    229 133.2   6.9  34016  287.15 0855.41
2009/04/23 08:26:59.0     178   -157     35    238    241 131.6   8.5  34018  287.16 0855.41
2009/04/23 08:26:59.1     191   -135     24    235    237 125.3   5.9  34016  287.12 0855.41
2009/04/23 08:26:59.2     131   -124     58    181    191 133.6  17.9  34018  287.16 0855.41
2009/04/23 08:26:59.3      41   -121    134    128    185 161.3  51.4  34022  287.25 0855.41
2009/04/23 08:26:59.4     -65   -140    124    155    198 204.9  42.7  34018  287.18 0855.41
2009/04/23 08:26:59.5      -4     -9     52     11     53 205.4  89.0  34018  287.18 0855.41
2009/04/23 08:26:59.6       0    -48     54     49     72 180.0  52.2  34018  287.16 0855.41
2009/04/23 08:26:59.7       0    -63    -32     64     71 180.9 -31.7  34016  287.15 0855.41
2009/04/23 08:26:59.8      47    -79    -52     92    105 149.3 -36.3  34018  287.16 0855.41
2009/04/23 08:26:59.9      17   -105    -57    107    121 170.7 -34.7  34016  287.15 0855.41
2009/04/23 08:27:00.0      73   -182    -57    197    205 158.1 -21.5  34014  287.11 0855.41
2009/04/23 08:27:00.1      97   -204    -78    227    240 154.5 -24.0  34018  287.17 0855.41
2009/04/23 08:27:00.2     102   -158   -114    189    220 147.0 -38.1  34018  287.16 0855.41
2009/04/23 08:27:00.3      49   -165   -111    173    205 163.5 -40.0  34012  287.08 0855.41
2009/04/23 08:27:00.4      60   -201    -74    210    222 163.3 -24.4  34012  287.08 0855.41
2009/04/23 08:27:00.5       2   -151    -32    152    156 179.0 -12.2  34016  287.15 0855.41
2009/04/23 08:27:00.6     -14   -137     -7    138    139 186.2  -3.1  34014  287.11 0855.41
2009/04/23 08:27:00.7     -33   -192     81    195    211 189.8  23.8  34016  287.13 0855.38
2009/04/23 08:27:00.8     -43   -157     76    163    179 195.4  27.0  34016  287.15 0855.38
2009/04/23 08:27:00.9      69   -179      0    192    193 158.8  -0.3  34014  287.10 0855.38
2009/04/23 08:27:01.0      87   -136     12    162    163 147.4   4.2  34016  287.13 0855.38
2009/04/23 08:27:01.1      71    -62     34     95    100 130.9  20.0  34012  287.08 0855.38
2009/04/23 08:27:01.2      30    -90     32     96    102 161.3  18.4  34014  287.11 0855.38
2009/04/23 08:27:01.3      60   -104    -14    121    122 150.1  -6.7  34016  287.13 0855.38
2009/04/23 08:27:01.4      50    -77     38     93    100 147.0  23.1  34018  287.16 0855.38
2009/04/23 08:27:01.5      62    -71     42     95    103 139.0  25.1  34014  287.11 0855.38
2009/04/23 08:27:01.6      96    -53     50    110    120 118.9  26.2  34016  287.15 0855.38
2009/04/23 08:27:01.7      98    -97    103    139    173 134.8  40.1  34010  287.03 0855.38
2009/04/23 08:27:01.8      41    -65    103     78    129 147.5  59.0  34012  287.08 0855.38
2009/04/23 08:27:01.9     -47    -41     74     63     97 228.7  55.4  34014  287.11 0855.38
2009/04/23 08:27:02.0      50      7     49     51     70  81.2  49.0  34016  287.15 0855.38
2009/04/23 08:27:02.1      38    -96     48    104    114 158.1  27.1  34014  287.11 0855.38
2009/04/23 08:27:02.2      -1   -119    -36    120    125 180.9 -21.8  34012  287.08 0855.38
2009/04/23 08:27:02.3     -28   -182     58    185    194 188.9  17.4  34012  287.08 0855.38
2009/04/23 08:27:02.4       0   -243     81    244    258 179.9  18.5  34014  287.09 0855.38
2009/04/23 08:27:02.5      -5   -285     81    286    298 181.1  15.8  34014  287.09 0855.38
2009/04/23 08:27:02.6       0   -289     96    290    306 180.0  18.5  34012  287.06 0855.38
2009/04/23 08:27:02.7    -101   -215     80    238    252 205.2  18.6  34008  287.01 0855.37
2009/04/23 08:27:02.8     -63   -207     58    217    225 197.0  15.0  34010  287.03 0855.37
2009/04/23 08:27:02.9     -84   -329    191    340    389 194.4  31.9  34006  286.95 0855.37
2009/04/23 08:27:03.0    -125   -199     -4    235    236 212.1  -1.2  34008  287.01 0855.37
2009/04/23 08:27:03.1     -62   -182     85    193    210 198.9  25.2  34010  287.05 0855.37
2009/04/23 08:27:03.2     -73   -275     95    285    301 194.9  18.5  34010  287.02 0855.37
2009/04/23 08:27:03.3    -126   -279     11    307    308 204.3   2.1  34004  286.92 0855.37
2009/04/23 08:27:03.4    -172   -270     43    321    324 212.5   7.8  34000  286.87 0855.37
2009/04/23 08:27:03.5    -179   -185     92    258    273 224.1  20.4  34006  286.95 0855.37
2009/04/23 08:27:03.6    -117   -160    117    199    230 216.1  33.5  34010  287.03 0855.37
2009/04/23 08:27:03.7     -35   -189    189    193    270 190.5  49.8  34010  287.04 0855.37
2009/04/23 08:27:03.8      33   -166    169    170    239 168.7  50.0  34010  287.03 0855.37
2009/04/23 08:27:03.9      38   -189    143    193    240 168.5  40.4  34008  287.01 0855.37
2009/04/23 08:27:04.0      23   -147     71    149    165 171.1  27.4  34010  287.03 0855.37
2009/04/23 08:27:04.1     -57   -176    118    186    220 198.0  35.5  34006  286.98 0855.37
2009/04/23 08:27:04.2      -3   -226     84    227    242 180.9  21.0  34014  287.11 0855.37
2009/04/23 08:27:04.3     -17   -228    115    229    256 184.5  28.5  34012  287.06 0855.37
2009/04/23 08:27:04.4     -30   -229     -5    232    233 187.6  -1.3  34004  286.93 0855.37
2009/04/23 08:27:04.5     -95   -182     11    206    207 207.6   3.3  34010  287.03 0855.37
2009/04/23 08:27:04.6    -132   -161     47    209    215 219.2  12.9  34012  287.06 0855.37
2009/04/23 08:27:04.7    -199   -126    106    236    258 237.5  26.2  34012  287.07 0855.37
2009/04/23 08:27:04.8    -149    -33    139    153    206 257.2  47.1  34012  287.08 0855.37
2009/04/23 08:27:04.9    -243     71     45    254    259 286.4  10.1  34012  287.07 0855.37
2009/04/23 08:27:05.1    -142     92    -23    170    172 302.9  -7.7  34012  287.06 0855.37
2009/04/23 08:27:05.2      12    -36    118     38    123 161.5  80.7  34012  287.06 0855.37
2009/04/23 08:27:05.3     -84    -84     65    120    136 225.0  30.8  34016  287.15 0855.37
2009/04/23 08:27:05.4     -62    -96    -31    115    120 213.0 -15.0  34016  287.13 0855.37
2009/04/23 08:27:05.5     -21   -121    -36    123    128 190.2 -21.2  34016  287.15 0855.37
2009/04/23 08:27:05.6    -162   -103    -64    193    203 237.6 -23.8  34018  287.16 0855.37
2009/04/23 08:27:05.7    -135   -118    -83    180    198 228.9 -30.8  34016  287.15 0855.37
2009/04/23 08:27:05.8    -154   -120    -54    196    204 232.0 -15.5  34016  287.13 0855.37
2009/04/23 08:27:05.9    -110    -90    -91    143    169 230.5 -39.9  34014  287.11 0855.37
2009/04/23 08:27:06.0    -145   -152   -115    211    240 223.7 -35.4  34018  287.18 0855.37
2009/04/23 08:27:06.1    -174   -180    -65    251    260 223.9 -14.7  34016  287.14 0855.37
2009/04/23 08:27:06.2    -188    -88   -108    208    234 244.9 -33.9  34016  287.15 0855.37
2009/04/23 08:27:06.3    -157   -130   -130    204    241 230.4 -40.0  34016  287.15 0855.37
2009/04/23 08:27:06.4     -89   -190   -125    210    244 205.2 -37.9  34020  287.21 0855.37
2009/04/23 08:27:06.5     -46   -181   -113    187    218 194.5 -38.4  34020  287.21 0855.37
2009/04/23 08:27:06.6     -82   -209   -100    225    246 201.6 -30.1  34018  287.17 0855.37
2009/04/23 08:27:06.7     -63   -216    -74    226    238 196.3 -18.3  34018  287.16 0855.37
2009/04/23 08:27:06.8     -47   -216    -54    222    229 192.3 -13.7  34022  287.23 0855.37
2009/04/23 08:27:06.9     -14   -184    -31    185    188 184.5  -9.6  34022  287.25 0855.37
2009/04/23 08:27:07.0     -11   -175    -47    176    183 183.8 -15.2  34026  287.32 0855.37
2009/04/23 08:27:07.1     -47   -207    -26    213    215 192.9  -7.2  34028  287.33 0855.37
2009/04/23 08:27:07.2     -21   -205    -31    207    210 186.0  -8.6  34030  287.37 0855.37
2009/04/23 08:27:07.3     -17   -198    -11    199    200 185.1  -3.3  34028  287.35 0855.37
2009/04/23 08:27:07.4     -69   -257      7    267    268 195.1   1.6  34020  287.21 0855.37
2009/04/23 08:27:07.5     -64   -267     -1    275    276 193.6  -0.3  34018  287.16 0855.37
2009/04/23 08:27:07.6     -88   -266     13    281    282 198.5   2.8  34018  287.17 0855.37
2009/04/23 08:27:07.7    -101   -184      0    211    212 208.9   0.0  34016  287.13 0855.37
2009/04/23 08:27:07.8    -154   -207    -23    259    261 216.7  -5.1  34020  287.21 0855.37
2009/04/23 08:27:07.9    -132   -265     -9    297    298 206.5  -1.8  34016  287.12 0855.37
2009/04/23 08:27:08.0    -174   -187    -37    256    259 223.0  -8.3  34014  287.11 0855.37
2009/04/23 08:27:08.1    -160   -104    -57    191    200 236.9 -16.8  34016  287.13 0855.37
2009/04/23 08:27:08.2     -86   -127      7    154    155 214.2   2.8  34018  287.18 0855.37
2009/04/23 08:27:08.3    -101    -64    -52    120    130 237.5 -29.5  34020  287.20 0855.37
2009/04/23 08:27:08.4     -95    -95    -94    135    164 225.0 -42.4  34018  287.18 0855.37
2009/04/23 08:27:08.5     -80    -92   -162    123    203 221.0 -63.6  34018  287.18 0855.37
2009/04/23 08:27:08.6     -54    -85    -87    102    134 212.6 -49.2  34012  287.06 0855.37
2009/04/23 08:27:08.7     -70   -150    -56    166    176 205.2 -18.7  34020  287.20 0855.37
2009/04/23 08:27:08.8     -75   -186    -72    201    214 202.1 -19.7  34018  287.16 0855.38
2009/04/23 08:27:08.9    -132   -182    -45    226    231 216.0 -11.5  34020  287.20 0855.38
2009/04/23 08:27:09.0    -172   -220    -44    280    284 218.1  -9.0  34016  287.12 0855.38
2009/04/23 08:27:09.1    -161   -227    -24    279    281 215.4  -5.1  34018  287.16 0855.38
2009/04/23 08:27:09.2    -168   -225    -40    282    285 216.7  -8.2  34018  287.16 0855.38
2009/04/23 08:27:09.3    -111   -248    -64    272    280 204.1 -13.4  34020  287.19 0855.38
2009/04/23 08:27:09.4    -108   -180    -12    211    212 211.0  -3.3  34016  287.13 0855.38
2009/04/23 08:27:09.5    -126   -237     42    269    273 208.0   9.0  34016  287.14 0855.38
2009/04/23 08:27:09.6    -118   -270     48    295    300 203.7   9.3  34018  287.16 0855.38
2009/04/23 08:27:09.7    -126   -226     58    259    266 209.2  12.6  34020  287.19 0855.38
2009/04/23 08:27:09.8    -151   -166     99    225    245 222.3  25.3  34020  287.21 0855.38
2009/04/23 08:27:09.9    -203   -184     53    275    281 227.8  11.0  34022  287.22 0855.38
2009/04/23 08:27:10.0    -208   -208     46    295    299 225.0   9.0  34022  287.22 0855.38
2009/04/23 08:27:10.1    -183   -212     44    281    285 220.8   9.0  34020  287.19 0855.38
2009/04/23 08:27:10.2    -150   -162     35    221    224 222.8   9.0  34020  287.20 0855.38
2009/04/23 08:27:10.3     -91   -144     15    171    172 212.5   5.2  34024  287.27 0855.38
2009/04/23 08:27:10.4    -112    -59     58    127    139 242.0  26.6  34024  287.27 0855.38
2009/04/23 08:27:10.5    -214    -48     91    220    238 257.2  23.8  34022  287.23 0855.38
2009/04/23 08:27:10.6    -187    -45     75    193    207 256.3  22.5  34022  287.25 0855.38
2009/04/23 08:27:10.7    -196    -55     41    204    209 254.1  11.4  34022  287.23 0855.38
2009/04/23 08:27:10.8    -171    -13    105    172    201 265.7  34.2  34020  287.21 0855.37
2009/04/23 08:27:10.9    -126     22     99    128    161 280.1  41.7  34022  287.25 0855.37
2009/04/23 08:27:11.0     -74     54     75     92    118 306.0  43.7  34020  287.20 0855.37
2009/04/23 08:27:11.1     -71     24      9     76     77 289.1   6.9  34024  287.27 0855.37
2009/04/23 08:27:11.2     -96     51    -22    109    112 298.0 -11.3  34020  287.21 0855.37
2009/04/23 08:27:11.3    -118     18     10    120    121 278.8   5.0  34022  287.25 0855.37
2009/04/23 08:27:11.4    -101     16     85    103    133 279.2  43.7  34022  287.23 0855.37
2009/04/23 08:27:11.5    -108    -18     74    110    132 260.3  37.0  34020  287.20 0855.37
2009/04/23 08:27:11.6     -72    -34     95     80    124 244.8  55.8  34020  287.20 0855.37
2009/04/23 08:27:11.7    -109    -42     92    117    148 248.7  42.2  34020  287.20 0855.37
2009/04/23 08:27:11.8    -103     -7     91    104    138 265.6  45.8  34018  287.18 0855.37
2009/04/23 08:27:11.9    -126    -55     83    138    161 246.5  33.7  34020  287.21 0855.37
2009/04/23 08:27:12.0    -107    -43     87    116    145 248.2  40.1  34020  287.21 0855.37
2009/04/23 08:27:12.1    -126    -78     52    149    157 238.0  20.0  34024  287.27 0855.37
2009/04/23 08:27:12.2     -95    -37     22    102    105 248.7  12.2  34024  287.27 0855.37
2009/04/23 08:27:12.3     -90     -1     65     91    111 269.2  39.5  34022  287.23 0855.37
2009/04/23 08:27:12.4    -105    -42     91    114    145 248.3  42.7  34018  287.18 0855.37
2009/04/23 08:27:12.5     -94    -25     90     98    133 254.9  47.9  34024  287.27 0855.37
2009/04/23 08:27:12.6       0    -68     46     69     82 180.0  37.0  34024  287.28 0855.37
2009/04/23 08:27:12.7      -7    -63      3     64     65 187.1   2.9  34022  287.25 0855.37
2009/04/23 08:27:12.8    -123    -66     26    140    143 241.6  10.6  34024  287.27 0855.35
2009/04/23 08:27:12.9    -110    -57     -5    125    126 242.5  -2.6  34020  287.21 0855.35
2009/04/23 08:27:13.0     -74      0     49     75     89 270.0  36.0  34018  287.18 0855.35
2009/04/23 08:27:13.1     -47     25     52     54     74 298.0  51.1  34022  287.25 0855.35
2009/04/23 08:27:13.2     -47     26     27     54     60 298.9  28.2  34022  287.23 0855.35
2009/04/23 08:27:13.3      -1     33     20     34     39 357.4  33.5  34020  287.20 0855.35
2009/04/23 08:27:13.4      13     45     13     48     50  16.9  15.3  34020  287.20 0855.35
2009/04/23 08:27:13.5      -2     67     22     68     72 358.2  18.4  34018  287.18 0855.35
2009/04/23 08:27:13.6     -30     64     49     71     86 334.6  38.0  34018  287.18 0855.35
2009/04/23 08:27:13.7     -19     55     61     59     84 340.8  50.1  34020  287.20 0855.35
2009/04/23 08:27:13.8     -54     69     42     88     97 321.7  27.2  34020  287.21 0855.33
2009/04/23 08:27:13.9     -69     75     27    103    107 317.2  14.7  34020  287.20 0855.33
2009/04/23 08:27:14.0    -100     36      5    107    108 290.0   2.8  34018  287.18 0855.33
2009/04/23 08:27:14.1     -82     39     -3     92     93 295.8  -2.2  34018  287.18 0855.33
2009/04/23 08:27:14.2     -48     31    -21     58     61 302.4 -24.4  34020  287.20 0855.33
2009/04/23 08:27:14.3     -18      6      8     20     21 290.0  23.0  34020  287.20 0855.33
2009/04/23 08:27:14.4     -22      0     17     23     28 270.0  41.7  34020  287.20 0855.33
2009/04/23 08:27:14.5     -22      0     17     23     28 270.0  41.7  34020  287.20 0855.33
2009/04/23 08:27:14.6       1     -8      1      9     10 168.4  11.1  34022  287.23 0855.33
2009/04/23 08:27:14.7      -1    -42      2     43     44 181.8   2.9  34022  287.23 0855.33
2009/04/23 08:27:14.8      16    -71    -13     73     75 166.6 -10.3  34020  287.21 0855.33
2009/04/23 08:27:14.9      29    -88     -6     93     94 161.3  -3.7  34022  287.23 0855.33
2009/04/23 08:27:15.0      37    -65     -4     76     77 150.1  -3.1  34020  287.21 0855.33
2009/04/23 08:27:15.1      26    -56     26     62     67 154.6  23.1  34020  287.20 0855.33
2009/04/23 08:27:15.2      -7    -36     45     37     58 191.6  56.3  34020  287.21 0855.33
2009/04/23 08:27:15.3     -61    -39     38     73     82 237.6  29.3  34020  287.21 0855.33
2009/04/23 08:27:15.4     -19    -43     16     48     51 203.6  18.9  34020  287.21 0855.33
2009/04/23 08:27:15.5     -47    -80     18     94     96 210.7  11.1  34020  287.20 0855.33
2009/04/23 08:27:15.6    -117    -98      7    153    154 230.0   2.8  34018  287.18 0855.33
2009/04/23 08:27:15.7     -99   -105     -7    145    146 223.3  -3.1  34020  287.20 0855.33
2009/04/23 08:27:15.8     -90    -90    -26    128    131 225.0 -11.5  34020  287.21 0855.33
2009/04/23 08:27:15.9    -100    -82     37    130    136 230.5  15.8  34018  287.16 0855.33
2009/04/23 08:27:16.0     -71    -92     53    117    128 217.4  26.2  34020  287.20 0855.33
2009/04/23 08:27:16.1     -68   -124     22    142    144 208.9   9.0  34020  287.21 0855.33
2009/04/23 08:27:16.2     -71   -126      7    145    146 209.4   2.9  34020  287.20 0855.33
2009/04/23 08:27:16.3     -75   -136     17    156    158 208.9   6.5  34020  287.20 0855.33
2009/04/23 08:27:16.4     -85   -125     65    152    165 214.2  24.3  34014  287.11 0855.33
2009/04/23 08:27:16.5    -193    -58    -52    202    209 253.2 -14.7  34014  287.10 0855.33
2009/04/23 08:27:16.6    -195    -33    -43    198    203 260.3 -12.4  34012  287.06 0855.33
2009/04/23 08:27:16.7    -149    -11    -45    150    157 265.6 -17.0  34008  287.01 0855.33
2009/04/23 08:27:16.8    -172     19    -54    174    182 276.4 -22.5  34012  287.06 0855.33
2009/04/23 08:27:16.9    -175     35    -86    179    198 281.5 -31.8  34018  287.18 0855.33
2009/04/23 08:27:17.0    -152     23    -99    154    183 278.8 -40.0  34020  287.21 0855.33
2009/04/23 08:27:17.1    -145     11    -99    146    176 274.4 -41.7  34018  287.18 0855.33
2009/04/23 08:27:17.2    -137     27    -90    140    166 281.4 -40.1  34018  287.16 0855.33
2009/04/23 08:27:17.3    -134    -10   -131    135    188 265.6 -53.6  34016  287.15 0855.33
2009/04/23 08:27:17.4    -166    -81   -106    185    213 244.0 -37.1  34022  287.23 0855.33
2009/04/23 08:27:17.5    -176   -106   -113    206    234 238.9 -35.4  34016  287.15 0855.33
2009/04/23 08:27:17.6    -185   -144    -70    235    246 232.0 -16.6  34014  287.11 0855.33
2009/04/23 08:27:17.7    -181   -142    -80    231    244 231.8 -24.0  34020  287.21 0855.33
2009/04/23 08:27:17.8    -198    -82    -75    215    228 247.6 -19.4  34018  287.16 0855.34
2009/04/23 08:27:17.9    -211    -55   -111    219    245 255.4 -33.1  34020  287.21 0855.34
2009/04/23 08:27:18.0    -229    -48    -98    235    254 258.1 -28.5  34020  287.21 0855.34
2009/04/23 08:27:18.1    -188    -20    -44    190    196 263.9 -13.2  34014  287.11 0855.34
2009/04/23 08:27:18.2    -181    -47    -65    188    199 255.2 -19.1  34018  287.16 0855.34
2009/04/23 08:27:18.3    -219    -54   -102    226    247 256.1 -30.6  34024  287.26 0855.34
2009/04/23 08:27:18.4    -246    -55    -74    253    264 257.2 -16.4  34022  287.22 0855.34
2009/04/23 08:27:18.5    -200    -29    -72    203    216 261.6 -19.6  34024  287.27 0855.34
2009/04/23 08:27:18.6    -184    -78    -71    200    212 246.9 -24.6  34026  287.30 0855.34
2009/04/23 08:27:18.7    -252   -104    -76    273    283 247.4 -20.2  34016  287.12 0855.34
2009/04/23 08:27:18.8    -254    -87    -92    269    284 251.0 -23.6  34012  287.06 0855.34
2009/04/23 08:27:18.9    -245    -98    -86    265    278 248.2 -23.0  34014  287.11 0855.34
2009/04/23 08:27:19.0    -233    -94    -77    252    263 248.0 -22.1  34016  287.12 0855.34
2009/04/23 08:27:19.1    -206   -133    -44    246    251 237.1 -10.3  34022  287.24 0855.34
2009/04/23 08:27:19.2    -206   -131    -63    245    254 237.6 -14.5  34024  287.26 0855.34
2009/04/23 08:27:19.3    -235   -144    -89    276    289 238.5 -23.0  34022  287.22 0855.34
2009/04/23 08:27:19.4    -194   -125    -67    232    241 237.1 -20.8  34018  287.17 0855.34
2009/04/23 08:27:19.5    -161   -122    -65    203    214 232.9 -17.9  34016  287.13 0855.34
2009/04/23 08:27:19.6    -136   -128    -81    188    204 226.7 -29.3  34016  287.15 0855.34
2009/04/23 08:27:19.7    -113   -122    -75    167    183 222.8 -30.1  34016  287.15 0855.34
2009/04/23 08:27:19.8    -114   -132    -59    175    184 220.8 -23.3  34018  287.16 0855.32
2009/04/23 08:27:19.9     -73   -138    -56    157    166 208.1 -24.6  34018  287.18 0855.32
2009/04/23 08:27:20.0     -78   -147    -46    167    174 208.1 -15.5  34020  287.20 0855.32
2009/04/23 08:27:20.1     -66   -241    -46    251    256 195.4 -10.4  34020  287.21 0855.32
2009/04/23 08:27:20.2     -45   -214     16    219    220 192.0   4.2  34020  287.20 0855.32
2009/04/23 08:27:20.3     -58   -206     19    215    216 195.8   5.2  34022  287.23 0855.32
2009/04/23 08:27:20.4     -84   -234     10    249    250 200.0   2.5  34018  287.16 0855.32
2009/04/23 08:27:20.5    -203   -232    -30    309    311 221.2  -5.6  34014  287.09 0855.32
2009/04/23 08:27:20.6    -155   -212    -43    263    267 216.1  -9.4  34014  287.09 0855.32
2009/04/23 08:27:20.7    -126   -183    -83    223    237 214.7 -25.7  34020  287.21 0855.32
2009/04/23 08:27:20.8    -117   -176   -106    212    237 213.8 -33.1  34024  287.27 0855.32
2009/04/23 08:27:20.9    -137   -169    -92    218    236 219.0 -28.6  34020  287.21 0855.32
2009/04/23 08:27:21.0    -119   -186    -61    222    231 212.6 -15.5  34020  287.21 0855.32
2009/04/23 08:27:21.1    -139   -168    -64    219    229 219.7 -16.4  34024  287.27 0855.32
2009/04/23 08:27:21.2    -149   -148    -50    211    217 225.3 -13.4  34022  287.23 0855.32
2009/04/23 08:27:21.3    -150   -120    -24    193    195 231.4  -7.2  34026  287.30 0855.32
2009/04/23 08:27:21.4    -163   -119    -17    203    204 233.8  -4.9  34026  287.32 0855.32
2009/04/23 08:27:21.5    -154   -100    -56    185    193 236.9 -22.1  34028  287.35 0855.32
2009/04/23 08:27:21.6    -106    -99    -49    146    154 226.8 -23.6  34028  287.35 0855.32
2009/04/23 08:27:21.7     -73   -132    -13    151    152 209.0  -5.2  34026  287.30 0855.32
2009/04/23 08:27:21.8     -95   -115    -41    150    156 219.6 -15.5  34022  287.25 0855.33
2009/04/23 08:27:21.9     -73   -102    -38    126    131 215.6 -21.8  34024  287.27 0855.33
2009/04/23 08:27:22.0     -83   -100    -14    131    132 219.6  -6.2  34024  287.28 0855.33
2009/04/23 08:27:22.1     -84    -95    -18    127    129 221.4  -8.2  34026  287.32 0855.33
2009/04/23 08:27:22.2     -73   -119    -33    140    144 211.6 -13.3  34024  287.27 0855.33
2009/04/23 08:27:22.3     -61   -112    -40    128    135 208.5 -17.5  34020  287.20 0855.33
2009/04/23 08:27:22.4     -44   -119    -65    128    143 200.5 -33.6  34024  287.28 0855.33
2009/04/23 08:27:22.5     -50   -106    -74    118    139 205.5 -39.9  34024  287.27 0855.33
2009/04/23 08:27:22.6     -45    -70    -84     84    118 212.5 -54.5  34020  287.20 0855.33
2009/04/23 08:27:22.7     -75    -71    -43    104    112 226.8 -27.5  34020  287.20 0855.33
2009/04/23 08:27:22.8    -110    -36    -51    116    126 251.6 -29.5  34022  287.23 0855.33
2009/04/23 08:27:22.9    -108    -37    -35    115    120 250.9 -21.8  34022  287.25 0855.33
2009/04/23 08:27:23.0    -110    -24    -52    113    124 257.2 -31.0  34020  287.21 0855.33
2009/04/23 08:27:23.1     -95    -31    -41    100    108 251.8 -27.4  34020  287.21 0855.33
2009/04/23 08:27:23.2     -98    -50    -42    111    118 242.9 -25.9  34022  287.23 0855.33
2009/04/23 08:27:23.3    -115    -95    -47    150    158 230.5 -17.6  34022  287.23 0855.33
2009/04/23 08:27:23.4    -180    -96    -67    205    216 241.8 -18.3  34022  287.25 0855.33
2009/04/23 08:27:23.5    -172    -93    -69    196    207 241.6 -24.4  34020  287.21 0855.33
2009/04/23 08:27:23.6    -148    -93    -92    176    198 237.8 -34.2  34020  287.20 0855.33
2009/04/23 08:27:23.7    -143    -91    -88    170    191 237.5 -33.9  34016  287.15 0855.33
2009/04/23 08:27:23.8    -140    -78   -106    161    192 240.7 -40.4  34016  287.13 0855.34
2009/04/23 08:27:23.9    -125    -92    -93    156    181 233.6 -37.9  34014  287.11 0855.34
2009/04/23 08:27:24.0     -97   -115   -115    151    189 220.1 -45.6  34016  287.13 0855.34
2009/04/23 08:27:24.1    -103   -116   -121    156    197 221.5 -46.1  34018  287.16 0855.34
2009/04/23 08:27:24.2    -113    -90   -120    145    188 231.4 -48.2  34020  287.21 0855.34
2009/04/23 08:27:24.3    -146    -75   -133    165    211 242.9 -47.9  34020  287.20 0855.34
2009/04/23 08:27:24.4    -126    -60   -144    140    200 244.6 -55.1  34018  287.16 0855.34
2009/04/23 08:27:24.5    -101    -41   -144    110    181 247.8 -63.1  34022  287.23 0855.34
2009/04/23 08:27:24.6    -126    -47   -147    135    199 249.2 -57.1  34020  287.20 0855.34
2009/04/23 08:27:24.7    -130    -87   -157    157    222 235.9 -54.5  34018  287.18 0855.34
2009/04/23 08:27:24.8    -193   -127   -171    232    288 236.7 -44.3  34016  287.12 0855.34
2009/04/23 08:27:24.9    -184    -91   -115    206    235 243.6 -35.8  34010  287.05 0855.34
2009/04/23 08:27:25.0    -120    -84   -103    147    179 234.9 -43.0  34014  287.10 0855.34
2009/04/23 08:27:25.1    -149   -101   -105    181    209 235.8 -37.3  34014  287.11 0855.34
2009/04/23 08:27:25.2    -143   -128   -104    193    219 228.2 -35.2  34016  287.13 0855.34
2009/04/23 08:27:25.3    -141   -170    -79    222    236 219.7 -19.6  34014  287.10 0855.34
2009/04/23 08:27:25.4    -155    -48    -72    163    178 252.7 -29.5  34014  287.10 0855.34
2009/04/23 08:27:25.5    -173    -57    -87    183    202 251.8 -31.6  34012  287.08 0855.34
2009/04/23 08:27:25.6    -178   -118    -85    214    230 236.3 -27.4  34012  287.08 0855.34
2009/04/23 08:27:25.7    -196   -212    -83    289    301 222.8 -16.0  34012  287.07 0855.34
2009/04/23 08:27:25.8    -208   -220    -83    304    316 223.4 -15.4  34016  287.12 0855.35
2009/04/23 08:27:25.9    -215   -178    -87    280    293 230.4 -22.1  34010  287.04 0855.35
2009/04/23 08:27:26.0    -165   -223    -51    278    283 216.5 -10.5  34010  287.04 0855.35
2009/04/23 08:27:26.1    -208   -172    -75    271    282 230.4 -15.5  34012  287.06 0855.35
2009/04/23 08:27:26.2    -247   -178    -68    305    313 234.1 -12.6  34012  287.07 0855.35
2009/04/23 08:27:26.3    -209   -174    -92    273    289 230.2 -18.7  34018  287.16 0855.35
2009/04/23 08:27:26.4    -206   -170    -81    268    279 230.5 -21.7  34016  287.12 0855.35
2009/04/23 08:27:26.5    -187   -168    -89    252    268 228.0 -19.4  34016  287.14 0855.35
2009/04/23 08:27:26.6    -211   -169    -82    271    283 231.3 -21.7  34014  287.09 0855.35
2009/04/23 08:27:26.7    -183   -178    -53    256    262 225.8 -11.9  34014  287.09 0855.35
2009/04/23 08:27:26.8    -199   -138    -79    243    255 235.1 -23.3  34012  287.07 0855.35
2009/04/23 08:27:26.9    -195    -86    -70    214    226 246.0 -18.1  34010  287.03 0855.35
2009/04/23 08:27:27.0    -195    -38    -25    199    201 258.8  -7.3  34014  287.11 0855.35
2009/04/23 08:27:27.1    -164    -75    -64    181    191 245.2 -24.4  34014  287.11 0855.35
2009/04/23 08:27:27.2    -138    -55    -48    149    156 248.2 -23.8  34014  287.11 0855.35
2009/04/23 08:27:27.3     -89    -28    -37     94    101 252.3 -27.4  34012  287.06 0855.35
2009/04/23 08:27:27.4    -124    -63     26    140    143 242.9  10.6  34016  287.13 0855.35
2009/04/23 08:27:27.5    -103    -47     76    114    137 245.2  37.0  34014  287.10 0855.35
2009/04/23 08:27:27.6    -159    -54     10    169    170 251.2   3.6  34016  287.13 0855.35
2009/04/23 08:27:27.7    -203    -21    -56    205    213 263.9 -15.4  34016  287.15 0855.35
2009/04/23 08:27:27.8    -274      0     -3    275    276 269.9  -0.7  34008  286.99 0855.36
2009/04/23 08:27:27.9    -288    -26     62    290    297 264.8  12.1  34014  287.09 0855.36
2009/04/23 08:27:28.0    -170    -88    111    192    221 242.5  32.9  34012  287.06 0855.36
2009/04/23 08:27:28.1     -50   -144    132    153    202 199.2  45.6  34012  287.08 0855.36
2009/04/23 08:27:28.2     -96   -140    -49    170    176 214.5 -20.4  34014  287.11 0855.36
2009/04/23 08:27:28.3    -115   -122   -128    168    211 223.4 -45.8  34018  287.16 0855.36
2009/04/23 08:27:28.4    -192   -123    -88    229    245 237.4 -26.4  34020  287.19 0855.36
2009/04/23 08:27:28.5    -219   -128   -150    254    294 239.6 -37.8  34016  287.12 0855.36
2009/04/23 08:27:28.6    -122   -196    -46    231    236 211.9 -11.5  34016  287.12 0855.36
2009/04/23 08:27:28.7    -103   -161    -51    192    199 212.5 -15.0  34018  287.18 0855.36
2009/04/23 08:27:28.8     -58   -132    -48    145    152 203.6 -23.8  34016  287.13 0855.36
2009/04/23 08:27:28.9    -122    -57     -5    135    136 244.8  -2.2  34016  287.15 0855.36
2009/04/23 08:27:29.0    -146    -99    -43    177    183 235.6 -13.7  34020  287.20 0855.36
2009/04/23 08:27:29.1    -152   -106   -125    186    224 235.1 -41.4  34020  287.21 0855.36
2009/04/23 08:27:29.2    -207    -25    -51    209    216 263.0 -13.7  34016  287.13 0855.36
2009/04/23 08:27:29.3    -222     59    -41    230    234 285.1 -10.3  34020  287.21 0855.36
2009/04/23 08:27:29.4    -122     -9    -20    123    125 265.6  -9.3  34018  287.16 0855.36
2009/04/23 08:27:29.5     -84    -75    -68    114    132 228.2 -38.4  34014  287.11 0855.36
2009/04/23 08:27:29.6     -93    -87    -63    128    142 226.9 -32.2  34018  287.18 0855.36
2009/04/23 08:27:29.7     -92    -88    -43    128    135 226.4 -23.6  34014  287.11 0855.36
2009/04/23 08:27:29.8     -79    -44    -43     91    100 240.7 -31.6  34020  287.20 0855.36
2009/04/23 08:27:29.9    -139    -39    -52    145    154 254.1 -24.4  34018  287.18 0855.36
2009/04/23 08:27:30.0    -140    -19   -101    142    174 262.0 -43.2  34016  287.15 0855.36
2009/04/23 08:27:30.1    -100   -113    -46    151    157 221.5 -21.7  34014  287.10 0855.36
2009/04/23 08:27:30.2     -98    -50    -82    111    138 242.9 -44.5  34018  287.18 0855.36
2009/04/23 08:27:30.3    -160   -160   -125    227    259 225.1 -35.8  34022  287.24 0855.36
2009/04/23 08:27:30.4    -166    -41    -64    172    183 256.1 -25.7  34018  287.16 0855.36
2009/04/23 08:27:30.5    -148    -99    -64    179    191 236.3 -19.7  34016  287.13 0855.36
2009/04/23 08:27:30.6    -196    -72    -80    209    223 249.8 -26.1  34020  287.20 0855.36
2009/04/23 08:27:30.7    -216    -19   -158    217    268 264.8 -44.1  34024  287.26 0855.36
2009/04/23 08:27:30.8    -140   -140    -68    199    210 224.9 -23.3  34018  287.18 0855.36
2009/04/23 08:27:30.9     -88   -171    -70    193    205 207.2 -24.8  34022  287.23 0855.36
2009/04/23 08:27:31.0     -68   -194    -65    206    216 199.4 -22.8  34020  287.21 0855.36
2009/04/23 08:27:31.1    -166   -166    -61    236    244 225.0 -14.5  34016  287.14 0855.36
2009/04/23 08:27:31.2     -96   -117    -44    152    158 219.2 -21.0  34018  287.16 0855.36
2009/04/23 08:27:31.3    -160    -97    -77    188    203 238.7 -27.5  34020  287.21 0855.36
2009/04/23 08:27:31.4    -229     -3    -83    230    244 269.2 -24.8  34022  287.22 0855.36
2009/04/23 08:27:31.5    -170    -26   -104    173    201 261.2 -38.4  34016  287.15 0855.36
2009/04/23 08:27:31.6    -204      9    -84    205    221 272.6 -27.5  34016  287.15 0855.36
2009/04/23 08:27:31.7    -197     11    -55    198    206 273.3 -15.5  34018  287.16 0855.36
2009/04/23 08:27:31.8    -195     -6    -46    196    202 268.1 -13.2  34020  287.21 0855.36
2009/04/23 08:27:31.9    -197      8    -44    198    203 272.4 -12.6  34018  287.16 0855.36
2009/04/23 08:27:32.0    -196     -2    -55    197    204 269.2 -20.4  34020  287.21 0855.36
2009/04/23 08:27:32.1    -171    -18    -82    172    190 263.9 -31.7  34022  287.23 0855.36
2009/04/23 08:27:32.2    -138    -11    -61    139    151 265.2 -29.6  34022  287.23 0855.36
2009/04/23 08:27:32.3    -155     -2    -46    156    162 269.1 -21.5  34020  287.21 0855.36
2009/04/23 08:27:32.4    -141      8    -45    142    150 273.5 -17.6  34018  287.18 0855.36
2009/04/23 08:27:32.5    -165    -19    -59    167    178 263.2 -19.7  34018  287.16 0855.36
2009/04/23 08:27:32.6    -230    -71    -83    241    254 252.7 -24.3  34024  287.26 0855.36
2009/04/23 08:27:32.7    -243      8    -90    244    260 272.1 -25.4  34026  287.29 0855.36
2009/04/23 08:27:32.9    -248    -50   -103    254    274 258.5 -27.5  34022  287.22 0855.36
2009/04/23 08:27:33.0    -240     56    -68    247    257 283.3 -15.4  34020  287.19 0855.36
2009/04/23 08:27:33.1    -295    -22   -123    296    320 265.7 -28.2  34020  287.21 0855.36
2009/04/23 08:27:33.2    -342    -19   -132    343    367 266.7 -26.4  34016  287.13 0855.36
2009/04/23 08:27:33.3    -329     -1   -171    330    371 269.7 -33.8  34024  287.27 0855.36
2009/04/23 08:27:33.4    -310    -24   -129    312    337 265.4 -28.0  34026  287.29 0855.36
2009/04/23 08:27:33.5    -256    -16   -131    257    288 266.3 -33.6  34026  287.29 0855.36
2009/04/23 08:27:33.6    -240      0   -157    241    287 270.0 -40.4  34028  287.33 0855.36
2009/04/23 08:27:33.7    -227      5   -145    228    270 271.3 -39.9  34028  287.33 0855.36
2009/04/23 08:27:33.8    -245   -161    -86    294    306 236.7 -21.2  34020  287.19 0855.36
2009/04/23 08:27:33.9    -257   -158    -65    302    309 238.4 -12.2  34018  287.17 0855.37
2009/04/23 08:27:34.0    -262   -134    -80    295    306 242.9 -15.2  34016  287.12 0855.37
2009/04/23 08:27:34.1    -220   -121    -65    252    261 241.1 -14.5  34020  287.19 0855.37
2009/04/23 08:27:34.2    -224    -89    -78    242    254 248.3 -23.0  34026  287.29 0855.37
2009/04/23 08:27:34.3    -223    -45    -75    228    241 258.5 -18.3  34024  287.26 0855.37
2009/04/23 08:27:34.4    -182     16    -59    183    193 275.2 -17.9  34018  287.16 0855.37
2009/04/23 08:27:34.5    -215    -37    -63    219    227 260.1 -21.0  34024  287.28 0855.37
2009/04/23 08:27:34.6    -218    -37    -74    222    235 260.3 -18.6  34018  287.18 0855.37
2009/04/23 08:27:34.7    -152    -51    -98    161    188 251.4 -38.8  34024  287.28 0855.37
2009/04/23 08:27:34.8    -148    -67    -90    163    186 245.6 -35.7  34024  287.28 0855.37
2009/04/23 08:27:34.9    -185   -133   -119    229    258 234.3 -34.2  34030  287.36 0855.38
2009/04/23 08:27:35.0     -96   -138    -76    169    185 215.0 -30.3  34030  287.37 0855.38
2009/04/23 08:27:35.1     -41    -78   -138     89    164 208.1 -68.8  34026  287.30 0855.38
2009/04/23 08:27:35.2     -45    -60    -95     76    121 217.0 -61.9  34028  287.35 0855.38
2009/04/23 08:27:35.3     -72    -72    -84    102    132 225.0 -48.2  34028  287.35 0855.38
2009/04/23 08:27:35.4      -6     -7    -77     10     77 223.2 -90.0  34028  287.33 0855.38
2009/04/23 08:27:35.5      14    -17    -64     23     68 140.4 -85.6  34026  287.30 0855.38
2009/04/23 08:27:35.6      24    -12    -35     28     44 117.1 -61.9  34022  287.25 0855.38
2009/04/23 08:27:35.7      21     13    -24     26     35  57.5 -54.4  34024  287.28 0855.38
2009/04/23 08:27:35.8      -6      6    -31      9     32 316.6 -87.2  34024  287.27 0855.38
2009/04/23 08:27:35.9     -60    -29    -33     67     74 243.8 -31.7  34026  287.30 0855.38
2009/04/23 08:27:36.0    -149    -48    -52    157    165 251.8 -23.8  34022  287.25 0855.38
2009/04/23 08:27:36.1    -151    -17    -63    153    165 263.4 -28.0  34018  287.16 0855.38
2009/04/23 08:27:36.2    -111    -29    -41    115    123 255.0 -19.6  34020  287.20 0855.38
2009/04/23 08:27:36.3     -55    -22    -15     60     63 248.3 -14.5  34020  287.21 0855.38
2009/04/23 08:27:36.4     -45    -54    -22     71     74 219.6 -23.8  34024  287.28 0855.38
2009/04/23 08:27:36.5     -21    -82    -56     85    101 194.7 -40.9  34022  287.25 0855.38
2009/04/23 08:27:36.6     -24    -75    -36     79     86 198.3 -30.1  34022  287.25 0855.38
2009/04/23 08:27:36.7     -70    -45    -24     84     87 237.5 -21.2  34020  287.21 0855.38
2009/04/23 08:27:36.8     -61    -54    -29     82     88 228.7 -19.7  34020  287.20 0855.38
2009/04/23 08:27:36.9     -58    -11    -31     60     67 258.5 -33.7  34018  287.16 0855.39
2009/04/23 08:27:37.0     -54     17    -24     57     61 288.2 -27.5  34018  287.16 0855.39
2009/04/23 08:27:37.1     -22     17     -9     28     29 307.8 -23.8  34018  287.18 0855.39
2009/04/23 08:27:37.2     -14      2    -29     15     32 281.5 -75.2  34018  287.18 0855.39
2009/04/23 08:27:37.3      -9     -2    -44     10     45 254.9 -90.0  34016  287.15 0855.39
2009/04/23 08:27:37.4     -34      4    -34     35     48 277.9 -55.5  34018  287.18 0855.39
2009/04/23 08:27:37.5     -29    -10    -42     31     52 250.0 -63.8  34022  287.23 0855.39
2009/04/23 08:27:37.6       3    -62    -42     63     75 176.4 -40.0  34024  287.28 0855.39
2009/04/23 08:27:37.7      -5    -77    -51     78     93 184.4 -40.4  34024  287.28 0855.39
2009/04/23 08:27:37.8     -17    -96    -35     98    105 190.2 -19.7  34022  287.25 0855.39
2009/04/23 08:27:37.9      -9    -96    -32     97    102 185.8 -23.8  34024  287.27 0855.39
2009/04/23 08:27:38.0       0    -85    -46     86     97 180.0 -34.7  34024  287.28 0855.39
2009/04/23 08:27:38.1      15    -97    -45     99    108 171.1 -31.0  34024  287.27 0855.39
2009/04/23 08:27:38.2      -3    -78    -24     79     82 182.7 -21.7  34024  287.28 0855.39
2009/04/23 08:27:38.3     -12    -77    -40     78     87 188.9 -33.7  34020  287.20 0855.39
2009/04/23 08:27:38.4     -21    -95    -35     98    104 192.5 -23.8  34020  287.20 0855.39
2009/04/23 08:27:38.5      16   -115    -29    117    121 171.9 -13.9  34020  287.20 0855.39
2009/04/23 08:27:38.6      44    -95     -4    105    106 155.1  -2.2  34020  287.21 0855.39
2009/04/23 08:27:38.7      20    -98      3    101    102 168.4   1.8  34022  287.23 0855.39
2009/04/23 08:27:38.8       8   -104      6    105    106 175.5   3.3  34020  287.20 0855.39
2009/04/23 08:27:38.9       5   -109     13    110    111 177.3   7.1  34018  287.18 0855.40
2009/04/23 08:27:39.0       2   -100     23    101    104 178.6  13.2  34022  287.23 0855.40
2009/04/23 08:27:39.1      21    -95     49     98    109 167.1  28.2  34020  287.20 0855.40
2009/04/23 08:27:39.2       8    -97     39     98    105 175.1  23.0  34020  287.21 0855.40
2009/04/23 08:27:39.3      19    -94     33     96    102 168.4  19.4  34022  287.23 0855.40
2009/04/23 08:27:39.4      27    -86     40     91     99 162.2  24.6  34020  287.20 0855.40
2009/04/23 08:27:39.5      30    -73     40     80     89 157.3  28.2  34020  287.20 0855.40
2009/04/23 08:27:39.6       0   -100     33    101    107 180.4  18.4  34024  287.27 0855.40
2009/04/23 08:27:39.7     -33   -110    -32    116    121 196.9 -15.5  34024  287.28 0855.40
2009/04/23 08:27:39.8       0   -102    -32    103    107 180.4 -22.8  34024  287.27 0855.40
2009/04/23 08:27:39.9     -33    -83    -33     90     95 201.8 -24.8  34024  287.27 0855.40
2009/04/23 08:27:40.0     -60   -129    -12    143    144 204.9  -5.1  34020  287.20 0855.40
2009/04/23 08:27:40.1     -74   -127    -24    148    151 210.3  -9.3  34022  287.25 0855.40
2009/04/23 08:27:40.2     -73   -168    -44    184    190 203.4 -13.4  34020  287.20 0855.40
2009/04/23 08:27:40.3      30   -127     38    131    137 166.6  16.3  34024  287.27 0855.40
2009/04/23 08:27:40.4      45    -95     17    106    108 154.6   9.5  34024  287.27 0855.40
2009/04/23 08:27:40.5      -7    -97     34     98    104 184.5  19.4  34022  287.23 0855.40
2009/04/23 08:27:40.6     -33   -102      7    108    109 198.3   3.8  34024  287.28 0855.40
2009/04/23 08:27:40.7     -31    -94     -2    100    101 198.5  -1.3  34024  287.27 0855.40
2009/04/23 08:27:40.8     -27    -99      5    103    104 195.6   3.3  34022  287.23 0855.40
2009/04/23 08:27:40.9     -52   -138     -9    148    149 200.9  -3.7  34026  287.30 0855.42
2009/04/23 08:27:41.0     -54   -136    -29    147    150 201.9 -11.3  34024  287.28 0855.42
2009/04/23 08:27:41.1     -50   -128     -7    138    139 201.4  -3.1  34024  287.28 0855.42
2009/04/23 08:27:41.2     -29    -98      0    103    104 196.9   0.2  34024  287.28 0855.42
2009/04/23 08:27:41.3     -16    -88     16     90     92 190.7  10.1  34022  287.25 0855.42
2009/04/23 08:27:41.4     -14    -93      9     95     96 188.9   5.9  34020  287.20 0855.42
2009/04/23 08:27:41.5     -27   -101     24    105    108 195.1  13.2  34020  287.20 0855.42
2009/04/23 08:27:41.6     -32    -96     38    102    108 198.3  21.0  34018  287.18 0855.42
2009/04/23 08:27:41.7     -37   -119     58    125    137 197.4  26.6  34020  287.21 0855.42
2009/04/23 08:27:41.8     -47    -88     49    100    111 208.1  27.3  34020  287.20 0855.42
2009/04/23 08:27:41.9     -56    -71     40     91     99 218.3  24.6  34020  287.20 0855.42
2009/04/23 08:27:42.0     -67    -94     46    116    124 215.6  22.5  34014  287.11 0855.42
2009/04/23 08:27:42.1     -59    -99     27    116    120 210.7  13.2  34018  287.18 0855.42
2009/04/23 08:27:42.2     -55    -83     27    100    104 213.8  15.3  34018  287.18 0855.42
2009/04/23 08:27:42.3     -22    -93     30     96    101 193.8  17.3  34020  287.20 0855.42
2009/04/23 08:27:42.4     -48    -78     42     92    101 211.6  26.6  34020  287.20 0855.42
2009/04/23 08:27:42.5     -23    -96     58     99    114 193.8  33.5  34020  287.20 0855.42
2009/04/23 08:27:42.6      -8    -78     17     79     81 186.2  12.2  34022  287.25 0855.42
2009/04/23 08:27:42.7      -7    -59     31     60     67 187.1  29.3  34022  287.23 0855.42
2009/04/23 08:27:42.8     -23    -58     42     63     75 201.9  35.6  34022  287.23 0855.42
2009/04/23 08:27:42.9      -9   -106     33    107    113 185.3  17.3  34024  287.27 0855.43
2009/04/23 08:27:43.0      -2    -80     15     81     83 181.8  11.1  34022  287.25 0855.43
2009/04/23 08:27:43.1       9    -35     12     37     40 164.9  18.9  34024  287.27 0855.43
2009/04/23 08:27:43.2       7    -37     15     38     40 168.4  22.0  34024  287.28 0855.43
2009/04/23 08:27:43.3      14    -22     25     27     36 147.5  50.0  34026  287.30 0855.43
2009/04/23 08:27:43.4      12    -38     26     40     47 162.2  35.6  34026  287.30 0855.43
2009/04/23 08:27:43.5      13    -22     26     26     36 149.3  50.1  34026  287.32 0855.43
2009/04/23 08:27:43.6      -1    -18     31     19     36 184.5  64.7  34026  287.30 0855.43
2009/04/23 08:27:43.7     -12    -38     40     41     57 198.5  51.1  34024  287.28 0855.43
2009/04/23 08:27:43.8     -23    -65     50     70     86 200.0  39.1  34026  287.30 0855.43
2009/04/23 08:27:43.9     -10    -51     49     53     72 191.6  47.9  34024  287.28 0855.43
2009/04/23 08:27:44.0      -7    -46     51     47     69 189.8  52.2  34028  287.33 0855.43
2009/04/23 08:27:44.1      -3    -46     55     47     72 184.5  55.4  34024  287.28 0855.43
2009/04/23 08:27:44.2      -9    -31     44     33     55 196.9  59.4  34022  287.25 0855.43
2009/04/23 08:27:44.3       9    -49     59     50     77 169.3  56.3  34024  287.28 0855.43
2009/04/23 08:27:44.4     -43    -36     32     57     65 230.4  31.4  34024  287.28 0855.43
2009/04/23 08:27:44.5     -51     31     25     60     65 301.5  23.0  34024  287.27 0855.43
2009/04/23 08:27:44.6     -78     31     45     85     96 291.7  30.3  34018  287.18 0855.43
2009/04/23 08:27:44.7     -97      0     53     98    111 270.0  30.8  34020  287.21 0855.43
2009/04/23 08:27:44.8     -79    -42     82     90    121 241.6  47.5  34024  287.28 0855.43
2009/04/23 08:27:44.9     -48    -82     41     96    104 210.7  23.6  34024  287.27 0855.42
2009/04/23 08:27:45.0     -45   -136     55    144    154 198.5  21.5  34024  287.28 0855.42
2009/04/23 08:27:45.1     -63    -99     28    118    122 212.6  13.7  34020  287.20 0855.42
2009/04/23 08:27:45.2    -106    -72     20    129    131 235.9   9.0  34018  287.18 0855.42
2009/04/23 08:27:45.3     -98    -54     12    112    113 241.1   6.5  34018  287.16 0855.42
2009/04/23 08:27:45.4     -98    -45     -2    109    110 245.2  -1.3  34018  287.18 0855.42
2009/04/23 08:27:45.5    -101    -33    -17    107    109 251.8  -9.3  34016  287.15 0855.42
2009/04/23 08:27:45.6    -103    -18    -29    105    110 259.9 -15.5  34018  287.18 0855.42
2009/04/23 08:27:45.7    -107    -14    -34    108    114 262.5 -17.6  34018  287.18 0855.42
2009/04/23 08:27:45.8    -104    -14      0    105    106 262.1   0.2  34020  287.20 0855.42
2009/04/23 08:27:45.9     -85    -23     -1     89     90 254.9  -0.7  34018  287.18 0855.42
2009/04/23 08:27:46.0     -87      0      4     88     89 270.0   2.9  34020  287.20 0855.42
2009/04/23 08:27:46.1     -95      7      3     96     97 274.3   2.3  34022  287.23 0855.42
2009/04/23 08:27:46.2     -92     17     -4     94     95 280.6  -2.6  34026  287.32 0855.42
2009/04/23 08:27:46.3     -77     19     -2     80     81 284.2  -1.8  34032  287.40 0855.42
2009/04/23 08:27:46.4     -73      4      3     74     75 273.5   2.8  34028  287.35 0855.42
2009/04/23 08:27:46.5     -85      4      2     86     87 273.0   1.8  34026  287.30 0855.42
2009/04/23 08:27:46.6     -69      0     13     70     72 270.0  11.1  34030  287.37 0855.42
2009/04/23 08:27:46.7     -73     -4     17     74     77 266.5  13.2  34026  287.32 0855.42
2009/04/23 08:27:46.8     -73      0     -1     74     75 270.0  -1.2  34028  287.33 0855.42
2009/04/23 08:27:46.9     -63      8     -3     64     65 277.9  -3.1  34034  287.43 0855.41
2009/04/23 08:27:47.0     -52      3    -19     53     57 274.3 -19.6  34040  287.55 0855.41
2009/04/23 08:27:47.1     -64      8    -10     65     66 277.9  -9.3  34038  287.50 0855.41
2009/04/23 08:27:47.2     -63      0    -10     64     65 270.0  -9.3  34042  287.57 0855.41
2009/04/23 08:27:47.3     -60    -24    -24     65     69 248.3 -24.4  34040  287.54 0855.41
2009/04/23 08:27:47.4     -60     -4    -32     61     68 265.6 -33.7  34038  287.50 0855.41
2009/04/23 08:27:47.5     -61    -12    -19     63     65 258.5 -22.8  34030  287.38 0855.41
2009/04/23 08:27:47.6     -66    -31     -4     74     75 244.6  -3.1  34028  287.33 0855.41
2009/04/23 08:27:47.7     -43    -27     -2     52     53 237.6  -2.2  34028  287.33 0855.41
2009/04/23 08:27:47.8     -19    -23     30     31     43 219.7  50.0  34028  287.35 0855.41
2009/04/23 08:27:47.9     -28    -31     53     42     67 222.3  57.5  34022  287.25 0855.41
2009/04/23 08:27:48.0     -32    -47     56     58     80 214.3  49.4  34024  287.28 0855.41
2009/04/23 08:27:48.1     -27    -31     67     42     79 221.4  65.1  34024  287.27 0855.41
2009/04/23 08:27:48.2     -36    -32     57     49     75 228.7  55.4  34024  287.27 0855.41
2009/04/23 08:27:48.3     -31    -32     56     45     71 224.2  56.4  34024  287.28 0855.41
2009/04/23 08:27:48.4     -10    -38     78     40     87 195.1  70.8  34024  287.28 0855.41
2009/04/23 08:27:48.5     -13    -41     75     44     86 197.8  66.8  34026  287.30 0855.41
2009/04/23 08:27:48.6      -2    -37     57     38     68 184.5  64.6  34028  287.33 0855.41
2009/04/23 08:27:48.7       1    -14     44     15     46 175.5  81.0  34028  287.35 0855.41
2009/04/23 08:27:48.8       0    -25     35     26     43 179.1  59.4  34026  287.30 0855.41
2009/04/23 08:27:48.9       0    -35     61     36     70 180.9  66.8  34026  287.30 0855.40
2009/04/23 08:27:49.0       2    -35     49     36     60 175.6  60.5  34026  287.32 0855.40
2009/04/23 08:27:49.1       1    -35     62     36     71 177.3  66.8  34026  287.32 0855.40
2009/04/23 08:27:49.2      18    -53     64     57     85 161.3  53.7  34024  287.28 0855.40
2009/04/23 08:27:49.3      18    -71     51     74     89 165.7  37.6  34024  287.27 0855.40
2009/04/23 08:27:49.4       1    -73     49     74     88 179.0  36.5  34022  287.25 0855.40
2009/04/23 08:27:49.5     -13    -47     47     49     67 196.0  50.0  34024  287.28 0855.40
2009/04/23 08:27:49.6     -22    -46     38     52     64 205.5  39.7  34024  287.28 0855.40
2009/04/23 08:27:49.7     -27    -39     47     48     67 215.2  51.1  34024  287.28 0855.40
2009/04/23 08:27:49.8     -22    -47     51     53     73 205.5  50.0  34024  287.28 0855.40
2009/04/23 08:27:49.9     -14    -22     39     27     47 212.5  62.6  34022  287.25 0855.40
2009/04/23 08:27:50.0       2      0     49      3     49  90.0  90.0  34024  287.27 0855.40
2009/04/23 08:27:50.1      11      7     40     14     42  57.6  80.2  34026  287.30 0855.40
2009/04/23 08:27:50.2      -6      0     43      7     43 270.0  90.0  34026  287.30 0855.40
2009/04/23 08:27:50.3      18      0     43     19     47  90.0  75.0  34024  287.28 0855.40
2009/04/23 08:27:50.4     -15    -14     47     21     51 226.9  74.0  34024  287.27 0855.40
2009/04/23 08:27:50.5     -17    -37     57     41     70 204.5  60.5  34026  287.30 0855.40
2009/04/23 08:27:50.6       0    -55     60     56     82 180.9  51.6  34024  287.27 0855.40
2009/04/23 08:27:50.7     -14    -86     39     88     96 189.3  25.7  34022  287.23 0855.40
2009/04/23 08:27:50.8     -25    -82     42     86     95 197.4  27.8  34022  287.23 0855.40
2009/04/23 08:27:50.9     -29    -74     38     80     88 201.8  27.2  34022  287.23 0855.39
2009/04/23 08:27:51.0     -33    -79     35     86     92 202.7  23.0  34020  287.20 0855.39
2009/04/23 08:27:51.1     -24    -92     42     96    104 195.1  25.1  34018  287.16 0855.39
2009/04/23 08:27:51.2     -10    -91     42     92    101 186.7  26.6  34012  287.06 0855.39
2009/04/23 08:27:51.3      -3    -94     41     95    103 182.2  24.6  34014  287.11 0855.39
2009/04/23 08:27:51.4      -7    -99     37    100    106 184.5  20.4  34014  287.10 0855.39
2009/04/23 08:27:51.5      -1   -121     44    122    129 180.5  20.4  34016  287.13 0855.39
2009/04/23 08:27:51.6      24   -114     53    117    128 168.0  26.2  34016  287.13 0855.39
2009/04/23 08:27:51.7      13   -112     41    113    120 173.3  20.9  34018  287.18 0855.39
2009/04/23 08:27:51.8      -5   -124     43    125    133 182.7  18.9  34014  287.11 0855.39
2009/04/23 08:27:51.9     -17   -136     57    138    149 187.1  23.1  34016  287.13 0855.39
2009/04/23 08:27:52.0      13   -141     53    142    151 174.7  21.0  34020  287.20 0855.39
2009/04/23 08:27:52.1      11   -154     65    155    168 175.6  24.1  34018  287.18 0855.39
2009/04/23 08:27:52.2      -3   -161     65    162    174 181.4  22.8  34018  287.16 0855.39
2009/04/23 08:27:52.3      -2   -161     65    162    174 180.7  22.8  34018  287.18 0855.39
2009/04/23 08:27:52.4       4   -154     66    155    168 178.2  24.3  34016  287.13 0855.39
2009/04/23 08:27:52.5      -4   -157     76    158    175 181.8  27.4  34020  287.20 0855.39
2009/04/23 08:27:52.6       0   -149     67    150    164 180.0  25.7  34020  287.20 0855.39
2009/04/23 08:27:52.7      12   -141     66    142    156 175.1  26.6  34020  287.20 0855.39
2009/04/23 08:27:52.8     -13   -142     49    143    152 185.3  18.9  34016  287.13 0855.39
2009/04/23 08:27:52.9     -16   -116     27    118    122 188.1  13.2  34014  287.11 0855.38
2009/04/23 08:27:53.0      10   -134     42    135    142 175.5  17.3  34016  287.15 0855.38
2009/04/23 08:27:53.2     -23   -138     49    141    150 189.7  19.4  34014  287.11 0855.38
2009/04/23 08:27:53.2     -27   -135     54    138    148 191.6  23.0  34020  287.20 0855.38
2009/04/23 08:27:53.3     -34   -117     24    123    126 196.5  11.0  34014  287.11 0855.38
2009/04/23 08:27:53.4       3   -117     51    118    128 178.2  25.1  34016  287.15 0855.38
2009/04/23 08:27:53.5     -14   -139     66    140    154 185.8  27.2  34020  287.20 0855.38
2009/04/23 08:27:53.6     -18   -141     76    143    161 187.6  30.1  34018  287.18 0855.38
2009/04/23 08:27:53.7     -20   -122     66    124    140 189.7  30.8  34018  287.18 0855.38
2009/04/23 08:27:53.8     -14   -109     80    110    136 187.6  39.7  34020  287.20 0855.38
2009/04/23 08:27:53.9      -1   -125     87    126    153 180.9  37.6  34022  287.23 0855.38
2009/04/23 08:27:54.0      -4   -129     49    130    138 181.8  21.5  34020  287.21 0855.38
2009/04/23 08:27:54.1     -23   -150     41    152    158 188.9  15.3  34022  287.23 0855.38
2009/04/23 08:27:54.2       0   -147     40    148    154 180.0  15.2  34020  287.20 0855.38
2009/04/23 08:27:54.3     -18   -140     41    142    148 187.6  16.3  34022  287.23 0855.38
2009/04/23 08:27:54.4     -11   -131     62    132    145 184.9  27.1  34022  287.25 0855.38
2009/04/23 08:27:54.5      10   -102     47    103    113 174.2  26.6  34020  287.21 0855.38
2009/04/23 08:27:54.6      40   -126     45    133    141 162.2  18.9  34022  287.25 0855.38
2009/04/23 08:27:54.7      51   -106     43    118    125 154.1  20.4  34022  287.25 0855.38
2009/04/23 08:27:54.8      55   -101     22    116    119 151.5  11.1  34022  287.23 0855.38
2009/04/23 08:27:54.9      51    -80     29     96    101 147.4  16.8  34024  287.28 0855.39
2009/04/23 08:27:55.0      47    -79     32     92     98 149.3  19.2  34026  287.30 0855.39
2009/04/23 08:27:55.1      46    -80     25     93     97 150.1  15.3  34020  287.21 0855.39
2009/04/23 08:27:55.2      10    -87     48     88    100 172.9  31.3  34018  287.18 0855.39
2009/04/23 08:27:55.3      -7    -98     60     99    115 184.4  35.0  34022  287.23 0855.39
2009/04/23 08:27:55.4       0    -89     62     90    109 179.5  38.0  34024  287.27 0855.39
2009/04/23 08:27:55.5      12    -94     73     95    119 172.4  41.7  34024  287.28 0855.39
2009/04/23 08:27:55.6      23    -59     57     64     85 158.1  46.4  34024  287.28 0855.39
2009/04/23 08:27:55.7      22    -95     68     98    119 166.6  38.0  34024  287.28 0855.39
2009/04/23 08:27:55.8       6   -113     59    114    128 176.9  29.2  34022  287.23 0855.39
2009/04/23 08:27:55.9     -21   -100     39    103    110 192.0  21.5  34020  287.21 0855.38
2009/04/23 08:27:56.0      13    -90     95     92    132 171.5  50.7  34020  287.21 0855.38
2009/04/23 08:27:56.1     -25    -95     92     99    135 195.1  47.9  34020  287.20 0855.38
2009/04/23 08:27:56.2     -52   -109     69    121    139 205.5  31.9  34032  287.42 0855.38
2009/04/23 08:27:56.3     -36   -155     67    160    173 193.3  23.8  34022  287.25 0855.38
2009/04/23 08:27:56.4     -32   -157     82    161    180 191.6  29.1  34024  287.28 0855.38
2009/04/23 08:27:56.5     -46   -156     66    163    175 196.7  23.0  34026  287.30 0855.38
2009/04/23 08:27:56.6     -37   -179     51    183    190 191.8  15.6  34024  287.28 0855.38
2009/04/23 08:27:56.7     -19   -188     37    190    194 186.0  11.1  34034  287.43 0855.38
2009/04/23 08:27:56.8     -21   -149     11    151    152 188.1   4.4  34044  287.62 0855.38
2009/04/23 08:27:56.9     -11   -141      8    142    143 184.5   3.3  34048  287.67 0855.38
2009/04/23 08:27:57.0      -6   -148     51    149    158 182.6  19.2  34038  287.50 0855.38
2009/04/23 08:27:57.1      -3   -173     -6    174    175 181.1  -2.2  34042  287.57 0855.38
2009/04/23 08:27:57.2      -2   -135      0    136    137 181.0  -0.3  34044  287.62 0855.38
2009/04/23 08:27:57.3       6   -129      1    130    131 177.3   0.7  34040  287.54 0855.38
2009/04/23 08:27:57.5       7    -91      0     92     93 175.6   0.2  34038  287.50 0855.38
2009/04/23 08:27:57.5       6    -70     35     71     79 174.7  28.2  34038  287.52 0855.38
2009/04/23 08:27:57.6      64    -29     73     71    101 114.4  50.7  34038  287.50 0855.38
2009/04/23 08:27:57.7      49    -49     54     70     88 135.0  42.2  34042  287.57 0855.38
2009/04/23 08:27:57.8      29    -92     40     97    104 162.6  23.0  34040  287.55 0855.38
2009/04/23 08:27:57.9      -5   -125     62    126    140 182.6  27.8  34030  287.37 0855.39
2009/04/23 08:27:58.0     -12   -118     74    119    140 186.2  35.5  34028  287.33 0855.39
2009/04/23 08:27:58.1     -20   -114    116    116    164 190.2  50.1  34028  287.33 0855.39
2009/04/23 08:27:58.2      29   -100    108    105    150 163.5  50.2  34038  287.50 0855.39
2009/04/23 08:27:58.3      50    -93     79    106    132 151.5  40.7  34042  287.57 0855.39
2009/04/23 08:27:58.4      70    -68     49     98    109 134.4  28.2  34040  287.55 0855.39
2009/04/23 08:27:58.5      26    -85     45     90    100 162.6  28.2  34036  287.49 0855.39
2009/04/23 08:27:58.6      -1    -90     51     91    104 180.9  31.9  34030  287.37 0855.39
2009/04/23 08:27:58.7       2   -117     15    118    119 178.6   7.5  34036  287.49 0855.39
2009/04/23 08:27:58.8       5   -121      9    122    123 177.3   4.4  34032  287.42 0855.39
2009/04/23 08:27:58.9       5   -143     -3    144    145 177.8  -1.3  34032  287.40 0855.39
2009/04/23 08:27:59.0       6   -164     17    165    166 177.8   5.9  34028  287.35 0855.39
2009/04/23 08:27:59.1      28   -150     -6    153    154 169.3  -2.2  34030  287.37 0855.39
2009/04/23 08:27:59.2      19   -124     -2    126    127 171.1  -1.3  34032  287.42 0855.39
2009/04/23 08:27:59.3       4   -107      0    108    109 177.8  -0.3  34030  287.37 0855.39
2009/04/23 08:27:59.4       5   -109    -13    110    111 177.3  -7.2  34030  287.37 0855.39
2009/04/23 08:27:59.5       9   -125     -4    126    127 175.5  -2.2  34028  287.33 0855.39
2009/04/23 08:27:59.6      11   -117     -4    118    119 174.2  -2.2  34026  287.30 0855.39
2009/04/23 08:27:59.7      44    -99     -4    109    110 155.9  -2.2  34026  287.32 0855.39
2009/04/23 08:27:59.8      40    -85    -11     95     96 154.7  -6.7  34028  287.33 0855.39
2009/04/23 08:27:59.9      44    -79     -3     91     92 151.0  -2.2  34030  287.37 0855.39
2009/04/23 08:28:00.0      34    -73      5     81     82 154.6   3.8  34030  287.37 0855.39
2009/04/23 08:28:00.1      28    -44      7     53     54 147.4   8.0  34034  287.43 0855.39
2009/04/23 08:28:00.2      41    -47     12     63     65 138.6  11.1  34028  287.35 0855.39
2009/04/23 08:28:00.3      18    -53     17     57     60 161.3  17.3  34030  287.37 0855.39
2009/04/23 08:28:00.4      25    -63      3     68     69 158.1   2.9  34030  287.38 0855.39
2009/04/23 08:28:00.5      19    -70      3     73     74 164.9   2.8  34030  287.37 0855.39
2009/04/23 08:28:00.7      14    -65     25     67     71 167.5  21.0  34028  287.35 0855.39
2009/04/23 08:28:00.8       6    -69      4     70     71 174.7   3.8  34030  287.37 0855.39
2009/04/23 08:28:00.9      -2    -69     13     70     72 181.8  11.0  34030  287.37 0855.39
2009/04/23 08:28:01.0       5    -49     47     50     68 173.8  49.0  34028  287.33 0855.39
2009/04/23 08:28:01.1       4    -53     50     54     73 175.6  48.0  34028  287.33 0855.39
2009/04/23 08:28:01.2     -28    -58     32     65     72 206.3  27.3  34026  287.30 0855.39
2009/04/23 08:28:01.3     -17    -67     43     70     82 194.3  34.4  34026  287.30 0855.39
2009/04/23 08:28:01.4     -27   -101     48    105    115 195.1  26.6  34024  287.27 0855.39
2009/04/23 08:28:01.5      -6    -97     54     98    111 184.0  31.4  34026  287.30 0855.39
2009/04/23 08:28:01.6     -40   -112     10    120    121 200.0   4.9  34026  287.32 0855.39
2009/04/23 08:28:01.7     -59   -104    -16    120    122 209.9  -7.7  34028  287.33 0855.39
2009/04/23 08:28:01.8     -70    -89    -29    114    118 218.3 -14.5  34028  287.33 0855.39
2009/04/23 08:28:01.9     -63    -85     -4    106    107 216.5  -2.2  34026  287.30 0855.39
2009/04/23 08:28:02.0     -92   -116     11    149    150 218.3   4.4  34028  287.35 0855.39
2009/04/23 08:28:02.1     -94   -151     -8    179    180 211.9  -2.6  34024  287.28 0855.39
2009/04/23 08:28:02.2    -103   -172    -31    201    204 211.0  -8.8  34022  287.25 0855.39
2009/04/23 08:28:02.3     -98   -173    -33    200    203 209.6  -9.4  34022  287.25 0855.39
2009/04/23 08:28:02.4     -71   -156     -7    172    173 204.7  -2.6  34022  287.23 0855.39
2009/04/23 08:28:02.5     -53   -150      1    160    161 199.6   0.5  34024  287.28 0855.39
2009/04/23 08:28:02.6     -53   -150      1    160    161 199.6   0.5  34024  287.28 0855.39
2009/04/23 08:28:02.7     -51   -132     12    142    143 201.4   4.9  34022  287.25 0855.39
2009/04/23 08:28:02.8     -38   -122     20    128    130 197.4   9.0  34022  287.25 0855.39
2009/04/23 08:28:02.9     -30    -96     35    101    108 197.4  19.4  34026  287.30 0855.39
2009/04/23 08:28:03.0     -42    -76     49     88    100 209.0  31.4  34026  287.30 0855.39
2009/04/23 08:28:03.1     -18    -78     49     81     94 193.4  35.0  34026  287.32 0855.39
2009/04/23 08:28:03.2     -24    -89     28     93     98 195.1  16.8  34028  287.33 0855.39
2009/04/23 08:28:03.3      -7    -98      4     99    100 184.4   2.3  34028  287.33 0855.39
2009/04/23 08:28:03.4      -3    -80     25     81     85 182.7  17.3  34026  287.32 0855.39
2009/04/23 08:28:03.5       0    -86     24     87     91 180.0  15.8  34030  287.37 0855.39
2009/04/23 08:28:03.6      -5    -76     35     77     84 184.4  26.2  34028  287.35 0855.39
2009/04/23 08:28:03.7     -11    -74     69     75    101 188.9  47.9  34028  287.33 0855.39
2009/04/23 08:28:03.8     -21    -81     83     84    118 195.1  50.0  34028  287.33 0855.39
2009/04/23 08:28:03.9     -31   -114    112    119    163 195.2  48.5  34030  287.38 0855.39
2009/04/23 08:28:04.0       1   -119     97    120    154 179.1  43.7  34028  287.35 0855.39
2009/04/23 08:28:04.1       0   -117     67    118    135 180.0  32.4  34030  287.37 0855.39
2009/04/23 08:28:04.2      -4   -141     76    142    161 181.8  30.6  34030  287.37 0855.39
2009/04/23 08:28:04.3     -36   -154     58    159    169 193.4  20.7  34028  287.33 0855.39
2009/04/23 08:28:04.4     -35   -172     35    176    180 191.8  11.4  34026  287.32 0855.39
2009/04/23 08:28:04.5     -24   -199     56    201    209 187.1  15.6  34028  287.33 0855.39
2009/04/23 08:28:04.6      -2   -184     65    185    197 180.9  19.4  34030  287.38 0855.39
2009/04/23 08:28:04.7      29   -173     42    176    181 170.2  13.5  34028  287.33 0855.39
2009/04/23 08:28:04.8      -7   -151     12    152    153 182.7   4.9  34028  287.35 0855.39
2009/04/23 08:28:04.9     -37   -166     28    171    174 192.5   9.5  34028  287.35 0855.39
2009/04/23 08:28:05.0     -20   -180     64    182    193 186.5  19.4  34028  287.33 0855.39
2009/04/23 08:28:05.1     -27   -226     67    228    238 186.9  16.4  34030  287.38 0855.39
2009/04/23 08:28:05.2       5   -212     90    213    231 178.6  24.1  34030  287.38 0855.39
2009/04/23 08:28:05.3       5   -218     99    219    240 178.6  26.2  34032  287.39 0855.39
2009/04/23 08:28:05.4      13   -189    107    190    218 176.0  31.6  34030  287.37 0855.39
2009/04/23 08:28:05.5      23   -179    101    181    207 172.4  31.6  34032  287.42 0855.39
2009/04/23 08:28:05.6       3   -185     65    186    198 179.0  19.4  34034  287.43 0855.39
2009/04/23 08:28:05.7      -3   -163     56    164    174 181.1  18.9  34032  287.40 0855.39
2009/04/23 08:28:05.8     -16   -152     69    153    167 186.2  25.9  34032  287.42 0855.39
2009/04/23 08:28:05.9      -6   -104     95    105    141 183.6  47.5  34032  287.40 0855.39
2009/04/23 08:28:06.0      32   -138     85    142    165 166.7  34.0  34032  287.40 0855.39
2009/04/23 08:28:06.1      19    -83    113     86    142 167.1  59.0  34030  287.38 0855.39
2009/04/23 08:28:06.2      -9   -117    124    118    171 184.4  51.4  34028  287.35 0855.39
2009/04/23 08:28:06.3      26    -83    150     87    173 162.6  67.2  34030  287.38 0855.39
2009/04/23 08:28:06.4       2   -149    186    150    238 179.0  57.1  34030  287.37 0855.39
2009/04/23 08:28:06.5       9   -124    156    125    199 175.5  57.5  34032  287.42 0855.39
2009/04/23 08:28:06.6     -15   -121    178    122    215 187.1  62.4  34032  287.42 0855.39
2009/04/23 08:28:06.7     -80   -149    112    170    203 208.1  36.5  34030  287.38 0855.39
2009/04/23 08:28:06.8      21   -175    142    177    226 172.9  43.3  34022  287.23 0855.39
2009/04/23 08:28:06.9     -14   -230     81    231    244 183.6  20.0  34028  287.34 0855.39
2009/04/23 08:28:07.0      23   -202     88    204    222 173.5  24.9  34028  287.33 0855.39
2009/04/23 08:28:07.1      38   -191    170    195    258 168.5  45.6  34026  287.29 0855.39
2009/04/23 08:28:07.2       0   -160     14    161    162 180.2   5.2  34028  287.35 0855.39
2009/04/23 08:28:07.3      -2   -149    147    150    210 180.9  49.9  34030  287.37 0855.39
2009/04/23 08:28:07.4     -31   -174    134    177    222 190.2  40.7  34022  287.25 0855.39
2009/04/23 08:28:07.5     -68   -169    127    183    222 201.8  38.0  34018  287.16 0855.39
2009/04/23 08:28:07.6     -42   -127    136    134    190 198.5  50.1  34020  287.20 0855.39
2009/04/23 08:28:07.7      -1    -43     98     44    107 181.8  74.0  34024  287.28 0855.39
2009/04/23 08:28:07.8      26      4    108     27    111  80.3  86.4  34022  287.25 0855.39
2009/04/23 08:28:07.9       0     14     93     15     94 357.3  90.0  34026  287.30 0855.39
2009/04/23 08:28:08.0      -6      2     87      7     87 288.2  90.0  34024  287.28 0855.39
2009/04/23 08:28:08.1       3    -14     65     15     66 164.9  86.9  34024  287.28 0855.39
2009/04/23 08:28:08.2      -3     32     95     33    100 353.8  80.7  34024  287.28 0855.39
2009/04/23 08:28:08.3      50     -7     88     51    101  98.8  67.7  34026  287.30 0855.39
2009/04/23 08:28:08.4      14    -43     49     46     67 161.5  52.1  34024  287.28 0855.39
2009/04/23 08:28:08.5     -32    -67     32     75     81 205.5  24.1  34026  287.32 0855.39
2009/04/23 08:28:08.6     -63    -54     25     84     88 229.1  16.8  34024  287.28 0855.39
2009/04/23 08:28:08.7     -32     -8     89     34     95 254.9  79.2  34026  287.32 0855.39
2009/04/23 08:28:08.8      36    -21     74     43     85 120.7  67.2  34022  287.25 0855.39
2009/04/23 08:28:08.9      35    -42    109     55    122 140.3  71.0  34020  287.21 0855.39
2009/04/23 08:28:09.0      22    -65     98     69    119 160.8  61.5  34018  287.18 0855.39
2009/04/23 08:28:09.1       0    -90    123     91    153 179.5  60.5  34022  287.23 0855.39
2009/04/23 08:28:09.2       5   -135     91    136    163 177.8  36.7  34022  287.25 0855.39
2009/04/23 08:28:09.3     -18    -90     22     92     95 191.6  13.7  34026  287.30 0855.39
2009/04/23 08:28:09.4     -10    -22     89     25     92 205.4  83.9  34024  287.27 0855.39
2009/04/23 08:28:09.5       8     -3     82      9     82 115.3  90.0  34024  287.28 0855.39
2009/04/23 08:28:09.6     -42    -14     73     45     85 250.9  65.1  34024  287.28 0855.39
2009/04/23 08:28:09.7      -2     31     54     32     62 355.5  66.8  34024  287.27 0855.39
2009/04/23 08:28:09.8      13     45     59     48     76  16.9  56.4  34024  287.28 0855.39
2009/04/23 08:28:09.9      39     57     93     70    116  34.3  59.4  34046  287.65 0855.39
2009/04/23 08:28:10.0      61     50     88     80    118  50.5  52.7  34046  287.64 0855.39
2009/04/23 08:28:10.1      41     41     70     58     90  45.0  56.3  34042  287.57 0855.39
2009/04/23 08:28:10.2      33     42     66     54     85  38.7  56.4  34036  287.47 0855.39
2009/04/23 08:28:10.3      43     76     72     88    113  29.4  43.7  34040  287.54 0855.39
2009/04/23 08:28:10.4      59    107     68    123    140  28.9  31.4  34046  287.65 0855.39
2009/04/23 08:28:10.5     -14    130     65    131    146 353.8  27.8  34074  288.11 0855.39
2009/04/23 08:28:10.6      -6    137     64    138    152 357.3  27.1  34076  288.16 0855.39
2009/04/23 08:28:10.7     -40    119     80    126    149 341.3  35.5  34072  288.09 0855.39
2009/04/23 08:28:10.8       2    134     84    135    159   0.9  34.8  34058  287.84 0855.39
2009/04/23 08:28:10.9      12    163    107    164    195   4.5  36.3  34060  287.89 0855.39
2009/04/23 08:28:11.0      38     96    122    104    160  21.8  55.0  34050  287.70 0855.39
2009/04/23 08:28:11.1      73     88    113    115    161  39.6  49.8  34054  287.79 0855.39
2009/04/23 08:28:11.2      96    166    139    192    237  30.1  39.5  34100  288.55 0855.39
2009/04/23 08:28:11.3     112    204    116    233    260  28.7  28.2  34110  288.71 0855.39
2009/04/23 08:28:11.4     116    240    115    267    290  25.9  25.1  34112  288.76 0855.39
2009/04/23 08:28:11.5     102    204     97    229    248  26.5  24.2  34108  288.68 0855.39
2009/04/23 08:28:11.6     -12    252    103    253    273 357.1  23.1  34094  288.46 0855.39
2009/04/23 08:28:11.7      29    222     66    224    234   7.6  16.6  34100  288.55 0855.39
2009/04/23 08:28:11.8     -27    210    103    212    235 352.4  27.8  34102  288.60 0855.39
2009/04/23 08:28:11.9     -33    215     77    218    232 351.1  19.4  34126  289.01 0855.39
2009/04/23 08:28:12.0     -66    254     55    263    269 345.3  12.0  34148  289.37 0855.40
2009/04/23 08:28:12.1     -28    211    103    213    236 352.4  27.8  34154  289.48 0855.40
2009/04/23 08:28:12.2      -2    170    116    171    206 359.1  37.4  34142  289.28 0855.40
2009/04/23 08:28:12.3      41    115    126    123    176  20.0  50.7  34118  288.86 0855.40
2009/04/23 08:28:12.4     137     86    130    162    207  57.8  43.0  34198  290.21 0855.40
2009/04/23 08:28:12.5      76    146    155    165    226  27.6  48.0  34162  289.60 0855.40
2009/04/23 08:28:12.6     159     75     80    176    193  64.7  26.4  34156  289.52 0855.40
2009/04/23 08:28:12.7     200     69    150    212    259  70.9  38.8  34160  289.58 0855.40
2009/04/23 08:28:12.8     380     67    178    386    425  80.0  26.5  34210  290.43 0855.40
2009/04/23 08:28:12.9     414    119    207    431    478  74.0  27.4  34160  289.58 0855.40
2009/04/23 08:28:13.0     433    190    124    474    490  66.3  14.7  34162  289.62 0855.40
2009/04/23 08:28:13.1     336    214    104    399    413  57.5  14.6  34144  289.29 0855.40
2009/04/23 08:28:13.2     381    246     71    454    460  57.1   9.0  34114  288.78 0855.40
2009/04/23 08:28:13.3     405    296     18    502    503  53.8   2.1  34072  288.07 0855.40
2009/04/23 08:28:13.4     297    386    167    488    516  37.6  18.9  34040  287.53 0855.40
2009/04/23 08:28:13.5     164    393    119    427    444  22.7  15.6  34042  287.58 0855.40
2009/04/23 08:28:13.6      90    476    136    485    504  10.7  15.7  34056  287.80 0855.40
2009/04/23 08:28:13.7     290    384     44    482    485  37.0   5.3  34086  288.32 0855.40
2009/04/23 08:28:13.8     271    296     12    402    403  42.4   1.8  34122  288.93 0855.40
2009/04/23 08:28:13.9     356    234   -133    427    448  56.7 -17.3  34144  289.31 0855.40
2009/04/23 08:28:14.0     372    228   -106    437    450  58.5 -13.7  34082  288.26 0855.40
2009/04/23 08:28:14.1     431    265     29    507    508  58.4   3.3  34064  287.96 0855.40
2009/04/23 08:28:14.2     508    221    103    554    564  66.5  10.6  34064  287.94 0855.40
2009/04/23 08:28:14.3     443    224    154    497    521  63.2  17.3  34056  287.81 0855.40
2009/04/23 08:28:14.4     402    205    171    452    483  63.0  21.7  34074  288.13 0855.40
2009/04/23 08:28:14.5     511    217    174    556    583  67.0  17.4  34078  288.17 0855.40
2009/04/23 08:28:14.6     455    332    105    564    574  53.9  10.6  34082  288.24 0855.40
2009/04/23 08:28:14.7     516    455    180    689    713  48.6  14.7  34072  288.07 0855.40
2009/04/23 08:28:14.8     411    470    159    625    646  41.2  14.3  34042  287.57 0855.40
2009/04/23 08:28:14.9     455    358     86    580    587  51.8   8.5  34044  287.60 0855.40
2009/04/23 08:28:15.0     501    331     12    601    602  56.5   1.2  34040  287.55 0855.40
2009/04/23 08:28:15.1     527    388     21    655    656  53.6   1.9  34092  288.42 0855.40
2009/04/23 08:28:15.2     499    234     -2    552    553  64.9  -0.2  34070  288.06 0855.40
2009/04/23 08:28:15.3     368    107   -100    384    397  73.8 -14.6  34064  287.94 0855.40
2009/04/23 08:28:15.4     409    -12    -67    410    416  91.8  -9.3  34058  287.85 0855.40
2009/04/23 08:28:15.5     343      1    131    344    368  89.7  21.7  34060  287.89 0855.40
2009/04/23 08:28:15.6     348     89    120    360    380  75.6  18.5  34064  287.93 0855.40
2009/04/23 08:28:15.7     331     25     55    332    337  85.7   9.4  34068  288.03 0855.40
2009/04/23 08:28:15.8     266    -51     20    271    272 101.0   4.4  34052  287.75 0855.40
2009/04/23 08:28:15.9     332     -6     78    333    343  91.2  13.2  34054  287.78 0855.40
2009/04/23 08:28:16.0     424     56     33    428    430  82.4   4.5  34034  287.43 0855.40
2009/04/23 08:28:16.1     333     78    -99    343    358  76.7 -16.2  34042  287.57 0855.40
2009/04/23 08:28:16.2     241     19     21    242    243  85.4   5.2  34056  287.82 0855.40
2009/04/23 08:28:16.3     276    -48     44    281    285  99.9   9.0  34046  287.63 0855.40
2009/04/23 08:28:16.4     339     22     80    340    350  86.3  13.3  34048  287.66 0855.40
2009/04/23 08:28:16.5     335     80    101    345    360  76.5  16.3  34092  288.42 0855.40
2009/04/23 08:28:16.6     332     34    116    334    354  84.0  19.2  34100  288.55 0855.40
2009/04/23 08:28:16.7     274    119    139    299    329  66.5  26.9  34104  288.61 0855.40
2009/04/23 08:28:16.8     286     71    140    295    326  75.9  27.1  34108  288.70 0855.40
2009/04/23 08:28:16.9     262    132     55    294    300  63.1  10.6  34044  287.61 0855.40
2009/04/23 08:28:17.0     251    100     15    271    272  68.2   3.3  34040  287.53 0855.40
2009/04/23 08:28:17.1     252     48     56    257    264  79.2  12.4  34038  287.50 0855.40
2009/04/23 08:28:17.2     219     68     84    230    244  72.7  20.9  34042  287.58 0855.40
2009/04/23 08:28:17.3     207    122     78    241    254  59.4  17.9  34046  287.65 0855.40
2009/04/23 08:28:17.4     175    208     97    273    289  40.1  20.2  34028  287.34 0855.40
2009/04/23 08:28:17.5     194    165    134    256    288  49.6  29.8  34036  287.48 0855.40
2009/04/23 08:28:17.6     167    168    120    238    266  44.8  28.7  34020  287.21 0855.40
2009/04/23 08:28:17.7     153    153    126    217    250  45.1  32.9  34022  287.24 0855.40
2009/04/23 08:28:17.8     108    141    124    178    216  37.6  38.4  34022  287.23 0855.40
2009/04/23 08:28:17.9     -19    139    149    141    205 352.0  52.0  34024  287.28 0855.40
2009/04/23 08:28:18.0     -28    178    157    181    239 350.9  45.6  34022  287.23 0855.40
2009/04/23 08:28:18.1     -13    170    148    171    226 355.5  45.4  34022  287.23 0855.40
2009/04/23 08:28:18.2     -13    166    154    167    227 355.5  47.9  34018  287.18 0855.40
2009/04/23 08:28:18.3     -25    219     43    221    226 353.3  11.0  34054  287.79 0855.40
2009/04/23 08:28:18.4      44    222    144    227    268  11.3  35.5  34074  288.10 0855.40
2009/04/23 08:28:18.5      24    241    172    243    297   5.8  38.8  34052  287.73 0855.40
2009/04/23 08:28:18.6      12    258    166    259    307   2.7  35.6  34038  287.51 0855.40
2009/04/23 08:28:18.7       4    294    112    295    315   0.9  21.7  34084  288.27 0855.40
2009/04/23 08:28:18.8      34    261    114    264    287   7.6  25.1  34034  287.44 0855.40
2009/04/23 08:28:18.9      39    223    120    227    256  10.0  30.2  34048  287.66 0855.40
2009/04/23 08:28:19.0      21    191    109    193    221   6.5  31.9  34056  287.81 0855.40
2009/04/23 08:28:19.1      59    160    123    171    210  20.5  39.5  34086  288.31 0855.40
2009/04/23 08:28:19.2      25    228    149    230    274   6.3  36.0  34132  289.09 0855.40
2009/04/23 08:28:19.3      -3    172    129    173    215 359.0  40.4  34104  288.64 0855.40
2009/04/23 08:28:19.4      59    149    143    161    215  21.9  46.2  34120  288.91 0855.40
2009/04/23 08:28:19.5     127    186    175    226    285  34.2  41.7  34142  289.25 0855.40
2009/04/23 08:28:19.6     105    153    120    186    221  34.5  35.6  34134  289.14 0855.40
2009/04/23 08:28:19.7     109    187    109    217    242  30.3  28.7  34144  289.29 0855.40
2009/04/23 08:28:19.8     149    121    109    193    221  50.9  31.9  34126  288.99 0855.40
2009/04/23 08:28:19.9     128     93     86    159    180  54.0  30.8  34076  288.14 0855.40
2009/04/23 08:28:20.0     120     31     62    124    138  75.4  28.7  34062  287.92 0855.40
2009/04/23 08:28:20.1      41    -41     58     58     82 135.0  50.1  34070  288.06 0855.40
2009/04/23 08:28:20.2      41    -98     95    107    143 157.3  46.4  34050  287.70 0855.40
2009/04/23 08:28:20.3     -67    -82    137    107    173 219.2  57.9  34052  287.76 0855.40
2009/04/23 08:28:20.4     -10   -137    130    138    189 184.5  48.2  34026  287.32 0855.40
2009/04/23 08:28:20.5       0   -181    154    182    238 180.2  44.8  34026  287.30 0855.40
2009/04/23 08:28:20.6     -20   -144    148    146    207 188.0  50.1  34024  287.28 0855.40
2009/04/23 08:28:20.7     -14   -119    140    120    184 187.1  55.0  34024  287.28 0855.40
2009/04/23 08:28:20.8      35    -85     86     93    126 157.3  47.9  34026  287.32 0855.40
2009/04/23 08:28:20.9      88    -41     46     98    108 115.2  27.1  34024  287.27 0855.40
2009/04/23 08:28:21.0      54    -51    103     75    127 133.2  60.5  34024  287.27 0855.40
2009/04/23 08:28:21.1     122    -56     98    135    166 114.8  39.9  34028  287.33 0855.40
2009/04/23 08:28:21.2     154    -21     95    156    182  97.9  34.4  34034  287.43 0855.40
2009/04/23 08:28:21.3     153    -21    117    155    194  98.0  40.9  34072  288.08 0855.40
2009/04/23 08:28:21.4     145     -2     65    146    159  90.8  25.7  34066  287.98 0855.40
2009/04/23 08:28:21.5      39    -97     67    105    124 158.1  35.6  34048  287.67 0855.40
2009/04/23 08:28:21.6      50   -137     62    146    158 159.9  24.3  34042  287.57 0855.40
2009/04/23 08:28:21.7      49   -107     90    118    148 155.1  41.6  34026  287.30 0855.40
2009/04/23 08:28:21.8     114    -93    123    148    192 129.1  43.8  34026  287.30 0855.40
2009/04/23 08:28:21.9     159    -56    101    169    196 109.7  33.5  34026  287.32 0855.40
2009/04/23 08:28:22.0     162   -102     85    192    209 122.4  25.3  34024  287.28 0855.40
2009/04/23 08:28:22.1     145   -110    102    183    209 127.3  31.4  34026  287.30 0855.40
2009/04/23 08:28:22.2     147   -114     97    187    210 127.8  29.3  34030  287.37 0855.40
2009/04/23 08:28:22.3     155    -94     34    182    186 121.1  10.8  34030  287.37 0855.40
2009/04/23 08:28:22.4     139   -115     41    181    186 129.6  12.9  34034  287.43 0855.40
2009/04/23 08:28:22.5     162   -136     54    212    219 130.0  14.3  34032  287.42 0855.40
2009/04/23 08:28:22.6     167   -121     45    207    212 125.9  12.4  34028  287.33 0855.40
2009/04/23 08:28:22.7     153   -113     46    191    197 126.6  13.7  34026  287.32 0855.40
2009/04/23 08:28:22.8     161   -123     -7    203    204 127.5  -2.2  34032  287.40 0855.40
2009/04/23 08:28:22.9     156   -129    -15    203    204 129.6  -4.4  34034  287.43 0855.40
2009/04/23 08:28:23.0      97   -135     -6    167    168 144.4  -2.2  34032  287.42 0855.39
2009/04/23 08:28:23.1     127   -143    -16    192    193 138.3  -4.9  34036  287.47 0855.39
2009/04/23 08:28:23.2     166   -129     -4    211    212 127.8  -1.1  34036  287.47 0855.39
2009/04/23 08:28:23.3     159   -113     58    196    205 125.3  16.6  34028  287.35 0855.39
2009/04/23 08:28:23.4      74   -150     98    168    194 153.5  33.1  34018  287.18 0855.39
2009/04/23 08:28:23.5       2   -156     84    157    178 179.1  30.6  34022  287.23 0855.39
2009/04/23 08:28:23.6     -24   -148     76    151    169 189.3  28.5  34028  287.33 0855.39
2009/04/23 08:28:23.7     -35   -147     82    152    172 193.4  30.8  34034  287.45 0855.39
2009/04/23 08:28:23.8     -21   -206    103    208    232 186.0  28.0  34026  287.30 0855.39
2009/04/23 08:28:23.9     -55   -232     93    239    256 193.4  22.5  34024  287.26 0855.39
2009/04/23 08:28:24.0     -70   -233     66    244    253 196.7  15.2  34020  287.21 0855.39
2009/04/23 08:28:24.1     -49   -251      8    256    257 191.1   1.8  34026  287.31 0855.39
2009/04/23 08:28:24.2     -23   -209    -27    211    213 186.5  -7.3  34026  287.32 0855.39
2009/04/23 08:28:24.3     -61   -190     48    200    206 197.8  13.5  34022  287.23 0855.39
2009/04/23 08:28:24.4     -27   -134     80    137    158 191.6  32.9  34020  287.20 0855.39
2009/04/23 08:28:24.5     -49   -130    102    140    173 200.9  39.7  34016  287.13 0855.39
2009/04/23 08:28:24.6      19    -96     76     99    124 168.4  41.6  34018  287.18 0855.39
2009/04/23 08:28:24.7       6   -144     67    145    159 177.3  26.6  34022  287.25 0855.39
2009/04/23 08:28:24.8      27   -162    102    165    193 170.4  35.2  34022  287.25 0855.39
2009/04/23 08:28:24.9      19   -161     80    163    181 173.1  27.8  34022  287.25 0855.39
2009/04/23 08:28:25.0       0   -172    108    173    203 180.2  35.2  34022  287.25 0855.39
2009/04/23 08:28:25.1     -28   -170    130    173    216 189.6  40.7  34024  287.27 0855.39
2009/04/23 08:28:25.3      -1   -168    137    169    217 180.5  43.5  34028  287.33 0855.39
2009/04/23 08:28:25.3     -34   -132     87    137    162 194.7  35.5  34030  287.38 0855.39
2009/04/23 08:28:25.4     -32   -117      5    122    123 195.6   2.3  34030  287.37 0855.39
2009/04/23 08:28:25.5     -16   -102     -2    104    105 189.3  -1.3  34034  287.43 0855.39
2009/04/23 08:28:25.6     -45    -71     16     85     87 212.6  11.1  34036  287.47 0855.39
2009/04/23 08:28:25.7     -50    -95     50    108    119 208.1  27.1  34034  287.43 0855.39
2009/04/23 08:28:25.8       8    -62    -12     63     65 172.0 -11.3  34036  287.49 0855.39
2009/04/23 08:28:25.9     -18    -34    -39     39     55 209.0 -54.5  34036  287.47 0855.39
2009/04/23 08:28:26.0     -28    -37    -21     47     51 217.8 -30.6  34034  287.45 0855.39
2009/04/23 08:28:26.1     -41    -45      5     62     63 222.3   4.9  34034  287.43 0855.39
2009/04/23 08:28:26.2     -27    -56     47     63     78 206.3  41.2  34034  287.45 0855.39
2009/04/23 08:28:26.3     -26    -91     89     95    130 196.0  48.0  34032  287.42 0855.39
2009/04/23 08:28:26.4     -42   -110     87    118    146 200.9  39.7  34034  287.45 0855.39
2009/04/23 08:28:26.5     -16   -118     89    120    149 188.1  39.7  34030  287.37 0855.39
2009/04/23 08:28:26.6     -14   -109    107    110    153 187.6  49.9  34030  287.37 0855.39
2009/04/23 08:28:26.7       0    -84    119     85    146 180.5  60.6  34028  287.35 0855.39
2009/04/23 08:28:26.8       3    -82     79     83    114 177.8  49.0  34032  287.40 0855.39
2009/04/23 08:28:26.9      13   -112     88    113    143 173.3  41.7  34034  287.43 0855.39
2009/04/23 08:28:27.0     -61   -144     76    157    174 203.2  27.4  34030  287.37 0855.38
2009/04/23 08:28:27.1     -36   -118     99    124    158 197.0  42.7  34028  287.35 0855.38
2009/04/23 08:28:27.2     -15   -134    119    135    179 186.7  46.2  34032  287.40 0855.38
2009/04/23 08:28:27.3       2    -81    102     82    130 178.2  56.4  34030  287.38 0855.38
2009/04/23 08:28:27.4      -1    -14    100     15    101 184.4  90.0  34036  287.47 0855.38
2009/04/23 08:28:27.5       8    -52     93     53    107 171.1  67.7  34034  287.43 0855.38
2009/04/23 08:28:27.6      -5    -93     89     94    129 183.1  48.5  34028  287.35 0855.38
2009/04/23 08:28:27.7     -12    -90     82     91    122 187.6  46.9  34030  287.38 0855.38
2009/04/23 08:28:27.8      22      2     72     23     75  83.9  80.7  34032  287.40 0855.38
2009/04/23 08:28:27.9      47    -16     65     50     82 109.1  58.5  34032  287.40 0855.38
2009/04/23 08:28:28.0      57    -15     70     60     92 105.1  54.8  34038  287.50 0855.38
2009/04/23 08:28:28.2      62    -21     74     66     99 109.1  53.3  34028  287.35 0855.38
2009/04/23 08:28:28.3      15    -76     83     78    113 168.5  51.6  34028  287.33 0855.38
2009/04/23 08:28:28.4       5    -95     97     96    136 176.9  50.1  34028  287.35 0855.38
2009/04/23 08:28:28.5      30    -89     90     95    130 161.3  48.5  34028  287.33 0855.38
2009/04/23 08:28:28.6      31   -101     86    106    136 162.6  43.7  34026  287.32 0855.38
2009/04/23 08:28:28.7       0    -93     87     94    128 180.0  47.9  34028  287.33 0855.38
2009/04/23 08:28:28.8      -1    -79     86     80    117 181.0  52.2  34028  287.33 0855.38
2009/04/23 08:28:28.9       2    -85     84     86    120 178.6  50.0  34026  287.32 0855.38
2009/04/23 08:28:29.0      -4    -87     77     88    116 182.7  45.8  34026  287.32 0855.38
2009/04/23 08:28:29.1     -14    -94     80     96    124 188.9  43.8  34028  287.35 0855.39
2009/04/23 08:28:29.2     -32    -96     43    102    110 198.5  24.1  34034  287.43 0855.39
2009/04/23 08:28:29.3     -41    -94     32    103    108 203.6  17.3  34034  287.45 0855.39
2009/04/23 08:28:29.4     -39   -119     18    126    128 198.5   8.5  34034  287.43 0855.39
2009/04/23 08:28:29.5       4    -85     51     86     99 176.9  33.5  34028  287.33 0855.39
2009/04/23 08:28:29.6      20    -60     73     64     97 161.3  54.3  34028  287.33 0855.39
2009/04/23 08:28:29.7      60    -26     70     66     96 113.5  51.2  34024  287.27 0855.39
2009/04/23 08:28:29.8      49      8     68     50     84  80.3  60.0  34028  287.35 0855.39
2009/04/23 08:28:29.9     117     12     65    118    134  83.9  31.4  34052  287.76 0855.39
2009/04/23 08:28:30.0      97     58     48    114    123  59.3  24.1  34040  287.55 0855.39
2009/04/23 08:28:30.1      71     59     62     93    111  50.5  36.5  34058  287.86 0855.39
2009/04/23 08:28:30.2     105     76     -5    130    131  54.0  -2.2  34072  288.09 0855.39
2009/04/23 08:28:30.3      93     83     -9    125    126  48.2  -4.1  34072  288.09 0855.39
2009/04/23 08:28:30.4      71     46     72     85    111  56.7  44.3  34050  287.72 0855.39
2009/04/23 08:28:30.5      57     30     98     65    117  62.0  63.2  34054  287.77 0855.39
2009/04/23 08:28:30.6     106     76     69    131    148  54.1  30.3  34096  288.48 0855.39
2009/04/23 08:28:30.7      80     26     95     85    127  71.6  53.7  34080  288.21 0855.39
2009/04/23 08:28:30.8     134     25    102    137    170  79.4  40.4  34098  288.53 0855.39
2009/04/23 08:28:30.9      92     30    104     97    142  71.8  52.2  34092  288.42 0855.39
2009/04/23 08:28:31.0     151     36    112    156    192  76.3  39.3  34106  288.65 0855.39
2009/04/23 08:28:31.1     142     43     18    149    151  73.1   6.9  34100  288.57 0855.39
2009/04/23 08:28:31.2     115     42     54    123    134  70.0  25.1  34084  288.28 0855.39
2009/04/23 08:28:31.3     170     13     60    171    182  85.6  19.4  34054  287.79 0855.39
2009/04/23 08:28:31.4     120     40     83    127    151  71.4  35.6  34028  287.33 0855.39
2009/04/23 08:28:31.5      65     41    139     78    159  57.6  68.3  34042  287.59 0855.39
2009/04/23 08:28:31.6     121     11    120    122    171  84.8  50.0  34070  288.06 0855.39
2009/04/23 08:28:31.7     111     26    121    115    166  76.7  51.4  34080  288.23 0855.39
2009/04/23 08:28:31.8     113     -7     38    114    121  93.9  18.4  34082  288.26 0855.39
2009/04/23 08:28:31.9     122     48     51    132    141  68.3  22.5  34096  288.50 0855.39
2009/04/23 08:28:32.0     158      8     18    159    161  87.0   6.5  34110  288.74 0855.39
2009/04/23 08:28:32.1     145     84     31    168    171  60.0  10.6  34118  288.87 0855.39
2009/04/23 08:28:32.2     190    108     68    219    230  60.2  17.3  34130  289.08 0855.39
2009/04/23 08:28:32.3     150     96     13    179    180  57.5   4.2  34126  288.99 0855.39
2009/04/23 08:28:32.4     155     49     33    163    167  72.5  11.6  34128  289.02 0855.39
2009/04/23 08:28:32.5     127     17     21    129    131  82.1   9.5  34128  289.04 0855.39
2009/04/23 08:28:32.6     129     47     29    138    142  70.0  12.2  34124  288.96 0855.39
2009/04/23 08:28:32.7     141     33     28    145    148  76.8  11.1  34092  288.42 0855.39
2009/04/23 08:28:32.8     135     44     17    143    145  71.8   6.9  34088  288.35 0855.39
2009/04/23 08:28:32.9      93     31     26     99    103  71.4  15.2  34086  288.33 0855.39
2009/04/23 08:28:33.0      93     12     49     94    106  82.1  29.8  34084  288.30 0855.39
2009/04/23 08:28:33.1     129     32    -13    134    135  75.8  -5.6  34084  288.30 0855.39
2009/04/23 08:28:33.2     135     57    -14    147    148  66.9  -5.6  34094  288.45 0855.39
2009/04/23 08:28:33.3     162     16    -23    163    165  84.3  -8.2  34096  288.50 0855.39
2009/04/23 08:28:33.4     135     35     -7    140    141  75.4  -3.1  34102  288.60 0855.39
2009/04/23 08:28:33.5     142      0    -39    143    149  89.6 -15.5  34108  288.70 0855.39
2009/04/23 08:28:33.6     150      6     -3    151    152  87.5  -1.3  34128  289.02 0855.39
2009/04/23 08:28:33.7     174     20     43    176    182  83.2  13.7  34108  288.70 0855.39
2009/04/23 08:28:33.8     156      2     32    157    161  89.2  11.6  34076  288.16 0855.39
2009/04/23 08:28:33.9     142     -2     28    143    146  90.8  11.1  34102  288.60 0855.39
2009/04/23 08:28:34.0     160     76     16    178    179  64.6   5.2  34114  288.80 0855.39
2009/04/23 08:28:34.1     120     37     39    126    132  72.7  17.3  34102  288.58 0855.39
2009/04/23 08:28:34.2     104      0     63    105    122  90.0  33.5  34086  288.31 0855.39
2009/04/23 08:28:34.3     125    -17     87    127    153  97.9  37.6  34070  288.04 0855.39
2009/04/23 08:28:34.4     156    -25     76    159    176  99.2  27.2  34046  287.65 0855.39
2009/04/23 08:28:34.5     126    -20     81    128    151  99.2  35.5  34058  287.84 0855.39
2009/04/23 08:28:34.6     114     -7     83    115    141  93.5  39.7  34044  287.62 0855.39
2009/04/23 08:28:34.7     129    -23     49    132    140 100.1  21.0  34032  287.42 0855.39
2009/04/23 08:28:34.8     126    -57     55    139    149 114.4  23.0  34034  287.45 0855.39
2009/04/23 08:28:34.9     133    -56     49    145    154 113.1  18.9  34034  287.43 0855.39
2009/04/23 08:28:35.0     127    -91     52    157    166 125.9  18.4  34028  287.35 0855.39
2009/04/23 08:28:35.1     120    -99     62    156    167 129.5  22.8  34026  287.32 0855.39
2009/04/23 08:28:35.2     133    -98     72    166    180 126.4  24.9  34026  287.30 0855.39
2009/04/23 08:28:35.3     137    -78     77    158    175 119.8  27.8  34024  287.28 0855.39
2009/04/23 08:28:35.4     146    -58     84    158    178 111.7  30.6  34026  287.32 0855.39
2009/04/23 08:28:35.5      95    -39     82    103    131 112.6  43.3  34024  287.28 0855.39
2009/04/23 08:28:35.6      63    -39     86     75    114 121.5  54.3  34028  287.33 0855.39
2009/04/23 08:28:35.7      84    -51     74     99    123 121.1  40.1  34022  287.25 0855.39
2009/04/23 08:28:35.8      66    -70     70     97    119 136.8  39.5  34022  287.25 0855.39
2009/04/23 08:28:35.9      55    -73     74     92    118 143.0  43.7  34024  287.27 0855.39
2009/04/23 08:28:36.0       1    -94     91     95    131 179.1  49.0  34024  287.28 0855.39
2009/04/23 08:28:36.1      43    -91     77    101    127 154.6  41.7  34024  287.28 0855.39
2009/04/23 08:28:36.2      68   -144     59    160    170 154.6  20.7  34024  287.28 0855.39
2009/04/23 08:28:36.3      34   -140     25    145    148 166.2  10.1  34022  287.25 0855.39
2009/04/23 08:28:36.4     137    -75     53    157    166 118.8  18.9  34024  287.27 0855.39
2009/04/23 08:28:36.5     150    -65     78    164    181 113.5  27.2  34024  287.27 0855.39
2009/04/23 08:28:36.6     125    -65     91    141    167 117.5  35.7  34024  287.27 0855.39
2009/04/23 08:28:36.7     134    -44    122    142    187 108.2  45.1  34024  287.28 0855.39
2009/04/23 08:28:36.8     152    -51    124    161    203 108.6  41.6  34026  287.30 0855.39
2009/04/23 08:28:36.9     151    -13     99    152    181  95.2  36.0  34024  287.28 0855.39
2009/04/23 08:28:37.0     161    -28     84    164    184 100.1  29.3  34026  287.32 0855.39
2009/04/23 08:28:37.1     132    -44     43    140    147 108.4  17.3  34026  287.30 0855.39
2009/04/23 08:28:37.2     123    -25     65    126    141 101.5  29.3  34026  287.30 0855.39
2009/04/23 08:28:37.3     141    -66     68    156    170 115.2  25.1  34024  287.28 0855.39
2009/04/23 08:28:37.4     124    -57     82    137    159 114.8  33.7  34024  287.28 0855.39
2009/04/23 08:28:37.5     104    -80     20    132    134 127.7   9.0  34026  287.32 0855.39
2009/04/23 08:28:37.6     108    -76      2    133    134 125.1   1.2  34026  287.32 0855.39
2009/04/23 08:28:37.7     126    -64     17    142    144 117.1   6.9  34026  287.32 0855.39
2009/04/23 08:28:37.8     152    -66     -9    166    167 113.5  -3.3  34026  287.30 0855.39
2009/04/23 08:28:37.9      97   -117    -20    153    155 140.3  -7.7  34024  287.27 0855.39
2009/04/23 08:28:38.0      88   -107     60    139    151 140.4  25.1  34026  287.30 0855.39
2009/04/23 08:28:38.1      74   -129     71    149    165 150.1  27.4  34026  287.30 0855.39
2009/04/23 08:28:38.2      82    -88     45    121    129 136.8  21.0  34024  287.28 0855.39
2009/04/23 08:28:38.3     128    -69     48    146    154 118.4  18.4  34026  287.32 0855.39
2009/04/23 08:28:38.4     138    -45      7    146    147 108.2   2.9  34026  287.30 0855.39
2009/04/23 08:28:38.5     123    -57     11    136    137 114.8   4.9  34024  287.28 0855.39
2009/04/23 08:28:38.6     123    -24     54    126    137 101.0  24.6  34026  287.30 0855.39
2009/04/23 08:28:38.7     122    -20     57    124    136  99.6  26.6  34022  287.25 0855.39
2009/04/23 08:28:38.8     105     16     20    107    109  81.2  11.0  34028  287.35 0855.39
2009/04/23 08:28:38.9     107     14     -4    108    109  82.5  -2.2  34026  287.30 0855.39
2009/04/23 08:28:39.0     106     42     -6    115    116  68.3  -3.1  34028  287.33 0855.39
2009/04/23 08:28:39.1      91     55    -31    107    111  58.5 -21.2  34030  287.37 0855.39
2009/04/23 08:28:39.2      78     49    -28     93     98  57.6 -17.0  34030  287.37 0855.39
2009/04/23 08:28:39.3      77     55    -23     95     98  54.5 -13.9  34032  287.40 0855.39
2009/04/23 08:28:39.4      74     61    -34     97    102  50.5 -23.8  34040  287.54 0855.39
2009/04/23 08:28:39.5      70     33      6     78     79  64.8   4.9  34056  287.81 0855.39
2009/04/23 08:28:39.6      24     51     45     57     72  25.4  43.7  34070  288.06 0855.39
2009/04/23 08:28:39.7      41     80     53     91    105  27.2  33.5  34092  288.42 0855.39
2009/04/23 08:28:39.8      58     59     69     83    107  44.5  43.8  34072  288.08 0855.39
2009/04/23 08:28:39.9      56     68     54     89    104  39.6  34.4  34072  288.08 0855.39
2009/04/23 08:28:40.0      65     68     33     95    101  43.7  19.4  34062  287.92 0855.39
2009/04/23 08:28:40.1      66     63     -9     92     93  46.0  -5.6  34056  287.82 0855.40
2009/04/23 08:28:40.2      50     78    -21     93     96  32.6 -12.9  34064  287.94 0855.40
2009/04/23 08:28:40.3      36     65     26     75     80  29.0  19.4  34104  288.64 0855.40
2009/04/23 08:28:40.4      45     70     23     84     88  32.5  15.3  34124  288.96 0855.40
2009/04/23 08:28:40.5      16     82      7     84     85  11.1   4.9  34096  288.50 0855.40
2009/04/23 08:28:40.6      33     70     10     78     79  25.5   7.5  34078  288.18 0855.40
2009/04/23 08:28:40.7      37     56      3     68     69  33.4   2.9  34054  287.79 0855.40
2009/04/23 08:28:40.8      40     49     24     64     68  39.6  20.0  34030  287.37 0855.40
2009/04/23 08:28:40.9      10     65     27     66     71   8.9  23.0  34030  287.37 0855.40
2009/04/23 08:28:41.0     -40    102     29    110    114 338.2  15.2  34034  287.43 0855.40
2009/04/23 08:28:41.1     -42     90      9    100    101 334.7   5.4  34036  287.49 0855.40
2009/04/23 08:28:41.2     -24    117     32    120    125 348.4  15.2  34042  287.57 0855.40
2009/04/23 08:28:41.3     -57     90     23    107    110 327.4  12.2  34050  287.72 0855.40
2009/04/23 08:28:41.4     -13     99      4    100    101 352.0   2.8  34042  287.59 0855.40
2009/04/23 08:28:41.5     -53     92     33    107    113 329.7  17.3  34056  287.81 0855.40
2009/04/23 08:28:41.6      -5     74      5     75     76 355.5   3.8  34066  287.98 0855.40
2009/04/23 08:28:41.7       3     69      8     70     71   2.7   6.9  34072  288.09 0855.40
2009/04/23 08:28:41.8     -14     73     10     75     76 348.5   8.0  34078  288.18 0855.40
2009/04/23 08:28:41.9       1     76     39     77     86   1.0  29.3  34104  288.62 0855.40
2009/04/23 08:28:42.0       6     80     27     81     86   4.5  18.9  34102  288.60 0855.40
2009/04/23 08:28:42.1     -20     64     19     68     71 342.2  16.3  34104  288.62 0855.40
2009/04/23 08:28:42.2      24     73     21     77     80  18.3  15.3  34110  288.72 0855.40
2009/04/23 08:28:42.3      43     92     17    102    104  25.4   9.5  34122  288.92 0855.40
2009/04/23 08:28:42.4      91     58     59    109    123  57.5  31.3  34120  288.89 0855.40
2009/04/23 08:28:42.5      60     55     59     82    101  47.3  39.5  34144  289.30 0855.40
2009/04/23 08:28:42.6      54      0     53     55     76  90.0  50.0  34128  289.02 0855.40
2009/04/23 08:28:42.7      33     43     53     55     76  37.0  50.0  34116  288.84 0855.40
2009/04/23 08:28:42.8      25     23     53     35     63  46.9  63.6  34124  288.97 0855.40
2009/04/23 08:28:42.9       7     36     53     37     64  11.6  61.5  34112  288.75 0855.40
2009/04/23 08:28:43.0      -8     13     38     16     41 327.5  76.1  34114  288.79 0855.40
2009/04/23 08:28:43.1       0     11     42     12     43   4.5  82.8  34136  289.16 0855.40
2009/04/23 08:28:43.2      32     11     39     35     52  70.0  53.3  34152  289.45 0855.40
2009/04/23 08:28:43.3      54     15     53     57     77  74.1  48.0  34140  289.23 0855.40
2009/04/23 08:28:43.4      25      1     38     26     46  85.6  62.6  34136  289.16 0855.40
2009/04/23 08:28:43.5      14      0     32     15     35  90.0  72.9  34138  289.19 0855.40
2009/04/23 08:28:43.6      33      0     36     34     49  90.0  50.1  34130  289.08 0855.40
2009/04/23 08:28:43.7      37    -24     49     45     66 123.3  52.2  34130  289.06 0855.40
2009/04/23 08:28:43.8      13    -30     40     33     51 156.4  56.4  34136  289.18 0855.40
2009/04/23 08:28:43.9      24     -8     49     26     55 108.2  69.8  34162  289.62 0855.40
2009/04/23 08:28:44.0      63      8     48     64     80  82.1  40.7  34176  289.85 0855.40
2009/04/23 08:28:44.1      51      8     43     52     67  80.3  43.8  34180  289.91 0855.41
2009/04/23 08:28:44.2      37    -14     35     40     53 111.7  45.8  34172  289.77 0855.41
2009/04/23 08:28:44.3       4    -26     15     27     30 170.2  31.4  34146  289.35 0855.41
2009/04/23 08:28:44.4     -23    -40     16     47     50 210.7  19.4  34114  288.79 0855.41
2009/04/23 08:28:44.5     -27    -56     17     63     66 205.5  15.2  34076  288.16 0855.41
2009/04/23 08:28:44.6     -10    -50      6     52     53 191.6   6.9  34054  287.79 0855.41
2009/04/23 08:28:44.7     -16    -59     25     62     66 195.2  23.0  34046  287.64 0855.41
2009/04/23 08:28:44.8     -33    -82     48     89    101 201.8  30.8  34040  287.54 0855.41
2009/04/23 08:28:44.9     -19    -73     48     76     89 195.2  35.5  34038  287.50 0855.41
2009/04/23 08:28:45.0     -24    -64     43     69     81 200.9  35.0  34038  287.50 0855.41
2009/04/23 08:28:45.1     -40    -74     49     85     98 208.1  32.9  34036  287.47 0855.41
2009/04/23 08:28:45.2     -41    -74     55     85    101 209.0  36.0  34036  287.49 0855.41
2009/04/23 08:28:45.3     -56    -60     46     83     94 223.2  31.9  34036  287.49 0855.41
2009/04/23 08:28:45.4     -32    -73     63     80    101 203.6  42.7  34036  287.49 0855.41
2009/04/23 08:28:45.5     -39    -80    107     90    139 205.9  56.3  34038  287.50 0855.41
2009/04/23 08:28:45.6     -70    -70     93    100    136 225.1  47.9  34036  287.49 0855.41
2009/04/23 08:28:45.7     -52    -52     37     74     82 225.0  28.2  34034  287.43 0855.41
2009/04/23 08:28:45.8     -16    -61     29     64     70 195.1  27.1  34028  287.33 0855.41
2009/04/23 08:28:45.9       0    -62     33     63     71 180.0  30.3  34030  287.38 0855.41
2009/04/23 08:28:46.0      19    -59     38     63     73 162.2  34.4  34032  287.40 0855.41
2009/04/23 08:28:46.1      38    -96     54    104    117 158.2  29.3  34028  287.35 0855.40
2009/04/23 08:28:46.2      83   -130     36    155    160 147.5  13.2  34028  287.35 0855.40
2009/04/23 08:28:46.3     103   -162     18    193    194 147.5   5.4  34030  287.38 0855.40
2009/04/23 08:28:46.4     102   -160     24    190    192 147.4   7.2  34030  287.38 0855.40
2009/04/23 08:28:46.5      82   -139     -3    162    163 149.3  -1.1  34032  287.40 0855.40
2009/04/23 08:28:46.6      79   -127      2    150    151 147.9   0.8  34030  287.37 0855.40
2009/04/23 08:28:46.7      84   -102      6    133    134 140.4   2.9  34030  287.37 0855.40
2009/04/23 08:28:46.8      93    -87      4    128    129 133.2   1.8  34030  287.37 0855.40
2009/04/23 08:28:46.9      97    -96      7    137    138 134.9   3.3  34030  287.37 0855.40
2009/04/23 08:28:47.0      95   -115      6    150    151 140.4   2.3  34030  287.38 0855.40
2009/04/23 08:28:47.1      89   -110     14    142    143 140.8   5.9  34030  287.37 0855.40
2009/04/23 08:28:47.2      79    -96     35    125    130 140.4  15.8  34028  287.35 0855.40
2009/04/23 08:28:47.3      72    -87     44    114    122 140.3  22.0  34028  287.35 0855.40
2009/04/23 08:28:47.4      83    -77     40    114    120 132.7  20.0  34030  287.37 0855.40
2009/04/23 08:28:47.5     108    -89     81    141    162 129.5  32.7  34030  287.37 0855.40
2009/04/23 08:28:47.6      74    -89     77    116    139 140.4  36.5  34034  287.43 0855.40
2009/04/23 08:28:47.7      41    -80    101     91    135 152.8  53.3  34034  287.43 0855.40
2009/04/23 08:28:47.8       8    -71     91     72    116 172.9  57.5  34032  287.42 0855.40
2009/04/23 08:28:47.9      25   -168    107    170    200 171.5  35.2  34030  287.37 0855.40
2009/04/23 08:28:48.0      25   -166    106    168    198 171.3  35.5  34028  287.35 0855.40
2009/04/23 08:28:48.1      40   -149    106    155    187 164.9  37.6  34028  287.33 0855.40
2009/04/23 08:28:48.2      83   -136    100    160    188 148.4  35.5  34024  287.28 0855.40
2009/04/23 08:28:48.3      69   -153    100    168    195 155.7  33.5  34028  287.33 0855.40
2009/04/23 08:28:48.4      72   -158    123    174    213 155.3  38.6  34030  287.37 0855.40
2009/04/23 08:28:48.5      57   -171    123    181    218 161.5  37.6  34028  287.33 0855.40
2009/04/23 08:28:48.6      55   -185    106    194    221 163.3  31.3  34030  287.37 0855.40
2009/04/23 08:28:48.7      27   -207    102    209    232 172.4  27.4  34028  287.35 0855.40
2009/04/23 08:28:48.8      25   -239     51    241    247 174.0  12.0  34028  287.33 0855.40
2009/04/23 08:28:48.9      16   -248    -13    249    250 176.2  -3.1  34028  287.33 0855.40
2009/04/23 08:28:49.0      -3   -231      2    232    233 180.9   0.7  34026  287.32 0855.40
2009/04/23 08:28:49.1     -16   -190    -53    191    199 185.1 -15.5  34030  287.38 0855.40
2009/04/23 08:28:49.2     -52   -160    -46    169    175 198.0 -20.0  34030  287.37 0855.40
2009/04/23 08:28:49.4     -75   -151    -60    169    180 206.5 -19.7  34028  287.35 0855.40
2009/04/23 08:28:49.4    -115   -132    -39    176    181 221.0 -12.6  34030  287.38 0855.40
2009/04/23 08:28:49.5     -70   -130    -53    148    158 208.5 -19.7  34030  287.37 0855.40
2009/04/23 08:28:49.6     -42   -126    -18    134    136 198.7  -7.7  34028  287.35 0855.40
2009/04/23 08:28:49.7     -29   -144    -39    147    153 191.5 -15.0  34028  287.33 0855.40
2009/04/23 08:28:49.8     -24   -147     -3    150    151 189.3  -1.2  34024  287.27 0855.40
2009/04/23 08:28:49.9     -18   -230     41    231    235 184.5  10.1  34022  287.24 0855.40
2009/04/23 08:28:50.0     -15   -256    107    257    278 183.5  24.1  34022  287.22 0855.40
2009/04/23 08:28:50.1      84   -276     44    289    293 163.1   8.8  34022  287.22 0855.40
2009/04/23 08:28:50.2      82   -305    -34    316    318 164.9  -6.2  34024  287.26 0855.40
2009/04/23 08:28:50.3      93   -271    -25    287    289 161.1  -5.1  34022  287.22 0855.40
2009/04/23 08:28:50.4      57   -323      5    329    330 169.9   1.0  34022  287.22 0855.40
2009/04/23 08:28:50.5     109   -409     26    424    425 165.1   3.6  34020  287.21 0855.40
2009/04/23 08:28:50.6     118   -328     17    349    350 160.1   2.9  34020  287.20 0855.40
2009/04/23 08:28:50.7      46   -366     86    369    380 172.8  13.2  34020  287.20 0855.40
2009/04/23 08:28:50.9      69   -316    115    324    344 167.6  19.6  34016  287.15 0855.40
2009/04/23 08:28:50.9      90   -268     24    283    285 161.3   5.0  34020  287.19 0855.40
2009/04/23 08:28:51.0      77   -314    -19    324    325 166.2  -3.5  34022  287.22 0855.40
2009/04/23 08:28:51.1     142   -378    -48    404    407 159.4  -6.9  34020  287.21 0855.40
2009/04/23 08:28:51.2     215   -422    -72    474    480 153.0  -8.7  34020  287.19 0855.40
2009/04/23 08:28:51.4     241   -342    -81    419    427 144.8 -11.0  34020  287.21 0855.40
2009/04/23 08:28:51.4     169   -312   -115    356    374 151.5 -22.9  34016  287.13 0855.40
2009/04/23 08:28:51.5      21   -365   -131    366    388 176.6 -24.8  34018  287.17 0855.40
2009/04/23 08:28:51.6     -71   -420   -111    426    441 189.6 -14.6  34024  287.26 0855.40
2009/04/23 08:28:51.7     -50   -366   -115    370    387 187.9 -22.4  34022  287.22 0855.40
2009/04/23 08:28:51.8     -93   -324   -139    338    365 196.0 -28.0  34020  287.20 0855.40
2009/04/23 08:28:51.9    -199   -337   -100    392    405 210.5 -14.4  34016  287.12 0855.40
2009/04/23 08:28:52.0    -184   -329   -111    378    393 209.2 -21.1  34022  287.22 0855.40
2009/04/23 08:28:52.1    -119   -313   -101    336    350 200.9 -21.7  34022  287.23 0855.40
2009/04/23 08:28:52.2     -67   -304   -159    312    350 192.5 -33.5  34022  287.22 0855.40
2009/04/23 08:28:52.3    -153   -335    -47    369    373 204.6  -7.3  34018  287.18 0855.40
2009/04/23 08:28:52.4    -114   -329    -22    349    350 199.2  -3.7  34022  287.22 0855.40
2009/04/23 08:28:52.5     -59   -288    -16    295    296 191.6  -3.1  34020  287.21 0855.40
2009/04/23 08:28:52.6     -21   -273     11    274    275 184.5   2.3  34014  287.11 0855.40
2009/04/23 08:28:52.7     137   -196     62    240    248 145.0  14.5  34020  287.21 0855.40
2009/04/23 08:28:52.8     -43   -311    276    315    418 188.0  45.8  34016  287.13 0855.40
2009/04/23 08:28:52.9      41   -136    218    143    260 163.1  63.9  34020  287.21 0855.40
2009/04/23 08:28:53.0     259   -407     -5    483    484 147.5  -0.6  34022  287.24 0855.40
2009/04/23 08:28:53.1     259   -414    -19    489    490 148.0  -2.2  34016  287.14 0855.40
2009/04/23 08:28:53.2     123   -331    -59    354    359 159.6  -9.5  34020  287.20 0855.40
2009/04/23 08:28:53.3     179   -351    -58    395    400 152.9  -8.4  34018  287.18 0855.40
2009/04/23 08:28:53.4     106   -317    -53    335    340 161.4  -9.0  34018  287.17 0855.40
2009/04/23 08:28:53.5      77   -369     18    378    379 168.2   2.8  34016  287.13 0855.40
2009/04/23 08:28:53.7      50   -357    -57    361    366 171.9  -9.0  34022  287.22 0855.40
2009/04/23 08:28:53.8     131   -361   -115    385    402 160.1 -16.6  34016  287.15 0855.40
2009/04/23 08:28:53.9     136   -379   -127    403    423 160.2 -17.5  34016  287.14 0855.40
2009/04/23 08:28:54.0     146   -542    -71    562    567 164.9  -7.2  34016  287.15 0855.40
2009/04/23 08:28:54.1      28   -481   -143    482    503 176.6 -16.6  34010  287.02 0855.40
2009/04/23 08:28:54.2      41   -490    -30    492    493 175.1  -3.5  34014  287.10 0855.40
2009/04/23 08:28:54.3     -63   -574    -41    578    580 186.3  -4.1  34010  287.04 0855.40
2009/04/23 08:28:54.4     -41   -576    -41    578    580 184.1  -4.1  34010  287.02 0855.40
2009/04/23 08:28:54.5    -111   -545    -50    557    560 191.6  -5.2  34014  287.11 0855.40
2009/04/23 08:28:54.6    -231   -555    -33    602    603 202.6  -3.2  34008  287.00 0855.40
2009/04/23 08:28:54.7    -141   -446     69    468    474 197.6   8.5  34014  287.09 0855.40
2009/04/23 08:28:54.8      72   -364    -47    372    375 168.8  -7.2  34016  287.15 0855.40
2009/04/23 08:28:54.9      22   -418     18    419    420 176.9   2.5  34012  287.08 0855.40
2009/04/23 08:28:55.0     -76   -444   -112    451    465 189.7 -14.1  34018  287.16 0855.40
2009/04/23 08:28:55.1     -17   -379     28    380    381 182.7   4.3  34016  287.15 0855.40
2009/04/23 08:28:55.2     -14   -428     12    429    430 181.9   1.6  34018  287.16 0855.40
2009/04/23 08:28:55.3      17   -376     39    377    380 177.4   6.0  34016  287.13 0855.40
2009/04/23 08:28:55.4    -160   -439     14    468    469 200.1   1.8  34016  287.15 0855.40
2009/04/23 08:28:55.5     -77   -347    -29    356    358 192.6  -4.8  34014  287.10 0855.40
2009/04/23 08:28:55.6     -44   -372    -33    375    377 186.9  -5.1  34022  287.22 0855.40
2009/04/23 08:28:55.7    -126   -332    -95    356    369 200.8 -15.1  34018  287.17 0855.40
2009/04/23 08:28:55.8    -178   -296   -123    346    368 211.0 -19.7  34024  287.27 0855.40
2009/04/23 08:28:55.9    -141   -294   -157    327    362 205.6 -31.7  34024  287.27 0855.40
2009/04/23 08:28:56.0    -211   -277   -168    349    387 217.3 -31.7  34018  287.17 0855.40
2009/04/23 08:28:56.1     -78   -328   -255    338    423 193.5 -45.2  34016  287.12 0855.40
2009/04/23 08:28:56.2       7   -431   -219    432    484 179.0 -33.3  34016  287.12 0855.40
2009/04/23 08:28:56.3      11   -400   -107    401    416 178.4 -15.0  34022  287.23 0855.40
2009/04/23 08:28:56.4      91   -336   -107    349    365 164.9 -22.1  34010  287.02 0855.40
2009/04/23 08:28:56.5     -44   -318    -79    322    332 188.0 -13.9  34018  287.16 0855.40
2009/04/23 08:28:56.6    -102   -233    -90    255    270 203.6 -24.4  34016  287.14 0855.40
2009/04/23 08:28:56.7    -112   -266    -44    289    293 202.9  -8.8  34022  287.24 0855.40
2009/04/23 08:28:56.8      17   -244    -16    245    246 176.0  -3.9  34020  287.21 0855.40
2009/04/23 08:28:56.9      10   -234    -20    235    236 177.4  -4.9  34018  287.17 0855.40
2009/04/23 08:28:57.0     -49   -155    -57    163    173 197.6 -19.4  34020  287.20 0855.40
2009/04/23 08:28:57.1       5   -213    -16    214    215 178.4  -4.4  34020  287.20 0855.40
2009/04/23 08:28:57.2      49   -255    -67    260    269 169.1 -14.5  34022  287.22 0855.40
2009/04/23 08:28:57.3      66   -260    -69    269    278 165.7 -14.5  34018  287.16 0855.40
2009/04/23 08:28:57.4      96   -265    -56    283    289 160.0 -11.3  34018  287.17 0855.40
2009/04/23 08:28:57.5      36   -261    -83    264    277 172.0 -17.6  34018  287.17 0855.40
2009/04/23 08:28:57.6      55   -273     -5    279    280 168.4  -1.1  34020  287.19 0855.40
2009/04/23 08:28:57.7       3   -222     23    223    225 179.1   6.1  34018  287.16 0855.40
2009/04/23 08:28:57.8      50   -210     -6    216    217 166.6  -1.8  34018  287.16 0855.40
2009/04/23 08:28:57.9      98   -144      7    175    176 145.7   2.5  34020  287.20 0855.40
2009/04/23 08:28:58.0     139   -108     20    177    179 128.0   6.7  34020  287.20 0855.40
2009/04/23 08:28:58.1     118    -97     15    153    154 129.5   5.9  34020  287.20 0855.40
2009/04/23 08:28:58.2     177   -120    -27    214    216 124.2  -7.3  34022  287.23 0855.41
2009/04/23 08:28:58.3     130   -219     26    255    257 149.3   5.9  34022  287.22 0855.41
2009/04/23 08:28:58.4     142   -227    -69    268    277 147.9 -14.5  34022  287.22 0855.41
2009/04/23 08:28:58.5     117   -224    -60    253    261 152.4 -13.4  34024  287.26 0855.41
2009/04/23 08:28:58.6      99   -166    -33    194    197 149.3  -9.8  34018  287.16 0855.41
2009/04/23 08:28:58.7      85   -179     53    199    207 154.7  15.0  34022  287.23 0855.41
2009/04/23 08:28:58.8      76   -207     18    221    222 159.7   4.9  34022  287.25 0855.41
2009/04/23 08:28:58.9      40   -163    -27    169    172 166.0  -9.3  34022  287.23 0855.41
2009/04/23 08:28:59.0     -43   -206     66    211    222 191.8  17.4  34024  287.27 0855.41
2009/04/23 08:28:59.1     -51   -208     42    215    220 193.8  11.1  34022  287.25 0855.41
2009/04/23 08:28:59.2     -49   -206     72    212    225 193.6  18.9  34022  287.23 0855.41
2009/04/23 08:28:59.3      16   -210     10    211    212 175.6   2.8  34020  287.21 0855.41
2009/04/23 08:28:59.4      12   -190    -46    191    197 176.4 -13.7  34024  287.27 0855.41
2009/04/23 08:28:59.5       8   -218    -51    219    226 177.8 -13.3  34022  287.23 0855.41
2009/04/23 08:28:59.6       9   -214    -72    215    226 177.4 -23.6  34020  287.20 0855.41
2009/04/23 08:28:59.7     -11   -187    -66    188    200 183.4 -19.4  34022  287.23 0855.41
2009/04/23 08:28:59.8       0   -185    -44    186    192 180.0 -13.4  34022  287.23 0855.41
2009/04/23 08:28:59.9     -18   -156    -15    158    159 186.7  -5.6  34020  287.21 0855.41
2009/04/23 08:29:00.0     -21   -195     10    197    198 186.2   2.9  34018  287.18 0855.41
2009/04/23 08:29:00.1      14   -213    113    214    242 176.2  30.2  34022  287.22 0855.41
2009/04/23 08:29:00.2      51   -235    175    241    297 167.7  39.7  34018  287.17 0855.41
2009/04/23 08:29:00.3      16   -260    233    261    349 176.4  46.4  34014  287.11 0855.41
2009/04/23 08:29:00.4      29   -171    163    174    238 170.4  48.0  34018  287.18 0855.41
2009/04/23 08:29:00.5      67   -192     94    204    224 160.6  27.0  34020  287.20 0855.41
2009/04/23 08:29:00.6     101   -205     68    229    239 153.7  16.6  34018  287.17 0855.41
2009/04/23 08:29:00.7     121   -257    141    285    317 154.7  28.4  34018  287.16 0855.41
2009/04/23 08:29:00.8      54   -250    161    256    302 167.6  35.5  34020  287.21 0855.41
2009/04/23 08:29:00.9     138   -146    118    202    233 136.7  33.1  34020  287.20 0855.41
2009/04/23 08:29:01.0     227   -115    119    255    281 116.9  27.0  34024  287.26 0855.41
2009/04/23 08:29:01.1     209    -98    113    231    257 115.2  28.2  34022  287.24 0855.41
2009/04/23 08:29:01.2     189   -113    112    221    247 120.9  29.1  34022  287.24 0855.41
2009/04/23 08:29:01.3     163   -223     96    277    294 143.9  19.2  34024  287.28 0855.41
2009/04/23 08:29:01.4     142   -190     79    238    251 143.3  18.4  34026  287.29 0855.41
2009/04/23 08:29:01.5     148   -186     87    238    253 141.5  20.7  34022  287.22 0855.41
2009/04/23 08:29:01.6     132   -247     55    281    287 151.9  11.1  34022  287.24 0855.41
2009/04/23 08:29:01.7     101   -213     61    236    244 154.5  14.7  34024  287.28 0855.41
2009/04/23 08:29:01.8      91   -171     39    194    198 151.9  11.4  34024  287.27 0855.41
2009/04/23 08:29:01.9      34   -207     68    210    221 170.7  18.1  34022  287.23 0855.41
2009/04/23 08:29:02.0      51   -172     40    180    185 163.5  12.6  34020  287.21 0855.41
2009/04/23 08:29:02.1      59   -162     20    173    175 160.0   6.7  34024  287.28 0855.41
2009/04/23 08:29:02.2      15   -203     23    204    206 175.5   6.5  34020  287.21 0855.41
2009/04/23 08:29:02.3     -16   -196     48    197    203 184.7  13.7  34020  287.20 0855.41
2009/04/23 08:29:02.4     -41   -188     37    193    197 192.5  11.1  34020  287.21 0855.41
2009/04/23 08:29:02.5     -65   -191     23    202    204 198.9   6.5  34022  287.23 0855.41
2009/04/23 08:29:02.6     -43   -217     21    222    224 191.3   5.4  34018  287.18 0855.41
2009/04/23 08:29:02.7     -49   -170     43    178    184 196.3  13.5  34020  287.20 0855.41
2009/04/23 08:29:02.8     -13   -177     62    178    189 184.5  19.4  34020  287.21 0855.41
2009/04/23 08:29:02.9      51   -153     70    162    176 161.5  24.9  34018  287.18 0855.41
2009/04/23 08:29:03.0      25   -189      0    191    192 172.2   0.0  34022  287.23 0855.41
2009/04/23 08:29:03.1     -17   -160      7    161    162 186.2   2.8  34018  287.18 0855.41
2009/04/23 08:29:03.2      11   -199     78    200    214 176.6  22.5  34020  287.21 0855.40
2009/04/23 08:29:03.3      18   -175     65    176    187 174.0  21.0  34022  287.25 0855.40
2009/04/23 08:29:03.4     -10   -139     82    140    162 184.5  33.5  34020  287.20 0855.40
2009/04/23 08:29:03.5     -22   -111     70    114    133 191.5  35.5  34020  287.21 0855.40
2009/04/23 08:29:03.6      33    -52     40     62     73 147.4  35.6  34022  287.23 0855.40
2009/04/23 08:29:03.7      30    -65     30     72     78 154.6  23.1  34020  287.21 0855.40
2009/04/23 08:29:03.8      44   -107     20    116    118 157.7  10.1  34022  287.23 0855.40
2009/04/23 08:29:03.9      17   -160     72    161    176 173.7  25.7  34022  287.23 0855.40
2009/04/23 08:29:04.0     -15   -175     78    176    192 185.1  25.7  34022  287.23 0855.40
2009/04/23 08:29:04.1      -8   -188     35    189    193 182.5  10.6  34020  287.21 0855.40
2009/04/23 08:29:04.2       0   -192      9    193    194 180.2   2.8  34020  287.21 0855.40
2009/04/23 08:29:04.3     -34   -200     11    203    204 189.7   3.3  34016  287.15 0855.40
2009/04/23 08:29:04.4     -26   -258     51    260    266 185.8  11.1  34018  287.16 0855.40
2009/04/23 08:29:04.5      32   -238      9    241    242 172.2   2.3  34020  287.21 0855.40
2009/04/23 08:29:04.6       0   -245     -9    246    247 180.0  -2.2  34022  287.22 0855.40
2009/04/23 08:29:04.7      20   -236    -16    237    238 174.9  -3.9  34022  287.24 0855.40
2009/04/23 08:29:04.8     -17   -191      3    192    193 185.1   1.0  34022  287.23 0855.40
2009/04/23 08:29:04.9     -71   -239     -9    250    251 196.5  -2.2  34020  287.21 0855.40
2009/04/23 08:29:05.0     -72   -184     16    198    199 201.6   4.9  34020  287.21 0855.40
2009/04/23 08:29:05.1      -7   -163     29    164    167 182.7  10.1  34020  287.20 0855.40
2009/04/23 08:29:05.2      15   -200     47    201    207 175.5  13.2  34020  287.21 0855.40
2009/04/23 08:29:05.3      56   -235     70    242    253 166.6  16.3  34020  287.21 0855.40
2009/04/23 08:29:05.4      65   -230     80    240    254 164.2  18.6  34022  287.24 0855.40
2009/04/23 08:29:05.5      88   -274     -1    288    289 162.1  -0.3  34022  287.24 0855.40
2009/04/23 08:29:05.6      56   -244    -26    251    253 167.1  -6.1  34020  287.21 0855.40
2009/04/23 08:29:05.7      79   -210    -28    225    227 159.3  -7.2  34022  287.23 0855.40
2009/04/23 08:29:05.8      69   -207    -44    219    224 161.5 -11.3  34024  287.27 0855.40
2009/04/23 08:29:05.9      76   -239    -21    251    252 162.2  -4.9  34020  287.21 0855.40
2009/04/23 08:29:06.1      70   -269    -25    279    281 165.3  -5.2  34020  287.21 0855.40
2009/04/23 08:29:06.1      69   -260    -31    270    272 165.1  -6.7  34022  287.22 0855.40
2009/04/23 08:29:06.2      83   -233    -22    248    250 160.2  -5.1  34022  287.24 0855.40
2009/04/23 08:29:06.3      99   -194    -35    218    221 152.9  -9.3  34022  287.23 0855.40
2009/04/23 08:29:06.4      72   -250    -57    261    268 163.9 -12.4  34020  287.19 0855.40
2009/04/23 08:29:06.5      70   -249    -37    259    262 164.2  -8.2  34022  287.24 0855.40
2009/04/23 08:29:06.6      61   -232     -4    241    242 165.1  -1.1  34024  287.26 0855.40
2009/04/23 08:29:06.7      41   -230     32    234    237 169.8   8.0  34024  287.26 0855.40
2009/04/23 08:29:06.8      53   -219     11    226    227 166.2   2.9  34022  287.25 0855.40
2009/04/23 08:29:06.9      58   -204    -30    213    216 164.0  -8.0  34020  287.21 0855.40
2009/04/23 08:29:07.0      67   -225    -34    235    238 163.3  -8.2  34022  287.24 0855.40
2009/04/23 08:29:07.1      47   -199    -24    205    207 166.6  -6.7  34022  287.23 0855.40
2009/04/23 08:29:07.3      32   -187     -7    190    191 170.2  -2.2  34022  287.23 0855.40
2009/04/23 08:29:07.3      18   -187      9    188    189 174.2   2.9  34024  287.27 0855.40
2009/04/23 08:29:07.4      48   -197    -36    203    207 166.2 -10.1  34020  287.21 0855.40
2009/04/23 08:29:07.5      76   -176    -10    192    193 156.6  -3.1  34020  287.21 0855.40
2009/04/23 08:29:07.6      57   -154    -36    165    169 159.5 -12.4  34024  287.27 0855.40
2009/04/23 08:29:07.7      26   -178     -5    180    181 171.5  -1.6  34022  287.25 0855.40
2009/04/23 08:29:07.8      22   -201    -26    203    205 173.5  -7.3  34020  287.21 0855.40
2009/04/23 08:29:07.9      34   -191     22    195    197 169.8   6.7  34024  287.27 0855.40
2009/04/23 08:29:08.0      13   -188      7    189    190 175.8   2.3  34020  287.21 0855.40
2009/04/23 08:29:08.1      37   -189     30    193    196 168.7   8.8  34022  287.25 0855.40
2009/04/23 08:29:08.2      33   -202      0    205    206 170.7  -0.3  34020  287.20 0855.40
2009/04/23 08:29:08.3      34   -167    -26    171    174 168.5  -8.8  34022  287.23 0855.40
2009/04/23 08:29:08.4      30   -150    -32    154    158 168.5 -11.9  34022  287.23 0855.40
2009/04/23 08:29:08.5      44   -155    -44    162    168 164.2 -15.2  34024  287.27 0855.40
2009/04/23 08:29:08.6      40   -131     -2    138    139 163.0  -1.2  34022  287.25 0855.40
2009/04/23 08:29:08.7      29   -141     -5    145    146 168.4  -2.2  34022  287.23 0855.40
2009/04/23 08:29:08.8       3   -163     23    164    166 178.6   8.0  34020  287.20 0855.40
2009/04/23 08:29:08.9      16   -149     55    150    159 173.8  20.7  34020  287.21 0855.40
2009/04/23 08:29:09.0      75   -166     86    183    202 155.5  27.0  34022  287.23 0855.40
2009/04/23 08:29:09.1      59   -203     95    212    232 163.7  25.7  34018  287.16 0855.40
2009/04/23 08:29:09.2      76   -162     52    180    188 154.8  16.3  34022  287.23 0855.40
2009/04/23 08:29:09.3      45   -175     90    181    202 165.5  28.2  34016  287.15 0855.40
2009/04/23 08:29:09.4      52   -161    115    170    205 162.0  37.3  34018  287.18 0855.40
2009/04/23 08:29:09.5      56   -182    138    191    235 162.8  39.7  34020  287.21 0855.40
2009/04/23 08:29:09.6      57   -192    126    201    237 163.3  35.0  34020  287.20 0855.40
2009/04/23 08:29:09.7     107   -277     43    298    302 158.8   8.2  34020  287.21 0855.40
2009/04/23 08:29:09.8     129   -261     51    292    297 153.7  10.0  34020  287.21 0855.40
2009/04/23 08:29:09.9      88   -226     98    243    262 158.6  23.0  34018  287.17 0855.40
2009/04/23 08:29:10.0      48   -196     76    202    215 166.0  21.7  34020  287.21 0855.40
2009/04/23 08:29:10.1      28   -179     95    182    205 171.1  29.5  34018  287.18 0855.40
2009/04/23 08:29:10.2      36   -181    103    185    211 168.5  31.6  34020  287.21 0855.40
2009/04/23 08:29:10.3      15   -175     70    176    189 174.9  23.0  34020  287.20 0855.40
2009/04/23 08:29:10.4      22   -184     57    186    195 173.1  17.3  34022  287.23 0855.40
2009/04/23 08:29:10.5      77   -207     39    222    226 159.5  10.1  34022  287.23 0855.40
2009/04/23 08:29:10.6      70   -163      3    178    179 156.8   1.0  34022  287.25 0855.40
2009/04/23 08:29:10.7      58   -132     12    145    146 156.4   4.9  34020  287.21 0855.40
2009/04/23 08:29:10.8      71   -115     -9    136    137 148.4  -4.1  34022  287.25 0855.40
2009/04/23 08:29:10.9      52   -110    -28    122    126 154.5 -12.9  34022  287.25 0855.40
2009/04/23 08:29:11.0      53    -90    -27    105    109 149.3 -14.5  34022  287.23 0855.40
2009/04/23 08:29:11.1      51    -94    -21    107    110 151.5 -11.3  34020  287.21 0855.40
2009/04/23 08:29:11.2      50    -85    -15     99    101 149.3  -8.8  34022  287.23 0855.39
2009/04/23 08:29:11.3      47    -82     -3     95     96 149.7  -2.2  34022  287.25 0855.39
2009/04/23 08:29:11.4      73    -77     -4    107    108 136.3  -2.2  34022  287.23 0855.39
2009/04/23 08:29:11.5      66    -66      3     94     95 135.0   2.3  34022  287.23 0855.39
2009/04/23 08:29:11.6      66    -66     -5     94     95 135.0  -3.1  34022  287.23 0855.39
2009/04/23 08:29:11.7      70    -56      2     90     91 128.6   1.8  34022  287.23 0855.39
2009/04/23 08:29:11.8      78    -15     41     80     89 101.4  28.7  34024  287.28 0855.39
2009/04/23 08:29:11.9     105      0     41    106    113  90.0  22.0  34024  287.28 0855.39
2009/04/23 08:29:12.0      92    -31     46     98    108 108.6  27.1  34024  287.27 0855.39
2009/04/23 08:29:12.1      90    -35     26     97    101 111.3  15.2  34022  287.25 0855.39
2009/04/23 08:29:12.2      88    -20     58     91    107 103.3  35.5  34022  287.25 0855.39
2009/04/23 08:29:12.3      38     -7     82     39     90 101.5  72.9  34022  287.25 0855.39
2009/04/23 08:29:12.4      -6    -48     81     49     94 187.1  65.1  34026  287.30 0855.39
2009/04/23 08:29:12.5      17    -53     90     56    106 161.3  64.7  34024  287.27 0855.39
2009/04/23 08:29:12.6       2      0     82      3     82  71.6  90.0  34026  287.32 0855.39
2009/04/23 08:29:12.7     -15    -21     79     26     83 216.1  81.2  34026  287.32 0855.39
2009/04/23 08:29:12.8     -22   -117    123    120    171 190.7  50.7  34024  287.27 0855.39
2009/04/23 08:29:12.9     -25   -135    138    138    195 190.7  50.1  34024  287.27 0855.39
2009/04/23 08:29:13.0     -21   -102    135    105    171 192.0  57.9  34022  287.25 0855.39
2009/04/23 08:29:13.1      26     -7     73     27     77 105.1  80.2  34024  287.27 0855.39
2009/04/23 08:29:13.2       5    -72     97     73    121 175.6  59.0  34022  287.25 0855.39
2009/04/23 08:29:13.3      11   -149    117    150    190 175.6  42.2  34020  287.21 0855.39
2009/04/23 08:29:13.4      37   -138    112    144    182 164.8  41.7  34022  287.23 0855.39
2009/04/23 08:29:13.5      22   -123    104    126    163 169.8  43.7  34022  287.23 0855.39
2009/04/23 08:29:13.6      24   -140     78    143    162 170.2  31.0  34022  287.23 0855.39
2009/04/23 08:29:13.7      61   -153    103    165    194 158.2  35.5  34022  287.23 0855.39
2009/04/23 08:29:13.8     141   -143     99    201    224 135.5  28.2  34020  287.21 0855.39
2009/04/23 08:29:13.9      88   -173    107    195    222 153.0  31.4  34024  287.27 0855.39
2009/04/23 08:29:14.0      58   -175    107    185    213 161.5  33.1  34026  287.32 0855.39
2009/04/23 08:29:14.1      35   -178     95    182    205 168.7  29.5  34026  287.32 0855.39
2009/04/23 08:29:14.2      67   -198    117    210    240 161.3  31.4  34024  287.27 0855.39
2009/04/23 08:29:14.3      53   -180     72    188    201 163.5  22.0  34022  287.25 0855.39
2009/04/23 08:29:14.4      67   -137     93    153    179 153.7  34.2  34024  287.27 0855.39
2009/04/23 08:29:14.5      87   -145     69    170    183 149.0  23.0  34020  287.21 0855.39
2009/04/23 08:29:14.6      88   -138    111    164    198 147.5  37.4  34024  287.27 0855.39
2009/04/23 08:29:14.7      75   -157     87    175    195 154.4  28.5  34026  287.32 0855.39
2009/04/23 08:29:14.8      93   -199     85    220    235 154.8  22.1  34026  287.32 0855.39
2009/04/23 08:29:14.9      59   -218     91    226    243 164.8  23.0  34028  287.34 0855.39
2009/04/23 08:29:15.0      81   -205     52    221    228 158.4  13.2  34026  287.32 0855.39
2009/04/23 08:29:15.1      88   -186     48    206    212 154.7  13.2  34026  287.30 0855.39
2009/04/23 08:29:15.2      56   -202     13    210    211 164.4   3.8  34024  287.27 0855.38
2009/04/23 08:29:15.3      71   -216     31    228    231 161.7   7.8  34022  287.25 0855.38
2009/04/23 08:29:15.4      85   -204     60    222    231 157.3  15.3  34024  287.28 0855.38
2009/04/23 08:29:15.5      81   -191     54    208    215 156.8  14.7  34026  287.30 0855.38
2009/04/23 08:29:15.6     119   -209     61    241    249 150.4  14.3  34026  287.29 0855.38
2009/04/23 08:29:15.7     110   -197     42    226    230 150.8  10.6  34024  287.28 0855.38
2009/04/23 08:29:15.8      84   -170     31    190    193 153.7   9.3  34024  287.28 0855.38
2009/04/23 08:29:15.9      77   -157     22    176    178 153.7   7.1  34022  287.25 0855.38
2009/04/23 08:29:16.0      88   -190     20    210    212 155.1   5.7  34022  287.25 0855.38
2009/04/23 08:29:16.1      64   -213     20    223    224 163.1   5.2  34022  287.25 0855.38
2009/04/23 08:29:16.2      79   -176      9    194    195 155.7   2.8  34024  287.28 0855.38
2009/04/23 08:29:16.3      91   -178    -17    201    202 152.8  -4.9  34024  287.28 0855.38
2009/04/23 08:29:16.4     104   -135     20    171    173 142.4   6.9  34024  287.28 0855.38
2009/04/23 08:29:16.5      68   -144     73    160    175 154.5  26.2  34024  287.28 0855.38
2009/04/23 08:29:16.6      37   -165     10    170    171 167.1   3.6  34026  287.30 0855.38
2009/04/23 08:29:16.7      35   -139     42    144    151 165.7  16.3  34026  287.30 0855.38
2009/04/23 08:29:16.8       8   -149     41    150    156 176.9  15.6  34024  287.28 0855.38
2009/04/23 08:29:16.9      23   -124     70    127    145 169.3  31.4  34026  287.30 0855.38
2009/04/23 08:29:17.0      51   -111     56    123    135 155.5  26.2  34024  287.28 0855.38
2009/04/23 08:29:17.1      53    -53     31     76     82 135.0  23.0  34024  287.27 0855.38
2009/04/23 08:29:17.2     101    -40     78    109    134 111.7  39.1  34026  287.30 0855.38
2009/04/23 08:29:17.3     104    -30     77    109    133 106.4  38.6  34022  287.23 0855.38
2009/04/23 08:29:17.4      48    -99     79    111    136 154.1  39.1  34024  287.27 0855.38
2009/04/23 08:29:17.5      -2    -54     88     55    103 182.7  64.7  34024  287.27 0855.38
2009/04/23 08:29:17.6      90     29     74     95    120  71.8  41.7  34026  287.30 0855.38
2009/04/23 08:29:17.7      57    -47     25     75     80 129.6  18.4  34024  287.27 0855.38
2009/04/23 08:29:17.8      55    -40     18     69     72 126.0  15.3  34024  287.28 0855.38
2009/04/23 08:29:17.9      45    -39      8     60     61 131.3   8.0  34024  287.27 0855.38
2009/04/23 08:29:18.0      30    -29      9     42     43 134.0  12.2  34024  287.28 0855.38
2009/04/23 08:29:18.1      19    -30      1     36     37 147.5   2.9  34026  287.30 0855.38
2009/04/23 08:29:18.2      10    -25    -10     27     28 158.2 -23.3  34024  287.27 0855.38
2009/04/23 08:29:18.3       4    -44    -41     45     60 173.8 -52.3  34026  287.30 0855.38
2009/04/23 08:29:18.4      51    -28    -27     59     64 118.9 -31.5  34024  287.28 0855.38
2009/04/23 08:29:18.5      27     -9     20     29     35 108.6  35.6  34024  287.28 0855.38
2009/04/23 08:29:18.6       5     -4     13      7     14 129.5  64.7  34022  287.25 0855.38
2009/04/23 08:29:18.7       1     20     12     21     24   4.5  31.4  34022  287.23 0855.38
2009/04/23 08:29:18.8     -21     46      9     51     52 334.5  11.0  34024  287.27 0855.38
2009/04/23 08:29:18.9     -31     55     12     64     66 330.1  11.1  34022  287.23 0855.38
2009/04/23 08:29:19.0     -14     61     19     63     67 346.6  17.3  34024  287.28 0855.38
2009/04/23 08:29:19.1     -18     55     26     58     63 341.7  25.1  34024  287.27 0855.38
2009/04/23 08:29:19.2      -6     44     40     45     60 352.0  46.9  34026  287.32 0855.37
2009/04/23 08:29:19.3     -24     21     43     32     53 311.3  59.4  34026  287.32 0855.37
2009/04/23 08:29:19.4     -24      4     35     25     43 279.7  60.5  34026  287.32 0855.37
2009/04/23 08:29:19.5      -4      0     41      5     41 270.0  90.0  34024  287.27 0855.37
2009/04/23 08:29:19.6       6     40     17     41     44   9.8  23.0  34026  287.30 0855.37
2009/04/23 08:29:19.7      -4     26     52     27     58 350.2  70.8  34026  287.30 0855.37
2009/04/23 08:29:19.8       3     -7     57      8     57 154.6  90.0  34026  287.30 0855.37
2009/04/23 08:29:19.9      -1    -30     40     31     50 182.6  57.5  34026  287.30 0855.37
2009/04/23 08:29:20.0      26    -56     33     62     70 154.6  30.3  34024  287.28 0855.37
2009/04/23 08:29:20.2     -11   -105     76    106    130 186.2  39.5  34024  287.28 0855.37
2009/04/23 08:29:20.2       8   -173     20    174    176 177.3   6.7  34022  287.23 0855.37
2009/04/23 08:29:20.3     -29   -166     26    169    171 190.0   8.8  34020  287.21 0855.37
2009/04/23 08:29:20.5       1   -163    -13    164    165 179.5  -4.9  34024  287.27 0855.37
2009/04/23 08:29:20.6      15   -161     51    162    171 174.7  17.7  34022  287.25 0855.37
2009/04/23 08:29:20.7     -12   -185     82    186    203 183.8  25.1  34022  287.23 0855.37
2009/04/23 08:29:20.8       2   -171    104    172    200 179.1  34.0  34024  287.27 0855.37
2009/04/23 08:29:20.9       2   -172     78    173    189 179.1  26.2  34024  287.28 0855.37
2009/04/23 08:29:21.0       5   -146     66    147    161 177.8  25.7  34022  287.25 0855.37
2009/04/23 08:29:21.1     -29   -126     45    130    138 193.3  19.4  34024  287.27 0855.37
2009/04/23 08:29:21.2     -76    -55    -14     94     96 234.0  -8.8  34024  287.27 0855.37
2009/04/23 08:29:21.3     -79    -64     -4    102    103 230.9  -2.6  34024  287.28 0855.37
2009/04/23 08:29:21.4     -80    -85     -8    118    119 223.3  -4.1  34022  287.23 0855.37
2009/04/23 08:29:21.5     -59    -93     28    111    115 212.5  14.3  34024  287.28 0855.37
2009/04/23 08:29:21.6     -62   -111     33    128    133 209.4  14.7  34026  287.30 0855.37
2009/04/23 08:29:21.7     -46   -106     44    116    124 203.6  21.0  34022  287.25 0855.37
2009/04/23 08:29:21.8     -61    -96     41    115    122 212.5  20.4  34026  287.30 0855.37
2009/04/23 08:29:21.9     -46    -93     50    104    115 206.3  27.3  34026  287.32 0855.37
2009/04/23 08:29:22.0     -47    -99     22    110    113 205.3  11.6  34024  287.28 0855.37
2009/04/23 08:29:22.1     -40    -91     34    100    106 204.1  18.9  34024  287.28 0855.37
2009/04/23 08:29:22.2     -40    -94     20    103    105 203.2  11.0  34024  287.28 0855.37
2009/04/23 08:29:22.3     -32   -119     18    124    126 195.1   8.5  34026  287.32 0855.38
2009/04/23 08:29:22.4     -51   -167     20    175    177 197.2   6.7  34026  287.32 0855.38
2009/04/23 08:29:22.5     -57   -172    -10    182    183 198.3  -3.1  34026  287.32 0855.38
2009/04/23 08:29:22.6     -72   -148    -48    165    171 205.9 -21.0  34026  287.32 0855.38
2009/04/23 08:29:22.7     -46   -103    -37    113    118 204.1 -23.8  34024  287.27 0855.38
2009/04/23 08:29:22.8       6   -112     34    113    119 176.9  16.8  34028  287.33 0855.38
2009/04/23 08:29:22.9      10   -132     13    133    134 175.6   5.9  34026  287.30 0855.38
2009/04/23 08:29:23.0      -6   -183      0    184    185 182.0   0.2  34026  287.32 0855.38
2009/04/23 08:29:23.1      -1   -175    -22    176    178 180.5  -7.3  34024  287.27 0855.38
2009/04/23 08:29:23.2      14   -153    -26    154    157 174.7  -9.8  34024  287.27 0855.38
2009/04/23 08:29:23.3       6   -128    -27    129    132 177.3 -11.9  34028  287.33 0855.38
2009/04/23 08:29:23.4      15   -108    -14    110    111 171.9  -7.3  34026  287.32 0855.38
2009/04/23 08:29:23.5       0    -90    -43     91    100 180.4 -31.6  34024  287.28 0855.38
2009/04/23 08:29:23.6      -8    -68     -3     69     70 187.1  -3.2  34024  287.28 0855.38
2009/04/23 08:29:23.7     -12    -49     21     51     55 194.3  24.1  34026  287.30 0855.38
2009/04/23 08:29:23.8     -14    -42     31     45     54 199.2  37.6  34026  287.32 0855.38
2009/04/23 08:29:23.9       7     -2     37      8     37 108.6  89.0  34026  287.30 0855.38
2009/04/23 08:29:24.0       7     47     69     48     84   8.9  62.1  34028  287.33 0855.38
2009/04/23 08:29:24.1       0    -33     42     34     54 180.9  56.4  34030  287.37 0855.38
2009/04/23 08:29:24.2     -26    -12     75     29     80 244.7  77.6  34026  287.32 0855.38
2009/04/23 08:29:24.3      -3     41     62     42     74 355.5  63.6  34032  287.40 0855.37
2009/04/23 08:29:24.4       6     23     47     24     52  15.1  71.9  34030  287.37 0855.37
2009/04/23 08:29:24.5     -21     -7     50     23     55 250.0  73.1  34030  287.37 0855.37
2009/04/23 08:29:24.6      10    -45     52     47     70 166.6  53.3  34030  287.37 0855.37
2009/04/23 08:29:24.7       9    -86     41     87     96 173.8  27.2  34024  287.27 0855.37
2009/04/23 08:29:24.8       8    -73     38     74     83 173.8  29.3  34026  287.32 0855.37
2009/04/23 08:29:24.9       9    -68     26     69     73 172.0  20.0  34026  287.30 0855.37
2009/04/23 08:29:25.0      16    -47     17     50     53 160.8  19.2  34026  287.32 0855.37
2009/04/23 08:29:25.1      19    -43      3     48     49 156.4   3.8  34028  287.33 0855.37
2009/04/23 08:29:25.2      27    -37      3     46     47 143.9   4.9  34024  287.28 0855.37
2009/04/23 08:29:25.3      42    -34     15     55     58 129.5  15.3  34028  287.33 0855.37
2009/04/23 08:29:25.4      45    -39      8     60     61 131.3   8.0  34024  287.27 0855.37
2009/04/23 08:29:25.5      51    -32     -1     61     62 122.4  -1.3  34024  287.28 0855.37
2009/04/23 08:29:25.6      46    -37     -3     60     61 128.6  -3.1  34026  287.30 0855.37
2009/04/23 08:29:25.7      77    -15     -2     79     80 101.4  -1.8  34024  287.28 0855.37
2009/04/23 08:29:25.8      67    -40    -15     79     81 120.7 -10.9  34024  287.28 0855.37
2009/04/23 08:29:25.9      36    -20    -40     42     58 118.9 -55.5  34024  287.28 0855.37
2009/04/23 08:29:26.0      -7      6    -41     10     42 313.1 -90.0  34024  287.27 0855.37
2009/04/23 08:29:26.1       7      7    -38     11     39  45.0 -85.1  34024  287.28 0855.37
2009/04/23 08:29:26.2      11     18    -35     22     41  30.7 -69.1  34026  287.30 0855.37
2009/04/23 08:29:26.3      24     -1    -36     25     43  94.4 -65.9  34026  287.30 0855.37
2009/04/23 08:29:26.4      41    -19    -29     46     54 115.3 -39.9  34028  287.33 0855.37
2009/04/23 08:29:26.5      51    -32    -28     61     67 122.5 -30.6  34026  287.32 0855.37
2009/04/23 08:29:26.6      21    -21    -20     30     36 134.9 -40.0  34026  287.32 0855.37
2009/04/23 08:29:26.7      48     -9     -1     49     50 100.6  -2.2  34026  287.30 0855.37
2009/04/23 08:29:26.8      78    -15    -15     80     82 101.5 -10.9  34024  287.28 0855.37
2009/04/23 08:29:26.9      84    -36     -5     92     93 113.1  -3.1  34028  287.33 0855.37
2009/04/23 08:29:27.0     113    -37      0    119    120 108.2   0.2  34026  287.30 0855.37
2009/04/23 08:29:27.1     151    -77     30    170    173 117.1  10.1  34024  287.28 0855.37
2009/04/23 08:29:27.2     160   -112      9    196    197 124.9   2.8  34026  287.30 0855.37
2009/04/23 08:29:27.3     114    -82     28    141    144 126.0  11.6  34026  287.30 0855.37
2009/04/23 08:29:27.4      89   -101     46    135    143 138.6  18.9  34026  287.32 0855.37
2009/04/23 08:29:27.5      77    -93     33    122    127 140.3  15.3  34028  287.33 0855.37
2009/04/23 08:29:27.6      68    -75     33    102    108 137.7  17.9  34024  287.28 0855.37
2009/04/23 08:29:27.7      77    -61     40     99    106 128.2  23.0  34026  287.30 0855.37
2009/04/23 08:29:27.8      48    -37     73     61     95 127.8  56.3  34026  287.32 0855.37
2009/04/23 08:29:27.9      10    -10     71     15     72 136.8  89.0  34026  287.32 0855.37
2009/04/23 08:29:28.0     -18      8     62     21     65 295.3  81.0  34028  287.35 0855.37
2009/04/23 08:29:28.1       1     10     82     11     82   8.0  90.0  34026  287.32 0855.37
2009/04/23 08:29:28.2       2      0     59      3     59  90.0  90.0  34028  287.33 0855.37
2009/04/23 08:29:28.3      -1    -57     50     58     76 181.8  44.8  34028  287.33 0855.38
2009/04/23 08:29:28.4      -1    -74     56     75     93 180.9  40.7  34026  287.32 0855.38
2009/04/23 08:29:28.5       4    -94     38     95    102 177.3  23.0  34024  287.27 0855.38
2009/04/23 08:29:28.6     -20    -94     36     97    103 192.0  21.0  34026  287.30 0855.38
2009/04/23 08:29:28.7     -31    -60    -13     68     70 207.2 -11.3  34026  287.30 0855.38
2009/04/23 08:29:28.8     -21    -45    -11     50     52 205.5 -12.4  34028  287.35 0855.38
2009/04/23 08:29:28.9       0    -48    -16     49     51 180.0 -23.8  34026  287.32 0855.38
2009/04/23 08:29:29.0     -22    -33     52     40     65 213.4  58.5  34026  287.30 0855.38
2009/04/23 08:29:29.1       3   -123     83    124    149 178.6  37.0  34028  287.35 0855.38
2009/04/23 08:29:29.2      24   -159     36    161    165 171.1  12.6  34028  287.33 0855.38
2009/04/23 08:29:29.3      14   -170     68    171    184 175.1  22.8  34030  287.38 0855.38
2009/04/23 08:29:29.4     -22   -144     72    146    162 188.9  28.2  34028  287.35 0855.38
2009/04/23 08:29:29.5      28   -201     68    204    216 172.0  18.4  34032  287.40 0855.38
2009/04/23 08:29:29.6      39   -237     84    241    256 170.7  19.2  34028  287.34 0855.38
2009/04/23 08:29:29.7      22   -204     90    206    224 173.7  25.2  34030  287.37 0855.38
2009/04/23 08:29:29.8      37   -185     89    189    208 168.7  27.1  34028  287.35 0855.38
2009/04/23 08:29:29.9      25   -201     23    203    205 172.9   6.7  34028  287.35 0855.38
2009/04/23 08:29:30.0      42   -178     39    184    189 166.6  12.2  34028  287.35 0855.38
2009/04/23 08:29:30.1      23   -156     82    158    178 171.5  29.8  34024  287.28 0855.38
2009/04/23 08:29:30.2     -33   -184     63    187    198 190.2  18.6  34030  287.37 0855.38
2009/04/23 08:29:30.3      -3   -204     24    205    207 181.0   6.9  34024  287.28 0855.37
2009/04/23 08:29:30.4     -33   -227     19    230    231 188.5   4.9  34022  287.25 0855.37
2009/04/23 08:29:30.5     -76   -253     58    265    272 196.7  12.4  34028  287.34 0855.37
2009/04/23 08:29:30.6     -59   -227     25    235    237 194.7   6.1  34026  287.31 0855.37
2009/04/23 08:29:30.7     -38   -224     -1    228    229 189.7  -0.3  34026  287.30 0855.37
2009/04/23 08:29:30.8     -50   -187    -53    194    202 195.2 -15.4  34026  287.30 0855.37
2009/04/23 08:29:30.9    -135   -194    -56    237    244 215.0 -13.4  34024  287.28 0855.37
2009/04/23 08:29:31.0    -114   -161    -39    198    202 215.4 -11.3  34022  287.25 0855.37
2009/04/23 08:29:31.1     -98   -137    -90    169    191 215.6 -34.7  34024  287.27 0855.37
2009/04/23 08:29:31.2     -30   -160   -119    163    201 190.9 -44.1  34024  287.28 0855.37
2009/04/23 08:29:31.3      42   -227   -146    231    273 169.5 -39.9  34028  287.34 0855.37
2009/04/23 08:29:31.4     -23   -313    -96    314    329 184.4 -17.0  34024  287.26 0855.37
2009/04/23 08:29:31.5    -113   -217    -76    245    257 207.6 -17.3  34018  287.17 0855.37
2009/04/23 08:29:31.6    -142   -103    -57    176    186 234.0 -17.9  34024  287.27 0855.37
2009/04/23 08:29:31.7    -191    -47      5    197    198 256.1   1.6  34020  287.21 0855.37
2009/04/23 08:29:31.8    -179    -71      2    193    194 248.3   0.8  34024  287.27 0855.37
2009/04/23 08:29:31.9     -98   -110    -10    148    149 221.5  -4.1  34024  287.27 0855.37
2009/04/23 08:29:32.0     -31   -203     -4    206    207 188.7  -1.3  34026  287.30 0855.37
2009/04/23 08:29:32.1     -67   -226     33    236    239 196.7   8.0  34022  287.24 0855.37
2009/04/23 08:29:32.2     -57   -240    -35    247    250 193.6  -8.2  34024  287.26 0855.37
2009/04/23 08:29:32.3    -151   -209    -75    258    269 215.8 -16.4  34020  287.19 0855.38
2009/04/23 08:29:32.4    -150   -217     22    265    267 214.7   4.9  34024  287.28 0855.38
2009/04/23 08:29:32.5    -181   -182    -10    257    258 224.8  -2.2  34022  287.22 0855.38
2009/04/23 08:29:32.6    -157    -54    -44    167    173 250.9 -15.0  34024  287.28 0855.38
2009/04/23 08:29:32.7    -159    -38    -78    164    181 256.3 -31.6  34024  287.27 0855.38
2009/04/23 08:29:32.8    -151   -132   -104    201    226 228.7 -33.7  34028  287.33 0855.38
2009/04/23 08:29:32.9    -136   -163    -76    213    227 219.9 -19.7  34022  287.23 0855.38
2009/04/23 08:29:33.0     -57   -171    -32    181    184 198.5 -10.3  34024  287.28 0855.38
2009/04/23 08:29:33.1      14   -152     54    153    162 174.7  20.0  34026  287.32 0855.38
2009/04/23 08:29:33.2     -38    -76     16     86     88 206.7  11.1  34024  287.27 0855.38
2009/04/23 08:29:33.3     -81    -30     -3     87     88 249.2  -2.2  34024  287.27 0855.38
2009/04/23 08:29:33.4     -39    -72    -19     82     85 208.5 -13.4  34024  287.28 0855.38
2009/04/23 08:29:33.5       4   -101    -76    102    127 177.3 -45.6  34026  287.32 0855.38
2009/04/23 08:29:33.6      -6    -94    -97     95    135 183.6 -54.5  34030  287.38 0855.38
2009/04/23 08:29:33.7      19    -94   -123     97    156 168.4 -62.1  34030  287.38 0855.38
2009/04/23 08:29:33.8      98   -113    -42    150    155 139.0 -20.4  34030  287.38 0855.38
2009/04/23 08:29:33.9      58   -145    -82    157    177 158.2 -33.9  34024  287.27 0855.38
2009/04/23 08:29:34.0      49   -124   -161    134    209 158.2 -60.7  34022  287.25 0855.38
2009/04/23 08:29:34.1      17   -124   -147    126    193 172.0 -59.4  34024  287.27 0855.38
2009/04/23 08:29:34.2      27   -191    -13    193    194 171.9  -4.1  34022  287.25 0855.38
2009/04/23 08:29:34.3      16   -251    -46    252    257 176.2 -10.5  34024  287.28 0855.37
2009/04/23 08:29:34.4      30   -239    -66    241    250 172.7 -15.4  34024  287.26 0855.37
2009/04/23 08:29:34.5      34   -229    -82    232    247 171.5 -19.4  34022  287.24 0855.37
2009/04/23 08:29:34.6      51   -215    -76    222    235 166.6 -19.1  34022  287.25 0855.37
2009/04/23 08:29:34.7      79   -199    -72    215    226 158.4 -23.6  34020  287.20 0855.37
2009/04/23 08:29:34.8      95   -162    -54    189    197 149.5 -16.0  34024  287.27 0855.37
2009/04/23 08:29:34.9      90   -168    -56    191    199 151.7 -21.2  34022  287.23 0855.37
2009/04/23 08:29:35.0      78   -186    -65    202    212 157.1 -23.0  34018  287.16 0855.37
2009/04/23 08:29:35.1      32   -224     -4    227    228 171.9  -1.2  34020  287.20 0855.37
2009/04/23 08:29:35.2      17   -226    -26    227    229 175.5  -6.7  34024  287.28 0855.37
2009/04/23 08:29:35.3      12   -200    -54    201    209 176.4 -15.0  34020  287.20 0855.37
2009/04/23 08:29:35.4      29   -185    -33    188    191 171.1 -10.1  34022  287.23 0855.37
2009/04/23 08:29:35.5      59   -170    -39    181    186 160.8 -12.2  34024  287.28 0855.37
2009/04/23 08:29:35.6      14   -182    -50    183    190 175.5 -15.5  34020  287.21 0855.37
2009/04/23 08:29:35.7       6   -172    -22    173    175 178.0  -7.5  34024  287.28 0855.37
2009/04/23 08:29:35.8      46   -178    -39    185    190 165.3 -11.9  34024  287.28 0855.37
2009/04/23 08:29:35.9      41   -126    -47    133    142 161.7 -19.6  34026  287.32 0855.37
2009/04/23 08:29:36.0      19   -164     -9    166    167 173.3  -3.3  34024  287.27 0855.37
2009/04/23 08:29:36.1       3   -187    -39    188    193 179.0 -11.9  34024  287.28 0855.37
2009/04/23 08:29:36.2       1   -159    -58    160    170 179.5 -24.8  34022  287.25 0855.37
2009/04/23 08:29:36.3       7   -196    -61    197    207 177.8 -17.3  34026  287.30 0855.37
2009/04/23 08:29:36.4       0   -204    -25    205    207 180.0  -7.2  34026  287.32 0855.37
2009/04/23 08:29:36.5     -35   -197    -68    201    212 190.2 -23.3  34024  287.28 0855.37
2009/04/23 08:29:36.6      10   -199    -57    200    209 177.1 -16.0  34026  287.30 0855.37
2009/04/23 08:29:36.7     -19   -157    -70    159    173 187.1 -29.5  34024  287.27 0855.37
2009/04/23 08:29:36.8     -53   -143    -74    153    169 200.5 -31.8  34022  287.23 0855.37
2009/04/23 08:29:36.9     -35   -172    -74    176    190 191.8 -28.5  34022  287.23 0855.37
2009/04/23 08:29:37.0     -46   -189    -85    195    212 193.8 -29.5  34018  287.16 0855.37
2009/04/23 08:29:37.1     -55   -171   -103    180    207 198.0 -36.8  34020  287.20 0855.37
2009/04/23 08:29:37.2     -67   -173    -96    186    209 201.4 -33.7  34022  287.23 0855.37
2009/04/23 08:29:37.3     -36   -167    -89    171    192 192.3 -34.2  34020  287.20 0855.37
2009/04/23 08:29:37.4     -18   -168    -56    170    178 186.2 -23.6  34018  287.16 0855.37
2009/04/23 08:29:37.5      12   -219    -70    220    230 176.9 -23.3  34018  287.16 0855.37
2009/04/23 08:29:37.6      14   -192    -65    193    203 175.8 -23.3  34018  287.18 0855.37
2009/04/23 08:29:37.7      17   -182    -76    183    198 174.4 -28.0  34020  287.21 0855.37
2009/04/23 08:29:37.8      61   -180    -85    191    209 161.3 -30.1  34022  287.23 0855.37
2009/04/23 08:29:37.9      76   -171    -75    188    202 155.9 -27.4  34020  287.20 0855.37
2009/04/23 08:29:38.0     127   -192   -115    231    258 146.4 -32.6  34026  287.29 0855.37
2009/04/23 08:29:38.1     152   -271   -104    311    329 150.7 -18.6  34030  287.36 0855.37
2009/04/23 08:29:38.2     136   -260    -39    294    297 152.4  -7.7  34030  287.38 0855.37
2009/04/23 08:29:38.3     145   -296     -9    330    331 153.9  -1.7  34030  287.37 0855.38
2009/04/23 08:29:38.4     150   -269     43    309    313 150.8   8.0  34030  287.36 0855.38
2009/04/23 08:29:38.5     154   -218     57    268    275 144.8  12.2  34030  287.36 0855.38
2009/04/23 08:29:38.6     143   -195     99    242    261 143.7  23.1  34028  287.34 0855.38
2009/04/23 08:29:38.7     105   -251    104    273    292 157.3  21.7  34028  287.34 0855.38
2009/04/23 08:29:38.8     116   -266     62    291    298 156.4  12.2  34026  287.31 0855.38
2009/04/23 08:29:38.9     139   -283     94    316    330 153.7  16.7  34030  287.38 0855.38
2009/04/23 08:29:39.0      18   -247     10    248    249 175.6   2.5  34028  287.34 0855.38
2009/04/23 08:29:39.1      30   -201    -18    204    205 171.3  -5.2  34028  287.33 0855.38
2009/04/23 08:29:39.2      70   -219    -54    230    237 162.2 -13.3  34026  287.29 0855.38
2009/04/23 08:29:39.3      92   -192    -11    213    214 154.4  -3.2  34026  287.32 0855.38
2009/04/23 08:29:39.4      26   -139      3    142    143 169.3   1.2  34026  287.30 0855.38
2009/04/23 08:29:39.5      25   -124    -50    127    136 168.4 -26.9  34026  287.30 0855.38
2009/04/23 08:29:39.6      27   -123    -68    127    144 167.5 -35.2  34026  287.30 0855.38
2009/04/23 08:29:39.7      89   -177    -46    199    205 153.3 -13.2  34026  287.32 0855.38
2009/04/23 08:29:39.8     106   -208    -13    234    235 152.9  -3.2  34030  287.38 0855.38
2009/04/23 08:29:39.9     155   -157     18    221    222 135.5   4.9  34028  287.35 0855.38
2009/04/23 08:29:40.0     153   -143      5    210    211 133.1   1.6  34030  287.37 0855.38
2009/04/23 08:29:40.1     108   -166      3    199    200 146.8   1.0  34028  287.35 0855.38
2009/04/23 08:29:40.2     110   -144    -22    182    184 142.6  -6.9  34032  287.40 0855.38
2009/04/23 08:29:40.3      92   -151     -9    177    178 148.6  -3.1  34026  287.32 0855.39
2009/04/23 08:29:40.4      87   -142     36    167    171 148.4  12.2  34030  287.38 0855.39
2009/04/23 08:29:40.5      93   -118     18    151    153 141.7   6.9  34028  287.35 0855.39
2009/04/23 08:29:40.6      72   -130     23    149    151 151.0   9.0  34028  287.35 0855.39
2009/04/23 08:29:40.7      78   -193     27    209    211 157.9   7.5  34026  287.32 0855.39
2009/04/23 08:29:40.8      71   -192      5    205    206 159.7   1.6  34026  287.32 0855.39
2009/04/23 08:29:40.9     102   -213     18    237    238 154.4   4.4  34030  287.38 0855.39
2009/04/23 08:29:41.0     101   -230     21    252    253 156.3   4.9  34030  287.36 0855.39
2009/04/23 08:29:41.1     104   -218     18    242    243 154.4   4.4  34026  287.31 0855.39
2009/04/23 08:29:41.2      85   -208     11    225    226 157.7   2.8  34028  287.33 0855.39
2009/04/23 08:29:41.3      65   -240     -9    249    250 164.9  -2.2  34028  287.33 0855.38
2009/04/23 08:29:41.4      84   -250     17    265    266 161.3   3.8  34028  287.34 0855.38
2009/04/23 08:29:41.5      71   -241     -9    252    253 163.5  -2.2  34030  287.38 0855.38
2009/04/23 08:29:41.6      35   -247     -9    250    251 171.8  -2.1  34026  287.29 0855.38
2009/04/23 08:29:41.7      47   -234    -17    239    240 168.5  -4.1  34028  287.34 0855.38
2009/04/23 08:29:41.8      59   -290    -11    297    298 168.4  -2.2  34024  287.26 0855.38
2009/04/23 08:29:41.9      85   -233     21    249    250 160.0   4.9  34032  287.39 0855.38
2009/04/23 08:29:42.0      80   -202     -8    218    219 158.4  -2.2  34032  287.40 0855.38
2009/04/23 08:29:42.1      86   -205    -32    223    226 157.1  -8.2  34030  287.37 0855.38
2009/04/23 08:29:42.2      39   -185    -52    190    198 168.0 -15.5  34030  287.37 0855.38
2009/04/23 08:29:42.3      34   -208    -29    211    214 170.7  -8.0  34028  287.33 0855.38
2009/04/23 08:29:42.4      27   -187    -18    189    190 171.8  -5.6  34026  287.30 0855.38
2009/04/23 08:29:42.5      47   -166    -30    173    176 164.2 -10.1  34028  287.35 0855.38
2009/04/23 08:29:42.6      32   -194    -40    197    202 170.4 -11.6  34030  287.38 0855.38
2009/04/23 08:29:42.7      17   -178    -27    179    182 174.4  -8.8  34028  287.33 0855.38
2009/04/23 08:29:42.8      25   -173     -2    175    176 171.5  -0.7  34030  287.38 0855.38
2009/04/23 08:29:42.9      24   -187      4    189    190 172.4   1.2  34030  287.38 0855.38
2009/04/23 08:29:43.0      25   -173     -8    175    176 171.8  -2.8  34030  287.37 0855.38
2009/04/23 08:29:43.1      54   -136    -18    147    149 158.2  -7.3  34028  287.33 0855.38
2009/04/23 08:29:43.2      67   -138      7    154    155 154.1   2.9  34032  287.40 0855.38
2009/04/23 08:29:43.3      93   -167      1    192    193 150.8   0.5  34030  287.37 0855.38
2009/04/23 08:29:43.4      53   -160    -20    169    171 161.5  -6.9  34030  287.38 0855.38
2009/04/23 08:29:43.5      56   -158    -15    168    169 160.4  -5.2  34030  287.38 0855.38
2009/04/23 08:29:43.6      49   -143     -9    152    153 160.8  -3.7  34030  287.37 0855.38
2009/04/23 08:29:43.7      32   -143     -1    147    148 167.1  -0.7  34028  287.35 0855.38
2009/04/23 08:29:43.8      18   -136     -7    138    139 172.4  -3.2  34032  287.42 0855.38
2009/04/23 08:29:44.0      41   -128    -24    135    138 162.2 -10.3  34032  287.40 0855.38
2009/04/23 08:29:44.0      99   -144      5    175    176 145.5   1.8  34030  287.37 0855.38
2009/04/23 08:29:44.1     103   -178     18    206    207 149.9   5.2  34030  287.38 0855.38
2009/04/23 08:29:44.2      89   -162     21    186    188 151.1   6.5  34034  287.43 0855.38
2009/04/23 08:29:44.3      73   -183     40    198    203 158.2  11.6  34030  287.38 0855.38
2009/04/23 08:29:44.4      65   -167     21    180    182 158.8   6.7  34030  287.37 0855.38
2009/04/23 08:29:44.5      87   -137     41    163    169 147.5  14.3  34030  287.37 0855.38
2009/04/23 08:29:44.6      69   -109     14    130    131 147.5   6.5  34032  287.40 0855.38
2009/04/23 08:29:44.7      93   -107     49    143    152 139.0  19.2  34030  287.37 0855.38
2009/04/23 08:29:44.8      24   -131     51    134    143 169.3  21.5  34030  287.38 0855.38
2009/04/23 08:29:44.9      -1   -121     65    122    138 180.9  30.8  34030  287.37 0855.38
2009/04/23 08:29:45.0      30   -136     38    140    146 167.5  15.3  34030  287.38 0855.38
2009/04/23 08:29:45.1      13   -111     40    112    118 173.3  20.4  34028  287.35 0855.38
2009/04/23 08:29:45.2      23   -116     32    119    124 168.4  15.2  34032  287.42 0855.38
2009/04/23 08:29:45.3      23   -103     42    106    114 167.1  22.5  34030  287.38 0855.39
2009/04/23 08:29:45.4      27    -97     35    101    107 164.0  19.2  34030  287.38 0855.39
2009/04/23 08:29:45.5      14   -102     36    104    111 172.0  19.4  34032  287.40 0855.39
2009/04/23 08:29:45.6      40   -129     14    136    137 162.6   5.9  34032  287.42 0855.39
2009/04/23 08:29:45.7      55   -116    -17    129    131 154.7  -7.7  34030  287.37 0855.39
2009/04/23 08:29:45.8      70   -111    -31    132    136 147.5 -13.4  34030  287.37 0855.39
2009/04/23 08:29:45.9      50    -91     -6    105    106 151.0  -3.7  34030  287.38 0855.39
2009/04/23 08:29:46.0      52    -82     -1     98     99 147.4  -0.7  34032  287.40 0855.39
2009/04/23 08:29:46.1      42    -96     10    105    106 156.4   5.9  34028  287.35 0855.39
2009/04/23 08:29:46.3      48    -90     18    103    105 151.9  10.1  34030  287.37 0855.39
2009/04/23 08:29:46.3      52    -96     21    110    113 151.5  11.0  34028  287.35 0855.39
2009/04/23 08:29:46.4      46   -104     13    115    116 155.9   6.9  34028  287.35 0855.39
2009/04/23 08:29:46.5      44    -84     13     95     96 152.4   8.0  34028  287.33 0855.39
2009/04/23 08:29:46.6      25    -63      3     68     69 158.1   2.9  34030  287.38 0855.39
2009/04/23 08:29:46.8       7    -54     22     55     59 172.0  23.0  34030  287.37 0855.39
2009/04/23 08:29:46.9     -15    -53      4     56     57 196.0   4.9  34030  287.37 0855.39
2009/04/23 08:29:47.0     -11    -42      0     44     45 195.1   0.8  34030  287.37 0855.39
2009/04/23 08:29:47.1      -8    -25     18     27     32 198.7  35.6  34028  287.35 0855.39
2009/04/23 08:29:47.2       3    -14     31     15     34 164.9  72.9  34028  287.35 0855.39
2009/04/23 08:29:47.2       9      0     41     10     42  90.0  86.9  34030  287.37 0855.39
2009/04/23 08:29:47.4       7      6     22     10     24  46.9  75.0  34030  287.37 0855.39
2009/04/23 08:29:47.5       4     12     18     13     22  18.7  60.5  34030  287.38 0855.39
2009/04/23 08:29:47.6      10      9     17     14     22  46.7  56.4  34032  287.42 0855.39
2009/04/23 08:29:47.7       2     13     10     14     17  11.6  39.7  34034  287.43 0855.39
2009/04/23 08:29:47.8       0     22      6     23     24 359.1  15.3  34034  287.45 0855.39
2009/04/23 08:29:47.9       0     23     13     24     27 359.1  31.4  34030  287.37 0855.39
2009/04/23 08:29:48.0     -10      3     15     11     18 288.4  60.5  34030  287.38 0855.39
2009/04/23 08:29:48.1       0     -2      8      3      8 161.5  81.0  34032  287.42 0855.39
2009/04/23 08:29:48.2       0     -2     16      3     16 161.5  90.0  34030  287.38 0855.39
2009/04/23 08:29:48.3       4      2     19      5     19  57.6  80.7  34030  287.38 0855.39
2009/04/23 08:29:48.4       0      7     13      8     15 357.3  64.7  34030  287.37 0855.39
2009/04/23 08:29:48.5       0      7     13      8     15 357.3  64.7  34030  287.37 0855.39
2009/04/23 08:29:48.6       0     23     13     24     27 359.1  31.4  34030  287.37 0855.39
2009/04/23 08:29:48.7      -2     18     17     19     25 352.0  47.9  34028  287.35 0855.39
2009/04/23 08:29:48.8       5     10     19     12     22  25.4  64.7  34030  287.38 0855.39
2009/04/23 08:29:48.9      -4      0      8      5      9 270.0  64.7  34030  287.37 0855.39
2009/04/23 08:29:49.0     -15     -1      9     16     18 265.7  31.4  34026  287.32 0855.39
2009/04/23 08:29:49.1     -23     23     37     33     49 315.0  53.3  34028  287.33 0855.39
2009/04/23 08:29:49.2     -53     52     36     75     83 314.9  27.2  34024  287.28 0855.39
2009/04/23 08:29:49.3     -54     55     40     78     87 315.8  29.3  34020  287.20 0855.39
2009/04/23 08:29:49.4     -48     63     40     80     89 323.0  28.2  34016  287.15 0855.39
2009/04/23 08:29:49.5     -32     64     49     72     87 332.8  37.0  34020  287.20 0855.39
2009/04/23 08:29:49.6     -45     75     51     88    101 328.8  32.4  34022  287.23 0855.39
2009/04/23 08:29:49.7     -45     70     42     84     93 327.5  28.7  34024  287.27 0855.39
2009/04/23 08:29:49.8     -50     90     35    104    111 331.0  18.9  34024  287.28 0855.39
2009/04/23 08:29:49.9     -64     88     51    109    120 323.9  27.1  34024  287.28 0855.39
2009/04/23 08:29:50.0     -27    100     36    104    111 344.4  19.4  34026  287.30 0855.39
2009/04/23 08:29:50.1     -23    115     49    118    127 348.4  23.6  34026  287.32 0855.39
2009/04/23 08:29:50.2      -8    107     29    108    113 355.6  15.3  34028  287.35 0855.39
2009/04/23 08:29:50.3       0     97     13     98     99   0.5   8.0  34028  287.33 0855.39
2009/04/23 08:29:50.4      44     75     30     88     94  30.3  18.9  34028  287.33 0855.39
2009/04/23 08:29:50.5      55     72     39     91     99  37.4  24.1  34030  287.37 0855.39
2009/04/23 08:29:50.6      66     95     41    116    123  34.7  20.0  34028  287.33 0855.39
2009/04/23 08:29:50.7      53     98     39    112    119  28.5  19.4  34030  287.37 0855.39
2009/04/23 08:29:50.8      67     79     22    104    107  40.5  12.2  34036  287.49 0855.39
2009/04/23 08:29:50.9      85     50     41     99    107  59.3  23.1  34062  287.91 0855.39
2009/04/23 08:29:51.0     102     62     62    120    135  58.9  29.3  34110  288.72 0855.39
2009/04/23 08:29:51.1      91    110     52    143    152  39.6  20.4  34112  288.75 0855.39
2009/04/23 08:29:51.2      83    128     65    153    166  33.0  24.6  34086  288.33 0855.39
2009/04/23 08:29:51.3      91    147     40    174    179  31.9  13.2  34068  288.01 0855.39
2009/04/23 08:29:51.4      98    145     31    176    179  34.1  10.1  34072  288.08 0855.39
2009/04/23 08:29:51.5      85    124     23    151    153  34.3   9.0  34072  288.09 0855.39
2009/04/23 08:29:51.6      49    118     25    129    132  22.7  11.1  34062  287.92 0855.39
2009/04/23 08:29:51.7     -19    127     46    129    136 351.5  20.0  34058  287.86 0855.39
2009/04/23 08:29:51.8     -30    147     42    151    157 348.4  15.8  34050  287.70 0855.39
2009/04/23 08:29:51.9     -35    170     -6    174    175 348.2  -2.3  34042  287.59 0855.39
2009/04/23 08:29:52.0     -23    184      1    186    187 352.7   0.5  34042  287.57 0855.39
2009/04/23 08:29:52.1      -7    156     41    157    163 357.3  14.7  34046  287.64 0855.39
2009/04/23 08:29:52.2      23    164     50    166    174   8.0  16.8  34048  287.67 0855.39
2009/04/23 08:29:52.3      39    183     60    188    198  12.0  17.9  34044  287.62 0855.39
2009/04/23 08:29:52.4      45    212     26    217    219  12.0   6.9  34046  287.64 0855.39
2009/04/23 08:29:52.5      33    197     10    200    201   9.6   3.1  34048  287.69 0855.39
2009/04/23 08:29:52.6       5    186     36    187    191   1.8  11.1  34046  287.65 0855.39
2009/04/23 08:29:52.7      83    183     35    202    206  24.5   9.9  34046  287.65 0855.39
2009/04/23 08:29:52.8      67    203     25    214    216  18.3   6.9  34052  287.76 0855.39
2009/04/23 08:29:52.9      76    174     44    190    196  23.6  13.2  34048  287.69 0855.39
2009/04/23 08:29:53.0      99    177     43    203    208  29.2  12.2  34050  287.70 0855.39
2009/04/23 08:29:53.1     143    164     42    218    223  41.0  11.1  34048  287.67 0855.39
2009/04/23 08:29:53.2     145    142     94    203    223  45.6  27.0  34048  287.69 0855.39
2009/04/23 08:29:53.3     203    163     92    261    277  51.1  19.4  34054  287.78 0855.39
2009/04/23 08:29:53.4     173    209    113    272    294  39.6  23.8  34042  287.56 0855.39
2009/04/23 08:29:53.5     183    194    127    268    296  43.3  27.1  34034  287.44 0855.39
2009/04/23 08:29:53.6     210    213     93    300    315  44.5  17.3  34036  287.48 0855.39
2009/04/23 08:29:53.7     183    200    130    272    301  42.4  27.3  34042  287.56 0855.39
2009/04/23 08:29:53.8      50    264     93    269    285  10.7  19.2  34048  287.66 0855.39
2009/04/23 08:29:53.9      77    233     49    246    251  18.3  11.4  34050  287.71 0855.39
2009/04/23 08:29:54.0     145    239     43    280    284  31.2   8.9  34054  287.78 0855.39
2009/04/23 08:29:54.1     102    250     98    271    288  22.3  20.9  34052  287.75 0855.39
2009/04/23 08:29:54.2     125    211     89    246    262  30.7  19.9  34064  287.93 0855.39
2009/04/23 08:29:54.3      84    210     77    227    240  21.8  18.9  34062  287.90 0855.39
2009/04/23 08:29:54.4      97    236     47    256    261  22.5  10.6  34054  287.77 0855.39
2009/04/23 08:29:54.5      82    271     61    284    291  16.9  12.2  34054  287.78 0855.39
2009/04/23 08:29:54.6      68    295     -1    303    304  13.1  -0.3  34050  287.70 0855.39
2009/04/23 08:29:54.7      91    274     -1    289    290  18.5  -0.3  34040  287.55 0855.39
2009/04/23 08:29:54.8      99    248    -10    268    269  21.9  -2.2  34034  287.44 0855.39
2009/04/23 08:29:54.9      46    245      2    250    251  10.7   0.5  34052  287.73 0855.39
2009/04/23 08:29:55.0      49    249     12    254    255  11.3   2.9  34040  287.55 0855.39
2009/04/23 08:29:55.1      53    259     33    265    268  11.6   7.1  34040  287.55 0855.39
2009/04/23 08:29:55.2      59    233     40    241    245  14.3   9.5  34046  287.65 0855.39
2009/04/23 08:29:55.3      87    253     35    268    271  19.1   7.5  34058  287.83 0855.39
2009/04/23 08:29:55.4     106    251     27    273    275  22.9   5.7  34048  287.66 0855.39
2009/04/23 08:29:55.5     103    257     50    277    282  21.9  10.3  34048  287.68 0855.39
2009/04/23 08:29:55.6     102    243     37    264    267  22.8   8.0  34052  287.73 0855.39
2009/04/23 08:29:55.7     106    222     39    247    251  25.5   9.0  34050  287.71 0855.39
2009/04/23 08:29:55.8     118    231     48    260    265  27.2  10.6  34036  287.46 0855.39
2009/04/23 08:29:55.9     125    214     39    249    253  30.3   9.0  34038  287.51 0855.39
2009/04/23 08:29:56.0     120    218     13    250    251  28.9   3.1  34040  287.53 0855.39
2009/04/23 08:29:56.1     113    229     48    256    261  26.3  10.8  34040  287.53 0855.39
2009/04/23 08:29:56.2     143    226     52    268    273  32.5  11.0  34048  287.68 0855.39
2009/04/23 08:29:56.3     149    182     29    236    238  39.2   7.2  34046  287.63 0855.39
2009/04/23 08:29:56.4     182    140     21    230    232  52.5   5.4  34050  287.72 0855.39
2009/04/23 08:29:56.5     149    211     36    259    262  35.2   8.0  34048  287.66 0855.39
2009/04/23 08:29:56.6     196    159    -70    253    263  50.9 -15.5  34040  287.53 0855.39
2009/04/23 08:29:56.7     179    179    -86    254    269  45.0 -18.7  34042  287.58 0855.39
2009/04/23 08:29:56.8     174    141   -114    225    252  50.9 -33.5  34048  287.66 0855.39
2009/04/23 08:29:56.9     158     99    -80    187    203  58.0 -28.7  34046  287.64 0855.39
2009/04/23 08:29:57.0      79    116    -88    141    166  34.2 -39.6  34040  287.54 0855.39
2009/04/23 08:29:57.1     -27    160    -82    163    182 350.2 -32.9  34044  287.60 0855.39
2009/04/23 08:29:57.2     -23    159    -64    161    173 351.5 -26.9  34038  287.50 0855.39
2009/04/23 08:29:57.3     -11    144    -33    145    149 355.5 -12.9  34036  287.49 0855.39
2009/04/23 08:29:57.4       0    131    -36    132    137   0.0 -15.5  34036  287.47 0855.40
2009/04/23 08:29:57.5      28    106    -63    110    126  15.2 -36.8  34036  287.47 0855.40
2009/04/23 08:29:57.6       9    125    -36    126    131   4.5 -20.7  34034  287.45 0855.40
2009/04/23 08:29:57.7     -21    127    -41    129    135 350.2 -23.8  34034  287.43 0855.40
2009/04/23 08:29:57.8     -16    131    -84    133    157 352.9 -39.6  34034  287.45 0855.40
2009/04/23 08:29:57.9      -1    110   -111    111    156 359.1 -54.5  34036  287.47 0855.40
2009/04/23 08:29:58.0     -37     87   -101     95    138 336.8 -56.5  34036  287.49 0855.40
2009/04/23 08:29:58.1     -40    101   -115    109    158 338.1 -55.8  34036  287.49 0855.40
2009/04/23 08:29:58.2     -53    104   -100    117    153 332.8 -49.2  34034  287.43 0855.40
2009/04/23 08:29:58.3     -30    128   -105    132    168 346.6 -47.1  34034  287.45 0855.40
2009/04/23 08:29:58.4     -24    120    -91    123    153 348.4 -44.1  34038  287.50 0855.40
2009/04/23 08:29:58.5     -26    103    -93    107    141 345.7 -50.2  34038  287.52 0855.40
2009/04/23 08:29:58.6      -7    116    -74    117    138 356.4 -39.9  34036  287.49 0855.40
2009/04/23 08:29:58.7     -20    104    -57    107    121 348.9 -34.7  34038  287.50 0855.40
2009/04/23 08:29:58.8     -25     98    -85    102    132 345.3 -48.2  34036  287.47 0855.40
2009/04/23 08:29:58.9     -12    116    -73    117    137 353.8 -39.9  34034  287.45 0855.40
2009/04/23 08:29:59.0       0    110    -56    111    124   0.0 -33.6  34036  287.49 0855.40
2009/04/23 08:29:59.1      11     96    -29     97    101   6.7 -21.7  34036  287.49 0855.40
2009/04/23 08:29:59.2      26    101    -29    105    108  14.7 -20.2  34036  287.49 0855.40
2009/04/23 08:29:59.3      22     93    -33     96    101  13.4 -23.3  34036  287.49 0855.40
2009/04/23 08:29:59.4      23     89    -25     92     96  14.7 -15.5  34036  287.49 0855.40
2009/04/23 08:29:59.5      22     79     -8     83     84  16.0  -5.6  34036  287.49 0855.40
2009/04/23 08:29:59.6      36     85    -14     93     95  23.2  -8.8  34034  287.43 0855.40
2009/04/23 08:29:59.7      32     91     -3     97     98  19.6  -2.2  34036  287.47 0855.40
2009/04/23 08:29:59.8      33    100      2    106    107  18.3   1.2  34036  287.49 0855.40
2009/04/23 08:29:59.9      39     97     -4    105    106  21.9  -2.6  34038  287.50 0855.40
2009/04/23 08:30:00.0      37     94     -9    102    103  21.9  -5.2  34034  287.45 0855.40
2009/04/23 08:30:00.1      44    100     -7    110    111  24.1  -4.1  34036  287.47 0855.40
2009/04/23 08:30:00.2      38    106    -14    113    114  20.0  -7.3  34036  287.47 0855.40
2009/04/23 08:30:00.3      43    106     -3    115    116  22.3  -1.8  34036  287.49 0855.40
2009/04/23 08:30:00.4      40    119     -4    126    127  18.7  -2.2  34036  287.47 0855.40
2009/04/23 08:30:00.5      33    118    -13    123    124  15.6  -6.2  34036  287.47 0855.40
2009/04/23 08:30:00.6      39    120    -12    127    128  18.3  -5.6  34036  287.49 0855.40
2009/04/23 08:30:00.7      37    123     -5    129    130  17.0  -2.2  34036  287.49 0855.40
2009/04/23 08:30:00.8      27    119      1    123    124  12.9   0.8  34034  287.45 0855.40
2009/04/23 08:30:00.9      35    126     25    131    134  15.6  11.1  34036  287.47 0855.40
2009/04/23 08:30:01.0      51    113     29    125    129  24.5  13.2  34034  287.43 0855.40
2009/04/23 08:30:01.1      53    132     44    143    150  21.8  17.4  34034  287.45 0855.40
2009/04/23 08:30:01.2      72    131     30    150    154  28.9  11.6  34034  287.43 0855.40
2009/04/23 08:30:01.3      50    125    -17    135    137  21.8  -7.3  34034  287.45 0855.40
2009/04/23 08:30:01.4      56    110     -4    124    125  27.1  -2.2  34036  287.47 0855.40
2009/04/23 08:30:01.5      45    112    -15    121    122  21.9  -7.2  34036  287.47 0855.40
2009/04/23 08:30:01.6      36     92    -22     99    102  21.4 -12.9  34036  287.47 0855.40
2009/04/23 08:30:01.7      43     96    -29    106    111  24.1 -15.5  34036  287.49 0855.40
2009/04/23 08:30:01.8      47     87    -17    100    102  28.5  -9.8  34032  287.42 0855.40
2009/04/23 08:30:01.9      54     83    -26    100    104  33.0 -14.5  34034  287.43 0855.40
2009/04/23 08:30:02.0      37     83    -34     92     98  24.1 -25.9  34036  287.49 0855.40
2009/04/23 08:30:02.1      34     80    -30     88     92  23.2 -23.3  34036  287.47 0855.40
2009/04/23 08:30:02.2      34     72    -37     80     88  25.4 -30.6  34036  287.47 0855.40
2009/04/23 08:30:02.3      31     63    -29     71     76  26.3 -27.4  34034  287.45 0855.40
2009/04/23 08:30:02.4      40     69    -17     81     83  30.3 -11.9  34036  287.47 0855.40
2009/04/23 08:30:02.5      37     60    -22     71     75  31.6 -17.6  34034  287.45 0855.40
2009/04/23 08:30:02.6      43     59     -9     74     75  36.0  -7.2  34034  287.45 0855.40
2009/04/23 08:30:02.7      40     38     -2     56     57  46.9  -2.2  34036  287.47 0855.40
2009/04/23 08:30:02.8      35     41    -32     54     62  40.5 -37.9  34034  287.45 0855.40
2009/04/23 08:30:02.9      17     71    -42     74     85  13.4 -36.8  34034  287.43 0855.40
2009/04/23 08:30:03.0      -1     79    -29     80     85 359.0 -24.4  34036  287.47 0855.40
2009/04/23 08:30:03.1       0     75    -33     76     82   0.0 -29.0  34034  287.43 0855.40
2009/04/23 08:30:03.2      -9     65    -35     66     74 352.0 -34.7  34036  287.47 0855.40
2009/04/23 08:30:03.3      -8     47    -28     48     55 350.2 -38.8  34038  287.50 0855.40
2009/04/23 08:30:03.4      -8     43    -32     44     54 349.3 -44.1  34036  287.49 0855.40
2009/04/23 08:30:03.5       7     36    -34     37     50  11.6 -51.3  34036  287.49 0855.40
2009/04/23 08:30:03.6      14     32    -33     35     48  23.6 -54.4  34034  287.43 0855.40
2009/04/23 08:30:03.7      -2     16    -37     17     40 352.0 -78.4  34034  287.43 0855.40
2009/04/23 08:30:03.8     -17      4    -41     18     44 285.1 -80.5  34034  287.45 0855.40
2009/04/23 08:30:03.9     -31      0    -51     32     60 270.0 -69.1  34034  287.43 0855.40
2009/04/23 08:30:04.0     -17     -7    -37     19     41 248.3 -75.2  34034  287.43 0855.40
2009/04/23 08:30:04.1     -13     -8    -40     16     43 237.6 -82.6  34036  287.47 0855.40
2009/04/23 08:30:04.2      -3    -14    -38     15     40 195.1 -82.6  34034  287.43 0855.40
2009/04/23 08:30:04.3      -1     -6    -33      7     33 189.7 -90.0  34034  287.43 0855.40
2009/04/23 08:30:04.4       7      3    -26      8     27  64.7 -85.1  34032  287.42 0855.40
2009/04/23 08:30:04.5       4      3    -25      6     25  50.5 -90.0  34032  287.40 0855.40
2009/04/23 08:30:04.6       9    -14    -24     17     29 147.5 -67.0  34030  287.38 0855.40
2009/04/23 08:30:04.7      -5     36    -20     37     42 352.0 -34.7  34030  287.38 0855.40
2009/04/23 08:30:04.8     -33      6    -43     34     54 281.5 -61.9  34034  287.43 0855.40
2009/04/23 08:30:04.9      22     44    -62     50     79  27.2 -61.3  34034  287.43 0855.40
2009/04/23 08:30:05.0      33     33    -58     47     74  45.0 -60.8  34036  287.47 0855.40
2009/04/23 08:30:05.1      38     38    -51     54     74  45.0 -53.4  34034  287.43 0855.40
2009/04/23 08:30:05.2      50     32    -39     60     71  56.7 -40.0  34034  287.45 0855.40
2009/04/23 08:30:05.3      43     47    -46     64     78  42.3 -44.1  34034  287.43 0855.40
2009/04/23 08:30:05.4      39     51    -39     65     75  37.8 -39.9  34036  287.47 0855.40
2009/04/23 08:30:05.5      37     37    -50     53     72  45.1 -52.4  34034  287.45 0855.40
2009/04/23 08:30:05.6      25     25    -49     36     60  45.0 -64.9  34036  287.47 0855.40
2009/04/23 08:30:05.7      28     52    -32     60     68  28.1 -35.7  34034  287.43 0855.40
2009/04/23 08:30:05.8       9     39    -38     41     55  13.4 -52.3  34034  287.43 0855.40
2009/04/23 08:30:05.9       7     36    -33     37     49  11.6 -51.3  34036  287.49 0855.40
2009/04/23 08:30:06.0       9     27    -54     29     61  18.3 -73.3  34036  287.49 0855.40
2009/04/23 08:30:06.1      20     35    -54     41     67  30.7 -63.8  34036  287.47 0855.40
2009/04/23 08:30:06.2      32     32    -42     46     62  44.2 -52.3  34034  287.43 0855.40
2009/04/23 08:30:06.3      25     30    -52     40     65  39.6 -62.9  34034  287.45 0855.40
2009/04/23 08:30:06.4       5     32    -55     33     64   9.8 -69.1  34034  287.45 0855.40
2009/04/23 08:30:06.5       6     10    -60     13     61  32.5 -90.0  34038  287.50 0855.40
2009/04/23 08:30:06.6      17     14    -36     23     42  50.5 -69.1  34036  287.47 0855.40
2009/04/23 08:30:06.7      11      7    -27     14     30  57.6 -75.2  34036  287.47 0855.40
2009/04/23 08:30:06.8      18     13    -21     23     31  54.0 -52.3  34036  287.49 0855.40
2009/04/23 08:30:06.9      11     18    -22     22     31  30.7 -54.5  34036  287.47 0855.40
2009/04/23 08:30:07.0      22     33    -32     40     51  34.3 -48.1  34038  287.50 0855.40
2009/04/23 08:30:07.1      27     37    -27     47     54  36.1 -37.9  34038  287.50 0855.40
2009/04/23 08:30:07.2      39     41    -29     57     63  43.2 -32.6  34038  287.50 0855.40
2009/04/23 08:30:07.3      36     22    -31     43     53  58.5 -44.1  34038  287.52 0855.40
2009/04/23 08:30:07.4      57     25    -49     63     79  66.5 -46.6  34036  287.47 0855.40
2009/04/23 08:30:07.5      67     65    -43     94    103  45.6 -30.6  34036  287.49 0855.40
2009/04/23 08:30:07.6      81     86    -58    119    132  43.2 -31.7  34036  287.47 0855.40
2009/04/23 08:30:07.7      88     75    -41    116    124  49.6 -19.6  34036  287.47 0855.40
2009/04/23 08:30:07.8      59     37    -66     70     96  57.5 -53.4  34038  287.50 0855.40
2009/04/23 08:30:07.9       1      0    -89      2     89  71.6 -90.0  34038  287.50 0855.40
2009/04/23 08:30:08.0     -37     21    -78     43     89 299.8 -73.2  34036  287.49 0855.40
2009/04/23 08:30:08.1     -29     30    -70     43     82 315.9 -70.1  34038  287.52 0855.40
2009/04/23 08:30:08.2      28     57    -52     64     82  26.3 -48.1  34036  287.49 0855.40
2009/04/23 08:30:08.3      24     63    -32     68     75  20.9 -31.6  34038  287.52 0855.40
2009/04/23 08:30:08.4      10     71    -20     72     74   8.0 -20.7  34040  287.54 0855.40
2009/04/23 08:30:08.5      -1     69    -19     70     73 359.0 -15.5  34038  287.50 0855.40
2009/04/23 08:30:08.6      -4     55    -15     56     59 355.6 -15.4  34038  287.50 0855.40
2009/04/23 08:30:08.7     -25     40    -14     48     51 327.5 -16.6  34038  287.50 0855.40
2009/04/23 08:30:08.8     -14     43    -29     46     54 341.5 -39.9  34036  287.49 0855.40
2009/04/23 08:30:08.9      -7     38    -42     39     57 348.4 -55.6  34034  287.43 0855.40
2009/04/23 08:30:09.0       0     43    -34     44     55   0.0 -47.1  34034  287.45 0855.40
2009/04/23 08:30:09.1     -20     35    -33     41     52 329.3 -48.1  34038  287.50 0855.40
2009/04/23 08:30:09.2     -25     34    -31     43     53 323.9 -44.1  34036  287.47 0855.40
2009/04/23 08:30:09.3     -20     38    -30     44     53 331.9 -42.0  34038  287.52 0855.40
2009/04/23 08:30:09.4      -2     43    -29     44     52 357.3 -40.0  34036  287.49 0855.40
2009/04/23 08:30:09.5      -1     40    -25     41     48 357.4 -39.9  34038  287.50 0855.40
2009/04/23 08:30:09.6      16     26    -31     31     43  32.5 -54.5  34036  287.47 0855.40
2009/04/23 08:30:09.7      32     32    -28     46     53  44.2 -39.9  34034  287.43 0855.40
2009/04/23 08:30:09.9      41     56    -19     70     73  36.1 -15.5  34036  287.47 0855.40
2009/04/23 08:30:09.9      53     44      2     69     70  50.4   1.8  34036  287.47 0855.40
2009/04/23 08:30:10.0      59     34     18     69     72  60.2  15.3  34038  287.50 0855.40
2009/04/23 08:30:10.1      70     24     28     75     80  70.9  21.0  34036  287.49 0855.40
2009/04/23 08:30:10.2      58     22     44     63     76  69.2  37.6  34036  287.47 0855.40
2009/04/23 08:30:10.3      50     14     49     52     71  74.1  48.0  34038  287.52 0855.40
2009/04/23 08:30:10.4      54      6     53     55     76  83.0  50.0  34040  287.54 0855.41
2009/04/23 08:30:10.5      43      0     52     44     68  90.0  55.4  34038  287.50 0855.41
2009/04/23 08:30:10.6      19     -3     54     20     57 101.5  80.2  34042  287.57 0855.41
2009/04/23 08:30:10.7       0     -7     54      8     54 182.7  90.0  34038  287.52 0855.41
2009/04/23 08:30:10.8      -8    -23     45     25     51 200.0  68.8  34038  287.52 0855.41
2009/04/23 08:30:10.9      10    -31     41     33     52 161.3  56.4  34040  287.54 0855.41
2009/04/23 08:30:11.0      14    -37     42     40     58 158.2  49.1  34036  287.49 0855.41
2009/04/23 08:30:11.1      13    -42     37     45     58 162.2  43.8  34036  287.49 0855.41
2009/04/23 08:30:11.2      15    -31     39     35     52 154.6  53.3  34038  287.50 0855.41
2009/04/23 08:30:11.3      13    -40     40     43     58 161.5  49.0  34038  287.52 0855.41
2009/04/23 08:30:11.4      11    -43     38     45     58 164.9  44.8  34038  287.50 0855.41
2009/04/23 08:30:11.5      -1    -53     40     54     67 181.8  39.7  34038  287.52 0855.41
2009/04/23 08:30:11.6      -8    -62     38     63     73 188.1  34.4  34040  287.54 0855.41
2009/04/23 08:30:11.7      -6    -58     33     59     67 186.2  31.4  34040  287.54 0855.41
2009/04/23 08:30:11.9      -7    -54     32     55     63 188.0  32.4  34038  287.52 0855.41
2009/04/23 08:30:11.9       0    -46     40     47     61 180.0  44.8  34036  287.47 0855.41
2009/04/23 08:30:12.0       0    -45     47     46     65 180.9  50.1  34038  287.52 0855.41
2009/04/23 08:30:12.1     -12    -38     39     40     55 197.8  51.1  34034  287.45 0855.41
2009/04/23 08:30:12.2     -22    -47     32     53     61 205.5  34.4  34038  287.52 0855.41
2009/04/23 08:30:12.3     -16    -39     48     43     64 202.7  52.2  34038  287.52 0855.41
2009/04/23 08:30:12.4     -25    -51     49     57     75 206.3  44.8  34036  287.47 0855.41
2009/04/23 08:30:12.5     -50    -60     62     79    100 219.7  42.2  34036  287.47 0855.41
2009/04/23 08:30:12.6     -44    -65     77     79    110 214.3  49.4  34036  287.49 0855.41
2009/04/23 08:30:12.7     -42    -46     80     63    101 222.3  57.5  34038  287.52 0855.41
2009/04/23 08:30:12.8     -32    -68     69     76    102 205.5  47.5  34036  287.47 0855.41
2009/04/23 08:30:12.9     -75    -69     32    103    108 227.3  17.3  34036  287.49 0855.41
2009/04/23 08:30:13.1    -107    -65     14    126    127 238.9   6.5  34032  287.40 0855.41
2009/04/23 08:30:13.2    -107    -52     14    120    121 243.8   6.9  34032  287.42 0855.41
2009/04/23 08:30:13.3    -122    -47      0    131    132 248.7   0.2  34032  287.42 0855.41
2009/04/23 08:30:13.4    -119    -56    -25    132    135 244.6 -10.9  34036  287.47 0855.41
2009/04/23 08:30:13.5    -121    -32    -42    126    132 255.0 -23.6  34036  287.49 0855.41
2009/04/23 08:30:13.6    -136    -44     -8    144    145 251.8  -3.2  34036  287.47 0855.41
2009/04/23 08:30:13.7    -118    -17     -8    120    121 261.6  -4.1  34036  287.49 0855.41
2009/04/23 08:30:13.8    -116     11    -10    117    118 275.7  -5.1  34040  287.54 0855.41
2009/04/23 08:30:13.9    -106     31     -5    111    112 286.4  -2.6  34044  287.60 0855.41
2009/04/23 08:30:14.0     -94      0    -19     95     97 269.6 -11.3  34038  287.50 0855.41
2009/04/23 08:30:14.1     -84      7    -26     85     88 274.8 -22.3  34038  287.52 0855.41
2009/04/23 08:30:14.2     -95     10    -37     96    102 276.1 -26.4  34036  287.49 0855.41
2009/04/23 08:30:14.3     -99      7    -35    100    107 274.3 -19.6  34036  287.49 0855.41
2009/04/23 08:30:14.4     -90     16    -17     92     94 280.6 -10.9  34038  287.50 0855.41
2009/04/23 08:30:14.5     -93     44     -4    104    105 295.4  -2.2  34038  287.50 0855.41
2009/04/23 08:30:14.6     -83     44     -7     94     95 298.0  -4.6  34038  287.50 0855.41
2009/04/23 08:30:14.7     -73     39     -9     84     85 298.4  -6.2  34038  287.52 0855.41
2009/04/23 08:30:14.8     -72     38     -6     82     83 298.0  -4.6  34040  287.54 0855.41
2009/04/23 08:30:14.9     -66     17      7     69     70 285.1   5.9  34036  287.47 0855.41
2009/04/23 08:30:15.0     -80      0     25     81     85 270.0  17.3  34034  287.43 0855.41
2009/04/23 08:30:15.1     -98      7     27     99    103 274.4  15.3  34032  287.40 0855.41
2009/04/23 08:30:15.2     -90      6     22     91     94 274.4  13.7  34034  287.45 0855.41
2009/04/23 08:30:15.3     -74    -24      7     78     79 251.8   5.4  34030  287.37 0855.41
2009/04/23 08:30:15.4     -84    -50      8     98     99 239.3   4.9  34024  287.28 0855.41
2009/04/23 08:30:15.5     -93    -29     36     98    104 252.7  20.4  34024  287.28 0855.41
2009/04/23 08:30:15.6    -103    -41     21    111    114 248.3  11.1  34020  287.21 0855.41
2009/04/23 08:30:15.7    -133     -1      7    134    135 269.2   3.3  34024  287.28 0855.41
2009/04/23 08:30:15.8    -135      4     26    136    139 271.7  11.0  34026  287.32 0855.41
2009/04/23 08:30:15.9     -97     -7     34     98    104 265.6  19.2  34028  287.35 0855.41
2009/04/23 08:30:16.0     -31    -19     24     37     44 237.5  36.5  34030  287.37 0855.41
2009/04/23 08:30:16.1     -10    -74     29     75     80 188.0  22.5  34030  287.38 0855.41
2009/04/23 08:30:16.2      -2    -64     31     65     72 181.8  27.2  34034  287.43 0855.41
2009/04/23 08:30:16.3     -19    -94     33     96    102 191.6  18.9  34036  287.49 0855.41
2009/04/23 08:30:16.4     -15    -97    -28     99    104 188.9 -16.0  34036  287.47 0855.41
2009/04/23 08:30:16.5     -13    -94    -33     95    100 188.0 -23.8  34034  287.43 0855.40
2009/04/23 08:30:16.6     -21    -78    -40     81     90 195.1 -32.2  34032  287.42 0855.40
2009/04/23 08:30:16.7     -29   -127    -38    131    136 192.9 -21.2  34034  287.43 0855.40
2009/04/23 08:30:16.8     -28   -159    -28    162    165 190.0  -9.8  34036  287.47 0855.40
2009/04/23 08:30:16.9      22   -139    -47    141    149 170.7 -18.7  34034  287.43 0855.40
2009/04/23 08:30:17.0      42   -157     -1    163    164 164.9  -0.5  34032  287.42 0855.40
2009/04/23 08:30:17.1      36   -147    -32    152    156 166.2 -11.9  34034  287.45 0855.40
2009/04/23 08:30:17.2      39   -147    -19    153    155 164.9  -7.2  34034  287.43 0855.40
2009/04/23 08:30:17.3      67   -127    -40    144    150 151.9 -15.5  34030  287.38 0855.40
2009/04/23 08:30:17.4      84   -116    -20    144    146 143.9  -8.2  34030  287.38 0855.40
2009/04/23 08:30:17.5      95   -149     27    178    181 147.4   8.8  34036  287.47 0855.40
2009/04/23 08:30:17.6      90   -144     22    170    172 147.9   7.5  34036  287.47 0855.40
2009/04/23 08:30:17.7      87   -152     16    176    177 150.4   5.2  34036  287.47 0855.40
2009/04/23 08:30:17.8      86   -134     26    160    163 147.4   9.3  34038  287.50 0855.40
2009/04/23 08:30:17.9      92   -141     38    169    174 146.6  12.9  34032  287.42 0855.40
2009/04/23 08:30:18.0      74   -118     57    140    151 147.9  23.1  34032  287.40 0855.40
2009/04/23 08:30:18.1      83   -105      1    134    135 141.7   0.7  34034  287.43 0855.40
2009/04/23 08:30:18.2      42    -97     18    106    108 156.4  10.1  34032  287.42 0855.40
2009/04/23 08:30:18.3       9    -89     16     90     92 173.8  10.6  34032  287.42 0855.40
2009/04/23 08:30:18.4      17    -73     37     76     84 166.6  27.8  34032  287.42 0855.40
2009/04/23 08:30:18.5      22   -133     71    135    152 170.2  29.8  34032  287.40 0855.40
2009/04/23 08:30:18.6      27   -141     67    144    158 168.9  26.6  34032  287.40 0855.40
2009/04/23 08:30:18.7      12   -133     74    134    153 174.7  31.4  34032  287.40 0855.40
2009/04/23 08:30:18.8       9   -122     58    123    135 175.5  27.1  34032  287.42 0855.40
2009/04/23 08:30:18.9      10   -125     40    126    133 175.1  17.9  34028  287.35 0855.40
2009/04/23 08:30:19.0     -15   -124     44    125    133 187.1  19.4  34030  287.38 0855.40
2009/04/23 08:30:19.1     -27   -117     48    121    130 192.9  22.5  34034  287.43 0855.40
2009/04/23 08:30:19.2     -18   -129     45    131    139 188.0  19.2  34032  287.42 0855.40
2009/04/23 08:30:19.3     -16   -122     37    124    130 187.6  16.8  34032  287.40 0855.40
2009/04/23 08:30:19.4     -42   -125     48    132    140 198.7  20.9  34034  287.43 0855.40
2009/04/23 08:30:19.5     -38   -116     43    123    131 198.3  19.2  34030  287.38 0855.40
2009/04/23 08:30:19.6     -51   -125     61    136    149 202.3  25.7  34032  287.40 0855.40
2009/04/23 08:30:19.7     -61   -113     44    129    137 208.5  18.9  34030  287.37 0855.40
2009/04/23 08:30:19.8     -60   -117     50    132    141 207.1  22.0  34028  287.33 0855.40
2009/04/23 08:30:19.9     -73   -104     49    128    137 215.2  21.5  34028  287.35 0855.40
2009/04/23 08:30:20.0     -79    -88     28    119    123 221.9  13.2  34028  287.33 0855.40
2009/04/23 08:30:20.1     -91    -91     36    129    135 225.0  15.8  34028  287.33 0855.40
2009/04/23 08:30:20.2     -87    -93     27    128    131 223.2  12.2  34024  287.28 0855.40
2009/04/23 08:30:20.3     -82   -100     17    130    132 219.2   7.5  34024  287.28 0855.40
2009/04/23 08:30:20.4     -80   -104     11    132    133 217.4   5.0  34028  287.33 0855.40
2009/04/23 08:30:20.5     -50    -95     29    108    113 208.1  15.3  34030  287.38 0855.40
2009/04/23 08:30:20.6     -41    -89     32     99    105 204.9  17.9  34034  287.43 0855.40
2009/04/23 08:30:20.7     -37    -76      0     85     86 206.3  -0.3  34030  287.37 0855.40
2009/04/23 08:30:20.8     -38    -77      6     86     87 206.3   4.4  34032  287.40 0855.40
2009/04/23 08:30:20.9     -19    -71     29     74     79 195.1  22.0  34034  287.43 0855.40
2009/04/23 08:30:21.0     -18    -55     30     58     65 198.3  30.3  34034  287.43 0855.40
2009/04/23 08:30:21.1     -44    -53     13     70     72 219.7  11.1  34034  287.43 0855.40
2009/04/23 08:30:21.2     -45    -40      0     61     62 227.8  -0.3  34032  287.42 0855.40
2009/04/23 08:30:21.3     -60    -24     24     65     69 248.3  20.0  34032  287.40 0855.40
2009/04/23 08:30:21.4     -58    -22     -5     63     64 249.2  -5.2  34032  287.40 0855.40
2009/04/23 08:30:21.5     -49    -10    -13     51     53 258.5 -14.5  34030  287.38 0855.40
2009/04/23 08:30:21.6     -47      7    -10     48     50 278.8 -12.4  34032  287.40 0855.40
2009/04/23 08:30:21.7     -40      7    -12     41     42 280.6 -20.7  34032  287.40 0855.40
2009/04/23 08:30:21.8     -21     13    -22     26     34 302.5 -50.2  34030  287.37 0855.40
2009/04/23 08:30:21.9      -7     22    -22     24     32 341.7 -54.4  34028  287.35 0855.40
2009/04/23 08:30:22.0       2     31    -10     32     33   4.5 -23.8  34028  287.35 0855.40
2009/04/23 08:30:22.1      27     31     14     42     45  41.4  18.4  34032  287.42 0855.40
2009/04/23 08:30:22.2      47     26     13     54     56  61.1  14.3  34032  287.40 0855.40
2009/04/23 08:30:22.3      30     16     16     35     38  61.1  25.1  34030  287.38 0855.40
2009/04/23 08:30:22.4      50     26     10     57     58  62.0  10.1  34030  287.37 0855.40
2009/04/23 08:30:22.5      15     31     25     35     43  25.4  39.7  34030  287.38 0855.40
2009/04/23 08:30:22.6       9     46     29     47     55  11.6  35.5  34030  287.38 0855.40
2009/04/23 08:30:22.7      37     37      7     53     54  45.0   8.0  34028  287.35 0855.40
2009/04/23 08:30:22.8      40     20      5     46     47  62.9   6.9  34032  287.40 0855.40
2009/04/23 08:30:22.9      39     13     14     42     45  71.4  19.4  34030  287.37 0855.40
2009/04/23 08:30:23.0      25     17     18     31     35  55.8  35.5  34032  287.40 0855.40
2009/04/23 08:30:23.1      30     35     16     47     50  40.5  19.4  34030  287.38 0855.40
2009/04/23 08:30:23.2      47     30     23     56     60  57.5  23.1  34030  287.38 0855.40
2009/04/23 08:30:23.3      36     37     32     52     61  44.2  35.5  34032  287.40 0855.40
2009/04/23 08:30:23.4      36     31     35     48     59  48.7  39.7  34032  287.42 0855.40
2009/04/23 08:30:23.5      16     23     39     29     48  34.3  59.4  34034  287.43 0855.40
2009/04/23 08:30:23.6      -7     -6     24     10     26 226.9  77.1  34034  287.43 0855.40
2009/04/23 08:30:23.7     -13      9      4     17     18 306.0  15.3  34032  287.42 0855.40
2009/04/23 08:30:23.8     -23     19      0     30     31 309.5   0.8  34030  287.38 0855.40
2009/04/23 08:30:23.9     -20     24      6     32     33 320.4  11.0  34030  287.38 0855.40
2009/04/23 08:30:24.0     -12     37     -8     40     41 341.5 -11.3  34030  287.38 0855.40
2009/04/23 08:30:24.1     -15     45    -26     48     54 340.8 -35.8  34032  287.40 0855.40
2009/04/23 08:30:24.2       4     14    -48     15     50  18.5 -86.2  34030  287.37 0855.40
2009/04/23 08:30:24.3      33     33    -34     47     58  45.0 -44.1  34028  287.35 0855.40
2009/04/23 08:30:24.4      31     19     -9     37     39  57.6 -13.4  34026  287.32 0855.40
2009/04/23 08:30:24.5      55      7     27     56     62  82.1  27.2  34028  287.35 0855.40
2009/04/23 08:30:24.6      49     15     62     52     80  72.3  55.4  34030  287.37 0855.40
2009/04/23 08:30:24.7      26     12     71     29     76  64.7  77.1  34030  287.38 0855.40
2009/04/23 08:30:24.8       7     -6     56     10     56 133.1  90.0  34034  287.43 0855.40
2009/04/23 08:30:24.9      -1      0     55      2     55 270.0  90.0  34034  287.43 0855.40
2009/04/23 08:30:25.0      -3     23     49     24     54 352.0  72.9  34034  287.45 0855.40
2009/04/23 08:30:25.1     -19     21     29     29     41 318.6  50.1  34034  287.43 0855.40
2009/04/23 08:30:25.2       0      0     19      0     19   0.0 -90.0  34036  287.49 0855.40
2009/04/23 08:30:25.3       0    -21     19     22     29 180.9  47.9  34034  287.43 0855.40
2009/04/23 08:30:25.4      -1    -30     26     31     40 182.6  44.8  34032  287.40 0855.40
2009/04/23 08:30:25.5      -9    -31     17     33     37 196.9  29.3  34032  287.40 0855.40
2009/04/23 08:30:25.6     -20    -34     20     40     44 210.7  29.3  34030  287.38 0855.40
2009/04/23 08:30:25.7     -27    -31     26     42     49 221.4  35.5  34032  287.42 0855.40
2009/04/23 08:30:25.8     -38    -34     23     52     56 227.8  25.1  34032  287.42 0855.40
2009/04/23 08:30:25.9     -28    -40     32     50     59 215.2  35.6  34034  287.43 0855.40
2009/04/23 08:30:26.0     -57    -63     32     86     91 221.9  21.0  34032  287.40 0855.40
2009/04/23 08:30:26.1     -54    -57     35     79     86 223.2  25.1  34032  287.42 0855.40
2009/04/23 08:30:26.2     -67    -74     39    101    108 222.3  22.5  34032  287.40 0855.40
2009/04/23 08:30:26.3    -107    -68      5    127    128 237.6   2.3  34030  287.37 0855.40
2009/04/23 08:30:26.4     -71    -69    -43    100    108 225.6 -29.0  34026  287.32 0855.40
2009/04/23 08:30:26.5     -28    -98     79    102    129 196.0  41.7  34030  287.37 0855.40
2009/04/23 08:30:26.6     -42    -97     80    106    132 203.6  41.6  34032  287.40 0855.40
2009/04/23 08:30:26.7     -44   -110     71    119    138 201.8  33.5  34032  287.40 0855.40
2009/04/23 08:30:26.8     -59   -115     51    130    139 207.1  22.5  34032  287.40 0855.40
2009/04/23 08:30:26.9     -51   -107     81    119    143 205.4  37.6  34030  287.38 0855.40
2009/04/23 08:30:27.0     -24   -127     71    130    148 190.7  31.3  34028  287.35 0855.40
2009/04/23 08:30:27.1     -65   -102     98    122    156 212.5  43.0  34030  287.37 0855.40
2009/04/23 08:30:27.2     -40   -112     53    120    131 200.0  25.2  34028  287.35 0855.40
2009/04/23 08:30:27.3     -32    -98     49    104    114 198.5  27.1  34028  287.33 0855.40
2009/04/23 08:30:27.4     -69   -109     79    130    152 212.5  34.4  34028  287.33 0855.40
2009/04/23 08:30:27.5     -47   -161     49    168    176 196.5  16.3  34028  287.35 0855.40
2009/04/23 08:30:27.6     -54   -164     84    173    192 198.3  27.3  34030  287.38 0855.40
2009/04/23 08:30:27.7     -57   -169     95    179    202 198.7  30.3  34028  287.35 0855.40
2009/04/23 08:30:27.8     -22   -178    145    180    231 187.3  43.5  34026  287.32 0855.40
2009/04/23 08:30:27.9     -54   -182    154    190    244 196.7  43.5  34024  287.27 0855.40
2009/04/23 08:30:28.0      -7    -93    146     94    173 184.5  64.6  34028  287.35 0855.40
2009/04/23 08:30:28.1      10      0     89     11     89  85.6  90.0  34032  287.42 0855.40
2009/04/23 08:30:28.2      14    -22     89     27     93 147.5  82.3  34032  287.42 0855.40
2009/04/23 08:30:28.3      26    -35     66     44     79 143.0  63.2  34030  287.37 0855.40
2009/04/23 08:30:28.4      23      0     69     24     73  90.0  81.2  34030  287.38 0855.40
2009/04/23 08:30:28.5       6     26     66     27     71  13.4  77.1  34030  287.38 0855.40
2009/04/23 08:30:28.6     -29     11     65     32     72 291.7  72.8  34030  287.38 0855.40
2009/04/23 08:30:28.7      -8     -6     65     11     65 230.5  90.0  34034  287.45 0855.40
2009/04/23 08:30:28.8      12      8     47     15     49  57.6  80.7  34030  287.38 0855.40
2009/04/23 08:30:28.9     -14     28     59     32     67 332.8  68.9  34034  287.43 0855.40
2009/04/23 08:30:29.0       0     28     62     29     68   0.9  73.1  34032  287.42 0855.40
2009/04/23 08:30:29.1      18      2     73     19     75  82.1  84.9  34030  287.38 0855.40
2009/04/23 08:30:29.2     -18      7     36     20     41 291.7  68.8  34028  287.33 0855.40
2009/04/23 08:30:29.3     -15      7     51     17     53 295.3  81.0  34030  287.37 0855.40
2009/04/23 08:30:29.4     -52     -1     67     53     85 268.3  57.5  34030  287.37 0855.40
2009/04/23 08:30:29.5     -45    -28     57     54     78 237.6  51.6  34026  287.32 0855.40
2009/04/23 08:30:29.6     -17    -73     64     76     99 193.4  44.3  34030  287.38 0855.40
2009/04/23 08:30:29.7     -85    -82    -49    119    128 226.0 -28.0  34026  287.30 0855.40
2009/04/23 08:30:29.8    -123    -78    -21    146    148 237.5  -8.2  34026  287.32 0855.40
2009/04/23 08:30:29.9    -111    -72    -50    133    142 237.1 -25.4  34026  287.32 0855.40
2009/04/23 08:30:30.0     -42    -85    -27     95     98 206.3 -20.7  34028  287.33 0855.40
2009/04/23 08:30:30.1     -37    -78    -29     87     91 205.4 -23.6  34028  287.33 0855.40
2009/04/23 08:30:30.2      18    -38      2     43     44 154.6   2.9  34026  287.30 0855.40
2009/04/23 08:30:30.3      81    -11    114     82    140  97.9  60.6  34022  287.23 0855.40
2009/04/23 08:30:30.4      67     46    126     82    150  55.4  64.6  34028  287.35 0855.40
2009/04/23 08:30:30.5     -47    -16     87     50    100 250.9  67.7  34028  287.35 0855.40
2009/04/23 08:30:30.6      79      9    104     80    131  83.0  58.5  34030  287.37 0855.40
2009/04/23 08:30:30.7     -15    -31     79     35     86 205.4  75.0  34028  287.35 0855.40
2009/04/23 08:30:30.8     -48    -36     49     61     78 233.1  43.7  34030  287.38 0855.40
2009/04/23 08:30:30.9      15   -100     97    102    140 171.1  48.0  34030  287.38 0855.40
2009/04/23 08:30:31.0      70   -111     93    132    161 147.9  38.6  34028  287.35 0855.40
2009/04/23 08:30:31.1      22    -67     84     71    109 161.7  56.3  34032  287.40 0855.40
2009/04/23 08:30:31.2      -2    -38     95     39    102 184.4  77.0  34032  287.40 0855.40
2009/04/23 08:30:31.3      21    -15     82     27     86 126.0  80.7  34034  287.45 0855.40
2009/04/23 08:30:31.4     -13     21     64     25     68 327.5  79.2  34032  287.42 0855.40
2009/04/23 08:30:31.5     -11     29     78     32     84 338.2  77.1  34034  287.45 0855.39
2009/04/23 08:30:31.6      -1     10     98     11     98 352.0  90.0  34032  287.42 0855.39
2009/04/23 08:30:31.7      10      9     85     14     86  46.7  90.0  34032  287.42 0855.39
2009/04/23 08:30:31.8      13    -25     61     29     67 152.8  72.9  34032  287.40 0855.39
2009/04/23 08:30:31.9      -1      6     60      7     60 350.3  90.0  34030  287.38 0855.39
2009/04/23 08:30:32.0      -7      3    100      8    100 295.3  90.0  34030  287.38 0855.39
2009/04/23 08:30:32.1       4    -56    119     57    131 175.5  72.8  34030  287.38 0855.39
2009/04/23 08:30:32.2      -8    -57    117     58    130 188.0  72.4  34032  287.42 0855.39
2009/04/23 08:30:32.3     -41     31     94     52    107 307.8  68.8  34028  287.35 0855.39
2009/04/23 08:30:32.4     -13    -77     93     79    122 189.8  54.8  34032  287.40 0855.39
2009/04/23 08:30:32.5     -22    -55     91     60    109 201.8  64.1  34028  287.33 0855.39
2009/04/23 08:30:32.6     -52     43     82     68    106 309.5  56.3  34028  287.33 0855.39
2009/04/23 08:30:32.7     -94    -22     72     97    120 256.7  40.1  34028  287.35 0855.39
2009/04/23 08:30:32.8    -108    -25    104    111    152 256.7  48.0  34028  287.33 0855.39
2009/04/23 08:30:32.9    -119     22     93    122    153 280.6  41.2  34026  287.30 0855.39
2009/04/23 08:30:33.0    -120     28     65    124    140 283.3  29.8  34026  287.32 0855.39
2009/04/23 08:30:33.1     -87     86     57    123    135 314.9  27.1  34024  287.28 0855.39
2009/04/23 08:30:33.2      47     16    101     50    112  70.9  72.8  34028  287.35 0855.39
2009/04/23 08:30:33.3       0     59     53     60     80 359.1  45.8  34030  287.37 0855.39
2009/04/23 08:30:33.4      -5     64     48     65     80 355.5  40.1  34028  287.35 0855.39
2009/04/23 08:30:33.5      -8     94     45     95    105 355.1  27.2  34028  287.35 0855.39
2009/04/23 08:30:33.6      -7    100     37    101    107 355.5  20.4  34028  287.33 0855.39
2009/04/23 08:30:33.7      -9     86     62     87    106 353.8  39.1  34026  287.30 0855.39
2009/04/23 08:30:33.8     -37     80     70     89    113 335.1  42.7  34022  287.25 0855.39
2009/04/23 08:30:33.9     -57     43     57     72     91 306.9  42.7  34024  287.27 0855.39
2009/04/23 08:30:34.0     -70    -14     49     72     87 258.6  37.0  34022  287.25 0855.39
2009/04/23 08:30:34.1     -82    -13     29     84     90 260.8  19.4  34022  287.25 0855.39
2009/04/23 08:30:34.2     -55    -22     41     60     72 248.3  37.6  34020  287.20 0855.39
2009/04/23 08:30:34.3     -58    -15     34     61     69 254.9  31.4  34018  287.18 0855.39
2009/04/23 08:30:34.4     -56     46     80     73    108 309.6  52.7  34022  287.25 0855.39
2009/04/23 08:30:34.5     -64     46     84     80    116 306.0  51.2  34022  287.25 0855.39
2009/04/23 08:30:34.6     -78      0     91     79    120 270.0  54.3  34024  287.28 0855.39
2009/04/23 08:30:34.7     -91    -75     78    119    142 230.5  36.0  34024  287.27 0855.39
2009/04/23 08:30:34.8     -81   -134      0    157    158 211.2   0.2  34026  287.30 0855.39
2009/04/23 08:30:34.9     -75   -135     -1    155    156 209.0  -0.5  34024  287.27 0855.39
2009/04/23 08:30:35.0     -92   -104     18    140    142 221.5   7.5  34022  287.25 0855.39
2009/04/23 08:30:35.1    -117   -106      9    158    159 227.8   3.3  34022  287.25 0855.39
2009/04/23 08:30:35.2    -120   -124     20    173    175 224.1   6.9  34022  287.23 0855.39
2009/04/23 08:30:35.3     -91   -132     35    161    165 214.7  12.4  34024  287.28 0855.39
2009/04/23 08:30:35.4     -93   -137     26    166    169 214.1   9.0  34020  287.21 0855.39
2009/04/23 08:30:35.5     -86   -133     18    159    161 213.0   6.7  34016  287.15 0855.39
2009/04/23 08:30:35.6     -35   -133     15    138    139 195.1   6.5  34018  287.18 0855.39
2009/04/23 08:30:35.7       6   -106     53    107    119 176.4  28.7  34024  287.27 0855.39
2009/04/23 08:30:35.8      12    -82     33     83     89 171.5  22.5  34022  287.23 0855.39
2009/04/23 08:30:35.9     -44    -44     63     63     89 225.0  50.1  34020  287.21 0855.39
2009/04/23 08:30:36.0     -64    -34     62     73     95 242.0  44.3  34020  287.20 0855.39
2009/04/23 08:30:36.1     -56     35     78     67    102 302.4  54.8  34020  287.20 0855.39
2009/04/23 08:30:36.2     -50     48     80     70    106 314.1  53.7  34022  287.25 0855.39
2009/04/23 08:30:36.3     -53     56     58     78     97 316.7  40.7  34024  287.27 0855.39
2009/04/23 08:30:36.4     -55     39     53     68     86 305.1  41.7  34020  287.20 0855.39
2009/04/23 08:30:36.5     -65     31     71     73    101 295.4  49.4  34022  287.25 0855.39
2009/04/23 08:30:36.6     -44      4     50     45     67 276.1  52.2  34020  287.21 0855.39
2009/04/23 08:30:36.7     -79    -33     61     86    105 247.4  39.1  34020  287.21 0855.39
2009/04/23 08:30:36.8    -107     21     61    110    125 281.5  31.4  34022  287.25 0855.39
2009/04/23 08:30:36.9     -87      0     50     88    101 270.4  31.9  34020  287.21 0855.39
2009/04/23 08:30:37.0     -88    -51     41    102    109 239.8  23.0  34026  287.30 0855.39
2009/04/23 08:30:37.1     -62    -71     40     95    103 221.0  23.6  34024  287.28 0855.39
2009/04/23 08:30:37.2     -55    -44     42     71     82 231.4  33.5  34028  287.33 0855.39
2009/04/23 08:30:37.3     -41    -20     43     46     62 243.8  48.0  34028  287.33 0855.39
2009/04/23 08:30:37.4     -54    -13     28     56     62 255.8  28.2  34026  287.32 0855.39
2009/04/23 08:30:37.5     -55    -22     41     60     72 248.3  37.6  34028  287.35 0855.39
2009/04/23 08:30:37.6     -63     -6     44     64     77 263.9  37.6  34028  287.33 0855.39
2009/04/23 08:30:37.7     -45     38     36     60     69 310.4  34.4  34028  287.33 0855.39
2009/04/23 08:30:37.8     -35     86     57     94    109 337.7  34.4  34028  287.35 0855.39
2009/04/23 08:30:37.9     -29     78     75     84    112 339.5  46.9  34030  287.38 0855.39
2009/04/23 08:30:38.0     -56     62     67     84    107 318.1  43.3  34026  287.30 0855.39
2009/04/23 08:30:38.1     -43      6     22     44     49 278.8  27.3  34028  287.33 0855.39
2009/04/23 08:30:38.2     -16     38     36     42     55 336.4  44.8  34030  287.37 0855.39
2009/04/23 08:30:38.3      -7     56     44     57     72 352.0  42.7  34030  287.37 0855.39
2009/04/23 08:30:38.4      -8     75     59     76     96 353.8  42.2  34028  287.35 0855.39
2009/04/23 08:30:38.5      -3     82     49     83     96 357.3  34.0  34028  287.35 0855.39
2009/04/23 08:30:38.6     -22     81     45     85     96 344.4  30.3  34028  287.35 0855.39
2009/04/23 08:30:38.7     -23     77     45     81     92 343.1  31.4  34028  287.35 0855.39
2009/04/23 08:30:38.8     -23     79     44     83     93 343.5  30.3  34030  287.37 0855.39
2009/04/23 08:30:38.9     -27     71     40     77     86 339.1  29.8  34030  287.37 0855.39
2009/04/23 08:30:39.0     -23     78     31     82     87 343.5  21.0  34028  287.35 0855.39
2009/04/23 08:30:39.1     -23     78     31     82     87 343.5  21.0  34028  287.35 0855.39
2009/04/23 08:30:39.2     -19     71     35     74     81 344.9  26.6  34030  287.37 0855.39
2009/04/23 08:30:39.3     -24     63     44     68     80 339.1  36.0  34030  287.37 0855.39
2009/04/23 08:30:39.4     -21     74     33     77     83 344.0  24.1  34030  287.38 0855.39
2009/04/23 08:30:39.5     -18     68     23     71     75 344.9  18.4  34028  287.35 0855.38
2009/04/23 08:30:39.6      -4     65     23     66     71 356.4  19.4  34030  287.37 0855.38
2009/04/23 08:30:39.7     -10     69     29     70     75 351.1  23.1  34028  287.33 0855.38
2009/04/23 08:30:39.8       0     90     25     91     95 359.6  15.3  34028  287.33 0855.38
2009/04/23 08:30:39.9     -26     83     26     88     92 342.2  16.8  34030  287.37 0855.38
2009/04/23 08:30:40.0     -34     69     17     78     80 333.7  12.6  34030  287.37 0855.38
2009/04/23 08:30:40.1     -24     72     15     76     78 341.5  11.1  34028  287.33 0855.38
2009/04/23 08:30:40.3     -31     62      7     70     71 333.7   5.9  34028  287.35 0855.38
2009/04/23 08:30:40.3     -31     62      7     70     71 333.7   5.9  34028  287.35 0855.38
2009/04/23 08:30:40.4     -27     68     11     74     75 338.2   9.0  34028  287.35 0855.38
2009/04/23 08:30:40.6     -21     74     18     78     81 344.0  13.2  34028  287.35 0855.38
2009/04/23 08:30:40.7     -14     69     12     71     73 348.5  10.1  34026  287.30 0855.38
2009/04/23 08:30:40.8     -27     56     11     63     64 333.7  10.1  34028  287.33 0855.38
2009/04/23 08:30:40.9     -13     55      5     57     58 346.6   5.9  34026  287.32 0855.38
2009/04/23 08:30:41.0     -27     56      3     63     64 333.7   2.8  34024  287.28 0855.38
2009/04/23 08:30:41.1     -27     53     11     60     62 332.8  11.1  34028  287.35 0855.38
2009/04/23 08:30:41.2     -22     65     16     69     71 340.8  13.2  34028  287.33 0855.38
2009/04/23 08:30:41.3     -16     67     23     69     73 346.6  18.9  34026  287.32 0855.38
2009/04/23 08:30:41.4     -20     54     11     58     60 339.1  11.1  34026  287.32 0855.38
2009/04/23 08:30:41.5      -1     62     24     63     67 358.2  21.0  34028  287.33 0855.38
2009/04/23 08:30:41.6     -19     58     33     62     70 341.7  30.3  34028  287.33 0855.38
2009/04/23 08:30:41.7     -30     55     30     63     69 331.0  27.2  34026  287.32 0855.38
2009/04/23 08:30:41.8     -29     60     31     67     73 333.7  27.1  34032  287.42 0855.38
2009/04/23 08:30:41.9     -11     54     52     56     76 348.4  48.0  34034  287.43 0855.38
2009/04/23 08:30:42.0     -29     52     39     60     71 331.0  35.6  34030  287.38 0855.38
2009/04/23 08:30:42.1     -32     67     39     75     84 334.7  29.8  34028  287.33 0855.38
2009/04/23 08:30:42.2     -24     63     44     68     80 339.1  36.0  34030  287.37 0855.38
2009/04/23 08:30:42.3     -23     78     31     82     87 343.5  21.0  34028  287.35 0855.38
2009/04/23 08:30:42.4     -24     81     27     85     90 343.1  17.9  34028  287.35 0855.38
2009/04/23 08:30:42.5     -13     75     22     77     81 350.2  15.8  34024  287.28 0855.38
2009/04/23 08:30:42.6     -24     73     34     78     85 341.3  25.1  34032  287.40 0855.38
2009/04/23 08:30:42.7     -24     73     37     78     86 341.3  27.2  34034  287.45 0855.38
2009/04/23 08:30:42.8     -29     74     44     80     91 338.1  31.4  34034  287.45 0855.38
2009/04/23 08:30:42.9     -33     71     41     79     89 334.7  29.8  34036  287.49 0855.38
2009/04/23 08:30:43.0     -30     59     23     67     72 332.8  19.4  34038  287.52 0855.38
2009/04/23 08:30:43.1     -43     49     32     66     73 318.6  27.3  34036  287.47 0855.38
2009/04/23 08:30:43.2     -47     34     33     59     67 306.0  31.4  34040  287.55 0855.38
2009/04/23 08:30:43.3     -48     45     23     67     71 313.1  18.9  34044  287.60 0855.38
2009/04/23 08:30:43.4     -53     45     20     70     73 310.4  16.3  34046  287.65 0855.38
2009/04/23 08:30:43.5     -51     51     14     73     75 314.9  11.1  34046  287.64 0855.38
2009/04/23 08:30:43.6     -48     45    -18     66     69 313.1 -15.5  34042  287.59 0855.38
2009/04/23 08:30:43.7     -75     71    -21    104    107 313.1 -11.5  34044  287.62 0855.38
2009/04/23 08:30:43.8    -150     61    -19    163    165 292.2  -6.9  34080  288.21 0855.38
2009/04/23 08:30:43.9    -157     89    -22    181    183 299.5  -7.2  34074  288.11 0855.38
2009/04/23 08:30:44.0    -163     86    -34    185    189 297.8 -10.5  34066  287.99 0855.38
2009/04/23 08:30:44.1    -169    102    -10    198    199 301.1  -3.1  34074  288.11 0855.38
2009/04/23 08:30:44.2    -155     86     10    178    179 299.1   3.3  34076  288.14 0855.38
2009/04/23 08:30:44.3    -133    102     -6    168    169 307.5  -2.3  34082  288.25 0855.38
2009/04/23 08:30:44.4    -133    128     13    185    186 314.0   4.2  34076  288.16 0855.38
2009/04/23 08:30:44.5    -118    116     35    166    170 314.4  12.2  34090  288.40 0855.38
2009/04/23 08:30:44.6     -90     90     54    128    138 314.9  24.1  34076  288.16 0855.38
2009/04/23 08:30:44.7     -99     82    -17    129    131 309.5  -7.7  34070  288.04 0855.38
2009/04/23 08:30:44.8    -119     80     -5    144    145 304.2  -2.2  34068  288.01 0855.38
2009/04/23 08:30:44.9    -117     51    -33    128    133 293.6 -14.5  34064  287.96 0855.38
2009/04/23 08:30:45.0     -86     46    -37     98    104 298.0 -25.4  34052  287.76 0855.38
2009/04/23 08:30:45.1    -114     65    -17    132    134 299.8  -7.3  34044  287.62 0855.38
2009/04/23 08:30:45.2    -119     43    -30    127    131 290.0 -13.4  34050  287.72 0855.38
2009/04/23 08:30:45.3     -90     59    -81    108    135 303.3 -45.1  34060  287.89 0855.38
2009/04/23 08:30:45.4     -81     81    -76    115    137 314.9 -40.9  34080  288.23 0855.38
2009/04/23 08:30:45.5     -60     66    -78     90    119 318.1 -50.2  34084  288.28 0855.38
2009/04/23 08:30:45.6     -96     74     24    122    125 307.8  11.1  34088  288.35 0855.38
2009/04/23 08:30:45.7     -89     47      9    101    102 298.0   5.4  34084  288.28 0855.38
2009/04/23 08:30:45.8     -60     78     49     99    110 322.2  27.8  34066  287.99 0855.38
2009/04/23 08:30:45.9     -57     88     41    105    112 327.0  22.5  34070  288.06 0855.38
2009/04/23 08:30:46.0     -53     74     32     92     98 324.4  19.4  34066  287.98 0855.38
2009/04/23 08:30:46.1     -26     65     41     71     81 338.2  32.9  34064  287.96 0855.38
2009/04/23 08:30:46.2       0     37     62     38     72 359.1  64.7  34062  287.92 0855.38
2009/04/23 08:30:46.3      23     37     64     44     77  32.5  62.6  34062  287.91 0855.38
2009/04/23 08:30:46.4      -3     50     57     51     76 355.5  52.2  34084  288.30 0855.38
2009/04/23 08:30:46.5      12     87     70     88    112   8.0  43.7  34104  288.64 0855.38
2009/04/23 08:30:46.6       6     80     67     81    105   4.5  43.8  34116  288.84 0855.38
2009/04/23 08:30:46.7       5     82     72     83    109   3.6  44.8  34102  288.60 0855.38
2009/04/23 08:30:46.8     -21     78     49     81     94 344.9  35.0  34090  288.40 0855.38
2009/04/23 08:30:46.9      21     67     47     71     85  17.8  36.5  34104  288.62 0855.38
2009/04/23 08:30:47.0      18     78     45     81     92  13.4  31.4  34104  288.62 0855.38
2009/04/23 08:30:47.1      25     93     51     97    109  15.1  30.3  34096  288.50 0855.38
2009/04/23 08:30:47.2      14    102     41    104    111   8.0  22.5  34086  288.33 0855.38
2009/04/23 08:30:47.3      -1     72     36     73     81 359.1  28.2  34084  288.28 0855.38
2009/04/23 08:30:47.4      -5     67     42     68     79 355.6  35.0  34082  288.25 0855.38
2009/04/23 08:30:47.5       5     42     54     43     69   8.0  56.4  34082  288.26 0855.38
2009/04/23 08:30:47.6     -10     45     47     47     66 347.5  50.1  34080  288.23 0855.38
2009/04/23 08:30:47.7     -12     45     41     47     62 344.0  46.9  34078  288.18 0855.38
2009/04/23 08:30:47.8     -55     67     36     87     94 320.8  23.0  34076  288.14 0855.38
2009/04/23 08:30:47.9     -60     58      9     84     85 314.4   6.5  34064  287.94 0855.38
2009/04/23 08:30:48.0     -41     44     -2     61     62 316.7  -2.2  34060  287.89 0855.38
2009/04/23 08:30:48.1     -43     19     -5     48     49 294.4  -6.2  34058  287.86 0855.38
2009/04/23 08:30:48.2     -32     30    -16     45     47 313.1 -23.3  34056  287.82 0855.38
2009/04/23 08:30:48.3     -12     49    -39     51     64 345.7 -45.1  34056  287.82 0855.38
2009/04/23 08:30:48.4     -10     50    -24     52     57 348.5 -31.5  34056  287.81 0855.38
2009/04/23 08:30:48.5       3     33    -22     34     40   6.2 -40.9  34058  287.84 0855.38
2009/04/23 08:30:48.6      -8     19    -36     21     41 336.4 -72.1  34058  287.86 0855.38
2009/04/23 08:30:48.7     -18      3    -26     19     32 281.5 -64.9  34064  287.94 0855.38
2009/04/23 08:30:48.8     -61     24    -18     66     68 291.8 -20.7  34074  288.13 0855.38
2009/04/23 08:30:48.9     -59     20    -12     63     65 288.6 -11.3  34076  288.16 0855.38
2009/04/23 08:30:49.0     -29     53     13     61     63 331.0  12.2  34070  288.04 0855.38
2009/04/23 08:30:49.1     -17     52     15     55     58 341.3  15.3  34072  288.08 0855.38
2009/04/23 08:30:49.2      -6     60      5     61     62 353.8   4.9  34076  288.14 0855.38
2009/04/23 08:30:49.3     -15     46    -17     49     53 341.7 -19.7  34084  288.30 0855.38
2009/04/23 08:30:49.4     -37     18      0     42     43 296.2  -0.3  34088  288.35 0855.38
2009/04/23 08:30:49.5     -41     -2     10     42     44 266.5  14.3  34080  288.23 0855.38
2009/04/23 08:30:49.6     -41    -14     -8     44     45 250.9 -11.3  34082  288.25 0855.38
2009/04/23 08:30:49.7     -43     -9    -16     45     47 257.6 -23.3  34078  288.18 0855.38
2009/04/23 08:30:49.8     -33    -11    -19     35     39 251.6 -35.8  34078  288.20 0855.38
2009/04/23 08:30:49.9     -33    -22    -13     40     43 235.8 -18.7  34076  288.14 0855.38
2009/04/23 08:30:50.0     -27    -31    -13     42     43 221.4 -22.8  34070  288.06 0855.38
2009/04/23 08:30:50.1     -25    -26    -15     37     39 223.4 -28.5  34074  288.11 0855.38
2009/04/23 08:30:50.2      -7    -22     -2     24     25 198.5  -5.2  34072  288.08 0855.38
2009/04/23 08:30:50.3     -20    -28     -1     35     36 216.1  -2.2  34072  288.08 0855.38
2009/04/23 08:30:50.4      -7    -22     -2     24     25 198.5  -5.2  34072  288.08 0855.38
2009/04/23 08:30:50.5      -5    -10    -13     12     17 209.0 -52.6  34070  288.04 0855.38
2009/04/23 08:30:50.6      -1    -19     -9     20     21 184.5 -29.5  34066  287.99 0855.38
2009/04/23 08:30:50.7       2    -25    -10     26     27 175.5 -23.3  34068  288.03 0855.38
2009/04/23 08:30:50.8       0    -20     -7     21     23 182.7 -19.7  34072  288.08 0855.38
2009/04/23 08:30:50.9      -5    -22      8     23     25 193.4  19.2  34070  288.06 0855.38
2009/04/23 08:30:51.0      -1    -21      6     22     23 182.7  15.3  34072  288.09 0855.38
2009/04/23 08:30:51.1      -1    -18     -2     19     20 184.5  -7.3  34068  288.03 0855.38
2009/04/23 08:30:51.2      -3    -14     -5     15     16 195.1 -19.7  34066  287.99 0855.38
2009/04/23 08:30:51.3     -10    -10    -11     15     18 225.0 -44.1  34066  287.98 0855.38
2009/04/23 08:30:51.4      -9    -10    -12     14     18 223.2 -56.4  34064  287.96 0855.38
2009/04/23 08:30:51.5     -10     -9    -17     14     22 226.7 -60.8  34064  287.94 0855.38
2009/04/23 08:30:51.6      -9     -5    -16     11     19 241.1 -69.0  34064  287.94 0855.38
2009/04/23 08:30:51.7      -5    -10    -13     12     17 209.0 -52.6  34064  287.94 0855.38
2009/04/23 08:30:51.8      -7     -7    -15     11     18 225.0 -64.9  34062  287.92 0855.38
2009/04/23 08:30:51.9     -11      0    -19     12     22 269.2 -69.1  34062  287.91 0855.38
2009/04/23 08:30:52.0     -12      0    -20     13     23 270.0 -69.1  34062  287.92 0855.38
2009/04/23 08:30:52.1     -12      0    -20     13     23 270.0 -69.1  34062  287.92 0855.38
2009/04/23 08:30:52.2       0     -8    -19      9     21 175.5 -77.3  34064  287.94 0855.38
2009/04/23 08:30:52.3       7    -22    -10     24     26 161.3 -27.4  34062  287.91 0855.38
2009/04/23 08:30:52.4       7    -22      0     24     25 161.5   0.8  34062  287.92 0855.38
2009/04/23 08:30:52.5      19    -23     10     30     32 140.4  18.9  34062  287.92 0855.38
2009/04/23 08:30:52.6       7    -23     16     25     29 161.5  35.5  34062  287.92 0855.37
2009/04/23 08:30:52.7       3    -30     10     31     33 173.8  19.2  34062  287.92 0855.37
2009/04/23 08:30:52.8      -4    -25      5     26     27 189.8  11.1  34062  287.91 0855.37
2009/04/23 08:30:52.9      -8    -24      9     26     28 198.7  19.4  34062  287.91 0855.37
2009/04/23 08:30:53.0     -14    -24     10     29     31 210.7  18.9  34060  287.87 0855.37
2009/04/23 08:30:53.1     -24    -23      9     34     36 226.7  15.3  34060  287.89 0855.37
2009/04/23 08:30:53.2     -30    -25      9     40     42 230.4  13.2  34058  287.86 0855.37
2009/04/23 08:30:53.3     -41    -15     -1     44     45 249.2  -2.2  34058  287.84 0855.37
2009/04/23 08:30:53.4     -31    -26     -9     41     42 229.6 -12.4  34060  287.87 0855.37
2009/04/23 08:30:53.5     -38    -23      2     45     46 238.5   2.9  34058  287.84 0855.37
2009/04/23 08:30:53.6     -43    -43     16     62     65 225.0  14.3  34058  287.86 0855.37
2009/04/23 08:30:53.7     -48    -45      3     67     68 226.9   2.8  34058  287.84 0855.37
2009/04/23 08:30:53.8     -56    -39     -2     69     70 234.9  -2.2  34058  287.84 0855.37
2009/04/23 08:30:53.9     -43    -36     10     57     58 230.5  10.1  34058  287.86 0855.37
2009/04/23 08:30:54.0     -44    -28      2     53     54 237.6   2.8  34060  287.89 0855.37
2009/04/23 08:30:54.1     -36    -35     -2     51     52 225.9  -2.2  34062  287.91 0855.37
2009/04/23 08:30:54.2     -34    -30    -11     46     48 227.8 -13.4  34060  287.89 0855.37
2009/04/23 08:30:54.3     -43    -36     -7     57     58 230.5  -7.3  34060  287.87 0855.37
2009/04/23 08:30:54.4     -37    -34      0     51     52 227.8  -0.3  34060  287.87 0855.37
2009/04/23 08:30:54.5     -39    -41      0     57     58 223.2   0.8  34060  287.87 0855.37
2009/04/23 08:30:54.6     -30    -45     -7     55     56 214.3  -7.2  34058  287.84 0855.38
2009/04/23 08:30:54.7     -10    -51      0     53     54 191.5   0.8  34056  287.82 0855.38
2009/04/23 08:30:54.8     -16    -65      8     68     69 194.3   6.9  34060  287.87 0855.38
2009/04/23 08:30:54.9     -11    -56     14     58     60 191.5  14.3  34060  287.87 0855.38
2009/04/23 08:30:55.0     -12    -61     12     63     65 191.6  11.0  34058  287.84 0855.38
2009/04/23 08:30:55.1     -20    -54     11     58     60 200.9  11.1  34060  287.89 0855.38
2009/04/23 08:30:55.2     -17    -45     16     49     52 200.9  18.4  34060  287.87 0855.38
2009/04/23 08:30:55.3     -23    -62     15     67     69 200.9  13.2  34058  287.84 0855.38
2009/04/23 08:30:55.4     -10    -72      4     73     74 188.1   3.8  34060  287.89 0855.38
2009/04/23 08:30:55.5     -10    -76      3     77     78 188.0   2.8  34064  287.94 0855.38
2009/04/23 08:30:55.6     -18    -96     12     98     99 191.1   7.1  34066  287.98 0855.38
2009/04/23 08:30:55.7     -53    -83    -32     99    105 212.6 -18.1  34066  287.98 0855.38
2009/04/23 08:30:55.8     -42    -80    -25     91     95 208.1 -15.5  34062  287.92 0855.38
2009/04/23 08:30:55.9     -21    -63     -3     67     68 198.3  -3.1  34062  287.92 0855.38
2009/04/23 08:30:56.0     -18    -73    -24     76     80 194.3 -17.6  34066  287.98 0855.38
2009/04/23 08:30:56.1     -12    -62     -8     64     65 191.6  -7.3  34062  287.92 0855.38
2009/04/23 08:30:56.2     -18    -70     -9     73     74 195.1  -7.2  34058  287.84 0855.38
2009/04/23 08:30:56.3     -23    -57    -12     62     64 201.9 -11.5  34060  287.87 0855.38
2009/04/23 08:30:56.4     -15    -57      1     60     61 195.2   1.8  34060  287.89 0855.38
2009/04/23 08:30:56.5      -4    -52      6     53     54 184.5   6.9  34062  287.92 0855.38
2009/04/23 08:30:56.6       5    -65     12     66     68 175.5  11.0  34060  287.89 0855.38
2009/04/23 08:30:56.7       0    -63     16     64     67 179.1  14.3  34058  287.86 0855.38
2009/04/23 08:30:56.8      -4    -68     24     69     74 183.6  19.4  34060  287.89 0855.38
2009/04/23 08:30:56.9      -5    -75     14     76     78 184.4  10.6  34062  287.91 0855.38
2009/04/23 08:30:57.0     -23    -77      9     81     82 196.5   6.5  34062  287.92 0855.38
2009/04/23 08:30:57.1     -16    -64     17     67     70 194.3  14.3  34060  287.89 0855.38
2009/04/23 08:30:57.2     -10    -52     23     54     58 191.5  23.0  34062  287.92 0855.38
2009/04/23 08:30:57.3       3    -53     24     54     59 176.4  25.1  34060  287.87 0855.38
2009/04/23 08:30:57.4      16    -48     38     51     63 161.7  40.7  34058  287.86 0855.38
2009/04/23 08:30:57.5       7    -38     42     39     57 168.4  51.2  34062  287.92 0855.38
2009/04/23 08:30:57.6      -3    -34     39     35     52 186.2  53.3  34060  287.87 0855.38
2009/04/23 08:30:57.7     -13    -30     32     33     45 203.6  50.0  34062  287.92 0855.38
2009/04/23 08:30:57.8      -4    -30     28     31     41 188.0  46.9  34062  287.92 0855.38
2009/04/23 08:30:57.9     -19    -30     35     36     50 212.5  51.1  34060  287.89 0855.38
2009/04/23 08:30:58.0     -18    -39     28     44     52 205.4  35.5  34062  287.92 0855.38
2009/04/23 08:30:58.1     -26    -41     17     49     53 212.6  19.4  34060  287.89 0855.38
2009/04/23 08:30:58.2     -31    -37     16     49     52 219.6  18.4  34060  287.87 0855.38
2009/04/23 08:30:58.3     -37    -37      2     53     54 225.0   2.8  34058  287.84 0855.38
2009/04/23 08:30:58.4     -42    -31     -2     53     54 234.0  -2.2  34058  287.84 0855.38
2009/04/23 08:30:58.5     -44    -28     -2     53     54 237.6  -2.2  34056  287.82 0855.38
2009/04/23 08:30:58.6     -50    -28     -2     58     59 241.1  -2.2  34054  287.79 0855.38
2009/04/23 08:30:58.7     -34    -32      1     47     48 226.9   1.8  34054  287.77 0855.38
2009/04/23 08:30:58.8     -37    -25      2     45     46 235.8   2.9  34058  287.84 0855.38
2009/04/23 08:30:58.9     -28    -37     25     47     53 217.0  30.3  34058  287.84 0855.38
2009/04/23 08:30:59.0     -22    -39     24     45     51 209.9  30.3  34058  287.86 0855.38
2009/04/23 08:30:59.1     -15    -29     25     33     41 207.2  41.7  34058  287.84 0855.38
2009/04/23 08:30:59.2     -24    -42     28     49     56 210.7  33.5  34060  287.87 0855.38
2009/04/23 08:30:59.3     -15    -57     16     60     63 195.1  15.3  34058  287.86 0855.38
2009/04/23 08:30:59.4     -23    -68     18     72     75 198.7  14.3  34054  287.79 0855.38
2009/04/23 08:30:59.5     -23    -67      7     71     72 199.2   5.9  34052  287.74 0855.38
2009/04/23 08:30:59.6     -36    -70      9     79     80 207.2   6.5  34054  287.77 0855.38
2009/04/23 08:30:59.7     -41    -62      3     75     76 213.4   2.9  34054  287.77 0855.38
2009/04/23 08:30:59.8     -37    -58     13     69     71 212.6  11.1  34050  287.70 0855.38
2009/04/23 08:30:59.9     -35    -69     16     78     80 207.2  12.2  34048  287.69 0855.38
2009/04/23 08:31:00.0     -39    -57     15     70     72 214.3  12.2  34046  287.65 0855.38
2009/04/23 08:31:00.1     -58    -59      0     84     85 224.5   0.2  34052  287.76 0855.38
2009/04/23 08:31:00.2     -48    -45    -20     66     68 226.8 -22.8  34058  287.86 0855.38
2009/04/23 08:31:00.3     -52    -43     -1     68     69 230.5  -1.2  34056  287.81 0855.38
2009/04/23 08:31:00.4     -47    -60     -1     77     78 217.8  -1.3  34056  287.81 0855.38
2009/04/23 08:31:00.5     -48    -45     -3     67     68 226.9  -3.1  34052  287.76 0855.38
2009/04/23 08:31:00.6     -22    -66     -2     70     71 198.7  -2.2  34050  287.72 0855.38
2009/04/23 08:31:00.7     -16    -67      8     69     70 193.4   6.9  34048  287.67 0855.38
2009/04/23 08:31:00.8     -12    -62     12     64     66 191.6  11.1  34048  287.69 0855.38
2009/04/23 08:31:00.9      -7    -58     13     59     61 187.1  13.2  34050  287.72 0855.38
2009/04/23 08:31:01.0     -15    -48     10     51     53 197.8  11.1  34046  287.65 0855.38
2009/04/23 08:31:01.1     -17    -45     16     49     52 200.9  18.4  34050  287.70 0855.38
2009/04/23 08:31:01.2     -10    -51     22     53     57 191.6  23.0  34052  287.74 0855.38
2009/04/23 08:31:01.3     -15    -34      6     38     39 203.6  10.1  34056  287.81 0855.38
2009/04/23 08:31:01.4      -9    -31     -9     33     34 196.9 -21.7  34054  287.79 0855.38
2009/04/23 08:31:01.5     -10    -25    -10     27     28 201.8 -23.3  34056  287.82 0855.38
2009/04/23 08:31:01.6     -15     -1    -16     16     22 265.6 -54.5  34056  287.81 0855.38
2009/04/23 08:31:01.7     -19     -3    -20     20     28 258.5 -54.5  34056  287.81 0855.38
2009/04/23 08:31:01.8     -26    -23    -19     35     39 228.7 -35.8  34052  287.76 0855.38
2009/04/23 08:31:01.9     -28    -16    -19     33     38 239.3 -39.9  34054  287.79 0855.38
2009/04/23 08:31:02.0     -23    -28    -16     37     40 219.6 -29.5  34054  287.77 0855.38
2009/04/23 08:31:02.1     -23    -32    -14     40     43 215.2 -19.7  34056  287.81 0855.38
2009/04/23 08:31:02.2     -17    -38    -17     42     45 204.5 -27.4  34058  287.84 0855.38
2009/04/23 08:31:02.3     -16    -22    -24     28     36 216.1 -50.2  34052  287.76 0855.38
2009/04/23 08:31:02.4     -12    -30    -19     33     38 201.8 -39.9  34052  287.76 0855.38
2009/04/23 08:31:02.5     -39    -28    -37     49     61 234.0 -45.1  34050  287.70 0855.38
2009/04/23 08:31:02.6     -37    -24    -42     45     61 236.7 -52.3  34052  287.76 0855.38
2009/04/23 08:31:02.7     -13    -45    -20     48     52 196.9 -28.5  34052  287.76 0855.38
2009/04/23 08:31:02.8       0    -52    -20     53     56 180.9 -24.4  34052  287.76 0855.38
2009/04/23 08:31:02.9     -18    -49    -32     53     61 200.9 -38.8  34050  287.72 0855.38
2009/04/23 08:31:03.0     -17    -53    -24     56     60 198.7 -28.5  34052  287.74 0855.38
2009/04/23 08:31:03.1       5    -64    -28     65     70 175.5 -29.5  34052  287.76 0855.38
2009/04/23 08:31:03.2      20    -60    -28     64     69 161.3 -30.6  34050  287.72 0855.38
2009/04/23 08:31:03.3      28    -45    -20     54     57 148.4 -24.4  34050  287.72 0855.38
2009/04/23 08:31:03.4      27    -39    -14     48     50 145.7 -21.7  34048  287.69 0855.38
2009/04/23 08:31:03.5      36    -41    -19     55     58 138.6 -23.3  34048  287.67 0855.38
2009/04/23 08:31:03.6      43    -43    -19     61     65 134.9 -17.6  34048  287.69 0855.38
2009/04/23 08:31:03.7      38    -38    -18     54     56 135.0 -23.6  34048  287.69 0855.38
2009/04/23 08:31:03.8      38    -36    -22     53     57 133.1 -27.4  34050  287.72 0855.38
2009/04/23 08:31:03.9      39    -22    -17     46     49 119.8 -23.3  34048  287.67 0855.38
2009/04/23 08:31:04.0      48     10    -10     50     52  77.6 -11.3  34046  287.65 0855.38
2009/04/23 08:31:04.1      41     -1    -13     42     43  91.7 -22.8  34048  287.67 0855.38
2009/04/23 08:31:04.2      40     13    -15     43     45  72.3 -23.3  34048  287.67 0855.38
2009/04/23 08:31:04.3      30     26    -24     40     46  48.7 -38.8  34046  287.65 0855.38
2009/04/23 08:31:04.4      23     23    -37     33     49  45.0 -57.7  34050  287.70 0855.38
2009/04/23 08:31:04.5      16     36    -44     40     59  23.6 -56.6  34050  287.72 0855.38
2009/04/23 08:31:04.6      14     40    -46     43     62  19.2 -56.5  34050  287.70 0855.39
2009/04/23 08:31:04.7       7     37    -46     38     59  11.6 -60.8  34048  287.69 0855.39
2009/04/23 08:31:04.8      14     32    -46     35     57  23.6 -62.9  34052  287.76 0855.39
2009/04/23 08:31:04.9      11     33    -49     35     60  18.7 -64.9  34050  287.72 0855.39
2009/04/23 08:31:05.0      16     36    -44     40     59  23.6 -56.6  34050  287.72 0855.39
2009/04/23 08:31:05.1      15     43    -38     46     59  20.0 -48.1  34048  287.69 0855.39
2009/04/23 08:31:05.2      11     42    -36     44     56  15.1 -48.1  34052  287.74 0855.39
2009/04/23 08:31:05.3      12     35    -43     38     57  18.7 -57.7  34048  287.69 0855.39
2009/04/23 08:31:05.4       1     27    -39     28     48   2.7 -65.9  34048  287.67 0855.39
2009/04/23 08:31:05.5       9     29    -37     31     48  18.5 -58.7  34044  287.62 0855.39
2009/04/23 08:31:05.6      30     31    -48     44     65  44.1 -56.6  34048  287.67 0855.39
2009/04/23 08:31:05.7      34     51    -47     62     77  34.3 -45.1  34046  287.65 0855.39
2009/04/23 08:31:05.8      27     29    -33     40     51  43.4 -48.1  34046  287.64 0855.39
2009/04/23 08:31:05.9      22     22    -31     32     44  45.1 -55.5  34046  287.64 0855.39
2009/04/23 08:31:06.0      26     22    -27     35     44  50.4 -47.1  34048  287.69 0855.39
2009/04/23 08:31:06.1      26     13    -20     30     36  62.9 -40.0  34046  287.65 0855.39
2009/04/23 08:31:06.2      24     12     -8     28     29  62.9 -23.8  34046  287.64 0855.39
2009/04/23 08:31:06.3      21     13     -5     25     26  57.5 -11.3  34048  287.69 0855.39
2009/04/23 08:31:06.4      21     13     -5     25     26  57.5 -11.3  34048  287.69 0855.39
2009/04/23 08:31:06.5      21     21      1     31     32  45.0   2.8  34046  287.65 0855.39
2009/04/23 08:31:06.6      21     40     -1     46     47  28.1  -1.3  34046  287.64 0855.39
2009/04/23 08:31:06.7      21     46     -6     51     52  25.5  -7.3  34048  287.69 0855.39
2009/04/23 08:31:06.8      16     46     -1     49     50  19.2  -2.2  34046  287.65 0855.39
2009/04/23 08:31:06.9      16     38      2     42     43  23.6   2.9  34048  287.69 0855.39
2009/04/23 08:31:07.0       0     40     14     41     44 359.1  19.2  34048  287.67 0855.39
2009/04/23 08:31:07.1      -3     32     22     33     39 353.8  36.5  34048  287.69 0855.39
2009/04/23 08:31:07.2      17     22     17     28     32  37.8  35.5  34048  287.69 0855.39
2009/04/23 08:31:07.3      17     22      2     28     29  37.8   4.9  34048  287.69 0855.39
2009/04/23 08:31:07.4      18     25      6     32     33  36.1  11.0  34046  287.65 0855.39
2009/04/23 08:31:07.5      17     22      2     28     29  37.8   4.9  34048  287.69 0855.39
2009/04/23 08:31:07.6       7     22      8     24     26  18.5  19.4  34048  287.67 0855.39
2009/04/23 08:31:07.7       9     24      9     26     28  21.8  19.4  34048  287.67 0855.39
2009/04/23 08:31:07.8      20     32      6     38     39  32.6  10.1  34048  287.69 0855.39
2009/04/23 08:31:07.9      20     32      6     38     39  32.6  10.1  34048  287.69 0855.39
2009/04/23 08:31:08.0      24     36     10     44     46  34.3  13.2  34046  287.65 0855.39
2009/04/23 08:31:08.1      26     28      7     39     40  43.4  11.1  34046  287.64 0855.39
2009/04/23 08:31:08.2      27     29     16     40     43  43.4  22.0  34046  287.65 0855.39
2009/04/23 08:31:08.3      38     25     11     46     48  55.8  14.3  34046  287.65 0855.39
2009/04/23 08:31:08.5      37     29     14     48     51  51.4  16.3  34048  287.67 0855.39
2009/04/23 08:31:08.6      25     25     18     36     40  45.0  29.3  34046  287.64 0855.39
2009/04/23 08:31:08.7      21     29     21     37     42  36.1  32.4  34048  287.67 0855.39
2009/04/23 08:31:08.8      30     23     37     39     53  52.2  50.0  34046  287.65 0855.39
2009/04/23 08:31:08.9      40     32     40     52     65  51.4  41.7  34048  287.67 0855.39
2009/04/23 08:31:09.0      31     31     31     45     54  45.0  37.6  34048  287.67 0855.39
2009/04/23 08:31:09.1      22     31     22     39     44  36.1  32.4  34048  287.67 0855.39
2009/04/23 08:31:09.2      12     31     11     34     37  21.8  18.9  34048  287.69 0855.39
2009/04/23 08:31:09.3      19     43     19     48     51  23.6  22.0  34046  287.65 0855.39
2009/04/23 08:31:09.4      35     40      5     54     55  41.4   5.9  34048  287.69 0855.39
2009/04/23 08:31:09.5      24     51     11     57     59  25.4  11.0  34046  287.65 0855.39
2009/04/23 08:31:09.6      37     34     18     51     55  47.8  19.4  34046  287.65 0855.39
2009/04/23 08:31:09.7      45     34     13     57     59  53.1  13.2  34048  287.67 0855.39
2009/04/23 08:31:09.8      47     18     -9     51     52  69.2 -10.3  34050  287.70 0855.39
2009/04/23 08:31:09.9      47     18    -20     51     54  68.3 -25.4  34046  287.65 0855.39
2009/04/23 08:31:10.0      51     12     -4     53     54  75.8  -5.2  34048  287.67 0855.39
2009/04/23 08:31:10.1      24     -7     14     26     29 106.8  31.4  34048  287.67 0855.39
2009/04/23 08:31:10.2      12    -14     26     19     32 138.6  60.5  34048  287.69 0855.39
2009/04/23 08:31:10.3      21    -25     31     33     45 140.3  49.0  34046  287.65 0855.39
2009/04/23 08:31:10.4      11     -9     46     15     48 129.5  80.7  34046  287.65 0855.39
2009/04/23 08:31:10.5       8      6     48     11     49  50.5  88.0  34048  287.67 0855.39
2009/04/23 08:31:10.6     -12     19     35     23     41 327.5  63.6  34052  287.74 0855.39
2009/04/23 08:31:10.7      -5     17     44     18     47 341.5  77.1  34050  287.70 0855.39
2009/04/23 08:31:10.8      39    -22     70     45     83 119.8  64.1  34046  287.65 0855.39
2009/04/23 08:31:10.9      56      4     82     57     99  85.7  61.5  34046  287.65 0855.39
2009/04/23 08:31:11.0      50     16     68     53     86  71.4  58.5  34044  287.60 0855.39
2009/04/23 08:31:11.1      23     10     44     26     51  66.5  65.7  34044  287.62 0855.39
2009/04/23 08:31:11.2      44     -3     28     45     53  94.4  35.5  34046  287.65 0855.39
2009/04/23 08:31:11.3     103     14     35    104    110  82.1  18.9  34048  287.67 0855.39
2009/04/23 08:31:11.4     124     39     73    131    149  72.3  31.4  34046  287.65 0855.39
2009/04/23 08:31:11.5     159     41     78    165    182  75.4  27.1  34052  287.76 0855.39
2009/04/23 08:31:11.6     157     63     71    170    184  68.0  23.6  34054  287.79 0855.39
2009/04/23 08:31:11.7     135     53     40    146    152  68.3  15.3  34048  287.69 0855.39
2009/04/23 08:31:11.8     126     39     36    132    137  72.7  15.3  34052  287.76 0855.39
2009/04/23 08:31:11.9     124     39     65    131    146  72.3  27.8  34052  287.74 0855.39
2009/04/23 08:31:12.0     102     74     24    127    130  54.0  11.0  34052  287.74 0855.39
2009/04/23 08:31:12.1     115     39      0    122    123  70.9  -0.3  34050  287.72 0855.39
2009/04/23 08:31:12.2      99     54     -6    114    115  61.2  -3.1  34054  287.77 0855.39
2009/04/23 08:31:12.3     116     35     52    122    132  73.1  24.6  34050  287.72 0855.39
2009/04/23 08:31:12.4      58     58     63     83    104  45.0  40.7  34050  287.72 0855.39
2009/04/23 08:31:12.5      56     73     47     93    104  37.4  29.3  34052  287.74 0855.39
2009/04/23 08:31:12.6      43     78     48     90    102  29.0  30.8  34052  287.76 0855.39
2009/04/23 08:31:12.7      51     74     60     91    109  34.7  36.0  34054  287.79 0855.39
2009/04/23 08:31:12.8      79     96     82    125    149  39.2  35.6  34054  287.77 0855.39
2009/04/23 08:31:12.9      99    101     53    142    151  44.5  21.0  34052  287.76 0855.39
2009/04/23 08:31:13.0      92    113     50    146    155  39.2  18.9  34052  287.76 0855.39
2009/04/23 08:31:13.1      99     61     53    117    128  58.5  26.2  34050  287.72 0855.39
2009/04/23 08:31:13.2      93     27     43     97    106  73.6  25.7  34050  287.70 0855.39
2009/04/23 08:31:13.3     110     23     17    113    115  78.1   9.0  34052  287.76 0855.39
2009/04/23 08:31:13.4      72     46     37     86     93  57.5  24.6  34050  287.70 0855.39
2009/04/23 08:31:13.5      69     78     40    105    112  41.4  21.5  34048  287.69 0855.39
2009/04/23 08:31:13.6      77     82     55    113    125  43.3  27.8  34050  287.70 0855.39
2009/04/23 08:31:13.7      92     88     37    128    134  46.0  16.3  34050  287.70 0855.39
2009/04/23 08:31:13.8     117     77     12    141    142  56.7   4.9  34050  287.70 0855.39
2009/04/23 08:31:13.9     102     94     31    140    144  47.3  12.6  34050  287.70 0855.39
2009/04/23 08:31:14.0      87     72     39    114    121  50.5  18.9  34050  287.70 0855.39
2009/04/23 08:31:14.1      79     79     28    112    116  45.0  14.3  34052  287.74 0855.39
2009/04/23 08:31:14.2     102     91     26    137    140  48.2  11.1  34050  287.70 0855.39
2009/04/23 08:31:14.3      86     88     33    124    129  44.5  15.2  34054  287.77 0855.39
2009/04/23 08:31:14.4      92     92     25    131    134  45.0  11.1  34052  287.74 0855.39
2009/04/23 08:31:14.5      84     95     16    127    129  41.4   7.5  34050  287.70 0855.39
2009/04/23 08:31:14.6      76     88     14    117    118  40.5   6.9  34048  287.67 0855.39
2009/04/23 08:31:14.7      43    108     -2    117    118  21.9  -1.3  34038  287.50 0855.39
2009/04/23 08:31:14.8      46     87      7     99    100  28.1   4.4  34034  287.43 0855.39
2009/04/23 08:31:14.9      62      9     39     63     74  81.2  35.5  34034  287.43 0855.39
2009/04/23 08:31:15.0      70     42     62     82    102  58.9  41.2  34050  287.70 0855.39
2009/04/23 08:31:15.1      17     62     73     65     97  15.2  53.3  34050  287.72 0855.39
2009/04/23 08:31:15.2      73    102     89    126    154  35.6  38.6  34042  287.57 0855.39
2009/04/23 08:31:15.3      86    124     41    152    158  34.7  15.2  34038  287.52 0855.39
2009/04/23 08:31:15.4      80    109     24    136    139  36.5  10.1  34042  287.57 0855.39
2009/04/23 08:31:15.5      77    127     18    149    151  31.2   6.9  34046  287.65 0855.39
2009/04/23 08:31:15.6      85    125      3    152    153  34.3   1.2  34046  287.64 0855.39
2009/04/23 08:31:15.7      92    119    -12    151    152  37.8  -4.6  34048  287.69 0855.38
2009/04/23 08:31:15.8      73    126    -21    146    148  30.3  -8.2  34050  287.70 0855.38
2009/04/23 08:31:15.9      83    114    -38    142    148  36.1 -15.0  34050  287.70 0855.38
2009/04/23 08:31:16.0      74    111      6    134    135  33.8   2.8  34046  287.65 0855.38
2009/04/23 08:31:16.1      72    100    -12    124    125  36.0  -5.6  34046  287.65 0855.38
2009/04/23 08:31:16.2      58    104    -41    120    126  29.4 -23.3  34048  287.67 0855.38
2009/04/23 08:31:16.3      74     72    -62    104    121  46.0 -37.9  34048  287.69 0855.38
2009/04/23 08:31:16.4      91     66    -34    113    118  54.0 -21.7  34046  287.65 0855.38
2009/04/23 08:31:16.5      94     94    -48    134    143  45.0 -19.7  34046  287.64 0855.38
2009/04/23 08:31:16.6     104    111    -63    153    165  43.2 -28.0  34042  287.57 0855.38
2009/04/23 08:31:16.7     110     87    -69    141    156  51.4 -32.4  34042  287.59 0855.38
2009/04/23 08:31:16.8      80     63    -65    103    121  51.8 -39.9  34042  287.59 0855.38
2009/04/23 08:31:16.9      98     93    -89    136    162  46.4 -40.4  34042  287.59 0855.38
2009/04/23 08:31:17.0     118     98    -75    154    171  50.4 -31.8  34040  287.54 0855.38
2009/04/23 08:31:17.1      77     99    -87    126    153  37.9 -42.0  34040  287.55 0855.38
2009/04/23 08:31:17.2      82     82    -76    116    138  45.0 -40.4  34042  287.57 0855.38
2009/04/23 08:31:17.3      69     68    -81     98    127  45.4 -48.2  34042  287.57 0855.38
2009/04/23 08:31:17.4      78     56    -66     97    117  54.5 -41.4  34040  287.55 0855.38
2009/04/23 08:31:17.5     104     35    -33    110    116  71.4 -17.0  34044  287.62 0855.38
2009/04/23 08:31:17.6     109     37      1    116    117  70.9   0.8  34044  287.60 0855.38
2009/04/23 08:31:17.7      94     48     17    106    108  62.9   9.5  34044  287.60 0855.38
2009/04/23 08:31:17.8      81     78     12    113    114  46.0   6.5  34042  287.59 0855.38
2009/04/23 08:31:17.9      72     79      4    108    109  42.3   2.3  34042  287.59 0855.38
2009/04/23 08:31:18.0      74    102     22    127    130  36.1  10.1  34042  287.57 0855.38
2009/04/23 08:31:18.1      96     96     37    136    141  45.0  15.3  34046  287.64 0855.38
2009/04/23 08:31:18.2     118    131     35    177    181  41.9  11.4  34044  287.60 0855.38
2009/04/23 08:31:18.3     120    115     54    167    176  46.2  18.1  34042  287.59 0855.38
2009/04/23 08:31:18.4     173     86     38    194    198  63.4  11.1  34044  287.60 0855.38
2009/04/23 08:31:18.5     176     98     51    202    209  60.7  14.3  34042  287.57 0855.38
2009/04/23 08:31:18.6     253     89     24    269    271  70.5   5.2  34046  287.63 0855.38
2009/04/23 08:31:18.7     269    123     46    296    300  65.4   8.9  34046  287.65 0855.38
2009/04/23 08:31:18.8     251     88     69    267    276  70.7  14.5  34050  287.71 0855.38
2009/04/23 08:31:18.9     263     82     49    276    281  72.7  10.1  34046  287.65 0855.38
2009/04/23 08:31:19.0     271     90     65    286    294  71.6  12.9  34044  287.60 0855.38
2009/04/23 08:31:19.2     229    108     46    254    259  64.8  10.3  34044  287.61 0855.38
2009/04/23 08:31:19.2     171    139     43    221    226  50.9  11.1  34042  287.59 0855.38
2009/04/23 08:31:19.3     146    161      3    218    219  42.3   0.8  34044  287.60 0855.38
2009/04/23 08:31:19.4     161    150     18    221    222  47.1   4.9  34044  287.60 0855.38
2009/04/23 08:31:19.5     205    136     10    247    248  56.5   2.3  34042  287.58 0855.38
2009/04/23 08:31:19.6     210    203    -31    293    295  46.0  -6.1  34042  287.56 0855.38
2009/04/23 08:31:19.7     195    243    -51    312    317  38.7  -9.3  34036  287.48 0855.39
2009/04/23 08:31:19.8     167    243    -37    295    298  34.5  -7.2  34038  287.50 0855.39
2009/04/23 08:31:19.9     171    227    -36    285    288  37.0  -7.3  34028  287.33 0855.39
2009/04/23 08:31:20.0     151    222    -34    269    272  34.2  -7.2  34026  287.29 0855.39
2009/04/23 08:31:20.1     172    214    -35    275    278  38.7  -7.3  34030  287.38 0855.39
2009/04/23 08:31:20.2     197    183     -1    270    271  47.1  -0.3  34040  287.53 0855.39
2009/04/23 08:31:20.4     204    172      0    268    269  49.8   0.0  34038  287.50 0855.39
2009/04/23 08:31:20.4     209    160     -5    264    265  52.7  -1.2  34036  287.46 0855.39
2009/04/23 08:31:20.5     172    171      0    243    244  45.1   0.0  34030  287.36 0855.39
2009/04/23 08:31:20.6     141    215      4    258    259  33.4   1.0  34032  287.39 0855.39
2009/04/23 08:31:20.7     141    199     -1    245    246  35.4  -0.3  34026  287.29 0855.39
2009/04/23 08:31:20.8     140    176     -4    226    227  38.5  -1.1  34022  287.23 0855.39
2009/04/23 08:31:20.9     128    177     -4    219    220  36.0  -1.2  34024  287.27 0855.39
2009/04/23 08:31:21.0     151    168     -8    227    228  41.9  -2.1  34024  287.28 0855.39
2009/04/23 08:31:21.1     158    167      1    230    231  43.4   0.5  34024  287.27 0855.39
2009/04/23 08:31:21.2     151    168      9    227    228  41.9   2.3  34024  287.28 0855.39
2009/04/23 08:31:21.3     182    152     20    238    239  50.2   4.9  34026  287.31 0855.39
2009/04/23 08:31:21.4     186    144     26    236    238  52.2   6.5  34028  287.33 0855.39
2009/04/23 08:31:21.6     151    142     46    208    214  46.9  12.6  34028  287.33 0855.39
2009/04/23 08:31:21.6     137    134     44    192    198  45.6  13.1  34028  287.33 0855.39
2009/04/23 08:31:21.7     129    137     37    189    193  43.2  11.1  34026  287.32 0855.39
2009/04/23 08:31:21.8     138    140     46    197    203  44.7  13.2  34026  287.30 0855.39
2009/04/23 08:31:21.9     139    149     44    205    210  43.0  12.2  34028  287.33 0855.39
2009/04/23 08:31:22.0     124    161     15    204    205  37.6   4.4  34026  287.30 0855.39
2009/04/23 08:31:22.1     122    183      1    221    222  33.8   0.5  34030  287.38 0855.39
2009/04/23 08:31:22.2     107    176     -7    207    208  31.4  -2.1  34034  287.43 0855.39
2009/04/23 08:31:22.3      86    174     -1    195    196  26.3  -0.5  34030  287.38 0855.39
2009/04/23 08:31:22.4      80    177      9    195    196  24.3   2.9  34034  287.43 0855.39
2009/04/23 08:31:22.5      87    157    -35    180    184  29.0 -11.1  34032  287.40 0855.39
2009/04/23 08:31:22.6      83    151     12    173    174  29.0   4.2  34034  287.43 0855.39
2009/04/23 08:31:22.8      91    151     -6    177    178  31.0  -2.2  34032  287.42 0855.39
2009/04/23 08:31:22.9      78    140     -6    161    162  29.0  -2.2  34032  287.42 0855.39
2009/04/23 08:31:22.9      62    121     -7    137    138  27.2  -3.1  34032  287.40 0855.39
2009/04/23 08:31:23.0      59    124     -3    138    139  25.3  -1.3  34028  287.33 0855.39
2009/04/23 08:31:23.1      83    107    -27    136    139  37.8 -11.5  34030  287.38 0855.39
2009/04/23 08:31:23.2      76    118    -39    141    147  33.0 -15.4  34030  287.38 0855.39
2009/04/23 08:31:23.3      72    105    -16    128    130  34.7  -7.3  34032  287.40 0855.39
2009/04/23 08:31:23.4      96     97    -16    137    138  44.5  -6.7  34032  287.42 0855.39
2009/04/23 08:31:23.5      82     87    -33    120    125  43.2 -15.4  34030  287.38 0855.39
2009/04/23 08:31:23.6      69     95      1    118    119  36.1   0.8  34034  287.45 0855.39
2009/04/23 08:31:23.7      72     95     -5    120    121  37.4  -2.6  34030  287.38 0855.39
2009/04/23 08:31:23.8      61     84     -4    105    106  36.0  -2.2  34032  287.40 0855.39
2009/04/23 08:31:23.9      55     78    -12     96     97  35.6  -7.3  34030  287.37 0855.39
2009/04/23 08:31:24.0      51     60      6     79     80  40.5   4.9  34030  287.37 0855.39
2009/04/23 08:31:24.1      94     69    -10    118    119  53.6  -5.2  34030  287.37 0855.39
2009/04/23 08:31:24.2      75     91     -4    119    120  39.7  -2.2  34032  287.42 0855.39
2009/04/23 08:31:24.3      76     89    -13    118    119  40.5  -6.7  34030  287.37 0855.39
2009/04/23 08:31:24.4      63     63    -27     90     95  45.0 -17.0  34030  287.37 0855.39
2009/04/23 08:31:24.5      66     59      1     89     90  48.2   0.8  34032  287.42 0855.39
2009/04/23 08:31:24.6      60     62      7     87     88  44.1   4.9  34034  287.43 0855.39
2009/04/23 08:31:24.7      52     35      3     63     64  55.8   2.8  34032  287.40 0855.39
2009/04/23 08:31:24.8      41     25     17     49     53  58.5  19.4  34030  287.37 0855.39
2009/04/23 08:31:24.9      25     37     32     45     55  34.3  38.6  34030  287.38 0855.39
2009/04/23 08:31:25.0      35     38     16     52     55  42.3  17.3  34032  287.42 0855.39
2009/04/23 08:31:25.1      48     40     28     63     68  50.5  25.1  34030  287.37 0855.39
2009/04/23 08:31:25.2      65     65     29     93     98  45.1  17.3  34030  287.38 0855.39
2009/04/23 08:31:25.3      50     47     49     69     84  46.9  38.6  34028  287.35 0855.39
2009/04/23 08:31:25.4      23     61     49     66     82  20.9  40.7  34030  287.38 0855.39
2009/04/23 08:31:25.5      25     72     53     77     93  19.2  37.6  34030  287.37 0855.39
2009/04/23 08:31:25.6      33     69     60     77     97  25.5  42.2  34028  287.33 0855.39
2009/04/23 08:31:25.7      42     35     55     55     77  50.4  50.1  34028  287.33 0855.39
2009/04/23 08:31:25.8      22     72     41     76     86  16.9  30.8  34028  287.35 0855.39
2009/04/23 08:31:25.9      13     69     32     71     77  10.7  26.2  34030  287.38 0855.39
2009/04/23 08:31:26.0      15     76     35     78     85  11.6  25.7  34032  287.42 0855.39
2009/04/23 08:31:26.1      -1     85     34     86     92 359.0  22.5  34030  287.37 0855.39
2009/04/23 08:31:26.2      -6     84     35     85     91 355.6  23.6  34028  287.35 0855.39
2009/04/23 08:31:26.3      -3     70     25     71     76 357.3  19.4  34030  287.37 0855.39
2009/04/23 08:31:26.4     -37     37      2     53     54 315.0   2.8  34028  287.35 0855.39
2009/04/23 08:31:26.5     -56     30    -22     64     68 298.8 -19.6  34030  287.37 0855.39
2009/04/23 08:31:26.6     -50     32    -13     60     62 303.3 -12.4  34030  287.37 0855.39
2009/04/23 08:31:26.7     -33     21    -10     40     42 302.4 -14.5  34028  287.35 0855.39
2009/04/23 08:31:26.8     -27     17     -4     33     34 302.5  -7.2  34028  287.33 0855.39
2009/04/23 08:31:26.9      -1     20     12     21     24 355.6  31.4  34030  287.38 0855.39
2009/04/23 08:31:27.0       7     21      8     23     25  18.3  19.2  34030  287.37 0855.39
2009/04/23 08:31:27.1       9     44      2     46     47  12.5   2.8  34030  287.38 0855.39
2009/04/23 08:31:27.2      10     40      4     42     43  14.3   5.9  34032  287.40 0855.39
2009/04/23 08:31:27.3      21     10     32     24     40  64.7  59.4  34030  287.38 0855.39
2009/04/23 08:31:27.4      23     42     37     49     61  29.0  40.7  34030  287.37 0855.39
2009/04/23 08:31:27.5      10     76     15     77     79   8.0  11.6  34032  287.42 0855.39
2009/04/23 08:31:27.6      23     73     13     77     79  17.8  10.1  34032  287.40 0855.39
2009/04/23 08:31:27.7      20     66      3     70     71  16.9   2.8  34030  287.38 0855.39
2009/04/23 08:31:27.8       2     71      7     72     73   1.8   5.9  34032  287.42 0855.39
2009/04/23 08:31:27.9       7     79     15     80     82   5.3  10.6  34032  287.40 0855.39
2009/04/23 08:31:28.0       5     74     23     75     79   4.5  17.3  34030  287.37 0855.39
2009/04/23 08:31:28.1       4     73     24     74     79   3.6  18.4  34030  287.38 0855.39
2009/04/23 08:31:28.2       4     67     31     68     74   3.6  27.1  34028  287.35 0855.39
2009/04/23 08:31:28.3      -1     53     31     54     62 358.2  31.4  34032  287.42 0855.39
2009/04/23 08:31:28.4       0     46     35     47     58   0.0  40.7  34032  287.42 0855.39
2009/04/23 08:31:28.5     -20     38     37     44     57 331.9  43.8  34030  287.38 0855.39
2009/04/23 08:31:28.6     -22     25     35     34     48 318.6  49.1  34030  287.38 0855.39
2009/04/23 08:31:28.7     -21     25     33     33     46 320.4  50.1  34030  287.38 0855.39
2009/04/23 08:31:28.8     -19     10     32     22     38 298.9  62.6  34030  287.38 0855.39
2009/04/23 08:31:28.9     -19     20     32     28     42 316.6  53.3  34030  287.37 0855.39
2009/04/23 08:31:29.0     -18      0     34     19     38 270.0  68.8  34032  287.40 0855.39
2009/04/23 08:31:29.1     -15     -4     31     16     34 254.9  70.8  34032  287.42 0855.39
2009/04/23 08:31:29.2     -13      0     33     14     35 270.0  77.1  34034  287.43 0855.39
2009/04/23 08:31:29.3      -8     -6     31     11     32 230.5  81.2  34036  287.47 0855.39
2009/04/23 08:31:29.4     -11      2     28     12     30 281.5  75.0  34038  287.50 0855.39
2009/04/23 08:31:29.5       7      6     28     10     29  46.9  81.2  34034  287.43 0855.39
2009/04/23 08:31:29.6       5    -15     25     16     29 161.3  64.7  34032  287.42 0855.39
2009/04/23 08:31:29.7       3    -39     17     40     43 175.5  23.0  34032  287.42 0855.39
2009/04/23 08:31:29.8      13    -45     13     48     50 163.1  15.3  34030  287.37 0855.39
2009/04/23 08:31:29.9      19    -59     12     63     65 161.7  11.1  34032  287.40 0855.39
2009/04/23 08:31:30.0       8    -63     29     64     70 172.0  27.1  34030  287.38 0855.39
2009/04/23 08:31:30.1       7    -55     35     56     66 172.0  35.5  34028  287.35 0855.39
2009/04/23 08:31:30.2       8    -47     42     48     63 170.2  46.9  34030  287.38 0855.39
2009/04/23 08:31:30.3       3    -22     41     23     47 170.2  67.7  34032  287.42 0855.39
2009/04/23 08:31:30.4      -4    -27     52     28     59 189.8  68.9  34032  287.40 0855.39
2009/04/23 08:31:30.5     -15    -58     57     61     83 195.2  48.5  34032  287.42 0855.39
2009/04/23 08:31:30.6     -26    -59     37     65     74 204.5  32.4  34032  287.40 0855.39
2009/04/23 08:31:30.7     -34    -58     24     68     73 210.7  19.4  34030  287.38 0855.39
2009/04/23 08:31:30.8     -37    -72     31     81     86 207.2  21.5  34030  287.37 0855.39
2009/04/23 08:31:30.9     -33    -89     33     96    102 200.5  18.9  34028  287.33 0855.39
2009/04/23 08:31:31.0     -31   -117     19    122    124 195.2   9.0  34032  287.42 0855.39
2009/04/23 08:31:31.1     -11   -147     19    148    150 184.4   7.5  34032  287.42 0855.39
2009/04/23 08:31:31.2     -10   -160     -4    161    162 183.8  -1.6  34030  287.37 0855.39
2009/04/23 08:31:31.3     -15   -155     13    156    157 185.8   4.9  34032  287.40 0855.39
2009/04/23 08:31:31.4      -8   -149     14    150    151 183.1   5.4  34030  287.37 0855.39
2009/04/23 08:31:31.5     -11   -150     18    151    153 184.4   7.1  34032  287.42 0855.39
2009/04/23 08:31:31.6      -2   -139     22    140    142 180.9   9.0  34030  287.37 0855.39
2009/04/23 08:31:31.7       3   -137      2    138    139 178.6   1.2  34032  287.40 0855.39
2009/04/23 08:31:31.8       8   -151     -3    152    153 176.9  -1.2  34034  287.43 0855.39
2009/04/23 08:31:31.9      -3   -144      3    145    146 181.4   1.2  34030  287.37 0855.39
2009/04/23 08:31:32.0     -10   -139    -28    140    143 184.5 -11.3  34034  287.43 0855.39
2009/04/23 08:31:32.1       0   -148    -13    149    150 180.0  -5.1  34034  287.45 0855.39
2009/04/23 08:31:32.2      -7   -167      1    168    169 182.5   0.5  34030  287.38 0855.39
2009/04/23 08:31:32.3      -9   -177     -2    178    179 182.9  -0.7  34028  287.35 0855.39
2009/04/23 08:31:32.4     -13   -172      8    173    174 184.5   2.8  34028  287.35 0855.39
2009/04/23 08:31:32.5      -4   -177     -3    178    179 181.6  -1.2  34030  287.37 0855.39
2009/04/23 08:31:32.6      10   -168      5    169    170 176.4   1.8  34032  287.40 0855.39
2009/04/23 08:31:32.7      -2   -173      4    174    175 180.9   1.6  34030  287.38 0855.40
2009/04/23 08:31:32.8      -5   -182     33    183    187 181.6  10.3  34028  287.33 0855.40
2009/04/23 08:31:32.9       0   -164     23    165    167 180.2   8.2  34030  287.37 0855.40
2009/04/23 08:31:33.0      -2   -154     16    155    156 181.0   5.9  34028  287.33 0855.40
2009/04/23 08:31:33.2       8   -183     17    184    185 177.5   5.4  34030  287.37 0855.40
2009/04/23 08:31:33.2      -1   -184     10    185    186 180.5   3.1  34032  287.42 0855.40
2009/04/23 08:31:33.3       9   -174     18    175    177 176.9   6.1  34030  287.38 0855.40
2009/04/23 08:31:33.4      47   -177     21    184    186 165.1   6.7  34032  287.40 0855.40
2009/04/23 08:31:33.5      39   -174     36    179    183 167.3  11.6  34028  287.33 0855.40
2009/04/23 08:31:33.6     -17   -174     32    175    178 185.8  10.6  34032  287.42 0855.40
2009/04/23 08:31:33.7     -33   -162     22    166    168 191.8   7.8  34026  287.32 0855.40
2009/04/23 08:31:33.8     -39   -146      3    152    153 195.1   1.2  34026  287.32 0855.40
2009/04/23 08:31:33.9     -26   -159     24    162    164 189.3   8.5  34028  287.33 0855.40
2009/04/23 08:31:34.0     -23   -164     30    166    169 188.0  10.3  34024  287.28 0855.40
2009/04/23 08:31:34.1     -31   -161     57    165    175 191.1  19.2  34028  287.33 0855.40
2009/04/23 08:31:34.2      -8   -221     88    222    238 182.2  22.8  34038  287.50 0855.40
2009/04/23 08:31:34.3      30   -196     88    199    217 171.3  25.2  34040  287.55 0855.40
2009/04/23 08:31:34.4      29   -206     98    209    230 172.0  27.1  34038  287.52 0855.40
2009/04/23 08:31:34.5      23   -228    110    230    254 174.2  27.3  34042  287.58 0855.40
2009/04/23 08:31:34.6     -18   -183    117    184    218 185.8  35.5  34038  287.52 0855.40
2009/04/23 08:31:34.7     -22   -202    100    204    227 186.2  27.8  34040  287.55 0855.40
2009/04/23 08:31:34.8     -20   -202     74    204    217 185.8  21.0  34040  287.55 0855.40
2009/04/23 08:31:34.9     -69   -243    105    253    273 196.0  23.8  34040  287.55 0855.40
2009/04/23 08:31:35.0     -72   -226     74    238    250 197.8  17.4  34038  287.50 0855.40
2009/04/23 08:31:35.1     -31   -210     78    213    226 188.5  21.0  34038  287.50 0855.40
2009/04/23 08:31:35.2      -2   -233     59    234    242 180.5  14.3  34038  287.50 0855.40
2009/04/23 08:31:35.4     -17   -231     49    232    238 184.4  12.1  34038  287.50 0855.40
2009/04/23 08:31:35.5      -3   -250     78    251    263 180.9  17.3  34040  287.55 0855.40
2009/04/23 08:31:35.6     -21   -278     98    279    295 184.4  20.0  34038  287.50 0855.40
2009/04/23 08:31:35.6     -44   -227     80    232    246 191.1  19.2  34038  287.51 0855.40
2009/04/23 08:31:35.8     -51   -203    123    210    243 194.3  33.1  34036  287.48 0855.40
2009/04/23 08:31:35.8      -8   -189    110    190    219 182.5  32.7  34038  287.52 0855.40
2009/04/23 08:31:36.0     -58   -174     65    184    196 198.5  19.4  34038  287.52 0855.40
2009/04/23 08:31:36.1      -3   -189     24    190    192 181.0   7.2  34034  287.43 0855.40
2009/04/23 08:31:36.2       0   -171     21    172    174 179.8   7.2  34036  287.47 0855.40
2009/04/23 08:31:36.3      33   -126     15    131    132 165.3   6.9  34038  287.50 0855.40
2009/04/23 08:31:36.4      61   -117     77    133    153 152.4  33.4  34034  287.45 0855.40
2009/04/23 08:31:36.5      43   -128    120    136    181 161.3  46.2  34038  287.52 0855.40
2009/04/23 08:31:36.6      97    -97    107    138    174 134.9  41.7  34038  287.52 0855.40
2009/04/23 08:31:36.7     113   -112     71    160    175 134.9  25.7  34038  287.52 0855.40
2009/04/23 08:31:36.8     122   -110     69    165    178 132.2  23.8  34038  287.52 0855.40
2009/04/23 08:31:36.9     159   -138     57    211    219 130.9  15.2  34038  287.50 0855.40
2009/04/23 08:31:37.0     166   -132     76    213    226 128.4  20.2  34038  287.52 0855.40
2009/04/23 08:31:37.1     107   -185     60    215    224 149.9  15.8  34040  287.54 0855.40
2009/04/23 08:31:37.2      82   -230     34    245    248 160.2   8.0  34038  287.50 0855.40
2009/04/23 08:31:37.3      60   -217     35    226    229 164.4   9.0  34038  287.52 0855.40
2009/04/23 08:31:37.4      28   -242     86    244    259 173.3  19.4  34040  287.55 0855.40
2009/04/23 08:31:37.5       0   -290     48    291    296 180.0   9.5  34040  287.53 0855.40
2009/04/23 08:31:37.6      21   -274     42    275    279 175.6   8.8  34038  287.51 0855.40
2009/04/23 08:31:37.7      17   -275     54    276    282 176.4  11.1  34040  287.53 0855.40
2009/04/23 08:31:37.8      57   -252     87    259    274 167.1  18.6  34038  287.50 0855.40
2009/04/23 08:31:37.9     127   -214     94    250    267 149.3  21.7  34038  287.50 0855.40
2009/04/23 08:31:38.0     164   -195     69    255    265 139.9  15.3  34034  287.43 0855.40
2009/04/23 08:31:38.1     127   -155     56    201    209 140.8  15.8  34034  287.43 0855.40
2009/04/23 08:31:38.2      95   -170     23    195    197 150.8   6.9  34036  287.47 0855.40
2009/04/23 08:31:38.3      -8   -212     67    213    224 182.2  17.4  34032  287.40 0855.40
2009/04/23 08:31:38.4      17   -147     82    149    170 173.3  31.0  34038  287.50 0855.40
2009/04/23 08:31:38.5      19   -168     61    170    180 173.3  20.2  34038  287.50 0855.40
2009/04/23 08:31:38.6       0   -147      7    148    149 180.0   2.8  34036  287.49 0855.40
2009/04/23 08:31:38.7      23    -96    -31     99    104 166.2 -17.6  34036  287.49 0855.40
2009/04/23 08:31:38.8       2    -93      3     94     95 178.2   2.3  34038  287.50 0855.40
2009/04/23 08:31:38.9      27   -133     25    136    139 168.4  10.6  34038  287.50 0855.40
2009/04/23 08:31:39.0      31   -131     27    135    138 166.6  11.6  34038  287.50 0855.40
2009/04/23 08:31:39.1      66    -95     40    116    123 145.3  19.2  34036  287.49 0855.40
2009/04/23 08:31:39.2      93   -100     32    137    141 137.2  13.2  34038  287.50 0855.40
2009/04/23 08:31:39.3      79   -101     35    129    134 142.1  15.3  34036  287.49 0855.40
2009/04/23 08:31:39.4      66    -89     21    111    114 143.5  11.1  34038  287.52 0855.40
2009/04/23 08:31:39.5      98    -54     38    112    119 118.9  18.9  34036  287.49 0855.40
2009/04/23 08:31:39.6     112    -74     20    135    137 123.7   8.5  34036  287.47 0855.40
2009/04/23 08:31:39.7     134    -58     21    147    149 113.6   8.5  34032  287.40 0855.40
2009/04/23 08:31:39.8     136    -80     64    159    171 120.6  23.0  34030  287.38 0855.40
2009/04/23 08:31:39.9     127    -77     81    149    169 121.5  30.8  34032  287.42 0855.40
2009/04/23 08:31:40.0      72    -84    107    111    154 139.5  49.4  34036  287.47 0855.40
2009/04/23 08:31:40.1     114    -31    104    119    158 105.5  45.8  34034  287.45 0855.40
2009/04/23 08:31:40.2      84      0     65     85    107  90.0  41.2  34034  287.43 0855.40
2009/04/23 08:31:40.3      44      7     50     45     67  80.3  52.2  34034  287.45 0855.40
2009/04/23 08:31:40.4      28    -23     34     37     50 129.6  46.9  34032  287.42 0855.40
2009/04/23 08:31:40.5      14    -30     32     34     46 154.6  50.0  34034  287.43 0855.40
2009/04/23 08:31:40.6     -13    -39     26     42     49 199.2  35.5  34032  287.40 0855.40
2009/04/23 08:31:40.7      -8    -32     32     34     46 195.1  50.0  34032  287.40 0855.40
2009/04/23 08:31:40.8       7    -32     22     33     39 166.6  36.5  34032  287.42 0855.41
2009/04/23 08:31:40.9      22     -7     15     24     28 108.2  35.5  34032  287.40 0855.41
2009/04/23 08:31:41.0      12     34     -4     37     38  20.0  -7.3  34032  287.40 0855.41
2009/04/23 08:31:41.1      16     35    -17     39     42  25.4 -29.5  34032  287.42 0855.41
2009/04/23 08:31:41.2      31     44    -19     54     58  35.2 -19.7  34034  287.43 0855.41
2009/04/23 08:31:41.3      17     38    -16     42     44  24.5 -25.4  34034  287.43 0855.41
2009/04/23 08:31:41.4      19     31    -22     37     43  32.5 -37.9  34032  287.40 0855.41
2009/04/23 08:31:41.5      22     41    -26     47     53  28.1 -35.8  34032  287.40 0855.41
2009/04/23 08:31:41.6      28     26    -18     39     42  46.9 -30.6  34032  287.42 0855.41
2009/04/23 08:31:41.7      32     24     -1     40     41  53.1  -2.2  34032  287.40 0855.41
2009/04/23 08:31:41.8      33     18     11     38     40  61.1  17.3  34032  287.40 0855.41
2009/04/23 08:31:41.9      31      6     24     32     40  78.5  40.7  34030  287.38 0855.41
2009/04/23 08:31:42.0      33      2     26     34     42  85.6  41.7  34032  287.42 0855.41
2009/04/23 08:31:42.1      20      0     27     21     34  89.2  56.4  34034  287.43 0855.41
2009/04/23 08:31:42.2       7      6     28     10     29  46.9  81.2  34034  287.43 0855.41
2009/04/23 08:31:42.3      26    -16     31     31     43 122.5  50.1  34036  287.47 0855.41
2009/04/23 08:31:42.4      37    -24     28     45     53 123.3  35.5  34034  287.45 0855.41
2009/04/23 08:31:42.5      44    -33     15     56     59 126.9  15.3  34036  287.49 0855.41
2009/04/23 08:31:42.6      18    -54     24     58     62 161.3  23.1  34034  287.45 0855.41
2009/04/23 08:31:42.7      17    -93     65     95    115 169.3  37.6  34036  287.47 0855.41
2009/04/23 08:31:42.8      16   -103     64    105    122 171.1  34.0  34034  287.43 0855.39
2009/04/23 08:31:42.9      -2   -131     99    132    165 180.9  40.7  34034  287.43 0855.39
2009/04/23 08:31:43.0      -8   -149    117    150    190 183.1  42.2  34034  287.43 0855.39
2009/04/23 08:31:43.1     -30   -150    127    154    199 191.5  43.7  34034  287.45 0855.39
2009/04/23 08:31:43.2     -18   -158    123    160    201 186.7  41.6  34034  287.45 0855.39
2009/04/23 08:31:43.3     -35   -148    118    153    193 193.4  41.4  34032  287.40 0855.39
2009/04/23 08:31:43.4     -48   -183     97    190    213 194.7  29.2  34034  287.45 0855.39
2009/04/23 08:31:43.5     -59   -183     87    193    211 197.8  25.9  34034  287.45 0855.39
2009/04/23 08:31:43.6     -59   -183    127    193    231 197.8  36.0  34034  287.45 0855.39
2009/04/23 08:31:43.7     -80   -177    118    195    227 204.5  34.2  34034  287.45 0855.39
2009/04/23 08:31:43.8     -66    -87    143    110    180 217.0  58.7  34032  287.42 0855.39
2009/04/23 08:31:43.9     -59    -14    109     61    124 256.7  68.3  34034  287.43 0855.39
2009/04/23 08:31:44.0     -65     64     78     92    120 314.9  44.8  34032  287.42 0855.39
2009/04/23 08:31:44.1     -29     32     92     44    101 318.6  72.9  34036  287.49 0855.39
2009/04/23 08:31:44.2      -8    -26     95     28     99 198.3  83.3  34036  287.47 0855.39
2009/04/23 08:31:44.3      -9    -70    118     71    137 188.0  66.7  34034  287.45 0855.39
2009/04/23 08:31:44.4     -32      0     88     33     93 269.2  79.7  34036  287.49 0855.39
2009/04/23 08:31:44.5     -23    -23    110     33    114 225.1  82.3  34036  287.47 0855.39
2009/04/23 08:31:44.6      -6    -31     80     32     86 191.6  77.6  34034  287.45 0855.39
2009/04/23 08:31:44.7      11    -54     79     56     96 168.4  61.5  34036  287.47 0855.39
2009/04/23 08:31:44.8      14    -30     72     34     79 154.6  72.9  34036  287.47 0855.39
2009/04/23 08:31:44.9     -28    -55     74     62     96 207.2  55.8  34034  287.43 0855.39
2009/04/23 08:31:45.0      -8    -52     79     53     95 188.9  63.6  34034  287.45 0855.39
2009/04/23 08:31:45.1      11    -41     59     43     73 164.9  60.5  34036  287.49 0855.39
2009/04/23 08:31:45.2       7     15     42     17     45  25.4  77.1  34036  287.49 0855.39
2009/04/23 08:31:45.3       1    -61     58     62     84 179.0  48.5  34038  287.50 0855.39
2009/04/23 08:31:45.4       5    -65     65     66     92 175.6  50.5  34032  287.42 0855.39
2009/04/23 08:31:45.5       0     -7     61      8     61 182.7  90.0  34034  287.43 0855.39
2009/04/23 08:31:45.6       2     27     43     28     51   4.5  64.6  34036  287.49 0855.39
2009/04/23 08:31:45.7      21     21     48     31     57  45.0  64.6  34036  287.47 0855.39
2009/04/23 08:31:45.8      25     28     31     38     49  41.4  43.7  34032  287.42 0855.39
2009/04/23 08:31:45.9       7     40     35     41     53  10.7  45.8  34030  287.37 0855.39
2009/04/23 08:31:46.0      45     45     51     65     82  45.0  42.7  34032  287.40 0855.39
2009/04/23 08:31:46.1      42     50     49     66     82  40.5  40.7  34032  287.42 0855.39
2009/04/23 08:31:46.2      69     47     33     84     90  55.4  22.0  34034  287.43 0855.39
2009/04/23 08:31:46.3      43     43     28     62     68  45.0  26.2  34030  287.38 0855.39
2009/04/23 08:31:46.4      57     28     53     64     83  63.8  44.3  34032  287.42 0855.39
2009/04/23 08:31:46.5      72     38     64     82    104  62.0  42.2  34034  287.45 0855.39
2009/04/23 08:31:46.6     111     10     59    112    126  84.8  29.8  34032  287.42 0855.39
2009/04/23 08:31:46.7      92     34     44     99    108  69.6  25.7  34032  287.40 0855.39
2009/04/23 08:31:46.8      64     17     18     67     70  74.9  15.3  34030  287.38 0855.37
2009/04/23 08:31:46.9      -9      0     38     10     39 270.0  84.9  34032  287.42 0855.37
2009/04/23 08:31:47.0     -86    -50     39    100    107 239.8  22.0  34034  287.43 0855.37
2009/04/23 08:31:47.1    -106    -76     70    131    148 234.0  30.8  34034  287.43 0855.37
2009/04/23 08:31:47.2     -44   -115     85    124    150 200.9  37.6  34036  287.47 0855.37
2009/04/23 08:31:47.3     -21   -102    104    105    147 191.6  50.0  34038  287.50 0855.37
2009/04/23 08:31:47.4     -13   -126     60    127    140 186.2  27.1  34034  287.45 0855.37
2009/04/23 08:31:47.5       0   -117    114    118    164 180.0  49.4  34034  287.45 0855.37
2009/04/23 08:31:47.6      -6   -145     80    146    166 182.7  31.0  34034  287.45 0855.37
2009/04/23 08:31:47.7       1   -114    121    115    166 179.1  51.4  34036  287.47 0855.37
2009/04/23 08:31:47.8      -2    -64     92     65    112 181.8  61.1  34036  287.49 0855.37
2009/04/23 08:31:47.9      -1    -72    108     73    130 180.9  62.7  34036  287.47 0855.37
2009/04/23 08:31:48.0      29      5     73     30     78  80.3  77.1  34036  287.47 0855.37
2009/04/23 08:31:48.1      17    -13     85     22     87 127.8  85.4  34036  287.47 0855.37
2009/04/23 08:31:48.2     -54    -66     75     86    114 219.2  45.8  34036  287.47 0855.37
2009/04/23 08:31:48.3     -19    -71     83     74    111 195.1  53.7  34034  287.43 0855.37
2009/04/23 08:31:48.4       0    -85     74     86    113 180.0  45.4  34034  287.43 0855.37
2009/04/23 08:31:48.5       6    -72     42     73     84 174.7  32.9  34034  287.43 0855.37
2009/04/23 08:31:48.6     -13    -62     34     64     72 192.5  30.3  34034  287.43 0855.37
2009/04/23 08:31:48.7     -38    -59     36     71     79 212.6  28.7  34034  287.45 0855.37
2009/04/23 08:31:48.8     -39    -43     20     59     63 222.3  19.4  34034  287.43 0855.37
2009/04/23 08:31:48.9     -35    -49     10     61     62 216.1  10.1  34032  287.42 0855.37
2009/04/23 08:31:49.0     -22    -46     25     52     57 205.5  27.2  34034  287.43 0855.37
2009/04/23 08:31:49.1     -31    -44     15     55     58 215.2  15.3  34034  287.43 0855.37
2009/04/23 08:31:49.2     -40    -32     -7     52     53 231.4  -8.2  34034  287.43 0855.37
2009/04/23 08:31:49.3      -2    -13    -10     14     17 191.6 -44.1  34034  287.43 0855.37
2009/04/23 08:31:49.4     -22      0    -15     23     27 270.0 -40.0  34034  287.45 0855.37
2009/04/23 08:31:49.5      -9      7    -15     12     19 306.0 -60.8  34034  287.43 0855.37
2009/04/23 08:31:49.6       5     -4     -6      7      9 129.5 -56.4  34034  287.43 0855.37
2009/04/23 08:31:49.7      13      1      7     14     15  82.1  27.2  34034  287.43 0855.37
2009/04/23 08:31:49.8      20     12      0     24     25  57.5   0.8  34034  287.43 0855.37
2009/04/23 08:31:49.9      25     22      4     34     35  48.7   6.9  34034  287.43 0855.37
2009/04/23 08:31:50.0      29     20      1     36     37  55.8   2.9  34034  287.45 0855.37
2009/04/23 08:31:50.1      25     22      4     34     35  48.7   6.9  34034  287.43 0855.37
2009/04/23 08:31:50.2      22     33     15     40     42  34.3  21.0  34034  287.43 0855.37
2009/04/23 08:31:50.3      12     15     19     20     27  39.6  52.0  34034  287.45 0855.37
2009/04/23 08:31:50.4      21     13     15     26     30  57.5  33.5  34034  287.45 0855.37
2009/04/23 08:31:50.5      34     18     10     39     41  61.1  15.3  34034  287.43 0855.37
2009/04/23 08:31:50.6      28     13     11     32     34  64.7  19.4  34034  287.43 0855.37
2009/04/23 08:31:50.7      29     -5     10     30     32 101.4  19.2  34034  287.45 0855.37
2009/04/23 08:31:50.8      16      0     17     17     24  90.0  50.1  34032  287.42 0855.37
2009/04/23 08:31:50.9      15     -4      9     16     18 105.1  31.4  34036  287.47 0855.37
2009/04/23 08:31:51.0      22    -14      1     27     28 122.5   2.8  34034  287.43 0855.37
2009/04/23 08:31:51.1       0    -40     24     41     47 179.1  33.5  34034  287.45 0855.37
2009/04/23 08:31:51.2      -5    -48     27     49     55 186.2  32.4  34034  287.43 0855.37
2009/04/23 08:31:51.3      14    -43     22     46     51 161.7  27.2  34032  287.42 0855.37
2009/04/23 08:31:51.4      21    -37     24     43     49 150.1  31.4  34034  287.45 0855.37
2009/04/23 08:31:51.5      17    -22      9     28     30 142.2  18.9  34034  287.43 0855.37
2009/04/23 08:31:51.6      14     -6     -4     16     17 115.3 -15.5  34034  287.43 0855.37
2009/04/23 08:31:51.7      63      0     -8     64     65  90.0  -7.2  34032  287.42 0855.37
2009/04/23 08:31:51.8      65    -13     -8     67     68 101.5  -7.3  34032  287.42 0855.37
2009/04/23 08:31:51.9      53      4      2     54     55  85.6   2.9  34034  287.43 0855.37
2009/04/23 08:31:52.0      35    -38     30     52     60 137.7  32.4  34034  287.43 0855.37
2009/04/23 08:31:52.1      45    -40     24     61     65 131.3  23.0  34034  287.43 0855.37
2009/04/23 08:31:52.2      38    -38     29     54     61 135.0  31.3  34034  287.45 0855.37
2009/04/23 08:31:52.3      29    -30      7     43     44 135.9  10.1  34032  287.42 0855.37
2009/04/23 08:31:52.4      34    -22     12     41     43 122.5  17.3  34036  287.49 0855.37
2009/04/23 08:31:52.5      22    -22     22     32     38 135.0  37.6  34036  287.47 0855.37
2009/04/23 08:31:52.6      27    -39     19     48     51 145.7  22.0  34034  287.45 0855.37
2009/04/23 08:31:52.7      11    -54     28     56     62 168.4  28.2  34032  287.42 0855.37
2009/04/23 08:31:52.8      30    -38     86     49     98 142.2  68.3  34032  287.40 0855.37
2009/04/23 08:31:52.9      11    -79    114     80    139 171.9  61.1  34034  287.43 0855.37
2009/04/23 08:31:53.0      35    -63     95     73    119 151.0  58.5  34030  287.38 0855.37
2009/04/23 08:31:53.1      59    -42     74     73    103 126.0  49.7  34034  287.43 0855.37
2009/04/23 08:31:53.2      79    -52     79     95    123 123.3  44.3  34032  287.42 0855.37
2009/04/23 08:31:53.3      20    -77     65     80    103 164.9  43.7  34030  287.38 0855.37
2009/04/23 08:31:53.4       8   -113     71    114    134 175.5  35.5  34032  287.42 0855.37
2009/04/23 08:31:53.5      18   -112     59    114    128 170.7  29.2  34034  287.43 0855.37
2009/04/23 08:31:53.6      24   -137     69    140    156 169.8  27.3  34034  287.45 0855.37
2009/04/23 08:31:53.7      22    -96     12     99    100 166.6   7.1  34034  287.45 0855.37
2009/04/23 08:31:53.8      21    -95     -2     98     99 167.5  -1.3  34034  287.43 0855.37
2009/04/23 08:31:53.9      43   -103     32    112    117 157.3  16.3  34038  287.50 0855.37
2009/04/23 08:31:54.0      82   -166     12    186    187 153.7   3.8  34034  287.43 0855.37
2009/04/23 08:31:54.1     112   -112     73    159    174 135.0  26.6  34030  287.38 0855.37
2009/04/23 08:31:54.2     105   -101     60    146    157 134.0  23.6  34032  287.40 0855.37
2009/04/23 08:31:54.3     131    -47     84    140    163 109.9  34.0  34032  287.42 0855.37
2009/04/23 08:31:54.4     122    -36     84    128    153 106.8  35.6  34032  287.42 0855.37
2009/04/23 08:31:54.5      98    -32     81    104    131 108.4  41.7  34030  287.38 0855.37
2009/04/23 08:31:54.6      76    -25     82     81    115 108.6  49.1  34030  287.38 0855.37
2009/04/23 08:31:54.7      58      0     84     59    102  90.0  61.1  34030  287.37 0855.37
2009/04/23 08:31:54.8      64      3     82     65    104  86.5  57.5  34032  287.42 0855.37
2009/04/23 08:31:54.9      16    -22     65     28     70 143.9  75.0  34034  287.43 0855.37
2009/04/23 08:31:55.0      23   -111     88    114    144 168.0  41.7  34030  287.38 0855.37
2009/04/23 08:31:55.1      15   -128     98    129    162 172.9  41.2  34032  287.42 0855.37
2009/04/23 08:31:55.2      21   -106    112    109    156 168.9  50.2  34036  287.47 0855.37
2009/04/23 08:31:55.3      48    -58     87     76    115 140.4  54.8  34034  287.45 0855.37
2009/04/23 08:31:55.4       7    -69    113     70    132 173.8  64.7  34034  287.43 0855.37
2009/04/23 08:31:55.5      -1   -129    102    130    165 180.8  42.2  34034  287.45 0855.37
2009/04/23 08:31:55.6      63   -106    105    124    162 149.2  44.8  34034  287.45 0855.37
2009/04/23 08:31:55.7      69    -60     90     92    128 131.3  50.0  34036  287.47 0855.37
2009/04/23 08:31:55.8      19    -23     50     30     58 140.4  64.7  34034  287.43 0855.38
2009/04/23 08:31:55.9      46    -14     57     49     75 107.7  55.4  34036  287.47 0855.38
2009/04/23 08:31:56.0      96    -27     49    100    111 105.9  27.3  34036  287.49 0855.38
2009/04/23 08:31:56.1     105    -33     55    111    123 107.3  28.7  34034  287.43 0855.38
2009/04/23 08:31:56.2      59    -28     62     66     90 115.3  48.5  34032  287.42 0855.38
2009/04/23 08:31:56.3      70    -38     71     80    106 118.8  46.9  34032  287.42 0855.38
2009/04/23 08:31:56.4     101     -6     50    102    113  93.9  27.8  34034  287.43 0855.38
2009/04/23 08:31:56.5      89    -17     39     91     99 101.4  24.1  34032  287.42 0855.38
2009/04/23 08:31:56.6      81     -6     59     82    101  94.8  39.5  34034  287.43 0855.38
2009/04/23 08:31:56.7      87    -42     99     97    138 116.2  50.2  34034  287.43 0855.38
2009/04/23 08:31:56.8     124    -15      1    125    126  97.0   0.8  34034  287.45 0855.38
2009/04/23 08:31:56.9     120    -72    -46    141    148 121.1 -23.8  34034  287.45 0855.38
2009/04/23 08:31:57.0     120    -48    -41    130    137 111.8 -17.6  34034  287.45 0855.38
2009/04/23 08:31:57.1      97    -59    -14    114    115 121.5  -7.3  34034  287.43 0855.38
2009/04/23 08:31:57.2     107    -26     14    111    112 103.7   7.5  34034  287.43 0855.38
2009/04/23 08:31:57.3     109    -22     35    112    118 101.5  17.3  34036  287.47 0855.38
2009/04/23 08:31:57.4      99     -7      5    100    101  94.4   3.3  34034  287.43 0855.38
2009/04/23 08:31:57.5      88      6    -12     89     90  85.6  -8.2  34034  287.45 0855.38
2009/04/23 08:31:57.6      92    -51      5    106    107 119.3   2.9  34034  287.43 0855.38
2009/04/23 08:31:57.7     108    -51     28    120    124 115.2  13.2  34036  287.47 0855.38
2009/04/23 08:31:57.8     102    -39     21    110    113 111.3  11.0  34034  287.45 0855.38
2009/04/23 08:31:57.9     109    -25     35    113    119 103.3  17.3  34034  287.45 0855.38
2009/04/23 08:31:58.0     121    -13     31    122    126  96.6  14.3  34034  287.43 0855.38
2009/04/23 08:31:58.1     150    -67     20    165    167 114.0   7.2  34034  287.43 0855.38
2009/04/23 08:31:58.2     155    -77     39    174    179 116.4  12.9  34034  287.43 0855.38
2009/04/23 08:31:58.3     129   -100     30    164    167 127.8  10.6  34034  287.43 0855.38
2009/04/23 08:31:58.4      88   -125     62    154    166 144.8  23.4  34032  287.42 0855.38
2009/04/23 08:31:58.5     138   -138     -2    196    197 135.0  -0.7  34036  287.47 0855.38
2009/04/23 08:31:58.6     125   -121    -12    175    176 134.0  -4.1  34032  287.42 0855.38
2009/04/23 08:31:58.7      80   -162     -4    181    182 153.5  -1.3  34034  287.43 0855.38
2009/04/23 08:31:58.8      81   -188     63    205    215 156.6  17.1  34032  287.42 0855.38
2009/04/23 08:31:58.9      81   -176     90    194    213 155.3  27.0  34038  287.50 0855.38
2009/04/23 08:31:59.0      89   -174     50    196    203 152.8  14.5  34036  287.47 0855.38
2009/04/23 08:31:59.1     110   -176     45    208    213 147.9  12.4  34038  287.50 0855.38
2009/04/23 08:31:59.2     104   -179     34    208    211 149.9   9.3  34036  287.47 0855.38
2009/04/23 08:31:59.3      88   -201     48    220    226 156.4  12.4  34034  287.45 0855.38
2009/04/23 08:31:59.4      97   -208      8    230    231 155.1   2.1  34036  287.49 0855.38
2009/04/23 08:31:59.5      93   -158    -17    184    185 149.5  -5.4  34036  287.47 0855.38
2009/04/23 08:31:59.6      49   -166     47    174    181 163.5  15.2  34038  287.50 0855.38
2009/04/23 08:31:59.7      44   -151     72    158    173 163.5  26.4  34038  287.52 0855.38
2009/04/23 08:31:59.8      32   -163     87    167    188 168.7  29.8  34038  287.50 0855.38
2009/04/23 08:31:59.9      68   -169     86    183    202 157.9  27.0  34038  287.52 0855.38
2009/04/23 08:32:00.0      82   -197     65    214    224 157.3  17.1  34038  287.50 0855.38
2009/04/23 08:32:00.1      68   -175     68    188    199 158.6  20.7  34038  287.50 0855.38
2009/04/23 08:32:00.2      76   -165     54    182    190 155.1  16.6  34040  287.55 0855.38
2009/04/23 08:32:00.3      89   -149     48    174    181 149.0  15.6  34040  287.54 0855.38
2009/04/23 08:32:00.4      96   -178     55    203    211 151.5  15.2  34040  287.54 0855.38
2009/04/23 08:32:00.5      80   -126     -4    150    151 147.5  -1.8  34036  287.47 0855.38
2009/04/23 08:32:00.6      84   -121     -5    148    149 145.3  -2.2  34038  287.50 0855.38
2009/04/23 08:32:00.7      53    -97     38    111    118 151.0  18.9  34038  287.50 0855.38
2009/04/23 08:32:00.8       6    -95     58     96    112 176.4  34.4  34036  287.49 0855.38
2009/04/23 08:32:00.9       9   -118     63    119    134 175.6  30.3  34038  287.52 0855.38
2009/04/23 08:32:01.0       2   -131     67    132    148 179.1  28.7  34038  287.50 0855.38
2009/04/23 08:32:01.1      28   -177     87    180    199 170.9  27.4  34040  287.55 0855.38
2009/04/23 08:32:01.2      14   -155    153    156    218 174.7  49.8  34040  287.55 0855.38
2009/04/23 08:32:01.3      36   -188    112    192    222 168.9  33.1  34042  287.57 0855.38
2009/04/23 08:32:01.4      53   -265    114    271    294 168.5  24.1  34044  287.61 0855.38
2009/04/23 08:32:01.5      77   -245    132    258    289 162.4  29.2  34042  287.58 0855.38
2009/04/23 08:32:01.6      88   -256    126    271    298 160.9  27.0  34042  287.56 0855.38
2009/04/23 08:32:01.7      40   -286    124    289    314 171.9  24.8  34042  287.58 0855.38
2009/04/23 08:32:01.8      88   -237    112    254    277 159.5  25.2  34040  287.55 0855.38
2009/04/23 08:32:01.9      92   -183    144    205    250 153.3  38.6  34040  287.55 0855.38
2009/04/23 08:32:02.1      49   -231    146    237    278 168.0  34.4  34038  287.50 0855.38
2009/04/23 08:32:02.1      12   -136    176    137    223 174.7  58.5  34038  287.50 0855.38
2009/04/23 08:32:02.3     -17   -184    191    185    265 185.6  51.2  34040  287.55 0855.38
2009/04/23 08:32:02.4      67    -74    170    101    197 137.7  66.8  34032  287.40 0855.38
2009/04/23 08:32:02.5     235   -100    163    256    303 113.1  35.5  34038  287.50 0855.38
2009/04/23 08:32:02.6     217   -128    135    253    286 120.6  30.3  34038  287.50 0855.38
2009/04/23 08:32:02.7     160    -95    164    187    248 120.7  45.8  34034  287.45 0855.38
2009/04/23 08:32:02.8     178   -167    138    245    281 133.1  31.9  34038  287.50 0855.38
2009/04/23 08:32:02.9     256   -149    115    297    318 120.2  22.3  34038  287.50 0855.38
2009/04/23 08:32:03.0     216   -120     85    248    263 119.1  18.9  34038  287.50 0855.38
2009/04/23 08:32:03.1     171    -94     83    196    212 118.9  24.3  34040  287.54 0855.38
2009/04/23 08:32:03.2     177    -85     38    197    201 115.8  11.1  34036  287.49 0855.38
2009/04/23 08:32:03.3     197    -23     28    199    202  96.8   8.0  34034  287.43 0855.38
2009/04/23 08:32:03.4     168    -16     -6    169    170  95.7  -2.2  34036  287.49 0855.38
2009/04/23 08:32:03.5     159    -54    -69    168    181 108.8 -27.8  34034  287.45 0855.38
2009/04/23 08:32:03.6     160    -66    -95    174    198 112.4 -35.4  34036  287.49 0855.38
2009/04/23 08:32:03.7     204    -79    -44    219    224 111.3 -11.5  34034  287.45 0855.38
2009/04/23 08:32:03.8     217   -105    -78    242    254 115.8 -23.0  34036  287.48 0855.38
2009/04/23 08:32:03.9     184   -125   -101    223    244 124.2 -30.6  34038  287.50 0855.38
2009/04/23 08:32:04.0     194   -123    -69    230    241 122.4 -16.8  34032  287.41 0855.38
2009/04/23 08:32:04.1     191   -127    -79    230    244 123.7 -19.1  34032  287.41 0855.38
2009/04/23 08:32:04.2     225   -137    -74    264    274 121.3 -20.4  34036  287.46 0855.38
2009/04/23 08:32:04.3     204   -119    -77    237    250 120.2 -18.1  34036  287.48 0855.38
2009/04/23 08:32:04.4     237    -88    -53    253    259 110.4 -11.9  34034  287.44 0855.38
2009/04/23 08:32:04.5     244    -61    -36    252    255 104.2  -8.3  34036  287.48 0855.38
2009/04/23 08:32:04.6     217    -64    -37    227    231 106.6  -9.3  34034  287.45 0855.38
2009/04/23 08:32:04.7     213    -78    -19    227    228 110.2  -4.9  34034  287.43 0855.38
2009/04/23 08:32:04.8     192    -91     -8    213    214 115.4  -2.3  34036  287.47 0855.38
2009/04/23 08:32:04.9     199   -101     -7    224    225 117.0  -1.8  34034  287.43 0855.38
2009/04/23 08:32:05.0     148   -104    -10    182    183 125.1  -3.3  34032  287.42 0855.38
2009/04/23 08:32:05.1     130   -110     17    171    172 130.2   5.7  34032  287.42 0855.38
2009/04/23 08:32:05.2     116   -140     20    183    185 140.4   6.5  34032  287.42 0855.38
2009/04/23 08:32:05.3     130   -157    -74    205    217 140.3 -25.1  34034  287.45 0855.38
2009/04/23 08:32:05.4     145   -159    -12    216    217 137.7  -3.2  34034  287.43 0855.38
2009/04/23 08:32:05.5     179   -190     -5    262    263 136.8  -1.3  34036  287.48 0855.38
2009/04/23 08:32:05.6     185   -186     25    263    265 135.2   5.4  34042  287.56 0855.38
2009/04/23 08:32:05.7     204   -180    -29    273    275 131.4  -6.2  34040  287.53 0855.38
2009/04/23 08:32:05.8     199   -221    -21    298    299 137.9  -4.1  34040  287.53 0855.38
2009/04/23 08:32:05.9     205   -218     -3    300    301 136.7  -0.7  34040  287.53 0855.38
2009/04/23 08:32:06.0     205   -186     39    278    281 132.2   8.0  34034  287.43 0855.38
2009/04/23 08:32:06.1      83   -171     97    191    214 154.1  29.2  34034  287.45 0855.38
2009/04/23 08:32:06.2     173   -132     93    218    237 127.3  24.3  34036  287.49 0855.38
2009/04/23 08:32:06.3     102   -209     92    233    250 153.9  22.8  34040  287.53 0855.38
2009/04/23 08:32:06.4       0   -255    140    256    291 180.2  31.3  34040  287.53 0855.38
2009/04/23 08:32:06.5     -35   -255     81    258    271 187.8  17.4  34038  287.51 0855.38
2009/04/23 08:32:06.6     -39   -237     85    241    256 189.3  19.4  34038  287.50 0855.38
2009/04/23 08:32:06.7     -76   -230    -48    243    248 198.3 -11.3  34036  287.46 0855.38
2009/04/23 08:32:06.8     -87   -238    -45    254    259 200.1 -10.1  34038  287.51 0855.38
2009/04/23 08:32:06.9     -77   -279      4    290    291 195.4   0.8  34030  287.38 0855.38
2009/04/23 08:32:07.0     -97   -282    -32    299    301 199.1  -6.2  34032  287.41 0855.38
2009/04/23 08:32:07.1     -71   -241    -80    252    265 196.5 -17.6  34034  287.44 0855.38
2009/04/23 08:32:07.2     -89   -199    -75    219    231 204.1 -23.3  34032  287.40 0855.38
2009/04/23 08:32:07.3     -70   -213    -62    225    233 198.3 -20.0  34032  287.42 0855.38
2009/04/23 08:32:07.4    -132   -195    -30    236    238 214.3  -7.5  34032  287.39 0855.38
2009/04/23 08:32:07.5    -148   -249   -115    290    311 210.8 -27.1  34030  287.38 0855.38
2009/04/23 08:32:07.6    -193   -276    -65    337    344 215.0 -11.0  34030  287.37 0855.38
2009/04/23 08:32:07.7    -263   -250   -130    363    386 226.5 -19.8  34036  287.47 0855.38
2009/04/23 08:32:07.8    -247   -228   -120    337    358 227.2 -19.7  34032  287.42 0855.38
2009/04/23 08:32:07.9    -321   -297    -72    438    444 227.2  -9.3  34030  287.36 0855.38
2009/04/23 08:32:08.0    -312   -197    -21    370    371 237.7  -3.3  34032  287.40 0855.38
2009/04/23 08:32:08.1    -249   -150     24    291    293 238.9   4.9  34034  287.43 0855.38
2009/04/23 08:32:08.2    -160   -116     31    198    201 234.1   8.9  34032  287.42 0855.38
2009/04/23 08:32:08.3    -151   -183    -22    238    240 219.6  -5.4  34034  287.43 0855.38
2009/04/23 08:32:08.4    -191   -224    -50    295    300 220.5  -9.6  34030  287.38 0855.38
2009/04/23 08:32:08.5    -172   -161    -34    236    239 226.9  -8.3  34036  287.46 0855.38
2009/04/23 08:32:08.6    -118   -229    -18    258    259 207.4  -4.1  34034  287.43 0855.38
2009/04/23 08:32:08.7     -81   -242    -14    256    257 198.5  -3.1  34034  287.43 0855.38
2009/04/23 08:32:08.8     -94   -247    -28    265    267 201.0  -6.2  34034  287.43 0855.38
2009/04/23 08:32:08.9     -76   -315     10    325    326 193.6   1.8  34032  287.41 0855.38
2009/04/23 08:32:09.0      -6   -333    -42    334    337 181.2  -7.3  34034  287.45 0855.38
2009/04/23 08:32:09.1      31   -318    -38    320    323 174.4  -6.8  34038  287.50 0855.38
2009/04/23 08:32:09.2      61   -301    -71    308    317 168.4 -13.1  34036  287.48 0855.38
2009/04/23 08:32:09.3      59   -291   -102    297    315 168.5 -19.1  34034  287.44 0855.38
2009/04/23 08:32:09.4       0   -265    -94    266    283 180.0 -19.4  34034  287.44 0855.38
2009/04/23 08:32:09.5     -59   -326    -65    332    339 190.3 -11.1  34038  287.51 0855.38
2009/04/23 08:32:09.6    -100   -351   -111    365    382 195.9 -16.9  34042  287.56 0855.38
2009/04/23 08:32:09.7    -114   -307   -112    328    347 200.5 -18.9  34040  287.54 0855.38
2009/04/23 08:32:09.8    -110   -263    -97    286    302 202.8 -23.3  34040  287.55 0855.38
2009/04/23 08:32:09.9    -153   -322   -122    357    378 205.5 -18.9  34034  287.45 0855.38
2009/04/23 08:32:10.0    -103   -283   -114    302    322 200.1 -26.1  34038  287.50 0855.38
2009/04/23 08:32:10.1    -155   -325   -137    361    386 205.5 -26.2  34036  287.47 0855.38
2009/04/23 08:32:10.2    -138   -303   -178    333    377 204.5 -34.9  34034  287.44 0855.38
2009/04/23 08:32:10.3    -171   -393   -152    429    456 203.6 -19.6  34036  287.48 0855.38
2009/04/23 08:32:10.4    -220   -295   -122    369    389 216.7 -18.3  34034  287.44 0855.38
2009/04/23 08:32:10.5    -216   -293    -47    365    368 216.4  -7.4  34032  287.42 0855.38
2009/04/23 08:32:10.6    -229   -310    -21    386    387 216.5  -3.1  34036  287.47 0855.38
2009/04/23 08:32:10.7    -191   -237     16    305    306 218.8   3.1  34036  287.48 0855.38
2009/04/23 08:32:10.8    -191   -238     40    306    309 218.7   7.6  34038  287.51 0855.38
2009/04/23 08:32:10.9    -128   -227     60    261    268 209.4  13.1  34040  287.53 0855.38
2009/04/23 08:32:11.0     -86   -301    -88    314    326 196.0 -20.3  34040  287.53 0855.38
2009/04/23 08:32:11.1    -162   -206   -109    263    284 218.1 -28.5  34034  287.43 0855.38
2009/04/23 08:32:11.2     -92   -267   -146    283    318 199.2 -33.8  34038  287.51 0855.38
2009/04/23 08:32:11.3     -92   -272    -97    288    303 198.7 -23.3  34038  287.50 0855.38
2009/04/23 08:32:11.4     -96   -251   -105    269    288 200.9 -26.7  34038  287.50 0855.38
2009/04/23 08:32:11.5    -117   -238    -74    266    277 206.3 -15.5  34038  287.50 0855.38
2009/04/23 08:32:11.6     -57   -259    -58    266    273 192.5 -12.4  34040  287.55 0855.38
2009/04/23 08:32:11.7     -16   -236    -67    237    246 184.0 -20.7  34038  287.51 0855.38
2009/04/23 08:32:11.8     -29   -208    -84    211    227 188.0 -27.4  34038  287.52 0855.38
2009/04/23 08:32:11.9     -17   -228    -73    229    240 184.4 -22.9  34040  287.53 0855.38
2009/04/23 08:32:12.0      16   -221    -83    222    237 175.8 -25.9  34038  287.52 0855.38
2009/04/23 08:32:12.1     101   -262    -91    282    296 158.8 -23.0  34038  287.51 0855.38
2009/04/23 08:32:12.2     113   -233    -95    259    275 154.1 -25.4  34040  287.53 0855.38
2009/04/23 08:32:12.3     117   -230    -77    259    270 152.9 -21.7  34040  287.55 0855.38
2009/04/23 08:32:12.4      55   -212   -149    220    265 165.3 -41.7  34040  287.55 0855.38
2009/04/23 08:32:12.5      78   -243   -123    256    284 162.2 -31.7  34038  287.51 0855.38
2009/04/23 08:32:12.6      43   -309    -86    313    325 172.0 -15.4  34038  287.51 0855.38
2009/04/23 08:32:12.7      84   -302   -113    314    334 164.3 -19.8  34038  287.50 0855.38
2009/04/23 08:32:12.8     172   -270    -30    321    323 147.5  -5.5  34036  287.48 0855.38
2009/04/23 08:32:12.9     119   -246    -56    274    280 154.1 -11.6  34038  287.51 0855.38
2009/04/23 08:32:13.0     120   -227    -56    257    264 152.1 -12.4  34040  287.55 0855.38
2009/04/23 08:32:13.1     107   -241    -53    264    270 155.9 -11.5  34038  287.51 0855.38
2009/04/23 08:32:13.2      82   -230    -43    245    249 160.4 -10.1  34036  287.48 0855.38
2009/04/23 08:32:13.3      48   -285     54    290    295 170.3  10.6  34038  287.51 0855.38
2009/04/23 08:32:13.4      45   -270     70    274    283 170.4  14.5  34040  287.55 0855.38
2009/04/23 08:32:13.5      77   -361     46    370    373 167.9   7.1  34040  287.54 0855.38
2009/04/23 08:32:13.6      75   -391     11    399    400 169.1   1.6  34038  287.51 0855.38
2009/04/23 08:32:13.7      62   -352    -14    358    359 169.9  -2.2  34042  287.57 0855.38
2009/04/23 08:32:13.8      79   -322      9    332    333 166.1   1.6  34040  287.54 0855.38
2009/04/23 08:32:13.9      75   -294      5    304    305 165.7   1.0  34040  287.53 0855.38
2009/04/23 08:32:14.0      45   -262     -5    266    267 170.2  -1.3  34040  287.53 0855.38
2009/04/23 08:32:14.1      80   -322    -42    332    335 166.0  -7.3  34038  287.51 0855.38
2009/04/23 08:32:14.2      95   -342    -70    356    363 164.4 -11.2  34038  287.51 0855.38
2009/04/23 08:32:14.3      40   -346    -58    349    354 173.3  -9.5  34042  287.56 0855.38
2009/04/23 08:32:14.4      24   -317    -61    318    324 175.7 -10.9  34038  287.51 0855.38
2009/04/23 08:32:14.5      13   -282    -25    283    285 177.3  -5.1  34040  287.53 0855.38
2009/04/23 08:32:14.6     -12   -266    -38    267    270 182.7  -8.2  34040  287.53 0855.38
2009/04/23 08:32:14.7     -27   -292      2    294    295 185.4   0.5  34040  287.53 0855.38
2009/04/23 08:32:14.8      -2   -334    -45    335    339 180.5  -7.7  34036  287.49 0855.38
2009/04/23 08:32:14.9     -31   -337    -42    339    342 185.3  -7.2  34032  287.39 0855.39
2009/04/23 08:32:15.0    -111   -436   -132    450    470 194.3 -16.4  34034  287.43 0855.39
2009/04/23 08:32:15.1     -43   -468     -4    471    472 185.4  -0.5  34036  287.49 0855.39
2009/04/23 08:32:15.2     -77   -403    -59    411    416 190.9  -8.3  34034  287.43 0855.39
2009/04/23 08:32:15.3    -115   -377    -15    395    396 197.0  -2.2  34032  287.39 0855.39
2009/04/23 08:32:15.4    -190   -403   -119    446    462 205.3 -15.1  34036  287.46 0855.39
2009/04/23 08:32:15.5    -145   -439    -35    463    465 198.3  -4.4  34030  287.38 0855.39
2009/04/23 08:32:15.6    -131   -406    -82    427    435 197.9 -10.9  34036  287.46 0855.39
2009/04/23 08:32:15.7    -250   -478    -89    540    548 207.7  -9.4  34034  287.43 0855.39
2009/04/23 08:32:15.8    -166   -436    -86    467    475 200.9 -10.5  34036  287.47 0855.39
2009/04/23 08:32:15.9    -244   -398   -120    467    483 211.5 -14.4  34042  287.56 0855.39
2009/04/23 08:32:16.0    -208   -359   -131    416    436 210.1 -22.5  34038  287.52 0855.39
2009/04/23 08:32:16.1    -229   -358   -125    426    444 212.6 -16.4  34036  287.48 0855.39
2009/04/23 08:32:16.2    -193   -342   -116    393    409 209.4 -21.2  34036  287.46 0855.39
2009/04/23 08:32:16.3    -226   -311    -99    385    398 216.0 -14.5  34034  287.44 0855.39
2009/04/23 08:32:16.4    -155   -344    -94    378    390 204.3 -14.1  34038  287.52 0855.39
2009/04/23 08:32:16.5    -134   -294    -98    324    338 204.5 -21.7  34038  287.51 0855.39
2009/04/23 08:32:16.6    -174   -273   -102    324    340 212.5 -17.6  34036  287.49 0855.39
2009/04/23 08:32:16.7    -155   -308   -133    346    370 206.8 -26.4  34040  287.54 0855.39
2009/04/23 08:32:16.8    -168   -333    -61    374    380 206.8  -9.4  34038  287.51 0855.39
2009/04/23 08:32:16.9    -216   -294   -116    366    384 216.3 -17.6  34034  287.45 0855.38
2009/04/23 08:32:17.0    -215   -313    -60    380    385 214.5  -9.1  34042  287.56 0855.38
2009/04/23 08:32:17.1    -166   -357    -75    394    402 204.9 -10.8  34034  287.45 0855.38
2009/04/23 08:32:17.2    -222   -418    -39    474    476 208.0  -4.8  34034  287.44 0855.38
2009/04/23 08:32:17.3    -279   -270    -46    389    392 225.9  -6.8  34036  287.49 0855.38
2009/04/23 08:32:17.4    -265   -325    -18    420    421 219.2  -2.5  34036  287.46 0855.38
2009/04/23 08:32:17.5    -272   -341     -4    437    438 218.5  -0.6  34042  287.58 0855.38
2009/04/23 08:32:17.6    -319   -344      2    470    471 222.8   0.3  34042  287.56 0855.38
2009/04/23 08:32:17.7    -306   -369     29    480    481 219.6   3.5  34042  287.59 0855.38
2009/04/23 08:32:17.8    -193   -316    104    371    386 211.5  15.7  34038  287.52 0855.38
2009/04/23 08:32:17.9    -247   -314     48    400    403 218.3   6.9  34042  287.57 0855.38
2009/04/23 08:32:18.0    -191   -318     58    372    377 211.0   8.9  34040  287.54 0855.38
2009/04/23 08:32:18.1    -136   -326     68    354    361 202.7  11.0  34038  287.51 0855.38
2009/04/23 08:32:18.2    -118   -346    112    366    383 198.9  17.0  34038  287.51 0855.38
2009/04/23 08:32:18.3    -111   -471    177    484    515 193.3  21.0  34042  287.56 0855.38
2009/04/23 08:32:18.4     -52   -346    198    350    402 188.7  32.0  34040  287.54 0855.38
2009/04/23 08:32:18.5       0   -307     40    308    311 180.0   7.5  34040  287.55 0855.38
2009/04/23 08:32:18.6     -30   -374    -15    376    377 184.7  -2.3  34042  287.56 0855.38
2009/04/23 08:32:18.7      -1   -411     -1    412    413 180.2  -0.3  34038  287.50 0855.38
2009/04/23 08:32:18.8      16   -451     -9    452    453 177.9  -1.3  34042  287.57 0855.38
2009/04/23 08:32:18.9     112   -491    -19    504    505 167.1  -2.2  34040  287.54 0855.38
2009/04/23 08:32:19.0     165   -441      5    472    473 159.4   0.7  34040  287.54 0855.38
2009/04/23 08:32:19.1     181   -436     35    473    475 157.4   4.2  34046  287.63 0855.38
2009/04/23 08:32:19.2     147   -413     29    439    440 160.4   3.8  34046  287.63 0855.38
2009/04/23 08:32:19.3     139   -378     67    403    409 159.8   9.5  34044  287.62 0855.38
2009/04/23 08:32:19.4     180   -358      1    401    402 153.3   0.2  34044  287.61 0855.38
2009/04/23 08:32:19.5     149   -365     69    395    402 157.7  10.0  34042  287.59 0855.38
2009/04/23 08:32:19.6     137   -342     63    369    375 158.1   9.7  34044  287.61 0855.38
2009/04/23 08:32:19.7     126   -232     47    264    269 151.5  10.1  34044  287.60 0855.38
2009/04/23 08:32:19.8      67   -250    -54    260    266 164.9 -11.9  34040  287.53 0855.38
2009/04/23 08:32:19.9      93   -196    -60    217    226 154.6 -15.5  34044  287.62 0855.38
2009/04/23 08:32:20.0      76   -252    -14    264    265 163.1  -3.2  34040  287.53 0855.38
2009/04/23 08:32:20.1      62   -220    -72    229    241 164.2 -17.6  34040  287.53 0855.38
2009/04/23 08:32:20.2      75   -245    -33    257    260 163.0  -7.3  34040  287.55 0855.38
2009/04/23 08:32:20.3      71   -247    -50    258    263 164.0 -11.1  34038  287.50 0855.38
2009/04/23 08:32:20.4      79   -254    -42    267    271 162.6  -9.0  34034  287.44 0855.38
2009/04/23 08:32:20.5     130   -284    -55    313    318 155.3 -10.1  34036  287.48 0855.38
2009/04/23 08:32:20.6     145   -252    -47    291    295 150.1  -9.3  34038  287.50 0855.38
2009/04/23 08:32:20.7     134   -244    -47    279    283 151.1  -9.6  34038  287.51 0855.38
2009/04/23 08:32:20.8     140   -191    -31    237    239 143.7  -7.5  34040  287.55 0855.38
2009/04/23 08:32:20.9      95   -249    -42    267    271 159.1  -9.0  34042  287.56 0855.39
2009/04/23 08:32:21.0      37   -283    -36    286    289 172.4  -7.3  34040  287.55 0855.39
2009/04/23 08:32:21.1      86   -254    -38    269    272 161.3  -8.2  34040  287.55 0855.39
2009/04/23 08:32:21.2      -8   -200    -22    201    203 182.5  -6.5  34040  287.54 0855.39
2009/04/23 08:32:21.3      26   -188    -64    190    201 171.9 -18.7  34036  287.49 0855.39
2009/04/23 08:32:21.4      22   -224    -86    226    241 174.2 -26.4  34040  287.53 0855.39
2009/04/23 08:32:21.5     -28   -263   -123    265    292 186.2 -31.5  34034  287.44 0855.39
2009/04/23 08:32:21.6      -7   -246    -96    247    265 181.8 -26.7  34034  287.43 0855.39
2009/04/23 08:32:21.7      16   -268    -61    269    276 176.5 -12.9  34036  287.46 0855.39
2009/04/23 08:32:21.8      -9   -243    -31    244    246 182.2  -7.3  34040  287.53 0855.39
2009/04/23 08:32:21.9       0   -203    -29    204    207 180.0  -8.2  34038  287.52 0855.39
2009/04/23 08:32:22.0      44   -186    -61    192    202 166.6 -17.6  34038  287.52 0855.39
2009/04/23 08:32:22.1      75   -160    -36    177    181 154.8 -11.6  34042  287.57 0855.39
2009/04/23 08:32:22.2     115   -119    -50    166    174 135.9 -16.8  34042  287.57 0855.39
2009/04/23 08:32:22.3     106   -106    -24    150    153 135.0  -9.3  34038  287.52 0855.39
2009/04/23 08:32:22.4     113    -93     37    147    152 129.6  14.3  34040  287.54 0855.39
2009/04/23 08:32:22.5      52    -79     19     95     98 146.6  11.6  34038  287.50 0855.39
2009/04/23 08:32:22.6      52    -43      3     68     69 129.6   2.9  34036  287.47 0855.39
2009/04/23 08:32:22.7     114    -30    -69    119    137 105.1 -37.3  34032  287.42 0855.39
2009/04/23 08:32:22.8     150     12     24    151    154  85.2   9.3  34036  287.49 0855.39
2009/04/23 08:32:22.9     156     -7     82    157    177  92.6  29.5  34038  287.50 0855.39
2009/04/23 08:32:23.0     127    -37    147    133    198 106.4  53.0  34034  287.45 0855.39
2009/04/23 08:32:23.1     122     -4    152    123    195  92.1  56.9  34034  287.43 0855.39
2009/04/23 08:32:23.2     118    -39     87    125    152 108.2  38.0  34040  287.55 0855.39
2009/04/23 08:32:23.3      98   -113     52    150    158 139.0  20.0  34038  287.50 0855.39
2009/04/23 08:32:23.4      93   -120     62    152    164 142.2  23.4  34038  287.52 0855.39
2009/04/23 08:32:23.5      16   -107    115    109    158 171.5  51.4  34034  287.45 0855.39
2009/04/23 08:32:23.6       1   -103    131    104    167 179.1  57.5  34036  287.49 0855.39
2009/04/23 08:32:23.7     -28   -158    127    161    205 190.2  42.4  34036  287.49 0855.39
2009/04/23 08:32:23.8     -43   -178    117    184    218 193.6  35.5  34032  287.40 0855.39
2009/04/23 08:32:23.9     -26   -173     99    176    201 188.7  31.9  34034  287.45 0855.39
2009/04/23 08:32:24.1      24   -192     81    194    210 172.7  24.1  34034  287.45 0855.39
2009/04/23 08:32:24.2     -13   -231    134    232    267 183.4  32.7  34038  287.50 0855.39
2009/04/23 08:32:24.2     -61   -202    113    212    240 197.0  30.3  34036  287.49 0855.39
2009/04/23 08:32:24.3     -38    -91     27     99    103 202.7  15.3  34038  287.50 0855.39
2009/04/23 08:32:24.4       1    -99     40    100    107 179.1  23.0  34038  287.50 0855.39
2009/04/23 08:32:24.5      -9   -134     47    135    144 184.0  19.2  34038  287.52 0855.39
2009/04/23 08:32:24.6     -11   -144     45    145    153 184.4  17.4  34038  287.50 0855.39
2009/04/23 08:32:24.7      -3   -141     75    142    160 181.4  30.1  34038  287.52 0855.39
2009/04/23 08:32:24.8      20   -172     85    174    193 173.3  27.8  34036  287.49 0855.39
2009/04/23 08:32:24.9      23   -151     93    153    179 171.1  34.2  34036  287.49 0855.40
2009/04/23 08:32:25.0      24    -51     99     57    114 154.5  67.2  34036  287.47 0855.40
2009/04/23 08:32:25.1       0    -82    104     83    133 180.5  56.9  34036  287.49 0855.40
2009/04/23 08:32:25.2      66   -140    145    155    212 154.7  48.0  34030  287.37 0855.40
2009/04/23 08:32:25.3     -25   -143    116    146    186 190.2  43.0  34032  287.40 0855.40
2009/04/23 08:32:25.4      49   -106    115    117    164 155.1  50.0  34032  287.42 0855.40
2009/04/23 08:32:25.5      84    -81    134    117    177 134.0  54.3  34032  287.42 0855.40
2009/04/23 08:32:25.6      39    -70    109     81    135 151.1  60.0  34034  287.43 0855.40
2009/04/23 08:32:25.7      96    -96    125    136    184 135.0  47.9  34034  287.43 0855.40
2009/04/23 08:32:25.8     122    -83    104    148    180 124.2  38.8  34034  287.45 0855.40
2009/04/23 08:32:25.9      71    -96     59    120    133 143.5  27.8  34034  287.45 0855.40
2009/04/23 08:32:26.0      86    -86     49    122    131 135.0  23.0  34036  287.49 0855.40
2009/04/23 08:32:26.1      63    -97     68    116    134 147.0  33.5  34036  287.49 0855.40
2009/04/23 08:32:26.2      39   -115     58    122    135 161.3  27.2  34034  287.45 0855.40
2009/04/23 08:32:26.3      16   -105     87    107    137 171.1  43.7  34038  287.50 0855.40
2009/04/23 08:32:26.4     -11   -151     76    152    169 184.4  28.5  34034  287.45 0855.40
2009/04/23 08:32:26.5     -21   -103     54    106    118 191.5  29.3  34034  287.45 0855.40
2009/04/23 08:32:26.6      -2    -74     98     75    123 181.8  58.5  34036  287.47 0855.40
2009/04/23 08:32:26.7     -60    -66      4     90     91 222.3   2.9  34036  287.49 0855.40
2009/04/23 08:32:26.8       2      7     57      8     57  18.7  90.0  34032  287.40 0855.40
2009/04/23 08:32:26.9      12      8     47     15     49  57.6  80.7  34036  287.49 0855.40
2009/04/23 08:32:27.0      -5    -40     61     41     73 188.0  63.6  34038  287.52 0855.40
2009/04/23 08:32:27.1      -3    -12    102     13    102 195.1  90.0  34038  287.50 0855.40
2009/04/23 08:32:27.2     -56   -101     18    116    118 208.9   8.9  34034  287.45 0855.40
2009/04/23 08:32:27.3      48    -74    -40     89     97 147.0 -30.1  34036  287.47 0855.40
2009/04/23 08:32:27.4      59    -66    -54     89    104 138.1 -38.8  34034  287.45 0855.40
2009/04/23 08:32:27.5     101    -16     31    103    108  99.2  16.8  34036  287.47 0855.40
2009/04/23 08:32:27.7      77    -44     63     89    109 119.8  39.1  34036  287.47 0855.40
2009/04/23 08:32:27.8      93    -50     36    106    113 118.4  18.9  34034  287.43 0855.40
2009/04/23 08:32:27.8      58    -54      4     80     81 133.3   3.3  34034  287.43 0855.40
2009/04/23 08:32:27.9      42    -45      5     62     63 136.7   4.9  34034  287.43 0855.40
2009/04/23 08:32:28.0      37    -16      8     41     42 113.5  11.1  34032  287.40 0855.40
2009/04/23 08:32:28.1      22      0    -11     23     25  90.0 -31.6  34034  287.43 0855.40
2009/04/23 08:32:28.3      11     -9    -51     15     53 129.5 -86.2  34032  287.42 0855.40
2009/04/23 08:32:28.3      40    -36    -62     54     82 132.2 -58.7  34032  287.42 0855.40
2009/04/23 08:32:28.4      54    -40    -46     68     82 126.9 -42.0  34034  287.45 0855.40
2009/04/23 08:32:28.6      63     -4    -65     64     91  94.3 -54.5  34034  287.43 0855.40
2009/04/23 08:32:28.7      66      8    -64     67     92  83.0 -53.4  34034  287.43 0855.40
2009/04/23 08:32:28.7      56     19    -58     60     83  71.4 -54.4  34032  287.42 0855.40
2009/04/23 08:32:28.9      27     19    -50     34     60  54.0 -67.0  34032  287.40 0855.40
2009/04/23 08:32:29.0     -14      3    -22     15     26 285.1 -69.0  34032  287.42 0855.40
2009/04/23 08:32:29.1      -2      7    -17      8     18 341.5 -81.5  34032  287.40 0855.40
2009/04/23 08:32:29.2      24     20    -22     32     38  50.5 -42.0  34032  287.42 0855.40
2009/04/23 08:32:29.3      23     39    -24     46     51  30.7 -33.7  34030  287.38 0855.40
2009/04/23 08:32:29.4      16     50     -2     53     54  18.7  -2.2  34030  287.38 0855.40
2009/04/23 08:32:29.5       2     34     23     35     41   4.5  36.5  34032  287.42 0855.40
2009/04/23 08:32:29.6      -1     36     49     37     61 357.4  59.4  34036  287.47 0855.40
2009/04/23 08:32:29.7     -18     26     59     32     67 325.7  68.9  34032  287.42 0855.40
2009/04/23 08:32:29.8     -19    -23     69     30     75 219.6  75.0  34034  287.43 0855.40
2009/04/23 08:32:29.9      43    -27     88     52    102 122.5  66.8  34032  287.40 0855.40
2009/04/23 08:32:30.0       0   -114     83    115    141 179.5  39.7  34028  287.33 0855.40
2009/04/23 08:32:30.1      34   -143    165    147    220 166.6  53.7  34012  287.06 0855.40
2009/04/23 08:32:30.2      39   -193    168    198    259 168.4  44.8  34010  287.04 0855.40
2009/04/23 08:32:30.3      52    -38     96     65    115 126.0  63.6  34016  287.15 0855.40
2009/04/23 08:32:30.4      64   -221    165    231    283 163.7  39.3  34022  287.24 0855.40
2009/04/23 08:32:30.5     118   -207    167    239    291 150.4  38.4  34018  287.17 0855.40
2009/04/23 08:32:30.6     180   -128     69    222    233 125.5  17.3  34016  287.13 0855.40
2009/04/23 08:32:30.7     242   -164     35    293    296 124.1   6.9  34026  287.29 0855.40
2009/04/23 08:32:30.8     166   -214     74    271    281 142.2  15.3  34022  287.22 0855.40
2009/04/23 08:32:30.9     152   -114     30    191    194 126.9   9.0  34022  287.23 0855.40
2009/04/23 08:32:31.0     227   -106    -27    251    253 115.2  -6.2  34022  287.22 0855.40
2009/04/23 08:32:31.1     247   -191    -23    313    314 127.8  -4.4  34014  287.09 0855.40
2009/04/23 08:32:31.2     212   -212     15    301    302 135.0   2.9  34010  287.04 0855.40
2009/04/23 08:32:31.3     153   -217     52    266    272 144.8  11.1  34014  287.11 0855.40
2009/04/23 08:32:31.4     130   -185     61    227    236 145.0  15.0  34010  287.03 0855.40
2009/04/23 08:32:31.5     121   -170    130    209    246 144.6  35.0  34012  287.06 0855.40
2009/04/23 08:32:31.6      18   -131    147    133    198 172.0  53.0  34014  287.10 0855.40
2009/04/23 08:32:31.7      10   -136    145    137    199 175.5  51.6  34018  287.16 0855.40
2009/04/23 08:32:31.8      26     31     59     41     71  39.7  61.5  34012  287.08 0855.40
2009/04/23 08:32:31.9      -2     -7     31      8     32 198.7  86.9  34016  287.13 0855.40
2009/04/23 08:32:32.0      35   -171     52    175    183 168.4  16.6  34018  287.16 0855.39
2009/04/23 08:32:32.1      49   -204     19    210    211 166.4   5.4  34016  287.15 0855.39
2009/04/23 08:32:32.2     127   -226     19    260    261 150.6   4.4  34020  287.19 0855.39
2009/04/23 08:32:32.3     161   -203     -5    260    261 141.5  -1.2  34020  287.19 0855.39
2009/04/23 08:32:32.4     171   -151     84    229    243 131.4  20.9  34020  287.19 0855.39
2009/04/23 08:32:32.5      75   -245    147    257    296 162.8  32.4  34016  287.12 0855.39
2009/04/23 08:32:32.6     102   -330    140    346    373 162.8  23.1  34012  287.07 0855.39
2009/04/23 08:32:32.7     126   -271    -23    299    300 155.1  -4.6  34010  287.02 0855.39
2009/04/23 08:32:32.8      90   -264    -61    280    287 161.1 -12.4  34018  287.16 0855.39
2009/04/23 08:32:32.9      83   -307    -48    319    323 164.9  -8.7  34016  287.14 0855.39
2009/04/23 08:32:33.0     126   -302    -18    328    329 157.3  -3.2  34016  287.12 0855.39
2009/04/23 08:32:33.1      97   -287    -14    304    305 161.3  -2.8  34020  287.21 0855.39
2009/04/23 08:32:33.2      51   -301    -38    306    309 170.3  -7.2  34014  287.11 0855.39
2009/04/23 08:32:33.3      23   -305     36    307    310 175.5   6.7  34016  287.14 0855.39
2009/04/23 08:32:33.4     -74   -245     21    257    259 196.9   4.9  34016  287.14 0855.39
2009/04/23 08:32:33.5    -101   -247     17    268    269 202.3   3.6  34020  287.19 0855.39
2009/04/23 08:32:33.6    -100   -250    -38    270    273 201.9  -8.0  34016  287.12 0855.39
2009/04/23 08:32:33.7     -47   -273    -35    278    281 189.8  -7.3  34014  287.11 0855.39
2009/04/23 08:32:33.8      -6   -271    -44    272    276 181.4  -9.3  34014  287.11 0855.39
2009/04/23 08:32:33.9     -21   -346    -10    347    348 183.5  -1.8  34010  287.05 0855.39
2009/04/23 08:32:34.0      34   -354     -6    356    357 174.4  -1.1  34012  287.07 0855.39
2009/04/23 08:32:34.1      35   -281     14    284    285 172.9   2.9  34012  287.07 0855.39
2009/04/23 08:32:34.2     -24   -252    -16    254    255 185.6  -3.7  34012  287.07 0855.39
2009/04/23 08:32:34.3     -35   -253    -10    256    257 188.0  -2.2  34010  287.02 0855.39
2009/04/23 08:32:34.4     -87   -277    -87    291    304 197.6 -16.6  34010  287.04 0855.39
2009/04/23 08:32:34.5    -162   -334    -96    372    385 205.9 -14.5  34012  287.07 0855.39
2009/04/23 08:32:34.6    -118   -313    -51    335    339 200.8  -8.7  34014  287.10 0855.39
2009/04/23 08:32:34.7     -91   -336     42    349    352 195.2   6.9  34014  287.10 0855.39
2009/04/23 08:32:34.8     -85   -294     -3    307    308 196.1  -0.7  34016  287.14 0855.39
2009/04/23 08:32:34.9    -134   -273     -6    305    306 206.1  -1.3  34020  287.21 0855.39
2009/04/23 08:32:35.0    -149   -260    -16    300    301 209.9  -3.1  34020  287.19 0855.39
2009/04/23 08:32:35.1    -175   -273    -49    325    329 212.6  -8.7  34022  287.22 0855.39
2009/04/23 08:32:35.2    -149   -261    -38    301    304 209.8  -7.2  34024  287.26 0855.39
2009/04/23 08:32:35.3    -164   -253    -40    302    305 213.0  -7.7  34022  287.24 0855.39
2009/04/23 08:32:35.4    -161   -245    -16    294    295 213.4  -3.1  34022  287.22 0855.39
2009/04/23 08:32:35.5    -130   -280    -75    309    318 204.9 -13.7  34022  287.22 0855.39
2009/04/23 08:32:35.6    -127   -243    -64    275    283 207.6 -13.2  34026  287.29 0855.39
2009/04/23 08:32:35.7    -109   -184    -66    214    225 210.7 -17.3  34022  287.25 0855.39
2009/04/23 08:32:35.8    -141   -221    -68    263    272 212.5 -14.5  34018  287.16 0855.39
2009/04/23 08:32:35.9    -170   -256    -59    308    314 213.6 -10.9  34016  287.12 0855.39
2009/04/23 08:32:36.0    -106   -253    -89    275    290 202.7 -18.1  34018  287.16 0855.39
2009/04/23 08:32:36.1    -129   -199    -54    238    245 213.0 -12.9  34018  287.16 0855.39
2009/04/23 08:32:36.2    -122   -223    -80    255    267 208.7 -22.5  34020  287.19 0855.39
2009/04/23 08:32:36.3    -193   -175    -93    261    278 227.7 -19.7  34012  287.07 0855.39
2009/04/23 08:32:36.4    -195   -160    -38    253    256 230.7  -8.6  34020  287.21 0855.39
2009/04/23 08:32:36.5    -182   -171    -94    251    268 226.8 -25.9  34018  287.17 0855.39
2009/04/23 08:32:36.6    -149   -142    -80    207    221 226.4 -26.7  34020  287.20 0855.39
2009/04/23 08:32:36.7    -162   -144   -101    217    239 228.4 -31.0  34018  287.17 0855.39
2009/04/23 08:32:36.8    -131   -181    -40    224    228 216.0 -10.3  34022  287.23 0855.39
2009/04/23 08:32:36.9    -134   -103    -60    170    180 232.5 -24.4  34020  287.21 0855.39
2009/04/23 08:32:37.0     -98   -119    -85    155    176 219.6 -35.7  34020  287.21 0855.39
2009/04/23 08:32:37.1     -38   -114    -78    121    143 198.3 -40.0  34018  287.16 0855.39
2009/04/23 08:32:37.2     -58   -163   -107    174    204 199.8 -39.2  34024  287.28 0855.39
2009/04/23 08:32:37.3     -90   -205    -54    225    232 203.7 -13.7  34022  287.25 0855.39
2009/04/23 08:32:37.4    -113   -174    -74    208    222 213.2 -19.7  34022  287.23 0855.39
2009/04/23 08:32:37.5    -121   -139   -110    185    215 221.0 -37.9  34024  287.27 0855.39
2009/04/23 08:32:37.6    -131    -83    -91    156    180 237.6 -37.3  34020  287.21 0855.39
2009/04/23 08:32:37.7    -128   -135    -71    187    200 223.4 -25.9  34020  287.20 0855.39
2009/04/23 08:32:37.8    -203   -184    -73    275    285 227.8 -15.0  34020  287.19 0855.39
2009/04/23 08:32:37.9    -228   -113   -107    255    276 243.6 -28.5  34020  287.19 0855.39
2009/04/23 08:32:38.0    -392   -121   -140    411    435 252.8 -18.8  34018  287.18 0855.39
2009/04/23 08:32:38.1    -480   -178   -150    513    534 249.6 -21.1  34026  287.30 0855.39
2009/04/23 08:32:38.2    -538   -186   -204    570    606 250.9 -19.7  34026  287.29 0855.39
2009/04/23 08:32:38.3    -574   -198   -197    608    639 251.0 -23.0  34024  287.27 0855.39
2009/04/23 08:32:38.4    -364   -253    -41    444    447 235.2  -5.4  33996  286.81 0855.39
2009/04/23 08:32:38.5    -383   -239     38    452    454 238.0   4.9  34020  287.19 0855.39
2009/04/23 08:32:38.6    -435   -105   -156    448    474 256.3 -24.4  34024  287.27 0855.39
2009/04/23 08:32:38.7    -247    -38     -1    250    251 261.2  -0.3  34008  287.01 0855.39
2009/04/23 08:32:38.8    -198   -125     68    235    245 237.6  16.3  34014  287.09 0855.39
2009/04/23 08:32:38.9    -263      0     67    264    273 269.9  14.3  34022  287.24 0855.39
2009/04/23 08:32:39.0    -243    -61    -72    251    261 255.8 -20.7  34020  287.19 0855.39
2009/04/23 08:32:39.1    -247   -136     39    282    285 241.2   8.0  34020  287.19 0855.39
2009/04/23 08:32:39.2    -216   -106     58    241    248 243.8  13.7  34022  287.24 0855.39
2009/04/23 08:32:39.3    -224     49    102    230    251 282.4  25.3  34022  287.22 0855.39
2009/04/23 08:32:39.4    -214      7      3    215    216 272.1   0.8  34016  287.15 0855.39
2009/04/23 08:32:39.5    -151   -126      1    197    198 230.2   0.5  34022  287.25 0855.39
2009/04/23 08:32:39.6    -249   -148     23    290    291 239.3   4.6  34020  287.19 0855.39
2009/04/23 08:32:39.7    -363   -200    -39    415    417 241.2  -5.5  34016  287.14 0855.39
2009/04/23 08:32:39.8    -340   -256    -79    426    434 233.0 -10.5  34022  287.23 0855.39
2009/04/23 08:32:39.9    -390   -112   -140    406    429 253.9 -24.3  34022  287.23 0855.39
2009/04/23 08:32:40.0    -312    -42   -194    315    369 262.3 -39.2  34022  287.25 0855.38
2009/04/23 08:32:40.1    -288   -105    -70    307    315 250.0 -12.9  34018  287.16 0855.38
2009/04/23 08:32:40.2    -312   -140    -97    342    355 245.8 -20.5  34022  287.22 0855.38
2009/04/23 08:32:40.3    -313   -188   -111    366    382 239.0 -21.7  34022  287.22 0855.38
2009/04/23 08:32:40.4    -347    -93   -151    360    390 255.0 -28.5  34018  287.17 0855.38
2009/04/23 08:32:40.5    -314    -39    -36    317    320 262.8  -6.5  34018  287.17 0855.38
2009/04/23 08:32:40.6    -345     64    -32    351    353 280.6  -5.3  34022  287.23 0855.38
2009/04/23 08:32:40.7    -223     86    -56    240    247 291.1 -13.3  34016  287.12 0855.38
2009/04/23 08:32:40.8    -123     61      1    138    139 296.6   0.8  34024  287.28 0855.38
2009/04/23 08:32:40.9     -86    -15    -65     88    109 259.9 -44.1  34024  287.28 0855.38
2009/04/23 08:32:41.0     -90     -4    -58     91    107 267.4 -39.9  34024  287.27 0855.38
2009/04/23 08:32:41.1     -94    -21    -65     97    116 257.2 -40.9  34024  287.27 0855.38
2009/04/23 08:32:41.2    -109    -49    -55    120    132 245.6 -31.0  34024  287.28 0855.38
2009/04/23 08:32:41.3    -102    -15   -110    104    151 261.6 -56.5  34024  287.28 0855.38
2009/04/23 08:32:41.4     -40   -143   -147    149    209 195.6 -54.4  34026  287.32 0855.38
2009/04/23 08:32:41.5     -78    -79   -101    112    150 224.7 -51.3  34022  287.25 0855.38
2009/04/23 08:32:41.6     -74    -58    -32     95    101 231.8 -19.1  34022  287.25 0855.38
2009/04/23 08:32:41.7     -95     -8    -58     96    112 265.2 -38.8  34024  287.28 0855.38
2009/04/23 08:32:41.8    -164      0   -127    165    208 270.0 -46.1  34028  287.33 0855.38
2009/04/23 08:32:41.9    -134     31   -112    138    177 283.3 -48.1  34028  287.35 0855.38
2009/04/23 08:32:42.0    -153     66   -135    167    214 293.5 -47.9  34032  287.40 0855.38
2009/04/23 08:32:42.1    -177     52   -153    185    240 286.6 -48.2  34030  287.37 0855.38
2009/04/23 08:32:42.2    -188     34   -181    192    263 280.4 -52.6  34028  287.33 0855.38
2009/04/23 08:32:42.3    -317     33   -167    319    360 276.1 -34.4  34022  287.23 0855.38
2009/04/23 08:32:42.4    -225     75   -171    238    293 288.6 -43.9  34028  287.34 0855.38
2009/04/23 08:32:42.5    -265     32   -199    267    333 277.0 -44.8  34028  287.34 0855.38
2009/04/23 08:32:42.6    -327     70   -211    335    395 282.2 -39.6  34018  287.17 0855.38
2009/04/23 08:32:42.7    -257     96   -187    275    332 290.6 -42.0  34012  287.07 0855.38
2009/04/23 08:32:42.8    -229     79   -138    243    279 289.1 -36.5  34022  287.22 0855.38
2009/04/23 08:32:42.9    -276     89   -173    291    338 287.9 -38.0  34028  287.33 0855.38
2009/04/23 08:32:43.0    -235     25   -164    237    288 276.2 -42.2  34026  287.29 0855.38
2009/04/23 08:32:43.1    -254     31   -129    256    286 277.0 -33.1  34024  287.28 0855.38
2009/04/23 08:32:43.2    -253    -30   -117    255    280 263.0 -30.6  34022  287.22 0855.38
2009/04/23 08:32:43.3    -240    -95    -94    259    275 248.3 -25.3  34022  287.22 0855.38
2009/04/23 08:32:43.4    -218    -59   -124    226    257 254.9 -35.7  34020  287.21 0855.38
2009/04/23 08:32:43.5    -171    -85   -123    192    228 243.4 -40.0  34016  287.15 0855.38
2009/04/23 08:32:43.6    -219   -139   -103    260    279 237.6 -27.2  34022  287.22 0855.38
2009/04/23 08:32:43.7    -226   -164   -123    280    305 234.0 -29.6  34024  287.26 0855.38
2009/04/23 08:32:43.8    -236   -120    -73    265    274 243.0 -20.0  34020  287.19 0855.38
2009/04/23 08:32:43.9    -223   -129    -75    258    268 240.0 -21.0  34022  287.24 0855.38
2009/04/23 08:32:44.0    -149   -148    -45    211    216 225.1 -12.2  34026  287.32 0855.39
2009/04/23 08:32:44.1    -106   -222    -48    247    252 205.5 -11.1  34028  287.34 0855.39
2009/04/23 08:32:44.2     -71   -196    -62    209    218 200.0 -21.5  34024  287.28 0855.39
2009/04/23 08:32:44.3     -88    -99    -85    133    157 221.4 -40.1  34026  287.32 0855.39
2009/04/23 08:32:44.4     -92    -91    -57    130    141 225.2 -29.5  34026  287.30 0855.39
2009/04/23 08:32:44.5     -91   -117      7    149    150 217.8   2.8  34024  287.27 0855.39
2009/04/23 08:32:44.6     -70   -179    -24    193    195 201.4  -7.2  34026  287.30 0855.39
2009/04/23 08:32:44.7     -73   -195    -16    209    210 200.5  -4.4  34026  287.30 0855.39
2009/04/23 08:32:44.8     -83   -152    -14    174    175 208.5  -4.9  34024  287.27 0855.39
2009/04/23 08:32:44.9     -87   -136      8    162    163 212.7   3.1  34022  287.25 0855.39
2009/04/23 08:32:45.0      34   -167    -20    171    173 168.4  -6.9  34024  287.28 0855.39
2009/04/23 08:32:45.1      34    -93    -22    100    103 159.5 -12.4  34026  287.32 0855.39
2009/04/23 08:32:45.2      26    -41     57     49     75 147.4  55.4  34022  287.23 0855.39
2009/04/23 08:32:45.3     121     -7    -32    122    127  93.5 -15.0  34022  287.23 0855.39
2009/04/23 08:32:45.4     249     34     93    252    268  82.1  21.0  34024  287.28 0855.39
2009/04/23 08:32:45.5     231     19     77    232    245  85.2  18.4  34022  287.24 0855.39
2009/04/23 08:32:45.6     232    -14     99    233    253  93.5  24.2  34026  287.31 0855.39
2009/04/23 08:32:45.7     167    -45     94    174    197 105.3  30.8  34026  287.32 0855.39
2009/04/23 08:32:45.8     153    -85    104    176    204 119.1  33.5  34024  287.28 0855.39
2009/04/23 08:32:45.9     152    -49    112    160    195 108.2  38.4  34024  287.28 0855.39
2009/04/23 08:32:46.0      69    -22    121     73    141 108.2  66.2  34026  287.30 0855.39
2009/04/23 08:32:46.1      70    -82    102    109    149 139.5  48.0  34026  287.30 0855.39
2009/04/23 08:32:46.2       3      0     57      4     57  90.0  90.0  34028  287.33 0855.39
2009/04/23 08:32:46.3      -5    -23     69     24     73 193.4  81.2  34030  287.37 0855.39
2009/04/23 08:32:46.4      -2    -34     78     35     85 184.5  74.5  34030  287.37 0855.39
2009/04/23 08:32:46.5      30     55     70     63     94  29.0  53.3  34028  287.35 0855.39
2009/04/23 08:32:46.6      48     17     79     52     94  70.0  64.6  34030  287.38 0855.39
2009/04/23 08:32:46.7      73     30    125     80    148  67.4  64.6  34022  287.25 0855.39
2009/04/23 08:32:46.8     115     16    104    117    156  82.1  46.4  34024  287.28 0855.39
2009/04/23 08:32:46.9     108      8    125    109    165  85.6  54.6  34024  287.27 0855.39
2009/04/23 08:32:47.0     105      7    102    106    147  86.1  49.0  34026  287.32 0855.39
2009/04/23 08:32:47.1      86     27     74     91    117  72.7  43.7  34024  287.28 0855.39
2009/04/23 08:32:47.2      51     21     98     56    112  67.4  67.7  34022  287.25 0855.39
2009/04/23 08:32:47.3      16     48     84     51     98  18.5  65.7  34026  287.32 0855.39
2009/04/23 08:32:47.4     -23     35     76     43     87 326.6  67.7  34026  287.30 0855.39
2009/04/23 08:32:47.5     -24    -33     85     41     94 216.1  72.8  34028  287.33 0855.39
2009/04/23 08:32:47.6     -75    -75     80    107    133 225.1  40.1  34026  287.32 0855.39
2009/04/23 08:32:47.7     -71    -47     58     86    103 236.7  37.0  34024  287.28 0855.39
2009/04/23 08:32:47.8     -80    -32     30     87     93 248.3  18.9  34028  287.35 0855.39
2009/04/23 08:32:47.9    -122     -9      6    123    124 265.6   2.8  34024  287.28 0855.39
2009/04/23 08:32:48.0    -106    -28     60    110    125 254.9  31.4  34020  287.21 0855.39
2009/04/23 08:32:48.1    -168    -41     33    174    178 256.1  11.0  34022  287.25 0855.39
2009/04/23 08:32:48.2    -163    -45     14    170    171 254.3   4.9  34018  287.18 0855.39
2009/04/23 08:32:48.3    -181    -31      9    184    185 260.1   2.8  34020  287.20 0855.39
2009/04/23 08:32:48.4    -120     39     -7    127    128 288.2  -3.1  34022  287.25 0855.39
2009/04/23 08:32:48.5     -34     27     -3     44     45 308.6  -4.1  34022  287.23 0855.39
2009/04/23 08:32:48.6      24     58     59     63     86  22.7  48.5  34024  287.27 0855.39
2009/04/23 08:32:48.7      64     91     97    112    148  35.2  45.4  34022  287.23 0855.39
2009/04/23 08:32:48.8     112    135    138    176    223  39.9  42.0  34024  287.27 0855.39
2009/04/23 08:32:48.9     146    202     58    250    257  36.0  13.1  34016  287.12 0855.39
2009/04/23 08:32:49.0     212    182     69    280    289  49.3  13.9  34020  287.21 0855.39
2009/04/23 08:32:49.1     193    150    118    245    271  52.0  27.3  34020  287.21 0855.39
2009/04/23 08:32:49.2     135    121    109    182    212  48.2  34.0  34020  287.21 0855.39
2009/04/23 08:32:49.3      50    151     56    160    170  18.3  19.6  34024  287.27 0855.39
2009/04/23 08:32:49.5      65    102     71    122    141  32.6  32.9  34022  287.25 0855.39
2009/04/23 08:32:49.5      59    116     49    131    139  27.1  21.0  34020  287.21 0855.39
2009/04/23 08:32:49.6     -10    166     46    167    174 356.4  15.6  34022  287.23 0855.39
2009/04/23 08:32:49.7     -54    165     25    174    176 341.7   8.2  34022  287.23 0855.39
2009/04/23 08:32:49.8     -25    173      8    175    176 351.8   2.9  34022  287.23 0855.39
2009/04/23 08:32:49.9     -32    146    -16    150    151 347.5  -6.2  34022  287.25 0855.39
2009/04/23 08:32:50.0     -44    142     -8    149    150 342.6  -3.1  34022  287.23 0855.39
2009/04/23 08:32:50.1    -144     93     -8    172    173 302.9  -2.8  34020  287.21 0855.39
2009/04/23 08:32:50.2     -31     85    -14     91     93 339.5  -8.8  34022  287.23 0855.39
2009/04/23 08:32:50.3     -58     26     98     64    117 294.4  64.6  34024  287.27 0855.39
2009/04/23 08:32:50.4     -40     17     88     44     98 293.5  71.9  34022  287.25 0855.39
2009/04/23 08:32:50.5      16     69    119     71    138  13.4  66.7  34022  287.25 0855.39
2009/04/23 08:32:50.6     -32    104    117    110    160 342.6  52.0  34022  287.23 0855.39
2009/04/23 08:32:50.7     101     71    120    124    172  54.9  49.4  34020  287.21 0855.39
2009/04/23 08:32:50.8     117     26    149    121    191  77.2  56.4  34024  287.27 0855.39
2009/04/23 08:32:50.9     100     33    121    106    160  71.4  54.3  34022  287.23 0855.39
2009/04/23 08:32:51.0     161     36    119    165    203  77.4  39.5  34024  287.28 0855.38
2009/04/23 08:32:51.1     164     56    152    174    231  71.2  45.8  34024  287.27 0855.38
2009/04/23 08:32:51.2     173     35    203    177    269  78.6  54.6  34022  287.22 0855.38
2009/04/23 08:32:51.3     162     58    154    173    231  70.3  46.2  34024  287.28 0855.38
2009/04/23 08:32:51.4     133     53    129    144    193  68.2  46.6  34026  287.30 0855.38
2009/04/23 08:32:51.5     161     32    148    165    221  78.5  46.6  34024  287.28 0855.38
2009/04/23 08:32:51.6     137     45    173    145    225  71.8  56.3  34026  287.30 0855.38
2009/04/23 08:32:51.7     102     64     61    121    135  57.5  28.7  34024  287.28 0855.38
2009/04/23 08:32:51.8     143     17    -37    145    150  83.0 -14.5  34024  287.27 0855.38
2009/04/23 08:32:51.9     220     68    -31    231    234  72.7  -7.7  34024  287.28 0855.38
2009/04/23 08:32:52.0     207     38     33    211    214  79.6   8.9  34022  287.23 0855.38
2009/04/23 08:32:52.1     224     93     81    243    257  67.3  18.5  34024  287.26 0855.38
2009/04/23 08:32:52.2     374    178    146    415    440  64.5  19.4  34024  287.28 0855.38
2009/04/23 08:32:52.3     314    187     12    366    367  59.2   1.9  34022  287.23 0855.38
2009/04/23 08:32:52.4     328     -5     24    329    330  90.9   4.3  34006  286.98 0855.38
2009/04/23 08:32:52.5     322     -7     48    323    327  91.3   8.5  34022  287.22 0855.38
2009/04/23 08:32:52.6     340     27     61    342    348  85.3  10.1  34022  287.22 0855.38
2009/04/23 08:32:52.7     448    207    143    494    515  65.2  16.1  34026  287.29 0855.38
2009/04/23 08:32:52.8     383    145    172    410    444  69.2  24.2  34024  287.28 0855.38
2009/04/23 08:32:52.9     404    -56     56    409    413  98.0   7.8  34026  287.31 0855.38
2009/04/23 08:32:53.0     358    -74     86    366    376 101.8  13.2  34022  287.22 0855.39
2009/04/23 08:32:53.1     323    -14    116    324    344  92.5  20.4  34022  287.25 0855.39
2009/04/23 08:32:53.2     390    177     54    429    433  65.6   7.2  34024  287.28 0855.39
2009/04/23 08:32:53.3     495    100     96    505    515  78.6  10.8  34026  287.29 0855.39
2009/04/23 08:32:53.4     359     97    124    372    393  74.9  18.4  34026  287.29 0855.39
2009/04/23 08:32:53.5     415     69    197    421    464  80.5  27.1  34030  287.36 0855.39
2009/04/23 08:32:53.6     455    116    189    470    506  75.6  23.1  34026  287.32 0855.39
2009/04/23 08:32:53.7     510      3     72    511    517  89.6   8.1  34026  287.29 0855.39
2009/04/23 08:32:53.8     478     97     67    489    494  78.4   7.9  34026  287.29 0855.39
2009/04/23 08:32:53.9     466    109     57    479    483  76.8   6.8  34022  287.22 0855.39
2009/04/23 08:32:54.1     456    124     40    473    475  74.7   4.9  34024  287.27 0855.39
2009/04/23 08:32:54.1     371    154     78    402    410  67.4  11.0  34026  287.31 0855.39
2009/04/23 08:32:54.3     336     47     71    340    348  82.0  11.8  34018  287.17 0855.39
2009/04/23 08:32:54.4     389     23     17    390    391  86.6   2.5  34018  287.18 0855.39
2009/04/23 08:32:54.5     381    -52    -16    385    386  97.9  -2.5  34016  287.13 0855.39
2009/04/23 08:32:54.6     441    -82    -58    449    453 100.6  -7.5  34018  287.16 0855.39
2009/04/23 08:32:54.7     437     58    -48    441    444  82.4  -6.2  34020  287.19 0855.39
2009/04/23 08:32:54.8     445     91     -9    455    456  78.4  -1.2  34022  287.23 0855.39
2009/04/23 08:32:54.9     425     33     12    427    428  85.5   1.7  34018  287.16 0855.39
2009/04/23 08:32:55.0     455     44     80    458    466  84.4  10.0  34018  287.18 0855.39
2009/04/23 08:32:55.1     445     95     88    456    465  77.9  11.0  34024  287.28 0855.39
2009/04/23 08:32:55.2     459     93     42    469    471  78.4   5.2  34032  287.41 0855.39
2009/04/23 08:32:55.3     362     70     91    369    381  79.0  13.9  34026  287.32 0855.39
2009/04/23 08:32:55.4     459     10     28    460    461  88.7   3.5  34016  287.13 0855.39
2009/04/23 08:32:55.5     445     90     48    454    457  78.5   6.1  34034  287.43 0855.39
2009/04/23 08:32:55.6     392     92     19    403    404  76.8   2.8  34018  287.16 0855.39
2009/04/23 08:32:55.7     353    170     84    393    403  64.2  12.1  34022  287.25 0855.39
2009/04/23 08:32:55.8     289    136    223    320    390  64.7  38.4  34022  287.23 0855.39
2009/04/23 08:32:55.9     201    151    276    252    373  53.1  53.0  34022  287.23 0855.39
2009/04/23 08:32:56.0     305    100    389    322    504  71.8  56.4  34024  287.26 0855.39
2009/04/23 08:32:56.1     387     80     77    396    404  78.3  11.1  34014  287.10 0855.39
2009/04/23 08:32:56.2     302    100    110    319    338  71.6  19.1  34014  287.10 0855.39
2009/04/23 08:32:56.3     258     97    107    276    296  69.4  22.5  34012  287.07 0855.39
2009/04/23 08:32:56.4     222     88    150    239    282  68.3  35.5  34020  287.19 0855.39
2009/04/23 08:32:56.5     124     29    215    128    250  76.7  66.7  34030  287.37 0855.39
2009/04/23 08:32:56.6     117     25    195    120    228  77.6  65.4  34030  287.38 0855.39
2009/04/23 08:32:56.7     192     22    182    194    266  83.4  48.0  34028  287.33 0855.39
2009/04/23 08:32:56.8     220    -22    212    222    306  95.9  48.7  34022  287.24 0855.39
2009/04/23 08:32:56.9     169    -47    146    176    228 105.5  43.8  34022  287.25 0855.39
2009/04/23 08:32:57.0     184    -32    191    187    267  99.9  50.7  34028  287.33 0855.39
2009/04/23 08:32:57.1     171    -95    154    196    249 119.1  42.4  34028  287.33 0855.39
2009/04/23 08:32:57.2     155    -87    155    178    236 119.3  45.6  34024  287.28 0855.39
2009/04/23 08:32:57.3     149      6    155    150    215  87.4  50.7  34026  287.30 0855.39
2009/04/23 08:32:57.4     204    -65    243    215    324 107.7  54.2  34022  287.24 0855.39
2009/04/23 08:32:57.5     188   -124    198    226    300 123.5  45.8  34024  287.28 0855.39
2009/04/23 08:32:57.6     218    -26    210    220    304  97.0  48.7  34022  287.24 0855.39
2009/04/23 08:32:57.7       7    -98    148     99    178 175.5  63.2  34022  287.23 0855.39
2009/04/23 08:32:57.8     133   -232    277    268    385 150.1  51.1  34024  287.27 0855.39
2009/04/23 08:32:57.9    -101   -326    118    342    362 197.3  19.1  34016  287.15 0855.39
2009/04/23 08:32:58.0     -32   -111     23    116    119 196.0  11.6  34024  287.28 0855.39
2009/04/23 08:32:58.1      33     11    199     35    202  71.6  90.0  34024  287.28 0855.39
2009/04/23 08:32:58.2     108    -92    147    143    205 130.4  50.4  34024  287.28 0855.39
2009/04/23 08:32:58.3     145   -265    194    303    359 151.3  35.6  34026  287.32 0855.39
2009/04/23 08:32:58.4     130   -286    166    315    356 155.5  30.1  34028  287.34 0855.39
2009/04/23 08:32:58.5     142   -348     76    376    384 157.8  11.6  34024  287.27 0855.39
2009/04/23 08:32:58.6      86   -320     93    332    345 164.9  15.7  34032  287.39 0855.39
2009/04/23 08:32:58.7       3   -186    135    187    230 178.9  39.5  34022  287.25 0855.39
2009/04/23 08:32:58.8     -26   -130    103    133    168 191.6  42.0  34020  287.21 0855.39
2009/04/23 08:32:58.9       0    -89     -6     90     91 180.4  -4.1  34026  287.30 0855.39
2009/04/23 08:32:59.0     -33   -110     96    116    150 196.9  43.8  34022  287.23 0855.39
2009/04/23 08:32:59.1      46   -192    137    198    240 166.4  38.0  34028  287.33 0855.39
2009/04/23 08:32:59.2      18   -208    148    209    256 174.9  38.8  34026  287.31 0855.39
2009/04/23 08:32:59.3      30   -170    189    173    256 170.0  52.7  34026  287.32 0855.39
2009/04/23 08:32:59.4      31    -69    112     76    135 155.5  62.7  34028  287.33 0855.39
2009/04/23 08:32:59.5     -98     46     13    109    110 295.4   6.9  34030  287.38 0855.39
2009/04/23 08:32:59.6    -138    -50     28    147    150 250.0  11.1  34028  287.35 0855.39
2009/04/23 08:32:59.7     -53    -51     24     74     78 226.0  17.9  34030  287.37 0855.39
2009/04/23 08:32:59.8      19   -141    117    143    184 172.0  43.7  34024  287.28 0855.39
2009/04/23 08:32:59.9      28   -127    109    131    170 167.5  44.1  34028  287.35 0855.39
2009/04/23 08:33:00.0     -40   -163     79    168    185 194.0  27.1  34028  287.33 0855.39
2009/04/23 08:33:00.1     -68   -132     56    149    159 207.2  21.5  34026  287.32 0855.39
2009/04/23 08:33:00.2    -102   -116     52    155    164 221.5  18.6  34028  287.33 0855.39
2009/04/23 08:33:00.3     -59    -66     85     89    123 221.9  49.0  34024  287.28 0855.39
2009/04/23 08:33:00.4     -44    -28     70     53     87 237.6  59.0  34026  287.30 0855.39
2009/04/23 08:33:00.5     -97      0     11     98     99 270.0   6.5  34026  287.30 0855.39
2009/04/23 08:33:00.6     -89     19    -59     92    109 282.4 -40.0  34030  287.37 0855.39
2009/04/23 08:33:00.7    -103    145    -61    179    189 324.6 -23.6  34028  287.33 0855.39
2009/04/23 08:33:00.8    -106    112    -96    155    182 316.7 -39.4  34032  287.42 0855.39
2009/04/23 08:33:00.9    -125     64    -89    141    166 297.1 -39.9  34032  287.40 0855.39
2009/04/23 08:33:01.0    -108     53   -120    121    170 296.2 -54.6  34030  287.37 0855.39
2009/04/23 08:33:01.1     -30     63    -91     70    114 334.5 -62.9  34032  287.40 0855.38
2009/04/23 08:33:01.2      50    -39    -87     64    108 127.8 -64.4  34030  287.37 0855.38
2009/04/23 08:33:01.3     -17    -54   -126     57    138 198.3 -78.9  34028  287.35 0855.38
2009/04/23 08:33:01.4      24   -119   -105    122    160 168.4 -49.8  34032  287.42 0855.38
2009/04/23 08:33:01.5      43   -130    -92    137    165 161.7 -41.4  34028  287.35 0855.38
2009/04/23 08:33:01.6     -56   -101    -41    116    123 209.4 -24.4  34030  287.38 0855.38
2009/04/23 08:33:01.7    -115      8     -2    116    117 274.3  -1.3  34026  287.32 0855.38
2009/04/23 08:33:01.8     -93    -22     45     96    106 256.3  27.1  34030  287.37 0855.38
2009/04/23 08:33:01.9    -153     21     62    155    166 277.9  23.0  34026  287.30 0855.38
2009/04/23 08:33:02.0    -149     -4     29    150    153 268.3  11.1  34028  287.33 0855.38
2009/04/23 08:33:02.1    -165    -42     24    171    173 255.6   8.2  34028  287.33 0855.38
2009/04/23 08:33:02.2    -149    -48     36    157    162 251.8  12.9  34028  287.35 0855.38
2009/04/23 08:33:02.3     -87    -87     75    124    144 225.1  34.4  34030  287.37 0855.38
2009/04/23 08:33:02.4     -68    -76     25    103    106 221.9  13.7  34030  287.37 0855.38
2009/04/23 08:33:02.5     -51    -60     14     79     81 220.5  10.6  34028  287.35 0855.38
2009/04/23 08:33:02.6     -35    -40      2     54     55 221.4   2.9  34028  287.35 0855.38
2009/04/23 08:33:02.7     -25    -38     14     46     49 214.3  17.3  34028  287.35 0855.38
2009/04/23 08:33:02.8      -9    -38     31     40     50 193.4  42.7  34028  287.35 0855.38
2009/04/23 08:33:02.9      -4    -32     21     33     39 188.0  35.5  34028  287.33 0855.38
2009/04/23 08:33:03.0      -6    -24     31     25     39 195.1  56.4  34028  287.33 0855.38
2009/04/23 08:33:03.1      39      0     53     40     66  90.0  59.4  34030  287.37 0855.37
2009/04/23 08:33:03.2      64     21     56     68     88  71.4  43.8  34028  287.33 0855.37
2009/04/23 08:33:03.3      58     46     85     75    113  51.4  53.7  34026  287.30 0855.37
2009/04/23 08:33:03.4      67    115     50    134    143  30.3  21.0  34030  287.37 0855.37
2009/04/23 08:33:03.5     211     99     82    234    249  64.9  19.4  34032  287.39 0855.37
2009/04/23 08:33:03.6     163     76    101    180    206  64.9  31.4  34032  287.40 0855.37
2009/04/23 08:33:03.7     174     69     57    188    197  68.3  17.1  34030  287.38 0855.37
2009/04/23 08:33:03.8     130    114     72    174    188  48.7  23.6  34030  287.38 0855.37
2009/04/23 08:33:03.9      58     82     70    101    122  35.2  38.0  34030  287.38 0855.37
2009/04/23 08:33:04.0      68     32    102     76    127  64.8  59.0  34028  287.33 0855.37
2009/04/23 08:33:04.1      16     50     88     53    102  18.7  66.2  34030  287.38 0855.37
2009/04/23 08:33:04.2      17    102    121    104    159   9.8  55.0  34026  287.32 0855.37
2009/04/23 08:33:04.3     -55     31    126     64    141 299.8  71.0  34026  287.30 0855.37
2009/04/23 08:33:04.4    -158     52    105    167    197 288.4  35.5  34026  287.30 0855.37
2009/04/23 08:33:04.5    -180     77     94    196    217 293.3  27.3  34026  287.32 0855.37
2009/04/23 08:33:04.6    -191     71    118    204    235 290.4  32.4  34028  287.33 0855.37
2009/04/23 08:33:04.7    -253     58     -8    260    261 283.0  -1.8  34028  287.34 0855.37
2009/04/23 08:33:04.8    -197     94    -52    219    226 295.5 -13.4  34026  287.32 0855.37
2009/04/23 08:33:04.9    -168     80    -75    187    201 295.4 -27.4  34026  287.30 0855.37
2009/04/23 08:33:05.0    -185     16    -56    186    194 275.2 -22.1  34026  287.30 0855.37
2009/04/23 08:33:05.1    -208    -19     65    209    219 264.5  17.3  34022  287.23 0855.37
2009/04/23 08:33:05.2     -49    -78     55     93    108 212.5  34.0  34022  287.23 0855.37
2009/04/23 08:33:05.3      19    -78     90     81    121 165.7  53.3  34026  287.32 0855.37
2009/04/23 08:33:05.4     -10   -137    109    138    175 184.5  42.4  34024  287.28 0855.37
2009/04/23 08:33:05.5     -17   -122    139    124    186 188.1  53.7  34028  287.33 0855.37
2009/04/23 08:33:05.6     -37   -121    113    127    169 197.0  46.4  34026  287.30 0855.37
2009/04/23 08:33:05.7       6    -78     96     79    124 175.5  56.4  34028  287.33 0855.37
2009/04/23 08:33:05.8     -36   -107     47    114    123 198.7  23.1  34028  287.33 0855.37
2009/04/23 08:33:05.9     -59   -126     49    140    149 204.9  19.4  34026  287.32 0855.37
2009/04/23 08:33:06.0     -35   -117     69    123    141 197.0  31.4  34024  287.28 0855.37
2009/04/23 08:33:06.1     -33   -120     95    125    157 195.6  41.4  34026  287.32 0855.37
2009/04/23 08:33:06.2     -47   -169    129    176    218 195.8  39.7  34028  287.35 0855.37
2009/04/23 08:33:06.3     -88   -230    145    247    286 201.0  33.4  34028  287.34 0855.37
2009/04/23 08:33:06.4     -56   -208    207    216    299 195.2  49.0  34026  287.29 0855.37
2009/04/23 08:33:06.5      -6   -134    168    135    215 182.7  56.9  34024  287.28 0855.37
2009/04/23 08:33:06.6      19    -53     74     57     93 160.0  57.9  34026  287.32 0855.37
2009/04/23 08:33:06.7       3   -123     86    124    150 178.6  38.0  34030  287.37 0855.37
2009/04/23 08:33:06.8      16    -86     91     88    126 169.3  50.7  34024  287.28 0855.37
2009/04/23 08:33:06.9      33    -33     72     47     85 135.0  64.1  34020  287.21 0855.37
2009/04/23 08:33:07.0      16    -13     44     21     48 129.5  74.0  34018  287.18 0855.37
2009/04/23 08:33:07.1      27     29     42     40     58  43.4  49.1  34018  287.16 0855.36
2009/04/23 08:33:07.2     -21     25     -1     33     34 320.4  -2.2  34020  287.20 0855.36
2009/04/23 08:33:07.3     -56     41    -14     70     72 306.0 -11.3  34020  287.20 0855.36
2009/04/23 08:33:07.4    -154    -31    -58    158    168 258.5 -25.4  34024  287.27 0855.36
2009/04/23 08:33:07.5    -128    124     29    179    182 314.2   9.5  34010  287.05 0855.36
2009/04/23 08:33:07.6    -193    316     46    371    374 328.5   7.2  34022  287.23 0855.36
2009/04/23 08:33:07.7    -163     73    191    179    261 294.2  52.1  34022  287.24 0855.36
2009/04/23 08:33:07.8    -180    -49    145    187    236 254.7  41.7  34024  287.28 0855.36
2009/04/23 08:33:07.9    -128    -60     23    142    144 244.8   9.5  34022  287.23 0855.36
2009/04/23 08:33:08.0     -78    -17     50     81     95 257.2  35.5  34024  287.27 0855.36
2009/04/23 08:33:08.1    -126     25     39    129    135 281.5  16.8  34026  287.30 0855.36
2009/04/23 08:33:08.2     -51    -97     50    110    120 208.1  26.2  34024  287.27 0855.36
2009/04/23 08:33:08.3     -33    -99     11    105    106 198.7   6.5  34022  287.25 0855.36
2009/04/23 08:33:08.4       0   -176      0    177    178 180.2   0.0  34024  287.28 0855.36
2009/04/23 08:33:08.5      98   -157     60    186    196 148.1  17.9  34022  287.25 0855.36
2009/04/23 08:33:08.6      72    -93     73    118    138 142.2  35.0  34022  287.25 0855.36
2009/04/23 08:33:08.7       4    -40     91     41     99 173.8  74.0  34018  287.18 0855.36
2009/04/23 08:33:08.8      -7     35    106     36    111 348.4  81.2  34030  287.37 0855.36
2009/04/23 08:33:08.9     -65     26    108     71    129 291.8  64.1  34026  287.32 0855.36
2009/04/23 08:33:09.0     -68    -56    119     89    148 230.5  59.4  34024  287.27 0855.36
2009/04/23 08:33:09.1     -56    -67     97     88    130 220.1  53.3  34022  287.25 0855.37
2009/04/23 08:33:09.2     -34    -91    100     98    140 200.5  50.1  34028  287.33 0855.37
2009/04/23 08:33:09.3     -77   -152     97    171    196 207.0  32.1  34026  287.30 0855.37
2009/04/23 08:33:09.4     -84   -171     77    191    205 206.1  23.1  34022  287.25 0855.37
2009/04/23 08:33:09.5    -136    -92    -24    165    167 235.8  -8.6  34026  287.32 0855.37
2009/04/23 08:33:09.6    -104   -125    -35    163    167 219.9 -12.2  34024  287.28 0855.37
2009/04/23 08:33:09.7     -78   -150     66    170    182 207.4  22.3  34020  287.21 0855.37
2009/04/23 08:33:09.8     -87   -137    103    163    192 212.6  35.5  34022  287.25 0855.37
2009/04/23 08:33:09.9    -114   -114     84    162    182 225.2  29.8  34024  287.27 0855.37
2009/04/23 08:33:10.0    -110    -90     76    143    161 230.5  30.1  34024  287.27 0855.37
2009/04/23 08:33:10.1    -135    -77     66    156    169 240.2  24.6  34022  287.25 0855.37
2009/04/23 08:33:10.2    -133    -55     45    145    152 247.4  17.3  34024  287.27 0855.37
2009/04/23 08:33:10.3    -168   -110     23    202    204 236.7   6.7  34026  287.30 0855.37
2009/04/23 08:33:10.4    -194   -140     12    240    241 234.3   2.9  34028  287.34 0855.37
2009/04/23 08:33:10.5    -223   -127    -66    257    266 240.3 -14.5  34026  287.29 0855.37
2009/04/23 08:33:10.6    -166   -141    -52    219    226 229.6 -13.4  34024  287.28 0855.37
2009/04/23 08:33:10.7    -298   -140    -74    330    339 244.8 -12.7  34020  287.20 0855.37
2009/04/23 08:33:10.8    -247   -204    -95    321    334 230.5 -21.4  34022  287.22 0855.37
2009/04/23 08:33:10.9    -202   -192    -89    279    292 226.4 -22.8  34018  287.16 0855.37
2009/04/23 08:33:11.0    -271   -155    -92    313    327 240.2 -16.5  34016  287.12 0855.37
2009/04/23 08:33:11.1    -174   -113    -61    208    217 236.9 -16.4  34014  287.11 0855.37
2009/04/23 08:33:11.2     -97   -152    -23    181    183 212.5  -7.3  34024  287.27 0855.37
2009/04/23 08:33:11.3     -42   -126    -61    134    147 198.7 -31.0  34024  287.27 0855.37
2009/04/23 08:33:11.4     -41   -189    -60    194    204 192.5 -17.3  34022  287.23 0855.37
2009/04/23 08:33:11.5     -99   -287    -44    304    308 199.2  -8.2  34026  287.29 0855.37
2009/04/23 08:33:11.6    -163   -216    -57    271    277 217.0 -11.9  34016  287.14 0855.37
2009/04/23 08:33:11.7    -196   -252    -99    320    336 217.9 -17.2  34026  287.29 0855.37
2009/04/23 08:33:11.8    -184   -252   -111    313    333 216.1 -19.5  34022  287.22 0855.37
2009/04/23 08:33:11.9    -139   -219    -85    260    274 212.5 -18.1  34024  287.26 0855.37
2009/04/23 08:33:12.0     -69   -154     37    169    174 204.3  12.4  34020  287.20 0855.37
2009/04/23 08:33:12.1     -49   -137      3    146    147 200.0   1.2  34022  287.23 0855.38
2009/04/23 08:33:12.2     -44   -146     -1    153    154 196.9  -0.7  34024  287.27 0855.38
2009/04/23 08:33:12.3     -31   -109     83    114    141 196.0  39.7  34024  287.28 0855.38
2009/04/23 08:33:12.4     -74   -112     77    135    155 213.4  32.4  34026  287.30 0855.38
2009/04/23 08:33:12.5     -90    -48     38    103    109 241.6  20.4  34022  287.23 0855.38
2009/04/23 08:33:12.6     -61    -43      3     75     76 234.9   2.8  34024  287.27 0855.38
2009/04/23 08:33:12.7     -83    -30    -23     89     92 250.0 -14.5  34028  287.33 0855.38
2009/04/23 08:33:12.8    -135    -86    -39    161    166 237.6 -13.7  34028  287.35 0855.38
2009/04/23 08:33:12.9    -217    -71    -90    229    246 251.8 -26.9  34018  287.16 0855.38
2009/04/23 08:33:13.0    -301    -68   -172    309    353 257.2 -35.8  34024  287.27 0855.38
2009/04/23 08:33:13.1    -194    -75   -149    209    256 248.7 -43.5  34018  287.16 0855.38
2009/04/23 08:33:13.2    -208   -135     54    249    255 236.9  12.4  34008  286.99 0855.38
2009/04/23 08:33:13.3    -329   -201    -63    386    392 238.6  -9.4  34022  287.22 0855.38
2009/04/23 08:33:13.4    -290   -110   -106    311    329 249.2 -19.0  34022  287.24 0855.38
2009/04/23 08:33:13.5    -274   -186   -101    332    347 235.9 -22.1  34024  287.27 0855.38
2009/04/23 08:33:13.6    -147   -201   -114    250    274 216.3 -30.6  34020  287.21 0855.38
2009/04/23 08:33:13.7     -84   -245    -85    260    274 198.9 -18.1  34024  287.26 0855.38
2009/04/23 08:33:13.8     -77   -257   -130    269    298 196.7 -31.7  34018  287.17 0855.38
2009/04/23 08:33:13.9    -184   -172   -140    253    289 226.9 -35.8  34018  287.17 0855.38
2009/04/23 08:33:14.0    -127    -92   -102    158    188 234.0 -40.0  34020  287.20 0855.38
2009/04/23 08:33:14.1     -82   -223   -141    238    276 200.3 -37.9  34022  287.22 0855.38
2009/04/23 08:33:14.2     -49   -341   -103    345    361 188.3 -16.7  34022  287.23 0855.38
2009/04/23 08:33:14.3     -99   -248   -108    268    288 201.9 -27.4  34016  287.12 0855.38
2009/04/23 08:33:14.4    -246   -164    -46    296    300 236.3  -9.0  34018  287.16 0855.38
2009/04/23 08:33:14.5    -157   -155      1    221    222 225.3   0.5  34018  287.18 0855.38
2009/04/23 08:33:14.6    -199   -186    -64    273    281 226.9 -13.3  34022  287.22 0855.38
2009/04/23 08:33:14.7    -223   -178    -90    286    301 231.4 -17.6  34020  287.21 0855.38
2009/04/23 08:33:14.8    -100   -322     -1    338    339 197.3  -0.2  34020  287.20 0855.38
2009/04/23 08:33:14.9     -69   -248     -1    258    259 195.6  -0.3  34020  287.21 0855.38
2009/04/23 08:33:15.0    -215   -136    -42    255    259 237.5  -9.3  34018  287.16 0855.38
2009/04/23 08:33:15.1    -168    -37    -51    173    181 257.6 -16.6  34014  287.10 0855.38
2009/04/23 08:33:15.2    -117   -183     26    218    220 212.7   6.9  34020  287.20 0855.38
2009/04/23 08:33:15.3    -146   -223      0    267    268 213.2   0.0  34018  287.17 0855.38
2009/04/23 08:33:15.4    -222   -257    -79    340    350 220.9 -13.1  34012  287.08 0855.38
2009/04/23 08:33:15.5    -294   -326    -24    440    441 222.0  -3.2  34014  287.09 0855.38
2009/04/23 08:33:15.6    -134   -358    -98    383    396 200.6 -14.4  34026  287.30 0855.38
2009/04/23 08:33:15.7     -76   -369    -14    377    378 191.7  -2.2  34022  287.22 0855.38
2009/04/23 08:33:15.8    -262   -392   -105    472    484 213.8 -12.6  34022  287.25 0855.38
2009/04/23 08:33:15.9    -172   -428    -25    462    463 201.9  -3.2  34020  287.21 0855.38
2009/04/23 08:33:16.0    -136   -359    -78    385    393 200.8 -11.5  34018  287.17 0855.38
2009/04/23 08:33:16.1    -147   -368    -65    397    403 201.8  -9.3  34016  287.15 0855.37
2009/04/23 08:33:16.2     -74   -310     81    319    330 193.5  14.3  34016  287.14 0855.37
2009/04/23 08:33:16.3      -9   -360    134    361    385 181.5  21.1  34016  287.15 0855.37
2009/04/23 08:33:16.4     -63   -399    130    405    426 189.0  17.8  34018  287.18 0855.37
2009/04/23 08:33:16.5    -133   -383    100    406    419 199.2  13.9  34020  287.19 0855.37
2009/04/23 08:33:16.6     -96   -385    167    397    430 194.0  24.2  34018  287.18 0855.37
2009/04/23 08:33:16.7     -78   -406    237    414    477 191.0  32.4  34024  287.26 0855.37
2009/04/23 08:33:16.8    -155   -410    168    439    470 200.7  22.0  34024  287.26 0855.37
2009/04/23 08:33:16.9    -170   -424    125    457    474 201.9  15.3  34026  287.29 0855.37
2009/04/23 08:33:17.0    -182   -412     51    451    454 203.8   6.5  34026  287.31 0855.37
2009/04/23 08:33:17.1    -208   -363      8    419    420 209.8   1.2  34024  287.28 0855.37
2009/04/23 08:33:17.2    -250   -288     -8    382    383 221.0  -1.3  34022  287.23 0855.37
2009/04/23 08:33:17.3    -161   -311     34    351    353 207.4   5.7  34026  287.29 0855.37
2009/04/23 08:33:17.4    -177   -321     20    367    368 208.9   3.1  34026  287.29 0855.37
2009/04/23 08:33:17.5    -174   -347     38    389    391 206.7   5.7  34022  287.22 0855.37
2009/04/23 08:33:17.6    -153   -324     53    359    364 205.3   8.5  34024  287.27 0855.37
2009/04/23 08:33:17.7    -193   -306    -32    363    365 212.3  -5.1  34026  287.32 0855.37
2009/04/23 08:33:17.8    -154   -314    -32    350    352 206.1  -5.3  34026  287.30 0855.37
2009/04/23 08:33:17.9    -114   -336      4    356    357 198.8   0.7  34026  287.32 0855.37
2009/04/23 08:33:18.0    -117   -319     -5    340    341 200.2  -0.9  34022  287.22 0855.37
2009/04/23 08:33:18.1    -146   -351    -20    381    382 202.6  -3.1  34018  287.18 0855.36
2009/04/23 08:33:18.2    -226   -345    -37    413    415 213.3  -5.2  34020  287.21 0855.36
2009/04/23 08:33:18.3    -262   -234    -53    352    356 228.2  -8.6  34022  287.23 0855.36
2009/04/23 08:33:18.4    -213   -105    -79    238    250 243.8 -23.8  34022  287.24 0855.36
2009/04/23 08:33:18.5     -44   -199    -64    204    213 192.7 -22.8  34024  287.27 0855.36
2009/04/23 08:33:18.6    -100   -210   -122    233    263 205.5 -34.5  34022  287.24 0855.36
2009/04/23 08:33:18.7    -178   -198    -96    267    283 222.1 -24.8  34026  287.29 0855.36
2009/04/23 08:33:18.8    -181   -152   -160    237    285 229.8 -41.8  34026  287.31 0855.36
2009/04/23 08:33:18.9       0   -181   -168    182    247 180.2 -52.1  34024  287.27 0855.36
2009/04/23 08:33:19.0     -82   -217    -87    233    248 200.7 -25.7  34022  287.22 0855.36
2009/04/23 08:33:19.1    -134   -162   -192    211    285 219.6 -51.3  34022  287.24 0855.36
2009/04/23 08:33:19.2     -38   -163   -105    168    198 193.4 -39.4  34022  287.23 0855.36
2009/04/23 08:33:19.3    -154   -113   -121    192    226 233.8 -39.9  34024  287.27 0855.36
2009/04/23 08:33:19.4    -115   -242    -14    269    270 205.5  -3.1  34020  287.19 0855.36
2009/04/23 08:33:19.5     -74   -243   -107    255    276 197.0 -28.5  34018  287.16 0855.36
2009/04/23 08:33:19.6    -134   -256    -88    289    302 207.6 -21.8  34020  287.19 0855.36
2009/04/23 08:33:19.7    -136   -268   -107    301    320 207.0 -19.7  34024  287.26 0855.36
2009/04/23 08:33:19.8     -82   -250   -115    264    287 198.3 -29.5  34026  287.29 0855.36
2009/04/23 08:33:19.9     -35   -246    -87    249    264 188.1 -19.4  34022  287.24 0855.36
2009/04/23 08:33:20.0    -111   -168    -73    202    214 213.4 -25.1  34022  287.25 0855.36
2009/04/23 08:33:20.1    -201   -143    -87    248    262 234.5 -24.4  34024  287.26 0855.37
2009/04/23 08:33:20.2     -90   -137   -101    165    193 213.4 -39.4  34020  287.21 0855.37
2009/04/23 08:33:20.3       0   -128    -41    129    136 180.4 -17.6  34022  287.25 0855.37
2009/04/23 08:33:20.4      46   -151     -6    158    159 163.0  -2.3  34024  287.28 0855.37
2009/04/23 08:33:20.6       2   -141     22    142    144 179.0   8.9  34024  287.27 0855.37
2009/04/23 08:33:20.6      -9   -138     -5    139    140 184.0  -2.2  34022  287.25 0855.37
2009/04/23 08:33:20.7      40   -142    -31    148    152 164.0 -11.9  34022  287.25 0855.37
2009/04/23 08:33:20.9     -21    -21   -129     31    132 225.0 -90.0  34018  287.18 0855.37
2009/04/23 08:33:21.0     -14    -16   -122     22    123 219.6 -90.0  34020  287.20 0855.37
2009/04/23 08:33:21.1     -59   -134   -125    147    192 203.7 -49.2  34020  287.20 0855.37
2009/04/23 08:33:21.2     -85   -195   -123    213    245 203.7 -37.1  34022  287.24 0855.37
2009/04/23 08:33:21.3     -50   -205   -131    212    249 193.8 -39.2  34022  287.22 0855.37
2009/04/23 08:33:21.4      -6   -182   -143    183    232 182.0 -46.4  34020  287.21 0855.37
2009/04/23 08:33:21.5      -2   -155   -150    156    216 180.9 -53.1  34020  287.20 0855.37
2009/04/23 08:33:21.6      59   -149   -152    161    221 158.2 -52.4  34022  287.23 0855.37
2009/04/23 08:33:21.7      86   -104    -92    136    164 140.4 -41.7  34020  287.21 0855.37
2009/04/23 08:33:21.8     135    -67   -132    151    200 116.6 -50.2  34018  287.18 0855.37
2009/04/23 08:33:21.9     136   -140   -175    196    262 135.9 -51.0  34024  287.28 0855.37
2009/04/23 08:33:22.0      38   -300   -220    303    374 172.7 -43.9  34020  287.20 0855.37
2009/04/23 08:33:22.1     -14   -276   -203    277    343 182.9 -44.3  34018  287.17 0855.37
2009/04/23 08:33:22.2     -16   -260   -111    261    283 183.6 -29.3  34022  287.22 0855.38
2009/04/23 08:33:22.3      29   -149   -161    152    221 168.9 -56.5  34020  287.20 0855.38
2009/04/23 08:33:22.4     -15   -197   -156    198    252 184.4 -46.8  34022  287.22 0855.38
2009/04/23 08:33:22.5       0   -261   -124    262    289 180.0 -31.6  34020  287.21 0855.38
2009/04/23 08:33:22.6     -47   -204    -79    210    224 193.1 -25.7  34022  287.25 0855.38
2009/04/23 08:33:22.7     -36   -223     70    227    238 189.3  17.3  34020  287.21 0855.38
2009/04/23 08:33:22.8    -102   -194     59    220    228 207.9  15.2  34018  287.18 0855.38
2009/04/23 08:33:22.9    -111   -174     10    207    208 212.5   2.9  34018  287.16 0855.38
2009/04/23 08:33:23.0    -147   -147    -59    208    216 225.0 -20.2  34022  287.23 0855.38
2009/04/23 08:33:23.1    -158   -101    -29    188    191 237.4  -8.8  34012  287.06 0855.38
2009/04/23 08:33:23.2    -267     11   -141    268    302 272.5 -34.2  34024  287.26 0855.38
2009/04/23 08:33:23.3    -192    -22   -181    194    265 263.2 -52.3  34026  287.29 0855.38
2009/04/23 08:33:23.4    -128      3   -174    129    216 271.7 -64.4  34026  287.32 0855.38
2009/04/23 08:33:23.5     -97    -96    -67    137    152 225.1 -31.7  34024  287.27 0855.38
2009/04/23 08:33:23.6    -247   -162    -82    296    308 236.7 -15.5  34024  287.26 0855.38
2009/04/23 08:33:23.7    -142    -96   -115    172    206 235.9 -41.4  34022  287.23 0855.38
2009/04/23 08:33:23.8    -163    -95   -164    189    250 239.6 -49.8  34026  287.30 0855.38
2009/04/23 08:33:23.9    -223    -58   -140    231    270 255.4 -38.6  34026  287.29 0855.38
2009/04/23 08:33:24.0    -188     -6   -177    189    258 268.1 -52.4  34030  287.36 0855.38
2009/04/23 08:33:24.1    -190     15   -212    191    285 274.8 -57.9  34040  287.55 0855.38
2009/04/23 08:33:24.2    -171     26   -181    174    251 278.8 -55.6  34032  287.40 0855.39
2009/04/23 08:33:24.3    -146     20   -182    148    234 278.0 -61.0  34028  287.35 0855.39
2009/04/23 08:33:24.4    -181     26   -199    183    270 278.4 -56.9  34024  287.28 0855.39
2009/04/23 08:33:24.5    -139      7   -152    140    206 273.0 -56.9  34020  287.20 0855.39
2009/04/23 08:33:24.6    -168     32   -134    172    218 281.0 -46.1  34018  287.16 0855.39
2009/04/23 08:33:24.7    -203    100   -220    227    316 296.4 -53.5  34018  287.17 0855.39
2009/04/23 08:33:24.8    -218    117   -183    248    308 298.2 -44.3  34026  287.31 0855.39
2009/04/23 08:33:24.9    -185     63   -192    196    274 288.8 -54.2  34026  287.29 0855.39
2009/04/23 08:33:25.0     -29      1   -136     30    139 272.6 -90.0  34026  287.30 0855.39
2009/04/23 08:33:25.1     -74    -13   -119     76    141 259.4 -69.1  34024  287.28 0855.39
2009/04/23 08:33:25.2     -19    -19   -107     27    110 225.0 -90.0  34024  287.28 0855.39
2009/04/23 08:33:25.3     -22    -84   -150     87    173 195.1 -71.6  34024  287.28 0855.39
2009/04/23 08:33:25.4    -102    -33   -146    108    181 251.8 -64.4  34026  287.32 0855.39
2009/04/23 08:33:25.5     -33    -40   -111     53    123 219.6 -77.3  34026  287.30 0855.39
2009/04/23 08:33:25.6      -9    -65    -84     66    106 188.0 -61.9  34024  287.28 0855.39
2009/04/23 08:33:25.7      48   -169    -61    176    187 164.0 -19.1  34028  287.35 0855.39
2009/04/23 08:33:25.8      -1   -203    -77    204    218 180.5 -25.9  34024  287.28 0855.39
2009/04/23 08:33:25.9      32   -238    -83    241    254 172.2 -24.3  34024  287.28 0855.39
2009/04/23 08:33:26.0       9   -206    -65    207    218 177.3 -17.5  34022  287.25 0855.39
2009/04/23 08:33:26.1     -32   -240    -54    243    250 187.8 -12.6  34024  287.28 0855.39
2009/04/23 08:33:26.2     -13   -282    -15    283    284 182.7  -3.2  34026  287.29 0855.40
2009/04/23 08:33:26.3    -157   -273    -95    315    329 209.9 -16.8  34024  287.26 0855.40
2009/04/23 08:33:26.4     -39   -209     25    213    215 190.7   6.9  34024  287.27 0855.40
2009/04/23 08:33:26.5      10   -237     29    238    240 177.4   7.1  34024  287.26 0855.40
2009/04/23 08:33:26.6      43   -205     -4    210    211 168.0  -1.3  34024  287.28 0855.40
2009/04/23 08:33:26.7      22   -218     81    220    234 174.0  21.0  34022  287.25 0855.40
2009/04/23 08:33:26.8       3   -230    112    231    256 179.1  27.4  34028  287.34 0855.40
2009/04/23 08:33:26.9      93    -98    127    136    186 136.7  47.9  34026  287.32 0855.40
2009/04/23 08:33:27.0      50    -70    115     87    144 144.4  59.4  34024  287.27 0855.40
2009/04/23 08:33:27.1     -23    -69    151     73    167 198.7  72.7  34036  287.49 0855.40
2009/04/23 08:33:27.2      15      1    150     16    150  85.6  90.0  34046  287.65 0855.40
2009/04/23 08:33:27.3      94    -88    107    129    167 133.2  44.1  34032  287.42 0855.40
2009/04/23 08:33:27.4      95    -31    113    100    150 108.2  54.2  34028  287.33 0855.40
2009/04/23 08:33:27.5     -50     16     95     53    108 288.6  68.8  34054  287.79 0855.40
2009/04/23 08:33:27.6     -31    -19     57     37     67 237.6  64.6  34054  287.77 0855.40
2009/04/23 08:33:27.7      39     -7     83     40     92 100.6  72.9  34038  287.52 0855.40
2009/04/23 08:33:27.8       7     45     26     46     52   9.8  32.4  34036  287.47 0855.40
2009/04/23 08:33:27.9      17      0     25     18     30  90.0  60.5  34034  287.43 0855.40
2009/04/23 08:33:28.0      45    -48     29     67     73 136.8  25.1  34028  287.35 0855.40
2009/04/23 08:33:28.1     122    -12     71    123    142  95.7  32.4  34026  287.32 0855.40
2009/04/23 08:33:28.2     137    -27    116    140    181 101.4  43.8  34030  287.37 0855.40
2009/04/23 08:33:28.3     101    -10    112    102    151  95.7  52.2  34030  287.38 0855.40
2009/04/23 08:33:28.4     130     35    126    135    184  74.9  48.0  34026  287.30 0855.40
2009/04/23 08:33:28.5      13     17    142     22    143  37.8  90.0  34030  287.38 0855.40
2009/04/23 08:33:28.6      86     50     97    100    139  59.8  49.4  34028  287.33 0855.40
2009/04/23 08:33:28.7     122     72     69    142    157  59.4  27.8  34026  287.30 0855.40
2009/04/23 08:33:28.8     113     93     80    147    167  50.5  30.6  34026  287.32 0855.40
2009/04/23 08:33:28.9      99     87     98    133    165  48.7  39.9  34028  287.35 0855.40
2009/04/23 08:33:29.0      63     77    107    100    146  39.6  52.1  34028  287.35 0855.40
2009/04/23 08:33:29.1      85     96    113    129    171  41.5  45.8  34030  287.38 0855.40
2009/04/23 08:33:29.2      69    125    116    144    184  29.0  43.3  34028  287.35 0855.40
2009/04/23 08:33:29.3      56     70     91     90    127  38.7  50.1  34028  287.35 0855.40
2009/04/23 08:33:29.4      85     68    149    110    185  51.4  60.3  34026  287.32 0855.40
2009/04/23 08:33:29.5      52     75    118     92    149  34.7  57.9  34032  287.40 0855.40
2009/04/23 08:33:29.6      16     23    125     29    128  34.3  87.0  34042  287.59 0855.40
2009/04/23 08:33:29.7       4    -12    114     13    114 161.7  90.0  34046  287.64 0855.40
2009/04/23 08:33:29.8      42    -26    164     50    171 121.5  82.5  34048  287.67 0855.40
2009/04/23 08:33:29.9      57    -18    146     60    157 108.2  76.6  34050  287.70 0855.40
2009/04/23 08:33:30.0      87    -27    178     92    200 107.3  70.8  34032  287.42 0855.40
2009/04/23 08:33:30.1      89     77    127    118    173  49.1  52.2  34028  287.33 0855.40
2009/04/23 08:33:30.2     125     49    156    135    206  68.3  54.8  34028  287.33 0855.40
2009/04/23 08:33:30.3      76     24    152     80    171  72.3  70.4  34030  287.37 0855.40
2009/04/23 08:33:30.4     126     77    158    148    216  58.5  52.1  34030  287.38 0855.40
2009/04/23 08:33:30.5      66     46    134     81    156  54.9  65.7  34028  287.35 0855.40
2009/04/23 08:33:30.6     -12    -33    105     36    111 200.0  81.2  34034  287.43 0855.40
2009/04/23 08:33:30.7      49      0    123     50    132  90.0  77.1  34034  287.43 0855.40
2009/04/23 08:33:30.8      81    -15    127     83    151 100.6  64.6  34036  287.49 0855.40
2009/04/23 08:33:30.9      79     -5    139     80    160  94.3  67.7  34042  287.57 0855.40
2009/04/23 08:33:31.0     201     -6    159    202    257  91.7  42.2  34032  287.41 0855.40
2009/04/23 08:33:31.1     127     23     81    130    153  79.4  35.5  34030  287.37 0855.40
2009/04/23 08:33:31.2      46     70    159     84    179  33.4  70.0  34032  287.42 0855.40
2009/04/23 08:33:31.3      32     97    131    103    166  18.3  57.7  34032  287.42 0855.40
2009/04/23 08:33:31.4      -5     92     95     93    132 356.9  50.1  34028  287.33 0855.40
2009/04/23 08:33:31.5       1      8    104      9    104  11.6  90.0  34034  287.45 0855.40
2009/04/23 08:33:31.6       4     52     86     53    101   4.5  65.1  34030  287.37 0855.40
2009/04/23 08:33:31.7      42     42     95     60    112  45.0  64.7  34028  287.35 0855.40
2009/04/23 08:33:31.8     105    105    107    149    183  45.0  39.3  34028  287.33 0855.40
2009/04/23 08:33:31.9     151     85    137    174    221  60.7  42.2  34028  287.33 0855.40
2009/04/23 08:33:32.0     132     99    169    166    236  53.1  50.7  34026  287.32 0855.40
2009/04/23 08:33:32.1     148     50    158    157    222  71.4  50.1  34026  287.32 0855.40
2009/04/23 08:33:32.2      63     63    162     90    185  45.0  68.8  34028  287.33 0855.40
2009/04/23 08:33:32.3      68     96    153    118    193  35.2  58.7  34024  287.27 0855.40
2009/04/23 08:33:32.4      84     64    153    106    186  52.7  62.1  34020  287.20 0855.40
2009/04/23 08:33:32.5      41     84    137     94    166  26.3  62.6  34026  287.30 0855.40
2009/04/23 08:33:32.6       4     88    160     89    183   2.7  68.8  34026  287.32 0855.40
2009/04/23 08:33:32.7     -24     56    148     62    160 336.4  76.1  34028  287.35 0855.40
2009/04/23 08:33:32.8     -11     39    117     41    123 344.0  80.7  34026  287.30 0855.40
2009/04/23 08:33:32.9     -46    -15    122     49    131 251.6  77.1  34032  287.40 0855.40
2009/04/23 08:33:33.0    -129    -23    122    132    179 259.9  47.9  34024  287.27 0855.40
2009/04/23 08:33:33.1     -74    -91    113    118    163 219.2  49.0  34032  287.40 0855.40
2009/04/23 08:33:33.2      29   -113    114    117    163 165.3  49.4  34024  287.27 0855.40
2009/04/23 08:33:33.3     -81   -134     61    157    168 211.2  22.3  34026  287.32 0855.40
2009/04/23 08:33:33.5     -40   -181    125    186    224 192.7  37.0  34022  287.25 0855.40
2009/04/23 08:33:33.5     -36   -207    148    211    257 190.0  38.6  34026  287.29 0855.40
2009/04/23 08:33:33.6     -63   -160    106    173    202 201.6  34.4  34024  287.28 0855.40
2009/04/23 08:33:33.7     -80   -240    118    254    280 198.5  26.6  34026  287.29 0855.40
2009/04/23 08:33:33.8     -27   -236     56    238    245 186.7  13.2  34036  287.48 0855.40
2009/04/23 08:33:33.9      86   -157    115    179    212 151.3  35.6  34048  287.67 0855.40
2009/04/23 08:33:34.0      98   -188    128    213    248 152.4  34.0  34032  287.41 0855.40
2009/04/23 08:33:34.1     133     -9     97    134    165  93.9  39.3  34042  287.59 0855.40
2009/04/23 08:33:34.2     128   -147    115    196    227 139.0  33.4  34032  287.40 0855.40
2009/04/23 08:33:34.3     145   -136    150    200    250 133.1  40.7  34030  287.38 0855.40
2009/04/23 08:33:34.4     131   -124    160    181    241 133.6  46.2  34034  287.45 0855.40
2009/04/23 08:33:34.5     171   -222    189    281    338 142.4  37.2  34030  287.38 0855.40
2009/04/23 08:33:34.6     197   -148    217    247    328 127.1  45.8  34034  287.44 0855.40
2009/04/23 08:33:34.7     111   -169    172    203    266 146.6  44.5  34032  287.39 0855.40
2009/04/23 08:33:34.8     134   -283    197    314    370 154.7  35.3  34034  287.44 0855.40
2009/04/23 08:33:34.9      76   -158    131    176    219 154.1  40.1  34032  287.42 0855.40
2009/04/23 08:33:35.0      32   -156    147    160    217 168.4  47.7  34040  287.54 0855.40
2009/04/23 08:33:35.1     166   -204    123    264    291 140.8  27.0  34038  287.51 0855.40
2009/04/23 08:33:35.2     102   -123    139    161    212 140.4  45.6  34038  287.52 0855.39
2009/04/23 08:33:35.3     115   -181    175    215    277 147.5  43.5  34032  287.39 0855.39
2009/04/23 08:33:35.4     209   -209    150    296    331 135.0  29.1  34026  287.31 0855.39
2009/04/23 08:33:35.5     107   -214    140    240    277 153.3  33.1  34036  287.46 0855.39
2009/04/23 08:33:35.6     109   -159     74    194    207 145.5  21.7  34020  287.21 0855.39
2009/04/23 08:33:35.7     105   -167     69    198    210 147.9  19.2  34022  287.23 0855.39
2009/04/23 08:33:35.8      71   -128     89    147    171 151.1  34.4  34018  287.18 0855.39
2009/04/23 08:33:35.9     133   -180     49    224    230 143.5  12.4  34022  287.23 0855.39
2009/04/23 08:33:36.0     138   -232     94    271    288 149.2  19.2  34022  287.22 0855.39
2009/04/23 08:33:36.1     109   -260     99    283    301 157.2  19.4  34020  287.21 0855.39
2009/04/23 08:33:36.2     155   -291    119    330    350 151.9  20.4  34022  287.23 0855.39
2009/04/23 08:33:36.3     164   -293    152    337    369 150.7  25.9  34022  287.22 0855.39
2009/04/23 08:33:36.4     150   -289    173    326    369 152.6  30.2  34022  287.25 0855.39
2009/04/23 08:33:36.5     162   -228    199    280    343 144.6  39.1  34020  287.21 0855.39
2009/04/23 08:33:36.6     128   -249    205    281    347 152.8  39.7  34024  287.28 0855.39
2009/04/23 08:33:36.7     139   -204    162    248    296 145.7  36.3  34020  287.19 0855.39
2009/04/23 08:33:36.8      76   -112    140    136    195 145.7  50.4  34030  287.38 0855.39
2009/04/23 08:33:36.9     113   -203    150    233    277 150.8  35.6  34032  287.39 0855.39
2009/04/23 08:33:37.0      83   -202    119    219    249 157.5  30.8  34028  287.33 0855.39
2009/04/23 08:33:37.1     -63   -188     34    199    203 198.7   9.9  34036  287.47 0855.39
2009/04/23 08:33:37.2    -196      0    105    197    223 269.9  30.6  34024  287.28 0855.38
2009/04/23 08:33:37.3    -114    -37     80    120    144 251.8  36.5  34030  287.37 0855.38
2009/04/23 08:33:37.4      54   -137    122    148    191 158.6  43.8  34018  287.18 0855.38
2009/04/23 08:33:37.5     168   -223    175    280    330 143.0  35.2  34034  287.44 0855.38
2009/04/23 08:33:37.6     102   -199    155    224    272 152.9  37.8  34036  287.46 0855.38
2009/04/23 08:33:37.7     -50    -93    121    106    160 208.5  54.3  34044  287.60 0855.38
2009/04/23 08:33:37.8      82   -129    101    153    183 147.5  36.3  34034  287.45 0855.38
2009/04/23 08:33:37.9      50   -115     93    126    156 156.4  40.4  34034  287.43 0855.38
2009/04/23 08:33:38.0     115   -122    -59    168    179 136.6 -19.6  34024  287.28 0855.38
2009/04/23 08:33:38.1      87   -136    -61    162    173 147.5 -25.7  34024  287.28 0855.38
2009/04/23 08:33:38.2      63   -133    -18    148    150 154.5  -7.2  34024  287.28 0855.38
2009/04/23 08:33:38.3      51   -112    -22    124    127 155.5 -10.3  34028  287.33 0855.38
2009/04/23 08:33:38.4      55    -85    -13    102    103 147.0  -7.3  34024  287.28 0855.38
2009/04/23 08:33:38.5      34    -93     44    100    109 160.0  25.7  34026  287.30 0855.38
2009/04/23 08:33:38.6      45   -120     51    129    138 159.5  23.0  34024  287.28 0855.38
2009/04/23 08:33:38.7      57   -144     42    156    162 158.2  15.3  34024  287.27 0855.38
2009/04/23 08:33:38.8      69   -100     50    122    131 145.3  23.1  34026  287.32 0855.38
2009/04/23 08:33:38.9      76   -138     37    158    163 151.1  13.2  34024  287.28 0855.38
2009/04/23 08:33:39.0      66   -174     52    187    195 159.1  15.6  34026  287.32 0855.38
2009/04/23 08:33:39.1      60   -191     80    201    216 162.6  23.0  34028  287.33 0855.38
2009/04/23 08:33:39.2      98   -160     -2    188    189 148.4  -0.7  34024  287.28 0855.38
2009/04/23 08:33:39.3      55   -174     21    183    185 162.2   6.7  34026  287.30 0855.38
2009/04/23 08:33:39.4      47   -190     16    196    197 166.0   4.9  34024  287.28 0855.38
2009/04/23 08:33:39.5      -5   -185     14    186    187 181.6   4.6  34026  287.30 0855.38
2009/04/23 08:33:39.6      35   -136    -50    141    150 165.3 -19.6  34026  287.30 0855.38
2009/04/23 08:33:39.7      40   -117     -6    124    125 160.8  -3.1  34026  287.32 0855.38
2009/04/23 08:33:39.8      22   -110     22    113    116 168.4  11.1  34028  287.35 0855.38
2009/04/23 08:33:39.9      52    -69     24     87     91 143.0  15.3  34026  287.32 0855.38
2009/04/23 08:33:40.0      84    -82    -17    118    120 134.0  -8.2  34026  287.32 0855.38
2009/04/23 08:33:40.1     116   -110     19    161    163 133.6   6.9  34024  287.27 0855.38
2009/04/23 08:33:40.2      67   -218     46    229    234 162.8  11.6  34028  287.33 0855.38
2009/04/23 08:33:40.3      32   -206     41    209    214 171.1  11.1  34028  287.35 0855.38
2009/04/23 08:33:40.4      76   -245     56    257    264 162.6  12.4  34022  287.24 0855.38
2009/04/23 08:33:40.5      59   -225     82    233    248 165.3  19.4  34026  287.31 0855.38
2009/04/23 08:33:40.6      39   -223     75    227    240 170.0  18.4  34026  287.31 0855.38
2009/04/23 08:33:40.7      32   -205    111    208    235 170.9  30.3  34028  287.33 0855.38
2009/04/23 08:33:40.8      58   -200     71    209    222 163.7  18.9  34028  287.33 0855.38
2009/04/23 08:33:40.9       8   -200    102    201    225 177.5  28.7  34026  287.30 0855.38
2009/04/23 08:33:41.0      -2   -155    103    156    186 181.0  36.3  34030  287.37 0855.38
2009/04/23 08:33:41.1      55   -210    113    218    245 165.3  29.3  34028  287.33 0855.38
2009/04/23 08:33:41.2      69   -213     96    225    244 162.0  24.6  34030  287.36 0855.37
2009/04/23 08:33:41.3      85   -215     84    232    246 158.4  20.9  34026  287.31 0855.37
2009/04/23 08:33:41.4      42   -209     22    214    216 168.4   5.9  34030  287.37 0855.37
2009/04/23 08:33:41.5      35   -189     71    193    205 169.5  20.9  34026  287.32 0855.37
2009/04/23 08:33:41.6      80   -213    -12    228    229 159.3  -3.1  34026  287.32 0855.37
2009/04/23 08:33:41.7     -32   -191     52    194    201 189.6  15.0  34028  287.35 0855.37
2009/04/23 08:33:41.8     -93   -278    112    294    314 198.5  21.8  34022  287.22 0855.37
2009/04/23 08:33:41.9     -12   -268     98    269    286 182.7  20.9  34026  287.29 0855.37
2009/04/23 08:33:42.0      31   -253     16    255    256 172.9   3.6  34026  287.31 0855.37
2009/04/23 08:33:42.1      -7   -243     33    244    247 181.8   7.8  34026  287.29 0855.37
2009/04/23 08:33:42.2      -5   -210    -43    211    216 181.6 -11.5  34026  287.30 0855.37
2009/04/23 08:33:42.3      34   -286    -87    289    301 173.1 -21.7  34028  287.33 0855.37
2009/04/23 08:33:42.4     146   -312   -113    345    363 155.0 -23.6  34022  287.22 0855.37
2009/04/23 08:33:42.5     -51   -284      3    289    290 190.2   0.7  34024  287.28 0855.37
2009/04/23 08:33:42.6      -8   -212    117    213    243 182.2  31.4  34024  287.28 0855.37
2009/04/23 08:33:42.7      10   -223     79    224    237 177.3  20.2  34022  287.22 0855.37
2009/04/23 08:33:42.8      40   -212     35    216    219 169.1   9.3  34020  287.21 0855.37
2009/04/23 08:33:42.9      20   -120     42    122    130 170.2  19.2  34024  287.28 0855.37
2009/04/23 08:33:43.0      14   -140     48    141    150 174.2  18.9  34024  287.27 0855.37
2009/04/23 08:33:43.1      12   -153     38    154    159 175.5  13.9  34024  287.28 0855.37
2009/04/23 08:33:43.2      29   -220     48    222    228 172.4  12.2  34024  287.27 0855.38
2009/04/23 08:33:43.3     103   -246    133    267    298 157.3  28.5  34022  287.24 0855.38
2009/04/23 08:33:43.4     133   -234     67    270    279 150.4  13.9  34024  287.26 0855.38
2009/04/23 08:33:43.5     113   -243     72    268    278 155.1  15.2  34026  287.29 0855.38
2009/04/23 08:33:43.7     141   -288    135    321    348 153.9  24.1  34026  287.30 0855.38
2009/04/23 08:33:43.7     121   -257    155    285    324 154.7  30.8  34024  287.28 0855.38
2009/04/23 08:33:43.8     125   -236    123    268    294 152.1  26.4  34024  287.28 0855.38
2009/04/23 08:33:43.9     112   -278    105    300    319 158.1  19.4  34028  287.34 0855.38
2009/04/23 08:33:44.0     136   -257     90    291    305 152.1  17.3  34028  287.33 0855.38
2009/04/23 08:33:44.1     149   -257      3    298    299 149.9   0.7  34026  287.31 0855.38
2009/04/23 08:33:44.2     130   -204     49    243    249 147.5  11.6  34026  287.31 0855.38
2009/04/23 08:33:44.3      82   -223      3    238    239 159.7   0.8  34028  287.34 0855.38
2009/04/23 08:33:44.4      77   -273     44    284    288 164.2   8.8  34028  287.33 0855.38
2009/04/23 08:33:44.5      87   -286     56    300    306 163.1  10.6  34026  287.29 0855.38
2009/04/23 08:33:44.6      81   -259     96    272    289 162.6  19.6  34026  287.29 0855.38
2009/04/23 08:33:44.7      64   -243     89    252    268 165.1  19.4  34028  287.34 0855.38
2009/04/23 08:33:44.8      91   -219     77    238    251 157.5  17.9  34028  287.34 0855.38
2009/04/23 08:33:44.9      93   -200     12    221    222 155.1   3.1  34028  287.35 0855.38
2009/04/23 08:33:45.0      93   -201     12    222    223 155.1   3.3  34030  287.37 0855.38
2009/04/23 08:33:45.1      93   -201     12    222    223 155.1   3.3  34030  287.37 0855.38
2009/04/23 08:33:45.2      85   -188     37    207    211 155.5  10.3  34030  287.37 0855.37
2009/04/23 08:33:45.3     124   -176     68    216    227 144.8  17.7  34028  287.33 0855.37
2009/04/23 08:33:45.4     143   -179     62    230    239 141.5  15.2  34028  287.33 0855.37
2009/04/23 08:33:45.5     148   -164     60    221    230 137.9  15.2  34030  287.37 0855.37
2009/04/23 08:33:45.6     191   -133     19    233    234 124.9   4.9  34030  287.38 0855.37
2009/04/23 08:33:45.7     152   -116     49    192    199 127.3  14.5  34026  287.30 0855.37
2009/04/23 08:33:45.8     152    -99     59    182    192 123.3  18.1  34030  287.37 0855.37
2009/04/23 08:33:45.9     150    -87     57    174    184 120.2  18.1  34028  287.33 0855.37
2009/04/23 08:33:46.0     156    -84     96    178    202 118.2  31.0  34030  287.38 0855.37
2009/04/23 08:33:46.1     170    -89    106    193    220 117.8  31.3  34030  287.37 0855.37
2009/04/23 08:33:46.2     151    -60    106    163    194 111.7  35.6  34032  287.40 0855.37
2009/04/23 08:33:46.3     147    -86     46    171    178 120.2  15.3  34030  287.37 0855.37
2009/04/23 08:33:46.4     121    -57     21    135    137 115.4   9.0  34030  287.38 0855.37
2009/04/23 08:33:46.5     108    -58     12    123    124 118.4   5.9  34030  287.37 0855.37
2009/04/23 08:33:46.6      63    -63     13     90     92 135.0   8.5  34030  287.37 0855.37
2009/04/23 08:33:46.7      36    -93      5    100    101 158.6   3.3  34028  287.35 0855.37
2009/04/23 08:33:46.8      29    -93     19     98    100 162.6  11.1  34026  287.32 0855.37
2009/04/23 08:33:46.9      15   -108     10    110    111 171.9   5.4  34028  287.35 0855.37
2009/04/23 08:33:47.0      14   -111     23    112    115 172.4  11.6  34028  287.35 0855.37
2009/04/23 08:33:47.1      15   -108     -5    110    111 172.0  -2.6  34028  287.35 0855.37
2009/04/23 08:33:47.2      18    -89    -27     91     95 168.4 -16.6  34026  287.32 0855.36
2009/04/23 08:33:47.3      27   -116    -33    120    125 166.6 -15.5  34028  287.35 0855.36
2009/04/23 08:33:47.4      16   -161    -38    162    167 174.0 -13.2  34024  287.28 0855.36
2009/04/23 08:33:47.5      23   -154    -33    156    160 171.5 -12.2  34024  287.27 0855.36
2009/04/23 08:33:47.6      14   -190    -67    191    202 175.6 -24.4  34022  287.23 0855.36
2009/04/23 08:33:47.7      47   -161    -62    168    179 163.7 -25.7  34024  287.27 0855.36
2009/04/23 08:33:47.8     -38   -189   -120    193    227 191.6 -39.6  34030  287.37 0855.36
2009/04/23 08:33:47.9     -60   -184   -135    194    236 198.3 -42.8  34024  287.28 0855.36
2009/04/23 08:33:48.0    -120    -66    -41    138    143 241.1 -21.7  34024  287.28 0855.36
2009/04/23 08:33:48.1    -176    -59   -105    186    213 251.2 -36.5  34026  287.30 0855.36
2009/04/23 08:33:48.2    -172    -35    -54    176    185 258.3 -17.0  34026  287.32 0855.36
2009/04/23 08:33:48.4    -179     -1    -27    180    183 269.6  -8.6  34026  287.32 0855.36
2009/04/23 08:33:48.5     -86     -7     52     87    101 265.2  33.5  34028  287.33 0855.36
2009/04/23 08:33:48.6     -50    -16     57     53     77 252.3  52.1  34030  287.37 0855.36
2009/04/23 08:33:48.7     -48    -23     62     54     82 244.6  54.3  34030  287.37 0855.36
2009/04/23 08:33:48.8     -50    -16     45     53     69 252.3  43.8  34030  287.38 0855.36
2009/04/23 08:33:48.9     -55    -40     -8     69     70 234.0  -7.3  34032  287.40 0855.36
2009/04/23 08:33:49.0     -78    -82    -62    114    129 223.7 -35.7  34028  287.35 0855.36
2009/04/23 08:33:49.1     -91    -34    -73     98    122 249.6 -45.1  34026  287.32 0855.36
2009/04/23 08:33:49.2    -121      8    -75    122    143 273.9 -39.4  34028  287.35 0855.36
2009/04/23 08:33:49.3    -131     -5    -44    132    139 267.4 -23.6  34028  287.35 0855.36
2009/04/23 08:33:49.4     -60    -28    -11     67     68 244.7  -9.3  34032  287.42 0855.36
2009/04/23 08:33:49.5     -13      1     12     14     18 277.9  52.0  34030  287.37 0855.36
2009/04/23 08:33:49.6      11     23     38     26     46  25.4  62.6  34030  287.38 0855.36
2009/04/23 08:33:49.7      -1    -53     53     54     75 181.8  51.1  34030  287.37 0855.36
2009/04/23 08:33:49.8      36    -38     55     53     76 136.8  50.1  34026  287.30 0855.36
2009/04/23 08:33:49.9      93    -94     45    133    141 135.5  18.9  34028  287.35 0855.36
2009/04/23 08:33:50.0      78    -90     62    120    135 139.0  29.3  34032  287.40 0855.36
2009/04/23 08:33:50.1      84    -87     18    122    124 135.9   8.5  34024  287.28 0855.36
2009/04/23 08:33:50.2      89    -94     -7    130    131 136.7  -3.1  34024  287.28 0855.36
2009/04/23 08:33:50.3      58   -122     -9    136    137 154.7  -4.1  34022  287.25 0855.36
2009/04/23 08:33:50.4      36   -123      8    129    130 163.5   3.8  34022  287.25 0855.36
2009/04/23 08:33:50.5      57   -105     18    120    122 151.1   8.9  34024  287.27 0855.36
2009/04/23 08:33:50.6      72    -88     35    114    120 140.8  17.3  34028  287.33 0855.36
2009/04/23 08:33:50.7      71   -105     -4    127    128 145.8  -2.2  34026  287.32 0855.36
2009/04/23 08:33:50.8      69   -109    -11    130    131 147.5  -5.2  34024  287.28 0855.36
2009/04/23 08:33:50.9      59   -125     17    139    141 154.7   7.1  34022  287.25 0855.36
2009/04/23 08:33:51.0      27   -145     16    148    149 169.3   6.5  34022  287.23 0855.36
2009/04/23 08:33:51.1      28   -151     13    154    155 169.3   4.9  34022  287.25 0855.36
2009/04/23 08:33:51.2      47   -181      5    188    189 165.3   1.8  34024  287.27 0855.36
2009/04/23 08:33:51.3      79   -175     -7    193    194 155.7  -2.1  34024  287.28 0855.35
2009/04/23 08:33:51.4      97   -143     -9    174    175 145.7  -3.2  34024  287.28 0855.35
2009/04/23 08:33:51.5     142   -123      9    188    189 130.9   2.8  34028  287.33 0855.35
2009/04/23 08:33:51.6     122   -115    -15    168    169 133.3  -5.4  34026  287.32 0855.35
2009/04/23 08:33:51.7      91   -117    -32    149    153 142.2 -12.2  34026  287.30 0855.35
2009/04/23 08:33:51.8     116   -122    -26    169    171 136.3  -8.8  34028  287.33 0855.35
2009/04/23 08:33:51.9     117   -104    -30    157    160 131.8 -10.9  34026  287.32 0855.35
2009/04/23 08:33:52.0     108   -101     -8    148    149 133.1  -3.1  34026  287.32 0855.35
2009/04/23 08:33:52.1     172   -120      2    210    211 124.9   0.8  34032  287.40 0855.35
2009/04/23 08:33:52.2     150   -180     -9    235    236 140.3  -2.2  34030  287.36 0855.35
2009/04/23 08:33:52.3     139   -167     18    218    219 140.4   5.0  34030  287.37 0855.35
2009/04/23 08:33:52.4     122   -202     46    237    242 148.8  11.0  34030  287.36 0855.35
2009/04/23 08:33:52.5      86   -138      6    163    164 147.9   2.1  34030  287.37 0855.35
2009/04/23 08:33:52.6     107   -179     31    209    212 149.0   8.5  34030  287.37 0855.35
2009/04/23 08:33:52.7     145   -192     71    241    252 143.0  16.4  34032  287.39 0855.35
2009/04/23 08:33:52.8     128   -180     60    222    231 144.6  15.3  34032  287.40 0855.35
2009/04/23 08:33:52.9     114   -147     51    187    194 142.2  15.3  34032  287.42 0855.35
2009/04/23 08:33:53.0      93   -208     44    228    233 155.9  11.1  34030  287.38 0855.35
2009/04/23 08:33:53.1     119   -273     11    299    300 156.4   2.1  34030  287.38 0855.35
2009/04/23 08:33:53.2     106   -248      8    270    271 156.8   1.7  34032  287.39 0855.35
2009/04/23 08:33:53.3     122   -239     54    269    275 152.8  11.4  34034  287.44 0855.35
2009/04/23 08:33:53.4     158   -248     45    295    299 147.4   8.8  34034  287.43 0855.35
2009/04/23 08:33:53.5     163   -256     32    304    306 147.5   6.1  34034  287.43 0855.35
2009/04/23 08:33:53.6     172   -244     30    299    301 144.8   5.9  34034  287.44 0855.35
2009/04/23 08:33:53.7      97   -266      2    284    285 160.0   0.5  34034  287.43 0855.35
2009/04/23 08:33:53.8     142   -257     12    294    295 151.0   2.3  34032  287.39 0855.35
2009/04/23 08:33:53.9     139   -219     47    260    265 147.5  10.3  34034  287.44 0855.35
2009/04/23 08:33:54.0     112   -184     13    216    217 148.6   3.6  34034  287.43 0855.35
2009/04/23 08:33:54.1     103   -189     52    216    223 151.5  13.5  34034  287.43 0855.35
2009/04/23 08:33:54.2       7   -176     22    177    179 177.5   7.2  34032  287.42 0855.35
2009/04/23 08:33:54.3     -33   -164     20    168    170 191.6   6.9  34034  287.43 0855.36
2009/04/23 08:33:54.4     -27   -133     -5    136    137 191.6  -2.2  34030  287.37 0855.36
2009/04/23 08:33:54.5     -67   -122     14    140    141 208.9   5.9  34030  287.38 0855.36
2009/04/23 08:33:54.6     -63    -92     33    112    117 214.7  16.8  34032  287.42 0855.36
2009/04/23 08:33:54.7     -34   -163     67    167    179 191.8  23.0  34034  287.45 0855.36
2009/04/23 08:33:54.8     -33   -124     85    129    154 195.2  35.6  34034  287.43 0855.36
2009/04/23 08:33:54.9     -94    -81     19    125    127 229.1   8.9  34034  287.45 0855.36
2009/04/23 08:33:55.0     -64    -94     22    114    117 214.3  11.0  34034  287.43 0855.36
2009/04/23 08:33:55.1     -53    -88     22    103    106 211.2  12.2  34034  287.43 0855.36
2009/04/23 08:33:55.2     -63    -72    -27     96     99 221.0 -20.2  34034  287.43 0855.36
2009/04/23 08:33:55.3     -51    -86    -56    101    115 210.7 -35.8  34036  287.47 0855.36
2009/04/23 08:33:55.4     -67   -107    -50    127    136 212.1 -26.9  34036  287.49 0855.36
2009/04/23 08:33:55.5    -109   -129    -58    170    179 220.3 -23.6  34028  287.35 0855.36
2009/04/23 08:33:55.6    -152   -183      2    239    240 219.7   0.7  34020  287.21 0855.36
2009/04/23 08:33:55.7    -210   -155     39    262    265 233.6   8.5  34024  287.28 0855.36
2009/04/23 08:33:55.8    -115   -159    -40    197    201 215.8 -11.5  34020  287.21 0855.36
2009/04/23 08:33:55.9    -130    -83     48    155    163 237.6  17.3  34024  287.27 0855.36
2009/04/23 08:33:56.0    -122    -24     17    125    127 258.5   8.0  34028  287.33 0855.36
2009/04/23 08:33:56.1     -64    -72      3     97     98 221.9   2.3  34028  287.33 0855.36
2009/04/23 08:33:56.2     -65    -53    -10     85     86 230.9  -7.3  34028  287.33 0855.36
2009/04/23 08:33:56.3     -45    -72      4     86     87 212.1   2.9  34028  287.33 0855.36
2009/04/23 08:33:56.4     -54   -102     31    116    121 208.1  15.2  34024  287.28 0855.38
2009/04/23 08:33:56.5    -124   -190      8    228    229 213.2   2.1  34030  287.37 0855.38
2009/04/23 08:33:56.6       0   -224      6    225    226 180.0   1.6  34024  287.28 0855.38
2009/04/23 08:33:56.7      47   -233     27    238    240 168.4   6.7  34030  287.36 0855.38
2009/04/23 08:33:56.8      69   -256     30    266    268 164.9   6.5  34028  287.33 0855.38
2009/04/23 08:33:56.9      -7   -243    -17    244    245 181.8  -4.1  34028  287.33 0855.38
2009/04/23 08:33:57.0     -51   -177    -48    185    192 196.0 -14.7  34028  287.33 0855.38
2009/04/23 08:33:57.1     -61   -120    -50    135    143 207.2 -25.4  34030  287.38 0855.38
2009/04/23 08:33:57.2     -82   -139    -18    162    164 210.7  -6.5  34030  287.37 0855.38
2009/04/23 08:33:57.3     -26   -191      9    193    194 188.0   2.8  34028  287.35 0855.38
2009/04/23 08:33:57.4     -79   -218    -10    232    233 200.0  -2.6  34028  287.34 0855.38
2009/04/23 08:33:57.5     -11   -153     -3    154    155 184.4  -1.3  34028  287.33 0855.38
2009/04/23 08:33:57.6      34    -84      4     91     92 157.7   2.8  34030  287.37 0855.38
2009/04/23 08:33:57.7      88    -73     50    115    125 129.5  25.1  34030  287.38 0855.38
2009/04/23 08:33:57.8     109   -124     71    166    180 138.8  24.3  34032  287.42 0855.38
2009/04/23 08:33:57.9      90   -186     82    207    222 154.1  23.0  34034  287.43 0855.38
2009/04/23 08:33:58.0      78   -190     98    206    228 157.7  27.3  34034  287.43 0855.38
2009/04/23 08:33:58.1      24   -178    111    180    211 172.2  35.0  34032  287.42 0855.38
2009/04/23 08:33:58.2      17   -209    106    210    235 175.3  28.7  34034  287.43 0855.38
2009/04/23 08:33:58.3      40   -199    121    204    237 168.4  33.5  34036  287.47 0855.38
2009/04/23 08:33:58.4      42   -235    143    239    278 169.8  33.5  34036  287.46 0855.39
2009/04/23 08:33:58.5      20   -302    133    303    330 176.2  25.1  34034  287.44 0855.39
2009/04/23 08:33:58.6      34   -312    119    314    335 173.7  21.7  34036  287.49 0855.39
2009/04/23 08:33:58.7      24   -314     98    316    331 175.5  17.3  34036  287.48 0855.39
2009/04/23 08:33:58.8     134   -369     84    393    403 160.0  12.2  34034  287.44 0855.39
2009/04/23 08:33:58.9     111   -262    -15    285    286 157.1  -3.2  34032  287.39 0855.39
2009/04/23 08:33:59.0      46   -253    152    258    299 169.5  33.4  34030  287.38 0855.39
2009/04/23 08:33:59.1      69   -232    140    243    280 163.5  32.7  34030  287.38 0855.39
2009/04/23 08:33:59.2      74   -232    111    244    268 162.2  26.2  34032  287.41 0855.39
2009/04/23 08:33:59.3      60   -147    146    159    215 157.7  47.7  34032  287.42 0855.39
2009/04/23 08:33:59.4      20   -223     72    225    237 174.7  17.7  34034  287.43 0855.39
2009/04/23 08:33:59.5      39   -284     94    287    302 172.0  18.1  34032  287.39 0855.39
2009/04/23 08:33:59.6      70   -278    -58    287    294 165.7 -11.6  34032  287.41 0855.39
2009/04/23 08:33:59.7     107   -178    106    208    233 149.0  29.2  34030  287.38 0855.39
2009/04/23 08:33:59.8     173   -157     47    234    239 132.2  11.6  34032  287.39 0855.39
2009/04/23 08:33:59.9     191    -90     90    212    230 115.2  24.6  34032  287.40 0855.39
2009/04/23 08:34:00.0     176    -92    120    199    232 117.8  34.2  34028  287.33 0855.39
2009/04/23 08:34:00.1      41   -152    174    158    235 164.8  53.3  34032  287.40 0855.39
2009/04/23 08:34:00.2      35    -89    117     96    151 158.2  56.4  34028  287.35 0855.39
2009/04/23 08:34:00.3     164    -93    165    189    250 119.5  45.8  34030  287.38 0855.39
2009/04/23 08:34:00.4     118    -80    109    143    179 124.1  41.2  34028  287.33 0855.38
2009/04/23 08:34:00.5      53    -52    105     75    129 134.1  60.6  34032  287.42 0855.38
2009/04/23 08:34:00.6     112   -161    162    197    255 145.0  43.7  34032  287.39 0855.38
2009/04/23 08:34:00.7      77   -171    122    188    224 155.5  35.7  34032  287.40 0855.38
2009/04/23 08:34:00.8      13   -173    115    174    208 175.5  36.5  34034  287.43 0855.38
2009/04/23 08:34:00.9       9   -155    101    156    185 176.4  35.6  34034  287.45 0855.38
2009/04/23 08:34:01.0       9   -143     84    144    166 176.4  32.9  34032  287.40 0855.38
2009/04/23 08:34:01.1      48   -145     96    153    180 161.7  35.2  34032  287.42 0855.38
2009/04/23 08:34:01.2      45   -124     89    133    160 160.0  37.0  34030  287.38 0855.38
2009/04/23 08:34:01.3      36   -107     98    114    150 161.3  44.8  34032  287.40 0855.38
2009/04/23 08:34:01.4      42    -20     58     47     74 116.2  56.4  34032  287.40 0855.38
2009/04/23 08:34:01.5      45    -15     64     48     80 108.6  59.4  34030  287.38 0855.38
2009/04/23 08:34:01.6      90      6     67     91    113  86.1  40.1  34034  287.43 0855.38
2009/04/23 08:34:01.7      40      0     71     41     81  90.8  67.2  34030  287.38 0855.38
2009/04/23 08:34:01.8       5    -16     41     17     44 161.3  77.1  34032  287.42 0855.38
2009/04/23 08:34:01.9      98    -45     84    109    137 114.8  41.7  34030  287.37 0855.38
2009/04/23 08:34:02.0      69   -103     73    125    144 146.2  33.4  34030  287.38 0855.38
2009/04/23 08:34:02.1      29   -108     82    112    138 164.8  39.7  34030  287.38 0855.38
2009/04/23 08:34:02.2       0   -114     89    115    145 179.5  41.7  34032  287.42 0855.38
2009/04/23 08:34:02.3      -6    -78    116     79    140 184.4  62.6  34030  287.37 0855.38
2009/04/23 08:34:02.4     -21    -48     80     53     95 204.5  64.1  34030  287.38 0855.38
2009/04/23 08:34:02.5     -31     32     42     45     61 315.8  47.9  34034  287.43 0855.38
2009/04/23 08:34:02.6      38     25     91     46    101  55.8  71.4  34030  287.37 0855.38
2009/04/23 08:34:02.7      62     -3     88     63    108  93.5  60.5  34032  287.40 0855.38
2009/04/23 08:34:02.8      40    -36     84     54     99 132.2  64.6  34032  287.40 0855.38
2009/04/23 08:34:02.9     121     -9     63    122    137  94.4  29.3  34030  287.38 0855.38
2009/04/23 08:34:03.0     134     -4     40    135    141  91.7  16.8  34030  287.37 0855.38
2009/04/23 08:34:03.1     105      0     61    106    122  90.0  32.4  34030  287.37 0855.38
2009/04/23 08:34:03.2      92     18    113     94    146  78.6  56.3  34026  287.32 0855.38
2009/04/23 08:34:03.3     108     28    124    112    167  75.0  53.3  34032  287.40 0855.38
2009/04/23 08:34:03.4      62     20    102     66    121  71.8  64.1  34028  287.33 0855.38
2009/04/23 08:34:03.5      -1     33     65     34     73 357.3  70.8  34030  287.37 0855.38
2009/04/23 08:34:03.6     -40     28     32     49     58 305.1  35.6  34032  287.42 0855.38
2009/04/23 08:34:03.7     -77     34    -31     85     90 294.0 -25.4  34028  287.35 0855.38
2009/04/23 08:34:03.8     -17    -17   -102     25    105 225.0 -90.0  34024  287.28 0855.38
2009/04/23 08:34:03.9     156      0     -9    157    158  90.0  -3.3  34022  287.23 0855.38
2009/04/23 08:34:04.0       6     78    100     79    127   4.5  57.5  34024  287.28 0855.38
2009/04/23 08:34:04.1     -58     74     51     95    107 321.7  30.3  34030  287.37 0855.38
2009/04/23 08:34:04.2      18     76     59     79     98  13.4  40.1  34030  287.37 0855.38
2009/04/23 08:34:04.3       2      0    118      3    118  90.0  90.0  34032  287.40 0855.38
2009/04/23 08:34:04.4      84     27    124     89    152  71.8  60.6  34028  287.33 0855.37
2009/04/23 08:34:04.5      93     30     90     98    133  71.8  47.9  34026  287.32 0855.37
2009/04/23 08:34:04.6     102     11    113    103    152  83.4  52.2  34030  287.37 0855.37
2009/04/23 08:34:04.7     147      2    115    148    187  89.1  42.2  34030  287.37 0855.37
2009/04/23 08:34:04.8     100     45    105    110    152  65.6  48.5  34030  287.38 0855.37
2009/04/23 08:34:04.9      81     54    106     98    144  56.3  52.2  34028  287.35 0855.37
2009/04/23 08:34:05.0      79     37    123     88    151  64.7  60.6  34028  287.35 0855.37
2009/04/23 08:34:05.1     102     78     90    129    157  52.3  38.6  34030  287.38 0855.37
2009/04/23 08:34:05.2      55     97     87    112    141  29.9  41.7  34028  287.33 0855.37
2009/04/23 08:34:05.3      74     96     90    122    151  37.8  39.7  34030  287.37 0855.37
2009/04/23 08:34:05.4      63     65     81     91    121  44.1  46.4  34028  287.33 0855.37
2009/04/23 08:34:05.5     -13    124    140    125    187 353.8  53.7  34024  287.28 0855.37
2009/04/23 08:34:05.6     -45    191     67    197    209 346.6  18.9  34034  287.43 0855.37
2009/04/23 08:34:05.7     -35    180     13    184    185 348.9   4.2  34030  287.38 0855.37
2009/04/23 08:34:05.8      16    185     25    186    188   5.1   7.8  34032  287.42 0855.37
2009/04/23 08:34:05.9      16    178     34    179    183   5.3  11.0  34032  287.42 0855.37
2009/04/23 08:34:06.0      48    143     51    151    160  18.7  18.9  34032  287.42 0855.37
2009/04/23 08:34:06.1      32    111     50    116    126  16.5  25.1  34034  287.45 0855.37
2009/04/23 08:34:06.2     -82     63      0    104    105 307.3  -0.3  34032  287.42 0855.37
2009/04/23 08:34:06.3    -106     40      5    114    115 290.8   2.8  34026  287.32 0855.37
2009/04/23 08:34:06.4    -119     65     37    136    141 298.9  15.3  34030  287.37 0855.38
2009/04/23 08:34:06.5     -94     88    -16    129    131 313.1  -7.3  34030  287.37 0855.38
2009/04/23 08:34:06.6      25    124     84    127    152  11.6  36.0  34032  287.40 0855.38
2009/04/23 08:34:06.7      25    175     81    177    194   8.2  26.6  34028  287.35 0855.38
2009/04/23 08:34:06.8      72    133     68    152    166  28.5  25.9  34028  287.33 0855.38
2009/04/23 08:34:06.9      86    157     89    179    199  28.7  28.5  34026  287.30 0855.38
2009/04/23 08:34:07.0      41    152     94    158    183  15.1  33.7  34026  287.30 0855.38
2009/04/23 08:34:07.1     135    134     55    191    199  45.1  16.3  34026  287.30 0855.38
2009/04/23 08:34:07.2     110     90     84    143    165  50.5  33.1  34026  287.30 0855.38
2009/04/23 08:34:07.3     114    127     74    171    186  41.9  24.9  34026  287.32 0855.38
2009/04/23 08:34:07.4      96    130     66    163    175  36.5  23.0  34030  287.37 0855.38
2009/04/23 08:34:07.5      74    133     64    153    165  29.0  23.8  34034  287.43 0855.38
2009/04/23 08:34:07.6      68    107     58    127    139  32.5  26.6  34032  287.40 0855.38
2009/04/23 08:34:07.7      72     82     62    110    126  41.0  31.9  34032  287.42 0855.38
2009/04/23 08:34:07.8      63     76     53     99    112  39.6  30.8  34032  287.42 0855.38
2009/04/23 08:34:07.9      51     54     48     75     89  43.3  35.5  34036  287.47 0855.38
2009/04/23 08:34:08.0      26     64     46     70     83  21.9  36.0  34030  287.38 0855.38
2009/04/23 08:34:08.1      53     43     37     69     78  50.5  30.3  34030  287.38 0855.38
2009/04/23 08:34:08.2      62     39     35     74     81  57.6  26.6  34028  287.35 0855.38
2009/04/23 08:34:08.3      52     32     60     62     86  58.5  50.0  34030  287.38 0855.38
2009/04/23 08:34:08.4      80      6     81     81    114  85.6  50.1  34028  287.35 0855.38
2009/04/23 08:34:08.5      60     16     83     63    104  74.9  59.4  34028  287.35 0855.38
2009/04/23 08:34:08.6      54     39     66     67     94  54.0  50.5  34030  287.37 0855.38
2009/04/23 08:34:08.7      53     22     66     58     87  67.4  53.7  34030  287.37 0855.38
2009/04/23 08:34:08.8      40    -30     52     51     72 126.9  49.1  34028  287.35 0855.38
2009/04/23 08:34:08.9      68    -25     51     73     89 110.8  38.6  34030  287.37 0855.38
2009/04/23 08:34:09.0      70    -33     19     78     81 115.2  14.3  34024  287.28 0855.38
2009/04/23 08:34:09.1      10    -58     44     59     73 170.2  40.7  34026  287.30 0855.38
2009/04/23 08:34:09.2      -4    -40     48     41     63 186.2  55.4  34026  287.32 0855.38
2009/04/23 08:34:09.3     -53    -30     17     62     65 240.2  15.3  34028  287.35 0855.38
2009/04/23 08:34:09.4     -68    -28     -1     74     75 247.4  -1.2  34028  287.33 0855.38
2009/04/23 08:34:09.5     -56    -39     14     69     71 234.9  12.2  34026  287.30 0855.38
2009/04/23 08:34:09.6     -73    -19      3     76     77 254.9   2.8  34026  287.30 0855.38
2009/04/23 08:34:09.7     -55    -23     -7     60     61 246.5  -7.3  34024  287.28 0855.38
2009/04/23 08:34:09.8     -56    -18    -42     59     72 251.8 -43.9  34026  287.32 0855.38
2009/04/23 08:34:09.9     -48      1    -64     49     80 271.7 -63.4  34030  287.38 0855.38
2009/04/23 08:34:10.0     -53    -33    -41     63     75 237.6 -40.0  34034  287.43 0855.38
2009/04/23 08:34:10.1     -32    -47    -63     58     85 214.3 -56.6  34034  287.43 0855.38
2009/04/23 08:34:10.2     -51    -48    -41     71     81 226.9 -37.3  34034  287.43 0855.38
2009/04/23 08:34:10.3     -43    -45     -4     63     64 223.3  -4.1  34030  287.38 0855.38
2009/04/23 08:34:10.4     -33    -56     13     66     68 210.7  11.1  34032  287.40 0855.37
2009/04/23 08:34:10.5     -49    -61     23     79     83 219.2  16.8  34022  287.25 0855.37
2009/04/23 08:34:10.6     -84   -154     24    176    178 208.7   7.8  34030  287.38 0855.37
2009/04/23 08:34:10.7     -78   -138    -46    159    165 209.4 -21.2  34026  287.32 0855.37
2009/04/23 08:34:10.8     -88    -94    -23    130    133 223.2 -10.3  34030  287.37 0855.37
2009/04/23 08:34:10.9    -100    -63     13    119    120 237.5   6.5  34028  287.33 0855.37
2009/04/23 08:34:11.0    -108      0    -37    109    116 270.0 -18.7  34026  287.32 0855.37
2009/04/23 08:34:11.1    -101     85    -85    133    157 310.0 -40.1  34028  287.35 0855.37
2009/04/23 08:34:11.2    -216    -20    -52    218    225 264.5 -13.4  34028  287.35 0855.37
2009/04/23 08:34:11.3    -209    -42    -69    214    224 258.5 -23.3  34034  287.45 0855.37
2009/04/23 08:34:11.4    -121    -28    -69    125    142 256.7 -35.8  34032  287.40 0855.37
2009/04/23 08:34:11.5    -169    -44    -87    175    195 255.2 -32.9  34034  287.45 0855.37
2009/04/23 08:34:11.6    -152    -36   -109    157    191 256.7 -42.8  34032  287.40 0855.37
2009/04/23 08:34:11.7     -73    -24    -57     78     96 251.4 -44.1  34030  287.37 0855.37
2009/04/23 08:34:11.8      44   -147      3    154    155 163.1   1.2  34030  287.37 0855.37
2009/04/23 08:34:11.9      13    -65    131     67    147 168.4  71.0  34028  287.35 0855.37
2009/04/23 08:34:12.0     -78   -167    170    185    251 204.9  47.5  34020  287.21 0855.37
2009/04/23 08:34:12.1    -126   -162    143    206    250 217.8  38.0  34024  287.26 0855.37
2009/04/23 08:34:12.2    -154   -205     96    257    274 217.0  21.0  34018  287.17 0855.37
2009/04/23 08:34:12.3    -241    -83     27    256    258 251.0   6.1  34026  287.31 0855.37
2009/04/23 08:34:12.4    -230    -92    -54    248    254 248.2 -12.4  34034  287.43 0855.38
2009/04/23 08:34:12.5    -210   -136    -44    251    255 237.1 -10.1  34030  287.36 0855.38
2009/04/23 08:34:12.6    -143   -179     -9    230    231 218.5  -2.3  34026  287.32 0855.38
2009/04/23 08:34:12.7    -111   -141    -64    180    191 218.3 -24.4  34028  287.33 0855.38
2009/04/23 08:34:12.8    -136     -1    -18    137    139 269.2  -7.7  34022  287.25 0855.38
2009/04/23 08:34:12.9    -150    -87     -5    174    175 240.0  -1.8  34026  287.32 0855.38
2009/04/23 08:34:13.0     -86   -217    125    234    265 201.8  30.3  34026  287.31 0855.38
2009/04/23 08:34:13.1     -91   -229    107    247    269 201.8  25.1  34024  287.28 0855.38
2009/04/23 08:34:13.2     -33   -186    112    190    220 190.2  33.4  34024  287.28 0855.38
2009/04/23 08:34:13.3     -64   -183    104    195    221 199.4  30.3  34024  287.28 0855.38
2009/04/23 08:34:13.4     -34   -168    126    172    213 191.6  39.7  34028  287.35 0855.38
2009/04/23 08:34:13.5     -57   -104    107    119    160 208.9  46.6  34030  287.37 0855.38
2009/04/23 08:34:13.6     -52    -63     87     83    120 219.6  51.6  34028  287.33 0855.38
2009/04/23 08:34:13.7     -47    -56     48     74     88 219.7  36.0  34028  287.35 0855.38
2009/04/23 08:34:13.8     -50    -36     21     62     66 234.0  19.4  34028  287.33 0855.38
2009/04/23 08:34:13.9     -86     16     -4     88     89 280.6  -3.1  34028  287.33 0855.38
2009/04/23 08:34:14.0    -125     36     25    131    134 286.4  11.1  34026  287.30 0855.38
2009/04/23 08:34:14.1    -143     95     77    172    188 303.7  25.7  34028  287.35 0855.38
2009/04/23 08:34:14.2    -121    120     47    171    178 314.8  15.6  34026  287.30 0855.38
2009/04/23 08:34:14.3     -47     40     34     63     71 310.4  31.3  34030  287.38 0855.38
2009/04/23 08:34:14.4      26    -91     49     95    106 164.0  29.8  34028  287.33 0855.38
2009/04/23 08:34:14.5      43   -137     24    144    146 162.6   9.5  34028  287.35 0855.38
2009/04/23 08:34:14.6      82   -129     14    154    155 147.4   5.4  34028  287.33 0855.38
2009/04/23 08:34:14.7      48   -159     32    167    171 163.1  11.0  34032  287.42 0855.38
2009/04/23 08:34:14.8     125   -119     50    173    181 133.6  16.3  34030  287.37 0855.38
2009/04/23 08:34:14.9      99    -93    129    136    187 133.2  48.2  34026  287.30 0855.38
2009/04/23 08:34:15.0      88   -110    125    141    188 141.3  46.4  34028  287.35 0855.38
2009/04/23 08:34:15.1      70    -71     87    100    132 135.5  45.8  34030  287.38 0855.38
2009/04/23 08:34:15.2      80   -152     61    173    184 152.1  19.6  34030  287.37 0855.38
2009/04/23 08:34:15.3      43   -143     -5    150    151 163.1  -2.2  34028  287.35 0855.38
2009/04/23 08:34:15.4     -30   -126     20    130    132 193.4   9.0  34028  287.35 0855.37
2009/04/23 08:34:15.5     -27    -94      4     98     99 196.0   2.8  34030  287.37 0855.37
2009/04/23 08:34:15.6     -73   -119    -13    140    141 211.6  -5.6  34028  287.35 0855.37
2009/04/23 08:34:15.7     -68   -125     26    143    146 208.5  10.6  34030  287.38 0855.37
2009/04/23 08:34:15.8     -76    -73     72    106    128 226.0  37.6  34026  287.32 0855.37
2009/04/23 08:34:15.9     -65    -41    -15     78     80 237.6 -10.9  34026  287.30 0855.37
2009/04/23 08:34:16.0     -32    -17    -16     37     40 241.1 -29.5  34028  287.35 0855.37
2009/04/23 08:34:16.2     -41    -80     40     90     98 207.2  25.7  34028  287.33 0855.37
2009/04/23 08:34:16.3     -42   -110     41    118    126 200.9  19.4  34028  287.33 0855.37
2009/04/23 08:34:16.4     -64   -134     49    149    158 205.5  18.4  34026  287.30 0855.37
2009/04/23 08:34:16.5    -115    -41     -2    123    124 250.1  -1.2  34024  287.27 0855.37
2009/04/23 08:34:16.6    -150    -54    -64    160    172 250.0 -27.2  34026  287.30 0855.37
2009/04/23 08:34:16.7     -70   -226    -76    237    250 197.4 -17.9  34030  287.36 0855.37
2009/04/23 08:34:16.8    -184   -247    -98    309    325 216.7 -17.6  34032  287.39 0855.37
2009/04/23 08:34:16.9    -107   -232    -73    256    267 204.7 -16.0  34030  287.36 0855.37
2009/04/23 08:34:17.0      -8   -278    -45    279    283 181.8  -9.3  34028  287.34 0855.37
2009/04/23 08:34:17.1     -37   -263    -90    266    281 188.1 -18.7  34024  287.26 0855.37
2009/04/23 08:34:17.2     -77   -233    -73    246    256 198.3 -21.2  34028  287.34 0855.37
2009/04/23 08:34:17.3      43   -141    -19    148    150 163.1  -7.3  34024  287.27 0855.37
2009/04/23 08:34:17.4      44   -221     57    226    234 168.5  14.3  34030  287.38 0855.37
2009/04/23 08:34:17.5     -59   -315    118    321    342 190.7  21.0  34032  287.39 0855.38
2009/04/23 08:34:17.6    -100   -268     88    287    301 200.5  17.1  34030  287.36 0855.38
2009/04/23 08:34:17.7     -51   -299     61    304    311 189.7  11.5  34026  287.29 0855.38
2009/04/23 08:34:17.8    -128   -239     18    272    273 208.1   3.9  34030  287.36 0855.38
2009/04/23 08:34:17.9    -159   -184    -11    244    245 220.8  -2.8  34030  287.38 0855.38
2009/04/23 08:34:18.0    -123   -144     20    190    192 220.5   6.1  34032  287.40 0855.38
2009/04/23 08:34:18.1     -49   -184     74    191    204 194.9  22.0  34028  287.35 0855.38
2009/04/23 08:34:18.2     -36   -209     75    213    226 189.8  19.4  34030  287.37 0855.38
2009/04/23 08:34:18.3     -46   -229     90    234    250 191.5  22.0  34032  287.39 0855.38
2009/04/23 08:34:18.4     -88   -266    109    281    301 198.5  22.3  34032  287.39 0855.38
2009/04/23 08:34:18.5    -120   -275    115    301    322 203.6  21.8  34032  287.41 0855.38
2009/04/23 08:34:18.6    -146   -246     89    287    301 210.7  17.3  34028  287.34 0855.38
2009/04/23 08:34:18.7    -130   -262     71    293    302 206.5  13.7  34032  287.39 0855.38
2009/04/23 08:34:18.8    -124   -243     90    273    288 207.1  18.4  34030  287.38 0855.38
2009/04/23 08:34:18.9    -103   -219    111    243    267 205.3  26.2  34030  287.38 0855.38
2009/04/23 08:34:19.0    -123   -191     11    228    229 212.7   2.9  34030  287.38 0855.38
2009/04/23 08:34:19.1      36   -208     97    212    233 170.0  26.4  34030  287.37 0855.38
2009/04/23 08:34:19.2      46   -199     71    205    216 166.9  20.0  34030  287.37 0855.38
2009/04/23 08:34:19.3      32   -169    152    173    230 169.3  45.8  34028  287.33 0855.38
2009/04/23 08:34:19.4       6   -322    122    323    345 178.8  21.6  34028  287.34 0855.38
2009/04/23 08:34:19.5      30   -327     91    329    342 174.7  15.6  34032  287.40 0855.38
2009/04/23 08:34:19.6      23   -302    124    303    327 175.5  23.5  34030  287.38 0855.38
2009/04/23 08:34:19.7      -3   -198     90    199    218 180.9  25.9  34028  287.35 0855.38
2009/04/23 08:34:19.8     -19   -196     34    197    201 185.6   9.9  34030  287.38 0855.38
2009/04/23 08:34:19.9      -6    -91    -85     92    125 184.0 -52.3  34026  287.32 0855.38
2009/04/23 08:34:20.0     -74    -41    -79     85    116 241.1 -52.4  34032  287.40 0855.38
2009/04/23 08:34:20.1     -98    -33    -30    104    108 251.4 -20.7  34030  287.38 0855.38
2009/04/23 08:34:20.2     -89     48     -7    102    103 298.4  -4.1  34030  287.38 0855.38
2009/04/23 08:34:20.3    -153     90    -49    178    185 300.4 -15.4  34030  287.37 0855.38
2009/04/23 08:34:20.4     -41     50     27     65     70 320.3  24.1  34028  287.35 0855.38
2009/04/23 08:34:20.5    -153    -23    -45    155    161 261.2 -21.0  34030  287.37 0855.38
2009/04/23 08:34:20.6    -124    -27    -69    127    144 257.6 -35.7  34030  287.37 0855.38
2009/04/23 08:34:20.7    -159     22    -57    161    170 277.9 -24.4  34028  287.35 0855.38
2009/04/23 08:34:20.8     -95     79    -66    124    140 309.6 -35.2  34028  287.35 0855.38
2009/04/23 08:34:20.9     -75     41     20     86     89 298.9  13.2  34026  287.32 0855.38
2009/04/23 08:34:21.0    -167    -57     81    177    194 251.2  26.6  34026  287.32 0855.38
2009/04/23 08:34:21.1    -142    -38     90    148    173 254.9  34.8  34032  287.40 0855.38
2009/04/23 08:34:21.2      -7     -2     79      8     79 251.4  90.0  34032  287.40 0855.38
2009/04/23 08:34:21.3      19    -35     87     41     96 151.0  72.9  34030  287.37 0855.38
2009/04/23 08:34:21.4      -2    -38     78     39     87 184.4  71.9  34028  287.33 0855.38
2009/04/23 08:34:21.5      19   -101     96    103    140 169.3  47.9  34028  287.35 0855.37
2009/04/23 08:34:21.6      36      2     97     37    103  85.7  78.6  34028  287.33 0855.37
2009/04/23 08:34:21.7      18     54     96     57    111  18.5  66.8  34030  287.38 0855.37
2009/04/23 08:34:21.8      53     29     87     61    106  61.1  61.5  34030  287.37 0855.37
2009/04/23 08:34:21.9      57     31     85     66    107  61.2  57.9  34028  287.35 0855.37
2009/04/23 08:34:22.0      49     50     76     71    104  44.2  52.1  34028  287.35 0855.37
2009/04/23 08:34:22.1      80     61    125    101    160  52.7  56.9  34024  287.28 0855.37
2009/04/23 08:34:22.2      73     74    184    105    211  44.5  67.7  34024  287.27 0855.37
2009/04/23 08:34:22.3     -29     45     99     54    112 327.4  68.9  34022  287.23 0855.37
2009/04/23 08:34:22.4      -2    136    131    137    189 359.1  49.0  34024  287.28 0855.37
2009/04/23 08:34:22.5     170    132    178    216    279  52.2  43.7  34026  287.29 0855.37
2009/04/23 08:34:22.6     257    233    179    348    391  47.8  29.3  34026  287.30 0855.37
2009/04/23 08:34:22.7     105    233    138    256    290  24.3  30.8  34030  287.36 0855.37
2009/04/23 08:34:22.8     -14    324    139    325    353 357.4  24.8  34026  287.29 0855.37
2009/04/23 08:34:22.9     -53    401      0    405    406 352.4   0.1  34030  287.36 0855.37
2009/04/23 08:34:23.0     -95    310    -15    325    326 343.0  -2.7  34028  287.34 0855.37
2009/04/23 08:34:23.1    -135    325    -98    352    366 337.4 -15.7  34030  287.37 0855.37
2009/04/23 08:34:23.2     -88    291   -124    305    329 343.1 -27.8  34028  287.34 0855.37
2009/04/23 08:34:23.3    -144     86   -122    168    207 300.9 -44.1  34030  287.37 0855.37
2009/04/23 08:34:23.4    -191     67   -204    203    287 289.5 -54.5  34032  287.41 0855.37
2009/04/23 08:34:23.5    -162     36   -239    167    291 282.6 -66.2  34030  287.36 0855.38
2009/04/23 08:34:23.6    -265     51   -203    270    337 281.0 -45.1  34028  287.33 0855.38
2009/04/23 08:34:23.7    -231     53   -216    238    321 283.0 -51.4  34026  287.31 0855.38
2009/04/23 08:34:23.8    -149     29   -232    152    277 281.4 -68.0  34028  287.33 0855.38
2009/04/23 08:34:23.9    -157    106   -200    190    275 304.0 -56.0  34026  287.29 0855.38
2009/04/23 08:34:24.0    -146     93   -127    174    215 302.5 -44.1  34026  287.30 0855.38
2009/04/23 08:34:24.1    -127     17   -136    129    187 278.0 -56.4  34028  287.33 0855.38
2009/04/23 08:34:24.2    -185     72    -81    199    214 291.5 -27.5  34026  287.32 0855.38
2009/04/23 08:34:24.3    -148     50    -69    157    171 288.6 -29.7  34028  287.33 0855.38
2009/04/23 08:34:24.4    -120     37    -62    126    140 287.3 -32.2  34028  287.35 0855.38
2009/04/23 08:34:24.5    -135     15    -76    136    155 276.6 -35.8  34028  287.35 0855.38
2009/04/23 08:34:24.6    -140     40    -79    146    166 285.9 -35.2  34028  287.35 0855.38
2009/04/23 08:34:24.7    -175     18    -96    176    200 275.9 -35.4  34030  287.37 0855.38
2009/04/23 08:34:24.8    -117     -1    -86    118    146 269.2 -44.1  34026  287.32 0855.38
2009/04/23 08:34:24.9    -101     76    -45    127    135 307.3 -19.7  34028  287.33 0855.38
2009/04/23 08:34:25.0     -44    102    -22    112    115 336.8 -11.3  34028  287.35 0855.38
2009/04/23 08:34:25.1       7     37    -18     38     42  11.6 -31.6  34028  287.35 0855.38
2009/04/23 08:34:25.2      21     56     -1     60     61  20.9  -1.2  34030  287.37 0855.38
2009/04/23 08:34:25.3       8     57      7     58     59   8.9   7.1  34028  287.35 0855.38
2009/04/23 08:34:25.4       7     22      8     24     26  18.5  19.4  34028  287.35 0855.38
2009/04/23 08:34:25.5      47     -3      4     48     49  94.4   4.9  34028  287.33 0855.37
2009/04/23 08:34:25.6      73     -1     16     74     76  90.8  12.6  34026  287.32 0855.37
2009/04/23 08:34:25.7     121    -32      6    126    127 105.0   2.9  34028  287.35 0855.37
2009/04/23 08:34:25.8     142      0    -31    143    147  90.4 -12.4  34022  287.25 0855.37
2009/04/23 08:34:25.9     229     -3   -100    230    250  90.8 -29.5  34026  287.29 0855.37
2009/04/23 08:34:26.0     180    -12    -23    181    183  93.9  -7.5  34026  287.32 0855.37
2009/04/23 08:34:26.1     106     -8      4    107    108  94.4   2.3  34024  287.27 0855.37
2009/04/23 08:34:26.2      75     16     63     77     99  77.6  43.7  34026  287.30 0855.37
2009/04/23 08:34:26.3     -19    -39     78     44     89 206.3  67.7  34026  287.30 0855.37
2009/04/23 08:34:26.4     -60    -95     39    113    120 212.5  19.4  34026  287.30 0855.37
2009/04/23 08:34:26.5    -105   -131     80    169    186 218.7  27.1  34022  287.23 0855.37
2009/04/23 08:34:26.6     -14     -4     98     15     99 251.6  90.0  34026  287.32 0855.37
2009/04/23 08:34:26.7      41      7     48     42     63  79.4  53.3  34030  287.37 0855.37
2009/04/23 08:34:26.8      56     -6    109     57    123  97.0  70.8  34024  287.27 0855.37
2009/04/23 08:34:26.9      43    -10     84     45     95 103.3  69.8  34028  287.33 0855.37
2009/04/23 08:34:27.0      14    -32     96     35    102 156.4  79.7  34028  287.35 0855.37
2009/04/23 08:34:27.1      50     -5    115     51    125  96.1  74.9  34028  287.33 0855.37
2009/04/23 08:34:27.2      17     22     74     29     79  37.8  78.2  34028  287.33 0855.37
2009/04/23 08:34:27.3     -11     -9     85     15     86 230.5  90.0  34028  287.33 0855.37
2009/04/23 08:34:27.4       2    -21     78     22     81 173.8  83.9  34028  287.33 0855.37
2009/04/23 08:34:27.5       4    -57    100     58    115 175.5  66.8  34024  287.28 0855.37
2009/04/23 08:34:27.6     -86    -54     63    102    119 237.6  34.4  34026  287.32 0855.37
2009/04/23 08:34:27.7     -66    -53     34     85     91 231.4  22.5  34024  287.27 0855.37
2009/04/23 08:34:27.8     -53    -33     64     63     89 237.6  49.7  34024  287.28 0855.37
2009/04/23 08:34:27.9     -75      5     41     76     86 274.3  30.8  34024  287.28 0855.37
2009/04/23 08:34:28.0     -27    -22     22     36     42 230.5  34.4  34024  287.27 0855.37
2009/04/23 08:34:28.1     -11    -46      4     48     49 193.4   4.9  34026  287.30 0855.37
2009/04/23 08:34:28.2     -67     57     15     88     90 310.4  10.1  34020  287.21 0855.37
2009/04/23 08:34:28.3    -109     46     -4    119    120 293.1  -2.2  34026  287.30 0855.37
2009/04/23 08:34:28.4     -92      0     32     93     99 269.6  19.4  34024  287.27 0855.37
2009/04/23 08:34:28.5    -123    -35    -31    128    132 254.1 -13.9  34022  287.23 0855.37
2009/04/23 08:34:28.6    -184    -42    -37    189    193 257.0 -11.1  34026  287.30 0855.37
2009/04/23 08:34:28.7    -134    -14    -75    135    154 263.9 -35.8  34026  287.32 0855.37
2009/04/23 08:34:28.8    -108     19    -70    110    130 280.1 -39.9  34024  287.28 0855.37
2009/04/23 08:34:28.9     -66      0    -34     67     75 270.0 -32.6  34026  287.30 0855.37
2009/04/23 08:34:29.0      -5    -17    -14     18     22 198.3 -48.1  34026  287.30 0855.37
2009/04/23 08:34:29.1      13     -4    -12     14     18 108.4 -56.4  34026  287.32 0855.37
2009/04/23 08:34:29.2      42     60    -54     74     91  35.2 -44.5  34028  287.33 0855.37
2009/04/23 08:34:29.3      66     34    -49     75     89  62.9 -40.4  34024  287.28 0855.37
2009/04/23 08:34:29.4      95    -27     -5     99    100 105.9  -3.2  34026  287.32 0855.37
2009/04/23 08:34:29.5      97    -15      5     99    100  98.8   2.9  34026  287.30 0855.39
2009/04/23 08:34:29.6      54      0     26     55     60  90.0  27.2  34026  287.30 0855.39
2009/04/23 08:34:29.7      37    -14     42     40     58 111.7  49.1  34028  287.33 0855.39
2009/04/23 08:34:29.8     -37    -80     49     89    101 204.9  31.4  34026  287.32 0855.39
2009/04/23 08:34:29.9     -88    -82     56    121    133 227.3  26.6  34024  287.27 0855.39
2009/04/23 08:34:30.0     -71    -69     43    100    108 226.0  24.6  34026  287.30 0855.39
2009/04/23 08:34:30.1     -53    -33     24     63     67 237.6  21.0  34024  287.28 0855.39
2009/04/23 08:34:30.2     -96    -66     -2    117    118 235.4  -1.3  34024  287.28 0855.39
2009/04/23 08:34:30.3    -109    -77      1    134    135 234.9   0.8  34028  287.33 0855.39
2009/04/23 08:34:30.4     -86    -81     43    119    126 226.8  20.4  34024  287.27 0855.39
2009/04/23 08:34:30.5    -106    -37     70    113    132 250.5  35.5  34018  287.18 0855.39
2009/04/23 08:34:30.6    -101     -7     98    102    141 265.6  49.0  34024  287.28 0855.39
2009/04/23 08:34:30.7      -5     10     42     12     43 334.6  82.8  34030  287.38 0855.39
2009/04/23 08:34:30.8      10     40     14     42     45  14.3  18.4  34024  287.28 0855.39
2009/04/23 08:34:30.9     -24     35      8     43     44 325.7  11.1  34026  287.30 0855.39
2009/04/23 08:34:31.0     -23     70      2     74     75 341.3   1.8  34024  287.28 0855.39
2009/04/23 08:34:31.1    -139    157    -58    211    220 318.5 -15.5  34022  287.25 0855.39
2009/04/23 08:34:31.2    -184    101    -74    211    223 298.8 -24.0  34022  287.23 0855.39
2009/04/23 08:34:31.3    -169    -12    -34    170    174 265.6 -11.5  34024  287.28 0855.39
2009/04/23 08:34:31.4    -152    -31    -59    156    166 258.5 -25.9  34024  287.27 0855.39
2009/04/23 08:34:31.5    -150     49    -25    158    160 288.2  -9.0  34022  287.25 0855.39
2009/04/23 08:34:31.6    -140     78    -19    161    163 299.3  -6.7  34024  287.28 0855.39
2009/04/23 08:34:31.7    -199     96    -12    222    223 295.8  -3.3  34022  287.23 0855.39
2009/04/23 08:34:31.8    -157    140     -8    211    212 311.8  -2.3  34020  287.21 0855.39
2009/04/23 08:34:31.9    -155    130    -11    203    204 310.2  -3.1  34020  287.21 0855.39
2009/04/23 08:34:32.0    -225     53   -116    232    259 283.3 -32.9  34020  287.21 0855.39
2009/04/23 08:34:32.1    -232    128    -90    266    280 298.9 -23.3  34012  287.07 0855.39
2009/04/23 08:34:32.2    -354    208   -153    411    438 300.5 -25.7  34030  287.38 0855.39
2009/04/23 08:34:32.3    -362    170    -19    401    402 295.2  -2.8  34014  287.10 0855.39
2009/04/23 08:34:32.4    -335    185    -84    383    393 298.9 -12.4  34020  287.20 0855.39
2009/04/23 08:34:32.5    -223    209    -88    306    318 313.1 -20.9  34022  287.22 0855.39
2009/04/23 08:34:32.6    -175    164    -58    241    249 313.1 -13.7  34024  287.26 0855.39
2009/04/23 08:34:32.7    -227    272     -8    355    356 320.1  -1.4  34016  287.12 0855.39
2009/04/23 08:34:32.8    -278     88     -3    292    293 287.7  -0.7  34016  287.12 0855.39
2009/04/23 08:34:32.9    -226     74    -30    238    240 288.2  -7.2  34018  287.17 0855.39
2009/04/23 08:34:33.0    -211     99     18    234    235 295.2   4.6  34020  287.21 0855.39
2009/04/23 08:34:33.1    -199    186    -42    273    277 313.1  -8.8  34020  287.21 0855.39
2009/04/23 08:34:33.2    -212    170    -15    272    273 308.7  -3.2  34020  287.19 0855.39
2009/04/23 08:34:33.3    -154    199      7    252    253 322.2   1.6  34016  287.14 0855.39
2009/04/23 08:34:33.4    -167    147    -12    223    224 311.4  -3.1  34018  287.16 0855.39
2009/04/23 08:34:33.5    -215    136     11    255    256 302.4   2.5  34024  287.26 0855.40
2009/04/23 08:34:33.6    -196    123     24    232    234 302.2   6.1  34024  287.28 0855.40
2009/04/23 08:34:33.7    -167    133     43    214    219 308.6  11.4  34024  287.27 0855.40
2009/04/23 08:34:33.8    -141    110     57    179    188 308.0  17.7  34024  287.27 0855.40
2009/04/23 08:34:33.9    -101    131     71    166    180 322.2  24.3  34022  287.25 0855.40
2009/04/23 08:34:34.0     -87    105     60    137    149 320.3  25.2  34024  287.27 0855.40
2009/04/23 08:34:34.1     -85     69     71    110    130 309.1  35.6  34022  287.25 0855.40
2009/04/23 08:34:34.2     -68     86     77    110    134 321.7  38.0  34024  287.27 0855.40
2009/04/23 08:34:34.3     -83     68     53    108    120 309.5  27.8  34020  287.20 0855.40
2009/04/23 08:34:34.4    -165     39    -38    170    175 283.3 -12.6  34022  287.25 0855.40
2009/04/23 08:34:34.5    -135     74     -4    155    156 298.9  -1.8  34022  287.23 0855.40
2009/04/23 08:34:34.6    -167     34    -47    171    178 281.7 -15.4  34032  287.40 0855.40
2009/04/23 08:34:34.7    -181     54    -34    189    193 286.6 -10.3  34032  287.42 0855.40
2009/04/23 08:34:34.8    -166     46    -46    173    180 285.5 -15.0  34030  287.38 0855.40
2009/04/23 08:34:34.9    -195     26    -62    197    207 277.7 -17.6  34040  287.54 0855.40
2009/04/23 08:34:35.0    -202     28    -60    204    212 277.9 -21.7  34038  287.52 0855.40
2009/04/23 08:34:35.1    -214      7   -110    215    241 272.1 -33.6  34040  287.53 0855.40
2009/04/23 08:34:35.2    -193     18   -117    194    226 275.5 -38.4  34036  287.49 0855.40
2009/04/23 08:34:35.3    -194     20   -111    196    225 276.1 -36.0  34036  287.47 0855.40
2009/04/23 08:34:35.4    -155      2    -88    156    179 270.9 -36.3  34036  287.49 0855.40
2009/04/23 08:34:35.5    -122     72    -50    142    151 300.7 -19.7  34034  287.45 0855.39
2009/04/23 08:34:35.6    -143     77    -29    163    166 298.4 -10.3  34032  287.42 0855.39
2009/04/23 08:34:35.7    -175     62    -51    186    192 289.5 -20.0  34034  287.45 0855.39
2009/04/23 08:34:35.8    -252     69    -56    262    269 285.3 -12.2  34024  287.28 0855.39
2009/04/23 08:34:35.9    -371     64   -127    377    397 279.8 -23.6  34016  287.13 0855.39
2009/04/23 08:34:36.0    -207    159    -73    262    271 307.5 -20.2  34014  287.11 0855.39
2009/04/23 08:34:36.1    -268    189    -76    329    338 305.2 -13.2  34014  287.10 0855.39
2009/04/23 08:34:36.2    -347    181   -109    392    406 297.5 -20.2  34032  287.40 0855.39
2009/04/23 08:34:36.3    -301    167    -76    345    354 299.1 -12.5  34026  287.29 0855.39
2009/04/23 08:34:36.4    -299    180   -111    350    367 301.0 -22.8  34020  287.20 0855.39
2009/04/23 08:34:36.5    -280    113   -124    302    326 292.0 -28.1  34018  287.17 0855.36
2009/04/23 08:34:36.6    -262     19   -141    263    298 274.3 -35.0  34022  287.24 0855.36
2009/04/23 08:34:36.7    -379     41   -136    382    406 276.2 -19.6  34016  287.12 0855.36
2009/04/23 08:34:36.8    -281    -21    -80    282    293 265.6 -20.7  34030  287.36 0855.36
2009/04/23 08:34:36.9    -227   -106    -92    251    267 244.8 -25.4  34038  287.51 0855.36
2009/04/23 08:34:37.0    -222   -135    -91    260    275 238.7 -24.4  34036  287.48 0855.36
2009/04/23 08:34:37.1    -251    -11   -103    252    272 267.4 -27.5  34026  287.29 0855.36
2009/04/23 08:34:37.2    -263     70   -127    273    301 285.0 -31.4  34032  287.39 0855.36
2009/04/23 08:34:37.3    -180     67   -103    193    218 290.4 -35.0  34026  287.30 0855.36
2009/04/23 08:34:37.4    -165     45   -103    172    200 285.5 -37.9  34026  287.32 0855.36
2009/04/23 08:34:37.5    -117     39    -70    124    142 288.6 -35.8  34016  287.15 0855.36
2009/04/23 08:34:37.6    -128     13    -38    129    134 276.1 -21.7  34018  287.16 0855.36
2009/04/23 08:34:37.7    -144    -43    -47    151    158 253.2 -22.3  34020  287.20 0855.36
2009/04/23 08:34:37.8    -164     46    -79    171    188 285.7 -31.4  34024  287.27 0855.36
2009/04/23 08:34:37.9    -202      2    -52    203    210 270.6 -14.5  34022  287.25 0855.36
2009/04/23 08:34:38.0    -206    -25    -59    208    216 263.0 -20.2  34028  287.35 0855.36
2009/04/23 08:34:38.2    -210    107   -134    236    271 297.1 -36.7  34028  287.33 0855.36
2009/04/23 08:34:38.3    -162     39   -103    167    196 283.7 -39.2  34024  287.27 0855.36
2009/04/23 08:34:38.3    -169     -8    -85    170    190 267.2 -32.6  34024  287.27 0855.36
2009/04/23 08:34:38.4    -161     -2    -34    162    166 269.2 -11.9  34022  287.23 0855.36
2009/04/23 08:34:38.5    -156     26    -49    159    166 279.6 -22.3  34024  287.28 0855.34
2009/04/23 08:34:38.6    -139      9    -59    140    151 273.9 -28.5  34024  287.28 0855.34
2009/04/23 08:34:38.7     -96     18    -47     98    108 280.6 -31.6  34026  287.30 0855.34
2009/04/23 08:34:38.8     -93      6    -66     94    114 273.9 -43.0  34024  287.27 0855.34
2009/04/23 08:34:39.0     -96    -32    -72    102    124 251.4 -43.0  34024  287.28 0855.34
2009/04/23 08:34:39.0     -66     -3   -110     67    128 267.4 -70.1  34024  287.27 0855.34
2009/04/23 08:34:39.1     -99    -63   -148    118    189 237.6 -61.5  34024  287.27 0855.34
2009/04/23 08:34:39.2    -123    -70   -108    142    178 240.2 -45.6  34022  287.23 0855.34
2009/04/23 08:34:39.4    -119    -36   -126    125    177 253.2 -54.5  34020  287.20 0855.34
2009/04/23 08:34:39.5    -197    -42    -77    202    216 257.8 -26.4  34014  287.11 0855.34
2009/04/23 08:34:39.5    -161    -94    -58    187    196 239.8 -17.3  34018  287.16 0855.34
2009/04/23 08:34:39.6     -25   -163    -30    166    169 188.9 -10.5  34016  287.15 0855.34
2009/04/23 08:34:39.7     -57   -209     11    217    218 195.4   2.9  34020  287.21 0855.34
2009/04/23 08:34:39.8      -6   -281     57    282    288 181.4  11.4  34022  287.24 0855.34
2009/04/23 08:34:40.0       8   -263     60    264    271 178.2  12.9  34022  287.22 0855.34
2009/04/23 08:34:40.0      -8   -244     98    245    263 182.0  23.0  34022  287.22 0855.34
2009/04/23 08:34:40.1     -25   -219    101    221    242 186.7  26.2  34024  287.26 0855.34
2009/04/23 08:34:40.2     -17   -217     77    218    232 184.5  19.6  34026  287.32 0855.34
2009/04/23 08:34:40.3     -10   -163    103    164    193 183.8  35.5  34022  287.25 0855.34
2009/04/23 08:34:40.4     -22   -123    106    126    164 190.2  44.5  34026  287.30 0855.34
2009/04/23 08:34:40.5      11    -95    107     96    143 173.3  53.3  34028  287.33 0855.32
2009/04/23 08:34:40.6      59    -93     80    111    136 147.5  39.5  34024  287.28 0855.32
2009/04/23 08:34:40.8      38    -49     73     63     96 142.2  54.8  34024  287.28 0855.32
2009/04/23 08:34:40.8     -22    -93     66     96    116 193.8  37.6  34026  287.30 0855.32
2009/04/23 08:34:40.9       8    -73     46     74     87 173.8  35.5  34026  287.32 0855.32
2009/04/23 08:34:41.0      45   -136     71    144    160 161.7  28.2  34028  287.33 0855.32
2009/04/23 08:34:41.1      47   -191     72    197    209 166.0  20.9  34026  287.30 0855.32
2009/04/23 08:34:41.2      -3   -226     23    227    229 181.0   5.9  34026  287.32 0855.32
2009/04/23 08:34:41.3      91   -119    102    151    182 142.6  37.0  34028  287.35 0855.32
2009/04/23 08:34:41.4     109   -107    129    153    200 134.4  44.5  34026  287.32 0855.32
2009/04/23 08:34:41.5     109   -128    131    169    213 139.7  41.7  34030  287.37 0855.32
2009/04/23 08:34:41.6     112   -155    107    192    219 144.2  31.4  34030  287.38 0855.32
2009/04/23 08:34:41.7      95   -157     83    184    201 148.8  25.7  34032  287.40 0855.32
2009/04/23 08:34:41.9     121   -170    115    209    238 144.6  31.4  34028  287.35 0855.32
2009/04/23 08:34:41.9      86    -95     96    129    160 137.7  40.4  34028  287.33 0855.32
2009/04/23 08:34:42.0      62    -20     72     66     97 107.7  52.2  34032  287.40 0855.32
2009/04/23 08:34:42.1      21    -61     55     65     85 160.8  44.8  34034  287.43 0855.32
2009/04/23 08:34:42.2      22     16     42     28     50  54.0  63.6  34034  287.43 0855.32
2009/04/23 08:34:42.3      30     15     38     34     50  62.9  53.3  34034  287.43 0855.32
2009/04/23 08:34:42.4      12     27     37     30     47  25.5  56.4  34034  287.43 0855.32
2009/04/23 08:34:42.5      -2     34     30     35     46 355.5  45.8  34032  287.42 0855.32
2009/04/23 08:34:42.6     -21     34     27     41     49 328.4  36.5  34032  287.40 0855.32
2009/04/23 08:34:42.7     -45     54     31     71     77 320.4  25.1  34032  287.42 0855.32
2009/04/23 08:34:42.8     -39     42     43     58     72 316.8  39.7  34030  287.38 0855.32
2009/04/23 08:34:42.9     -66     50     36     83     90 307.3  25.1  34032  287.40 0855.32
2009/04/23 08:34:43.0     -53     56      5     78     79 316.8   3.8  34032  287.42 0855.32
2009/04/23 08:34:43.1     -52     74     13     91     93 324.8   8.5  34030  287.38 0855.32
2009/04/23 08:34:43.2     -61     56    -26     84     89 312.7 -17.6  34030  287.37 0855.32
2009/04/23 08:34:43.3     -45     63    -30     78     83 324.0 -25.9  34032  287.40 0855.32
2009/04/23 08:34:43.4     -40     81     -5     91     92 333.7  -3.1  34030  287.38 0855.32
2009/04/23 08:34:43.5     -37     58     18     69     72 327.4  15.3  34032  287.40 0855.32
2009/04/23 08:34:43.6     -38     12    -24     40     46 287.7 -38.8  34030  287.38 0855.32
2009/04/23 08:34:43.7       8     15    -37     18     41  29.0 -77.3  34026  287.30 0855.32
2009/04/23 08:34:43.9     173    -11    -96    174    198  93.9 -35.8  34030  287.37 0855.32
2009/04/23 08:34:43.9     181     41    -79    186    202  77.0 -28.7  34032  287.40 0855.32
2009/04/23 08:34:44.1     152      9    -20    153    155  86.5  -7.7  34026  287.30 0855.32
2009/04/23 08:34:44.2     197    -21     54    199    207  96.1  15.3  34022  287.23 0855.32
2009/04/23 08:34:44.3      92      0    136     93    164  90.0  62.6  34028  287.33 0855.32
2009/04/23 08:34:44.4     -43    -35     87     56    103 230.4  64.6  34030  287.37 0855.32
2009/04/23 08:34:44.5      -9     16     39     19     43 331.0  72.9  34030  287.37 0855.32
2009/04/23 08:34:44.6      41     26     -1     49     50  57.6  -2.2  34032  287.42 0855.32
2009/04/23 08:34:44.7     108     37     54    115    127  70.9  27.1  34028  287.33 0855.32
2009/04/23 08:34:44.8     162     -2     88    163    185  90.8  30.8  34028  287.35 0855.32
2009/04/23 08:34:44.9     113    -35    137    119    181 107.3  54.6  34026  287.32 0855.32
2009/04/23 08:34:45.0     123    -57    130    136    188 115.2  48.7  34028  287.35 0855.32
2009/04/23 08:34:45.1     162   -101    145    192    240 122.0  40.7  34026  287.32 0855.32
2009/04/23 08:34:45.2     112   -134    192    175    259 140.1  53.0  34032  287.39 0855.32
2009/04/23 08:34:45.3       0   -248    163    249    297 180.0  36.5  34028  287.34 0855.32
2009/04/23 08:34:45.4     -51   -253    280    259    381 191.6  52.5  34026  287.29 0855.32
2009/04/23 08:34:45.5     -68   -132    197    149    247 207.2  59.2  34020  287.21 0855.32
2009/04/23 08:34:45.6      24    -83    118     87    146 164.0  60.5  34030  287.37 0855.32
2009/04/23 08:34:45.7     -23   -142    151    144    208 189.3  51.4  34030  287.37 0855.32
2009/04/23 08:34:45.8     -37   -113    133    120    179 198.3  53.0  34030  287.37 0855.32
2009/04/23 08:34:45.9     -15   -100    100    102    142 188.9  50.0  34030  287.37 0855.32
2009/04/23 08:34:46.0       1    -78    106     79    132 179.1  59.4  34034  287.43 0855.32
2009/04/23 08:34:46.1     -16    -82     85     84    119 191.6  50.1  34034  287.43 0855.32
2009/04/23 08:34:46.2      56    -14     96     58    112 104.2  65.7  34036  287.47 0855.32
2009/04/23 08:34:46.3       5   -124    102    125    161 177.4  43.5  34030  287.38 0855.32
2009/04/23 08:34:46.4    -112   -190     85    221    236 210.7  22.1  34034  287.45 0855.32
2009/04/23 08:34:46.5     -77   -187     35    203    207 202.3   9.9  34034  287.45 0855.32
2009/04/23 08:34:46.6     -73   -208     70    221    232 199.4  17.7  34034  287.45 0855.35
2009/04/23 08:34:46.7     -90   -162    105    186    213 209.2  32.1  34036  287.47 0855.35
2009/04/23 08:34:46.8     -84   -108     96    137    167 217.9  38.6  34032  287.42 0855.35
2009/04/23 08:34:46.9     -48    -58     95     76    121 219.7  57.5  34032  287.42 0855.35
2009/04/23 08:34:47.0    -107    -76    146    132    196 234.5  53.3  34032  287.42 0855.35
2009/04/23 08:34:47.1    -152    -75    129    170    213 243.8  41.2  34032  287.42 0855.35
2009/04/23 08:34:47.2    -126   -104     76    164    180 230.5  26.6  34036  287.49 0855.35
2009/04/23 08:34:47.3     -70    -83     90    109    141 220.1  43.7  34036  287.49 0855.35
2009/04/23 08:34:47.4     -74   -117     73    139    157 212.6  29.8  34036  287.47 0855.35
2009/04/23 08:34:47.5     -58    -70     22     92     95 219.6  13.7  34034  287.43 0855.35
2009/04/23 08:34:47.6       0    -55      7     56     57 180.0   8.0  34036  287.47 0855.35
2009/04/23 08:34:47.7      37    -35     10     52     54 133.1  11.1  34036  287.49 0855.35
2009/04/23 08:34:47.8      69    -23     25     73     78 108.4  19.2  34034  287.45 0855.35
2009/04/23 08:34:47.9     135     31     82    139    161  76.7  33.1  34034  287.45 0855.35
2009/04/23 08:34:48.0     133     31     40    137    143  76.8  16.3  34030  287.38 0855.35
2009/04/23 08:34:48.1     124     -1     72    125    144  90.8  32.9  34034  287.43 0855.35
2009/04/23 08:34:48.2      54     34     76     64     99  57.6  55.8  34030  287.38 0855.35
2009/04/23 08:34:48.3      28     42    102     51    114  33.4  71.9  34032  287.42 0855.35
2009/04/23 08:34:48.4     -12     37     65     40     76 341.3  64.7  34034  287.43 0855.35
2009/04/23 08:34:48.5       5     47     91     48    102   7.1  70.4  34032  287.42 0855.35
2009/04/23 08:34:48.6     -29     45     65     54     84 327.5  56.4  34034  287.45 0855.34
2009/04/23 08:34:48.7     -14    -32     73     35     80 203.6  72.4  34034  287.43 0855.34
2009/04/23 08:34:48.8      -1     -6     80      7     80 189.7  90.0  34038  287.52 0855.34
2009/04/23 08:34:48.9       8    -26     85     28     89 161.7  80.7  34034  287.45 0855.34
2009/04/23 08:34:49.0      14    -43     62     46     77 161.5  60.5  34036  287.47 0855.34
2009/04/23 08:34:49.1      46    -33     63     57     84 126.0  52.7  34036  287.49 0855.34
2009/04/23 08:34:49.2      -1    -93    106     94    141 180.9  53.7  34034  287.43 0855.34
2009/04/23 08:34:49.3       1   -109    145    110    182 179.1  59.2  34034  287.45 0855.34
2009/04/23 08:34:49.4       2   -161    117    162    199 179.3  39.5  34034  287.45 0855.34
2009/04/23 08:34:49.5       2   -146    129    147    195 179.0  45.8  34030  287.37 0855.34
2009/04/23 08:34:49.6      33   -115     86    120    147 164.0  39.5  34032  287.42 0855.34
2009/04/23 08:34:49.7      78   -101     70    128    145 142.2  31.4  34034  287.43 0855.34
2009/04/23 08:34:49.8      97   -160    154    188    243 148.6  43.7  34034  287.45 0855.34
2009/04/23 08:34:49.9     132   -214    179    252    309 148.4  39.1  34036  287.46 0855.34
2009/04/23 08:34:50.0     200   -241     80    314    325 140.4  14.4  34034  287.44 0855.34
2009/04/23 08:34:50.1     188   -280    131    338    362 146.1  22.3  34026  287.30 0855.34
2009/04/23 08:34:50.2     122   -311    135    335    361 158.5  23.1  34028  287.35 0855.34
2009/04/23 08:34:50.3      47   -327    189    331    381 171.8  32.4  34032  287.39 0855.34
2009/04/23 08:34:50.4      -5   -333    208    334    393 180.9  34.9  34032  287.39 0855.34
2009/04/23 08:34:50.5      -1   -341    224    342    408 180.2  36.3  34034  287.44 0855.34
2009/04/23 08:34:50.6     114   -326    178    346    389 160.7  29.3  34032  287.39 0855.34
2009/04/23 08:34:50.7     115   -289    178    312    359 158.2  32.4  34028  287.35 0855.34
2009/04/23 08:34:50.8      22   -243     90    245    261 174.7  20.9  34032  287.39 0855.34
2009/04/23 08:34:50.9      68   -270    111    279    300 165.8  23.0  34034  287.43 0855.34
2009/04/23 08:34:51.0      17   -222     11    223    224 175.5   2.9  34032  287.42 0855.34
2009/04/23 08:34:51.1       0   -186    -26    187    189 179.8  -8.0  34030  287.38 0855.34
2009/04/23 08:34:51.2      59    -71     -3     93     94 140.3  -2.2  34028  287.35 0855.34
2009/04/23 08:34:51.3      41   -151     94    157    182 164.8  34.0  34032  287.42 0855.34
2009/04/23 08:34:51.4      16   -156     99    157    185 173.8  35.5  34030  287.37 0855.34
2009/04/23 08:34:51.5      24   -193     42    195    200 172.9  12.2  34032  287.40 0855.34
2009/04/23 08:34:51.6      68   -170     30    184    187 158.2   9.5  34030  287.38 0855.34
2009/04/23 08:34:51.7      68   -144     29    160    163 154.6  10.6  34032  287.40 0855.34
2009/04/23 08:34:51.8      93    -88     35    129    134 133.6  15.3  34030  287.37 0855.34
2009/04/23 08:34:51.9     121    -71     36    141    146 120.7  14.3  34034  287.45 0855.34
2009/04/23 08:34:52.0     130    -65    -29    146    149 116.6 -11.5  34034  287.43 0855.34
2009/04/23 08:34:52.1     135   -104    -49    171    178 127.8 -16.0  34030  287.37 0855.34
2009/04/23 08:34:52.2     101   -114     41    153    159 138.6  15.3  34028  287.35 0855.34
2009/04/23 08:34:52.3     154   -276    144    317    348 150.8  26.3  34026  287.30 0855.34
2009/04/23 08:34:52.4     138   -217    126    258    287 147.4  28.0  34026  287.29 0855.34
2009/04/23 08:34:52.5     155   -172    206    232    310 137.9  46.2  34024  287.26 0855.34
2009/04/23 08:34:52.6     143   -147    191    206    280 135.9  47.9  34022  287.22 0855.34
2009/04/23 08:34:52.7     172   -109    149    204    252 122.4  39.7  34024  287.26 0855.34
2009/04/23 08:34:52.8     132   -105     77    169    185 128.6  26.4  34022  287.23 0855.34
2009/04/23 08:34:52.9      71    -96    113    120    164 143.5  48.5  34024  287.27 0855.34
2009/04/23 08:34:53.0     110    -79     84    136    159 126.0  34.8  34026  287.30 0855.34
2009/04/23 08:34:53.1     145    -67    106    160    191 114.8  36.3  34024  287.27 0855.34
2009/04/23 08:34:53.2      88    -56    163    105    193 122.4  64.6  34020  287.21 0855.34
2009/04/23 08:34:53.3      93     -7     90     94    130  94.4  49.0  34022  287.23 0855.34
2009/04/23 08:34:53.4     109    -37     40    116    123 109.1  19.4  34020  287.20 0855.34
2009/04/23 08:34:53.5      92    -30     19     97     99 108.2  11.1  34024  287.28 0855.34
2009/04/23 08:34:53.6      81    -49     41     95    103 121.1  24.6  34024  287.27 0855.34
2009/04/23 08:34:53.7     114      8      8    115    116  85.6   4.4  34024  287.28 0855.34
2009/04/23 08:34:53.8     142     46      7    150    151  71.8   2.8  34026  287.30 0855.34
2009/04/23 08:34:53.9      81     41    -15     92     94  62.9  -9.8  34026  287.30 0855.34
2009/04/23 08:34:54.0       6     87    -26     88     91   4.5 -21.7  34028  287.33 0855.34
2009/04/23 08:34:54.1     -19    101    -48    103    113 349.3 -31.5  34026  287.32 0855.34
2009/04/23 08:34:54.2      29     46     -9     55     56  32.5 -10.3  34026  287.32 0855.34
2009/04/23 08:34:54.3      54     57      8     79     80  43.2   5.9  34028  287.33 0855.34
2009/04/23 08:34:54.4     104     63    -44    122    129  58.9 -24.8  34028  287.35 0855.34
2009/04/23 08:34:54.5     111     89    -51    143    152  51.4 -19.7  34024  287.28 0855.34
2009/04/23 08:34:54.6     180    228   -116    291    313  38.3 -27.3  34024  287.26 0855.34
2009/04/23 08:34:54.7      41     -9   -139     42    145 102.4 -87.1  34016  287.15 0855.34
2009/04/23 08:34:54.8     105    -12    146    106    180  97.0  60.5  34014  287.11 0855.34
2009/04/23 08:34:54.9      46     70    109     84    137  33.4  58.5  34018  287.18 0855.34
2009/04/23 08:34:55.0      -4      4      0      6      7 316.6  -2.2  34020  287.21 0855.34
2009/04/23 08:34:55.1    -200    -72    135    213    252 250.0  35.5  34022  287.22 0855.34
2009/04/23 08:34:55.2    -155    -51    140    164    215 251.8  44.8  34016  287.15 0855.34
2009/04/23 08:34:55.3     -43   -134    105    141    175 197.8  40.4  34016  287.13 0855.34
2009/04/23 08:34:55.4     -54    -55     67     78    102 224.2  45.4  34020  287.20 0855.34
2009/04/23 08:34:55.5    -126    -91    111    156    191 234.0  39.1  34016  287.13 0855.34
2009/04/23 08:34:55.6     -70   -107     65    129    144 213.4  29.2  34018  287.16 0855.34
2009/04/23 08:34:55.7    -139    -55    109    150    185 248.2  39.7  34020  287.20 0855.34
2009/04/23 08:34:55.8    -131   -109     59    171    182 230.4  19.2  34020  287.20 0855.34
2009/04/23 08:34:55.9      68   -179    141    192    238 159.1  39.9  34014  287.11 0855.34
2009/04/23 08:34:56.0     215   -172    148    276    313 128.6  30.5  34016  287.12 0855.34
2009/04/23 08:34:56.1      25   -161     30    163    166 171.1  10.6  34014  287.10 0855.34
2009/04/23 08:34:56.2     132    -57    -62    145    157 113.5 -28.7  34018  287.18 0855.34
2009/04/23 08:34:56.3     242    -77   -119    254    280 107.7 -31.4  34016  287.12 0855.34
2009/04/23 08:34:56.4     213   -119      2    245    246 119.3   0.5  34016  287.12 0855.34
2009/04/23 08:34:56.5      79   -276    124    288    313 164.0  24.9  34012  287.07 0855.34
2009/04/23 08:34:56.6     101   -355     65    370    376 164.1  10.1  34016  287.13 0855.35
2009/04/23 08:34:56.7     108   -302    -72    321    330 160.3 -12.7  34010  287.04 0855.35
2009/04/23 08:34:56.8     -70   -195    -32    208    211 199.8  -8.8  34014  287.11 0855.35
2009/04/23 08:34:56.9    -120   -148    -93    191    212 219.0 -32.2  34012  287.08 0855.35
2009/04/23 08:34:57.0      46   -205   -137    211    251 167.3 -40.1  34018  287.16 0855.35
2009/04/23 08:34:57.1      35   -175     -6    179    180 168.4  -2.1  34016  287.15 0855.35
2009/04/23 08:34:57.2       7    -32     35     33     48 166.6  50.1  34014  287.10 0855.35
2009/04/23 08:34:57.3     -33   -140   -132    144    195 193.3 -51.9  34014  287.11 0855.35
2009/04/23 08:34:57.4     -26   -197   -159    199    254 187.6 -47.2  34014  287.11 0855.35
2009/04/23 08:34:57.5      13   -228    -69    229    239 176.6 -21.7  34010  287.02 0855.35
2009/04/23 08:34:57.6      45   -372      4    375    376 173.0   0.7  34012  287.08 0855.36
2009/04/23 08:34:57.7      73   -470     14    476    477 171.1   1.8  34014  287.09 0855.36
2009/04/23 08:34:57.8     182   -494    -50    527    530 159.7  -5.5  34016  287.15 0855.36
2009/04/23 08:34:57.9     259   -472      2    539    540 151.3   0.2  34016  287.15 0855.36
2009/04/23 08:34:58.0     222   -481    -14    530    531 155.2  -1.6  34016  287.13 0855.36
2009/04/23 08:34:58.1     236   -393     55    459    463 149.0   6.9  34012  287.08 0855.36
2009/04/23 08:34:58.2     251   -392     13    466    467 147.4   1.7  34006  286.98 0855.36
2009/04/23 08:34:58.3     250   -392     39    466    468 147.5   4.9  34014  287.09 0855.36
2009/04/23 08:34:58.4     291   -340     88    448    457 139.5  11.1  34016  287.13 0855.36
2009/04/23 08:34:58.5     292   -331    -20    442    443 138.6  -2.6  34018  287.18 0855.36
2009/04/23 08:34:58.6     266   -438     61    513    517 148.7   6.9  34016  287.14 0855.36
2009/04/23 08:34:58.7     225   -482    107    532    543 155.0  11.4  34018  287.18 0855.36
2009/04/23 08:34:58.8     255   -480     43    544    546 152.0   4.6  34006  286.98 0855.36
2009/04/23 08:34:58.9     241   -404     -5    471    472 149.2  -0.7  34014  287.09 0855.36
2009/04/23 08:34:59.0     286   -434     21    520    521 146.6   2.3  34014  287.11 0855.36
2009/04/23 08:34:59.1     267   -449    -46    523    526 149.3  -5.1  34012  287.08 0855.36
2009/04/23 08:34:59.2     297   -396    -40    495    497 143.1  -4.7  34014  287.10 0855.36
2009/04/23 08:34:59.3     323   -378    -48    498    501 139.5  -5.6  34016  287.14 0855.36
2009/04/23 08:34:59.4     254   -303   -140    396    421 140.1 -19.5  34016  287.13 0855.36
2009/04/23 08:34:59.5     350   -231    -46    420    423 123.5  -6.3  34018  287.18 0855.36
2009/04/23 08:34:59.6     321   -137    -67    350    357 113.2 -10.9  34018  287.17 0855.36
2009/04/23 08:34:59.7     294   -146    -95    329    342 116.4 -20.9  34018  287.17 0855.36
2009/04/23 08:34:59.8     356   -298    121    465    481 130.0  14.7  34004  286.93 0855.36
2009/04/23 08:34:59.9     342   -297    159    454    481 131.0  20.0  34022  287.22 0855.36
2009/04/23 08:35:00.0     291   -229     38    371    373 128.2   5.9  34018  287.17 0855.36
2009/04/23 08:35:00.1     274   -255     41    375    378 133.0   6.4  34016  287.13 0855.36
2009/04/23 08:35:00.2     345   -295    123    455    472 130.6  15.2  34016  287.14 0855.36
2009/04/23 08:35:00.3     328   -279    164    432    462 130.4  22.0  34024  287.28 0855.36
2009/04/23 08:35:00.4     299   -289    155    417    444 134.0  21.3  34022  287.24 0855.36
2009/04/23 08:35:00.5     322   -278    120    426    443 130.9  15.8  34024  287.26 0855.36
2009/04/23 08:35:00.6     314   -348     49    469    472 137.9   6.1  34016  287.12 0855.36
2009/04/23 08:35:00.7     290   -396     96    492    502 143.8  11.1  34024  287.27 0855.36
2009/04/23 08:35:00.8     306   -294    150    425    450 133.9  20.1  34026  287.30 0855.36
2009/04/23 08:35:00.9     250   -138    -36    286    289 118.9  -7.3  34020  287.21 0855.36
2009/04/23 08:35:01.0     309   -107     25    328    330 109.1   4.5  34020  287.19 0855.36
2009/04/23 08:35:01.1     257     11     11    258    259  87.5   2.5  34020  287.19 0855.36
2009/04/23 08:35:01.2     277    -30     93    279    295  96.2  18.6  34022  287.24 0855.36
2009/04/23 08:35:01.3     224   -185    183    291    343 129.6  35.3  34022  287.22 0855.36
2009/04/23 08:35:01.4     118   -308    234    330    404 159.0  38.7  34022  287.23 0855.36
2009/04/23 08:35:01.5     209   -236    202    316    375 138.6  35.6  34022  287.25 0855.36
2009/04/23 08:35:01.6     217   -280    137    355    380 142.3  22.3  34022  287.22 0855.35
2009/04/23 08:35:01.8     201   -256    206    326    385 141.9  35.5  34022  287.22 0855.35
2009/04/23 08:35:01.8     288   -204    157    353    386 125.3  25.6  34026  287.30 0855.35
2009/04/23 08:35:01.9     348   -324     19    476    477 132.9   2.4  34022  287.24 0855.35
2009/04/23 08:35:02.0     340   -360    174    496    525 136.6  20.1  34022  287.22 0855.35
2009/04/23 08:35:02.1     347   -309    140    465    486 131.7  16.8  34022  287.24 0855.35
2009/04/23 08:35:02.2     420   -299     44    516    519 125.5   4.9  34024  287.27 0855.35
2009/04/23 08:35:02.3     429   -272     56    508    512 122.4   6.4  34026  287.29 0855.35
2009/04/23 08:35:02.4     291   -202     46    355    358 124.8   7.5  34028  287.34 0855.35
2009/04/23 08:35:02.5     206   -154     45    258    263 126.8  10.0  34026  287.31 0855.35
2009/04/23 08:35:02.6     134   -128    -34    186    190 133.8 -10.5  34028  287.33 0855.35
2009/04/23 08:35:02.7     225   -179    -80    288    298 128.6 -20.2  34026  287.29 0855.35
2009/04/23 08:35:02.8     264   -106    -57    285    291 112.0 -11.5  34020  287.19 0855.35
2009/04/23 08:35:02.9     164    -99    -78    192    207 121.1 -27.8  34026  287.32 0855.35
2009/04/23 08:35:03.0     174    -80    -56    192    201 114.8 -16.4  34024  287.27 0855.35
2009/04/23 08:35:03.1     114    -77    -51    138    147 124.2 -25.3  34026  287.30 0855.35
2009/04/23 08:35:03.2      60    -46    -57     76     95 127.8 -45.1  34026  287.30 0855.35
2009/04/23 08:35:03.3      63    -40    -49     75     89 122.5 -40.4  34026  287.30 0855.35
2009/04/23 08:35:03.4      78     63    -91    101    135  50.9 -51.3  34024  287.28 0855.35
2009/04/23 08:35:03.5      66    -64   -106     93    141 134.0 -58.7  34022  287.25 0855.35
2009/04/23 08:35:03.6      99    -78    -84    127    152 128.2 -40.4  34022  287.23 0855.34
2009/04/23 08:35:03.7     124    -81    -55    149    158 123.3 -25.7  34024  287.27 0855.34
2009/04/23 08:35:03.8     129    -30    -16    133    135 103.3  -7.2  34026  287.32 0855.34
2009/04/23 08:35:03.9     209     74     42    222    227  70.5  10.8  34024  287.27 0855.34
2009/04/23 08:35:04.0     212     86     34    230    233  67.8   8.5  34024  287.27 0855.34
2009/04/23 08:35:04.1     250    -17     62    251    259  93.9  13.9  34024  287.28 0855.34
2009/04/23 08:35:04.2     355     22     28    356    358  86.4   4.6  34024  287.27 0855.34
2009/04/23 08:35:04.3     326     17     47    327    331  87.0   8.2  34026  287.30 0855.34
2009/04/23 08:35:04.4     228     36    148    231    274  81.0  35.6  34020  287.21 0855.34
2009/04/23 08:35:04.5     196     67     98    208    229  70.9  27.1  34024  287.28 0855.34
2009/04/23 08:35:04.6     150    110     10    187    188  53.6   3.1  34024  287.28 0855.34
2009/04/23 08:35:04.7     144    112     19    183    185  52.0   6.1  34024  287.28 0855.34
2009/04/23 08:35:04.8     114     83     64    142    155  54.0  26.2  34026  287.30 0855.34
2009/04/23 08:35:04.9      31     31     77     45     89  45.0  66.8  34024  287.28 0855.34
2009/04/23 08:35:05.0     -11     34    -14     36     38 341.3 -23.3  34026  287.32 0855.34
2009/04/23 08:35:05.1     -44     27    -40     52     65 301.5 -46.1  34024  287.28 0855.34
2009/04/23 08:35:05.2     -51      0    -15     52     55 270.0 -16.6  34026  287.30 0855.34
2009/04/23 08:35:05.3     -83     19    -30     86     91 283.3 -23.8  34026  287.32 0855.34
2009/04/23 08:35:05.4     -95    -44    -25    105    108 244.8 -13.4  34026  287.32 0855.34
2009/04/23 08:35:05.5    -114    -63      5    131    132 241.1   2.3  34026  287.30 0855.34
2009/04/23 08:35:05.6     -93    -99     -5    137    138 223.2  -2.2  34026  287.32 0855.35
2009/04/23 08:35:05.7     -75     25    -47     80     92 288.6 -37.9  34022  287.25 0855.35
2009/04/23 08:35:05.8     -39     87    -49     96    107 335.5 -32.6  34028  287.33 0855.35
2009/04/23 08:35:05.9      50    148    -81    157    176  18.7 -33.7  34026  287.30 0855.35
2009/04/23 08:35:06.0      -7     98    -84     99    129 355.6 -48.7  34024  287.27 0855.35
2009/04/23 08:35:06.1      25    155   -125    158    201   9.3 -46.8  34026  287.30 0855.35
2009/04/23 08:35:06.2     -17    179    -81    180    197 354.4 -30.1  34024  287.27 0855.35
2009/04/23 08:35:06.3      48    187     -9    194    195  14.5  -2.8  34022  287.25 0855.35
2009/04/23 08:35:06.4      75    187     19    202    203  21.8   5.4  34024  287.28 0855.35
2009/04/23 08:35:06.5     -35    172    133    176    220 348.4  40.9  34024  287.28 0855.35
2009/04/23 08:35:06.6     -89    205     66    224    234 336.6  16.6  34024  287.27 0855.35
2009/04/23 08:35:06.7     -67    249     73    259    270 344.8  15.8  34026  287.29 0855.35
2009/04/23 08:35:06.8     -95    236     59    255    262 337.9  13.2  34028  287.33 0855.35
2009/04/23 08:35:06.9     -72    317      0    326    327 347.1   0.0  34024  287.26 0855.35
2009/04/23 08:35:07.0     -77    305    -61    315    321 345.8 -11.0  34022  287.24 0855.35
2009/04/23 08:35:07.1    -103    245    -10    266    267 337.2  -2.2  34020  287.21 0855.35
2009/04/23 08:35:07.2     -61    273     90    280    295 347.3  17.9  34026  287.29 0855.35
2009/04/23 08:35:07.3     -12    276     45    277    281 357.3   9.3  34022  287.24 0855.35
2009/04/23 08:35:07.4     -41    239    110    243    266 350.2  26.2  34024  287.28 0855.35
2009/04/23 08:35:07.5     -29     92    100     97    139 342.6  50.7  34028  287.35 0855.35
2009/04/23 08:35:07.6      15     31     91     35     97  27.2  78.6  34026  287.30 0855.37
2009/04/23 08:35:07.7      18      6    140     20    141  70.0  90.0  34018  287.18 0855.37
2009/04/23 08:35:07.8      87     29    139     92    166  71.4  63.6  34024  287.28 0855.37
2009/04/23 08:35:07.9      48     66     88     82    120  36.1  52.2  34026  287.32 0855.37
2009/04/23 08:35:08.0      65    -37     33     75     81 119.8  25.1  34026  287.30 0855.37
2009/04/23 08:35:08.1     159     -2     71    160    175  90.9  25.7  34022  287.23 0855.37
2009/04/23 08:35:08.2     123     21     92    125    155  80.3  39.7  34022  287.23 0855.37
2009/04/23 08:35:08.3      -4     13     56     14     57 341.3  85.9  34024  287.27 0855.37
2009/04/23 08:35:08.4    -121      0     91    122    152 270.0  40.1  34024  287.28 0855.37
2009/04/23 08:35:08.5    -112    -19     81    114    139 260.3  39.5  34024  287.28 0855.37
2009/04/23 08:35:08.7     -19    -28     78     34     85 214.3  75.0  34026  287.32 0855.37
2009/04/23 08:35:08.7     -35    -22     66     42     78 237.6  64.7  34026  287.30 0855.37
2009/04/23 08:35:08.8     -92    -22     63     95    113 256.3  36.0  34024  287.27 0855.37
2009/04/23 08:35:08.9       2    118     64    119    135   1.4  30.8  34024  287.28 0855.37
2009/04/23 08:35:09.0      23     78     66     82    105  16.9  43.3  34024  287.28 0855.37
2009/04/23 08:35:09.1      19    104     33    106    112  10.7  17.3  34028  287.35 0855.37
2009/04/23 08:35:09.2     -19    112     68    114    132 350.2  34.0  34028  287.35 0855.37
2009/04/23 08:35:09.3      -6    152    100    153    182 357.4  36.0  34028  287.35 0855.37
2009/04/23 08:35:09.4      -8    196    110    197    225 357.5  31.4  34028  287.35 0855.37
2009/04/23 08:35:09.5      -2    220    153    221    268 359.3  38.0  34034  287.43 0855.37
2009/04/23 08:35:09.7      33    317    213    319    383   6.0  36.9  34030  287.37 0855.38
2009/04/23 08:35:09.7      35    255    193    258    322   7.8  40.7  34030  287.36 0855.38
2009/04/23 08:35:09.8      32    195    189    198    273   9.3  49.0  34030  287.38 0855.38
2009/04/23 08:35:10.0      50    140    141    149    205  20.0  48.2  34022  287.25 0855.38
2009/04/23 08:35:10.0      20    193    187    195    270   6.0  49.0  34032  287.39 0855.38
2009/04/23 08:35:10.1     115    131    137    175    222  41.4  42.0  34022  287.25 0855.38
2009/04/23 08:35:10.2     138     92    117    167    203  56.3  38.4  34024  287.27 0855.38
2009/04/23 08:35:10.3      86     -6     84     87    120  94.4  49.0  34020  287.20 0855.38
2009/04/23 08:35:10.5      42    -73    102     85    132 149.7  56.3  34014  287.10 0855.38
2009/04/23 08:35:10.6      61     -6    124     62    138  96.1  71.4  34020  287.21 0855.38
2009/04/23 08:35:10.7     145     89    156    171    231  58.5  47.5  34030  287.38 0855.38
2009/04/23 08:35:10.8     198    126    124    235    265  57.5  30.1  34030  287.38 0855.38
2009/04/23 08:35:10.9     156     67    164    170    236  66.7  49.0  34028  287.35 0855.38
2009/04/23 08:35:11.0      95     44    140    105    175  65.2  59.4  34024  287.27 0855.38
2009/04/23 08:35:11.1      64    -21    157     68    171 108.6  75.3  34026  287.30 0855.38
2009/04/23 08:35:11.2      60     20    178     64    189  71.6  79.7  34024  287.27 0855.38
2009/04/23 08:35:11.3     -11     -2    116     12    116 258.5  90.0  34030  287.37 0855.38
2009/04/23 08:35:11.4      19     -1    137     20    138  94.4  90.0  34024  287.27 0855.38
2009/04/23 08:35:11.5       2     46    131     47    139   3.6  79.7  34024  287.28 0855.38
2009/04/23 08:35:11.6      -5   -126    168    127    210 182.7  59.0  34022  287.25 0855.38
2009/04/23 08:35:11.7      40    -75    171     86    191 151.9  71.7  34024  287.28 0855.37
2009/04/23 08:35:11.8      43    -77    127     89    155 150.6  61.5  34024  287.28 0855.37
2009/04/23 08:35:11.9      54   -148    152    158    219 160.0  49.0  34022  287.25 0855.37
2009/04/23 08:35:12.0     197   -242    206    313    374 140.8  36.4  34022  287.22 0855.37
2009/04/23 08:35:12.1      -2    -11    146     12    146 191.6  90.0  34028  287.33 0855.37
2009/04/23 08:35:12.2      20     -9    141     23    142 115.3  90.0  34028  287.35 0855.37
2009/04/23 08:35:12.3     -47   -234    281    239    368 191.6  55.5  34022  287.22 0855.37
2009/04/23 08:35:12.4     -59   -281    269    288    394 192.0  47.9  34022  287.25 0855.37
2009/04/23 08:35:12.5       6   -240    298    241    383 178.4  56.8  34026  287.29 0855.37
2009/04/23 08:35:12.6      21     10    165     24    166  64.7  90.0  34020  287.21 0855.37
2009/04/23 08:35:12.7      75   -266    172    277    326 164.2  34.9  34024  287.28 0855.37
2009/04/23 08:35:12.8      90   -209    130    228    262 156.6  32.4  34026  287.29 0855.37
2009/04/23 08:35:12.9     117   -184     78    219    233 147.4  19.6  34024  287.27 0855.37
2009/04/23 08:35:13.0     108   -160     70    194    206 145.9  20.9  34024  287.27 0855.37
2009/04/23 08:35:13.1     131    -95     62    163    174 126.0  21.5  34024  287.28 0855.37
2009/04/23 08:35:13.2     135    -81     40    158    164 121.1  14.3  34026  287.32 0855.37
2009/04/23 08:35:13.3     166    -27     78    169    186  99.5  26.6  34026  287.32 0855.37
2009/04/23 08:35:13.4     208      2    -51    209    216  89.4 -13.9  34024  287.28 0855.37
2009/04/23 08:35:13.5     166     56    -19    176    178  71.4  -6.2  34026  287.30 0855.37
2009/04/23 08:35:13.6      88    -37      4     96     97 113.1   2.9  34024  287.27 0855.37
2009/04/23 08:35:13.7      38   -115     11    122    123 161.7   5.4  34028  287.33 0855.37
2009/04/23 08:35:13.8     107    -52     47    120    128 116.2  22.5  34026  287.30 0855.37
2009/04/23 08:35:13.9      75    -73     51    105    116 134.4  27.3  34026  287.30 0855.37
2009/04/23 08:35:14.0      67      0     48     68     83  90.0  39.1  34026  287.30 0855.37
2009/04/23 08:35:14.1     157     76     35    175    179  64.0  11.6  34024  287.28 0855.37
2009/04/23 08:35:14.2     132     72    -39    151    156  61.1 -14.5  34024  287.28 0855.37
2009/04/23 08:35:14.3      29      5    -10     30     32  78.5 -19.7  34024  287.28 0855.37
2009/04/23 08:35:14.4     -75     49    -28     90     94 303.3 -23.3  34024  287.28 0855.37
2009/04/23 08:35:14.5     -93     62     -4    112    113 303.7  -2.2  34024  287.28 0855.37
2009/04/23 08:35:14.6     -70     84     28    110    114 320.3  14.3  34024  287.28 0855.37
2009/04/23 08:35:14.7     -25     74     29     79     84 341.3  20.4  34026  287.32 0855.37
2009/04/23 08:35:14.8     -22    -29     56     37     67 217.8  64.6  34028  287.35 0855.37
2009/04/23 08:35:14.9      -3    -70     88     71    113 182.7  56.4  34020  287.20 0855.37
2009/04/23 08:35:15.0      74     79     57    109    123  43.3  29.3  34024  287.28 0855.37
2009/04/23 08:35:15.1      94     88     83    129    153  46.8  35.6  34024  287.27 0855.37
2009/04/23 08:35:15.2      85    105     74    136    154  39.2  31.3  34024  287.27 0855.37
2009/04/23 08:35:15.3      27    120     24    124    127  12.9  11.1  34026  287.32 0855.37
2009/04/23 08:35:15.4      85    104      1    135    136  39.2   0.8  34024  287.28 0855.37
2009/04/23 08:35:15.5      89    101    -14    136    137  41.4  -6.2  34024  287.27 0855.37
2009/04/23 08:35:15.6      99    127    -47    162    168  37.9 -21.0  34024  287.28 0855.37
2009/04/23 08:35:15.7      87    120    -60    149    160  36.0 -27.4  34024  287.28 0855.36
2009/04/23 08:35:15.8     -60    136    -25    149    152 335.9  -9.8  34024  287.28 0855.36
2009/04/23 08:35:15.9       5    134    -37    135    141   2.2 -15.5  34022  287.25 0855.36
2009/04/23 08:35:16.0      72    188    -58    202    211  21.2 -16.0  34020  287.21 0855.36
2009/04/23 08:35:16.1      94    191    -59    214    223  26.3 -15.5  34022  287.23 0855.36
2009/04/23 08:35:16.2     119     77    -51    142    150  57.1 -24.4  34022  287.23 0855.36
2009/04/23 08:35:16.3     103     26    -62    107    123  75.8 -37.8  34020  287.21 0855.36
2009/04/23 08:35:16.4      91     12     61     92    110  82.1  36.0  34024  287.28 0855.36
2009/04/23 08:35:16.5      -2    170     57    171    181 359.1  18.4  34026  287.30 0855.36
2009/04/23 08:35:16.6      39    129     90    135    162  16.9  37.0  34024  287.28 0855.36
2009/04/23 08:35:16.7     168    111      1    202    203  56.5   0.5  34020  287.21 0855.36
2009/04/23 08:35:16.8     141     66     24    156    158  64.8   8.8  34026  287.30 0855.36
2009/04/23 08:35:16.9     160    157     -4    225    226  45.6  -1.2  34024  287.28 0855.36
2009/04/23 08:35:17.0     191    101     59    217    225  62.0  15.3  34024  287.28 0855.36
2009/04/23 08:35:17.1     156    166    -28    229    231  43.2  -7.2  34024  287.27 0855.36
2009/04/23 08:35:17.2     173    139      4    223    224  51.1   1.2  34024  287.27 0855.36
2009/04/23 08:35:17.3     113    155    -53    192    200  36.1 -15.5  34022  287.25 0855.36
2009/04/23 08:35:17.4      21    125    -36    127    132   9.8 -20.7  34022  287.23 0855.36
2009/04/23 08:35:17.5     -91    137     94    165    189 326.2  32.1  34020  287.21 0855.36
2009/04/23 08:35:17.6     -90    139    120    166    204 327.0  39.5  34026  287.30 0855.36
2009/04/23 08:35:17.7      20    148     67    150    164   8.0  25.7  34024  287.27 0855.34
2009/04/23 08:35:17.8      33    125     43    130    138  15.1  18.4  34024  287.28 0855.34
2009/04/23 08:35:17.9       1    162     59    163    173   0.5  20.4  34024  287.27 0855.34
2009/04/23 08:35:18.0      16    217     40    218    222   4.2  10.6  34024  287.27 0855.34
2009/04/23 08:35:18.1     137     41     94    144    171  73.2  36.0  34020  287.20 0855.34
2009/04/23 08:35:18.2      95     83     64    127    142  48.7  28.7  34020  287.20 0855.34
2009/04/23 08:35:18.3       6    137     95    138    167   2.7  37.8  34020  287.21 0855.34
2009/04/23 08:35:18.4     180    138    126    228    260  52.5  31.4  34030  287.38 0855.34
2009/04/23 08:35:18.5     148     92    142    175    225  58.0  43.7  34020  287.21 0855.34
2009/04/23 08:35:18.6     161     93    175    187    256  60.0  47.9  34026  287.31 0855.34
2009/04/23 08:35:18.7     142     75    134    161    209  62.2  43.8  34024  287.28 0855.33
2009/04/23 08:35:18.8     169    135    124    217    249  51.4  32.4  34026  287.29 0855.33
2009/04/23 08:35:18.9     193     43     97    198    220  77.4  27.8  34024  287.27 0855.33
2009/04/23 08:35:19.0     167     -5    127    168    210  91.7  41.2  34026  287.30 0855.33
2009/04/23 08:35:19.1     178      0    141    179    227  90.0  42.4  34026  287.30 0855.33
2009/04/23 08:35:19.2     143     -6    131    144    194  92.6  47.1  34030  287.37 0855.33
2009/04/23 08:35:19.3     135    -49    114    144    183 110.0  42.4  34030  287.38 0855.33
2009/04/23 08:35:19.4      36     -3     90     37     97  96.1  77.1  34028  287.35 0855.33
2009/04/23 08:35:19.5     -39    -61    120     73    140 212.6  66.2  34028  287.33 0855.33
2009/04/23 08:35:19.6      12    -57    174     59    183 167.5  81.2  34030  287.38 0855.33
2009/04/23 08:35:19.7       2    -94    179     95    202 178.2  69.8  34028  287.35 0855.33
2009/04/23 08:35:19.8     -30     -9    135     32    138 251.8  86.9  34030  287.38 0855.33
2009/04/23 08:35:19.9      12     -1    108     13    108  97.9  90.0  34030  287.38 0855.33
2009/04/23 08:35:20.0     -18    -92    114     94    147 191.6  56.3  34026  287.30 0855.33
2009/04/23 08:35:20.1      -8   -138    141    139    197 183.6  50.2  34026  287.32 0855.33
2009/04/23 08:35:20.2      -9   -126    163    127    206 184.5  58.2  34028  287.33 0855.33
2009/04/23 08:35:20.3     -12   -154    108    155    188 184.5  38.4  34026  287.32 0855.33
2009/04/23 08:35:20.4     -94    -68    125    117    171 234.0  52.0  34024  287.27 0855.33
2009/04/23 08:35:20.5     -54     34     49     65     81 302.4  41.2  34026  287.30 0855.33
2009/04/23 08:35:20.6     -28     87     35     92     98 341.7  22.0  34026  287.30 0855.33
2009/04/23 08:35:20.7       6    -24      8     25     27 164.9  17.3  34026  287.32 0855.32
2009/04/23 08:35:20.8     -76   -138      6    158    159 208.9   2.3  34024  287.27 0855.32
2009/04/23 08:35:20.9     -75   -108     87    132    158 214.7  36.5  34028  287.33 0855.32
2009/04/23 08:35:21.0     -75    -86     62    115    130 221.0  30.8  34030  287.37 0855.32
2009/04/23 08:35:21.1     -78    -69     12    105    106 228.7   6.9  34026  287.32 0855.32
2009/04/23 08:35:21.2     -23    -67     57     71     91 199.2  43.7  34028  287.33 0855.32
2009/04/23 08:35:21.3      26   -101     55    105    118 165.3  29.8  34028  287.33 0855.32
2009/04/23 08:35:21.4      76   -107     46    132    141 144.8  19.4  34028  287.33 0855.32
2009/04/23 08:35:21.5     158   -100     46    188    194 122.4  13.9  34026  287.30 0855.32
2009/04/23 08:35:21.6     103   -119     82    158    178 139.0  29.8  34028  287.35 0855.32
2009/04/23 08:35:21.7      94   -172     83    197    213 151.3  24.1  34030  287.38 0855.32
2009/04/23 08:35:21.8      14   -200    122    201    235 176.0  34.2  34028  287.33 0855.32
2009/04/23 08:35:21.9      14   -219    184    220    286 176.2  44.1  34028  287.33 0855.32
2009/04/23 08:35:22.0      11   -213    193    214    288 176.9  46.9  34032  287.39 0855.32
2009/04/23 08:35:22.1     -46   -226    169    231    286 191.6  39.7  34026  287.29 0855.32
2009/04/23 08:35:22.2       1   -112    157    113    193 179.1  60.8  34024  287.28 0855.32
2009/04/23 08:35:22.3     106   -179    160    209    263 149.3  41.2  34026  287.31 0855.32
2009/04/23 08:35:22.4      98    -66    134    119    179 123.7  53.7  34018  287.16 0855.32
2009/04/23 08:35:22.5      44    -70    103     83    132 147.9  56.4  34024  287.28 0855.32
2009/04/23 08:35:22.6      56    -38    117     68    135 124.2  66.8  34028  287.33 0855.32
2009/04/23 08:35:22.7      96   -137    126    168    210 145.0  40.9  34028  287.35 0855.32
2009/04/23 08:35:22.8      71   -176    121    191    226 157.9  35.5  34028  287.33 0855.32
2009/04/23 08:35:22.9      94   -167     73    192    205 150.6  21.3  34030  287.37 0855.32
2009/04/23 08:35:23.0     115   -193     79    225    238 149.3  20.0  34028  287.34 0855.32
2009/04/23 08:35:23.1      87   -178     10    199    200 153.9   2.9  34028  287.35 0855.32
2009/04/23 08:35:23.2     105   -164     14    195    196 147.4   4.2  34028  287.33 0855.32
2009/04/23 08:35:23.3      27   -192     36    194    198 172.0  10.6  34026  287.32 0855.32
2009/04/23 08:35:23.4       4   -159     48    160    168 178.2  16.6  34026  287.32 0855.32
2009/04/23 08:35:23.5      -4   -128     59    129    141 181.8  26.6  34026  287.30 0855.32
2009/04/23 08:35:23.6       0    -96     70     97    119 180.4  39.5  34028  287.33 0855.32
2009/04/23 08:35:23.7      21    -65     63     69     93 161.7  47.9  34028  287.35 0855.32
2009/04/23 08:35:23.8       0    -73     53     74     91 180.0  39.1  34028  287.33 0855.32
2009/04/23 08:35:23.9       7    -38     22     39     44 168.4  32.4  34028  287.33 0855.32
2009/04/23 08:35:24.0       8    -24      9     26     28 161.7  19.2  34028  287.35 0855.32
2009/04/23 08:35:24.1      17    -22     17     28     32 142.2  35.5  34028  287.35 0855.32
2009/04/23 08:35:24.2       5    -16      6     17     19 161.3  19.4  34028  287.33 0855.32
2009/04/23 08:35:24.3      22    -14     -5     27     28 122.5 -11.3  34028  287.35 0855.32
2009/04/23 08:35:24.4      23     -7     -1     25     26 106.8  -2.2  34028  287.35 0855.32
2009/04/23 08:35:24.5      17     -7     17     19     25 111.7  47.9  34030  287.37 0855.32
2009/04/23 08:35:24.6      16    -30     24     35     42 151.0  37.6  34028  287.33 0855.32
2009/04/23 08:35:24.7       2    -44     44     45     62 177.3  50.0  34028  287.35 0855.32
2009/04/23 08:35:24.8      45    -32     50     56     75 125.1  46.9  34030  287.38 0855.32
2009/04/23 08:35:24.9      43    -31     51     54     74 126.0  49.0  34030  287.38 0855.32
2009/04/23 08:35:25.0      57     -7     63     58     85  97.9  52.2  34030  287.38 0855.32
2009/04/23 08:35:25.1      48     30     67     57     87  57.6  55.4  34034  287.43 0855.32
2009/04/23 08:35:25.2      66     22     65     70     95  71.4  47.9  34032  287.42 0855.32
2009/04/23 08:35:25.3      59      4     58     60     83  85.6  50.0  34032  287.42 0855.32
2009/04/23 08:35:25.4      24     -4     65     25     69  99.7  78.2  34030  287.37 0855.32
2009/04/23 08:35:25.5      16     15     64     23     68  46.9  81.2  34030  287.37 0855.32
2009/04/23 08:35:25.6      13     28     54     31     62  25.3  68.8  34028  287.35 0855.32
2009/04/23 08:35:25.7     -24     33     57     42     70 323.9  60.5  34030  287.38 0855.32
2009/04/23 08:35:25.8     -69     61     18     93     95 311.8  11.1  34024  287.28 0855.32
2009/04/23 08:35:25.9     -64     53     29     84     89 309.5  19.2  34022  287.23 0855.32
2009/04/23 08:35:26.0     -56     42     19     71     74 306.9  15.2  34024  287.28 0855.32
2009/04/23 08:35:26.1     -26     26     18     37     41 314.9  27.2  34026  287.30 0855.32
2009/04/23 08:35:26.2     -26      8      5     28     29 288.6  11.1  34024  287.27 0855.32
2009/04/23 08:35:26.3       0     44    -30     45     54 359.1 -40.9  34024  287.27 0855.32
2009/04/23 08:35:26.4      54     29    -53     62     81  61.1 -49.8  34026  287.30 0855.32
2009/04/23 08:35:26.5      93     30    -30     98    102  71.8 -22.3  34020  287.21 0855.32
2009/04/23 08:35:26.6      91     33     -9     97     98  70.0  -5.6  34022  287.23 0855.32
2009/04/23 08:35:26.7      42     58     18     72     75  36.0  14.3  34020  287.21 0855.31
2009/04/23 08:35:26.8      22     55     15     60     62  21.8  14.3  34022  287.23 0855.31
2009/04/23 08:35:26.9      17     42     16     46     49  22.7  19.4  34022  287.25 0855.31
2009/04/23 08:35:27.0       2     19     -4     20     21   6.2 -11.3  34022  287.25 0855.31
2009/04/23 08:35:27.1      -9     24     -3     26     27 338.2  -7.3  34024  287.27 0855.31
2009/04/23 08:35:27.2     -16      6    -10     18     20 291.7 -35.8  34024  287.28 0855.31
2009/04/23 08:35:27.3     -40     17    -16     44     46 293.5 -24.4  34022  287.25 0855.31
2009/04/23 08:35:27.4     -64     22    -28     68     73 289.1 -27.4  34022  287.25 0855.31
2009/04/23 08:35:27.5     -83     27    -41     88     97 288.2 -31.0  34022  287.23 0855.31
2009/04/23 08:35:27.6     -69     18    -20     72     74 285.0 -20.7  34024  287.27 0855.31
2009/04/23 08:35:27.7     -52     38    -44     65     78 306.0 -40.9  34024  287.27 0855.31
2009/04/23 08:35:27.8     -41     79    -47     90    101 332.4 -34.2  34024  287.28 0855.31
2009/04/23 08:35:27.9     -66     65    -32     93     98 314.4 -23.3  34024  287.28 0855.31
2009/04/23 08:35:28.0     -89     89      8    127    128 315.0   3.8  34022  287.25 0855.31
2009/04/23 08:35:28.1    -200     88    -71    219    231 293.7 -18.1  34026  287.32 0855.31
2009/04/23 08:35:28.2    -277     88    -53    291    296 287.7 -10.5  34030  287.38 0855.31
2009/04/23 08:35:28.3    -196      8    -62    197    207 272.5 -17.6  34030  287.38 0855.31
2009/04/23 08:35:28.4    -282     42    -74    286    296 278.6 -14.5  34028  287.33 0855.31
2009/04/23 08:35:28.5    -293    106    -81    312    323 289.9 -14.6  34026  287.31 0855.31
2009/04/23 08:35:28.6    -263     67   -121    272    297 284.4 -29.6  34026  287.29 0855.31
2009/04/23 08:35:28.7    -226     81    -43    241    245 289.7 -10.3  34016  287.14 0855.32
2009/04/23 08:35:28.8    -196     86     28    215    217 293.7   7.5  34024  287.27 0855.32
2009/04/23 08:35:28.9    -191    111     -4    222    223 300.2  -1.3  34026  287.32 0855.32
2009/04/23 08:35:29.0    -124     62     47    139    147 296.6  18.9  34024  287.28 0855.32
2009/04/23 08:35:29.1     -85     12     16     86     88 278.4  10.6  34026  287.32 0855.32
2009/04/23 08:35:29.2     -95      0     46     96    106 270.0  27.3  34026  287.30 0855.32
2009/04/23 08:35:29.3     -48    -25     43     55     69 242.9  42.7  34024  287.28 0855.32
2009/04/23 08:35:29.4       0    -62     40     63     74 180.0  35.5  34028  287.33 0855.32
2009/04/23 08:35:29.5      30   -113     53    118    129 164.9  26.2  34024  287.28 0855.32
2009/04/23 08:35:29.6      29   -191    116    194    226 171.1  33.7  34032  287.42 0855.32
2009/04/23 08:35:29.7      17   -202    100    203    226 174.9  27.8  34026  287.32 0855.32
2009/04/23 08:35:29.8       9   -169     59    170    181 176.9  19.2  34030  287.38 0855.32
2009/04/23 08:35:29.9      13   -166     22    167    169 175.5   7.8  34034  287.45 0855.32
2009/04/23 08:35:30.0      46   -139     -3    147    148 161.7  -1.3  34030  287.37 0855.32
2009/04/23 08:35:30.1      47   -119    -17    129    131 158.2  -7.7  34032  287.42 0855.32
2009/04/23 08:35:30.2      42   -128    -60    135    147 161.5 -29.6  34034  287.43 0855.32
2009/04/23 08:35:30.3      60   -117    -31    132    136 152.8 -13.4  34034  287.43 0855.32
2009/04/23 08:35:30.4      63    -98    -66    117    134 147.0 -36.3  34032  287.40 0855.32
2009/04/23 08:35:30.5      85    -80    -35    118    123 133.2 -21.7  34028  287.35 0855.32
2009/04/23 08:35:30.6      74    -78      5    108    109 136.7   2.9  34032  287.40 0855.32
2009/04/23 08:35:30.7      78   -111     -9    136    137 144.8  -4.1  34030  287.37 0855.33
2009/04/23 08:35:30.8      67   -142      4    158    159 154.7   1.6  34030  287.37 0855.33
2009/04/23 08:35:30.9      62   -131    -13    146    147 154.6  -5.1  34028  287.33 0855.33
2009/04/23 08:35:31.0      52   -120    -20    132    134 156.4  -8.8  34026  287.30 0855.33
2009/04/23 08:35:31.1      89   -104    -17    137    139 139.5  -7.3  34026  287.30 0855.33
2009/04/23 08:35:31.2      72   -128    -46    147    155 150.6 -17.6  34026  287.30 0855.33
2009/04/23 08:35:31.3     107   -179    -11    209    210 149.0  -3.1  34026  287.32 0855.33
2009/04/23 08:35:31.4      14   -174    -59    175    184 175.3 -23.3  34026  287.32 0855.33
2009/04/23 08:35:31.5      69   -189    -60    202    211 159.9 -16.6  34026  287.32 0855.33
2009/04/23 08:35:31.6     103   -234    -37    256    259 156.2  -8.3  34028  287.34 0855.33
2009/04/23 08:35:31.7     190   -158     80    248    261 129.6  17.9  34024  287.28 0855.33
2009/04/23 08:35:31.8     113   -135     68    177    189 140.1  22.0  34028  287.33 0855.33
2009/04/23 08:35:31.9      83   -176    -66    195    205 154.7 -23.3  34028  287.33 0855.33
2009/04/23 08:35:32.0      58   -274   -104    281    299 168.0 -25.4  34030  287.38 0855.33
2009/04/23 08:35:32.1     175   -237     55    295    301 143.5  10.6  34020  287.19 0855.33
2009/04/23 08:35:32.2     113   -241     52    267    273 154.8  11.1  34028  287.34 0855.33
2009/04/23 08:35:32.3     116   -219     34    248    251 152.0   8.0  34030  287.36 0855.33
2009/04/23 08:35:32.4     123   -224     65    256    265 151.3  14.3  34030  287.36 0855.33
2009/04/23 08:35:32.5      75   -180     50    196    203 157.3  14.5  34030  287.38 0855.33
2009/04/23 08:35:32.6      52   -168     95    176    200 162.8  30.8  34030  287.38 0855.33
2009/04/23 08:35:32.7      60   -143    123    156    198 157.3  42.2  34028  287.35 0855.34
2009/04/23 08:35:32.8      25   -183     98    185    209 172.0  30.1  34032  287.42 0855.34
2009/04/23 08:35:32.9      65   -150    113    164    199 156.6  37.8  34028  287.35 0855.34
2009/04/23 08:35:33.0      20   -184     95    186    208 173.5  29.2  34026  287.32 0855.34
2009/04/23 08:35:33.1      13   -140     22    141    143 174.7   8.9  34030  287.37 0855.34
2009/04/23 08:35:33.2      53    -96     47    110    119 151.0  24.1  34030  287.38 0855.34
2009/04/23 08:35:33.3      61   -112     30    128    132 151.5  13.2  34028  287.35 0855.34
2009/04/23 08:35:33.4      71    -97     54    121    132 143.9  25.2  34026  287.30 0855.34
2009/04/23 08:35:33.5       3    -59     95     60    112 176.4  64.7  34030  287.37 0855.34
2009/04/23 08:35:33.6     -24    -50    112     56    125 206.3  71.4  34028  287.33 0855.34
2009/04/23 08:35:33.7     -41   -123    110    130    170 198.7  44.5  34026  287.32 0855.34
2009/04/23 08:35:33.8     -76   -114    165    138    215 213.8  56.3  34026  287.30 0855.34
2009/04/23 08:35:33.9    -111    -94     82    146    167 229.6  31.9  34022  287.25 0855.34
2009/04/23 08:35:34.0     -47   -154     70    162    176 196.9  24.9  34026  287.30 0855.34
2009/04/23 08:35:34.1      26    -59     68     65     94 155.5  50.7  34026  287.32 0855.34
2009/04/23 08:35:34.2       1     17     26     18     31   4.5  62.6  34028  287.33 0855.34
2009/04/23 08:35:34.3     -87      6    -28     88     93 274.3 -17.6  34030  287.37 0855.34
2009/04/23 08:35:34.4     -54     34    -19     65     68 302.4 -16.6  34028  287.33 0855.34
2009/04/23 08:35:34.5     -49     10    -13     51     53 281.5 -14.5  34030  287.37 0855.34
2009/04/23 08:35:34.6     -31     14    -17     35     38 295.3 -31.6  34030  287.37 0855.34
2009/04/23 08:35:34.7     -50    -16    -35     53     63 252.3 -40.9  34030  287.37 0855.36
2009/04/23 08:35:34.8     -76     19    -40     79     88 284.2 -32.6  34026  287.30 0855.36
2009/04/23 08:35:34.9    -122     60    -85    136    160 296.2 -39.4  34024  287.27 0855.36
2009/04/23 08:35:35.0    -182      4   -102    183    209 271.3 -35.8  34022  287.23 0855.36
2009/04/23 08:35:35.1    -171     43    -56    177    186 284.2 -17.6  34016  287.15 0855.36
2009/04/23 08:35:35.2    -140     88    -43    166    172 302.4 -14.7  34016  287.15 0855.36
2009/04/23 08:35:35.3    -112    192    -40    223    227 329.7 -10.3  34024  287.27 0855.36
2009/04/23 08:35:35.4    -103    165   -142    195    241 328.1 -44.1  34040  287.54 0855.36
2009/04/23 08:35:35.5     -33    167   -154    171    230 348.7 -51.0  34028  287.35 0855.36
2009/04/23 08:35:35.6      73    313    -96    322    336  13.1 -21.5  34024  287.27 0855.36
2009/04/23 08:35:35.7     184    261    -94    320    334  35.2 -16.4  34034  287.45 0855.36
2009/04/23 08:35:35.8     102    214   -106    238    260  25.5 -30.1  34036  287.46 0855.36
2009/04/23 08:35:35.9     121    131    -88    179    199  42.5 -32.4  34034  287.43 0855.36
2009/04/23 08:35:36.0     126     53    -22    137    139  66.9  -9.3  34024  287.27 0855.36
2009/04/23 08:35:36.2      87     -6    -10     88     89  94.4  -6.7  34028  287.35 0855.36
2009/04/23 08:35:36.3     106    -26     18    110    112 103.7   9.5  34028  287.33 0855.36
2009/04/23 08:35:36.3      72    -51     77     89    117 125.5  45.8  34024  287.28 0855.36
2009/04/23 08:35:36.4      68    -46     82     83    116 124.2  50.5  34030  287.38 0855.36
2009/04/23 08:35:36.5      72    -30    110     79    135 112.6  61.1  34024  287.27 0855.36
2009/04/23 08:35:36.7      83    -11    115     84    142  97.9  60.5  34024  287.28 0855.36
2009/04/23 08:35:36.8     124     18    120    126    174  81.6  49.0  34036  287.49 0855.36
2009/04/23 08:35:36.9     124    -32    125    129    179 104.6  49.2  34032  287.42 0855.36
2009/04/23 08:35:37.0      97    -79    138    126    186 129.1  52.7  34032  287.42 0855.36
2009/04/23 08:35:37.1      25     67    113     72    133  20.9  64.7  34034  287.45 0855.36
2009/04/23 08:35:37.2      -8     45     99     46    109 349.3  73.1  34034  287.43 0855.36
2009/04/23 08:35:37.3     -55    -29    100     63    118 242.0  64.7  34030  287.38 0855.36
2009/04/23 08:35:37.4     -71     33    152     79    171 295.4  70.6  34032  287.42 0855.36
2009/04/23 08:35:37.5     -91    -43    127    101    162 244.7  57.5  34034  287.43 0855.36
2009/04/23 08:35:37.6     -25    -76     88     81    119 198.7  52.2  34032  287.40 0855.36
2009/04/23 08:35:37.7     -41    -33    170     53    178 231.4  82.3  34034  287.43 0855.36
2009/04/23 08:35:37.8     -93    -31    164     99    191 251.4  66.0  34034  287.45 0855.36
2009/04/23 08:35:37.9     169    -30    193    172    258 100.1  53.5  34030  287.36 0855.36
2009/04/23 08:35:38.0      94    -13    186     95    208  97.9  71.0  34028  287.33 0855.36
2009/04/23 08:35:38.1       0     95    148     96    176   0.0  64.1  34030  287.38 0855.36
2009/04/23 08:35:38.2     -99    -54    142    113    181 241.2  57.5  34032  287.42 0855.36
2009/04/23 08:35:38.3       7      7    190     11    190  45.0  90.0  34028  287.35 0855.36
2009/04/23 08:35:38.4     111    -37    223    118    252 108.4  69.9  34030  287.37 0855.36
2009/04/23 08:35:38.5      41     11    189     43    193  74.1  87.7  34030  287.38 0855.36
2009/04/23 08:35:38.6       4     -9    187     11    187 154.6  90.0  34032  287.40 0855.36
2009/04/23 08:35:38.7     142     24    178    145    229  80.3  56.4  34026  287.30 0855.36
2009/04/23 08:35:38.8     133     90    182    161    242  55.8  54.0  34028  287.35 0855.37
2009/04/23 08:35:38.9     158    -12    196    159    252  94.4  56.9  34026  287.32 0855.37
2009/04/23 08:35:39.0     145     29    181    148    233  78.5  56.4  34030  287.37 0855.37
2009/04/23 08:35:39.1     114    -38    130    121    177 108.4  52.2  34030  287.38 0855.37
2009/04/23 08:35:39.2      60     24    129     65    144  67.4  71.0  34030  287.37 0855.37
2009/04/23 08:35:39.3     -30    -23    148     39    153 232.2  84.9  34032  287.40 0855.37
2009/04/23 08:35:39.4      27     29    164     40    168  43.4  86.4  34026  287.32 0855.37
2009/04/23 08:35:39.5     -18     31    133     37    138 329.3  84.8  34030  287.37 0855.37
2009/04/23 08:35:39.6     110     51    176    122    214  64.8  62.4  34030  287.38 0855.37
2009/04/23 08:35:39.7     111    -79    174    137    221 125.5  57.9  34022  287.25 0855.37
2009/04/23 08:35:39.8      91     -2    139     92    166  91.7  63.6  34028  287.33 0855.37
2009/04/23 08:35:39.9      -3    -53     82     54     98 183.6  63.6  34024  287.28 0855.37
2009/04/23 08:35:40.0     -36   -173    116    177    211 192.0  36.0  34026  287.30 0855.37
2009/04/23 08:35:40.1     -43   -157    107    163    194 195.4  36.0  34028  287.33 0855.37
2009/04/23 08:35:40.2     -40   -159    133    165    211 194.3  43.5  34030  287.37 0855.37
2009/04/23 08:35:40.3     -49   -142    139    151    205 199.2  47.5  34028  287.35 0855.37
2009/04/23 08:35:40.4    -102   -123     79    160    178 219.6  28.2  34028  287.33 0855.37
2009/04/23 08:35:40.5     -77   -105    136    131    188 216.1  51.2  34024  287.27 0855.37
2009/04/23 08:35:40.6    -161   -131     72    208    221 230.9  19.2  34020  287.21 0855.37
2009/04/23 08:35:40.7     -17   -140     17    142    144 187.1   7.1  34020  287.21 0855.37
2009/04/23 08:35:40.8      39   -120     93    127    157 161.7  39.9  34026  287.32 0855.37
2009/04/23 08:35:40.9     -94    -77     98    122    156 230.5  43.0  34022  287.23 0855.37
2009/04/23 08:35:41.0     -40    -40     90     57    106 225.0  64.7  34014  287.11 0855.37
2009/04/23 08:35:41.1       3    -26     98     27    101 172.0  84.8  34024  287.28 0855.37
2009/04/23 08:35:41.2     -20     20     54     29     61 315.0  68.9  34026  287.30 0855.37
2009/04/23 08:35:41.3     -46     32     82     57     99 305.1  61.5  34022  287.25 0855.37
2009/04/23 08:35:41.4      62     21     85     66    107  71.4  57.9  34024  287.28 0855.37
2009/04/23 08:35:41.5     101    -56    106    116    157 119.3  47.5  34032  287.40 0855.37
2009/04/23 08:35:41.6      46    -58    101     75    125 141.3  60.0  34030  287.38 0855.37
2009/04/23 08:35:41.7      -1     33     93     34     99 357.4  79.7  34032  287.42 0855.37
2009/04/23 08:35:41.8      36     36     97     52    110  45.0  69.3  34034  287.43 0855.36
2009/04/23 08:35:41.9     -28    -47    107     55    120 210.7  70.8  34034  287.45 0855.36
2009/04/23 08:35:42.0      33    -61     91     70    114 151.0  58.5  34032  287.42 0855.36
2009/04/23 08:35:42.1     -13    -13     87     19     89 225.0  88.0  34032  287.42 0855.36
2009/04/23 08:35:42.2      14    -58     99     60    115 165.7  65.1  34032  287.40 0855.36
2009/04/23 08:35:42.3     -51    -93    117    107    158 209.0  52.7  34034  287.43 0855.36
2009/04/23 08:35:42.4     -70   -120     62    139    152 210.3  25.7  34036  287.47 0855.36
2009/04/23 08:35:42.5     -46   -125     65    134    148 200.1  27.3  34034  287.45 0855.36
2009/04/23 08:35:42.6     -28   -137     65    140    154 191.6  27.1  34038  287.52 0855.36
2009/04/23 08:35:42.7     -11   -148     74    149    166 184.5  28.0  34036  287.49 0855.36
2009/04/23 08:35:42.8       6   -132     65    133    148 177.4  27.3  34038  287.52 0855.36
2009/04/23 08:35:42.9       0   -122     79    123    146 180.0  35.6  34036  287.49 0855.36
2009/04/23 08:35:43.0      -2   -143     46    144    152 180.9  17.9  34034  287.45 0855.36
2009/04/23 08:35:43.1      95    -91     68    132    148 133.6  29.3  34036  287.47 0855.36
2009/04/23 08:35:43.2      40    -83     83     93    124 154.5  46.4  34036  287.49 0855.36
2009/04/23 08:35:43.3     -17   -118     69    120    138 188.5  32.4  34036  287.47 0855.36
2009/04/23 08:35:43.4     -27   -135     74    138    156 191.6  30.3  34034  287.43 0855.36
2009/04/23 08:35:43.5     -56   -150     73    161    176 200.5  26.2  34034  287.43 0855.36
2009/04/23 08:35:43.6     -41   -161     61    167    177 194.5  21.0  34034  287.43 0855.36
2009/04/23 08:35:43.7     -83   -176     59    195    204 205.3  17.1  34034  287.43 0855.36
2009/04/23 08:35:43.8     -93   -175     34    199    203 207.9   9.9  34032  287.42 0855.37
2009/04/23 08:35:43.9    -157   -150    -17    218    219 226.4  -4.6  34032  287.42 0855.37
2009/04/23 08:35:44.0    -161    -85    -86    183    202 242.2 -31.4  34034  287.45 0855.37
2009/04/23 08:35:44.1    -219    -34    -48    222    228 261.2 -12.2  34034  287.43 0855.37
2009/04/23 08:35:44.2    -201      3     -9    202    203 271.0  -2.8  34038  287.52 0855.37
2009/04/23 08:35:44.3    -199    -96    -66    221    231 244.2 -16.8  34034  287.45 0855.37
2009/04/23 08:35:44.4    -116    -97     -3    152    153 230.0  -1.2  34034  287.45 0855.37
2009/04/23 08:35:44.5    -106   -156     49    189    196 214.3  14.7  34034  287.45 0855.37
2009/04/23 08:35:44.6     -98   -208    -13    231    232 205.3  -3.3  34034  287.45 0855.37
2009/04/23 08:35:44.7    -129   -235    -14    269    270 208.9  -3.2  34034  287.44 0855.37
2009/04/23 08:35:44.8    -159   -208    -14    262    263 217.4  -3.1  34032  287.41 0855.37
2009/04/23 08:35:44.9    -134   -198    -63    240    249 214.2 -14.7  34032  287.39 0855.37
2009/04/23 08:35:45.0    -115   -139     -4    181    182 219.7  -1.3  34034  287.43 0855.37
2009/04/23 08:35:45.1    -126    -86      4    153    154 235.8   1.8  34034  287.43 0855.37
2009/04/23 08:35:45.2    -156    -31     -7    160    161 258.5  -2.6  34032  287.40 0855.37
2009/04/23 08:35:45.3    -105     12      1    106    107 276.6   0.8  34030  287.37 0855.37
2009/04/23 08:35:45.4    -111    -20     42    113    120 259.4  21.0  34034  287.43 0855.37
2009/04/23 08:35:45.5    -191   -176     -5    261    262 227.3  -1.3  34030  287.38 0855.37
2009/04/23 08:35:45.6    -136   -204    -11    246    247 213.6  -2.6  34032  287.41 0855.37
2009/04/23 08:35:45.7    -195   -137    -36    239    242 234.9  -8.6  34032  287.41 0855.37
2009/04/23 08:35:45.8     -66   -253   -105    262    282 194.7 -27.4  34028  287.33 0855.37
2009/04/23 08:35:45.9    -178     56   -114    187    219 287.5 -38.6  34028  287.33 0855.37
2009/04/23 08:35:46.0    -259     28    -80    261    272 276.4 -22.1  34038  287.51 0855.37
2009/04/23 08:35:46.1    -317    -55   -102    322    337 260.1 -22.6  34032  287.39 0855.37
2009/04/23 08:35:46.2    -169     20    -56    171    181 276.8 -18.3  34034  287.43 0855.37
2009/04/23 08:35:46.3    -167   -103   -124    197    232 238.2 -39.9  34032  287.42 0855.37
2009/04/23 08:35:46.4    -243    -63   -136    252    286 255.4 -35.2  34024  287.26 0855.37
2009/04/23 08:35:46.5    -174    -44    -41    180    185 255.8 -12.9  34026  287.30 0855.37
2009/04/23 08:35:46.6    -148   -148      2    210    211 225.1   0.8  34028  287.33 0855.37
2009/04/23 08:35:46.7    -101   -190     26    216    218 208.1   6.9  34030  287.37 0855.37
2009/04/23 08:35:46.8     -73   -123     47    144    152 210.7  18.1  34028  287.35 0855.37
2009/04/23 08:35:46.9    -198    -42     11    203    204 257.8   3.1  34026  287.32 0855.37
2009/04/23 08:35:47.0    -194     11     68    195    207 273.3  19.2  34026  287.32 0855.37
2009/04/23 08:35:47.1    -247    168   -125    299    324 304.2 -28.6  34024  287.28 0855.37
2009/04/23 08:35:47.2     -76    219    -40    232    236 340.8  -9.8  34028  287.33 0855.37
2009/04/23 08:35:47.3     -54    157     40    167    172 340.8  13.7  34026  287.32 0855.37
2009/04/23 08:35:47.4     -82    150      8    172    173 331.3   2.9  34028  287.33 0855.37
2009/04/23 08:35:47.5    -224      3    -89    225    241 270.9 -27.2  34024  287.26 0855.37
2009/04/23 08:35:47.6    -277    131     12    307    308 295.4   2.3  34026  287.29 0855.37
2009/04/23 08:35:47.7    -158    159     72    225    237 315.1  17.9  34024  287.28 0855.37
2009/04/23 08:35:47.8     -19    217    -56    218    226 354.9 -14.5  34026  287.30 0855.37
2009/04/23 08:35:47.9      -6    140     14    141    142 357.3   5.9  34028  287.35 0855.37
2009/04/23 08:35:48.0      -2    153    121    154    195 359.1  42.2  34022  287.25 0855.37
2009/04/23 08:35:48.1     -60    135    116    148    188 335.9  42.2  34026  287.30 0855.37
2009/04/23 08:35:48.2     -51    111    101    123    159 335.1  43.7  34028  287.33 0855.37
2009/04/23 08:35:48.3     -63     63    101     90    135 315.0  54.2  34028  287.33 0855.37
2009/04/23 08:35:48.4    -102     27    116    106    157 285.0  52.7  34028  287.33 0855.37
2009/04/23 08:35:48.5      -1     65    124     66    140 359.1  69.3  34026  287.32 0855.37
2009/04/23 08:35:48.6     -31    132    148    136    200 346.7  52.5  34026  287.32 0855.37
2009/04/23 08:35:48.7     -60    151    102    163    192 338.2  35.5  34026  287.32 0855.37
2009/04/23 08:35:48.8     -67    140    106    156    188 334.5  37.6  34026  287.32 0855.37
2009/04/23 08:35:48.9     -95    139    104    169    198 325.5  34.4  34028  287.33 0855.37
2009/04/23 08:35:49.0     -37     92    186    100    211 338.2  69.6  34028  287.33 0855.37
2009/04/23 08:35:49.1    -118     31     57    123    135 285.1  27.1  34030  287.37 0855.37
2009/04/23 08:35:49.2     -85     34      1     92     93 292.2   1.2  34034  287.43 0855.37
2009/04/23 08:35:49.3     -45    -63     29     78     83 216.1  21.0  34030  287.38 0855.37
2009/04/23 08:35:49.4     -38    -78     30     88     94 206.3  19.2  34030  287.37 0855.37
2009/04/23 08:35:49.5     -44   -134      3    142    143 198.3   1.2  34030  287.37 0855.37
2009/04/23 08:35:49.6     -55   -207    -29    215    217 194.9  -7.7  34030  287.37 0855.37
2009/04/23 08:35:49.7      23   -310     20    311    312 175.6   3.8  34032  287.39 0855.37
2009/04/23 08:35:49.8     119   -348     85    368    378 161.1  13.1  34026  287.30 0855.38
2009/04/23 08:35:49.9     142   -353     18    381    382 158.1   2.8  34032  287.40 0855.38
2009/04/23 08:35:50.0       0   -255    -84    256    269 180.2 -23.8  34026  287.29 0855.38
2009/04/23 08:35:50.1     -16   -146    -46    147    155 186.3 -17.6  34028  287.35 0855.38
2009/04/23 08:35:50.2      11   -144    -57    145    155 175.6 -26.9  34030  287.37 0855.38
2009/04/23 08:35:50.3      44   -179     19    185    187 166.2   6.1  34032  287.40 0855.38
2009/04/23 08:35:50.4     -23   -268    -34    270    273 185.1  -7.3  34030  287.36 0855.38
2009/04/23 08:35:50.5    -103   -361    -11    376    377 196.0  -1.8  34034  287.45 0855.38
2009/04/23 08:35:50.6    -115   -330     43    350    353 199.3   7.1  34034  287.44 0855.38
2009/04/23 08:35:50.7     -84   -333     75    344    353 194.3  12.3  34032  287.40 0855.38
2009/04/23 08:35:50.8     -92   -394    163    405    436 193.2  23.1  34032  287.41 0855.38
2009/04/23 08:35:50.9     -67   -336    147    343    373 191.4  24.8  34032  287.39 0855.38
2009/04/23 08:35:51.0     -44   -346     58    349    354 187.3   9.5  34032  287.40 0855.38
2009/04/23 08:35:51.1     -85   -319    120    331    352 195.0  20.7  34036  287.47 0855.38
2009/04/23 08:35:51.2     -39   -284     77    287    298 188.0  15.0  34034  287.43 0855.38
2009/04/23 08:35:51.3       4   -286    102    287    304 179.1  20.2  34032  287.39 0855.38
2009/04/23 08:35:51.4      49   -303     74    308    317 170.7  13.5  34030  287.38 0855.38
2009/04/23 08:35:51.5     147   -255    116    295    316 150.1  22.5  34034  287.44 0855.38
2009/04/23 08:35:51.6     109   -232     40    257    261 154.8   9.0  34034  287.43 0855.38
2009/04/23 08:35:51.7      84   -108     49    137    145 142.1  20.0  34032  287.40 0855.38
2009/04/23 08:35:51.8      74   -116     -5    138    139 147.4  -2.2  34032  287.40 0855.39
2009/04/23 08:35:51.9      12    -94     87     95    128 172.4  47.9  34028  287.33 0855.39
2009/04/23 08:35:52.0      58   -115     69    129    146 153.3  30.8  34030  287.37 0855.39
2009/04/23 08:35:52.1      42   -138     66    145    159 163.1  26.2  34030  287.38 0855.39
2009/04/23 08:35:52.2      41    -86     71     96    119 154.1  40.1  34028  287.33 0855.39
2009/04/23 08:35:52.3      51   -120     56    131    142 156.8  24.1  34032  287.40 0855.39
2009/04/23 08:35:52.4      47    -77     29     91     96 148.4  17.9  34030  287.38 0855.39
2009/04/23 08:35:52.5      13    -47     40     49     63 164.0  43.7  34028  287.35 0855.39
2009/04/23 08:35:52.6      11      0     53     12     54  90.0  88.0  34028  287.35 0855.39
2009/04/23 08:35:52.7      52      9     51     53     73  79.4  50.0  34030  287.38 0855.39
2009/04/23 08:35:52.8      49      0     62     50     79  90.0  56.9  34030  287.37 0855.39
2009/04/23 08:35:52.9      51     -7     60     52     79  98.8  54.8  34034  287.43 0855.39
2009/04/23 08:35:53.0       6    -32     64     33     72 168.5  71.9  34032  287.42 0855.39
2009/04/23 08:35:53.1      13    -13     66     19     68 135.0  82.8  34036  287.49 0855.39
2009/04/23 08:35:53.2      54    -57     59     79     98 136.7  40.1  34034  287.43 0855.39
2009/04/23 08:35:53.3      47   -113     67    123    140 157.3  31.3  34028  287.35 0855.39
2009/04/23 08:35:53.4     -17   -177     98    178    203 185.6  31.4  34028  287.33 0855.39
2009/04/23 08:35:53.5      27   -251    219    253    334 173.8  45.4  34024  287.28 0855.39
2009/04/23 08:35:53.6     -77   -343    210    352    409 192.7  33.6  34028  287.34 0855.39
2009/04/23 08:35:53.7     -39   -290    172    293    339 187.8  33.1  34024  287.28 0855.39
2009/04/23 08:35:53.8     -40   -286     90    289    303 188.0  17.3  34028  287.33 0855.40
2009/04/23 08:35:53.9    -148   -297     96    332    346 206.5  16.1  34026  287.29 0855.40
2009/04/23 08:35:54.0    -135   -273     77    305    315 206.3  14.3  34028  287.33 0855.40
2009/04/23 08:35:54.1    -103   -284    126    303    328 200.0  23.8  34018  287.16 0855.40
2009/04/23 08:35:54.2      32   -292    122    294    318 173.7  23.8  34026  287.29 0855.40
2009/04/23 08:35:54.3      37   -268    137    271    303 172.0  29.1  34020  287.21 0855.40
2009/04/23 08:35:54.4      55   -163    144    173    225 161.3  43.8  34024  287.28 0855.40
2009/04/23 08:35:54.5      -9   -205    131    206    244 182.6  35.5  34018  287.18 0855.40
2009/04/23 08:35:54.6     -78   -219    140    233    271 199.8  34.2  34022  287.24 0855.40
2009/04/23 08:35:54.7     -57   -283    122    289    313 191.6  24.2  34020  287.21 0855.40
2009/04/23 08:35:54.8       0   -216    183    217    283 180.2  44.3  34022  287.24 0855.40
2009/04/23 08:35:54.9     -88   -314    228    327    398 195.7  38.3  34020  287.20 0855.40
2009/04/23 08:35:55.0    -110   -251    237    275    363 203.7  45.2  34022  287.23 0855.40
2009/04/23 08:35:55.1      15   -142    228    143    269 173.8  64.7  34018  287.17 0855.40
2009/04/23 08:35:55.2      36    -94    143    101    175 158.6  61.5  34022  287.23 0855.40
2009/04/23 08:35:55.3      67   -146     94    161    186 155.1  32.7  34020  287.20 0855.40
2009/04/23 08:35:55.4      67   -130    131    147    196 152.8  46.4  34020  287.21 0855.40
2009/04/23 08:35:55.5      57    -81    156    100    185 144.8  64.6  34018  287.18 0855.40
2009/04/23 08:35:55.6     126    -26    129    129    182 101.9  50.1  34022  287.25 0855.40
2009/04/23 08:35:55.7     140   -100    143    173    224 125.7  43.8  34020  287.20 0855.40
2009/04/23 08:35:55.8      27   -163    -43    166    172 170.4 -14.5  34024  287.27 0855.40
2009/04/23 08:35:55.9      23   -207     -5    209    210 173.5  -1.6  34020  287.20 0855.40
2009/04/23 08:35:56.0      68   -280    -52    289    294 166.2 -10.3  34020  287.21 0855.40
2009/04/23 08:35:56.1     123   -319    -26    343    345 158.8  -4.5  34016  287.15 0855.40
2009/04/23 08:35:56.2     150   -287     48    324    328 152.4   8.5  34022  287.22 0855.40
2009/04/23 08:35:56.3     138   -217     60    258    266 147.5  13.2  34018  287.16 0855.40
2009/04/23 08:35:56.4     113   -199    166    230    283 150.4  39.5  34014  287.09 0855.40
2009/04/23 08:35:56.5      36    -36    131     51    140 134.9  77.1  34020  287.21 0855.40
2009/04/23 08:35:56.6       5     17     94     18     95  18.7  89.6  34022  287.23 0855.40
2009/04/23 08:35:56.7     -25   -105    164    108    196 193.4  63.6  34016  287.15 0855.40
2009/04/23 08:35:56.8      10   -105    150    106    183 174.2  61.3  34018  287.18 0855.40
2009/04/23 08:35:56.9      -2   -166    148    167    223 180.7  46.2  34020  287.20 0855.40
2009/04/23 08:35:57.0     -55   -265    164    271    316 191.8  34.0  34018  287.17 0855.40
2009/04/23 08:35:57.1    -106   -317     42    335    338 198.5   7.2  34020  287.20 0855.40
2009/04/23 08:35:57.2    -104   -231     59    254    261 204.3  13.1  34018  287.17 0855.40
2009/04/23 08:35:57.3     -58   -176    106    186    214 198.5  32.4  34016  287.15 0855.40
2009/04/23 08:35:57.4     -47   -195     90    201    220 193.6  25.7  34018  287.18 0855.40
2009/04/23 08:35:57.5     -48   -201    135    207    247 193.4  36.3  34016  287.14 0855.40
2009/04/23 08:35:57.6      -8   -278    139    279    311 181.8  28.2  34018  287.16 0855.40
2009/04/23 08:35:57.7       4   -244     54    245    252 179.0  12.6  34018  287.17 0855.40
2009/04/23 08:35:57.8      47   -249      2    254    255 169.3   0.5  34016  287.12 0855.40
2009/04/23 08:35:57.9      77   -227    132    240    273 161.1  31.3  34018  287.17 0855.40
2009/04/23 08:35:58.0      99   -265    138    284    315 159.5  27.9  34014  287.11 0855.40
2009/04/23 08:35:58.1      75   -266    118    277    301 164.2  24.3  34016  287.12 0855.40
2009/04/23 08:35:58.2      62   -215    164    224    277 163.7  39.7  34016  287.14 0855.40
2009/04/23 08:35:58.3     -24   -233    167    235    288 186.0  38.8  34016  287.14 0855.40
2009/04/23 08:35:58.4     -49   -219    140    225    265 192.7  35.2  34016  287.12 0855.40
2009/04/23 08:35:58.5     -23   -155    158    157    222 188.5  50.1  34010  287.05 0855.40
2009/04/23 08:35:58.6      -2   -182    173    183    251 180.9  48.5  34016  287.13 0855.40
2009/04/23 08:35:58.7     -20   -175    142    177    226 186.7  43.3  34014  287.11 0855.40
2009/04/23 08:35:58.8      16   -149    119    150    191 173.7  42.7  34016  287.15 0855.40
2009/04/23 08:35:58.9      37   -152    111    157    192 166.2  38.8  34018  287.16 0855.40
2009/04/23 08:35:59.0      58   -121    110    135    174 154.1  43.5  34016  287.13 0855.40
2009/04/23 08:35:59.1      60   -152     52    164    173 158.2  17.7  34016  287.15 0855.40
2009/04/23 08:35:59.2      83   -143     66    166    178 149.7  23.0  34016  287.15 0855.40
2009/04/23 08:35:59.3      15   -132     49    133    141 173.3  21.0  34016  287.15 0855.40
2009/04/23 08:35:59.4      -2    -85     79     86    116 181.4  47.9  34020  287.20 0855.40
2009/04/23 08:35:59.5      -1    -28     82     29     86 182.7  80.7  34016  287.15 0855.40
2009/04/23 08:35:59.6     -35     26     79     44     90 306.9  68.8  34022  287.23 0855.40
2009/04/23 08:35:59.7     -46     -4     61     47     77 264.8  57.5  34020  287.21 0855.40
2009/04/23 08:35:59.8     -12    -36     76     38     84 198.5  71.4  34022  287.23 0855.40
2009/04/23 08:35:59.9     -21    -10     74     24     77 242.9  80.7  34020  287.21 0855.40
2009/04/23 08:36:00.0     -95     22     82     98    127 283.3  43.8  34020  287.20 0855.40
2009/04/23 08:36:00.1     -66     35    123     75    144 298.0  65.1  34018  287.16 0855.40
2009/04/23 08:36:00.2     -33    148    123    152    195 347.1  43.3  34012  287.08 0855.40
2009/04/23 08:36:00.3    -102    191     83    217    232 331.7  22.0  34012  287.08 0855.40
2009/04/23 08:36:00.4     -92    159     68    184    196 329.9  21.3  34014  287.11 0855.40
2009/04/23 08:36:00.5      27    133     83    136    159  11.6  34.2  34020  287.20 0855.40
2009/04/23 08:36:00.6      80    112     62    138    151  35.6  26.2  34020  287.21 0855.40
2009/04/23 08:36:00.7      91     54    101    107    147  59.3  48.0  34020  287.20 0855.40
2009/04/23 08:36:00.8      67     44    148     81    168  56.3  69.1  34020  287.20 0855.40
2009/04/23 08:36:00.9      42     25    124     49    133  59.3  77.6  34018  287.18 0855.40
2009/04/23 08:36:01.0      59     -4    102     60    118  94.4  66.8  34020  287.21 0855.40
2009/04/23 08:36:01.1      93   -133    123    163    204 145.0  40.9  34016  287.15 0855.40
2009/04/23 08:36:01.2      70   -178    114    192    223 158.6  33.5  34018  287.18 0855.40
2009/04/23 08:36:01.3      -2    -87    159     88    181 181.4  68.8  34020  287.20 0855.40
2009/04/23 08:36:01.4     -40    -33    109     52    120 230.5  72.9  34022  287.23 0855.40
2009/04/23 08:36:01.5      61   -184    141    195    240 161.5  39.7  34014  287.11 0855.40
2009/04/23 08:36:01.6      31   -193    192    196    274 170.9  49.8  34020  287.21 0855.40
2009/04/23 08:36:01.7      78   -140    145    161    216 151.0  46.9  34006  286.96 0855.40
2009/04/23 08:36:01.8      86   -171    170    192    256 153.3  46.2  34016  287.14 0855.40
2009/04/23 08:36:01.9      40   -193     74    198    211 168.2  21.3  34014  287.11 0855.40
2009/04/23 08:36:02.0      10   -144     70    145    161 176.0  27.4  34018  287.16 0855.40
2009/04/23 08:36:02.1       8   -106     48    107    117 175.5  25.7  34016  287.15 0855.40
2009/04/23 08:36:02.2      -5   -110     62    111    127 182.7  31.4  34018  287.18 0855.40
2009/04/23 08:36:02.3     -24    -96     70    100    122 194.3  38.6  34016  287.15 0855.40
2009/04/23 08:36:02.5     -19     21     88     29     92 318.6  80.7  34022  287.23 0855.40
2009/04/23 08:36:02.5      54     17     74     57     93  71.8  57.9  34022  287.23 0855.40
2009/04/23 08:36:02.6     126    -16    150    128    197  97.5  55.0  34020  287.20 0855.40
2009/04/23 08:36:02.7     134    -27    101    137    170 101.5  40.1  34018  287.18 0855.40
2009/04/23 08:36:02.8     134    -10     99    135    167  94.3  39.9  34018  287.16 0855.40
2009/04/23 08:36:03.0     127    -69     29    145    149 118.8  11.6  34018  287.16 0855.40
2009/04/23 08:36:03.1      96    -57     35    112    118 120.7  17.3  34018  287.18 0855.40
2009/04/23 08:36:03.2      64    -39     53     76     92 121.5  38.0  34016  287.13 0855.40
2009/04/23 08:36:03.3      11   -150     41    151    157 175.6  15.2  34016  287.15 0855.40
2009/04/23 08:36:03.4     -11   -143     -8    144    145 184.4  -3.2  34022  287.25 0855.40
2009/04/23 08:36:03.5      15    -77      8     79     80 168.4   5.9  34022  287.23 0855.40
2009/04/23 08:36:03.6       1    -59     30     60     67 178.2  28.2  34020  287.21 0855.40
2009/04/23 08:36:03.7       3    -41     50     42     65 175.5  56.3  34016  287.15 0855.40
2009/04/23 08:36:03.8       0    -35     67     36     76 180.9  68.9  34018  287.18 0855.40
2009/04/23 08:36:03.9       1    -20     63     21     66 175.5  81.0  34018  287.16 0855.40
2009/04/23 08:36:04.0     -33     47     23     58     62 324.8  23.0  34018  287.18 0855.40
2009/04/23 08:36:04.1    -119     36     54    125    136 286.9  25.1  34016  287.15 0855.40
2009/04/23 08:36:04.2    -153    -24     75    156    173 260.8  27.3  34018  287.16 0855.40
2009/04/23 08:36:04.3    -136    -73     44    155    162 241.6  15.8  34012  287.06 0855.40
2009/04/23 08:36:04.4    -106    -11     26    107    111 263.9  13.7  34014  287.10 0855.40
2009/04/23 08:36:04.5    -205     30     25    208    210 278.4   6.9  34014  287.10 0855.40
2009/04/23 08:36:04.6    -191     94     19    213    214 296.2   5.2  34014  287.11 0855.40
2009/04/23 08:36:04.7    -125     79    -13    149    150 302.4  -5.2  34016  287.15 0855.40
2009/04/23 08:36:04.8       5     72     58     73     93   4.5  43.3  34016  287.15 0855.40
2009/04/23 08:36:04.9     -16     67    -22     69     72 346.6 -23.8  34018  287.18 0855.41
2009/04/23 08:36:05.0      -9     89    -39     90     98 354.2 -29.0  34016  287.13 0855.41
2009/04/23 08:36:05.1      31    164    -47    168    174  10.9 -20.4  34014  287.11 0855.41
2009/04/23 08:36:05.2      10    140    -23    141    143   4.5  -9.4  34018  287.18 0855.41
2009/04/23 08:36:05.3     -49     66     -2     83     84 323.5  -1.8  34016  287.13 0855.41
2009/04/23 08:36:05.4     -68    -32     40     76     85 244.8  30.3  34018  287.18 0855.41
2009/04/23 08:36:05.5    -104      8     37    105    112 274.4  19.4  34020  287.20 0855.41
2009/04/23 08:36:05.6    -103    -41     49    111    121 248.2  25.2  34018  287.16 0855.41
2009/04/23 08:36:05.7    -156    -61     70    168    182 248.7  23.8  34020  287.21 0855.41
2009/04/23 08:36:05.8    -141    -56     79    152    171 248.3  29.5  34016  287.13 0855.41
2009/04/23 08:36:05.9    -156     31     40    160    166 281.4  14.3  34018  287.16 0855.41
2009/04/23 08:36:06.0    -154      0     26    155    158 270.0   9.5  34018  287.18 0855.41
2009/04/23 08:36:06.1    -176     25     41    178    183 278.1  13.2  34016  287.15 0855.41
2009/04/23 08:36:06.2    -192     16     42    193    198 275.0  12.4  34016  287.15 0855.41
2009/04/23 08:36:06.3    -149      2     18    150    152 270.8   6.9  34018  287.16 0855.41
2009/04/23 08:36:06.4     -93      0    -82     94    124 270.0 -50.2  34020  287.20 0855.41
2009/04/23 08:36:06.5     -19     73   -114     76    137 344.8 -67.6  34020  287.20 0855.41
2009/04/23 08:36:06.6     -56    170     23    180    182 341.7   7.5  34012  287.06 0855.41
2009/04/23 08:36:06.7     -84    207     43    224    229 337.9  11.0  34022  287.23 0855.41
2009/04/23 08:36:06.8    -125    122     29    175    178 314.2   9.5  34020  287.21 0855.41
2009/04/23 08:36:06.9     -10    124     43    125    133 355.1  18.9  34020  287.20 0855.42
2009/04/23 08:36:07.0     -21    124    -27    126    130 350.3 -12.4  34020  287.21 0855.42
2009/04/23 08:36:07.1      15     78    -28     80     86  11.1 -19.7  34022  287.23 0855.42
2009/04/23 08:36:07.2     150     67      6    165    166  66.0   2.1  34020  287.20 0855.42
2009/04/23 08:36:07.3     152     51     67    161    174  71.4  24.1  34016  287.15 0855.42
2009/04/23 08:36:07.4      96     -3     26     97    101  92.1  15.2  34016  287.15 0855.42
2009/04/23 08:36:07.5      63    -59    -25     87     91 133.1 -16.0  34022  287.23 0855.42
2009/04/23 08:36:07.6      70    -33     -4     78     79 115.3  -3.1  34018  287.18 0855.42
2009/04/23 08:36:07.7      64    -55      4     85     86 130.9   3.3  34020  287.20 0855.42
2009/04/23 08:36:07.8      91    -50     36    104    111 118.9  19.4  34022  287.25 0855.42
2009/04/23 08:36:07.9      28    -45     55     54     77 148.4  49.1  34022  287.23 0855.42
2009/04/23 08:36:08.0     -31    -95     -3    101    102 198.3  -1.8  34022  287.23 0855.42
2009/04/23 08:36:08.1     -29   -115    -15    119    120 194.3  -7.2  34022  287.25 0855.42
2009/04/23 08:36:08.2       7    -98    -44     99    108 175.5 -30.1  34020  287.21 0855.42
2009/04/23 08:36:08.3     -78    -81    -79    113    137 224.1 -43.0  34018  287.16 0855.42
2009/04/23 08:36:08.4      10   -138     22    139    141 175.6   9.0  34018  287.18 0855.42
2009/04/23 08:36:08.5      62   -174    -26    186    188 160.2  -8.2  34020  287.21 0855.42
2009/04/23 08:36:08.6       9   -178    -86    179    198 177.1 -31.8  34012  287.06 0855.42
2009/04/23 08:36:08.7      10   -132    -83    133    156 175.6 -39.4  34018  287.18 0855.42
2009/04/23 08:36:08.8      57    -92     11    109    110 148.4   5.9  34020  287.20 0855.42
2009/04/23 08:36:08.9      52    -55     81     76    111 136.7  52.1  34016  287.15 0855.41
2009/04/23 08:36:09.0      49    -90     98    103    142 151.5  48.5  34018  287.18 0855.41
2009/04/23 08:36:09.1       0     -5    105      6    105 184.5  90.0  34018  287.18 0855.41
2009/04/23 08:36:09.2     -99    -91     26    135    138 227.3  11.0  34018  287.18 0855.41
2009/04/23 08:36:09.3     -77    -77     83    110    137 225.0  41.2  34020  287.21 0855.41
2009/04/23 08:36:09.4      18   -137     32    139    143 172.4  13.1  34020  287.20 0855.41
2009/04/23 08:36:09.5      67   -132     22    149    151 152.9   8.5  34020  287.20 0855.41
2009/04/23 08:36:09.6     158    -66    -56    172    180 112.8 -23.6  34018  287.18 0855.41
2009/04/23 08:36:09.7     116    -81    -64    142    155 125.1 -30.6  34020  287.20 0855.41
2009/04/23 08:36:09.8      98    -81   -135    128    186 129.5 -56.4  34014  287.11 0855.41
2009/04/23 08:36:09.9     234    -36    -88    237    252  98.8 -25.4  34012  287.07 0855.41
2009/04/23 08:36:10.0     241    -87   -153    257    299 110.0 -37.9  34020  287.21 0855.41
2009/04/23 08:36:10.1     247   -138    -95    284    299 119.3 -23.6  34014  287.09 0855.41
2009/04/23 08:36:10.2     232    -63    -66    241    250 105.3 -15.4  34016  287.12 0855.41
2009/04/23 08:36:10.3     336    162     76    374    382  64.2  11.5  34016  287.13 0855.41
2009/04/23 08:36:10.4     344     93    -23    357    358  74.9  -3.7  34018  287.17 0855.41
2009/04/23 08:36:10.5     239    175   -145    297    330  53.8 -32.3  34016  287.14 0855.41
2009/04/23 08:36:10.6     299    117     28    322    324  68.6   5.1  34016  287.14 0855.41
2009/04/23 08:36:10.7     429    124     22    447    448  73.8   2.9  34014  287.09 0855.41
2009/04/23 08:36:10.8     414    149     40    441    443  70.2   5.2  34012  287.08 0855.41
2009/04/23 08:36:10.9     419    197     35    464    466  64.8   4.4  34014  287.09 0855.40
2009/04/23 08:36:11.0     455    171    117    487    501  69.4  13.6  34022  287.22 0855.40
2009/04/23 08:36:11.1     423    216    104    476    488  62.9  12.4  34026  287.29 0855.40
2009/04/23 08:36:11.2     331    195    128    385    406  59.5  18.4  34018  287.18 0855.40
2009/04/23 08:36:11.3     446    170    168    478    506  69.1  20.2  34016  287.14 0855.40
2009/04/23 08:36:11.4     436    146    231    461    515  71.4  28.7  34016  287.12 0855.40
2009/04/23 08:36:11.5     422    111    189    437    476  75.2  24.9  34016  287.13 0855.40
2009/04/23 08:36:11.6     368    115     86    386    396  72.6  12.6  34018  287.18 0855.40
2009/04/23 08:36:11.7     221     44    -19    226    227  78.6  -4.9  34016  287.15 0855.40
2009/04/23 08:36:11.8     136    111     97    176    200  50.9  31.3  34018  287.18 0855.40
2009/04/23 08:36:11.9      67    156    -35    170    174  23.4 -11.9  34020  287.21 0855.40
2009/04/23 08:36:12.0     133    143    -50    196    203  42.8 -14.3  34020  287.21 0855.40
2009/04/23 08:36:12.1     370    170    105    408    422  65.3  14.5  34018  287.18 0855.40
2009/04/23 08:36:12.2     369    105    173    384    421  74.1  26.0  34018  287.18 0855.40
2009/04/23 08:36:12.3     462    123     69    479    485  75.1   8.2  34020  287.19 0855.40
2009/04/23 08:36:12.4     510     94     61    519    523  79.5   6.8  34016  287.15 0855.40
2009/04/23 08:36:12.5     554    128     46    569    572  77.0   4.7  34014  287.11 0855.40
2009/04/23 08:36:12.6     512     97     65    522    527  79.3   7.1  34020  287.21 0855.40
2009/04/23 08:36:12.7     552    120     49    565    568  77.7   5.0  34016  287.15 0855.40
2009/04/23 08:36:12.8     534    103     76    544    550  79.0   8.0  34018  287.16 0855.40
2009/04/23 08:36:12.9     491    200     96    531    540  67.8  10.3  34010  287.03 0855.39
2009/04/23 08:36:13.0     468    140     68    489    494  73.3   8.0  34014  287.09 0855.39
2009/04/23 08:36:13.1     353    -27    133    354    378  94.4  21.5  34016  287.12 0855.39
2009/04/23 08:36:13.2     343     46    -76    347    356  82.3 -12.4  34016  287.15 0855.39
2009/04/23 08:36:13.3     336   -133    -14    362    363 111.7  -2.2  34010  287.03 0855.39
2009/04/23 08:36:13.4     175    -65    -81    187    203 110.4 -29.5  34016  287.13 0855.39
2009/04/23 08:36:13.5      24    -73     29     77     82 161.5  21.5  34012  287.06 0855.39
2009/04/23 08:36:13.6     -38      0    -67     39     77 270.0 -71.2  34016  287.15 0855.39
2009/04/23 08:36:13.7     -51     84   -171     99    197 328.4 -71.6  34018  287.16 0855.39
2009/04/23 08:36:13.8      50    -53   -168     74    183 136.8 -79.4  34020  287.20 0855.39
2009/04/23 08:36:13.9      33    -60   -146     69    161 151.0 -77.6  34018  287.16 0855.39
2009/04/23 08:36:14.0     -43    -42   -175     61    185 226.0 -85.1  34020  287.20 0855.39
2009/04/23 08:36:14.1      98    -17   -242    100    261 100.1 -81.0  34016  287.13 0855.39
2009/04/23 08:36:14.2      81    -17   -197     83    213 101.9 -80.5  34016  287.15 0855.39
2009/04/23 08:36:14.3      25    -74   -168     79    185 161.3 -77.5  34018  287.16 0855.39
2009/04/23 08:36:14.4      44    -93   -125    103    161 154.7 -60.5  34020  287.21 0855.39
2009/04/23 08:36:14.5      73   -107    -58    130    142 145.8 -29.6  34022  287.23 0855.39
2009/04/23 08:36:14.6      65   -115    -58    133    145 150.6 -29.5  34022  287.23 0855.39
2009/04/23 08:36:14.7     137    -87    -22    163    165 122.4  -8.0  34020  287.21 0855.39
2009/04/23 08:36:14.8     201   -102     31    226    229 116.9   7.8  34020  287.20 0855.39
2009/04/23 08:36:14.9     167   -127    -26    210    212 127.3  -7.2  34020  287.20 0855.39
2009/04/23 08:36:15.0     174   -102     15    202    203 120.4   4.4  34020  287.20 0855.39
2009/04/23 08:36:15.1     188   -119     23    223    225 122.4   6.1  34022  287.23 0855.39
2009/04/23 08:36:15.2     204   -153     24    255    257 126.9   5.4  34020  287.19 0855.39
2009/04/23 08:36:15.3     160   -181     38    242    246 138.5   8.9  34018  287.17 0855.39
2009/04/23 08:36:15.4     100   -142     -2    174    175 144.8  -0.7  34020  287.20 0855.39
2009/04/23 08:36:15.5     107   -274     26    295    297 158.6   5.2  34020  287.21 0855.39
2009/04/23 08:36:15.6      76   -213     61    227    236 160.2  15.2  34020  287.21 0855.39
2009/04/23 08:36:15.7     129   -194     96    234    252 146.4  23.6  34018  287.16 0855.39
2009/04/23 08:36:15.8      61   -140     87    153    176 156.4  32.1  34022  287.23 0855.39
2009/04/23 08:36:15.9      82   -139      5    162    163 149.3   1.8  34022  287.23 0855.39
2009/04/23 08:36:16.0      77   -182     15    198    199 157.1   4.4  34018  287.16 0855.39
2009/04/23 08:36:16.1     184    -73     -7    199    200 111.7  -2.2  34020  287.20 0855.39
2009/04/23 08:36:16.2     231     20     57    232    239  84.8  13.9  34022  287.24 0855.39
2009/04/23 08:36:16.3     246     40     88    250    265  80.8  20.0  34022  287.24 0855.39
2009/04/23 08:36:16.4     228     38     72    232    244  80.4  17.3  34022  287.24 0855.39
2009/04/23 08:36:16.5     294     43     57    298    304  81.6  10.8  34022  287.22 0855.39
2009/04/23 08:36:16.6     356    121      4    377    378  71.2   0.7  34018  287.18 0855.39
2009/04/23 08:36:16.7     325    104     60    342    348  72.2  10.0  34024  287.27 0855.39
2009/04/23 08:36:16.8     320    127     95    345    358  68.3  15.4  34024  287.27 0855.39
2009/04/23 08:36:16.9     348    148    162    379    412  66.9  24.5  34022  287.22 0855.40
2009/04/23 08:36:17.0     341    117     22    361    362  70.9   3.5  34016  287.15 0855.40
2009/04/23 08:36:17.1     330    133     15    356    357  68.0   2.5  34018  287.17 0855.40
2009/04/23 08:36:17.2     393    125     39    413    415  72.3   5.4  34018  287.16 0855.40
2009/04/23 08:36:17.3     404    164    252    437    504  67.9  32.6  34022  287.25 0855.40
2009/04/23 08:36:17.4     380    -77    295    388    487 101.5  41.1  34016  287.14 0855.40
2009/04/23 08:36:17.5     325    -86    230    337    408 104.9  37.4  34014  287.10 0855.40
2009/04/23 08:36:17.6     259   -212    164    336    373 129.3  27.9  34012  287.07 0855.40
2009/04/23 08:36:17.7     250   -242    185    349    395 134.1  30.2  34010  287.05 0855.40
2009/04/23 08:36:17.8     219   -262    114    342    361 140.1  18.4  34016  287.15 0855.40
2009/04/23 08:36:17.9     197   -245    172    315    358 141.3  31.0  34006  286.98 0855.40
2009/04/23 08:36:18.0     219   -178    121    283    307 129.1  24.6  34016  287.14 0855.40
2009/04/23 08:36:18.1     102   -170     90    199    218 149.0  25.9  34016  287.13 0855.40
2009/04/23 08:36:18.2    -134   -201     20    242    243 213.8   4.9  34014  287.11 0855.40
2009/04/23 08:36:18.3    -122   -126     30    176    179 223.9   9.9  34014  287.11 0855.40
2009/04/23 08:36:18.4    -114    -94      2    149    150 230.5   0.8  34012  287.06 0855.40
2009/04/23 08:36:18.5    -169   -124     36    210    214 233.6   9.9  34016  287.15 0855.40
2009/04/23 08:36:18.6    -198   -112    -35    228    231 240.5  -8.8  34014  287.11 0855.40
2009/04/23 08:36:18.7     -98   -160    -37    188    192 211.6 -11.3  34020  287.20 0855.40
2009/04/23 08:36:18.8     -79   -134      6    156    157 210.7   2.3  34018  287.18 0855.40
2009/04/23 08:36:18.9     -74   -132     21    152    154 209.4   8.0  34018  287.18 0855.41
2009/04/23 08:36:19.0     -55   -195     38    203    207 195.8  10.6  34018  287.18 0855.41
2009/04/23 08:36:19.1     -51   -265    148    270    307 190.9  31.3  34012  287.07 0855.41
2009/04/23 08:36:19.2       1   -263    169    264    313 179.8  35.6  34020  287.19 0855.41
2009/04/23 08:36:19.3      -8   -246    135    247    281 182.0  31.3  34018  287.17 0855.41
2009/04/23 08:36:19.4     -52   -220    173    227    285 193.3  41.6  34018  287.16 0855.41
2009/04/23 08:36:19.5    -105   -244    136    266    298 203.4  29.3  34016  287.14 0855.41
2009/04/23 08:36:19.6     -86   -331    169    343    382 194.7  28.1  34022  287.25 0855.41
2009/04/23 08:36:19.7    -117   -247    209    274    344 205.4  41.3  34020  287.19 0855.41
2009/04/23 08:36:19.8      69   -352    110    359    376 168.8  17.1  34016  287.15 0855.41
2009/04/23 08:36:19.9       0   -393      5    394    395 179.9   0.8  34012  287.07 0855.41
2009/04/23 08:36:20.0     127   -434    -41    453    455 163.6  -5.2  34024  287.28 0855.41
2009/04/23 08:36:20.1     115   -378     34    396    398 163.1   5.0  34026  287.32 0855.41
2009/04/23 08:36:20.2     133   -508     88    526    534 165.3   9.5  34030  287.37 0855.41
2009/04/23 08:36:20.3     139   -508    152    527    549 164.7  16.1  34026  287.32 0855.41
2009/04/23 08:36:20.4       1   -465    164    466    494 179.8  20.2  34026  287.29 0855.41
2009/04/23 08:36:20.5     -67   -413     59    419    424 189.3   8.0  34012  287.06 0855.41
2009/04/23 08:36:20.6      -6   -499     62    500    504 180.7   7.1  34022  287.24 0855.41
2009/04/23 08:36:20.7     -67   -483    107    488    500 188.0  12.4  34026  287.31 0855.41
2009/04/23 08:36:20.8    -134   -423    125    444    462 197.6  15.8  34020  287.21 0855.41
2009/04/23 08:36:20.9      31   -370    221    372    432 175.1  33.5  34024  287.28 0855.40
2009/04/23 08:36:21.0     142   -313     83    344    355 155.6  13.7  34028  287.34 0855.40
2009/04/23 08:36:21.1      99   -306    100    322    338 162.1  17.3  34026  287.29 0855.40
2009/04/23 08:36:21.2      44   -300    112    304    323 171.5  21.1  34028  287.33 0855.40
2009/04/23 08:36:21.3     -12   -402    152    403    430 181.8  21.6  34026  287.31 0855.40
2009/04/23 08:36:21.4      74   -398    115    405    422 169.4  15.9  34018  287.18 0855.40
2009/04/23 08:36:21.5       0   -410    144    411    435 180.1  20.0  34028  287.33 0855.40
2009/04/23 08:36:21.6      73   -359     72    367    375 168.4  11.1  34026  287.30 0855.40
2009/04/23 08:36:21.7     127   -355    -52    378    382 160.2  -7.9  34024  287.27 0855.40
2009/04/23 08:36:21.8      75   -329     -5    338    339 167.1  -0.9  34026  287.32 0855.40
2009/04/23 08:36:21.9     117   -352    -24    371    372 161.6  -3.8  34030  287.37 0855.42
2009/04/23 08:36:22.0      88   -389   -119    399    417 167.2 -16.6  34026  287.30 0855.42
2009/04/23 08:36:22.1      44   -345    -96    348    362 172.7 -15.4  34024  287.27 0855.42
2009/04/23 08:36:22.2     -13   -378    -62    379    385 182.1  -9.3  34022  287.23 0855.42
2009/04/23 08:36:22.3     -87   -375    -32    386    388 193.2  -4.9  34026  287.29 0855.42
2009/04/23 08:36:22.4     -10   -372   -106    373    388 181.6 -15.9  34022  287.22 0855.42
2009/04/23 08:36:22.5      83   -287    -90    299    313 163.7 -16.8  34022  287.24 0855.42
2009/04/23 08:36:22.6      34   -273    -88    276    289 172.8 -22.9  34022  287.22 0855.42
2009/04/23 08:36:22.7      86   -281    -87    294    306 163.0 -21.5  34026  287.31 0855.42
2009/04/23 08:36:22.8      90   -394   -106    405    419 167.1 -14.7  34024  287.26 0855.42
2009/04/23 08:36:22.9      79   -426   -137    434    456 169.4 -17.6  34022  287.23 0855.42
2009/04/23 08:36:23.0     136   -380    -70    404    411 160.2  -9.9  34024  287.28 0855.42
2009/04/23 08:36:23.1     162   -453   -110    482    495 160.3 -12.9  34026  287.32 0855.42
2009/04/23 08:36:23.2     134   -441   -118    462    477 163.1 -14.4  34030  287.37 0855.42
2009/04/23 08:36:23.3     109   -388   -138    404    426 164.2 -23.8  34032  287.40 0855.42
2009/04/23 08:36:23.4      99   -418   -123    430    447 166.6 -20.7  34032  287.40 0855.42
2009/04/23 08:36:23.5     181   -366   -145    409    435 153.6 -19.6  34034  287.43 0855.42
2009/04/23 08:36:23.6     227   -444   -120    499    514 152.9 -13.6  34028  287.34 0855.42
2009/04/23 08:36:23.7      91   -525   -157    534    557 170.1 -16.4  34034  287.43 0855.42
2009/04/23 08:36:23.8      74   -516   -165    522    548 171.8 -17.5  34032  287.40 0855.42
2009/04/23 08:36:23.9     175   -530   -143    559    578 161.7 -14.4  34034  287.44 0855.44
2009/04/23 08:36:24.0     207   -486   -112    529    541 156.9 -12.0  34032  287.40 0855.44
2009/04/23 08:36:24.1     136   -369   -117    394    412 159.7 -16.6  34032  287.41 0855.44
2009/04/23 08:36:24.2      74   -366   -128    374    395 168.5 -24.0  34024  287.27 0855.44
2009/04/23 08:36:24.3       0   -342   -126    343    365 180.0 -25.4  34022  287.25 0855.44
2009/04/23 08:36:24.4     -70   -282    -47    291    295 194.0  -9.3  34024  287.28 0855.44
2009/04/23 08:36:24.5    -107   -432   -141    446    468 193.9 -17.6  34018  287.18 0855.44
2009/04/23 08:36:24.6    -133   -315   -162    343    379 203.0 -31.5  34022  287.22 0855.44
2009/04/23 08:36:24.7    -109   -300   -127    320    344 200.0 -27.3  34016  287.15 0855.44
2009/04/23 08:36:24.8      -4   -272   -134    273    304 181.0 -32.2  34026  287.29 0855.44
2009/04/23 08:36:24.9     -10   -325   -139    326    354 181.8 -29.0  34026  287.30 0855.44
2009/04/23 08:36:25.0     -42   -208   -145    213    257 191.6 -42.0  34024  287.28 0855.44
2009/04/23 08:36:25.1     -32   -233    -91    236    252 188.0 -26.4  34026  287.31 0855.44
2009/04/23 08:36:25.2      80   -332   -110    342    360 166.4 -17.9  34024  287.27 0855.44
2009/04/23 08:36:25.3      41   -267    -75    271    282 171.1 -15.5  34026  287.29 0855.44
2009/04/23 08:36:25.4      67   -265     73    274    284 165.7  15.0  34024  287.26 0855.44
2009/04/23 08:36:25.5      62   -240     68    248    258 165.5  15.3  34028  287.33 0855.44
2009/04/23 08:36:25.6      35   -203     73    207    220 170.2  19.4  34024  287.27 0855.44
2009/04/23 08:36:25.7      66   -139    108    154    188 154.5  38.6  34026  287.30 0855.44
2009/04/23 08:36:25.8     -20   -196     70    198    210 186.0  20.0  34024  287.28 0855.44
2009/04/23 08:36:25.9     -46   -197     55    203    211 193.3  15.3  34026  287.32 0855.44
2009/04/23 08:36:26.0     -49   -150     -3    158    159 198.3  -1.1  34022  287.23 0855.44
2009/04/23 08:36:26.1     -81   -234     87    248    263 199.1  19.4  34028  287.33 0855.44
2009/04/23 08:36:26.2     -75   -243     -9    255    256 197.2  -2.2  34032  287.41 0855.44
2009/04/23 08:36:26.3    -160   -326    -95    364    377 206.1 -14.7  34026  287.30 0855.44
2009/04/23 08:36:26.4    -206   -379    -93    432    443 208.5 -12.2  34022  287.23 0855.44
2009/04/23 08:36:26.5     -80   -395    -24    404    405 191.6  -3.5  34030  287.36 0855.44
2009/04/23 08:36:26.6    -210   -299    -83    366    376 215.1 -12.9  34028  287.35 0855.44
2009/04/23 08:36:26.7    -174   -274    -80    325    335 212.5 -13.9  34030  287.37 0855.44
2009/04/23 08:36:26.8    -129   -305   -112    332    351 203.0 -18.7  34032  287.42 0855.44
2009/04/23 08:36:26.9    -153   -311   -123    347    368 206.3 -24.7  34028  287.34 0855.44
2009/04/23 08:36:27.0     -85   -257   -137    271    303 198.3 -33.5  34028  287.33 0855.44
2009/04/23 08:36:27.1    -151   -358   -102    389    403 203.0 -14.8  34032  287.42 0855.44
2009/04/23 08:36:27.2    -172   -351   -133    391    414 206.1 -18.8  34028  287.35 0855.44
2009/04/23 08:36:27.3    -180   -311   -126    360    382 210.0 -19.4  34028  287.35 0855.44
2009/04/23 08:36:27.5    -204   -258    -94    330    344 218.4 -15.9  34028  287.35 0855.44
2009/04/23 08:36:27.5    -140    -88    -80    166    184 237.6 -31.8  34028  287.35 0855.44
2009/04/23 08:36:27.6    -135   -112    -87    176    196 230.4 -32.6  34028  287.35 0855.44
2009/04/23 08:36:27.7     -97   -117   -128    153    199 219.7 -48.5  34028  287.35 0855.44
2009/04/23 08:36:27.8     -84    -85    -94    120    152 224.5 -47.1  34028  287.35 0855.44
2009/04/23 08:36:27.9    -120    -39   -110    127    168 251.8 -49.8  34034  287.43 0855.43
2009/04/23 08:36:28.0     -87    -21   -107     90    139 256.3 -60.7  34032  287.40 0855.43
2009/04/23 08:36:28.1     -72     -5   -111     73    132 265.6 -68.5  34030  287.37 0855.43
2009/04/23 08:36:28.2     -55    -55    -92     79    121 225.1 -59.2  34030  287.38 0855.43
2009/04/23 08:36:28.3     -10      1    -75     11     75 277.9 -90.0  34032  287.40 0855.43
2009/04/23 08:36:28.4      38    -24    -17     45     48 122.4 -24.4  34030  287.37 0855.43
2009/04/23 08:36:28.5      66    -13     13     68     70 101.4  11.1  34030  287.38 0855.43
2009/04/23 08:36:28.6     123     15    -18    124    126  83.0  -8.2  34030  287.38 0855.43
2009/04/23 08:36:28.8     232    -17    -15    233    234  94.3  -3.7  34034  287.43 0855.43
2009/04/23 08:36:28.9     220   -100    -20    242    243 114.6  -4.9  34030  287.38 0855.43
2009/04/23 08:36:29.0     201    -34     24    204    206  99.7   6.7  34032  287.42 0855.43
2009/04/23 08:36:29.1     174    -46      9    181    182 105.0   2.9  34036  287.49 0855.43
2009/04/23 08:36:29.1     142    -84     28    165    168 120.6   9.9  34034  287.45 0855.43
2009/04/23 08:36:29.3     100   -131     55    165    175 142.6  18.6  34028  287.35 0855.43
2009/04/23 08:36:29.4     114   -108     26    158    161 133.6   9.3  34034  287.43 0855.43
2009/04/23 08:36:29.5     115    -73     28    137    140 122.5  11.6  34032  287.42 0855.43
2009/04/23 08:36:29.6     107    -88      6    139    140 129.5   2.8  34036  287.47 0855.43
2009/04/23 08:36:29.7     114   -108     26    158    161 133.6   9.3  34036  287.47 0855.43
2009/04/23 08:36:29.8     101    -84     62    132    145 130.0  27.1  34034  287.45 0855.43
2009/04/23 08:36:29.9      96    -93     96    134    164 134.0  39.1  34040  287.54 0855.43
2009/04/23 08:36:30.0     111   -125     44    168    174 138.6  14.7  34038  287.50 0855.42
2009/04/23 08:36:30.1     144   -128     57    193    202 131.6  16.6  34036  287.49 0855.42
2009/04/23 08:36:30.2     131   -131     49    186    193 135.1  15.0  34036  287.49 0855.42
2009/04/23 08:36:30.3      80   -122     51    147    156 146.6  19.4  34034  287.45 0855.42
2009/04/23 08:36:30.4      52   -120     39    131    137 156.4  16.8  34036  287.49 0855.42
2009/04/23 08:36:30.5      63   -147     19    161    163 156.8   6.7  34034  287.45 0855.42
2009/04/23 08:36:30.6      59   -142      7    154    155 157.3   2.8  34034  287.43 0855.42
2009/04/23 08:36:30.7      62    -91     67    111    129 145.7  34.0  34034  287.45 0855.42
2009/04/23 08:36:30.8      85    -69     21    110    113 129.1  11.0  34036  287.47 0855.42
2009/04/23 08:36:30.9     138   -103     13    173    174 126.9   4.6  34038  287.50 0855.42
2009/04/23 08:36:31.0     116   -112     44    162    168 134.0  15.3  34038  287.52 0855.42
2009/04/23 08:36:31.1      72   -111     65    133    148 147.0  27.3  34038  287.52 0855.42
2009/04/23 08:36:31.2     118    -85     40    146    152 126.0  15.3  34040  287.55 0855.42
2009/04/23 08:36:31.3     111    -80     20    137    139 125.9   8.5  34040  287.54 0855.42
2009/04/23 08:36:31.4     111   -158     81    194    210 144.8  24.1  34042  287.57 0855.42
2009/04/23 08:36:31.5     106   -161     75    193    207 146.6  22.5  34038  287.52 0855.42
2009/04/23 08:36:31.6     120   -120    102    170    198 135.0  33.7  34040  287.55 0855.42
2009/04/23 08:36:31.7     159   -115     79    197    212 125.9  23.0  34040  287.54 0855.42
2009/04/23 08:36:31.8     147    -92     92    174    196 122.2  30.1  34038  287.52 0855.42
2009/04/23 08:36:31.9     139    -79    136    161    210 119.8  44.3  34034  287.43 0855.42
2009/04/23 08:36:32.0     206    -65     78    217    230 107.7  20.2  34034  287.45 0855.43
2009/04/23 08:36:32.1     142    -61     74    155    171 113.5  27.2  34036  287.49 0855.43
2009/04/23 08:36:32.2     145    -71     64    162    174 116.2  22.5  34038  287.50 0855.43
2009/04/23 08:36:32.3      94    -37     41    102    109 111.7  23.0  34034  287.43 0855.43
2009/04/23 08:36:32.4      60    -38     69     72     99 122.4  49.0  34038  287.50 0855.43
2009/04/23 08:36:32.5      35    -41     78     54     94 139.5  62.6  34038  287.50 0855.43
2009/04/23 08:36:32.6      17    -53     65     56     85 161.3  54.8  34034  287.45 0855.43
2009/04/23 08:36:32.7       2    -42    108     43    116 177.3  77.1  34036  287.47 0855.43
2009/04/23 08:36:32.8      25    -74     98     79    125 161.3  56.9  34036  287.47 0855.43
2009/04/23 08:36:32.9       0    -66    101     67    121 180.0  63.2  34034  287.45 0855.43
2009/04/23 08:36:33.0     -37    -36     98     52    110 226.0  69.8  34038  287.50 0855.43
2009/04/23 08:36:33.1       3     47     59     48     76   4.5  56.4  34038  287.52 0855.43
2009/04/23 08:36:33.2      99    -55    114    114    161 118.9  50.1  34038  287.50 0855.43
2009/04/23 08:36:33.3      31    -31    111     44    119 135.0  77.6  34038  287.50 0855.43
2009/04/23 08:36:33.4      17     12     89     22     91  54.0  86.4  34036  287.47 0855.43
2009/04/23 08:36:33.5     188    -26    113    190    221  97.9  33.5  34034  287.43 0855.43
2009/04/23 08:36:33.6     166    -58    112    176    208 109.3  35.5  34028  287.33 0855.43
2009/04/23 08:36:33.7      70   -212    204    224    302 161.7  47.1  34036  287.46 0855.43
2009/04/23 08:36:33.8      62   -220    169    229    284 164.2  40.1  34036  287.46 0855.43
2009/04/23 08:36:33.9      84   -155    128    177    218 151.5  39.5  34034  287.43 0855.43
2009/04/23 08:36:34.0     126   -133    121    184    220 136.7  36.3  34034  287.45 0855.43
2009/04/23 08:36:34.1     115   -111    104    160    190 134.0  35.7  34032  287.42 0855.43
2009/04/23 08:36:34.2      74   -133      3    153    154 151.0   1.2  34036  287.47 0855.43
2009/04/23 08:36:34.3     114   -104      9    155    156 132.2   3.6  34034  287.43 0855.43
2009/04/23 08:36:34.4      70   -170     99    185    209 157.5  30.6  34036  287.49 0855.43
2009/04/23 08:36:34.5      50   -150     92    159    183 161.3  32.7  34038  287.52 0855.43
2009/04/23 08:36:34.6      13   -146    115    147    186 174.7  42.4  34036  287.47 0855.43
2009/04/23 08:36:34.7      59   -107     81    123    147 151.0  36.0  34036  287.49 0855.43
2009/04/23 08:36:34.8      55    -67     37     87     94 140.8  24.6  34036  287.49 0855.43
2009/04/23 08:36:34.9      70    -56     93     90    129 128.6  50.7  34032  287.40 0855.43
2009/04/23 08:36:35.0     155    -87     16    178    179 119.3   5.4  34034  287.45 0855.43
2009/04/23 08:36:35.1     112    -38    100    119    155 109.1  43.8  34028  287.35 0855.43
2009/04/23 08:36:35.2      33    -15     93     37    100 115.2  77.1  34034  287.45 0855.43
2009/04/23 08:36:35.3     -56    -73    146     93    173 217.4  64.7  34038  287.50 0855.43
2009/04/23 08:36:35.4    -102     20    104    105    147 281.5  50.0  34032  287.42 0855.43
2009/04/23 08:36:35.5      47     21    107     52    118  65.6  72.4  34032  287.40 0855.43
2009/04/23 08:36:35.6     146    -26     39    149    155 100.1  14.7  34034  287.45 0855.43
2009/04/23 08:36:35.7     108    -14     24    109    112  97.5  12.6  34034  287.43 0855.43
2009/04/23 08:36:35.8      60      6     -6     61     62  83.9  -6.2  34038  287.50 0855.43
2009/04/23 08:36:35.9      40     25      9     48     49  57.5  11.1  34036  287.49 0855.43
2009/04/23 08:36:36.0      40     64     -3     76     77  32.6  -2.2  34038  287.50 0855.42
2009/04/23 08:36:36.1      12     33    -11     36     38  20.0 -17.6  34034  287.45 0855.42
2009/04/23 08:36:36.2      14     25     27     29     39  29.0  49.0  34034  287.45 0855.42
2009/04/23 08:36:36.3      87     33    102     94    138  69.2  52.2  34034  287.45 0855.42
2009/04/23 08:36:36.4     -19     30     85     36     92 327.5  76.1  34034  287.45 0855.42
2009/04/23 08:36:36.5      17     18    142     25    144  43.4  90.0  34030  287.37 0855.42
2009/04/23 08:36:36.6       3      4    130      6    130  39.6  90.0  34040  287.54 0855.42
2009/04/23 08:36:36.7      35     34    102     50    113  45.9  72.4  34038  287.50 0855.42
2009/04/23 08:36:36.8      19      4     81     20     83  76.7  86.4  34036  287.49 0855.42
2009/04/23 08:36:36.9      99     39     76    107    131  68.2  39.1  34034  287.45 0855.42
2009/04/23 08:36:37.0      97     -7    104     98    142  94.4  52.1  34036  287.47 0855.42
2009/04/23 08:36:37.1      80      1    139     81    160  89.2  67.2  34036  287.47 0855.42
2009/04/23 08:36:37.2     188     29    171    191    256  81.0  46.6  34040  287.53 0855.42
2009/04/23 08:36:37.3     135     -4    229    136    266  91.7  66.7  34032  287.40 0855.42
2009/04/23 08:36:37.4     164     12    165    165    233  85.6  50.1  34032  287.42 0855.42
2009/04/23 08:36:37.5      68     13    144     70    160  78.6  72.1  34036  287.47 0855.42
2009/04/23 08:36:37.6       4     22    117     23    119  11.6  89.6  34036  287.49 0855.42
2009/04/23 08:36:37.7     146     44    209    153    259  73.1  60.5  34036  287.49 0855.42
2009/04/23 08:36:37.8     145     39    213    151    261  74.9  61.3  34036  287.49 0855.42
2009/04/23 08:36:37.9      89     19    219     92    237  77.6  76.1  34036  287.49 0855.42
2009/04/23 08:36:38.0     207    103    161    232    282  63.4  37.8  34036  287.48 0855.40
2009/04/23 08:36:38.1     251     62    211    259    334  76.1  43.5  34036  287.48 0855.40
2009/04/23 08:36:38.2     212    142    213    256    333  56.3  44.0  34034  287.44 0855.40
2009/04/23 08:36:38.3     238    113    160    264    308  64.6  34.2  34032  287.41 0855.40
2009/04/23 08:36:38.4     204     67     89    215    232  71.6  23.6  34038  287.50 0855.40
2009/04/23 08:36:38.5     267     89    134    282    312  71.6  27.3  34038  287.51 0855.40
2009/04/23 08:36:38.6     314    130     50    340    344  67.5   8.5  34032  287.42 0855.40
2009/04/23 08:36:38.7     232     83    204    247    320  70.3  43.7  34038  287.50 0855.40
2009/04/23 08:36:38.8     317    104    132    334    359  71.8  22.8  34036  287.49 0855.40
2009/04/23 08:36:38.9     280    133    110    311    329  64.6  20.1  34036  287.48 0855.40
2009/04/23 08:36:39.0     277    136    122    309    332  63.8  22.7  34036  287.48 0855.40
2009/04/23 08:36:39.1     261    144     58    299    305  61.1  11.0  34034  287.43 0855.40
2009/04/23 08:36:39.2     196    123     27    232    234  58.0   6.9  34038  287.50 0855.40
2009/04/23 08:36:39.3     320     58      6    326    327  79.7   1.1  34034  287.43 0855.40
2009/04/23 08:36:39.4     333    132     21    359    360  68.3   3.5  34034  287.45 0855.40
2009/04/23 08:36:39.5     213     90     12    232    233  67.2   3.1  34028  287.35 0855.40
2009/04/23 08:36:39.6     197    153     90    250    266  52.2  19.9  34034  287.44 0855.40
2009/04/23 08:36:39.7     201    128     94    239    256  57.6  22.8  34034  287.43 0855.40
2009/04/23 08:36:39.8     173    149     53    229    236  49.1  13.1  34036  287.46 0855.40
2009/04/23 08:36:39.9     109    120     74    163    179  42.3  26.2  34036  287.47 0855.40
2009/04/23 08:36:40.0      73    114     83    136    159  32.5  34.2  34032  287.42 0855.38
2009/04/23 08:36:40.1      82    154     72    175    189  28.1  23.4  34034  287.43 0855.38
2009/04/23 08:36:40.2      43    116     69    124    141  20.5  31.4  34030  287.38 0855.38
2009/04/23 08:36:40.3     -25    161     66    163    175 351.1  23.0  34032  287.40 0855.38
2009/04/23 08:36:40.4     -58    174     83    184    201 341.3  25.7  34028  287.35 0855.38
2009/04/23 08:36:40.5      13    196     54    197    205   3.8  15.3  34032  287.40 0855.38
2009/04/23 08:36:40.6      84    105    111    135    174  38.7  43.7  34032  287.42 0855.38
2009/04/23 08:36:40.7      96    188    152    212    260  27.0  39.3  34034  287.43 0855.38
2009/04/23 08:36:40.8     177    216    153    280    319  39.4  30.9  34034  287.44 0855.38
2009/04/23 08:36:40.9     224    186    181    292    343  50.4  34.9  34034  287.43 0855.38
2009/04/23 08:36:41.0     183    123     82    221    235  55.9  21.0  34030  287.38 0855.38
2009/04/23 08:36:41.1      88     96    118    131    176  42.3  46.9  34032  287.42 0855.38
2009/04/23 08:36:41.2     127     58    112    140    179  65.2  43.0  34032  287.40 0855.38
2009/04/23 08:36:41.3     106    111    122    154    196  43.7  42.4  34034  287.45 0855.38
2009/04/23 08:36:41.4     107    149    122    184    220  35.6  36.7  34032  287.42 0855.38
2009/04/23 08:36:41.5     103    127     37    164    169  39.2  12.9  34034  287.43 0855.38
2009/04/23 08:36:41.6      44    178     30    184    187  14.0   9.3  34034  287.43 0855.38
2009/04/23 08:36:41.7      85    216    -42    233    237  21.6 -10.3  34034  287.44 0855.38
2009/04/23 08:36:41.8      46    195    -42    201    206  13.4 -11.9  34034  287.43 0855.38
2009/04/23 08:36:41.9      56    174    -67    183    194  18.0 -24.8  34032  287.42 0855.38
2009/04/23 08:36:42.0      54    183    -87    191    209  16.5 -30.8  34034  287.45 0855.36
2009/04/23 08:36:42.1      86    180    -73    200    212  25.5 -25.1  34032  287.40 0855.36
2009/04/23 08:36:42.2     119    166   -104    205    229  35.6 -33.5  34032  287.40 0855.36
2009/04/23 08:36:42.3     129     97    -36    162    167  53.1 -12.6  34032  287.42 0855.36
2009/04/23 08:36:42.4     289     97   -100    305    321  71.4 -18.2  34032  287.41 0855.36
2009/04/23 08:36:42.5     289    143    -97    323    338  63.7 -16.7  34034  287.44 0855.36
2009/04/23 08:36:42.6     322    159    -19    360    361  63.7  -3.1  34022  287.25 0855.36
2009/04/23 08:36:42.7     417    144    -58    442    446  70.9  -7.6  34030  287.38 0855.36
2009/04/23 08:36:42.8     506     82      6    513    514  80.8   0.7  34032  287.39 0855.36
2009/04/23 08:36:42.9     492     61     24    496    497  82.9   2.8  34036  287.46 0855.36
2009/04/23 08:36:43.0     527     61    -68    531    536  83.3  -7.3  34030  287.37 0855.37
2009/04/23 08:36:43.1     477      4    102    478    489  89.4  12.1  34034  287.44 0855.37
2009/04/23 08:36:43.2     478    -88    -44    487    490 100.5  -5.2  34024  287.27 0855.37
2009/04/23 08:36:43.3     454    -54      8    458    459  96.8   1.1  34028  287.33 0855.37
2009/04/23 08:36:43.4     481    -63     24    486    487  97.5   2.9  34026  287.31 0855.37
2009/04/23 08:36:43.5     334   -124    151    357    387 110.5  24.3  34032  287.39 0855.37
2009/04/23 08:36:43.6     378   -131    156    401    430 109.1  22.4  34034  287.43 0855.37
2009/04/23 08:36:43.7     380    -85    182    390    430 102.6  26.9  34032  287.41 0855.37
2009/04/23 08:36:43.8     368    -74    183    376    418 101.4  27.9  34030  287.36 0855.37
2009/04/23 08:36:43.9     357    -72    241    365    437 101.5  36.5  34034  287.43 0855.37
2009/04/23 08:36:44.0     332    -59    217    338    401 100.1  35.6  34034  287.44 0855.37
2009/04/23 08:36:44.1     270    -59    138    277    309 102.4  28.2  34032  287.41 0855.37
2009/04/23 08:36:44.2     301    -51    299    306    427  99.7  49.3  34024  287.27 0855.37
2009/04/23 08:36:44.3     284   -135    244    315    398 115.4  41.7  34028  287.34 0855.37
2009/04/23 08:36:44.4     290   -104    311    309    438 109.7  50.1  34028  287.34 0855.37
2009/04/23 08:36:44.5     271    -10    213    272    345  92.1  42.2  34030  287.38 0855.37
2009/04/23 08:36:44.6     336   -155     48    371    375 114.8   7.5  34026  287.29 0855.37
2009/04/23 08:36:44.7     290   -170    108    337    354 120.4  17.8  34028  287.34 0855.37
2009/04/23 08:36:44.8     351   -131     59    375    380 110.5   9.0  34030  287.37 0855.37
2009/04/23 08:36:44.9     353    -25     87    354    365  94.1  13.8  34028  287.34 0855.37
2009/04/23 08:36:45.0     196    -41    -68    201    212 101.9 -23.3  34028  287.33 0855.38
2009/04/23 08:36:45.1     153     -6    -64    154    166  92.5 -28.5  34030  287.37 0855.38
2009/04/23 08:36:45.2      75     34    -53     83     98  65.2 -40.0  34030  287.38 0855.38
2009/04/23 08:36:45.3      54     52     -9     76     77  45.9  -7.3  34032  287.42 0855.38
2009/04/23 08:36:45.4      30     71    -28     78     82  22.7 -24.8  34030  287.38 0855.38
2009/04/23 08:36:45.5     -52     13    -32     54     62 284.2 -37.9  34032  287.40 0855.38
2009/04/23 08:36:45.6    -121      9     31    122    126 274.3  14.3  34028  287.33 0855.38
2009/04/23 08:36:45.7     -85     11     38     86     94 277.5  25.1  34030  287.37 0855.38
2009/04/23 08:36:45.8      -5     35     96     36    102 352.0  78.6  34032  287.42 0855.38
2009/04/23 08:36:45.9     101    -14     50    103    114  98.0  27.3  34030  287.38 0855.38
2009/04/23 08:36:46.0      28    -18     37     34     50 122.4  53.3  34032  287.42 0855.38
2009/04/23 08:36:46.1       7    -42     62     43     75 169.3  62.6  34032  287.42 0855.38
2009/04/23 08:36:46.2     170   -102    123    199    233 120.9  35.2  34030  287.38 0855.38
2009/04/23 08:36:46.3     177     99    105    203    228  60.7  29.3  34026  287.30 0855.38
2009/04/23 08:36:46.4     182    143     28    232    234  51.8   7.1  34030  287.38 0855.38
2009/04/23 08:36:46.5     119    137     35    182    186  41.0  11.1  34026  287.32 0855.38
2009/04/23 08:36:46.6      76    192      2    207    208  21.8   0.7  34028  287.35 0855.38
2009/04/23 08:36:46.7      66    172     50    185    192  21.2  15.3  34028  287.35 0855.38
2009/04/23 08:36:46.8      98    216    -11    238    239  24.5  -2.8  34026  287.31 0855.38
2009/04/23 08:36:46.9      51    164     33    172    176  17.4  11.0  34028  287.35 0855.38
2009/04/23 08:36:47.0     -36    120     56    126    137 343.1  25.2  34028  287.33 0855.36
2009/04/23 08:36:47.1     -11    133     98    134    166 355.1  40.1  34028  287.33 0855.36
2009/04/23 08:36:47.2     -45     74    143     87    167 328.8  65.7  34028  287.35 0855.36
2009/04/23 08:36:47.3     -26     25    109     37    115 313.3  81.2  34030  287.37 0855.36
2009/04/23 08:36:47.4      62     74     91     97    133  40.1  48.5  34030  287.37 0855.36
2009/04/23 08:36:47.5      65    105    115    124    169  31.6  47.9  34030  287.37 0855.36
2009/04/23 08:36:47.6      93    146    140    174    223  32.5  43.3  34028  287.33 0855.36
2009/04/23 08:36:47.7     209    173     23    272    274  50.5   4.9  34028  287.34 0855.36
2009/04/23 08:36:47.8     193    131     46    234    239  55.8  11.1  34030  287.36 0855.36
2009/04/23 08:36:47.9     201     48     62    207    217  76.5  16.6  34028  287.33 0855.36
2009/04/23 08:36:48.0     133     53     54    144    153  68.3  21.0  34028  287.33 0855.36
2009/04/23 08:36:48.1     111     21     62    114    129  79.0  31.3  34026  287.32 0855.36
2009/04/23 08:36:48.2      64     41    145     77    164  57.5  69.8  34028  287.33 0855.36
2009/04/23 08:36:48.3      59     55    107     81    134  46.9  59.0  34026  287.32 0855.36
2009/04/23 08:36:48.4     -24    140    147    143    205 350.2  50.4  34024  287.27 0855.36
2009/04/23 08:36:48.5     -49    184    139    191    236 344.9  39.7  34024  287.28 0855.36
2009/04/23 08:36:48.6     -38    226    119    230    258 350.4  29.3  34026  287.29 0855.36
2009/04/23 08:36:48.7     -14    187    167    188    251 355.5  46.2  34026  287.29 0855.36
2009/04/23 08:36:48.8      69    174    196    188    271  21.8  51.2  34024  287.26 0855.36
2009/04/23 08:36:48.9     199    205    139    286    317  44.1  27.9  34024  287.28 0855.36
2009/04/23 08:36:49.0     170    221    115    279    301  37.6  23.4  34024  287.28 0855.35
2009/04/23 08:36:49.1     220    265    145    345    374  39.6  24.2  34016  287.12 0855.35
2009/04/23 08:36:49.2     141    307    128    339    362  24.7  21.6  34018  287.18 0855.35
2009/04/23 08:36:49.3     153    309    185    345    391  26.4  30.5  34016  287.13 0855.35
2009/04/23 08:36:49.4     154    345    224    378    439  24.1  33.5  34022  287.24 0855.35
2009/04/23 08:36:49.5     172    303    228    349    416  29.6  36.3  34016  287.15 0855.35
2009/04/23 08:36:49.6     217    362    239    423    485  30.9  32.0  34022  287.22 0855.35
2009/04/23 08:36:49.7     229    338    213    409    461  34.2  29.5  34024  287.26 0855.35
2009/04/23 08:36:49.8     343    326    164    474    502  46.4  19.2  34030  287.37 0855.35
2009/04/23 08:36:49.9     249    317    196    404    449  38.2  27.7  34022  287.24 0855.35
2009/04/23 08:36:50.0     157    284    230    325    398  28.9  38.7  34022  287.25 0855.35
2009/04/23 08:36:50.1     158    191    208    249    324  39.6  44.1  34026  287.29 0855.35
2009/04/23 08:36:50.2     371    220    100    432    444  59.3  13.1  34028  287.35 0855.35
2009/04/23 08:36:50.3     323    153     74    358    366  64.6  11.8  34024  287.27 0855.35
2009/04/23 08:36:50.4     306    222    198    379    427  54.0  29.8  34028  287.33 0855.35
2009/04/23 08:36:50.5     371    269    202    459    501  54.0  25.2  34016  287.14 0855.35
2009/04/23 08:36:50.6     339    271     68    435    441  51.4   8.9  34016  287.14 0855.35
2009/04/23 08:36:50.7     414    300     72    512    518  54.1   8.0  34022  287.22 0855.35
2009/04/23 08:36:50.8     405    291     33    499    501  54.3   3.8  34026  287.31 0855.35
2009/04/23 08:36:50.9     317    206    137    379    403  57.0  20.8  34026  287.30 0855.35
2009/04/23 08:36:51.0     118    531    -39    545    547  12.6  -4.1  34028  287.33 0855.34
2009/04/23 08:36:51.1      92    353    213    365    422  14.7  33.0  34028  287.33 0855.34
2009/04/23 08:36:51.2     181    529    194    560    593  18.9  19.2  34028  287.33 0855.34
2009/04/23 08:36:51.3     140    562    140    580    597  14.0  13.6  34026  287.31 0855.34
2009/04/23 08:36:51.4     175    471     43    503    505  20.4   5.0  34030  287.36 0855.34
2009/04/23 08:36:51.5     224    379      7    441    442  30.6   1.0  34024  287.26 0855.34
2009/04/23 08:36:51.6     218    434     77    486    493  26.7   9.0  34030  287.37 0855.34
2009/04/23 08:36:51.7     322    385    121    503    518  39.9  13.5  34032  287.41 0855.34
2009/04/23 08:36:51.8     244    348     21    426    427  35.1   2.9  34030  287.36 0855.34
2009/04/23 08:36:51.9     308    281    -44    418    421  47.6  -6.1  34030  287.38 0855.34
2009/04/23 08:36:52.0     433    319    -11    538    539  53.6  -1.3  34034  287.43 0855.34
2009/04/23 08:36:52.1     347    325    -84    476    484  46.9 -10.1  34026  287.31 0855.34
2009/04/23 08:36:52.2     207    207   -130    293    320  45.0 -29.7  34026  287.31 0855.34
2009/04/23 08:36:52.3     241    227   -117    332    353  46.8 -19.5  34028  287.35 0855.34
2009/04/23 08:36:52.4     327    173     -7    371    372  62.1  -1.2  34032  287.39 0855.34
2009/04/23 08:36:52.5     373    146     71    401    408  68.6  10.1  34034  287.45 0855.34
2009/04/23 08:36:52.6     413    156      3    442    443  69.3   0.5  34024  287.26 0855.34
2009/04/23 08:36:52.7     409    145    -17    435    436  70.4  -2.2  34034  287.43 0855.34
2009/04/23 08:36:52.8     363    147    -28    392    393  67.9  -4.1  34028  287.34 0855.34
2009/04/23 08:36:52.9     308    125   -100    333    347  67.9 -21.6  34028  287.35 0855.34
2009/04/23 08:36:53.0     303    149    -87    338    350  63.8 -14.5  34026  287.29 0855.36
2009/04/23 08:36:53.1     256    296   -132    392    413  40.8 -23.6  34030  287.38 0855.36
2009/04/23 08:36:53.2     287    395     -7    489    490  36.0  -0.9  34026  287.32 0855.36
2009/04/23 08:36:53.3     326    316     56    455    459  45.9   7.1  34028  287.33 0855.36
2009/04/23 08:36:53.4     259    275    154    378    408  43.3  23.4  34028  287.34 0855.36
2009/04/23 08:36:53.5     230    276    139    360    385  39.8  22.3  34032  287.39 0855.36
2009/04/23 08:36:53.7     222    221    160    314    352  45.2  29.2  34030  287.37 0855.36
2009/04/23 08:36:53.7     195    144    140    243    280  53.6  32.7  34030  287.36 0855.36
2009/04/23 08:36:53.8     113    199    149    229    273  29.6  36.3  34030  287.36 0855.36
2009/04/23 08:36:53.9      99    154    132    184    226  32.6  39.5  34026  287.30 0855.36
2009/04/23 08:36:54.0     213    112    -66    241    251  62.1 -15.4  34026  287.29 0855.36
2009/04/23 08:36:54.1     274    -10     -6    275    276  92.1  -1.3  34026  287.29 0855.36
2009/04/23 08:36:54.2       7     42    -44     43     61  10.7 -54.5  34028  287.33 0855.36
2009/04/23 08:36:54.3      19    140   -102    142    174   8.0 -43.5  34024  287.28 0855.36
2009/04/23 08:36:54.4      34    348     -5    350    351   5.7  -0.9  34030  287.37 0855.36
2009/04/23 08:36:54.5       0    346    -43    347    350 359.9  -7.2  34030  287.37 0855.36
2009/04/23 08:36:54.6     -61    364   -120    370    390 350.4 -18.0  34026  287.32 0855.36
2009/04/23 08:36:54.7    -126    299   -100    325    341 337.1 -17.2  34028  287.35 0855.36
2009/04/23 08:36:54.9    -200    241   -109    314    332 320.4 -24.0  34030  287.38 0855.36
2009/04/23 08:36:54.9    -141    247    -83    285    296 330.2 -21.0  34028  287.33 0855.36
2009/04/23 08:36:55.0    -196    197    -27    279    281 315.2  -5.6  34028  287.33 0855.37
2009/04/23 08:36:55.1     -92    242    -96    260    277 339.1 -25.4  34028  287.34 0855.37
2009/04/23 08:36:55.2    -197    210   -159    289    329 316.8 -35.8  34026  287.29 0855.37
2009/04/23 08:36:55.3    -346    173   -151    388    416 296.6 -26.8  34024  287.26 0855.37
2009/04/23 08:36:55.4    -297    154   -155    335    369 297.4 -31.0  34028  287.35 0855.37
2009/04/23 08:36:55.5    -339    -29   -182    341    386 265.0 -34.9  34026  287.30 0855.37
2009/04/23 08:36:55.6    -282    -57   -185    288    342 258.5 -40.0  34028  287.34 0855.37
2009/04/23 08:36:55.7    -206   -107   -159    233    282 242.5 -42.0  34028  287.34 0855.37
2009/04/23 08:36:55.8    -183    -93   -143    206    250 243.1 -42.4  34030  287.36 0855.37
2009/04/23 08:36:55.9    -159     12    -74    160    176 274.4 -31.0  34030  287.37 0855.37
2009/04/23 08:36:56.1    -174     52   -148    182    234 286.8 -47.9  34028  287.33 0855.37
2009/04/23 08:36:56.2    -186     26   -161    188    247 278.1 -49.3  34030  287.37 0855.37
2009/04/23 08:36:56.3    -201      2   -151    202    252 270.6 -45.0  34030  287.36 0855.37
2009/04/23 08:36:56.4    -167     50   -179    175    250 286.8 -54.8  34026  287.32 0855.37
2009/04/23 08:36:56.5     -97     29   -108    102    148 286.8 -56.5  34026  287.30 0855.37
2009/04/23 08:36:56.6     -48    111   -132    122    179 336.4 -56.6  34028  287.33 0855.37
2009/04/23 08:36:56.7    -112     66   -114    131    173 300.7 -50.0  34030  287.37 0855.37
2009/04/23 08:36:56.8     -81     22    -93     85    125 285.5 -56.6  34030  287.37 0855.37
2009/04/23 08:36:56.9    -106    -58   -217    121    248 241.2 -72.9  34028  287.35 0855.37
2009/04/23 08:36:57.0     -84    -36   -173     92    195 246.5 -74.4  34026  287.32 0855.37
2009/04/23 08:36:57.1     -74     45   -195     87    213 301.5 -78.9  34028  287.35 0855.39
2009/04/23 08:36:57.2       2    -30   -100     31    104 175.6 -86.2  34028  287.33 0855.39
2009/04/23 08:36:57.3     -80    -25    -95     85    127 252.3 -58.1  34026  287.32 0855.39
2009/04/23 08:36:57.4    -122     32   -118    127    173 285.1 -52.3  34028  287.33 0855.39
2009/04/23 08:36:57.5    -162     53   -176    171    245 288.2 -55.3  34028  287.33 0855.39
2009/04/23 08:36:57.6    -159    226   -224    277    356 324.8 -47.5  34032  287.42 0855.39
2009/04/23 08:36:57.7    -179    -11   -226    180    288 266.3 -61.9  34028  287.34 0855.39
2009/04/23 08:36:57.8    -133     73   -231    152    276 298.9 -68.0  34038  287.50 0855.39
2009/04/23 08:36:57.9    -116     87   -197    146    245 306.9 -64.2  34038  287.50 0855.39
2009/04/23 08:36:58.0    -131    -94   -131    162    208 234.5 -47.7  34034  287.43 0855.39
2009/04/23 08:36:58.1      46     63    -75     79    108  36.1 -52.9  34032  287.40 0855.39
2009/04/23 08:36:58.2     176     35    -43    180    186  78.8 -13.7  34024  287.28 0855.39
2009/04/23 08:36:58.3      82     52      2     98     99  57.5   1.2  34034  287.43 0855.39
2009/04/23 08:36:58.4      57     97    -54    113    125  30.3 -31.6  34034  287.43 0855.39
2009/04/23 08:36:58.5      78     78    -78    111    135  44.7 -42.4  34034  287.43 0855.39
2009/04/23 08:36:58.6      81     40    -43     91    100  63.4 -31.6  34036  287.49 0855.39
2009/04/23 08:36:58.7     104     62    -65    122    138  59.3 -35.2  34034  287.45 0855.39
2009/04/23 08:36:58.8     113     37    -61    119    133  71.8 -33.7  34034  287.43 0855.39
2009/04/23 08:36:58.9     132    -18    -67    134    149  97.9 -32.6  34036  287.47 0855.39
2009/04/23 08:36:59.0     146    -80    -63    167    178 118.9 -26.1  34036  287.47 0855.39
2009/04/23 08:36:59.1      97    -15    -48     99    110  98.8 -31.7  34032  287.42 0855.39
2009/04/23 08:36:59.2     129     60    -15    143    144  64.8  -6.2  34036  287.47 0855.39
2009/04/23 08:36:59.3     206     13    -26    207    209  86.3  -7.3  34036  287.49 0855.39
2009/04/23 08:36:59.4     234    -34     31    237    239  98.4   7.5  34038  287.51 0855.39
2009/04/23 08:36:59.5     228    -39     -6    232    233  99.7  -1.6  34038  287.50 0855.39
2009/04/23 08:36:59.6     249      5    -27    250    252  88.7  -6.2  34036  287.46 0855.39
2009/04/23 08:36:59.7     117   -110    -87    161    183 133.2 -35.4  34032  287.42 0855.39
2009/04/23 08:36:59.8     110    -24   -115    113    161 102.8 -54.8  34036  287.47 0855.39
2009/04/23 08:36:59.9     146    -40   -105    152    184 105.5 -42.2  34032  287.42 0855.39
2009/04/23 08:37:00.0     159    -82    -89    179    199 117.3 -32.9  34032  287.42 0855.39
2009/04/23 08:37:00.1     108    -83    -74    137    155 127.8 -35.7  34032  287.42 0855.39
2009/04/23 08:37:00.2     134    -29    -17    138    140 102.4  -7.3  34034  287.43 0855.39
2009/04/23 08:37:00.3     162     17     -4    163    164  83.9  -1.6  34034  287.43 0855.39
2009/04/23 08:37:00.4     171     38     -3    176    177  77.2  -1.3  34036  287.47 0855.39
2009/04/23 08:37:00.5     156     23     27    158    161  81.6   9.9  34038  287.50 0855.39
2009/04/23 08:37:00.6     132     53     -5    143    144  68.2  -2.2  34038  287.52 0855.39
2009/04/23 08:37:00.7     115     31     28    120    124  74.9  13.2  34038  287.50 0855.39
2009/04/23 08:37:00.8     153    -16      7    154    155  96.2   2.9  34038  287.50 0855.39
2009/04/23 08:37:00.9     153     -6     36    154    159  92.5  13.2  34034  287.45 0855.39
2009/04/23 08:37:01.0     177     32     17    180    181  79.6   5.4  34034  287.45 0855.39
2009/04/23 08:37:01.1     195     96     57    218    226  63.8  14.7  34038  287.50 0855.39
2009/04/23 08:37:01.2     145     60    -12    158    159  67.4  -4.4  34036  287.49 0855.39
2009/04/23 08:37:01.3     160     40    -48    166    172  75.8 -21.2  34038  287.50 0855.39
2009/04/23 08:37:01.4     164     79    -20    183    185  64.2  -6.5  34036  287.49 0855.39
2009/04/23 08:37:01.5     158    133    -58    207    214  50.0 -20.2  34034  287.45 0855.39
2009/04/23 08:37:01.6     171    159    -36    234    237  47.1  -8.8  34038  287.51 0855.39
2009/04/23 08:37:01.7     129    119     10    176    177  47.3   3.3  34038  287.50 0855.39
2009/04/23 08:37:01.8     106    153    -10    187    188  34.7  -3.1  34036  287.47 0855.39
2009/04/23 08:37:01.9     100    121    -28    158    161  39.6 -10.3  34036  287.49 0855.39
2009/04/23 08:37:02.0     161     93    -53    186    193  60.0 -20.7  34034  287.43 0855.39
2009/04/23 08:37:02.1      98    124    -49    159    166  38.3 -22.3  34036  287.47 0855.39
2009/04/23 08:37:02.2      89    134    -57    161    172  33.6 -19.7  34036  287.49 0855.39
2009/04/23 08:37:02.3      57    121    -54    134    144  25.3 -27.4  34038  287.50 0855.39
2009/04/23 08:37:02.4      24     95    -20     99    102  14.3 -11.5  34032  287.42 0855.39
2009/04/23 08:37:02.5     -26    131     36    134    139 348.4  15.3  34036  287.47 0855.39
2009/04/23 08:37:02.6       2    157     32    158    162   1.0  11.6  34036  287.49 0855.39
2009/04/23 08:37:02.7     -11    155     34    156    160 355.6  12.6  34036  287.47 0855.39
2009/04/23 08:37:02.8     -20    171     44    173    179 353.1  14.3  34036  287.47 0855.39
2009/04/23 08:37:02.9     -29    187     59    190    200 351.1  17.3  34036  287.47 0855.39
2009/04/23 08:37:03.0    -109    177     98    208    229 328.4  27.1  34038  287.52 0855.39
2009/04/23 08:37:03.1    -124    168     83    210    225 323.5  23.0  34038  287.52 0855.38
2009/04/23 08:37:03.2    -161    177     95    240    258 317.7  23.0  34032  287.39 0855.38
2009/04/23 08:37:03.3    -228    188     99    296    313 309.5  18.6  34024  287.28 0855.38
2009/04/23 08:37:03.4    -116    185    156    219    268 327.9  39.1  34034  287.43 0855.38
2009/04/23 08:37:03.5    -179    247    131    306    332 324.0  24.5  34024  287.28 0855.38
2009/04/23 08:37:03.6    -113    229     52    256    262 333.7  11.6  34026  287.31 0855.38
2009/04/23 08:37:03.7     -72    177     20    192    194 337.7   6.1  34026  287.32 0855.38
2009/04/23 08:37:03.8    -142    195    -71    242    253 323.9 -16.5  34030  287.38 0855.38
2009/04/23 08:37:03.9    -309    195    -53    366    370 302.3  -8.4  34038  287.51 0855.38
2009/04/23 08:37:04.0    -334    135    -64    361    367 292.0 -10.1  34042  287.57 0855.38
2009/04/23 08:37:04.1    -423    126    -81    442    450 286.7 -10.4  34044  287.60 0855.39
2009/04/23 08:37:04.2    -379     28   -128    380    402 274.3 -18.6  34044  287.61 0855.39
2009/04/23 08:37:04.3    -346    211    -36    406    408 301.4  -5.1  34028  287.33 0855.39
2009/04/23 08:37:04.4    -216    184      4    284    285 310.4   0.8  34028  287.33 0855.39
2009/04/23 08:37:04.5    -160    193     30    252    254 320.3   6.9  34028  287.34 0855.39
2009/04/23 08:37:04.6     -15    220     51    221    227 356.0  13.2  34024  287.28 0855.39
2009/04/23 08:37:04.7      21    198     65    200    211   6.2  18.1  34030  287.37 0855.39
2009/04/23 08:37:04.8     -15    136     77    137    157 353.3  31.6  34030  287.37 0855.39
2009/04/23 08:37:04.9    -150    226    125    272    299 326.4  26.4  34034  287.43 0855.39
2009/04/23 08:37:05.0     -82    172     98    191    214 334.5  29.3  34034  287.45 0855.39
2009/04/23 08:37:05.1     -10    177     38    178    183 356.6  12.2  34034  287.43 0855.39
2009/04/23 08:37:05.2      24     71     49     75     89  18.7  36.0  34032  287.42 0855.39
2009/04/23 08:37:05.3      53     89     58    104    119  30.7  31.4  34034  287.43 0855.39
2009/04/23 08:37:05.4     -14    111     70    112    132 352.4  35.5  34032  287.42 0855.39
2009/04/23 08:37:05.5    -107    102     82    148    169 313.6  31.6  34028  287.35 0855.39
2009/04/23 08:37:05.6     -57    103    114    118    164 331.1  49.4  34034  287.45 0855.39
2009/04/23 08:37:05.7      17     53    132     56    143  18.7  76.1  34034  287.43 0855.39
2009/04/23 08:37:05.8      55     40     51     69     85  54.0  40.1  34032  287.42 0855.39
2009/04/23 08:37:05.9     -24      4    -14     25     28 279.7 -35.8  34036  287.49 0855.39
2009/04/23 08:37:06.0       0     50     18     51     55   0.9  19.2  34034  287.45 0855.39
2009/04/23 08:37:06.1      16     57     64     60     87  16.0  51.2  34034  287.43 0855.39
2009/04/23 08:37:06.2       0     92      4     93     94   0.0   2.8  34034  287.45 0855.39
2009/04/23 08:37:06.3     -70     75     46    103    112 316.8  25.7  34032  287.42 0855.39
2009/04/23 08:37:06.4    -112     61    -16    128    130 298.8  -7.3  34034  287.43 0855.39
2009/04/23 08:37:06.5    -107     35    -33    113    118 288.6 -16.6  34038  287.52 0855.39
2009/04/23 08:37:06.6    -110     16    -13    112    113 278.4  -6.7  34036  287.49 0855.39
2009/04/23 08:37:06.7    -112     -5     22    113    116 267.4  11.0  34040  287.55 0855.39
2009/04/23 08:37:06.8    -115     13     50    116    126 276.6  25.1  34040  287.54 0855.39
2009/04/23 08:37:06.9    -138      4     32    139    143 271.7  13.2  34040  287.55 0855.39
2009/04/23 08:37:07.0    -153     21      1    155    156 278.0   0.5  34040  287.55 0855.39
2009/04/23 08:37:07.1    -139     58    -41    151    157 292.6 -15.5  34040  287.54 0855.39
2009/04/23 08:37:07.2    -146     48    -64    154    166 288.2 -28.5  34042  287.57 0855.39
2009/04/23 08:37:07.3    -156     31    -51    160    167 281.5 -22.8  34040  287.54 0855.39
2009/04/23 08:37:07.4    -153     48    -52    161    169 287.7 -23.0  34038  287.52 0855.39
2009/04/23 08:37:07.5    -143     31    -57    147    157 282.4 -26.7  34038  287.52 0855.39
2009/04/23 08:37:07.6    -134     46    -61    142    154 289.1 -29.5  34040  287.54 0855.39
2009/04/23 08:37:07.7    -160     50    -66    168    180 287.5 -27.2  34042  287.57 0855.39
2009/04/23 08:37:07.8    -182     40    -56    187    196 282.4 -16.8  34044  287.62 0855.39
2009/04/23 08:37:07.9    -192     -3    -58    193    201 269.0 -21.7  34044  287.60 0855.39
2009/04/23 08:37:08.0    -200     10    -21    201    203 273.0  -6.0  34042  287.59 0855.39
2009/04/23 08:37:08.1    -224    -53    -68    231    241 256.7 -16.5  34044  287.61 0855.37
2009/04/23 08:37:08.2    -180    -57    -33    189    193 252.3 -10.1  34042  287.59 0855.37
2009/04/23 08:37:08.3    -162    -24    -16    164    165 261.4  -5.6  34042  287.57 0855.37
2009/04/23 08:37:08.4    -161    -38     11    166    167 256.7   3.8  34042  287.59 0855.37
2009/04/23 08:37:08.5    -179    -62    -24    190    192 250.9  -7.3  34044  287.60 0855.37
2009/04/23 08:37:08.6    -107   -100    -18    147    149 226.9  -7.2  34042  287.57 0855.37
2009/04/23 08:37:08.7     -70   -106     14    128    129 213.4   6.5  34044  287.62 0855.37
2009/04/23 08:37:08.8     -54   -101     49    115    125 208.5  24.6  34044  287.62 0855.37
2009/04/23 08:37:08.9     -51   -152    -26    161    164 198.7  -9.3  34042  287.59 0855.37
2009/04/23 08:37:09.0     -52    -94    -68    108    127 208.9 -39.9  34044  287.60 0855.37
2009/04/23 08:37:09.1     -41    -69    -53     81     96 210.7 -40.0  34044  287.60 0855.37
2009/04/23 08:37:09.2     -51    -71    -34     88     94 215.6 -25.9  34044  287.62 0855.37
2009/04/23 08:37:09.3     -37    -88    -30     96    100 202.7 -22.8  34042  287.59 0855.37
2009/04/23 08:37:09.4      -3    -90    -31     91     97 182.2 -18.7  34044  287.60 0855.37
2009/04/23 08:37:09.5     -44   -139    -48    146    153 197.8 -23.8  34046  287.64 0855.37
2009/04/23 08:37:09.6     -67   -113    -68    132    148 210.8 -33.7  34046  287.65 0855.37
2009/04/23 08:37:09.7     -44   -110    -63    119    134 201.8 -34.7  34050  287.72 0855.37
2009/04/23 08:37:09.8     -63    -55    -63     84    105 228.7 -44.5  34048  287.67 0855.37
2009/04/23 08:37:09.9     -82    -30    -44     88     98 249.6 -32.6  34046  287.64 0855.37
2009/04/23 08:37:10.0    -118    -74    -89    140    165 238.0 -39.9  34048  287.67 0855.37
2009/04/23 08:37:10.1    -113    -57    -81    127    150 242.9 -40.0  34050  287.70 0855.38
2009/04/23 08:37:10.2     -68    -57    -54     90    104 230.0 -38.8  34044  287.62 0855.38
2009/04/23 08:37:10.3     -59    -19    -57     63     84 251.8 -51.9  34046  287.64 0855.38
2009/04/23 08:37:10.4     -65    -44    -73     79    107 235.8 -52.3  34040  287.55 0855.38
2009/04/23 08:37:10.5     -78     -5    -93     79    122 265.7 -59.2  34040  287.55 0855.38
2009/04/23 08:37:10.6    -113    -47    -79    123    146 247.4 -40.0  34042  287.57 0855.38
2009/04/23 08:37:10.7    -105     -8    -95    106    142 265.6 -51.3  34048  287.69 0855.38
2009/04/23 08:37:10.8     -72     -7    -97     73    121 263.9 -63.4  34048  287.69 0855.38
2009/04/23 08:37:10.9     -59    -13    -85     61    104 257.6 -65.0  34048  287.67 0855.38
2009/04/23 08:37:11.0       8     26    -47     28     54  18.7 -70.1  34048  287.69 0855.38
2009/04/23 08:37:11.1      58    -57    -77     82    112 134.9 -52.4  34046  287.65 0855.38
2009/04/23 08:37:11.2      41    -15    -94     44    103 110.0 -77.5  34048  287.69 0855.38
2009/04/23 08:37:11.3      93     -7    -99     94    136  94.4 -55.6  34048  287.67 0855.38
2009/04/23 08:37:11.4     119     -9   -115    120    166  94.4 -53.4  34046  287.64 0855.38
2009/04/23 08:37:11.5     180    -36    -24    184    186 101.4  -7.7  34046  287.65 0855.38
2009/04/23 08:37:11.6     201    -35      8    205    206 100.1   2.5  34046  287.64 0855.38
2009/04/23 08:37:11.7     213     13     22    214    216  86.3   5.9  34046  287.64 0855.38
2009/04/23 08:37:11.8     205      0     37    206    210  90.1  10.3  34048  287.67 0855.38
2009/04/23 08:37:11.9     191     38     36    195    199  78.5  10.6  34048  287.69 0855.38
2009/04/23 08:37:12.0     201     41     48    206    212  78.5  13.2  34048  287.69 0855.38
2009/04/23 08:37:12.1     185     43     29    191    194  76.7   8.8  34046  287.65 0855.38
2009/04/23 08:37:12.2     178     60     21    189    191  71.2   6.5  34048  287.69 0855.38
2009/04/23 08:37:12.3     151     43     11    158    159  74.1   4.2  34048  287.67 0855.38
2009/04/23 08:37:12.4     180     17     -8    181    182  84.5  -2.8  34046  287.65 0855.38
2009/04/23 08:37:12.5     168      0    -49    169    175  90.0 -21.0  34048  287.69 0855.38
2009/04/23 08:37:12.6     179     25    -46    181    187  81.9 -14.5  34050  287.70 0855.38
2009/04/23 08:37:12.7     215     38    -64    219    229  79.9 -16.4  34048  287.69 0855.38
2009/04/23 08:37:12.8     195      8     -3    196    197  87.4  -1.2  34050  287.70 0855.38
2009/04/23 08:37:12.9     228    -31    -12    231    232  97.9  -3.1  34054  287.77 0855.38
2009/04/23 08:37:13.0     243    -21    -20    244    245  95.0  -4.9  34048  287.68 0855.38
2009/04/23 08:37:13.1     237    -35     37    240    243  98.6   8.8  34052  287.75 0855.38
2009/04/23 08:37:13.2     224     -3     69    225    236  90.8  17.1  34052  287.74 0855.38
2009/04/23 08:37:13.3     248     -3     88    249    265  90.9  19.6  34048  287.68 0855.38
2009/04/23 08:37:13.4     207      0    144    208    252  90.1  38.0  34046  287.65 0855.38
2009/04/23 08:37:13.5     215     85      7    232    233  68.3   1.8  34046  287.64 0855.38
2009/04/23 08:37:13.6     262     68     34    271    274  75.4   7.2  34046  287.63 0855.38
2009/04/23 08:37:13.7     222    113     35    250    253  62.9   8.0  34042  287.56 0855.38
2009/04/23 08:37:13.8     222    122     46    254    259  61.1  10.3  34046  287.63 0855.38
2009/04/23 08:37:13.9     201    102     15    226    227  62.9   3.8  34048  287.67 0855.38
2009/04/23 08:37:14.0     220    114    -31    248    250  62.5  -7.2  34046  287.63 0855.38
2009/04/23 08:37:14.1     207    110    -68    235    244  62.0 -20.8  34048  287.68 0855.39
2009/04/23 08:37:14.2     212     77    -66    226    236  69.8 -16.4  34042  287.58 0855.39
2009/04/23 08:37:14.3     196     77      9    211    212  68.5   2.5  34048  287.67 0855.39
2009/04/23 08:37:14.4     141    169    -46    221    226  39.9 -11.9  34044  287.62 0855.39
2009/04/23 08:37:14.5     148    102    -58    181    190  55.4 -23.3  34048  287.69 0855.39
2009/04/23 08:37:14.6     124     74    -43    145    151  58.9 -21.7  34046  287.64 0855.39
2009/04/23 08:37:14.7     146     27    -48    149    157  79.4 -18.1  34046  287.65 0855.39
2009/04/23 08:37:14.8     119     33    -46    124    132  74.5 -25.4  34046  287.64 0855.39
2009/04/23 08:37:14.9     120    -64    -70    137    153 118.0 -33.6  34046  287.64 0855.39
2009/04/23 08:37:15.0      92   -102     -9    138    139 137.7  -4.1  34048  287.69 0855.39
2009/04/23 08:37:15.1      69    -81      9    107    108 139.5   4.9  34048  287.67 0855.39
2009/04/23 08:37:15.2      50    -60      3     79     80 140.3   2.3  34046  287.65 0855.39
2009/04/23 08:37:15.3      63    -56      7     85     86 131.3   4.9  34046  287.65 0855.39
2009/04/23 08:37:15.4      53    -66      0     85     86 141.3  -0.3  34044  287.62 0855.39
2009/04/23 08:37:15.5      54    -58     24     80     84 136.8  17.3  34046  287.65 0855.39
2009/04/23 08:37:15.6      23    -82     28     86     91 164.4  17.9  34046  287.65 0855.39
2009/04/23 08:37:15.7      29    -85     32     91     97 160.8  19.4  34046  287.65 0855.39
2009/04/23 08:37:15.8      29    -82     15     88     90 160.4  10.1  34048  287.67 0855.39
2009/04/23 08:37:15.9      76    -48      9     90     91 122.4   5.9  34046  287.65 0855.39
2009/04/23 08:37:16.0      74      7     72     75    103  83.9  49.0  34048  287.67 0855.39
2009/04/23 08:37:16.1     106     81     55    134    144  52.7  23.0  34042  287.59 0855.39
2009/04/23 08:37:16.2     164     48     60    171    182  73.6  19.6  34042  287.57 0855.39
2009/04/23 08:37:16.3     123     78     59    146    157  57.6  23.0  34042  287.59 0855.39
2009/04/23 08:37:16.4      94     11     97     95    135  83.0  50.1  34042  287.57 0855.39
2009/04/23 08:37:16.5     108    -26     64    112    128 103.7  32.4  34046  287.64 0855.39
2009/04/23 08:37:16.6      62     15    -23     64     69  75.8 -19.7  34044  287.60 0855.39
2009/04/23 08:37:16.7     118     71     12    139    140  58.9   5.0  34042  287.59 0855.39
2009/04/23 08:37:16.8     109     40     65    117    133  69.6  31.4  34038  287.50 0855.39
2009/04/23 08:37:16.9     111     17     48    113    122  81.2  24.1  34040  287.55 0855.39
2009/04/23 08:37:17.0      63     40     49     75     89  57.6  36.0  34038  287.52 0855.39
2009/04/23 08:37:17.1      63     54     61     84    103  49.6  39.5  34038  287.52 0855.39
2009/04/23 08:37:17.2      90     69     47    114    123  52.7  23.1  34040  287.54 0855.39
2009/04/23 08:37:17.3      73     35     31     82     87  64.2  21.0  34038  287.52 0855.39
2009/04/23 08:37:17.4      50     16     22     53     57  71.4  23.0  34038  287.52 0855.39
2009/04/23 08:37:17.5      30      8     43     32     53  74.9  59.4  34040  287.55 0855.39
2009/04/23 08:37:17.6      12    -16     46     21     50 143.9  73.1  34042  287.59 0855.39
2009/04/23 08:37:17.7       0    -57     42     58     71 179.1  39.7  34046  287.65 0855.39
2009/04/23 08:37:17.8      -4    -53     35     54     64 184.5  35.6  34044  287.62 0855.39
2009/04/23 08:37:17.9      -5    -70     28     71     76 184.4  22.0  34046  287.64 0855.39
2009/04/23 08:37:18.0       0    -83     48     84     96 180.4  32.9  34044  287.62 0855.39
2009/04/23 08:37:18.1       8    -63     57     64     85 172.0  46.4  34046  287.64 0855.38
2009/04/23 08:37:18.2       3    -46     72     47     85 175.5  64.1  34048  287.67 0855.38
2009/04/23 08:37:18.3     -22    -67     61     71     93 198.7  45.4  34046  287.64 0855.38
2009/04/23 08:37:18.4     -18    -47     76     51     91 200.9  63.2  34044  287.62 0855.38
2009/04/23 08:37:18.5     -20    -14     38     25     45 234.0  64.6  34046  287.64 0855.38
2009/04/23 08:37:18.6       7    -10     32     13     34 143.9  79.2  34046  287.64 0855.38
2009/04/23 08:37:18.7      -2    -35     38     36     52 184.4  50.1  34046  287.65 0855.38
2009/04/23 08:37:18.8      29    -53      7     61     62 151.1   6.9  34044  287.62 0855.38
2009/04/23 08:37:18.9      58    -67     14     89     91 139.0   9.0  34046  287.65 0855.38
2009/04/23 08:37:19.0      64    -56     20     86     89 131.3  13.2  34048  287.69 0855.38
2009/04/23 08:37:19.1       4    -43     39     44     58 173.8  46.9  34044  287.62 0855.38
2009/04/23 08:37:19.2      -7    -77     31     78     83 185.3  22.0  34046  287.64 0855.38
2009/04/23 08:37:19.3       4    -60     32     61     68 175.5  29.3  34048  287.67 0855.38
2009/04/23 08:37:19.4      29    -64     24     71     76 155.5  18.9  34044  287.60 0855.38
2009/04/23 08:37:19.5      31    -31     25     45     51 134.9  31.4  34042  287.59 0855.38
2009/04/23 08:37:19.6       8    -61     50     62     79 172.0  43.3  34042  287.57 0855.38
2009/04/23 08:37:19.7      14   -101     28    103    107 172.0  15.3  34042  287.57 0855.38
2009/04/23 08:37:19.8      50   -127      2    137    138 158.2   1.2  34040  287.55 0855.38
2009/04/23 08:37:19.9      52   -175     36    183    187 163.3  11.1  34040  287.54 0855.38
2009/04/23 08:37:20.0      29   -148     68    151    165 168.9  25.7  34040  287.54 0855.38
2009/04/23 08:37:20.1      20   -115    109    117    159 169.8  47.9  34040  287.54 0855.34
2009/04/23 08:37:20.2      81   -167    101    186    211 154.1  30.8  34042  287.57 0855.34
2009/04/23 08:37:20.3      77   -235     71    248    259 161.7  16.0  34044  287.61 0855.34
2009/04/23 08:37:20.4      58   -273     68    280    289 168.0  13.7  34044  287.60 0855.34
2009/04/23 08:37:20.5      43   -280     66    284    292 171.1  13.1  34044  287.60 0855.34
2009/04/23 08:37:20.6       0   -204    147    205    252 180.0  39.1  34042  287.58 0855.34
2009/04/23 08:37:20.7      72   -218    132    230    265 161.7  32.4  34044  287.61 0855.34
2009/04/23 08:37:20.8      93   -217    123    237    267 156.8  29.5  34044  287.61 0855.34
2009/04/23 08:37:20.9     166   -161    155    232    279 134.2  37.0  34044  287.61 0855.34
2009/04/23 08:37:21.0     111   -144     93    182    204 142.4  29.3  34042  287.57 0855.34
2009/04/23 08:37:21.1      97   -204     68    226    237 154.5  16.8  34042  287.56 0855.34
2009/04/23 08:37:21.2      94   -182     85    205    221 152.6  23.6  34042  287.57 0855.34
2009/04/23 08:37:21.3      69   -178     72    191    204 158.8  21.3  34044  287.60 0855.34
2009/04/23 08:37:21.4       8   -168     81    169    187 177.1  27.3  34044  287.60 0855.34
2009/04/23 08:37:21.5      19    -93     99     95    137 168.4  51.6  34042  287.59 0855.34
2009/04/23 08:37:21.6      79    -23    114     83    141 106.4  60.5  34044  287.60 0855.34
2009/04/23 08:37:21.7      62      3    134     63    148  86.5  73.1  34042  287.59 0855.34
2009/04/23 08:37:21.8      18     15     87     24     90  48.7  84.9  34046  287.65 0855.34
2009/04/23 08:37:21.9       4    -26    107     27    110 170.2  85.9  34044  287.62 0855.34
2009/04/23 08:37:22.0      61     -4     73     62     95  94.3  55.8  34046  287.65 0855.34
2009/04/23 08:37:22.1     120    -46    142    129    191 111.3  53.0  34042  287.59 0855.34
2009/04/23 08:37:22.2      84    -16    152     86    174 101.0  67.7  34044  287.62 0855.34
2009/04/23 08:37:22.3      77     -5    148     78    167  94.4  70.4  34042  287.59 0855.34
2009/04/23 08:37:22.4      79     15    148     81    168  79.0  69.1  34044  287.60 0855.34
2009/04/23 08:37:22.5      46     16    144     49    152  70.0  81.2  34040  287.54 0855.34
2009/04/23 08:37:22.6     154    -40    195    160    252 104.6  56.4  34042  287.57 0855.34
2009/04/23 08:37:22.8     170    -47    158    177    237 105.7  46.4  34044  287.60 0855.34
2009/04/23 08:37:22.8      39      7    145     40    150  79.4  84.8  34048  287.67 0855.34
2009/04/23 08:37:22.9     127      5    173    128    215  87.4  60.0  34044  287.60 0855.34
2009/04/23 08:37:23.0      92    -31    156     98    184 108.6  64.7  34046  287.64 0855.34
2009/04/23 08:37:23.1      78     21    120     81    144  74.5  63.2  34044  287.60 0855.34
2009/04/23 08:37:23.2      40     18    116     45    124  65.6  78.6  34044  287.60 0855.34
2009/04/23 08:37:23.3      59     37    136     70    152  57.6  70.8  34044  287.60 0855.34
2009/04/23 08:37:23.4      68    -23    128     72    146 109.1  68.8  34042  287.59 0855.34
2009/04/23 08:37:23.5     108    -71    126    130    181 123.3  49.2  34046  287.65 0855.34
2009/04/23 08:37:23.6       0    -32    100     33    105 180.9  80.7  34046  287.64 0855.34
2009/04/23 08:37:23.8      26   -104    123    108    163 165.7  54.0  34048  287.69 0855.34
2009/04/23 08:37:23.8      46   -143    105    151    183 162.2  38.4  34046  287.64 0855.34
2009/04/23 08:37:24.0     120   -156     61    197    207 142.4  17.3  34042  287.59 0855.34
2009/04/23 08:37:24.1      91   -134     -6    162    163 145.8  -2.2  34044  287.62 0855.34
2009/04/23 08:37:24.2     135   -134    -18    191    192 134.8  -5.6  34046  287.65 0855.33
2009/04/23 08:37:24.3     114   -149     30    188    191 142.6   9.3  34042  287.59 0855.33
2009/04/23 08:37:24.4     190   -114     63    222    231 121.1  16.0  34046  287.65 0855.33
2009/04/23 08:37:24.5     208   -132     87    247    262 122.4  19.4  34048  287.66 0855.33
2009/04/23 08:37:24.6     217   -153     97    266    283 125.3  20.9  34050  287.71 0855.33
2009/04/23 08:37:24.7     197   -148    115    247    272 127.1  27.1  34050  287.70 0855.33
2009/04/23 08:37:24.8     209    -98    133    231    266 115.2  32.4  34048  287.68 0855.33
2009/04/23 08:37:24.9     168    -83    153    188    242 116.2  43.5  34046  287.65 0855.33
2009/04/23 08:37:25.0     153   -115    122    192    227 126.9  35.5  34048  287.69 0855.33
2009/04/23 08:37:25.1     138   -114    127    180    220 129.5  38.8  34050  287.70 0855.33
2009/04/23 08:37:25.2     124    -90    128    154    200 126.0  44.1  34048  287.69 0855.34
2009/04/23 08:37:25.3     162    -82    129    182    223 117.1  38.8  34050  287.70 0855.34
2009/04/23 08:37:25.4     144   -106    121    180    216 126.4  37.3  34048  287.69 0855.34
2009/04/23 08:37:25.5     197   -126    131    234    268 122.6  31.4  34054  287.77 0855.34
2009/04/23 08:37:25.6     112   -177    148    210    256 147.5  38.6  34050  287.70 0855.34
2009/04/23 08:37:25.7     100   -210    131    233    267 154.5  31.9  34048  287.66 0855.34
2009/04/23 08:37:25.8     146   -201    163    249    297 144.0  36.5  34046  287.65 0855.34
2009/04/23 08:37:25.9     133   -199    183    240    301 146.2  41.2  34046  287.65 0855.34
2009/04/23 08:37:26.0     219   -106    158    244    290 116.0  35.6  34048  287.66 0855.34
2009/04/23 08:37:26.1     167   -175    122    243    271 136.3  28.5  34046  287.65 0855.34
2009/04/23 08:37:26.2     150   -200     44    250    254 143.1  10.1  34048  287.66 0855.34
2009/04/23 08:37:26.3     113   -192     77    223    237 149.5  19.2  34046  287.65 0855.34
2009/04/23 08:37:26.4      82   -226     99    241    260 159.9  23.6  34048  287.66 0855.34
2009/04/23 08:37:26.5     104   -180     80    209    223 149.9  21.7  34046  287.64 0855.34
2009/04/23 08:37:26.6     144   -154     75    212    226 137.0  19.6  34044  287.60 0855.34
2009/04/23 08:37:26.7     181   -187     70    261    271 135.9  15.0  34044  287.61 0855.34
2009/04/23 08:37:26.8     174   -170     40    244    248 134.2   9.5  34046  287.65 0855.34
2009/04/23 08:37:26.9     167   -166     48    236    242 134.9  11.6  34048  287.66 0855.34
2009/04/23 08:37:27.0     185   -179     71    258    268 134.0  15.6  34042  287.56 0855.34
2009/04/23 08:37:27.1     126   -160     93    204    224 141.7  26.2  34048  287.69 0855.34
2009/04/23 08:37:27.2     181   -187     46    261    266 135.9  10.0  34050  287.70 0855.35
2009/04/23 08:37:27.3     162   -177     30    241    243 137.5   7.1  34050  287.70 0855.35
2009/04/23 08:37:27.4     136   -207     77    248    260 146.6  17.3  34048  287.68 0855.35
2009/04/23 08:37:27.5     121   -210     28    243    245 149.9   6.7  34048  287.66 0855.35
2009/04/23 08:37:27.6     117   -176     41    212    216 146.4  11.0  34046  287.65 0855.35
2009/04/23 08:37:27.7      96   -186     12    210    211 152.6   3.3  34048  287.69 0855.35
2009/04/23 08:37:27.8      80   -198     49    214    220 157.9  12.9  34048  287.67 0855.35
2009/04/23 08:37:27.9      43   -183    -15    189    190 166.6  -4.6  34048  287.69 0855.35
2009/04/23 08:37:28.0      50   -151    -56    160    170 161.5 -19.4  34048  287.67 0855.35
2009/04/23 08:37:28.1      55   -172    -58    181    190 162.2 -23.3  34046  287.65 0855.35
2009/04/23 08:37:28.2      70   -176    -66    190    201 158.2 -24.0  34044  287.60 0855.35
2009/04/23 08:37:28.3      14   -190     -7    191    192 175.8  -2.2  34048  287.69 0855.35
2009/04/23 08:37:28.4     111   -185     -9    217    218 149.0  -2.6  34048  287.67 0855.35
2009/04/23 08:37:28.5     115   -194     11    226    227 149.2   2.8  34048  287.69 0855.35
2009/04/23 08:37:28.6      84   -209     48    226    232 157.9  12.0  34050  287.70 0855.35
2009/04/23 08:37:28.7     105   -222     39    246    250 154.5   9.0  34048  287.68 0855.35
2009/04/23 08:37:28.8      54   -225     54    232    239 166.4  13.2  34048  287.66 0855.35
2009/04/23 08:37:28.9      82   -212     -9    228    229 158.8  -2.3  34046  287.65 0855.35
2009/04/23 08:37:29.0      18   -173     37    174    179 174.0  12.2  34046  287.65 0855.35
2009/04/23 08:37:29.1     -20   -196     29    198    201 186.0   8.5  34048  287.69 0855.35
2009/04/23 08:37:29.2      42   -173    -27    179    182 166.2  -8.6  34044  287.62 0855.37
2009/04/23 08:37:29.3     127   -151    -62    198    208 140.1 -17.6  34044  287.62 0855.37
2009/04/23 08:37:29.4     130   -152    -63    201    210 139.5 -22.8  34048  287.69 0855.37
2009/04/23 08:37:29.5      80   -147    -15    168    169 151.3  -5.2  34050  287.70 0855.37
2009/04/23 08:37:29.6      75   -152     10    170    171 153.7   3.6  34048  287.69 0855.37
2009/04/23 08:37:29.7     110    -79    -71    136    153 126.0 -34.2  34042  287.59 0855.37
2009/04/23 08:37:29.8      84    -30    -41     90     98 109.5 -30.6  34044  287.62 0855.37
2009/04/23 08:37:29.9      65   -102     -9    122    123 147.4  -4.6  34048  287.69 0855.37
2009/04/23 08:37:30.0      46   -143      7    151    152 162.2   2.9  34046  287.65 0855.37
2009/04/23 08:37:30.1      62   -211     43    221    226 163.5  11.1  34048  287.67 0855.37
2009/04/23 08:37:30.2      32   -227     30    230    232 171.9   7.5  34046  287.64 0855.37
2009/04/23 08:37:30.3      60   -240      0    248    249 165.8   0.2  34046  287.65 0855.37
2009/04/23 08:37:30.4      75   -228    -31    241    244 161.7  -7.5  34046  287.65 0855.37
2009/04/23 08:37:30.5      88   -208    -14    226    227 157.1  -3.7  34046  287.64 0855.37
2009/04/23 08:37:30.6      84   -128     -3    154    155 146.6  -1.2  34046  287.65 0855.37
2009/04/23 08:37:30.7      53   -157     36    166    170 161.3  12.4  34046  287.64 0855.37
2009/04/23 08:37:30.8     149   -148     31    211    214 134.9   8.5  34046  287.65 0855.37
2009/04/23 08:37:30.9      78   -145     62    165    176 151.7  21.5  34048  287.69 0855.37
2009/04/23 08:37:31.0     103   -132     60    168    178 142.2  20.4  34046  287.65 0855.37
2009/04/23 08:37:31.1     124   -176    114    216    244 144.8  30.1  34044  287.61 0855.37
2009/04/23 08:37:31.2     119   -186     43    222    227 147.3  11.1  34044  287.62 0855.39
2009/04/23 08:37:31.3      78   -138      0    159    160 150.6   0.2  34046  287.64 0855.39
2009/04/23 08:37:31.4      64   -126    -23    142    144 152.9  -9.3  34046  287.65 0855.39
2009/04/23 08:37:31.5      88   -121      4    151    152 143.9   1.8  34044  287.60 0855.39
2009/04/23 08:37:31.6     144   -103     -9    178    179 125.7  -3.1  34046  287.64 0855.39
2009/04/23 08:37:31.7     149    -59    -20    161    163 111.7  -7.3  34044  287.60 0855.39
2009/04/23 08:37:31.8     147    -49    -26    156    159 108.6  -9.6  34044  287.62 0855.39
2009/04/23 08:37:31.9     135    -74    -16    155    156 118.8  -6.2  34048  287.67 0855.39
2009/04/23 08:37:32.0     127    -78    -42    150    156 121.5 -15.8  34046  287.65 0855.39
2009/04/23 08:37:32.1     160   -102    -65    190    201 122.6 -18.9  34046  287.65 0855.39
2009/04/23 08:37:32.2     126    -99    -50    161    169 128.4 -17.3  34046  287.64 0855.39
2009/04/23 08:37:32.3     100   -110    -46    149    155 137.7 -22.8  34042  287.59 0855.39
2009/04/23 08:37:32.4     106    -82    -49    135    143 127.8 -25.3  34044  287.62 0855.39
2009/04/23 08:37:32.5      42   -120    -67    128    144 160.4 -34.2  34046  287.64 0855.39
2009/04/23 08:37:32.6      38    -74    -28     84     89 152.8 -18.7  34046  287.64 0855.39
2009/04/23 08:37:32.7     -67     13    -52     69     86 281.5 -45.1  34046  287.64 0855.39
2009/04/23 08:37:32.8     -31     31    -71     44     83 315.0 -70.1  34048  287.69 0855.39
2009/04/23 08:37:32.9     -30      2    -43     31     53 274.3 -64.9  34048  287.67 0855.39
2009/04/23 08:37:33.0     -12    -14    -39     19     43 219.6 -77.3  34048  287.69 0855.39
2009/04/23 08:37:33.1       0    -21    -26     22     34 180.9 -58.7  34048  287.69 0855.39
2009/04/23 08:37:33.2      -6    -51    -11     52     54 187.1 -12.4  34048  287.67 0855.40
2009/04/23 08:37:33.3      22    -46    -18     52     55 154.5 -23.3  34048  287.69 0855.40
2009/04/23 08:37:33.4      36    -80    -20     88     91 155.5 -12.9  34044  287.62 0855.40
2009/04/23 08:37:33.5      70   -150     30    166    169 155.1  10.3  34044  287.62 0855.40
2009/04/23 08:37:33.6      49   -146    -13    155    156 161.3  -4.9  34044  287.62 0855.40
2009/04/23 08:37:33.7      11   -140    -12    141    142 175.1  -5.1  34044  287.60 0855.40
2009/04/23 08:37:33.8      47   -159    -16    166    167 163.5  -5.6  34044  287.62 0855.40
2009/04/23 08:37:33.9      52   -126     21    137    139 157.7   8.9  34044  287.62 0855.40
2009/04/23 08:37:34.0      56   -130     -2    142    143 156.4  -1.2  34042  287.59 0855.40
2009/04/23 08:37:34.1      86   -107      5    138    139 141.3   2.3  34044  287.62 0855.40
2009/04/23 08:37:34.2      99    -63     30    118    122 122.4  14.3  34044  287.60 0855.40
2009/04/23 08:37:34.3     106    -54     55    120    132 117.1  26.6  34046  287.65 0855.40
2009/04/23 08:37:34.4      97    -73     10    122    123 127.3   4.9  34044  287.62 0855.40
2009/04/23 08:37:34.5      89    -65      6    111    112 126.0   3.3  34044  287.60 0855.40
2009/04/23 08:37:34.6     112    -67     34    131    136 121.1  14.7  34048  287.67 0855.40
2009/04/23 08:37:34.7     105   -114     31    156    160 137.2  11.4  34046  287.64 0855.40
2009/04/23 08:37:34.8      69   -114     53    134    144 148.8  23.0  34046  287.65 0855.40
2009/04/23 08:37:34.9      60   -119     71    134    151 153.3  29.8  34048  287.67 0855.40
2009/04/23 08:37:35.0     104   -104     96    148    176 135.0  36.0  34048  287.69 0855.40
2009/04/23 08:37:35.1      72   -102    100    125    160 144.8  42.7  34050  287.72 0855.40
2009/04/23 08:37:35.2      51   -115     98    127    160 155.9  41.7  34052  287.74 0855.40
2009/04/23 08:37:35.3      65   -110     96    129    160 149.3  40.4  34050  287.72 0855.40
2009/04/23 08:37:35.4      49   -115     88    126    153 156.8  38.0  34050  287.70 0855.40
2009/04/23 08:37:35.5      -4   -199     96    200    221 181.4  27.3  34046  287.64 0855.40
2009/04/23 08:37:35.6      33   -199     90    202    221 170.4  25.3  34046  287.65 0855.40
2009/04/23 08:37:35.7      23   -218    133    220    257 173.8  34.0  34048  287.66 0855.40
2009/04/23 08:37:35.8      17   -228    110    229    254 175.6  27.3  34048  287.68 0855.40
2009/04/23 08:37:35.9       8   -150     89    151    175 176.9  33.7  34046  287.64 0855.40
2009/04/23 08:37:36.0       0   -200    148    201    249 180.2  40.1  34054  287.77 0855.40
2009/04/23 08:37:36.1     -27   -193     95    195    216 188.1  27.4  34048  287.67 0855.40
2009/04/23 08:37:36.2      12   -159    119    160    199 175.6  40.4  34050  287.70 0855.40
2009/04/23 08:37:36.3      53   -185    120    193    227 164.0  35.2  34048  287.67 0855.40
2009/04/23 08:37:36.4      95   -193     66    216    226 153.7  17.1  34042  287.59 0855.40
2009/04/23 08:37:36.5      45   -131     31    139    143 160.8  12.6  34046  287.64 0855.40
2009/04/23 08:37:36.6      36   -135     48    140    149 164.9  18.9  34044  287.62 0855.40
2009/04/23 08:37:36.7      -5   -113     74    114    135 182.7  35.6  34050  287.70 0855.40
2009/04/23 08:37:36.8       6   -104     61    105    121 176.4  32.9  34050  287.70 0855.40
2009/04/23 08:37:36.9      -7    -99     87    100    132 184.4  45.8  34050  287.70 0855.40
2009/04/23 08:37:37.0     -31   -119     88    123    151 194.7  39.5  34050  287.72 0855.40
2009/04/23 08:37:37.1     -23    -95    114     98    150 193.8  55.4  34046  287.65 0855.40
2009/04/23 08:37:37.2     -22   -157    139    159    211 188.1  45.8  34048  287.69 0855.40
2009/04/23 08:37:37.3     -19   -135    143    137    198 188.1  51.2  34048  287.69 0855.40
2009/04/23 08:37:37.4       5    -70    115     71    135 175.5  64.7  34046  287.64 0855.40
2009/04/23 08:37:37.5      38    -92     98    100    140 157.3  50.0  34048  287.69 0855.40
2009/04/23 08:37:37.6      54    -70     79     89    119 142.6  46.4  34048  287.67 0855.40
2009/04/23 08:37:37.7      24    -41     64     48     80 149.3  59.4  34048  287.67 0855.40
2009/04/23 08:37:37.8      81    -41     83     92    123 117.1  47.5  34048  287.69 0855.40
2009/04/23 08:37:37.9      55    -28     77     62     98 117.1  56.4  34050  287.70 0855.40
2009/04/23 08:37:38.0       0     12     53     13     54 359.1  85.9  34050  287.72 0855.40
2009/04/23 08:37:38.1     -30      8     41     32     52 285.1  57.5  34048  287.69 0855.40
2009/04/23 08:37:38.2      -5    -50     74     51     89 186.2  62.6  34050  287.70 0855.40
2009/04/23 08:37:38.3     -47    -84     99     97    138 209.4  50.2  34046  287.64 0855.40
2009/04/23 08:37:38.4     -72    -64    108     97    145 228.2  53.3  34044  287.60 0855.40
2009/04/23 08:37:38.5     -35   -100    101    107    147 199.6  48.0  34048  287.69 0855.40
2009/04/23 08:37:38.6     -64   -104     72    123    142 211.6  32.9  34048  287.67 0855.40
2009/04/23 08:37:38.7     -40    -82     51     92    105 206.3  31.4  34046  287.65 0855.40
2009/04/23 08:37:38.8       0    -92     34     93     99 180.4  20.4  34044  287.62 0855.40
2009/04/23 08:37:38.9     -28   -105     -4    109    110 195.2  -2.6  34048  287.69 0855.40
2009/04/23 08:37:39.0     -23   -104     37    107    114 192.5  19.4  34044  287.62 0855.40
2009/04/23 08:37:39.1     -24    -81     57     85    102 196.5  37.0  34048  287.67 0855.40
2009/04/23 08:37:39.2     -19   -113    100    115    152 189.8  45.8  34048  287.67 0855.38
2009/04/23 08:37:39.3       0   -108    110    109    154 179.5  49.7  34050  287.70 0855.38
2009/04/23 08:37:39.4       4   -140     82    141    163 178.2  32.9  34046  287.65 0855.38
2009/04/23 08:37:39.5      -1   -149     53    150    159 180.5  20.2  34048  287.69 0855.38
2009/04/23 08:37:39.6      11   -154     58    155    165 175.6  21.0  34048  287.69 0855.38
2009/04/23 08:37:39.7      -7   -160     71    161    175 182.5  25.3  34050  287.72 0855.38
2009/04/23 08:37:39.8       1   -125     86    126    152 179.1  37.4  34050  287.70 0855.38
2009/04/23 08:37:39.9      -7    -93     77     94    121 184.4  43.7  34050  287.70 0855.38
2009/04/23 08:37:40.0      -7    -93     64     94    113 184.5  37.0  34048  287.69 0855.38
2009/04/23 08:37:40.1      -9    -70     70     71     99 188.0  50.0  34048  287.69 0855.38
2009/04/23 08:37:40.2       0    -63     64     64     90 180.9  50.1  34052  287.74 0855.38
2009/04/23 08:37:40.3       6      7     51     10     51  39.6  89.1  34048  287.69 0855.38
2009/04/23 08:37:40.4     -29     21     45     36     57 306.0  56.4  34052  287.74 0855.38
2009/04/23 08:37:40.5     -42     12     43     44     61 285.9  50.0  34050  287.72 0855.38
2009/04/23 08:37:40.6     -23     30     44     38     58 322.2  54.3  34048  287.67 0855.38
2009/04/23 08:37:40.7     -19     30     32     36     48 327.5  47.9  34052  287.74 0855.38
2009/04/23 08:37:40.8      -1     44     24     45     51 358.2  30.3  34050  287.70 0855.38
2009/04/23 08:37:40.9       7     22     35     24     42  18.3  62.6  34048  287.67 0855.38
2009/04/23 08:37:41.0     -18     -7     36     20     41 248.3  68.8  34048  287.67 0855.38
2009/04/23 08:37:41.1      31    -31     31     45     54 135.0  37.6  34048  287.67 0855.38
2009/04/23 08:37:41.2      14    -44     28     47     54 161.7  34.4  34048  287.69 0855.38
2009/04/23 08:37:41.3       5    -72      3     73     74 175.5   2.9  34048  287.67 0855.38
2009/04/23 08:37:41.4     -38    -60    -37     72     80 212.5 -33.7  34046  287.64 0855.38
2009/04/23 08:37:41.5     -17    -52     -7     55     56 198.3  -7.3  34048  287.67 0855.38
2009/04/23 08:37:41.6     -10    -67     29     68     73 188.9  23.1  34048  287.69 0855.38
2009/04/23 08:37:41.7     -40    -74     27     85     90 208.1  17.9  34048  287.67 0855.38
2009/04/23 08:37:41.8     -38    -58     13     70     72 213.4  11.1  34050  287.70 0855.38
2009/04/23 08:37:41.9     -42    -46     26     63     68 222.3  23.0  34048  287.67 0855.38
2009/04/23 08:37:42.0     -23    -79     44     83     93 196.5  30.3  34048  287.67 0855.38
2009/04/23 08:37:42.1     -51    -71     15     88     90 215.6  10.1  34046  287.64 0855.38
2009/04/23 08:37:42.2    -144   -104    -53    178    186 234.0 -16.8  34048  287.69 0855.38
2009/04/23 08:37:42.3    -124   -193    -24    230    232 212.7  -6.0  34048  287.67 0855.38
2009/04/23 08:37:42.4    -142   -174    -72    225    236 219.2 -22.8  34052  287.73 0855.38
2009/04/23 08:37:42.5    -103   -182    -51    210    217 209.4 -13.7  34052  287.74 0855.38
2009/04/23 08:37:42.6     -87   -137    -71    163    177 212.6 -29.3  34054  287.79 0855.38
2009/04/23 08:37:42.7     -57   -143    -18    155    157 201.8  -6.7  34050  287.70 0855.38
2009/04/23 08:37:42.8    -128    -96     -8    160    161 233.1  -3.1  34046  287.64 0855.38
2009/04/23 08:37:42.9    -152    -26     42    155    161 260.3  15.3  34040  287.55 0855.38
2009/04/23 08:37:43.0    -151     44     20    158    160 286.4   7.2  34044  287.62 0855.38
2009/04/23 08:37:43.1    -144     48     29    153    156 288.6  11.0  34044  287.60 0855.38
2009/04/23 08:37:43.2    -174     25    -31    176    179 278.4 -10.3  34046  287.64 0855.38
2009/04/23 08:37:43.3    -151     30    -47    155    161 281.5 -22.1  34044  287.62 0855.38
2009/04/23 08:37:43.4    -157     -4    -18    158    160 268.3  -6.5  34044  287.60 0855.38
2009/04/23 08:37:43.5    -147     11     -8    148    149 274.4  -3.2  34042  287.59 0855.38
2009/04/23 08:37:43.6    -171      0     25    172    174 269.9   8.5  34042  287.57 0855.38
2009/04/23 08:37:43.7    -172    -32     -4    175    176 259.4  -1.6  34044  287.60 0855.38
2009/04/23 08:37:43.8    -128     48     59    137    149 290.8  25.1  34044  287.60 0855.38
2009/04/23 08:37:43.9    -124     45     58    132    144 290.0  25.2  34046  287.64 0855.38
2009/04/23 08:37:44.0    -147     20     46    149    157 278.0  17.3  34044  287.60 0855.38
2009/04/23 08:37:44.1    -208     10    -26    209    211 272.8  -7.2  34040  287.54 0855.38
2009/04/23 08:37:44.2    -199     62     68    209    220 287.3  18.1  34040  287.54 0855.38
2009/04/23 08:37:44.3    -163     81     41    183    188 296.6  12.6  34046  287.64 0855.38
2009/04/23 08:37:44.4    -144     29    -24    147    150 281.5  -9.3  34046  287.64 0855.38
2009/04/23 08:37:44.5    -134     40     25    140    143 286.8  10.1  34044  287.60 0855.38
2009/04/23 08:37:44.6    -175      0     43    176    182 270.0  13.7  34044  287.62 0855.38
2009/04/23 08:37:44.7    -209     23    -26    211    213 276.4  -7.2  34046  287.64 0855.38
2009/04/23 08:37:44.8    -188      2    -44    189    195 270.9 -13.2  34042  287.59 0855.38
2009/04/23 08:37:44.9    -160    -12    -53    161    170 265.6 -18.3  34048  287.67 0855.38
2009/04/23 08:37:45.0    -149    -20    -28    151    154 262.1 -10.5  34046  287.64 0855.38
2009/04/23 08:37:45.1    -142    -67     -9    158    159 244.6  -3.3  34044  287.62 0855.38
2009/04/23 08:37:45.2    -181    -54    -62    189    198 253.4 -23.3  34038  287.52 0855.38
2009/04/23 08:37:45.3    -228    -92    -98    246    264 248.0 -27.4  34046  287.63 0855.38
2009/04/23 08:37:45.4    -216    -99   -102    238    258 245.4 -29.0  34048  287.68 0855.38
2009/04/23 08:37:45.5    -209    -42    -65    214    223 258.5 -21.8  34052  287.76 0855.38
2009/04/23 08:37:45.6    -198    -54    -58    206    214 254.7 -20.7  34052  287.74 0855.38
2009/04/23 08:37:45.7    -191    -19    -53    193    201 264.1 -15.5  34046  287.64 0855.38
2009/04/23 08:37:45.8    -234    -71      3    245    246 252.9   0.8  34052  287.73 0855.38
2009/04/23 08:37:45.9    -283   -102     -6    301    302 250.1  -1.3  34046  287.63 0855.38
2009/04/23 08:37:46.0    -174    -35      1    178    179 258.5   0.5  34048  287.69 0855.38
2009/04/23 08:37:46.1    -209     36    -61    213    221 279.9 -20.7  34042  287.59 0855.38
2009/04/23 08:37:46.2    -163     24    -57    165    175 278.4 -19.1  34046  287.65 0855.38
2009/04/23 08:37:46.3    -153    -36    -28    158    161 256.8 -10.1  34044  287.60 0855.38
2009/04/23 08:37:46.4    -151    -70     71    167    181 245.2  24.3  34044  287.62 0855.38
2009/04/23 08:37:46.5    -296    -22   -100    297    313 265.6 -23.6  34056  287.80 0855.38
2009/04/23 08:37:46.6    -304    -32   -128    306    331 263.9 -28.3  34060  287.87 0855.38
2009/04/23 08:37:46.7    -316    -23   -155    317    352 265.7 -32.4  34060  287.88 0855.38
2009/04/23 08:37:46.8    -286    -49   -136    291    321 260.3 -31.0  34056  287.80 0855.38
2009/04/23 08:37:46.9    -226    -35   -137    229    266 261.0 -38.1  34052  287.75 0855.38
2009/04/23 08:37:47.0    -171    -15   -118    172    208 264.8 -42.0  34052  287.74 0855.38
2009/04/23 08:37:47.1     -61    -78   -114    100    151 218.3 -58.7  34048  287.69 0855.38
2009/04/23 08:37:47.2    -126    -77    -76    148    166 238.5 -33.5  34046  287.65 0855.38
2009/04/23 08:37:47.3      -6    -94    -24     95     99 184.0 -14.5  34046  287.65 0855.38
2009/04/23 08:37:47.4     -57   -136   -118    148    189 202.7 -47.4  34046  287.64 0855.38
2009/04/23 08:37:47.5     -15   -242     24    243    245 183.6   5.7  34044  287.60 0855.38
2009/04/23 08:37:47.6    -117   -246     74    273    284 205.5  15.3  34042  287.58 0855.38
2009/04/23 08:37:47.7     -36   -260     -7    263    264 188.0  -1.6  34046  287.65 0855.38
2009/04/23 08:37:47.8    -204   -154    -73    256    267 232.9 -16.0  34050  287.71 0855.38
2009/04/23 08:37:47.9    -236   -150   -100    280    298 237.6 -19.7  34050  287.71 0855.38
2009/04/23 08:37:48.0    -208    -46   -140    214    255 257.4 -40.9  34052  287.75 0855.38
2009/04/23 08:37:48.1    -168    -79    -86    186    204 244.7 -31.4  34054  287.79 0855.38
2009/04/23 08:37:48.2    -226    -57    -90    234    250 255.8 -26.4  34048  287.66 0855.39
2009/04/23 08:37:48.3    -288    -40   -127    291    317 262.0 -29.4  34058  287.85 0855.39
2009/04/23 08:37:48.5    -348     -3   -156    349    382 269.5 -30.1  34058  287.83 0855.39
2009/04/23 08:37:48.5    -328      6   -164    329    367 271.2 -32.9  34060  287.88 0855.39
2009/04/23 08:37:48.6    -273     20   -190    274    333 274.4 -42.8  34058  287.85 0855.39
2009/04/23 08:37:48.7    -318    -59   -164    324    363 259.4 -33.3  34044  287.61 0855.39
2009/04/23 08:37:48.8    -320    -40   -140    323    352 262.8 -29.4  34052  287.74 0855.39
2009/04/23 08:37:48.9    -324    -18   -146    325    356 266.7 -30.1  34058  287.86 0855.39
2009/04/23 08:37:49.0    -331    -20   -175    332    375 266.5 -34.5  34058  287.83 0855.39
2009/04/23 08:37:49.1    -329    -11   -156    330    365 268.0 -31.5  34052  287.74 0855.39
2009/04/23 08:37:49.2    -341    -92   -161    354    388 254.8 -30.7  34056  287.81 0855.39
2009/04/23 08:37:49.3    -375   -157   -211    407    458 247.2 -33.8  34052  287.75 0855.39
2009/04/23 08:37:49.4    -286   -109   -126    307    331 249.2 -28.0  34048  287.66 0855.39
2009/04/23 08:37:49.5    -205    -97     -4    227    228 244.6  -1.2  34042  287.59 0855.39
2009/04/23 08:37:49.6    -307   -236     28    388    390 232.4   4.2  34044  287.61 0855.39
2009/04/23 08:37:49.7    -188   -289    -40    345    348 213.1  -6.7  34042  287.57 0855.39
2009/04/23 08:37:49.8    -172   -140    -71    222    233 230.9 -23.3  34040  287.55 0855.39
2009/04/23 08:37:49.9    -257   -256   -117    363    381 225.1 -23.2  34052  287.74 0855.39
2009/04/23 08:37:50.0    -178   -393     -9    432    433 204.4  -1.3  34052  287.73 0855.39
2009/04/23 08:37:50.1    -199   -238     67    311    319 219.9  12.3  34038  287.51 0855.39
2009/04/23 08:37:50.2    -298    -81     15    309    310 254.7   2.9  34040  287.55 0855.38
2009/04/23 08:37:50.3    -327    -79   -161    337    373 256.4 -31.7  34058  287.83 0855.38
2009/04/23 08:37:50.4    -331    -72   -169    339    378 257.7 -32.9  34058  287.83 0855.38
2009/04/23 08:37:50.5    -291    -46   -133    295    323 261.0 -30.4  34058  287.85 0855.38
2009/04/23 08:37:50.6    -301    -73   -114    310    330 256.3 -25.4  34060  287.87 0855.38
2009/04/23 08:37:50.7    -292    -40   -141    295    326 262.1 -31.7  34058  287.85 0855.38
2009/04/23 08:37:50.8    -294    -22   -165    295    338 265.6 -36.0  34060  287.88 0855.38
2009/04/23 08:37:50.9    -269    -24   -156    271    312 264.8 -37.0  34062  287.92 0855.38
2009/04/23 08:37:51.0    -287    -17   -161    288    329 266.5 -36.1  34058  287.83 0855.38
2009/04/23 08:37:51.1    -281    -21   -187    282    338 265.6 -41.0  34058  287.85 0855.38
2009/04/23 08:37:51.2    -246    -22   -188    248    311 264.8 -45.3  34058  287.83 0855.38
2009/04/23 08:37:51.3    -237      0   -173    238    294 270.0 -44.1  34054  287.77 0855.38
2009/04/23 08:37:51.4    -135    -88   -142    162    215 236.7 -50.2  34046  287.64 0855.38
2009/04/23 08:37:51.5    -155   -129   -156    202    255 230.2 -46.1  34044  287.61 0855.38
2009/04/23 08:37:51.6    -199   -187   -107    274    294 226.7 -26.9  34052  287.73 0855.38
2009/04/23 08:37:51.8    -249   -124   -128    279    306 243.4 -30.8  34048  287.66 0855.38
2009/04/23 08:37:51.9    -223    -82   -132    238    272 249.8 -35.8  34050  287.70 0855.38
2009/04/23 08:37:52.0    -195   -111   -118    225    254 240.2 -34.2  34050  287.71 0855.38
2009/04/23 08:37:52.1    -206   -184   -123    277    303 228.2 -30.1  34054  287.77 0855.38
2009/04/23 08:37:52.2    -144   -197   -118    245    271 216.1 -31.7  34054  287.77 0855.38
2009/04/23 08:37:52.3    -107   -202    -79    229    243 207.9 -19.1  34056  287.80 0855.39
2009/04/23 08:37:52.4     -92   -144    -16    171    172 212.6  -5.4  34054  287.77 0855.39
2009/04/23 08:37:52.5    -203    -59     -8    212    213 253.8  -2.2  34052  287.74 0855.39
2009/04/23 08:37:52.6    -231    -79    -25    245    247 251.0  -6.0  34056  287.82 0855.39
2009/04/23 08:37:52.7    -261   -160     13    307    308 238.5   2.5  34046  287.65 0855.39
2009/04/23 08:37:52.8    -327    -74    -75    336    345 257.1 -12.7  34056  287.81 0855.39
2009/04/23 08:37:52.9    -325    -67    -66    333    340 258.2 -11.3  34056  287.81 0855.39
2009/04/23 08:37:53.0    -261    -45    -68    265    274 260.1 -14.4  34056  287.82 0855.39
2009/04/23 08:37:53.1    -232     -3    -29    233    235 269.1  -7.2  34054  287.78 0855.39
2009/04/23 08:37:53.2    -221     -9    -19    222    223 267.6  -5.1  34056  287.82 0855.39
2009/04/23 08:37:53.3    -224    -89    -54    242    249 248.3 -12.6  34058  287.85 0855.39
2009/04/23 08:37:53.4    -184    -31     66    187    199 260.3  19.4  34052  287.76 0855.39
2009/04/23 08:37:53.5    -181    -25     -8    183    184 262.1  -2.8  34054  287.79 0855.39
2009/04/23 08:37:53.6     -91   -117    -41    149    155 217.8 -15.5  34052  287.76 0855.39
2009/04/23 08:37:53.7    -195   -135    -83    238    252 235.4 -24.0  34052  287.73 0855.39
2009/04/23 08:37:53.8    -230    -17    -50    231    237 265.6 -12.4  34050  287.70 0855.39
2009/04/23 08:37:53.9    -251     22    -82    253    267 275.2 -18.1  34052  287.73 0855.39
2009/04/23 08:37:54.0    -241     -4    -48    242    247 269.0 -11.3  34052  287.75 0855.39
2009/04/23 08:37:54.1    -236    -25    -65    238    247 263.9 -15.4  34052  287.73 0855.39
2009/04/23 08:37:54.2    -204    -21     -4    206    207 263.9  -1.3  34046  287.64 0855.39
2009/04/23 08:37:54.3    -187     19    -31    189    192 276.1  -9.4  34046  287.65 0855.39
2009/04/23 08:37:54.4    -160      8    -33    161    165 273.0 -11.9  34048  287.67 0855.39
2009/04/23 08:37:54.5    -189      5    -14    190    191 271.7  -4.4  34050  287.70 0855.39
2009/04/23 08:37:54.6    -297     -4    -71    298    307 269.2 -13.4  34054  287.78 0855.39
2009/04/23 08:37:54.7    -280    -21    -80    281    292 265.6 -20.7  34058  287.85 0855.39
2009/04/23 08:37:54.8    -266     62    -43    274    278 283.3  -9.0  34050  287.71 0855.39
2009/04/23 08:37:54.9    -259      6    -42    260    264 271.5  -9.3  34054  287.77 0855.39
2009/04/23 08:37:55.0    -231     50    -33    237    240 282.4  -8.0  34050  287.71 0855.39
2009/04/23 08:37:55.1    -260     85    -71    274    284 288.2 -14.7  34048  287.68 0855.39
2009/04/23 08:37:55.2    -269    103    -52    289    294 291.1 -10.4  34048  287.66 0855.39
2009/04/23 08:37:55.3    -284    104     23    303    304 290.2   4.4  34048  287.66 0855.39
2009/04/23 08:37:55.4    -292     41     31    295    297 278.0   6.1  34050  287.71 0855.39
2009/04/23 08:37:55.5    -294      0    -75    295    305 270.1 -14.3  34056  287.80 0855.39
2009/04/23 08:37:55.6    -298    -70    -99    307    323 256.7 -18.0  34054  287.78 0855.39
2009/04/23 08:37:55.7    -274     20   -102    275    293 274.3 -25.4  34050  287.71 0855.39
2009/04/23 08:37:55.8    -235     69    -77    245    256 286.4 -22.8  34048  287.66 0855.39
2009/04/23 08:37:55.9    -227     17   -101    228    249 274.4 -29.7  34052  287.73 0855.39
2009/04/23 08:37:56.0    -278    -83   -122    291    315 253.4 -28.5  34054  287.77 0855.39
2009/04/23 08:37:56.1    -222    -95    -22    242    244 246.7  -5.4  34052  287.75 0855.39
2009/04/23 08:37:56.2    -200   -140    -26    245    247 234.9  -6.2  34050  287.71 0855.39
2009/04/23 08:37:56.3    -195   -114     35    227    230 239.6   8.8  34050  287.72 0855.39
2009/04/23 08:37:56.4    -144   -114     57    184    193 231.6  17.3  34052  287.74 0855.39
2009/04/23 08:37:56.5    -100   -104     12    145    146 224.1   5.0  34054  287.77 0855.39
2009/04/23 08:37:56.6     -74   -144     40    162    167 207.2  13.9  34054  287.77 0855.39
2009/04/23 08:37:56.7     -67   -153     30    168    171 203.6  10.1  34052  287.76 0855.39
2009/04/23 08:37:56.8     -68   -119     49    138    146 209.9  20.0  34054  287.79 0855.39
2009/04/23 08:37:56.9     -55   -106     62    120    135 207.6  29.3  34054  287.77 0855.39
2009/04/23 08:37:57.0     -78   -115     68    140    155 214.2  27.3  34056  287.81 0855.39
2009/04/23 08:37:57.1     -92   -110     43    144    151 220.1  16.8  34054  287.79 0855.39
2009/04/23 08:37:57.2     -93    -62     -5    112    113 236.3  -2.6  34054  287.79 0855.39
2009/04/23 08:37:57.3    -103    -61    -28    120    124 239.3 -13.3  34054  287.79 0855.39
2009/04/23 08:37:57.4    -116    -44    -16    125    127 249.2  -7.3  34054  287.77 0855.39
2009/04/23 08:37:57.5    -118    -60    -42    133    140 243.0 -17.5  34054  287.77 0855.39
2009/04/23 08:37:57.6    -113    -38    -49    120    129 251.4 -27.4  34054  287.79 0855.39
2009/04/23 08:37:57.7     -88    -73    -31    115    120 230.5 -15.0  34056  287.81 0855.39
2009/04/23 08:37:57.8     -85    -85      3    121    122 224.9   1.8  34052  287.76 0855.39
2009/04/23 08:37:57.9    -122    -87     39    151    157 234.5  14.7  34054  287.79 0855.39
2009/04/23 08:37:58.0    -120    -90     29    151    154 233.1  11.0  34056  287.82 0855.39
2009/04/23 08:37:58.1     -96    -63     -6    116    117 236.7  -3.1  34056  287.81 0855.39
2009/04/23 08:37:58.2     -66    -26      0     72     73 248.3  -0.3  34056  287.81 0855.39
2009/04/23 08:37:58.3     -35    -16    -19     39     43 244.8 -31.6  34054  287.79 0855.39
2009/04/23 08:37:58.4     -17      5    -31     18     35 288.2 -69.1  34058  287.84 0855.39
2009/04/23 08:37:58.5      -7     -6    -35     10     36 226.9 -87.2  34058  287.84 0855.39
2009/04/23 08:37:58.6      -2     -6    -44      7     44 198.3 -90.0  34054  287.79 0855.39
2009/04/23 08:37:58.7     -32     21    -31     39     49 304.2 -48.1  34052  287.76 0855.39
2009/04/23 08:37:58.8     -27      9    -47     29     55 288.2 -69.1  34054  287.77 0855.39
2009/04/23 08:37:58.9     -37    -12    -17     40     43 251.4 -27.4  34054  287.79 0855.39
2009/04/23 08:37:59.0     -24    -12    -17     28     32 242.9 -39.9  34052  287.76 0855.39
2009/04/23 08:37:59.1     -28    -29     -9     41     43 224.1 -13.4  34054  287.77 0855.39
2009/04/23 08:37:59.2     -34    -31     -2     47     48 227.8  -3.1  34054  287.77 0855.39
2009/04/23 08:37:59.3     -41    -32     -7     53     54 232.2  -8.2  34054  287.77 0855.39
2009/04/23 08:37:59.4     -42    -45    -21     62     65 223.3 -23.6  34054  287.77 0855.39
2009/04/23 08:37:59.5     -48    -24    -37     54     65 242.9 -42.0  34052  287.76 0855.39
2009/04/23 08:37:59.6     -13    -47    -33     49     59 196.0 -42.0  34054  287.77 0855.39
2009/04/23 08:37:59.7       0    -84    -25     85     89 180.4 -17.0  34052  287.74 0855.39
2009/04/23 08:37:59.8     -23   -136    -40    139    144 189.8 -21.2  34052  287.74 0855.39
2009/04/23 08:37:59.9     -49   -178    -43    185    191 195.6 -13.2  34050  287.72 0855.39
2009/04/23 08:38:00.0      25   -206      8    208    209 172.9   2.3  34054  287.79 0855.39
2009/04/23 08:38:00.1      20   -221    -41    223    227 174.7 -10.5  34050  287.72 0855.39
2009/04/23 08:38:00.2      29   -194    -10    197    198 171.3  -3.2  34054  287.77 0855.39
2009/04/23 08:38:00.3      45   -198     15    204    205 167.1   4.4  34050  287.72 0855.39
2009/04/23 08:38:00.4      34   -161     65    165    177 168.0  22.8  34052  287.76 0855.39
2009/04/23 08:38:00.5      21   -128     96    130    161 170.3  40.4  34052  287.76 0855.39
2009/04/23 08:38:00.6      24   -151    140    154    208 170.7  47.1  34052  287.76 0855.39
2009/04/23 08:38:00.7      20   -122    136    124    184 170.3  52.5  34050  287.72 0855.39
2009/04/23 08:38:00.8       2   -131    165    132    211 179.0  57.1  34050  287.72 0855.39
2009/04/23 08:38:00.9       7    -99    138    100    170 176.0  60.5  34054  287.77 0855.39
2009/04/23 08:38:01.0     -27   -111    134    115    176 193.8  55.0  34054  287.79 0855.39
2009/04/23 08:38:01.1     -40   -116    108    123    163 199.2  46.2  34052  287.76 0855.39
2009/04/23 08:38:01.2     -28   -160    122    163    203 190.2  40.4  34050  287.72 0855.39
2009/04/23 08:38:01.3     -26   -169     74    172    187 188.9  24.9  34052  287.76 0855.39
2009/04/23 08:38:01.4     -24   -140     77    143    162 189.8  30.8  34052  287.76 0855.39
2009/04/23 08:38:01.5     -64   -125     93    141    168 207.1  36.5  34054  287.77 0855.39
2009/04/23 08:38:01.6     -35    -86    110     94    144 202.3  55.4  34058  287.84 0855.39
2009/04/23 08:38:01.7     -15    -75     91     77    119 191.6  55.4  34056  287.82 0855.39
2009/04/23 08:38:01.8     -35    -94    119    101    156 200.5  55.4  34056  287.81 0855.39
2009/04/23 08:38:01.9     -40    -70    124     81    148 209.9  64.6  34056  287.82 0855.39
2009/04/23 08:38:02.0     -30   -103    154    108    188 196.5  61.5  34054  287.77 0855.39
2009/04/23 08:38:02.1     -36    -98    147    105    180 200.5  60.8  34054  287.77 0855.39
2009/04/23 08:38:02.2     -51    -98    124    111    166 207.6  53.7  34056  287.82 0855.39
2009/04/23 08:38:02.3     -38    -96    112    104    152 201.9  52.2  34054  287.77 0855.39
2009/04/23 08:38:02.4    -118    -59     67    132    148 243.4  28.7  34046  287.65 0855.39
2009/04/23 08:38:02.5    -153     41     45    159    166 285.1  15.8  34050  287.70 0855.39
2009/04/23 08:38:02.6     -95     41     57    104    118 293.5  31.3  34046  287.65 0855.39
2009/04/23 08:38:02.7    -173      5     48    174    181 271.7  15.6  34038  287.50 0855.39
2009/04/23 08:38:02.8    -194     10     50    195    202 273.0  14.5  34030  287.38 0855.39
2009/04/23 08:38:02.9    -209     33     59    212    221 279.2  15.6  34040  287.54 0855.39
2009/04/23 08:38:03.0    -172     19      1    174    175 276.6   0.5  34042  287.59 0855.39
2009/04/23 08:38:03.1    -112      5    -31    113    118 272.6 -15.5  34046  287.64 0855.39
2009/04/23 08:38:03.2     -99     32    -35    105    110 288.2 -23.6  34044  287.60 0855.39
2009/04/23 08:38:03.4     -56     41    -18     70     73 306.0 -14.5  34046  287.64 0855.39
2009/04/23 08:38:03.4    -111     46     -4    121    122 292.6  -2.2  34040  287.55 0855.39
2009/04/23 08:38:03.5     -36     96     44    103    112 339.5  24.1  34046  287.64 0855.39
2009/04/23 08:38:03.6     -64     68    -35     94    100 316.8 -25.4  34048  287.67 0855.39
2009/04/23 08:38:03.7     -74     31    -21     81     84 292.6 -15.0  34048  287.69 0855.39
2009/04/23 08:38:03.8    -109    -23    -17    112    114 258.1  -8.8  34048  287.67 0855.39
2009/04/23 08:38:03.9     -68     10     30     69     75 278.8  25.1  34046  287.65 0855.39
2009/04/23 08:38:04.0     -76    -15    -10     78     79 258.6  -7.3  34048  287.67 0855.39
2009/04/23 08:38:04.1     -96     -3    -34     97    103 267.9 -19.6  34044  287.62 0855.39
2009/04/23 08:38:04.2     -76      8     -1     77     78 276.1  -1.2  34046  287.64 0855.39
2009/04/23 08:38:04.3     -54      0     16     55     58 270.0  16.3  34046  287.64 0855.39
2009/04/23 08:38:04.4     -35    -27    -19     45     48 232.2 -27.4  34046  287.64 0855.39
2009/04/23 08:38:04.5     -44    -19    -15     49     51 246.5 -22.8  34046  287.65 0855.39
2009/04/23 08:38:04.6     -15     -1    -12     16     20 265.7 -46.1  34048  287.67 0855.39
2009/04/23 08:38:04.7      -9     15    -13     18     22 327.4 -44.1  34048  287.67 0855.39
2009/04/23 08:38:04.8       3     21    -30     22     37   8.0 -64.9  34050  287.72 0855.39
2009/04/23 08:38:04.9      17      7    -29     19     34  68.3 -69.0  34052  287.76 0855.39
2009/04/23 08:38:05.0      23      0    -24     24     33  90.0 -54.5  34052  287.74 0855.39
2009/04/23 08:38:05.1      -7     22    -42     24     48 341.7 -71.2  34052  287.76 0855.39
2009/04/23 08:38:05.2     -36     82    -12     90     91 335.9  -7.7  34052  287.76 0855.39
2009/04/23 08:38:05.3     -15     83    -49     85     98 349.8 -37.3  34054  287.77 0855.39
2009/04/23 08:38:05.4       6     53    -67     54     86   7.1 -61.3  34054  287.77 0855.39
2009/04/23 08:38:05.5     -11     43    -65     45     79 345.7 -66.5  34050  287.70 0855.39
2009/04/23 08:38:05.6      25     76    -42     81     91  18.3 -33.7  34050  287.70 0855.39
2009/04/23 08:38:05.7     -60     38    -62     72     95 302.5 -49.8  34048  287.67 0855.39
2009/04/23 08:38:05.8     -66     13    -76     68    101 281.4 -57.7  34050  287.70 0855.39
2009/04/23 08:38:05.9     -47    -11    -73     49     87 256.7 -67.6  34050  287.70 0855.39
2009/04/23 08:38:06.0     -21      3    -59     22     62 279.7 -83.6  34048  287.67 0855.39
2009/04/23 08:38:06.1     -35      7    -62     36     71 281.5 -71.2  34048  287.69 0855.39
2009/04/23 08:38:06.2     -32      0    -51     33     60 270.8 -69.0  34052  287.76 0855.39
2009/04/23 08:38:06.3     -28     -3    -55     29     62 262.1 -74.2  34050  287.70 0855.39
2009/04/23 08:38:06.4     -17      0    -31     18     35 270.0 -69.1  34052  287.74 0855.39
2009/04/23 08:38:06.5      21     25    -27     33     42  39.6 -49.2  34052  287.74 0855.39
2009/04/23 08:38:06.6      27     29    -43     40     58  43.4 -55.6  34050  287.72 0855.39
2009/04/23 08:38:06.7      19     30    -35     36     50  32.6 -55.5  34050  287.72 0855.39
2009/04/23 08:38:06.8       0      3    -20      4     20   4.5 -90.0  34050  287.72 0855.39
2009/04/23 08:38:06.9     -12    -14    -13     19     23 221.4 -44.1  34048  287.67 0855.39
2009/04/23 08:38:07.0     -34    -24      1     42     43 234.9   1.8  34050  287.70 0855.39
2009/04/23 08:38:07.1     -35    -35    -22     50     54 225.0 -30.6  34050  287.70 0855.39
2009/04/23 08:38:07.2     -23    -19    -37     31     48 230.5 -58.7  34050  287.70 0855.39
2009/04/23 08:38:07.3     -13    -23    -13     27     29 210.7 -31.7  34050  287.70 0855.39
2009/04/23 08:38:07.4       3     -7      4      8      9 154.6  27.2  34050  287.72 0855.39
2009/04/23 08:38:07.5       7    -11     27     14     30 147.5  70.8  34050  287.72 0855.39
2009/04/23 08:38:07.6     -10    -35     62     37     72 196.9  65.7  34054  287.77 0855.39
2009/04/23 08:38:07.7       0     -7     74      8     74 182.7  90.0  34052  287.76 0855.39
2009/04/23 08:38:07.8     -36    -29     66     47     81 231.4  61.1  34052  287.76 0855.39
2009/04/23 08:38:07.9     -79    -96     79    125    147 219.6  35.5  34052  287.76 0855.39
2009/04/23 08:38:08.0     -85   -100     73    132    150 220.5  31.4  34052  287.76 0855.39
2009/04/23 08:38:08.1     -61    -96     69    115    134 212.5  34.4  34052  287.76 0855.39
2009/04/23 08:38:08.2     -76   -118     49    141    150 213.0  19.2  34052  287.74 0855.39
2009/04/23 08:38:08.3    -102   -134     10    169    170 217.2   3.6  34054  287.77 0855.39
2009/04/23 08:38:08.4     -93   -128     -7    159    160 216.0  -2.8  34050  287.72 0855.39
2009/04/23 08:38:08.5     -53   -167     50    176    184 197.8  16.0  34052  287.74 0855.39
2009/04/23 08:38:08.6     -87   -165     45    187    193 207.9  13.7  34050  287.72 0855.39
2009/04/23 08:38:08.7     -77   -171     50    188    195 204.3  15.0  34052  287.76 0855.39
2009/04/23 08:38:08.8     -69   -158     30    173    176 203.8  10.1  34054  287.77 0855.39
2009/04/23 08:38:08.9     -71   -144     16    161    162 206.3   5.9  34052  287.76 0855.39
2009/04/23 08:38:09.0     -56   -120     47    133    141 205.3  20.4  34052  287.76 0855.39
2009/04/23 08:38:09.1     -66   -137     46    153    160 205.9  16.8  34054  287.77 0855.39
2009/04/23 08:38:09.2     -70   -151     44    167    173 204.9  15.0  34052  287.74 0855.39
2009/04/23 08:38:09.3     -74   -145     56    164    174 207.2  18.9  34052  287.74 0855.38
2009/04/23 08:38:09.4     -58   -180     -2    190    191 197.8  -0.7  34052  287.76 0855.38
2009/04/23 08:38:09.5     -77   -168     -3    186    187 204.7  -1.2  34052  287.74 0855.38
2009/04/23 08:38:09.6    -153   -172    -46    231    236 221.7 -11.3  34042  287.58 0855.38
2009/04/23 08:38:09.7    -142   -175    -62    226    235 219.2 -15.4  34044  287.60 0855.38
2009/04/23 08:38:09.8     -94   -215    -36    235    238 203.7  -8.8  34050  287.71 0855.38
2009/04/23 08:38:09.9    -136   -181    -17    227    228 217.0  -4.4  34050  287.70 0855.38
2009/04/23 08:38:10.0    -106   -201    -24    228    230 207.9  -6.2  34046  287.65 0855.38
2009/04/23 08:38:10.1     -15   -204    -16    205    206 184.2  -4.6  34052  287.74 0855.38
2009/04/23 08:38:10.2     -57   -158    -26    169    171 199.8  -8.8  34048  287.67 0855.38
2009/04/23 08:38:10.3     -27   -173     23    176    178 189.1   7.5  34048  287.69 0855.38
2009/04/23 08:38:10.4     -15   -111     47    113    122 188.1  23.6  34052  287.74 0855.38
2009/04/23 08:38:10.5     -65   -102     65    122    138 212.5  30.8  34052  287.76 0855.38
2009/04/23 08:38:10.6     -79    -78     64    112    128 225.4  32.4  34054  287.77 0855.38
2009/04/23 08:38:10.7    -133    -84     47    158    166 237.6  16.8  34054  287.77 0855.38
2009/04/23 08:38:10.8    -152    -74     32    170    174 244.0  10.8  34050  287.72 0855.38
2009/04/23 08:38:10.9    -184    -78     31    201    204 246.9   9.0  34046  287.65 0855.38
2009/04/23 08:38:11.0    -188    -88    -37    208    212 244.8 -10.1  34048  287.69 0855.38
2009/04/23 08:38:11.1    -176   -119    -43    213    218 235.8 -11.5  34046  287.65 0855.38
2009/04/23 08:38:11.2    -164    -97    -17    191    192 239.3  -5.2  34044  287.62 0855.38
2009/04/23 08:38:11.3    -141    -72     10    159    160 243.0   3.6  34046  287.65 0855.37
2009/04/23 08:38:11.4    -154    -98     -7    183    184 237.6  -2.2  34046  287.64 0855.37
2009/04/23 08:38:11.5    -222    -52    -68    229    239 256.8 -16.6  34054  287.77 0855.37
2009/04/23 08:38:11.6    -148    -20    -68    150    164 262.0 -30.6  34052  287.76 0855.37
2009/04/23 08:38:11.7    -122    -40    -66    129    144 251.8 -33.7  34054  287.77 0855.37
2009/04/23 08:38:11.8    -137    -32    -50    141    150 256.7 -19.6  34052  287.74 0855.37
2009/04/23 08:38:11.9    -183     -6    -32    184    187 268.1 -10.1  34052  287.76 0855.37
2009/04/23 08:38:12.0    -152    -11    -41    153    159 265.7 -15.0  34052  287.74 0855.37
2009/04/23 08:38:12.1    -174    -11    -63    175    185 266.1 -24.6  34050  287.70 0855.37
2009/04/23 08:38:12.2    -196      3    -54    197    205 271.0 -15.5  34050  287.70 0855.37
2009/04/23 08:38:12.3    -198     40    -77    202    216 281.5 -26.4  34048  287.67 0855.37
2009/04/23 08:38:12.4    -189    124    -44    227    232 303.3 -11.1  34050  287.70 0855.37
2009/04/23 08:38:12.5    -162     94    -73    188    201 300.0 -26.7  34048  287.69 0855.37
2009/04/23 08:38:12.6    -180    103    -66    208    219 299.8 -17.6  34046  287.65 0855.37
2009/04/23 08:38:12.7    -147     89   -104    173    201 301.3 -38.4  34048  287.67 0855.37
2009/04/23 08:38:12.8     -76    137    -40    157    163 331.0 -14.3  34048  287.67 0855.37
2009/04/23 08:38:12.9    -116    156     -7    195    196 323.3  -2.2  34048  287.67 0855.37
2009/04/23 08:38:13.0    -114    162      5    199    200 324.8   1.6  34046  287.65 0855.37
2009/04/23 08:38:13.1    -121    165     42    205    210 323.7  11.6  34048  287.67 0855.37
2009/04/23 08:38:13.2    -134    172     19    219    220 322.2   5.2  34042  287.59 0855.37
2009/04/23 08:38:13.3    -108    166     38    199    203 326.8  11.0  34048  287.67 0855.36
2009/04/23 08:38:13.4    -112    124     83    168    187 317.9  27.8  34048  287.67 0855.36
2009/04/23 08:38:13.5    -114     72     98    135    166 302.4  39.9  34048  287.67 0855.36
2009/04/23 08:38:13.6    -104     85     73    135    153 309.1  31.3  34046  287.65 0855.36
2009/04/23 08:38:13.7     -99     78     92    127    156 308.2  39.3  34046  287.65 0855.36
2009/04/23 08:38:13.8     -79     92     99    122    157 319.5  43.3  34048  287.67 0855.36
2009/04/23 08:38:13.9     -71     80     96    108    144 318.6  46.4  34046  287.65 0855.36
2009/04/23 08:38:14.0     -90     32    104     96    141 289.5  52.2  34046  287.65 0855.36
2009/04/23 08:38:14.1    -120    105     76    160    177 311.3  27.2  34044  287.60 0855.36
2009/04/23 08:38:14.2    -121     62     59    137    149 297.1  25.1  34044  287.62 0855.36
2009/04/23 08:38:14.3     -44      0     72     45     84 270.8  64.7  34046  287.65 0855.36
2009/04/23 08:38:14.4     -32    -20     78     39     87 237.6  71.9  34046  287.64 0855.36
2009/04/23 08:38:14.5     -82     31    116     88    145 290.8  59.0  34046  287.64 0855.36
2009/04/23 08:38:14.6     -86    -55    110    103    150 237.6  52.2  34046  287.64 0855.36
2009/04/23 08:38:14.7    -117    -15    106    118    158 262.5  46.9  34046  287.65 0855.36
2009/04/23 08:38:14.8     -65     26     95     71    118 291.8  59.4  34046  287.64 0855.36
2009/04/23 08:38:14.9    -123    107     90    164    187 310.9  31.4  34042  287.59 0855.36
2009/04/23 08:38:15.0     -97    127    107    161    193 322.6  36.5  34048  287.67 0855.36
2009/04/23 08:38:15.1     -74     87    116    115    163 319.5  49.9  34048  287.69 0855.36
2009/04/23 08:38:15.2    -104     86    101    136    169 309.6  40.4  34048  287.69 0855.36
2009/04/23 08:38:15.3     -83    -57     71    101    123 235.4  38.6  34046  287.65 0855.34
2009/04/23 08:38:15.4     -37   -138     74    143    161 195.1  29.5  34048  287.67 0855.34
2009/04/23 08:38:15.5     -60   -183    128    193    231 198.3  36.3  34046  287.64 0855.34
2009/04/23 08:38:15.6     -52   -189    152    197    248 195.6  41.7  34042  287.58 0855.34
2009/04/23 08:38:15.7    -116   -244    115    271    294 205.4  24.3  34048  287.66 0855.34
2009/04/23 08:38:15.8     -68   -255    102    265    283 195.1  22.0  34044  287.60 0855.34
2009/04/23 08:38:15.9    -125   -265    107    294    312 205.3  20.8  34044  287.61 0855.34
2009/04/23 08:38:16.0    -124   -257     62    286    293 205.9  12.4  34048  287.66 0855.34
2009/04/23 08:38:16.1     -42   -239    140    243    280 190.0  32.7  34044  287.61 0855.34
2009/04/23 08:38:16.2     -18   -241    153    242    286 184.5  35.5  34042  287.58 0855.34
2009/04/23 08:38:16.3      15   -249    156    250    294 176.5  35.2  34046  287.63 0855.34
2009/04/23 08:38:16.4      -8   -206    160    207    261 182.2  41.6  34042  287.58 0855.34
2009/04/23 08:38:16.5      40   -212    157    216    267 169.1  39.7  34042  287.58 0855.34
2009/04/23 08:38:16.6       0   -213    127    214    248 180.2  33.5  34046  287.63 0855.34
2009/04/23 08:38:16.7       6   -198    110    199    227 178.2  31.4  34044  287.60 0855.34
2009/04/23 08:38:16.8      28   -188     96    191    213 171.5  28.7  34042  287.59 0855.34
2009/04/23 08:38:16.9      47   -197     94    203    223 166.4  27.0  34042  287.59 0855.34
2009/04/23 08:38:17.0      98   -157     96    186    209 148.1  29.3  34040  287.55 0855.34
2009/04/23 08:38:17.1      64   -137      7    152    153 154.7   2.8  34040  287.55 0855.34
2009/04/23 08:38:17.2      30   -145    -46    149    157 168.0 -17.3  34042  287.59 0855.34
2009/04/23 08:38:17.3     -41   -106     34    114    120 201.4  16.8  34038  287.52 0855.36
2009/04/23 08:38:17.4     -57   -158      9    169    170 200.0   3.3  34044  287.60 0855.36
2009/04/23 08:38:17.5     -39   -158     13    163    164 194.0   4.9  34044  287.62 0855.36
2009/04/23 08:38:17.6     -14   -157    -26    158    161 185.3  -9.6  34044  287.62 0855.36
2009/04/23 08:38:17.7     -20   -160     -6    162    163 187.1  -2.2  34044  287.60 0855.36
2009/04/23 08:38:17.8      42   -220     -4    225    226 169.1  -1.3  34040  287.55 0855.36
2009/04/23 08:38:17.9      47   -167     37    174    179 164.2  12.2  34038  287.52 0855.36
2009/04/23 08:38:18.0      99   -146     11    177    178 145.9   3.8  34044  287.60 0855.36
2009/04/23 08:38:18.1     135   -165     20    214    216 140.8   5.4  34040  287.55 0855.36
2009/04/23 08:38:18.3     146   -146      1    207    208 134.9   0.5  34044  287.60 0855.36
2009/04/23 08:38:18.3     189   -125      6    227    228 123.5   1.6  34044  287.62 0855.36
2009/04/23 08:38:18.5     173   -110     29    206    209 122.4   8.2  34042  287.59 0855.36
2009/04/23 08:38:18.6      78   -123     50    146    155 147.5  18.9  34042  287.57 0855.36
2009/04/23 08:38:18.7      21   -106     37    109    116 168.5  18.9  34044  287.60 0855.36
2009/04/23 08:38:18.8     -15   -109     44    111    119 188.1  22.5  34044  287.62 0855.36
2009/04/23 08:38:18.9     -46    -79      5     92     93 210.7   3.3  34044  287.60 0855.36
2009/04/23 08:38:19.0     -57    -47    -52     75     91 230.4 -42.4  34042  287.57 0855.36
2009/04/23 08:38:19.1    -138    -51   -104    148    180 249.6 -43.2  34050  287.70 0855.36
2009/04/23 08:38:19.2    -129      2   -148    130    196 270.9 -58.6  34046  287.65 0855.36
2009/04/23 08:38:19.3     -74     -1   -155     75    172 269.1 -77.1  34050  287.72 0855.36
2009/04/23 08:38:19.4    -195    -47   -187    201    274 256.3 -52.3  34050  287.71 0855.37
2009/04/23 08:38:19.5    -110    -75   -189    134    231 235.8 -65.7  34046  287.64 0855.37
2009/04/23 08:38:19.6    -133     -9    -97    134    165 266.1 -43.7  34048  287.69 0855.37
2009/04/23 08:38:19.7      12   -120    -43    121    129 174.2 -19.7  34046  287.64 0855.37
2009/04/23 08:38:19.8      49    -50     25     71     76 135.8  19.4  34048  287.67 0855.37
2009/04/23 08:38:19.9     -33   -105    -18    111    113 197.8  -9.3  34046  287.65 0855.37
2009/04/23 08:38:20.0     -22   -107     -5    110    111 191.6  -2.6  34044  287.62 0855.37
2009/04/23 08:38:20.1      -8   -103     15    104    106 184.5   8.5  34046  287.65 0855.37
2009/04/23 08:38:20.2       3    -96    -33     97    103 177.8 -18.7  34046  287.65 0855.37
2009/04/23 08:38:20.3     -21    -86    -40     89     97 193.8 -30.1  34046  287.65 0855.37
2009/04/23 08:38:20.4     -44    -92    -30    103    107 205.9 -21.2  34040  287.54 0855.37
2009/04/23 08:38:20.5     -66    -91    -25    113    116 216.1 -12.9  34046  287.64 0855.37
2009/04/23 08:38:20.6     -43    -83    -29     94     99 207.6 -17.6  34044  287.62 0855.37
2009/04/23 08:38:20.7     -49    -64    -11     81     82 217.4  -8.2  34046  287.65 0855.37
2009/04/23 08:38:20.8     -57    -57    -20     81     84 225.0 -13.9  34046  287.65 0855.37
2009/04/23 08:38:20.9     -30    -48    -31     57     64 212.6 -35.8  34048  287.67 0855.37
2009/04/23 08:38:21.0     -24    -47    -21     53     57 207.2 -26.4  34048  287.67 0855.37
2009/04/23 08:38:21.1       6    -31    -30     32     43 168.4 -54.4  34044  287.62 0855.37
2009/04/23 08:38:21.2      11    -35    -29     37     47 161.3 -47.1  34046  287.65 0855.37
2009/04/23 08:38:21.3      11     -7    -12     14     18 122.4 -56.4  34044  287.62 0855.37
2009/04/23 08:38:21.4       2      0     -1      3      3  90.0 -23.6  34044  287.60 0855.37
2009/04/23 08:38:21.5      17      5     11     18     21  71.8  33.5  34044  287.60 0855.37
2009/04/23 08:38:21.6      44      7     38     45     58  80.3  44.8  34044  287.60 0855.37
2009/04/23 08:38:21.7      74     -9     52     75     91  97.0  38.0  34044  287.62 0855.37
2009/04/23 08:38:21.8      70    -31     41     77     87 114.4  30.3  34048  287.67 0855.37
2009/04/23 08:38:21.9      15    -65     30     67     73 166.6  26.2  34046  287.64 0855.37
2009/04/23 08:38:22.0      46    -72     85     86    120 147.5  50.0  34048  287.69 0855.37
2009/04/23 08:38:22.1      89    -77     98    118    153 130.9  43.8  34046  287.65 0855.37
2009/04/23 08:38:22.2      91    -41    111    100    149 114.4  53.3  34044  287.62 0855.37
2009/04/23 08:38:22.3      34    -35     88     50    101 135.9  68.3  34048  287.67 0855.37
2009/04/23 08:38:22.4       2     26     70     27     75   4.4  79.2  34046  287.64 0855.37
2009/04/23 08:38:22.5      49     35     78     61     99  54.9  57.9  34046  287.64 0855.37
2009/04/23 08:38:22.6      14     10     56     18     58  54.0  80.7  34046  287.65 0855.37
2009/04/23 08:38:22.7      10      3     49     11     50  71.6  89.0  34048  287.69 0855.37
2009/04/23 08:38:22.8       6     42     20     43     47   8.9  26.2  34046  287.64 0855.37
2009/04/23 08:38:22.9      17     65     31     68     74  15.2  27.1  34044  287.62 0855.37
2009/04/23 08:38:23.0      39     87     -3     96     97  24.5  -2.2  34044  287.62 0855.37
2009/04/23 08:38:23.1      67     47    -36     82     89  54.9 -30.1  34046  287.64 0855.37
2009/04/23 08:38:23.2      40     52    -17     66     69  37.8 -14.5  34044  287.60 0855.37
2009/04/23 08:38:23.3      26     42    -22     50     54  31.6 -30.6  34044  287.62 0855.37
2009/04/23 08:38:23.4      23     39    -10     46     48  30.7 -12.4  34046  287.64 0855.38
2009/04/23 08:38:23.5       0     47     -2     48     49 359.1  -3.1  34042  287.59 0855.38
2009/04/23 08:38:23.6     -20     42     10     47     49 333.7  12.2  34044  287.62 0855.38
2009/04/23 08:38:23.7     -33     30      1     45     46 312.2   1.8  34044  287.62 0855.38
2009/04/23 08:38:23.8     -31     31     16     44     46 314.9  20.0  34044  287.60 0855.38
2009/04/23 08:38:23.9     -31     32     29     45     53 315.8  35.6  34044  287.60 0855.38
2009/04/23 08:38:24.0      -3     32     29     33     43 353.8  46.9  34044  287.60 0855.38
2009/04/23 08:38:24.1      21     13     16     25     29  57.5  35.5  34044  287.60 0855.38
2009/04/23 08:38:24.2      19     21     24     29     37  41.4  43.8  34044  287.60 0855.38
2009/04/23 08:38:24.3       6      0     41      7     41  85.6  90.0  34046  287.65 0855.38
2009/04/23 08:38:24.4     -10    -21     50     24     55 207.2  72.8  34044  287.62 0855.38
2009/04/23 08:38:24.5       2      0     51      3     51  90.0  90.0  34044  287.60 0855.38
2009/04/23 08:38:24.6     -16    -13     32     21     38 230.5  64.6  34044  287.62 0855.38
2009/04/23 08:38:24.7     -18    -26     15     32     35 214.3  27.2  34046  287.64 0855.38
2009/04/23 08:38:24.8     -31    -66     32     74     80 205.3  25.1  34044  287.62 0855.38
2009/04/23 08:38:24.9     -53    -35     49     64     80 236.7  41.2  34046  287.64 0855.38
2009/04/23 08:38:25.0      23    -17     42     29     51 126.0  62.6  34044  287.60 0855.38
2009/04/23 08:38:25.1      27     -9     54     29     61 108.4  68.9  34048  287.67 0855.38
2009/04/23 08:38:25.2      20     17     40     27     48  48.7  63.6  34044  287.62 0855.38
2009/04/23 08:38:25.3     -17     17     30     25     39 315.0  56.3  34046  287.64 0855.38
2009/04/23 08:38:25.4     -27      9     40     29     49 288.6  60.5  34048  287.67 0855.37
2009/04/23 08:38:25.5      17      5     56     18     58  71.4  80.7  34046  287.65 0855.37
2009/04/23 08:38:25.6      27     14     48     31     57  62.9  64.6  34046  287.64 0855.37
2009/04/23 08:38:25.7      -5    -34     59     35     68 189.8  65.7  34046  287.64 0855.37
2009/04/23 08:38:25.8     -10    -54     78     55     95 190.7  62.1  34044  287.60 0855.37
2009/04/23 08:38:25.9     -19    -31     93     37    100 212.5  77.1  34044  287.62 0855.37
2009/04/23 08:38:26.0     -79    -52     73     95    119 236.7  41.7  34046  287.64 0855.37
2009/04/23 08:38:26.1     -82   -128     37    153    158 212.6  13.9  34044  287.60 0855.37
2009/04/23 08:38:26.2     -84   -137     12    161    162 211.6   4.4  34044  287.62 0855.37
2009/04/23 08:38:26.3    -106   -109     -6    153    154 224.1  -2.6  34044  287.60 0855.37
2009/04/23 08:38:26.4     -77   -113      6    137    138 214.3   2.8  34042  287.59 0855.37
2009/04/23 08:38:26.5     -68   -111    -11    131    132 211.6  -5.1  34042  287.59 0855.37
2009/04/23 08:38:26.6     -80   -108    -24    135    138 216.5 -10.3  34042  287.59 0855.37
2009/04/23 08:38:26.7    -121    -53   -107    133    170 246.5 -47.7  34044  287.62 0855.37
2009/04/23 08:38:26.8    -132    -57   -105    144    178 246.5 -44.1  34042  287.59 0855.37
2009/04/23 08:38:26.9    -129      6   -105    130    167 273.0 -47.9  34044  287.60 0855.37
2009/04/23 08:38:27.0     -93     63    -74    113    135 304.2 -40.0  34042  287.59 0855.37
2009/04/23 08:38:27.1     -80     66    -31    104    109 309.6 -16.6  34038  287.52 0855.37
2009/04/23 08:38:27.2     -49     46      9     68     69 313.2   8.0  34044  287.60 0855.37
2009/04/23 08:38:27.3     -25     25     21     36     41 315.0  32.4  34042  287.57 0855.37
2009/04/23 08:38:27.4      -1      8     48      9     48 350.3  90.0  34042  287.59 0855.37
2009/04/23 08:38:27.5       3    -50     32     51     60 175.5  35.5  34042  287.59 0855.37
2009/04/23 08:38:27.6       0    -80     27     81     86 180.0  18.9  34042  287.59 0855.37
2009/04/23 08:38:27.7      -4    -72     36     73     81 183.6  28.2  34040  287.55 0855.37
2009/04/23 08:38:27.8     -22    -84     52     87    101 194.7  33.5  34042  287.57 0855.37
2009/04/23 08:38:27.9     -30    -82     45     88     98 200.5  28.7  34042  287.57 0855.37
2009/04/23 08:38:28.0       6    -54     55     55     77 172.9  50.1  34042  287.59 0855.37
2009/04/23 08:38:28.1     -13    -63     60     65     88 191.6  47.9  34044  287.60 0855.37
2009/04/23 08:38:28.2      -5    -46     56     47     73 187.1  56.3  34044  287.60 0855.37
2009/04/23 08:38:28.3      -1    -30     66     31     72 182.6  73.1  34042  287.59 0855.37
2009/04/23 08:38:28.4      29      2     56     30     63  85.6  68.9  34046  287.64 0855.38
2009/04/23 08:38:28.5     -11    -41     49     43     65 196.0  53.3  34042  287.57 0855.38
2009/04/23 08:38:28.6       0    -77     66     78    102 180.0  44.8  34042  287.59 0855.38
2009/04/23 08:38:28.7     -15    -78     80     80    113 191.5  50.1  34038  287.52 0855.38
2009/04/23 08:38:28.8     -31    -61     37     69     78 207.2  30.3  34038  287.52 0855.38
2009/04/23 08:38:28.9      29    -14     34     33     47 115.2  49.1  34042  287.57 0855.38
2009/04/23 08:38:29.0      -9      3     62     10     62 291.7  90.0  34042  287.57 0855.38
2009/04/23 08:38:29.1     -11    -25     51     28     58 203.6  68.8  34042  287.59 0855.38
2009/04/23 08:38:29.2     -18    -53     62     57     84 198.7  52.2  34038  287.52 0855.38
2009/04/23 08:38:29.3       3    -48     59     49     76 175.5  56.3  34040  287.54 0855.38
2009/04/23 08:38:29.4      -6    -44     65     45     79 188.0  62.1  34040  287.54 0855.38
2009/04/23 08:38:29.5     -27     -9     53     29     60 251.4  68.8  34038  287.52 0855.38
2009/04/23 08:38:29.6      -9    -27     36     29     46 200.0  57.5  34040  287.54 0855.38
2009/04/23 08:38:29.7     -18    -67     38     70     79 195.1  30.8  34040  287.54 0855.38
2009/04/23 08:38:29.8     -33    -79     35     86     92 202.7  23.0  34038  287.52 0855.38
2009/04/23 08:38:29.9     -28    -86     39     91     99 198.5  24.1  34038  287.52 0855.38
2009/04/23 08:38:30.0     -13    -79     12     81     82 189.8   8.5  34038  287.52 0855.38
2009/04/23 08:38:30.1      30    -49     42     58     71 148.4  39.7  34036  287.49 0855.38
2009/04/23 08:38:30.2      13    -78     74     80    108 170.2  47.9  34034  287.43 0855.38
2009/04/23 08:38:30.3     -28   -110    120    114    165 194.7  51.4  34036  287.47 0855.38
2009/04/23 08:38:30.4     -27   -105    101    109    148 194.7  47.9  34034  287.43 0855.39
2009/04/23 08:38:30.5     -94    -77     68    122    139 230.5  31.4  34036  287.49 0855.39
2009/04/23 08:38:30.6    -119    -80     32    144    148 235.8  12.6  34036  287.49 0855.39
2009/04/23 08:38:30.7     -90    -97      2    133    134 222.8   1.2  34040  287.54 0855.39
2009/04/23 08:38:30.8     -93    -81     -4    124    125 228.7  -2.2  34040  287.55 0855.39
2009/04/23 08:38:30.9     -69    -67     -3     97     98 226.0  -2.2  34040  287.55 0855.39
2009/04/23 08:38:31.0     -78    -45    -32     91     97 239.8 -19.7  34042  287.57 0855.39
2009/04/23 08:38:31.1     -79    -85    -37    117    123 222.8 -17.6  34040  287.55 0855.39
2009/04/23 08:38:31.2     -30   -113    -14    118    119 195.1  -7.2  34042  287.57 0855.39
2009/04/23 08:38:31.3      -8    -85     30     86     92 185.8  19.2  34040  287.54 0855.39
2009/04/23 08:38:31.4     -81    -78     52    113    124 226.0  26.6  34044  287.60 0855.39
2009/04/23 08:38:31.5     -41    -97    -11    106    107 203.2  -6.2  34042  287.59 0855.39
2009/04/23 08:38:31.6     -34   -103     -4    109    110 198.3  -2.6  34044  287.60 0855.39
2009/04/23 08:38:31.7     -26   -118    -26    121    124 192.5 -12.4  34044  287.60 0855.39
2009/04/23 08:38:31.8     -44   -134    -18    142    144 198.3  -7.3  34044  287.60 0855.39
2009/04/23 08:38:31.9      -8   -101    -20    102    105 184.9 -11.3  34044  287.60 0855.39
2009/04/23 08:38:32.0     -39    -78    -72     88    113 206.7 -48.1  34042  287.59 0855.39
2009/04/23 08:38:32.1     -87   -113    -78    143    162 217.8 -35.4  34044  287.60 0855.39
2009/04/23 08:38:32.2     -48   -124    -41    134    140 201.4 -21.8  34044  287.62 0855.39
2009/04/23 08:38:32.3     -10   -117    -23    118    121 185.3 -11.3  34044  287.62 0855.39
2009/04/23 08:38:32.4     -20   -127    -38    129    135 189.3 -16.6  34042  287.59 0855.41
2009/04/23 08:38:32.5     -19   -136    -18    138    140 188.0  -7.7  34042  287.57 0855.41
2009/04/23 08:38:32.6      60   -127      6    141    142 154.7   2.8  34044  287.60 0855.41
2009/04/23 08:38:32.7       6   -216     -4    217    218 178.2  -1.3  34036  287.49 0855.41
2009/04/23 08:38:32.8     -44   -215    -19    220    221 191.8  -5.1  34034  287.43 0855.41
2009/04/23 08:38:32.9     -27   -230     -9    232    233 186.7  -2.2  34038  287.50 0855.41
2009/04/23 08:38:33.0       8   -214     22    215    217 177.8   5.9  34044  287.60 0855.41
2009/04/23 08:38:33.1      51   -222     42    228    232 166.9  10.6  34040  287.55 0855.41
2009/04/23 08:38:33.2      43   -192     56    197    205 167.1  16.0  34040  287.55 0855.41
2009/04/23 08:38:33.3     -22   -204     36    206    210 186.3   9.9  34044  287.60 0855.41
2009/04/23 08:38:33.4    -114   -153    -26    191    193 216.7  -8.0  34042  287.59 0855.41
2009/04/23 08:38:33.5    -100   -181     -8    207    208 209.0  -2.3  34040  287.55 0855.41
2009/04/23 08:38:33.6     -44   -169     12    175    176 194.7   4.2  34044  287.60 0855.41
2009/04/23 08:38:33.7     -15   -144      9    145    146 186.2   3.8  34040  287.54 0855.41
2009/04/23 08:38:33.8       8   -125     50    126    135 176.0  23.0  34042  287.57 0855.41
2009/04/23 08:38:33.9      37   -122     58    128    140 163.1  26.2  34038  287.50 0855.41
2009/04/23 08:38:34.0      21    -96     74     99    123 167.5  40.1  34028  287.35 0855.41
2009/04/23 08:38:34.1      64   -136     89    151    175 154.5  33.7  34030  287.37 0855.41
2009/04/23 08:38:34.2      37   -208    108    212    237 169.8  29.2  34028  287.35 0855.41
2009/04/23 08:38:34.3      67   -186    119    198    231 160.2  33.7  34026  287.30 0855.41
2009/04/23 08:38:34.4      47   -186    109    192    220 165.7  31.9  34028  287.35 0855.41
2009/04/23 08:38:34.5     120   -161    119    202    234 143.3  33.4  34028  287.35 0855.41
2009/04/23 08:38:34.6     100   -181     82    207    222 151.0  23.0  34030  287.38 0855.41
2009/04/23 08:38:34.7      67   -226     37    236    239 163.3   9.0  34030  287.38 0855.41
2009/04/23 08:38:34.8      74   -223    101    236    256 161.5  24.3  34030  287.36 0855.41
2009/04/23 08:38:34.9      54   -232    113    239    264 166.9  27.2  34026  287.29 0855.41
2009/04/23 08:38:35.0      -5   -207    118    208    239 181.6  32.3  34026  287.32 0855.41
2009/04/23 08:38:35.1     -27   -169     72    172    186 189.1  24.1  34026  287.30 0855.41
2009/04/23 08:38:35.2     -29   -193     72    196    208 188.7  21.0  34030  287.38 0855.41
2009/04/23 08:38:35.3     -31   -212     76    215    229 188.5  19.4  34032  287.40 0855.41
2009/04/23 08:38:35.4      46   -231     84    236    250 168.5  20.0  34024  287.28 0855.41
2009/04/23 08:38:35.5      67   -230     56    240    247 163.7  13.2  34028  287.34 0855.41
2009/04/23 08:38:35.6      69   -251     71    261    271 164.6  15.2  34026  287.31 0855.41
2009/04/23 08:38:35.7      35   -188     38    192    196 169.3  11.4  34026  287.30 0855.41
2009/04/23 08:38:35.8       4   -151     55    152    161 178.2  20.7  34026  287.30 0855.41
2009/04/23 08:38:35.9     -46    -95     15    106    108 205.9   8.5  34028  287.33 0855.41
2009/04/23 08:38:36.0    -122   -120    -33    172    176 225.3 -10.9  34034  287.43 0855.41
2009/04/23 08:38:36.1    -146   -134    -42    199    204 227.6 -11.9  34034  287.43 0855.41
2009/04/23 08:38:36.2    -117   -122    -60    170    181 223.7 -19.4  34026  287.32 0855.41
2009/04/23 08:38:36.3    -134   -105    -50    171    179 231.8 -16.4  34030  287.37 0855.41
2009/04/23 08:38:36.4    -113   -106    -38    156    161 226.9 -13.9  34032  287.40 0855.41
2009/04/23 08:38:36.5     -95   -123    -24    156    158 217.8  -9.0  34032  287.42 0855.41
2009/04/23 08:38:36.6     -86   -143     -3    168    169 211.0  -1.3  34032  287.42 0855.41
2009/04/23 08:38:36.7     -98   -128     22    162    164 217.6   8.0  34028  287.35 0855.41
2009/04/23 08:38:36.8    -150   -100     48    181    188 236.3  15.0  34030  287.38 0855.41
2009/04/23 08:38:36.9    -186   -129    -65    227    237 235.1 -16.0  34030  287.38 0855.41
2009/04/23 08:38:37.0    -231    -76    -82    244    257 251.8 -23.3  34024  287.28 0855.41
2009/04/23 08:38:37.1    -185    -28    -60    188    198 261.2 -17.9  34024  287.28 0855.41
2009/04/23 08:38:37.2    -118    -85    -21    146    148 234.0  -8.2  34024  287.28 0855.41
2009/04/23 08:38:37.3    -114   -208     -5    238    239 208.9  -1.3  34026  287.29 0855.41
2009/04/23 08:38:37.4    -166   -157    -63    229    237 226.7 -20.0  34028  287.33 0855.41
2009/04/23 08:38:37.5    -210    -51    -73    217    230 256.3 -18.7  34024  287.28 0855.41
2009/04/23 08:38:37.6    -210    -54    -15    217    218 255.4  -4.1  34026  287.32 0855.41
2009/04/23 08:38:37.7    -129    -88    -18    157    159 235.8  -6.7  34028  287.33 0855.41
2009/04/23 08:38:37.8    -117    -36    -15    123    125 252.7  -7.3  34028  287.33 0855.41
2009/04/23 08:38:37.9    -118    -40    -44    125    132 250.9 -23.8  34026  287.32 0855.41
2009/04/23 08:38:38.0      -9   -132      0    133    134 184.0  -0.3  34030  287.37 0855.41
2009/04/23 08:38:38.1     -21   -128    -31    130    134 189.3 -13.4  34028  287.33 0855.41
2009/04/23 08:38:38.2     -94   -122    -44    155    161 217.8 -20.4  34024  287.27 0855.41
2009/04/23 08:38:38.3     -53   -122    -38    134    139 203.7 -20.7  34028  287.33 0855.41
2009/04/23 08:38:38.4     -65   -125    -70    142    158 207.6 -32.6  34022  287.25 0855.41
2009/04/23 08:38:38.5    -172   -113    -34    207    210 236.7  -9.4  34026  287.32 0855.41
2009/04/23 08:38:38.6    -146   -109    -60    183    192 233.1 -23.8  34024  287.27 0855.41
2009/04/23 08:38:38.7    -121    -69   -103    140    173 240.2 -44.3  34024  287.27 0855.41
2009/04/23 08:38:38.8    -111    -39    -79    118    142 250.5 -41.4  34030  287.37 0855.41
2009/04/23 08:38:38.9     -83    -41    -87     93    127 243.8 -52.4  34034  287.43 0855.41
2009/04/23 08:38:39.0     -72    -64   -111     97    147 228.2 -58.7  34032  287.40 0855.41
2009/04/23 08:38:39.1       8    -61    -72     62     95 172.0 -59.2  34032  287.42 0855.41
2009/04/23 08:38:39.2       5    -31    -35     32     47 170.2 -56.6  34028  287.35 0855.41
2009/04/23 08:38:39.3     -40    -31    -65     51     82 232.2 -61.9  34030  287.37 0855.41
2009/04/23 08:38:39.4      -6   -158   -108    159    192 182.2 -41.4  34028  287.35 0855.41
2009/04/23 08:38:39.5      -9   -183    -81    184    201 182.9 -29.5  34032  287.42 0855.41
2009/04/23 08:38:39.6      -3   -224    -68    225    235 180.9 -21.7  34030  287.37 0855.41
2009/04/23 08:38:39.7     -42   -298    -95    302    317 188.1 -17.5  34028  287.33 0855.41
2009/04/23 08:38:39.8     -70   -293    -38    302    305 193.4  -7.3  34028  287.34 0855.41
2009/04/23 08:38:39.9     -75   -263     -1    274    275 196.0  -0.3  34030  287.38 0855.41
2009/04/23 08:38:40.0    -119   -261    -58    287    293 204.5 -11.5  34028  287.34 0855.41
2009/04/23 08:38:40.1    -195   -231    -60    303    310 220.1 -11.3  34026  287.31 0855.41
2009/04/23 08:38:40.2    -177   -223    -80    285    297 218.5 -15.8  34028  287.34 0855.41
2009/04/23 08:38:40.3    -210   -209    -76    297    307 225.1 -14.4  34028  287.34 0855.41
2009/04/23 08:38:40.4    -119   -215    -84    246    259 209.0 -23.8  34028  287.33 0855.42
2009/04/23 08:38:40.5    -205   -220    -84    301    312 223.0 -20.3  34022  287.24 0855.42
2009/04/23 08:38:40.6    -165   -187    -71    250    259 221.5 -20.7  34030  287.36 0855.42
2009/04/23 08:38:40.7    -201   -170    -68    264    273 229.8 -14.5  34030  287.36 0855.42
2009/04/23 08:38:40.8    -178   -218   -101    282    300 219.2 -19.7  34028  287.34 0855.42
2009/04/23 08:38:40.9    -121   -233    -82    263    275 207.6 -22.1  34026  287.29 0855.42
2009/04/23 08:38:41.0    -147   -197    -40    247    251 216.7  -9.3  34026  287.31 0855.42
2009/04/23 08:38:41.1    -157   -191    -17    248    249 219.4  -4.1  34028  287.33 0855.42
2009/04/23 08:38:41.2    -175   -187    -37    257    260 223.2  -8.3  34026  287.29 0855.42
2009/04/23 08:38:41.3    -148   -178    -57    232    240 219.7 -13.9  34028  287.34 0855.42
2009/04/23 08:38:41.4    -148   -187    -57    239    246 218.5 -13.4  34028  287.34 0855.42
2009/04/23 08:38:41.5    -170   -224    -99    282    300 217.2 -19.4  34028  287.34 0855.42
2009/04/23 08:38:41.6    -152   -235    -89    281    295 213.0 -17.6  34026  287.29 0855.42
2009/04/23 08:38:41.7     -81   -258    -86    271    285 197.4 -17.6  34028  287.33 0855.42
2009/04/23 08:38:41.8     -52   -272    -44    278    282 190.9  -9.0  34026  287.31 0855.42
2009/04/23 08:38:41.9     -54   -266    -35    272    275 191.6  -7.5  34028  287.33 0855.42
2009/04/23 08:38:42.0     -24   -264    -19    266    267 185.3  -4.1  34028  287.34 0855.42
2009/04/23 08:38:42.1     -20   -278    -16    279    280 184.2  -3.3  34028  287.33 0855.42
2009/04/23 08:38:42.2      21   -270    -44    271    275 175.5  -9.3  34026  287.29 0855.42
2009/04/23 08:38:42.3       0   -322     -6    323    324 180.1  -1.2  34026  287.29 0855.42
2009/04/23 08:38:42.4     -12   -280    -47    281    286 182.6  -9.6  34026  287.31 0855.41
2009/04/23 08:38:42.5     -25   -276    -15    278    279 185.4  -3.2  34026  287.29 0855.41
2009/04/23 08:38:42.6     -22   -265     17    267    268 184.9   3.8  34026  287.29 0855.41
2009/04/23 08:38:42.8       0   -275     42    276    280 180.0   8.8  34026  287.29 0855.41
2009/04/23 08:38:42.8     -48   -261     53    266    272 190.5  11.4  34026  287.31 0855.41
2009/04/23 08:38:42.9     -67   -258     43    267    271 194.7   9.3  34026  287.31 0855.41
2009/04/23 08:38:43.0     -51   -251     32    257    260 191.6   7.1  34026  287.29 0855.41
2009/04/23 08:38:43.1    -114   -241    -63    267    275 205.3 -13.4  34028  287.33 0855.41
2009/04/23 08:38:43.2     -88   -240     -8    256    257 200.3  -1.8  34026  287.29 0855.41
2009/04/23 08:38:43.3    -104   -247    -21    269    270 202.8  -4.6  34026  287.31 0855.41
2009/04/23 08:38:43.4     -75   -203     -8    217    218 200.5  -2.2  34024  287.28 0855.41
2009/04/23 08:38:43.5     -71   -201    -59    214    223 199.4 -15.4  34028  287.35 0855.41
2009/04/23 08:38:43.6     -62   -207    -10    217    218 196.7  -2.8  34028  287.35 0855.41
2009/04/23 08:38:43.7     -62   -222    -29    231    233 195.6  -7.3  34028  287.33 0855.41
2009/04/23 08:38:43.8     -70   -213    -16    225    226 198.3  -4.1  34026  287.32 0855.41
2009/04/23 08:38:43.9     -81   -204    -12    220    221 201.8  -3.1  34024  287.28 0855.41
2009/04/23 08:38:44.0     -59   -195     -4    204    205 196.9  -1.3  34026  287.30 0855.41
2009/04/23 08:38:44.1     -70   -175    -14    189    190 201.8  -4.4  34024  287.28 0855.41
2009/04/23 08:38:44.2    -104   -164    -68    195    207 212.3 -19.4  34026  287.30 0855.41
2009/04/23 08:38:44.3     -83   -137    -62    161    172 211.2 -26.1  34026  287.32 0855.41
2009/04/23 08:38:44.4    -104   -148    -60    182    191 215.2 -23.8  34028  287.33 0855.41
2009/04/23 08:38:44.6     -81   -151    -41    172    177 208.1 -13.7  34026  287.32 0855.41
2009/04/23 08:38:44.6     -51   -181      0    189    190 195.8   0.0  34024  287.28 0855.41
2009/04/23 08:38:44.8     -66   -174    -25    187    189 200.7  -7.7  34026  287.32 0855.41
2009/04/23 08:38:44.9     -95   -171      0    196    197 209.0   0.2  34026  287.32 0855.41
2009/04/23 08:38:45.0    -129   -162    -53    208    215 218.5 -14.5  34028  287.35 0855.41
2009/04/23 08:38:45.1     -73   -173      4    188    189 202.9   1.2  34028  287.33 0855.41
2009/04/23 08:38:45.2     -68   -161     -7    175    176 202.9  -2.3  34028  287.35 0855.41
2009/04/23 08:38:45.3     -62   -161    -26    173    176 201.2  -8.8  34030  287.37 0855.41
2009/04/23 08:38:45.4     -57   -111    -20    125    127 207.2  -9.3  34026  287.32 0855.41
2009/04/23 08:38:45.5     -43   -128    -41    136    142 198.7 -21.7  34028  287.35 0855.41
2009/04/23 08:38:45.6      29   -161    -11    164    165 169.8  -4.1  34026  287.30 0855.41
2009/04/23 08:38:45.7     128   -286     72    314    323 155.9  12.9  34026  287.31 0855.41
2009/04/23 08:38:45.8     107   -234     69    258    268 155.5  15.0  34026  287.31 0855.41
2009/04/23 08:38:45.9      72   -237    107    248    270 163.1  24.9  34026  287.31 0855.41
2009/04/23 08:38:46.0      68   -201    115    213    242 161.3  30.8  34030  287.36 0855.41
2009/04/23 08:38:46.1      56   -196    122    204    237 164.0  33.7  34032  287.40 0855.41
2009/04/23 08:38:46.2      32   -171    152    175    231 169.3  45.6  34030  287.38 0855.41
2009/04/23 08:38:46.3      44   -193    150    199    249 167.1  40.7  34030  287.36 0855.41
2009/04/23 08:38:46.4      36   -209    110    213    239 170.2  29.3  34028  287.33 0855.41
2009/04/23 08:38:46.5      32   -194    115    197    228 170.4  33.1  34026  287.32 0855.41
2009/04/23 08:38:46.6      48   -213    107    219    243 167.3  28.2  34028  287.33 0855.41
2009/04/23 08:38:46.7      36   -226     30    229    231 170.9   7.5  34026  287.30 0855.41
2009/04/23 08:38:46.8      45   -184     41    190    195 166.0  12.4  34028  287.35 0855.41
2009/04/23 08:38:46.9      79   -174     52    192    200 155.5  15.3  34028  287.33 0855.41
2009/04/23 08:38:47.0      71   -148     48    165    172 154.5  16.3  34024  287.28 0855.41
2009/04/23 08:38:47.1      65    -82    103    105    147 141.7  49.9  34026  287.30 0855.41
2009/04/23 08:38:47.2      51    -58    125     78    147 138.6  64.7  34022  287.25 0855.41
2009/04/23 08:38:47.3     197    -97    132    220    256 116.4  33.7  34026  287.31 0855.41
2009/04/23 08:38:47.4     214    -16    111    215    241  94.4  29.5  34026  287.29 0855.41
2009/04/23 08:38:47.5     167    -37     87    172    192 102.6  28.7  34026  287.30 0855.41
2009/04/23 08:38:47.6     167    -27     66    170    182  99.2  22.3  34022  287.23 0855.41
2009/04/23 08:38:47.7     171    -11     90    172    194  93.9  30.1  34026  287.30 0855.41
2009/04/23 08:38:47.8     121    -20     57    123    135  99.7  27.1  34026  287.30 0855.41
2009/04/23 08:38:47.9      95    -52     48    109    119 118.9  25.1  34026  287.30 0855.41
2009/04/23 08:38:48.0      76    -82     29    112    116 137.2  14.7  34026  287.30 0855.41
2009/04/23 08:38:48.1      47    -63     29     79     84 143.0  20.4  34026  287.30 0855.41
2009/04/23 08:38:48.2      48    -75     60     90    108 147.5  36.5  34028  287.35 0855.41
2009/04/23 08:38:48.3      59    -71     50     93    105 140.4  30.8  34026  287.32 0855.41
2009/04/23 08:38:48.4      87    -59     36    106    113 124.2  18.9  34026  287.30 0855.41
2009/04/23 08:38:48.5      71    -80     36    108    114 138.6  18.4  34024  287.27 0855.40
2009/04/23 08:38:48.6      80    -97     55    126    137 140.4  25.1  34024  287.28 0855.40
2009/04/23 08:38:48.7      30    -91     49     96    107 161.7  28.2  34022  287.23 0855.40
2009/04/23 08:38:48.8      49    -87     37    101    107 150.6  20.4  34024  287.27 0855.40
2009/04/23 08:38:48.9      43    -78    -23     90     93 151.0 -14.5  34024  287.28 0855.40
2009/04/23 08:38:49.0      23   -138     17    141    143 170.2   6.9  34024  287.28 0855.40
2009/04/23 08:38:49.1      94   -215     20    235    236 156.4   4.9  34032  287.39 0855.40
2009/04/23 08:38:49.2      82   -159     41    180    185 152.6  12.9  34028  287.35 0855.40
2009/04/23 08:38:49.3      68   -133     57    150    160 152.8  21.5  34030  287.37 0855.40
2009/04/23 08:38:49.4      72   -132     41    151    157 151.1  15.3  34028  287.35 0855.40
2009/04/23 08:38:49.5      62   -131     47    145    153 154.7  17.9  34030  287.37 0855.40
2009/04/23 08:38:49.6      30   -110     44    115    123 164.4  21.5  34030  287.37 0855.40
2009/04/23 08:38:49.7      22    -95     36     98    104 166.6  20.4  34030  287.37 0855.40
2009/04/23 08:38:49.8      19    -87     46     90    101 167.5  29.3  34028  287.33 0855.40
2009/04/23 08:38:49.9      28   -110     46    114    122 165.7  23.0  34030  287.38 0855.40
2009/04/23 08:38:50.0      16   -102     14    104    106 170.7   8.0  34030  287.37 0855.40
2009/04/23 08:38:50.1      29   -110     20    114    116 164.9  10.1  34032  287.40 0855.40
2009/04/23 08:38:50.2      58   -105     28    121    125 151.1  13.1  34028  287.35 0855.40
2009/04/23 08:38:50.3      72   -112    -17    134    136 147.4  -7.3  34028  287.33 0855.40
2009/04/23 08:38:50.4      61    -96    -17    114    116 147.4  -8.8  34024  287.28 0855.40
2009/04/23 08:38:50.5      57   -104     -5    119    120 151.0  -2.6  34028  287.35 0855.40
2009/04/23 08:38:50.6      23    -68     24     72     77 161.3  18.9  34026  287.30 0855.40
2009/04/23 08:38:50.7      31    -59     47     67     81 151.9  38.6  34028  287.33 0855.40
2009/04/23 08:38:50.8      37   -106     39    113    120 160.8  19.4  34030  287.37 0855.40
2009/04/23 08:38:50.9      36   -105     21    112    115 160.8  11.0  34030  287.37 0855.40
2009/04/23 08:38:51.0      46   -128     -2    137    138 160.0  -1.2  34026  287.30 0855.40
2009/04/23 08:38:51.1      15   -154     11    155    156 174.2   4.4  34022  287.25 0855.40
2009/04/23 08:38:51.2      14   -133      2    134    135 173.8   1.2  34022  287.23 0855.40
2009/04/23 08:38:51.3      44   -113     -1    122    123 158.6  -0.7  34024  287.28 0855.40
2009/04/23 08:38:51.4      44   -105      5    114    115 157.3   2.9  34024  287.28 0855.40
2009/04/23 08:38:51.5      69   -110     49    130    138 147.9  21.5  34026  287.32 0855.40
2009/04/23 08:38:51.6      54   -136     53    147    156 158.1  20.4  34030  287.37 0855.40
2009/04/23 08:38:51.7      45   -138     59    146    157 161.7  23.0  34028  287.35 0855.40
2009/04/23 08:38:51.8      49   -118     62    129    143 157.3  27.2  34028  287.35 0855.40
2009/04/23 08:38:51.9      41   -112     52    120    130 159.5  25.1  34028  287.35 0855.40
2009/04/23 08:38:52.0      29   -130     46    134    142 167.1  18.9  34028  287.35 0855.40
2009/04/23 08:38:52.1       9   -110     52    111    122 175.1  26.6  34028  287.35 0855.40
2009/04/23 08:38:52.2       0   -132     47    133    142 180.4  19.4  34024  287.27 0855.40
2009/04/23 08:38:52.3      -3   -156     42    157    163 181.4  15.3  34024  287.28 0855.40
2009/04/23 08:38:52.4       0   -133     32    134    138 180.4  13.7  34024  287.28 0855.40
2009/04/23 08:38:52.5       8   -134     27    135    138 176.4  11.6  34024  287.28 0855.40
2009/04/23 08:38:52.6     -28   -140     39    143    149 191.6  15.3  34026  287.30 0855.40
2009/04/23 08:38:52.7      -8   -112     31    113    118 184.5  15.3  34026  287.32 0855.40
2009/04/23 08:38:52.8      13   -103     47    104    114 172.4  26.2  34028  287.33 0855.40
2009/04/23 08:38:52.9       8   -105     51    106    117 175.5  27.2  34028  287.33 0855.40
2009/04/23 08:38:53.0      -9   -114     42    115    122 184.9  20.9  34028  287.33 0855.40
2009/04/23 08:38:53.1      28   -108     84    112    140 165.3  40.7  34034  287.43 0855.40
2009/04/23 08:38:53.2      94   -133    112    163    197 144.8  37.6  34032  287.40 0855.40
2009/04/23 08:38:53.3      33   -141    105    145    179 166.6  39.7  34034  287.45 0855.40
2009/04/23 08:38:53.4      22   -188    110    190    219 173.1  32.7  34034  287.43 0855.40
2009/04/23 08:38:53.5     -14   -184    164    185    247 184.5  46.2  34032  287.42 0855.41
2009/04/23 08:38:53.6       4   -166    126    167    209 178.4  40.9  34030  287.37 0855.41
2009/04/23 08:38:53.7      -8   -150     90    151    175 183.1  34.0  34032  287.42 0855.41
2009/04/23 08:38:53.8     -27   -181     43    184    189 188.5  13.2  34034  287.43 0855.41
2009/04/23 08:38:53.9     -52   -201     48    208    214 194.7  13.1  34034  287.43 0855.41
2009/04/23 08:38:54.0     -56   -244     41    251    255 193.1   9.3  34034  287.43 0855.41
2009/04/23 08:38:54.1     -61   -238     67    246    256 194.5  15.3  34034  287.43 0855.41
2009/04/23 08:38:54.2     -64   -219     81    229    242 196.3  20.0  34036  287.46 0855.41
2009/04/23 08:38:54.3    -105   -229     49    253    258 204.7  11.0  34034  287.44 0855.41
2009/04/23 08:38:54.4     -71   -197    152    210    259 199.8  39.7  34034  287.44 0855.41
2009/04/23 08:38:54.5     -64   -263     98    271    288 193.8  20.9  34030  287.38 0855.41
2009/04/23 08:38:54.6     -48   -222     85    228    243 192.3  21.0  34030  287.36 0855.41
2009/04/23 08:38:54.7     -36   -224     57    228    236 189.3  14.2  34030  287.37 0855.41
2009/04/23 08:38:54.8     -66   -196     59    207    216 198.7  16.0  34028  287.35 0855.41
2009/04/23 08:38:54.9    -110   -189     10    220    221 210.3   2.8  34028  287.33 0855.41
2009/04/23 08:38:55.0    -102   -172     47    201    207 210.7  13.2  34030  287.38 0855.41
2009/04/23 08:38:55.1     -65   -176    -24    188    190 200.3  -7.3  34030  287.38 0855.41
2009/04/23 08:38:55.2      -7    -90     75     91    117 184.5  43.8  34028  287.33 0855.41
2009/04/23 08:38:55.3     -63   -142    113    156    192 204.1  39.5  34032  287.40 0855.41
2009/04/23 08:38:55.4      18   -105     86    107    137 170.2  43.7  34032  287.42 0855.41
2009/04/23 08:38:55.5       2   -114     81    115    140 179.0  39.1  34032  287.40 0855.42
2009/04/23 08:38:55.6      33    -89     60     96    113 159.5  35.5  34030  287.37 0855.42
2009/04/23 08:38:55.7      -1   -100     58    101    116 180.9  32.4  34032  287.40 0855.42
2009/04/23 08:38:55.8     -87   -128     57    156    166 214.3  20.4  34034  287.43 0855.42
2009/04/23 08:38:55.9     -66   -122     65    139    153 208.5  27.1  34034  287.45 0855.42
2009/04/23 08:38:56.0     -82   -140    100    163    191 210.5  34.8  34030  287.38 0855.42
2009/04/23 08:38:56.1     -95   -126     82    158    178 217.0  29.8  34030  287.38 0855.42
2009/04/23 08:38:56.2     -86    -74    107    114    156 229.1  48.0  34028  287.35 0855.42
2009/04/23 08:38:56.3     -87    -42    103     97    141 243.8  52.1  34032  287.40 0855.42
2009/04/23 08:38:56.4      -6     79     98     80    126 355.6  56.4  34034  287.43 0855.42
2009/04/23 08:38:56.5      -4     44    106     45    115 353.8  76.1  34036  287.47 0855.42
2009/04/23 08:38:56.6      -3      8     73      9     73 334.6  90.0  34032  287.42 0855.42
2009/04/23 08:38:56.7      41      1     92     42    101  87.4  73.5  34036  287.49 0855.42
2009/04/23 08:38:56.8      47    -38     93     61    111 128.6  64.1  34032  287.40 0855.42
2009/04/23 08:38:56.9     -12     12     74     18     76 315.0  85.9  34032  287.40 0855.42
2009/04/23 08:38:57.0       8     26     57     28     63  18.5  72.8  34030  287.38 0855.42
2009/04/23 08:38:57.1     119    -16    101    121    157  97.9  44.3  34026  287.32 0855.42
2009/04/23 08:38:57.2     115    -38    104    122    160 108.2  45.1  34032  287.40 0855.42
2009/04/23 08:38:57.3     121    -86    102    149    180 125.5  37.8  34032  287.42 0855.42
2009/04/23 08:38:57.4      86    -92     62    127    141 136.8  27.3  34032  287.42 0855.42
2009/04/23 08:38:57.5      68    -75     33    102    108 137.7  17.9  34032  287.42 0855.41
2009/04/23 08:38:57.6      60   -108     37    124    130 151.0  16.8  34032  287.40 0855.41
2009/04/23 08:38:57.7     111   -118      8    163    164 136.8   2.9  34028  287.35 0855.41
2009/04/23 08:38:57.8     112   -137     21    178    180 140.6   6.9  34028  287.35 0855.41
2009/04/23 08:38:57.9      90   -156     -3    181    182 150.1  -1.1  34028  287.33 0855.41
2009/04/23 08:38:58.0      74   -151     -2    169    170 153.7  -0.7  34030  287.37 0855.41
2009/04/23 08:38:58.1      82    -99     24    129    132 140.4  10.6  34030  287.37 0855.41
2009/04/23 08:38:58.2      14   -141     -5    142    143 174.2  -2.2  34030  287.37 0855.41
2009/04/23 08:38:58.3      28   -121    -25    125    128 166.6 -11.5  34030  287.38 0855.41
2009/04/23 08:38:58.4      46    -96    -24    107    110 154.1 -12.9  34030  287.37 0855.41
2009/04/23 08:38:58.5      79    -29     22     85     88 110.4  14.7  34026  287.30 0855.41
2009/04/23 08:38:58.6      69     14     40     71     81  78.6  31.9  34028  287.35 0855.41
2009/04/23 08:38:58.7      42    -11    -25     44     50 105.1 -36.8  34030  287.37 0855.41
2009/04/23 08:38:58.8       0    -25    -17     26     31 179.1 -40.0  34032  287.42 0855.41
2009/04/23 08:38:58.9      11    -10      2     16     17 133.1   6.9  34032  287.40 0855.41
2009/04/23 08:38:59.0      10    -35     11     37     39 163.1  17.3  34030  287.38 0855.41
2009/04/23 08:38:59.1      36    -57     49     68     83 147.5  39.7  34028  287.35 0855.41
2009/04/23 08:38:59.2       7    -85     61     86    105 175.1  39.1  34028  287.35 0855.41
2009/04/23 08:38:59.3      42    -59     25     73     78 144.8  19.4  34028  287.35 0855.41
2009/04/23 08:38:59.4      72    -64      4     97     98 131.8   2.9  34028  287.35 0855.41
2009/04/23 08:38:59.5      97   -142     -6    173    174 145.7  -2.2  34030  287.37 0855.41
2009/04/23 08:38:59.6      67   -163     18    177    179 157.7   6.1  34028  287.33 0855.41
2009/04/23 08:38:59.7      87    -97     15    131    132 138.1   6.9  34028  287.35 0855.41
2009/04/23 08:38:59.8       2    -81     30     82     87 178.2  20.4  34024  287.28 0855.41
2009/04/23 08:38:59.9     -41   -104     88    113    143 201.8  41.7  34028  287.33 0855.41
2009/04/23 08:39:00.0     -89   -162    111    185    215 208.9  33.5  34026  287.30 0855.41
2009/04/23 08:39:00.1     -73   -166     54    182    190 203.8  16.6  34024  287.28 0855.41
2009/04/23 08:39:00.2    -123   -137      9    185    186 221.9   2.9  34026  287.30 0855.41
2009/04/23 08:39:00.3    -108   -129    -39    169    174 219.9 -13.2  34024  287.28 0855.41
2009/04/23 08:39:00.4     -66   -105     32    125    130 212.1  14.3  34024  287.28 0855.41
2009/04/23 08:39:00.5     -65   -122     26    139    142 208.1  10.6  34024  287.27 0855.41
2009/04/23 08:39:00.6     -10   -164     51    165    173 183.6  17.3  34024  287.27 0855.41
2009/04/23 08:39:00.7     -40   -133     53    140    149 196.9  21.0  34024  287.27 0855.41
2009/04/23 08:39:00.8      -6   -139     38    140    146 182.7  15.3  34022  287.25 0855.41
2009/04/23 08:39:00.9      -6   -153     -3    154    155 182.2  -1.2  34022  287.25 0855.41
2009/04/23 08:39:01.0      41   -126     31    133    137 161.7  13.2  34022  287.25 0855.41
2009/04/23 08:39:01.1       5   -136      0    137    138 177.8  -0.3  34020  287.20 0855.41
2009/04/23 08:39:01.2     -44   -135    -39    143    149 198.3 -15.4  34020  287.20 0855.41
2009/04/23 08:39:01.3     -21   -151     21    153    155 188.0   8.0  34022  287.23 0855.41
2009/04/23 08:39:01.4      58   -132     18    145    147 156.3   7.1  34022  287.25 0855.41
2009/04/23 08:39:01.5      -4    -90      4     91     92 182.7   2.8  34020  287.20 0855.42
2009/04/23 08:39:01.6      -2    -80     24     81     85 181.8  16.8  34020  287.20 0855.42
2009/04/23 08:39:01.7     -23    -78     31     82     87 196.5  21.0  34020  287.20 0855.42
2009/04/23 08:39:01.8     -42    -50     22     66     70 220.5  18.9  34020  287.21 0855.42
2009/04/23 08:39:01.9     -68    -77     -4    103    104 221.4  -2.2  34020  287.20 0855.42
2009/04/23 08:39:02.0     -81    -53     19     97     99 236.7  11.1  34022  287.23 0855.42
2009/04/23 08:39:02.1     -51    -54     38     75     84 223.3  28.7  34022  287.23 0855.42
2009/04/23 08:39:02.2     -43    -44     49     62     79 224.1  42.7  34022  287.23 0855.42
2009/04/23 08:39:02.3     -67    -48     32     83     88 234.0  21.5  34022  287.25 0855.42
2009/04/23 08:39:02.4     -56    -54     13     78     80 226.0   9.5  34020  287.21 0855.42
2009/04/23 08:39:02.5     -51    -47     31     70     76 226.8  25.1  34020  287.20 0855.42
2009/04/23 08:39:02.6     -51    -63     44     82     93 218.7  30.3  34020  287.20 0855.42
2009/04/23 08:39:02.7     -70    -52     41     88     97 233.6  26.6  34020  287.20 0855.42
2009/04/23 08:39:02.8     -77    -41     21     88     91 242.0  13.7  34020  287.20 0855.42
2009/04/23 08:39:02.9     -82     -6     -3     83     84 265.2  -2.2  34020  287.20 0855.42
2009/04/23 08:39:03.0     -54    -21     -2     59     60 248.3  -2.2  34020  287.20 0855.42
2009/04/23 08:39:03.1     -73    -43    -31     86     91 239.3 -24.4  34018  287.18 0855.42
2009/04/23 08:39:03.2     -72    -40    -32     83     88 241.1 -25.9  34018  287.18 0855.42
2009/04/23 08:39:03.3     -57    -21    -26     61     66 249.2 -27.5  34020  287.20 0855.42
2009/04/23 08:39:03.4     -54    -46     -9     72     73 229.6  -7.3  34018  287.18 0855.42
2009/04/23 08:39:03.5     -52    -29     -5     60     61 240.2  -5.2  34016  287.13 0855.41
2009/04/23 08:39:03.6     -15    -23     19     28     33 212.5  37.6  34018  287.16 0855.41
2009/04/23 08:39:03.7     -12     -5     27     14     30 244.7  70.8  34018  287.18 0855.41
2009/04/23 08:39:03.8     -17     18     21     25     32 316.6  43.8  34022  287.23 0855.41
2009/04/23 08:39:03.9     -38     39     19     55     59 315.8  18.9  34022  287.23 0855.41
2009/04/23 08:39:04.0     -50     48     22     70     74 314.1  17.3  34018  287.16 0855.41
2009/04/23 08:39:04.1     -63     56     29     85     90 311.3  18.9  34020  287.20 0855.41
2009/04/23 08:39:04.2     -94     44      6    104    105 295.2   3.8  34018  287.18 0855.41
2009/04/23 08:39:04.3     -50     16    -35     53     63 288.2 -40.9  34018  287.18 0855.41
2009/04/23 08:39:04.4     -61    -32     -7     70     71 242.0  -6.2  34020  287.20 0855.41
2009/04/23 08:39:04.5     -46    -29     10     55     57 237.6  11.1  34018  287.16 0855.41
2009/04/23 08:39:04.6     -56    -19     46     60     75 251.4  41.7  34018  287.16 0855.41
2009/04/23 08:39:04.7     -48    -16     57     51     76 251.4  52.2  34020  287.20 0855.41
2009/04/23 08:39:04.8    -102    -30     83    107    135 253.6  41.7  34018  287.16 0855.41
2009/04/23 08:39:04.9    -109    -36     69    116    134 251.4  33.5  34018  287.18 0855.41
2009/04/23 08:39:05.0     -90    -54     52    106    118 238.9  27.8  34018  287.16 0855.41
2009/04/23 08:39:05.1     -89    -38     45     97    106 246.9  26.6  34016  287.15 0855.41
2009/04/23 08:39:05.2     -87    -41     47     97    107 244.8  27.3  34014  287.11 0855.41
2009/04/23 08:39:05.3     -73    -46     62     87    106 237.5  39.1  34016  287.13 0855.41
2009/04/23 08:39:05.4     -69      7     60     70     92 276.1  45.4  34016  287.15 0855.41
2009/04/23 08:39:05.5     -69     10     60     70     92 278.8  45.4  34016  287.15 0855.40
2009/04/23 08:39:05.6     -35      9     46     37     59 285.1  56.4  34018  287.18 0855.40
2009/04/23 08:39:05.7      19     12     54     23     58  57.6  77.1  34022  287.23 0855.40
2009/04/23 08:39:05.8      60     23    106     65    124  69.2  65.1  34016  287.15 0855.40
2009/04/23 08:39:05.9      86     -6    106     87    137  94.3  56.4  34020  287.20 0855.40
2009/04/23 08:39:06.0      36     -7     90     37     97 101.5  77.1  34018  287.18 0855.40
2009/04/23 08:39:06.1      36     12     91     39     99  71.4  76.1  34018  287.18 0855.40
2009/04/23 08:39:06.2      59    -32     86     68    109 118.9  56.9  34020  287.21 0855.40
2009/04/23 08:39:06.3     120    -30     77    124    145 104.2  35.5  34018  287.16 0855.40
2009/04/23 08:39:06.4     167    -21     79    169    186  97.5  27.1  34020  287.21 0855.40
2009/04/23 08:39:06.5     156      0     68    157    171  90.0  24.9  34018  287.16 0855.40
2009/04/23 08:39:06.6     132    -26    125    135    183 101.5  47.9  34020  287.20 0855.40
2009/04/23 08:39:06.7     145    -30     80    149    169 101.9  30.6  34018  287.18 0855.40
2009/04/23 08:39:06.8      97     -7     45     98    107  94.4  26.6  34020  287.21 0855.40
2009/04/23 08:39:06.9      26    -35     57     44     72 143.0  57.5  34020  287.21 0855.40
2009/04/23 08:39:07.0       0   -114     83    115    141 179.5  39.7  34020  287.20 0855.40
2009/04/23 08:39:07.1      19   -139     73    141    158 172.0  29.5  34018  287.18 0855.40
2009/04/23 08:39:07.2      37   -152     62    157    168 166.2  22.5  34018  287.18 0855.40
2009/04/23 08:39:07.3      59   -107     60    123    136 151.0  27.3  34018  287.16 0855.40
2009/04/23 08:39:07.4      49   -148     87    157    179 161.5  31.4  34018  287.16 0855.40
2009/04/23 08:39:07.5      26   -135    100    138    170 168.9  39.7  34016  287.13 0855.40
2009/04/23 08:39:07.6      20   -138     86    140    164 171.5  34.8  34018  287.16 0855.40
2009/04/23 08:39:07.8      40    -91    109    100    147 156.4  52.2  34018  287.18 0855.40
2009/04/23 08:39:07.8     -13    -79     93     81    123 189.8  54.3  34020  287.20 0855.40
2009/04/23 08:39:07.9      60    -28     91     67    113 115.2  60.0  34018  287.18 0855.40
2009/04/23 08:39:08.0      16    -46    112     49    122 160.0  75.0  34022  287.25 0855.40
2009/04/23 08:39:08.1       8   -141    123    142    187 176.4  45.4  34018  287.16 0855.40
2009/04/23 08:39:08.2     -15   -204     93    205    225 184.5  26.4  34018  287.18 0855.40
2009/04/23 08:39:08.4      31   -193    112    196    225 170.9  32.1  34020  287.20 0855.40
2009/04/23 08:39:08.4      16   -169     30    170    173 174.4  10.1  34016  287.15 0855.40
2009/04/23 08:39:08.5      12   -157     55    158    168 175.5  19.2  34020  287.20 0855.40
2009/04/23 08:39:08.6      -2   -142     21    143    145 181.0   8.5  34020  287.20 0855.40
2009/04/23 08:39:08.7     -12   -148      2    149    150 184.9   0.8  34018  287.16 0855.40
2009/04/23 08:39:08.8     -35   -150     -1    155    156 193.4  -0.5  34020  287.20 0855.40
2009/04/23 08:39:08.9     -33   -141     -9    145    146 193.3  -3.7  34020  287.20 0855.40
2009/04/23 08:39:09.0     -18   -134     -8    136    137 188.0  -3.7  34020  287.20 0855.40
2009/04/23 08:39:09.1     -18   -134     -8    136    137 188.0  -3.7  34020  287.20 0855.40
2009/04/23 08:39:09.2      25   -106     39    109    115 166.6  20.0  34020  287.20 0855.40
2009/04/23 08:39:09.3      37   -106     36    113    119 160.4  17.9  34020  287.20 0855.40
2009/04/23 08:39:09.4      77    -61     46     99    109 128.2  27.1  34018  287.18 0855.40
2009/04/23 08:39:09.5     105    -60     12    122    123 119.8   5.9  34018  287.18 0855.41
2009/04/23 08:39:09.6      -3    -93     -8     94     95 182.2  -5.2  34018  287.18 0855.41
2009/04/23 08:39:09.7      14    -91     42     93    102 171.1  25.7  34018  287.16 0855.41
2009/04/23 08:39:09.8     107    -16     90    109    141  98.8  43.7  34020  287.20 0855.41
2009/04/23 08:39:09.9     102    -64    111    121    164 122.5  47.7  34020  287.21 0855.41
2009/04/23 08:39:10.0     126    -69     74    144    161 118.9  29.3  34018  287.16 0855.41
2009/04/23 08:39:10.1     111   -104     67    153    167 133.2  25.3  34020  287.20 0855.41
2009/04/23 08:39:10.2     122   -101     64    159    171 129.5  23.0  34018  287.16 0855.41
2009/04/23 08:39:10.3      81   -158     62    178    189 152.6  19.2  34018  287.18 0855.41
2009/04/23 08:39:10.4      57   -149     62    160    171 159.1  22.3  34016  287.15 0855.41
2009/04/23 08:39:10.5      33   -157     15    161    162 168.0   5.4  34016  287.15 0855.43
2009/04/23 08:39:10.6      63   -136     60    151    162 155.1  22.5  34018  287.18 0855.43
2009/04/23 08:39:10.7     100   -115     74    153    169 139.0  27.4  34018  287.18 0855.43
2009/04/23 08:39:10.9      61   -120     89    135    161 152.8  36.7  34020  287.20 0855.43
2009/04/23 08:39:11.0      69   -148     70    164    178 155.1  24.3  34020  287.20 0855.43
2009/04/23 08:39:11.0      70   -180     75    194    207 158.6  22.0  34022  287.23 0855.43
2009/04/23 08:39:11.2      40   -162     41    167    173 166.0  13.9  34020  287.20 0855.43
2009/04/23 08:39:11.3       0   -132     15    133    134 180.0   6.5  34016  287.15 0855.43
2009/04/23 08:39:11.4     -37   -118    -29    124    128 197.4 -13.4  34020  287.20 0855.43
2009/04/23 08:39:11.5     -50   -129     -3    139    140 201.4  -1.3  34020  287.21 0855.43
2009/04/23 08:39:11.6     -56   -114    -15    128    129 206.3  -6.7  34020  287.21 0855.43
2009/04/23 08:39:11.7     -42   -107    -32    116    121 201.4 -15.4  34022  287.23 0855.43
2009/04/23 08:39:11.8     -64    -92    -18    113    115 214.7  -9.3  34022  287.23 0855.43
2009/04/23 08:39:11.9     -78    -56    -91     97    133 234.5 -52.9  34018  287.18 0855.43
2009/04/23 08:39:12.0    -135    -49   -104    144    177 250.0 -43.9  34022  287.23 0855.43
2009/04/23 08:39:12.1    -156    -21    -86    158    179 262.0 -35.4  34020  287.21 0855.43
2009/04/23 08:39:12.2    -171    -29   -122    174    212 260.1 -42.8  34020  287.21 0855.43
2009/04/23 08:39:12.3    -187    -61   -152    197    248 251.8 -46.1  34016  287.14 0855.43
2009/04/23 08:39:12.4    -135      0   -127    136    186 270.0 -52.3  34018  287.18 0855.43
2009/04/23 08:39:12.5    -116     23    -94    119    151 281.4 -47.1  34018  287.18 0855.43
2009/04/23 08:39:12.6    -352    -46     -7    355    356 262.5  -1.2  34026  287.29 0855.43
2009/04/23 08:39:12.7    -288    -86    -91    301    315 253.4 -16.8  34030  287.38 0855.43
2009/04/23 08:39:12.8    -374    -63   -128    380    400 260.4 -23.6  34028  287.34 0855.43
2009/04/23 08:39:12.9    -373     75   -112    381    397 281.4 -21.1  34024  287.27 0855.43
2009/04/23 08:39:13.0    -249    127   -149    280    317 297.0 -34.7  34018  287.16 0855.43
2009/04/23 08:39:13.1    -190    106     74    218    231 299.1  18.9  34022  287.23 0855.43
2009/04/23 08:39:13.2    -171    120     20    209    211 305.1   5.7  34020  287.21 0855.43
2009/04/23 08:39:13.3    -169    132     28    215    217 308.0   7.5  34018  287.16 0855.43
2009/04/23 08:39:13.4    -127    101     27    163    166 308.6   9.5  34024  287.27 0855.43
2009/04/23 08:39:13.5     -42    128     80    135    156 341.5  33.1  34020  287.20 0855.43
2009/04/23 08:39:13.6     -58    132     99    145    175 336.4  37.8  34016  287.15 0855.43
2009/04/23 08:39:13.7     -26    133     82    136    158 348.9  34.0  34020  287.20 0855.43
2009/04/23 08:39:13.8      71     58    104     92    138  50.5  53.7  34024  287.27 0855.43
2009/04/23 08:39:13.9      47     38    103     61    119  50.5  66.8  34026  287.30 0855.43
2009/04/23 08:39:14.0       6      5     53      8     53  50.5  90.0  34026  287.30 0855.43
2009/04/23 08:39:14.1       6    -17     53     19     56 161.3  81.2  34026  287.30 0855.43
2009/04/23 08:39:14.2      19    -23     57     30     64 140.4  69.8  34026  287.32 0855.43
2009/04/23 08:39:14.3       0    -21     46     22     51 180.9  72.9  34024  287.28 0855.43
2009/04/23 08:39:14.4     -14    -42     24     45     51 199.2  30.3  34026  287.30 0855.43
2009/04/23 08:39:14.5      -5    -64     28     65     70 184.5  25.1  34024  287.27 0855.43
2009/04/23 08:39:14.6     -41    -65     60     78     98 212.5  42.2  34024  287.28 0855.43
2009/04/23 08:39:14.7     -47     -8     42     48     63 260.3  46.9  34024  287.28 0855.43
2009/04/23 08:39:14.8     -77    -24     58     81     99 252.3  39.5  34024  287.28 0855.43
2009/04/23 08:39:14.9     -82    -32     57     89    105 248.3  35.6  34026  287.32 0855.43
2009/04/23 08:39:15.0     -53    -33     64     63     89 237.6  49.7  34024  287.28 0855.43
2009/04/23 08:39:15.1     -55     -8     45     56     71 261.2  43.7  34026  287.30 0855.43
2009/04/23 08:39:15.2     -70      5     41     71     81 274.3  32.9  34026  287.32 0855.43
2009/04/23 08:39:15.3     -36     26     38     45     58 306.0  44.8  34024  287.28 0855.43
2009/04/23 08:39:15.4      -2     90     67     91    113 358.2  40.1  34028  287.33 0855.43
2009/04/23 08:39:15.5       0     41     63     42     75 359.1  64.6  34024  287.27 0855.43
2009/04/23 08:39:15.6      79     50    120     94    152  57.6  57.5  34026  287.30 0855.43
2009/04/23 08:39:15.7      36    109    125    115    169  18.3  52.7  34028  287.33 0855.43
2009/04/23 08:39:15.8      -1     72     92     73    117 359.1  56.9  34028  287.33 0855.43
2009/04/23 08:39:15.9      -5     71     91     72    116 355.5  57.5  34024  287.28 0855.43
2009/04/23 08:39:16.0      17     39     41     43     59  23.6  49.0  34026  287.32 0855.43
2009/04/23 08:39:16.1      -8    -20     33     22     39 201.8  63.6  34030  287.37 0855.43
2009/04/23 08:39:16.2     -74     -7     56     75     93 263.9  40.7  34026  287.32 0855.43
2009/04/23 08:39:16.3     -60     51     47     80     92 310.4  33.5  34026  287.32 0855.43
2009/04/23 08:39:16.4     -72     47     61     87    106 303.3  38.6  34024  287.28 0855.43
2009/04/23 08:39:16.5     -66     48     49     82     95 306.0  34.4  34024  287.28 0855.43
2009/04/23 08:39:16.6       6     13     49     15     51  25.4  81.8  34022  287.25 0855.41
2009/04/23 08:39:16.7      25     39     96     47    106  32.6  72.4  34028  287.33 0855.41
2009/04/23 08:39:16.8     -35      7     56     36     66 281.5  64.6  34028  287.33 0855.41
2009/04/23 08:39:16.9      15     -7     45     17     48 115.3  80.2  34028  287.35 0855.41
2009/04/23 08:39:17.0     -14    -30     80     34     86 205.3  76.1  34028  287.35 0855.41
2009/04/23 08:39:17.1      -5    -17     87     18     88 198.3  89.0  34028  287.33 0855.41
2009/04/23 08:39:17.2     -31    -31    103     44    112 225.1  76.1  34030  287.37 0855.41
2009/04/23 08:39:17.3      25     18     79     31     84  54.0  78.2  34026  287.32 0855.41
2009/04/23 08:39:17.4     -34    -49     75     60     96 215.2  56.9  34032  287.40 0855.41
2009/04/23 08:39:17.5      -7    -44    115     45    123 189.8  77.6  34028  287.35 0855.41
2009/04/23 08:39:17.6     -16     26    105     31    109 327.5  82.8  34028  287.33 0855.41
2009/04/23 08:39:17.7       7     37    101     38    107  11.5  79.2  34026  287.30 0855.41
2009/04/23 08:39:17.8     -84     -5     79     85    116 266.1  48.0  34028  287.35 0855.41
2009/04/23 08:39:17.9     -33     11     60     35     69 288.4  66.8  34028  287.33 0855.41
2009/04/23 08:39:18.0     -19    -14     88     24     91 234.0  84.4  34032  287.40 0855.41
2009/04/23 08:39:18.1     153    -32    227    157    276 101.9  62.1  34028  287.34 0855.41
2009/04/23 08:39:18.2      41      0    165     42    170  90.0  85.9  34026  287.30 0855.41
2009/04/23 08:39:18.3      31    -28    133     43    139 132.2  80.7  34028  287.33 0855.41
2009/04/23 08:39:18.4     -42    -28    116     51    126 236.7  75.0  34026  287.30 0855.41
2009/04/23 08:39:18.5     -62    -39     93     74    118 237.5  57.9  34026  287.30 0855.41
2009/04/23 08:39:18.6     -78    -96    106    124    163 219.2  45.4  34024  287.28 0855.40
2009/04/23 08:39:18.7     -50   -100    114    113    160 206.7  49.9  34026  287.32 0855.40
2009/04/23 08:39:18.8     -38    -59     85     71    110 212.6  56.3  34028  287.33 0855.40
2009/04/23 08:39:18.9     -43    -64     95     78    122 214.3  56.4  34028  287.35 0855.40
2009/04/23 08:39:19.0     -42   -106    140    115    181 201.8  56.4  34024  287.28 0855.40
2009/04/23 08:39:19.1     -13   -161    204    162    260 184.7  57.5  34036  287.48 0855.40
2009/04/23 08:39:19.2     -57   -199    180    208    275 196.0  45.6  34036  287.46 0855.40
2009/04/23 08:39:19.3    -118   -162    121    201    234 216.3  34.0  34034  287.43 0855.40
2009/04/23 08:39:19.4    -120    -87     92    149    175 234.1  35.0  34030  287.37 0855.40
2009/04/23 08:39:19.5     -81    -77     73    112    133 226.4  35.6  34028  287.35 0855.40
2009/04/23 08:39:19.6    -144    -82     63    167    178 240.2  21.7  34024  287.27 0855.40
2009/04/23 08:39:19.7    -121    -40     51    128    137 251.4  23.0  34024  287.28 0855.40
2009/04/23 08:39:19.8     -51    -80     69     96    118 212.5  39.7  34026  287.32 0855.40
2009/04/23 08:39:19.9    -105    -34     24    111    114 251.8  12.2  34024  287.27 0855.40
2009/04/23 08:39:20.0    -104    -66    100    124    159 237.5  43.0  34024  287.28 0855.40
2009/04/23 08:39:20.1     -75    -73    108    105    150 225.6  50.2  34026  287.30 0855.40
2009/04/23 08:39:20.2     -53    -49    125     73    144 226.9  66.8  34030  287.37 0855.40
2009/04/23 08:39:20.3     -30      8     88     32     93 285.1  80.2  34026  287.30 0855.40
2009/04/23 08:39:20.4     -94    -74    104    120    158 231.8  45.4  34022  287.25 0855.40
2009/04/23 08:39:20.5     -37    -58    108     70    128 212.6  64.6  34022  287.25 0855.40
2009/04/23 08:39:20.6     -30    -26     98     40    105 228.7  77.0  34024  287.28 0855.40
2009/04/23 08:39:20.7     -95    -39    104    103    146 247.4  50.1  34024  287.28 0855.40
2009/04/23 08:39:20.8     -19    -26     72     33     79 216.1  74.5  34024  287.28 0855.40
2009/04/23 08:39:20.9       3     48    111     49    121   4.4  74.9  34030  287.37 0855.40
2009/04/23 08:39:21.0      44     93     90    103    136  25.3  45.8  34032  287.40 0855.40
2009/04/23 08:39:21.1       2    115    105    116    156   1.4  47.5  34030  287.38 0855.40
2009/04/23 08:39:21.2     -41     75    109     86    138 331.0  57.9  34032  287.40 0855.40
2009/04/23 08:39:21.3    -131     67     85    148    170 297.1  32.4  34032  287.42 0855.40
2009/04/23 08:39:21.4    -237    -48      3    242    243 258.5   0.8  34022  287.24 0855.40
2009/04/23 08:39:21.5    -252    -19     -3    253    254 265.7  -0.7  34028  287.34 0855.40
2009/04/23 08:39:21.6    -182    100     64    208    218 298.8  17.1  34028  287.35 0855.40
2009/04/23 08:39:21.7    -163     12     24    164    166 274.3   8.5  34024  287.28 0855.40
2009/04/23 08:39:21.8    -124     29     20    128    130 283.3   9.0  34024  287.27 0855.40
2009/04/23 08:39:21.9    -106    -66    102    125    161 238.0  43.5  34022  287.23 0855.40
2009/04/23 08:39:22.0    -125   -150    156    196    250 219.9  42.7  34026  287.31 0855.40
2009/04/23 08:39:22.1    -264   -224     14    347    348 229.7   2.3  34034  287.45 0855.40
2009/04/23 08:39:22.2    -213   -162     52    268    273 232.7  11.0  34032  287.41 0855.40
2009/04/23 08:39:22.3    -335    -79     21    345    346 256.7   3.5  34030  287.37 0855.40
2009/04/23 08:39:22.4    -317    -92    110    331    349 253.8  18.4  34026  287.30 0855.40
2009/04/23 08:39:22.5    -318   -120    124    340    361 249.3  20.9  34026  287.30 0855.40
2009/04/23 08:39:22.6    -233   -148     97    277    294 237.5  19.4  34026  287.31 0855.39
2009/04/23 08:39:22.7    -154   -161     62    223    232 223.7  15.6  34020  287.21 0855.39
2009/04/23 08:39:22.8    -302   -223     -4    376    377 233.5  -0.7  34034  287.45 0855.39
2009/04/23 08:39:22.9    -406   -135    -18    428    429 251.6  -2.5  34030  287.38 0855.39
2009/04/23 08:39:23.0    -356   -130     -8    380    381 250.0  -1.3  34022  287.25 0855.39
2009/04/23 08:39:23.1    -303    -33     58    305    311 263.8  10.8  34026  287.29 0855.39
2009/04/23 08:39:23.2    -327    -46     99    331    346 262.0  16.7  34024  287.27 0855.39
2009/04/23 08:39:23.3    -283     33    169    286    332 276.8  33.3  34026  287.29 0855.39
2009/04/23 08:39:23.4    -338    -45     26    341    342 262.4   4.4  34032  287.39 0855.39
2009/04/23 08:39:23.5    -220   -165     82    275    288 233.1  16.6  34034  287.44 0855.39
2009/04/23 08:39:23.6    -241   -189     43    307    311 231.8   8.1  34034  287.43 0855.39
2009/04/23 08:39:23.7    -253   -196    -35    321    323 232.2  -6.3  34040  287.53 0855.39
2009/04/23 08:39:23.8    -250   -183    -39    310    313 233.8  -7.3  34036  287.46 0855.39
2009/04/23 08:39:23.9    -231   -102    -46    253    258 246.0 -10.3  34028  287.34 0855.39
2009/04/23 08:39:24.0    -236   -105    -47    259    264 246.0 -10.4  34030  287.36 0855.39
2009/04/23 08:39:24.1    -252   -101    -18    272    273 248.0  -3.9  34026  287.29 0855.39
2009/04/23 08:39:24.2    -200    -19    -24    201    203 264.5  -6.9  34026  287.32 0855.39
2009/04/23 08:39:24.3    -321   -121     29    344    346 249.3   4.9  34024  287.27 0855.39
2009/04/23 08:39:24.4    -378   -106    -56    393    398 254.3  -8.2  34026  287.30 0855.39
2009/04/23 08:39:24.5    -304   -103   -128    322    346 251.2 -27.4  34024  287.27 0855.39
2009/04/23 08:39:24.6    -306    -15   -104    307    325 267.1 -18.7  34024  287.26 0855.39
2009/04/23 08:39:24.7    -388   -176    -70    427    433 245.6  -9.4  34026  287.30 0855.39
2009/04/23 08:39:24.8    -328    -99    -56    343    348 253.2  -9.3  34018  287.18 0855.39
2009/04/23 08:39:24.9    -343    -87    -42    354    357 255.7  -6.9  34024  287.27 0855.39
2009/04/23 08:39:25.0    -284   -125    -29    311    313 246.3  -5.4  34024  287.26 0855.39
2009/04/23 08:39:25.1    -269   -190    -39    330    333 234.7  -6.9  34026  287.32 0855.39
2009/04/23 08:39:25.2    -301   -152      1    338    339 243.1   0.2  34028  287.34 0855.39
2009/04/23 08:39:25.3    -272   -196    -60    336    342 234.3 -10.3  34028  287.34 0855.39
2009/04/23 08:39:25.4    -231   -189     26    299    301 230.7   5.0  34016  287.12 0855.39
2009/04/23 08:39:25.5    -221   -160    -49    274    279 234.0 -10.3  34026  287.31 0855.39
2009/04/23 08:39:25.6    -301   -118     22    324    325 248.5   4.0  34018  287.17 0855.39
2009/04/23 08:39:25.7    -312    -78     15    322    323 255.8   2.8  34026  287.31 0855.39
2009/04/23 08:39:25.8    -245   -135     -5    280    281 241.2  -1.1  34028  287.33 0855.39
2009/04/23 08:39:25.9    -199    -72     96    212    232 250.1  26.2  34028  287.35 0855.39
2009/04/23 08:39:26.0    -186      3     36    187    191 271.0  11.1  34028  287.33 0855.39
2009/04/23 08:39:26.1    -177     10     53    178    186 273.5  16.6  34026  287.32 0855.39
2009/04/23 08:39:26.2    -121      8    -34    122    126 273.9 -20.7  34030  287.37 0855.39
2009/04/23 08:39:26.3     -56    -52    -19     77     80 226.9 -13.9  34026  287.32 0855.39
2009/04/23 08:39:26.4     -27    -83     25     88     92 198.5  16.3  34030  287.38 0855.39
2009/04/23 08:39:26.5     -87   -172     68    193    205 207.0  19.4  34026  287.32 0855.39
2009/04/23 08:39:26.6     -69   -222    -21    233    235 197.4  -5.4  34026  287.29 0855.39
2009/04/23 08:39:26.7    -188   -258    -24    320    321 216.1  -4.4  34026  287.29 0855.39
2009/04/23 08:39:26.8    -202   -157    -39    257    261 232.2  -8.8  34028  287.34 0855.39
2009/04/23 08:39:26.9    -199   -196     99    280    298 225.3  19.6  34024  287.28 0855.39
2009/04/23 08:39:27.0    -193   -184     47    267    272 226.4  10.1  34030  287.38 0855.39
2009/04/23 08:39:27.1    -175   -114    -29    209    212 236.9  -8.0  34030  287.37 0855.39
2009/04/23 08:39:27.2    -156   -109    -51    191    198 234.9 -15.0  34026  287.30 0855.39
2009/04/23 08:39:27.3     -80   -127    -30    151    155 212.1 -11.5  34026  287.30 0855.39
2009/04/23 08:39:27.4     -45   -163     78    170    187 195.4  26.6  34024  287.28 0855.39
2009/04/23 08:39:27.5     -35   -175     76    179    194 191.3  24.3  34028  287.35 0855.39
2009/04/23 08:39:27.6     -61   -140    113    153    190 203.6  40.1  34028  287.33 0855.39
2009/04/23 08:39:27.7     -69   -145    114    161    197 205.5  38.8  34024  287.28 0855.39
2009/04/23 08:39:27.8    -141   -138     85    198    215 225.8  24.9  34024  287.28 0855.39
2009/04/23 08:39:27.9    -217    -77      0    231    232 250.5   0.2  34026  287.32 0855.39
2009/04/23 08:39:28.0    -170     17    -14    171    172 275.9  -4.9  34026  287.30 0855.39
2009/04/23 08:39:28.1     -69     14    -31     71     77 281.4 -29.5  34030  287.38 0855.39
2009/04/23 08:39:28.2    -108     43    -64    117    133 291.8 -35.8  34034  287.43 0855.39
2009/04/23 08:39:28.3    -127     84    -49    153    160 303.7 -23.0  34036  287.47 0855.39
2009/04/23 08:39:28.4     -77     80    -41    112    119 315.9 -25.3  34032  287.42 0855.39
2009/04/23 08:39:28.5     -86     77     -2    116    117 311.8  -1.3  34034  287.43 0855.39
2009/04/23 08:39:28.6     -78     52    -24     94     98 303.7 -14.5  34034  287.43 0855.39
2009/04/23 08:39:28.7     -58     28      9     65     66 296.2   8.0  34028  287.33 0855.39
2009/04/23 08:39:28.8     -95     -5     -4     96     97 267.0  -2.6  34022  287.25 0855.39
2009/04/23 08:39:28.9     -90    -30      3     96     97 251.4   2.3  34022  287.25 0855.39
2009/04/23 08:39:29.0     -56    -30     22     64     68 241.1  18.9  34026  287.30 0855.39
2009/04/23 08:39:29.1     -48    -58     -9     76     77 219.7  -7.3  34030  287.38 0855.39
2009/04/23 08:39:29.2     -68    -53    -31     87     93 232.2 -19.7  34030  287.38 0855.39
2009/04/23 08:39:29.3     -89    -57    -53    106    118 237.1 -32.6  34028  287.35 0855.39
2009/04/23 08:39:29.4     -78    -48    -78     92    120 238.5 -49.2  34028  287.33 0855.39
2009/04/23 08:39:29.5    -124    -32    -86    129    155 255.4 -40.4  34034  287.45 0855.39
2009/04/23 08:39:29.6     -89    -67    -53    112    123 232.7 -31.5  34036  287.47 0855.39
2009/04/23 08:39:29.7     -82    -51    -49     97    108 238.0 -33.1  34028  287.35 0855.39
2009/04/23 08:39:29.8    -172      6      6    173    174 272.1   2.1  34024  287.28 0855.39
2009/04/23 08:39:29.9    -184     21    -37    186    190 276.6 -11.3  34028  287.33 0855.39
2009/04/23 08:39:30.0    -113     -2    -26    114    117 268.7 -12.9  34030  287.37 0855.39
2009/04/23 08:39:30.1    -119    -37      1    125    126 252.7   0.8  34028  287.35 0855.39
2009/04/23 08:39:30.2    -137   -133    -42    192    197 225.8 -12.4  34030  287.38 0855.39
2009/04/23 08:39:30.3    -139   -127    -60    189    198 227.6 -22.5  34030  287.38 0855.39
2009/04/23 08:39:30.4    -135   -120    -38    181    185 228.4 -11.9  34030  287.38 0855.39
2009/04/23 08:39:30.5    -124    -96    -24    157    159 232.3  -8.8  34028  287.33 0855.39
2009/04/23 08:39:30.6    -134    -90    -23    162    164 235.9  -8.2  34030  287.37 0855.39
2009/04/23 08:39:30.7    -122   -101    -15    159    160 230.4  -5.6  34028  287.35 0855.39
2009/04/23 08:39:30.8    -110   -165    -67    199    211 213.8 -18.7  34030  287.37 0855.39
2009/04/23 08:39:30.9     -89   -144    -25    170    172 211.6  -8.6  34030  287.37 0855.39
2009/04/23 08:39:31.0    -116   -112    -55    162    172 226.0 -18.9  34028  287.33 0855.39
2009/04/23 08:39:31.1    -110   -151    -79    188    203 216.1 -28.2  34030  287.37 0855.39
2009/04/23 08:39:31.2     -83   -162    -60    183    192 207.2 -23.8  34030  287.38 0855.39
2009/04/23 08:39:31.3     -59   -138    -43    151    157 203.2 -20.7  34028  287.35 0855.39
2009/04/23 08:39:31.4     -68   -117    -48    136    145 210.3 -19.7  34030  287.38 0855.39
2009/04/23 08:39:31.5     -52   -133    -41    143    149 201.4 -16.0  34032  287.42 0855.39
2009/04/23 08:39:31.6     -68   -182    -40    195    200 200.5 -11.6  34032  287.42 0855.39
2009/04/23 08:39:31.7     -86   -195    -66    214    225 203.7 -17.3  34034  287.43 0855.39
2009/04/23 08:39:31.8     -78   -136    -49    157    164 209.9 -22.8  34036  287.47 0855.39
2009/04/23 08:39:31.9     -34   -114    -40    120    126 196.9 -23.6  34036  287.47 0855.39
2009/04/23 08:39:32.0       8   -149      9    150    151 176.9   3.8  34034  287.43 0855.39
2009/04/23 08:39:32.1     -31   -155      3    159    160 191.6   1.2  34038  287.50 0855.39
2009/04/23 08:39:32.2     -41   -151      1    157    158 195.2   0.5  34040  287.55 0855.39
2009/04/23 08:39:32.3      -8   -148     -3    149    150 183.1  -1.2  34038  287.52 0855.39
2009/04/23 08:39:32.4     -12   -125     24    126    129 185.8  11.1  34038  287.52 0855.39
2009/04/23 08:39:32.5       0   -110     -4    111    112 180.4  -2.2  34042  287.57 0855.39
2009/04/23 08:39:32.6      16   -104     -1    106    107 171.1  -0.7  34040  287.54 0855.39
2009/04/23 08:39:32.7      18   -104    -36    106    111 169.8 -23.3  34038  287.52 0855.39
2009/04/23 08:39:32.8      14   -131    -47    132    141 173.8 -19.6  34038  287.52 0855.39
2009/04/23 08:39:32.9     -10   -159    -18    160    162 183.8  -6.7  34040  287.55 0855.39
2009/04/23 08:39:33.0      -6   -149    -43    150    157 182.6 -16.0  34040  287.54 0855.39
2009/04/23 08:39:33.1     -27   -182      8    185    186 188.5   2.5  34038  287.52 0855.39
2009/04/23 08:39:33.2     -19   -185     32    187    190 186.0   9.9  34040  287.54 0855.39
2009/04/23 08:39:33.3     -10   -159     11    160    161 183.6   4.2  34040  287.55 0855.39
2009/04/23 08:39:33.4     -24   -166     51    168    176 188.5  17.1  34034  287.45 0855.39
2009/04/23 08:39:33.5     -42   -170     77    176    192 194.0  25.1  34036  287.49 0855.39
2009/04/23 08:39:33.6     -33   -155     67    159    172 192.0  24.1  34036  287.47 0855.39
2009/04/23 08:39:33.7      -6   -138     62    139    152 182.6  25.7  34040  287.54 0855.39
2009/04/23 08:39:33.8     -11   -136     61    137    149 184.9  25.7  34036  287.49 0855.39
2009/04/23 08:39:33.9     -25   -114     69    117    135 192.5  33.5  34034  287.45 0855.39
2009/04/23 08:39:34.0     -31   -132     42    136    143 193.3  17.4  34036  287.49 0855.39
2009/04/23 08:39:34.1      24   -143     50    146    155 170.3  18.9  34036  287.49 0855.39
2009/04/23 08:39:34.2      85   -133     19    159    161 147.4   6.9  34038  287.50 0855.39
2009/04/23 08:39:34.3      97    -96     10    137    138 134.9   4.4  34038  287.50 0855.39
2009/04/23 08:39:34.4     117    -96     -3    152    153 129.5  -1.2  34038  287.52 0855.39
2009/04/23 08:39:34.5     112    -98     -5    150    151 131.3  -2.2  34038  287.50 0855.39
2009/04/23 08:39:34.6      87   -120    -34    149    153 143.9 -12.9  34040  287.55 0855.39
2009/04/23 08:39:34.7     139   -135    -94    195    216 134.2 -31.7  34038  287.52 0855.39
2009/04/23 08:39:34.8     122    -99    -78    158    176 129.1 -32.4  34038  287.50 0855.39
2009/04/23 08:39:34.9      96    -18    -54     98    111 100.6 -35.8  34038  287.50 0855.39
2009/04/23 08:39:35.0       9      2      4     10     10  74.9  23.0  34040  287.55 0855.39
2009/04/23 08:39:35.1     -21    -53     -4     58     59 201.8  -4.1  34038  287.52 0855.39
2009/04/23 08:39:35.2      13    -95    -28     96    101 172.0 -16.6  34036  287.47 0855.39
2009/04/23 08:39:35.3      48    -64     20     81     84 143.0  14.3  34038  287.50 0855.39
2009/04/23 08:39:35.4      -2    -70     -1     71     72 181.8  -1.3  34038  287.52 0855.39
2009/04/23 08:39:35.5     -24    -63      3     68     69 200.9   2.8  34038  287.50 0855.39
2009/04/23 08:39:35.6     -45    -59     19     75     78 217.8  14.7  34042  287.57 0855.39
2009/04/23 08:39:35.7     -49    -57     65     76    100 220.5  44.8  34038  287.52 0855.39
2009/04/23 08:39:35.8       4     -3     80      6     80 129.5  90.0  34036  287.49 0855.39
2009/04/23 08:39:35.9      -2    -56     89     57    105 182.7  64.6  34030  287.38 0855.39
2009/04/23 08:39:36.0     -45    -75     92     88    127 211.2  51.2  34036  287.49 0855.39
2009/04/23 08:39:36.1     -33    -60     71     69     99 209.0  50.7  34038  287.50 0855.39
2009/04/23 08:39:36.2      40    -63     32     75     81 147.4  24.1  34034  287.45 0855.39
2009/04/23 08:39:36.3      48    -23     10     54     56 115.4  11.1  34034  287.43 0855.39
2009/04/23 08:39:36.4      27    -24      7     37     38 131.3  11.0  34032  287.42 0855.39
2009/04/23 08:39:36.5      54     12     -7     56     57  77.6  -7.3  34034  287.43 0855.39
2009/04/23 08:39:36.7      47      0     16     48     51  90.0  18.4  34034  287.43 0855.39
2009/04/23 08:39:36.7      49     20     36     54     64  67.4  36.5  34034  287.45 0855.39
2009/04/23 08:39:36.8      47     22     23     53     57  64.6  25.1  34034  287.45 0855.39
2009/04/23 08:39:36.9      46     31     57     56     79  55.8  50.1  34036  287.47 0855.39
2009/04/23 08:39:37.0      28     31     66     43     78  42.3  64.6  34034  287.45 0855.39
2009/04/23 08:39:37.2      20     50     40     54     67  21.8  39.7  34036  287.47 0855.39
2009/04/23 08:39:37.3      26     75     40     80     89  19.2  28.2  34036  287.47 0855.39
2009/04/23 08:39:37.3      31     79     38     86     94  21.8  25.1  34034  287.45 0855.39
2009/04/23 08:39:37.4      24     71     33     76     82  19.2  24.6  34034  287.45 0855.39
2009/04/23 08:39:37.6      90     54     55    106    119  58.9  29.3  34034  287.43 0855.39
2009/04/23 08:39:37.7     136     32     54    140    150  76.7  22.0  34034  287.43 0855.38
2009/04/23 08:39:37.8     138     44     62    145    157  72.3  24.3  34032  287.40 0855.38
2009/04/23 08:39:37.9      79     79     95    112    146  45.0  44.3  34034  287.43 0855.38
2009/04/23 08:39:38.0      90     49     88    103    135  61.2  44.8  34034  287.43 0855.38
2009/04/23 08:39:38.1     112     18     89    114    144  80.8  41.7  34036  287.47 0855.38
2009/04/23 08:39:38.2     129     31     70    133    150  76.3  29.8  34036  287.47 0855.38
2009/04/23 08:39:38.3     120     39     57    127    139  71.8  26.2  34036  287.47 0855.38
2009/04/23 08:39:38.4     107     35     77    113    136  71.4  37.4  34038  287.50 0855.38
2009/04/23 08:39:38.5     115     16     70    117    136  82.1  34.0  34038  287.52 0855.38
2009/04/23 08:39:38.6      89     19     79     92    121  77.6  45.4  34036  287.47 0855.38
2009/04/23 08:39:38.7      79     26     70     84    109  71.6  43.8  34034  287.45 0855.38
2009/04/23 08:39:38.8      65     41     71     78    105  57.5  47.5  34032  287.42 0855.38
2009/04/23 08:39:38.9      76     54     82     94    124  54.5  45.8  34032  287.40 0855.38
2009/04/23 08:39:39.0      75     38     62     85    105  62.9  39.7  34036  287.47 0855.38
2009/04/23 08:39:39.1      98     -4     82     99    128  92.6  43.8  34038  287.50 0855.38
2009/04/23 08:39:39.2     114     -8     62    115    130  94.3  30.8  34040  287.55 0855.38
2009/04/23 08:39:39.3     113      5     47    114    123  87.0  23.1  34042  287.59 0855.38
2009/04/23 08:39:39.4      96      0     59     97    113  89.6  35.5  34042  287.59 0855.38
2009/04/23 08:39:39.5     123     37     51    129    138  73.1  23.0  34046  287.64 0855.38
2009/04/23 08:39:39.6     151     11     57    152    162  85.7  21.3  34040  287.55 0855.38
2009/04/23 08:39:39.7     160    -15     74    161    177  95.7  26.4  34040  287.54 0855.38
2009/04/23 08:39:39.8     112    -33    103    117    155 106.4  46.2  34042  287.57 0855.38
2009/04/23 08:39:39.9     136    -36     87    141    165 105.0  35.0  34040  287.54 0855.38
2009/04/23 08:39:40.0     104     -7     89    105    137  94.3  44.8  34044  287.60 0855.38
2009/04/23 08:39:40.1      48     12    106     50    117  75.8  73.1  34042  287.57 0855.38
2009/04/23 08:39:40.2      87     19    104     90    137  77.6  54.3  34042  287.59 0855.38
2009/04/23 08:39:40.3     114     30    105    119    158  75.0  46.4  34042  287.59 0855.38
2009/04/23 08:39:40.4     101    100     88    143    167  45.1  34.8  34040  287.55 0855.38
2009/04/23 08:39:40.5     129     82    135    153    204  57.5  45.9  34046  287.64 0855.38
2009/04/23 08:39:40.6     111     97    100    148    178  48.7  37.3  34056  287.81 0855.38
2009/04/23 08:39:40.7      94    104    117    141    183  42.3  43.8  34046  287.65 0855.38
2009/04/23 08:39:40.8      85     69    106    110    152  50.9  49.4  34046  287.65 0855.38
2009/04/23 08:39:40.9      48     85    114     98    150  29.4  55.4  34048  287.69 0855.38
2009/04/23 08:39:41.0      76    119     91    142    168  32.5  35.6  34052  287.76 0855.38
2009/04/23 08:39:41.1      76    100     93    126    156  37.4  40.4  34054  287.77 0855.38
2009/04/23 08:39:41.2     122     62    107    137    173  63.0  42.2  34048  287.69 0855.38
2009/04/23 08:39:41.3     123     78    113    146    184  57.6  41.7  34054  287.77 0855.38
2009/04/23 08:39:41.4     122     36    118    128    174  73.2  47.9  34040  287.54 0855.38
2009/04/23 08:39:41.5      62      7    102     63    119  83.0  65.7  34040  287.55 0855.38
2009/04/23 08:39:41.6      32    -12    119     35    124 111.7  82.8  34042  287.59 0855.38
2009/04/23 08:39:41.7     -24    -21    101     32    105 228.7  81.2  34046  287.64 0855.37
2009/04/23 08:39:41.8     -44    -22    120     50    130 243.8  76.1  34044  287.60 0855.37
2009/04/23 08:39:41.9      -9    -14     91     17     92 212.5  89.6  34040  287.54 0855.37
2009/04/23 08:39:42.0      77    -13     81     79    113  99.7  50.1  34036  287.49 0855.37
2009/04/23 08:39:42.1      34     -6     89     35     95 101.5  77.6  34038  287.52 0855.37
2009/04/23 08:39:42.2      79     23    101     83    130  73.6  56.4  34044  287.62 0855.37
2009/04/23 08:39:42.3      83     27    122     88    150  71.8  60.5  34044  287.62 0855.37
2009/04/23 08:39:42.4      81     30    127     87    153  69.2  62.6  34040  287.55 0855.37
2009/04/23 08:39:42.5      61     21     97     65    116  70.9  63.6  34042  287.59 0855.37
2009/04/23 08:39:42.6      19      7     75     21     77  68.3  83.9  34042  287.57 0855.37
2009/04/23 08:39:42.7      23      0     57     24     61  90.0  77.0  34042  287.59 0855.37
2009/04/23 08:39:42.8      65     13     72     67     98  78.6  52.2  34042  287.57 0855.37
2009/04/23 08:39:42.9      85     45     65     97    116  62.0  36.5  34044  287.60 0855.37
2009/04/23 08:39:43.0     128     76     29    149    152  59.3  11.1  34072  288.09 0855.37
2009/04/23 08:39:43.1     105     74     33    129    134  54.5  14.7  34076  288.14 0855.37
2009/04/23 08:39:43.2      95     51     43    109    117  61.6  22.5  34056  287.81 0855.37
2009/04/23 08:39:43.3      76     28     45     82     93  69.6  30.8  34046  287.64 0855.37
2009/04/23 08:39:43.4      77     35     63     85    105  65.6  40.1  34042  287.57 0855.37
2009/04/23 08:39:43.5      46     31     65     56     85  55.8  54.8  34040  287.55 0855.37
2009/04/23 08:39:43.6      22     22     49     32     58  45.1  64.6  34046  287.65 0855.37
2009/04/23 08:39:43.7      52     31     66     61     89  59.3  52.2  34054  287.79 0855.38
2009/04/23 08:39:43.8     106     37     62    113    128  70.5  31.3  34054  287.79 0855.38
2009/04/23 08:39:43.9     113     75     39    136    142  56.3  16.3  34050  287.70 0855.38
2009/04/23 08:39:44.0     125     35     88    131    157  74.1  37.0  34050  287.72 0855.38
2009/04/23 08:39:44.1     128     10     69    129    146  85.2  30.8  34056  287.81 0855.38
2009/04/23 08:39:44.2     103      5     68    104    124  87.0  36.0  34058  287.86 0855.38
2009/04/23 08:39:44.3     114     23     45    117    125  78.5  22.0  34054  287.77 0855.38
2009/04/23 08:39:44.4     122     59     65    136    150  64.2  27.2  34048  287.67 0855.38
2009/04/23 08:39:44.5     154     65    130    168    212  67.2  41.7  34058  287.84 0855.38
2009/04/23 08:39:44.6     167     77    157    185    242  65.2  44.8  34070  288.04 0855.38
2009/04/23 08:39:44.7     100     68    119    122    170  55.8  49.8  34066  287.98 0855.38
2009/04/23 08:39:44.8      98     62    117    117    165  57.6  50.1  34050  287.70 0855.38
2009/04/23 08:39:44.9     128     81    140    152    206  57.5  47.7  34042  287.59 0855.38
2009/04/23 08:39:45.0     119     24    110    122    164  78.5  46.9  34042  287.59 0855.38
2009/04/23 08:39:45.1     113     49     56    124    136  66.5  26.2  34050  287.70 0855.38
2009/04/23 08:39:45.2      97     35    108    104    149  70.0  50.7  34048  287.69 0855.38
2009/04/23 08:39:45.3     124     38    140    130    191  72.7  52.2  34048  287.67 0855.38
2009/04/23 08:39:45.4     125    120    100    174    200  46.0  32.7  34050  287.72 0855.38
2009/04/23 08:39:45.5     196     54    125    204    239  74.5  34.4  34042  287.59 0855.38
2009/04/23 08:39:45.6      -1    -53     80     54     96 181.8  63.2  34044  287.62 0855.38
2009/04/23 08:39:45.7     -52    -50    122     73    142 226.0  66.7  34046  287.65 0855.38
2009/04/23 08:39:45.8     -38   -100    148    108    183 200.9  60.5  34046  287.65 0855.38
2009/04/23 08:39:45.9     -60   -126    138    140    196 205.5  49.9  34046  287.64 0855.38
2009/04/23 08:39:46.0     -32    -96    136    102    170 198.3  59.2  34044  287.60 0855.38
2009/04/23 08:39:46.1     -22   -110    105    113    154 191.6  48.0  34044  287.60 0855.38
2009/04/23 08:39:46.2     -16    -98     98    100    140 189.8  50.0  34044  287.62 0855.38
2009/04/23 08:39:46.3     -12    -92    102     93    138 188.0  52.2  34044  287.62 0855.38
2009/04/23 08:39:46.4      -4    -93    101     94    137 182.7  52.2  34044  287.62 0855.38
2009/04/23 08:39:46.5     -26   -127    107    130    168 191.6  43.7  34044  287.62 0855.38
2009/04/23 08:39:46.6     -61   -157    104    169    198 201.4  34.4  34046  287.65 0855.38
2009/04/23 08:39:46.7     -52   -159    112    168    201 198.3  36.7  34048  287.69 0855.38
2009/04/23 08:39:46.8     -13   -175    121    176    213 184.4  37.6  34048  287.67 0855.38
2009/04/23 08:39:46.9     -12   -184    142    185    233 184.0  41.4  34046  287.64 0855.38
2009/04/23 08:39:47.0     -38   -169    140    174    223 192.9  43.3  34048  287.67 0855.38
2009/04/23 08:39:47.1     -13   -178    162    179    241 184.5  46.9  34046  287.65 0855.38
2009/04/23 08:39:47.2     -10   -163    150    164    222 183.8  47.7  34048  287.67 0855.38
2009/04/23 08:39:47.3     -15   -137    124    138    185 186.3  46.6  34046  287.64 0855.38
2009/04/23 08:39:47.4     -43   -132     88    140    165 198.3  35.5  34046  287.64 0855.38
2009/04/23 08:39:47.5     -11    -91     49     92    104 187.1  30.8  34044  287.60 0855.38
2009/04/23 08:39:47.6      39   -118     96    125    157 161.5  41.7  34046  287.64 0855.38
2009/04/23 08:39:47.7      49   -128    122    138    184 159.1  46.2  34044  287.60 0855.38
2009/04/23 08:39:47.8      27   -101    115    105    155 164.8  52.2  34044  287.62 0855.38
2009/04/23 08:39:47.9      20   -109     74    111    133 169.3  36.5  34046  287.64 0855.38
2009/04/23 08:39:48.0       0    -93     60     94    111 180.0  35.6  34046  287.64 0855.38
2009/04/23 08:39:48.1      26    -87     74     92    118 163.1  43.7  34044  287.60 0855.38
2009/04/23 08:39:48.2      13    -77     47     79     91 170.2  34.0  34044  287.60 0855.38
2009/04/23 08:39:48.3      33    -79     37     86     93 157.3  24.6  34044  287.60 0855.38
2009/04/23 08:39:48.4      51    -64     44     83     93 141.3  30.3  34044  287.60 0855.38
2009/04/23 08:39:48.5      74    -40     25     85     89 118.4  16.8  34044  287.62 0855.38
2009/04/23 08:39:48.6      50    -53      3     74     75 136.8   2.9  34044  287.62 0855.38
2009/04/23 08:39:48.7      74    -35     11     83     84 115.4   8.0  34046  287.64 0855.38
2009/04/23 08:39:48.8      67    -13     32     69     76 101.5  27.1  34044  287.60 0855.38
2009/04/23 08:39:48.9      31    -31     49     45     66 135.0  52.2  34044  287.62 0855.38
2009/04/23 08:39:49.0      44    -29     81     53     96 123.3  64.6  34046  287.64 0855.38
2009/04/23 08:39:49.1      57     48     92     75    118  49.6  56.4  34042  287.57 0855.38
2009/04/23 08:39:49.2      78     55    103     96    140  54.5  52.2  34042  287.57 0855.38
2009/04/23 08:39:49.3     122     55    117    135    178  65.6  45.4  34044  287.60 0855.38
2009/04/23 08:39:49.4      90     11     99     91    134  82.5  52.2  34040  287.55 0855.38
2009/04/23 08:39:49.5     132     22     53    134    144  80.3  23.0  34046  287.64 0855.38
2009/04/23 08:39:49.6      94      5     36     95    101  86.5  21.5  34048  287.67 0855.38
2009/04/23 08:39:49.7      63     40     35     75     82  57.6  26.6  34048  287.69 0855.36
2009/04/23 08:39:49.8      81     12     69     82    107  81.2  44.3  34044  287.60 0855.36
2009/04/23 08:39:49.9      56    -83     82    101    130 145.7  43.7  34046  287.64 0855.36
2009/04/23 08:39:50.0      43   -157     93    163    187 164.6  32.4  34046  287.64 0855.36
2009/04/23 08:39:50.1      65   -158    104    171    200 157.5  34.0  34046  287.65 0855.36
2009/04/23 08:39:50.2      40   -136    100    142    173 163.5  38.6  34046  287.65 0855.36
2009/04/23 08:39:50.3      48   -120    103    130    165 158.1  42.4  34046  287.64 0855.36
2009/04/23 08:39:50.4      47   -128    102    137    170 159.5  40.4  34048  287.69 0855.36
2009/04/23 08:39:50.5      25   -102    105    106    149 166.2  50.0  34046  287.64 0855.36
2009/04/23 08:39:50.6      23    -48    105     54    118 153.7  71.0  34046  287.64 0855.36
2009/04/23 08:39:50.7      -9    -19     85     22     87 205.4  85.4  34048  287.69 0855.36
2009/04/23 08:39:50.8       8   -102    102    103    144 175.5  50.0  34046  287.65 0855.36
2009/04/23 08:39:50.9      -6   -149    109    150    185 182.6  39.7  34046  287.65 0855.36
2009/04/23 08:39:51.0     -13   -123     98    124    158 186.2  42.4  34042  287.57 0855.36
2009/04/23 08:39:51.1     -40   -107     62    115    130 200.5  30.8  34040  287.55 0855.36
2009/04/23 08:39:51.2      45    -37     54     59     79 129.5  47.9  34046  287.65 0855.36
2009/04/23 08:39:51.3      48    -58     80     76    110 140.4  51.6  34046  287.64 0855.36
2009/04/23 08:39:51.4      -2    -89    112     90    143 181.8  56.9  34044  287.62 0855.36
2009/04/23 08:39:51.5      28    -18     60     34     68 122.5  67.7  34046  287.64 0855.36
2009/04/23 08:39:51.6     -40    -44     81     60    100 222.3  60.0  34046  287.65 0855.36
2009/04/23 08:39:51.7     -45    -36     85     58    102 231.4  62.6  34046  287.64 0855.37
2009/04/23 08:39:51.8     -70    -70     81    100    128 225.0  43.7  34044  287.62 0855.37
2009/04/23 08:39:51.9     -68   -147     -4    163    164 204.9  -1.6  34044  287.60 0855.37
2009/04/23 08:39:52.0     -79   -143     -6    164    165 209.2  -2.2  34040  287.55 0855.37
2009/04/23 08:39:52.1     -31   -147     58    151    161 192.0  22.0  34044  287.60 0855.37
2009/04/23 08:39:52.2     -38   -188    123    192    228 191.6  35.6  34046  287.65 0855.37
2009/04/23 08:39:52.3     -76   -206     79    220    233 200.5  20.2  34044  287.62 0855.37
2009/04/23 08:39:52.4     -48   -203    140    209    251 193.4  36.7  34048  287.66 0855.37
2009/04/23 08:39:52.5     -64   -211    127    221    254 196.9  32.4  34046  287.65 0855.37
2009/04/23 08:39:52.6     -78   -165    131    183    225 205.4  39.5  34046  287.65 0855.37
2009/04/23 08:39:52.7    -122   -196    107    232    255 211.9  26.4  34046  287.63 0855.37
2009/04/23 08:39:52.8    -124   -179    123    219    251 214.7  32.1  34048  287.68 0855.37
2009/04/23 08:39:52.9    -212   -211    124    300    324 225.1  23.8  34046  287.63 0855.37
2009/04/23 08:39:53.0    -218   -150     98    265    282 235.4  21.0  34046  287.63 0855.37
2009/04/23 08:39:53.1    -213    -74    -45    226    231 250.7 -11.3  34044  287.62 0855.37
2009/04/23 08:39:53.2    -210     55   -108    218    243 284.6 -32.6  34044  287.61 0855.37
2009/04/23 08:39:53.3    -229    -77    -39    242    246 251.4  -9.3  34044  287.61 0855.37
2009/04/23 08:39:53.4    -220    -82    -42    236    240 249.4 -10.3  34048  287.68 0855.37
2009/04/23 08:39:53.5    -153    -31    -67    157    170 258.6 -29.0  34048  287.67 0855.37
2009/04/23 08:39:53.6    -105    -42     -6    114    115 248.3  -3.1  34044  287.62 0855.37
2009/04/23 08:39:53.7    -151    -11    -30    152    156 265.6 -11.3  34044  287.62 0855.37
2009/04/23 08:39:53.8     -64    -81      6    104    105 218.3   3.8  34046  287.64 0855.37
2009/04/23 08:39:53.9     -54   -110      5    123    124 206.3   2.3  34044  287.62 0855.37
2009/04/23 08:39:54.0     -39    -83     49     92    104 205.4  30.8  34044  287.60 0855.37
2009/04/23 08:39:54.1     -47    -99     20    110    112 205.4  10.6  34046  287.65 0855.37
2009/04/23 08:39:54.2     -52   -111     33    123    128 205.5  15.3  34046  287.64 0855.37
2009/04/23 08:39:54.3     -49    -72     20     88     91 214.3  13.2  34042  287.57 0855.37
2009/04/23 08:39:54.4     -30    -26     24     40     46 228.7  34.4  34038  287.52 0855.37
2009/04/23 08:39:54.5     -50    -16     31     53     61 252.3  33.5  34038  287.52 0855.37
2009/04/23 08:39:54.6     -50      0     31     51     59 270.0  34.4  34038  287.52 0855.37
2009/04/23 08:39:54.7     -57     47     41     75     85 309.6  31.4  34042  287.59 0855.36
2009/04/23 08:39:54.8     -52     55     44     76     87 316.7  32.9  34040  287.55 0855.36
2009/04/23 08:39:54.9     -48     68     34     84     90 324.8  23.6  34040  287.54 0855.36
2009/04/23 08:39:55.0     -70     54     49     89    101 307.8  31.4  34038  287.52 0855.36
2009/04/23 08:39:55.1    -106    -11     36    107    114 263.9  18.9  34038  287.52 0855.36
2009/04/23 08:39:55.2     -95    -10     36     96    102 263.9  21.5  34042  287.57 0855.36
2009/04/23 08:39:55.3     -71    -24      9     76     77 250.9   6.9  34040  287.55 0855.36
2009/04/23 08:39:55.4     -60    -18    -17     63     66 253.2 -15.4  34042  287.57 0855.36
2009/04/23 08:39:55.5     -55    -17    -15     58     60 252.3 -14.5  34042  287.59 0855.36
2009/04/23 08:39:55.6     -55     -9    -11     56     58 260.3 -11.3  34042  287.57 0855.36
2009/04/23 08:39:55.7     -30      0    -10     31     32 270.0 -23.8  34044  287.60 0855.36
2009/04/23 08:39:55.8     -16      0    -17     17     24 270.0 -54.5  34044  287.60 0855.36
2009/04/23 08:39:55.9     -17     -7    -23     19     29 248.3 -60.8  34044  287.60 0855.36
2009/04/23 08:39:56.0     -14    -32    -19     35     39 203.6 -35.8  34044  287.60 0855.36
2009/04/23 08:39:56.1     -15    -44    -11     47     49 198.7 -13.4  34044  287.62 0855.36
2009/04/23 08:39:56.2      13    -44     -7     47     48 163.1  -9.3  34044  287.60 0855.36
2009/04/23 08:39:56.3      -1    -35     -8     36     38 182.6 -13.4  34044  287.60 0855.36
2009/04/23 08:39:56.4       1    -30     -4     31     32 177.3  -7.3  34042  287.59 0855.36
2009/04/23 08:39:56.5       0    -30     14     31     34 179.1  25.1  34040  287.55 0855.36
2009/04/23 08:39:56.6      -1    -30     19     31     36 182.6  35.5  34040  287.55 0855.36
2009/04/23 08:39:56.7      10     -2     16     11     19 105.1  64.6  34042  287.57 0855.37
2009/04/23 08:39:56.8       0      1     21      2     21  18.5  90.0  34042  287.57 0855.37
2009/04/23 08:39:56.9       0     -7     18      8     19 182.7  77.1  34042  287.59 0855.37
2009/04/23 08:39:57.0     -19    -19     25     27     36 225.1  50.0  34042  287.57 0855.37
2009/04/23 08:39:57.1     -19    -30     22     36     42 212.5  34.4  34042  287.57 0855.37
2009/04/23 08:39:57.2     -20    -30     24     37     44 214.3  36.5  34042  287.59 0855.37
2009/04/23 08:39:57.3      -4    -14     28     15     31 198.5  70.8  34044  287.60 0855.37
2009/04/23 08:39:57.4      10     -2     16     11     19 105.1  64.6  34042  287.57 0855.37
2009/04/23 08:39:57.5      12      0     19     13     23  90.0  60.5  34044  287.60 0855.37
2009/04/23 08:39:57.6       6      0     22      7     23  90.0  80.7  34044  287.62 0855.37
2009/04/23 08:39:57.7      29     -1     23     30     37  92.6  41.7  34042  287.59 0855.37
2009/04/23 08:39:57.8      20    -32     35     38     51 147.5  47.9  34046  287.64 0855.37
2009/04/23 08:39:57.9      48    -24     24     54     59 117.1  25.1  34044  287.60 0855.37
2009/04/23 08:39:58.0      44    -47     31     65     72 136.7  27.2  34044  287.62 0855.37
2009/04/23 08:39:58.1      20    -65     46     69     82 163.1  37.0  34044  287.62 0855.37
2009/04/23 08:39:58.2      26    -87     74     92    118 163.1  43.7  34044  287.60 0855.37
2009/04/23 08:39:58.3       7    -99     44    100    109 176.0  25.7  34046  287.64 0855.37
2009/04/23 08:39:58.4       6   -129     33    130    135 177.3  14.3  34044  287.60 0855.37
2009/04/23 08:39:58.5      -7   -113     73    114    135 184.0  35.6  34046  287.64 0855.37
2009/04/23 08:39:58.6      -8   -122    120    123    171 184.0  49.4  34044  287.62 0855.37
2009/04/23 08:39:58.7     -15   -117    107    119    160 187.6  46.6  34046  287.64 0855.38
2009/04/23 08:39:58.8      29    -45    108     54    120 147.5  71.4  34046  287.64 0855.38
2009/04/23 08:39:58.9     141   -198    200    244    315 144.6  43.6  34042  287.58 0855.38
2009/04/23 08:39:59.0     120   -267    217    293    364 155.7  40.1  34044  287.62 0855.38
2009/04/23 08:39:59.1     102   -233    183    255    313 156.4  39.3  34044  287.61 0855.38
2009/04/23 08:39:59.2     121   -191     78    227    241 147.5  18.9  34046  287.65 0855.38
2009/04/23 08:39:59.3     198   -211     15    290    291 136.8   3.1  34044  287.61 0855.38
2009/04/23 08:39:59.4     106   -237     50    260    265 155.9  11.0  34044  287.61 0855.38
2009/04/23 08:39:59.5     111   -181     40    213    217 148.4  10.8  34044  287.60 0855.38
2009/04/23 08:39:59.6     105   -278     81    298    309 159.3  15.3  34044  287.61 0855.38
2009/04/23 08:39:59.7      85   -332    152    343    375 165.5  25.3  34044  287.62 0855.38
2009/04/23 08:39:59.8      94   -323    130    337    361 163.7  22.2  34046  287.64 0855.38
2009/04/23 08:39:59.9     -22   -346    133    347    371 183.8  22.3  34044  287.62 0855.38
2009/04/23 08:40:00.0     -30   -324    118    326    346 185.3  20.6  34044  287.61 0855.38
2009/04/23 08:40:00.1     -46   -308    108    312    331 188.5  19.2  34042  287.58 0855.38
2009/04/23 08:40:00.2     -41   -330    131    333    357 187.2  22.7  34042  287.56 0855.38
2009/04/23 08:40:00.3      -1   -309    111    310    329 180.2  20.3  34046  287.63 0855.38
2009/04/23 08:40:00.4     103   -356    189    371    416 163.9  29.2  34042  287.57 0855.38
2009/04/23 08:40:00.5     168   -263     96    313    328 147.4  17.0  34044  287.61 0855.38
2009/04/23 08:40:00.6     109   -257    -35    280    283 157.1  -7.2  34044  287.61 0855.38
2009/04/23 08:40:00.7     144   -237    -55    278    284 148.8 -11.3  34042  287.58 0855.38
2009/04/23 08:40:00.8     102   -304    -21    321    322 161.3  -3.8  34040  287.55 0855.38
2009/04/23 08:40:00.9     175   -326     44    371    374 151.8   6.8  34044  287.61 0855.38
2009/04/23 08:40:01.0      78   -378    105    387    402 168.3  15.2  34044  287.62 0855.38
2009/04/23 08:40:01.1     -68   -405    118    411    428 189.6  16.0  34046  287.63 0855.38
2009/04/23 08:40:01.2    -110   -430     68    444    450 194.4   8.8  34044  287.60 0855.38
2009/04/23 08:40:01.3     -37   -500    124    502    518 184.3  13.9  34044  287.61 0855.38
2009/04/23 08:40:01.4      85   -409    153    418    445 168.2  21.0  34038  287.52 0855.38
2009/04/23 08:40:01.5      59   -382    153    387    416 171.1  22.9  34040  287.53 0855.38
2009/04/23 08:40:01.6       1   -322    -89    323    335 179.7 -20.0  34038  287.51 0855.38
2009/04/23 08:40:01.7      21   -320    -68    321    329 176.2 -12.0  34036  287.48 0855.38
2009/04/23 08:40:01.8    -148   -366     35    396    398 202.1   5.1  34040  287.54 0855.38
2009/04/23 08:40:01.9    -136   -502    121    521    535 195.2  13.1  34042  287.59 0855.38
2009/04/23 08:40:02.0    -157   -553    147    575    594 195.9  14.4  34044  287.60 0855.38
2009/04/23 08:40:02.1    -259   -483    111    549    561 208.2  11.5  34042  287.57 0855.38
2009/04/23 08:40:02.2    -130   -363     70    386    393 199.7  10.4  34042  287.57 0855.38
2009/04/23 08:40:02.3    -135   -357    226    382    443 200.8  33.5  34040  287.55 0855.38
2009/04/23 08:40:02.4    -219   -320    178    388    426 214.4  26.5  34046  287.63 0855.38
2009/04/23 08:40:02.5    -302   -323     46    443    446 223.1   6.0  34042  287.58 0855.38
2009/04/23 08:40:02.6    -299   -358     -4    467    468 219.9  -0.5  34042  287.59 0855.38
2009/04/23 08:40:02.7    -428   -428     -7    606    607 225.0  -0.7  34036  287.46 0855.38
2009/04/23 08:40:02.8    -393   -232     19    457    458 239.5   2.4  34024  287.28 0855.38
2009/04/23 08:40:02.9    -420   -143   -130    444    463 251.2 -16.4  34028  287.35 0855.38
2009/04/23 08:40:03.0    -149    -91   -175    175    247 238.5 -54.5  34030  287.38 0855.38
2009/04/23 08:40:03.1     -48   -131     60    140    152 200.1  24.6  34030  287.38 0855.38
2009/04/23 08:40:03.2      30   -198    118    201    233 171.3  33.4  34034  287.45 0855.38
2009/04/23 08:40:03.3     -76   -326    102    335    351 193.2  17.0  34038  287.51 0855.38
2009/04/23 08:40:03.4     -61   -257     91    265    281 193.4  18.9  34038  287.50 0855.38
2009/04/23 08:40:03.5     -97   -119      3    154    155 219.2   1.2  34040  287.54 0855.38
2009/04/23 08:40:03.6     -98   -107     22    146    148 222.3   8.9  34040  287.54 0855.38
2009/04/23 08:40:03.7     -38   -174     83    179    197 192.3  26.6  34040  287.55 0855.38
2009/04/23 08:40:03.8     -59   -131    117    144    185 204.5  43.5  34040  287.54 0855.38
2009/04/23 08:40:04.0    -111     -5      6    112    113 267.4   3.3  34040  287.54 0855.38
2009/04/23 08:40:04.1     -12     20      0     24     25 327.5  -2.2  34042  287.57 0855.38
2009/04/23 08:40:04.2      -1     26     11     27     29 357.3  21.0  34040  287.54 0855.38
2009/04/23 08:40:04.3       7    -53     -6     54     55 172.0  -7.2  34038  287.52 0855.38
2009/04/23 08:40:04.4      -9    -84    -30     85     90 186.7 -23.8  34042  287.57 0855.38
2009/04/23 08:40:04.5     -39   -112    -40    119    125 199.6 -23.6  34038  287.52 0855.38
2009/04/23 08:40:04.6      25   -103     28    107    111 166.2  14.7  34038  287.52 0855.38
2009/04/23 08:40:04.7     -91   -110      4    143    144 219.6   1.8  34036  287.49 0855.38
2009/04/23 08:40:04.8     -92   -198     27    219    221 204.9   7.1  34038  287.52 0855.39
2009/04/23 08:40:04.9       4   -183    -10    184    185 178.6  -3.2  34038  287.52 0855.39
2009/04/23 08:40:05.0     -20   -146     -5    148    149 188.0  -2.2  34036  287.49 0855.39
2009/04/23 08:40:05.1     137    -96     59    168    179 125.1  19.6  34038  287.52 0855.39
2009/04/23 08:40:05.2     186   -126     61    225    234 124.1  15.2  34038  287.50 0855.39
2009/04/23 08:40:05.3     205   -131     76    244    256 122.5  17.3  34040  287.53 0855.39
2009/04/23 08:40:05.4     188    -63     44    199    204 108.6  12.6  34038  287.52 0855.39
2009/04/23 08:40:05.5     135   -113     34    177    181 130.0  11.1  34040  287.54 0855.39
2009/04/23 08:40:05.6     144   -160    138    216    256 138.1  35.6  34038  287.51 0855.39
2009/04/23 08:40:05.7      88   -112     98    143    173 141.7  37.6  34038  287.52 0855.39
2009/04/23 08:40:05.8      58   -174     43    184    189 161.5  13.2  34038  287.50 0855.39
2009/04/23 08:40:05.9      78   -161     45    180    186 154.1  14.3  34036  287.47 0855.39
2009/04/23 08:40:06.0      30   -135     27    139    142 167.5  11.1  34038  287.52 0855.39
2009/04/23 08:40:06.1      51   -179    104    187    213 164.0  31.4  34036  287.49 0855.39
2009/04/23 08:40:06.2     123   -258     56    286    292 154.5  11.1  34040  287.55 0855.39
2009/04/23 08:40:06.3     133   -269    -20    301    302 153.7  -3.9  34038  287.50 0855.39
2009/04/23 08:40:06.4     182   -230     35    294    297 141.7   6.9  34040  287.53 0855.39
2009/04/23 08:40:06.5       7   -336    -30    337    339 178.8  -5.2  34038  287.51 0855.39
2009/04/23 08:40:06.6     -27   -414    -21    415    416 183.8  -3.0  34034  287.43 0855.39
2009/04/23 08:40:06.7     -12   -371    153    372    402 181.9  23.7  34038  287.51 0855.39
2009/04/23 08:40:06.8      80   -333    151    343    374 166.5  25.2  34038  287.51 0855.40
2009/04/23 08:40:06.9      37   -473    208    475    518 175.5  25.2  34036  287.46 0855.40
2009/04/23 08:40:07.0       0   -552    221    553    595 180.1  23.0  34040  287.53 0855.40
2009/04/23 08:40:07.1     131   -558    188    574    605 166.7  18.1  34040  287.55 0855.40
2009/04/23 08:40:07.2      76   -449    107    456    469 170.3  13.2  34036  287.49 0855.40
2009/04/23 08:40:07.3       0   -559    152    560    581 180.0  15.2  34036  287.49 0855.40
2009/04/23 08:40:07.4     -63   -487    -41    492    494 187.5  -4.9  34036  287.47 0855.40
2009/04/23 08:40:07.5       6   -389   -108    390    405 179.1 -15.5  34032  287.40 0855.40
2009/04/23 08:40:07.6      91   -302    142    316    346 163.1  25.9  34038  287.51 0855.40
2009/04/23 08:40:07.7      80   -185    179    202    269 156.4  45.9  34036  287.46 0855.40
2009/04/23 08:40:07.8      77   -139     87    160    182 151.0  31.0  34036  287.49 0855.40
2009/04/23 08:40:07.9      61   -112     -2    128    129 151.1  -1.2  34038  287.50 0855.40
2009/04/23 08:40:08.0       4   -164     30    165    168 178.4  10.6  34036  287.49 0855.40
2009/04/23 08:40:08.1     -31   -358     23    360    361 185.1   3.8  34042  287.59 0855.40
2009/04/23 08:40:08.2      50   -332    -16    336    337 171.3  -2.8  34034  287.45 0855.40
2009/04/23 08:40:08.3      97   -273     27    290    292 160.4   5.4  34034  287.43 0855.40
2009/04/23 08:40:08.4     184   -230    110    295    314 141.3  21.4  34038  287.50 0855.40
2009/04/23 08:40:08.5      24   -291    127    293    319 175.1  25.0  34040  287.55 0855.40
2009/04/23 08:40:08.6      68   -272    107    281    300 165.8  22.0  34038  287.51 0855.40
2009/04/23 08:40:08.7      33   -306     15    308    309 173.8   2.8  34036  287.48 0855.40
2009/04/23 08:40:08.8     112   -189    134    220    257 149.2  34.4  34042  287.56 0855.40
2009/04/23 08:40:08.9     150   -415     95    442    453 160.1  12.2  34038  287.52 0855.40
2009/04/23 08:40:09.0      12   -531     30    532    533 178.6   3.3  34038  287.50 0855.40
2009/04/23 08:40:09.1      57   -411    -16    416    417 172.0  -2.2  34042  287.57 0855.40
2009/04/23 08:40:09.2     113   -402     37    418    420 164.3   5.1  34038  287.52 0855.40
2009/04/23 08:40:09.3     119   -412     92    429    439 163.9  12.1  34036  287.48 0855.40
2009/04/23 08:40:09.4     181   -463     60    498    502 158.6   6.9  34040  287.53 0855.40
2009/04/23 08:40:09.5     155   -350    -89    383    394 156.1 -13.1  34034  287.45 0855.40
2009/04/23 08:40:09.6     188   -334     -6    384    385 150.6  -0.9  34034  287.44 0855.40
2009/04/23 08:40:09.7     223   -348     36    414    416 147.4   5.0  34038  287.50 0855.40
2009/04/23 08:40:09.8     256   -256    171    363    401 135.0  27.1  34032  287.40 0855.40
2009/04/23 08:40:09.9     374   -177    204    415    462 115.4  28.0  34040  287.55 0855.40
2009/04/23 08:40:10.0     217   -272    227    349    416 141.4  36.2  34036  287.47 0855.40
2009/04/23 08:40:10.1     207   -270      0    341    342 142.5   0.1  34036  287.49 0855.40
2009/04/23 08:40:10.2     205   -274     96    343    357 143.3  15.7  34030  287.37 0855.40
2009/04/23 08:40:10.3     226   -212    120    311    333 133.1  22.3  34040  287.55 0855.40
2009/04/23 08:40:10.4     275   -275    100    389    402 135.0  14.5  34036  287.47 0855.40
2009/04/23 08:40:10.5     369   -351    136    510    528 133.6  15.0  34036  287.48 0855.40
2009/04/23 08:40:10.6     298   -389    135    491    510 142.5  15.4  34038  287.51 0855.40
2009/04/23 08:40:10.7     291   -277     99    402    415 133.6  13.9  34042  287.57 0855.40
2009/04/23 08:40:10.8     274   -290    145    400    426 136.6  19.9  34042  287.57 0855.40
2009/04/23 08:40:10.9     326   -341    152    472    497 136.3  17.9  34040  287.54 0855.40
2009/04/23 08:40:11.0     271   -209    152    343    375 127.6  25.3  34032  287.42 0855.40
2009/04/23 08:40:11.1     289   -211    158    358    391 126.1  25.2  34042  287.57 0855.40
2009/04/23 08:40:11.2     357   -211     96    415    427 120.7  13.1  34042  287.58 0855.40
2009/04/23 08:40:11.3     353   -232     43    423    426 123.4   5.8  34038  287.52 0855.40
2009/04/23 08:40:11.4     269   -152     15    310    311 119.5   2.9  34038  287.50 0855.40
2009/04/23 08:40:11.5     248    -83     73    262    273 108.6  15.6  34040  287.55 0855.40
2009/04/23 08:40:11.6     257    -69    -40    267    271 105.1  -8.6  34036  287.48 0855.40
2009/04/23 08:40:11.7     283   -103     15    302    303 110.0   2.9  34034  287.44 0855.40
2009/04/23 08:40:11.8     275    -54    148    281    317 101.2  30.1  34038  287.50 0855.40
2009/04/23 08:40:11.9     283     18    111    284    304  86.3  22.5  34038  287.51 0855.40
2009/04/23 08:40:12.0     175     12    -62    176    187  85.9 -19.7  34036  287.49 0855.40
2009/04/23 08:40:12.1     129     23    -47    132    141  79.9 -19.7  34038  287.52 0855.40
2009/04/23 08:40:12.2      95    -31    -17    101    103 108.4  -9.8  34036  287.49 0855.40
2009/04/23 08:40:12.3     154    -21    -16    156    157  97.9  -6.2  34038  287.50 0855.40
2009/04/23 08:40:12.4     186    -42     -7    191    192 102.8  -2.2  34038  287.50 0855.40
2009/04/23 08:40:12.5     200      0     10    201    202  90.0   2.9  34038  287.52 0855.40
2009/04/23 08:40:12.6     190    -80    -24    207    209 112.8  -6.9  34040  287.54 0855.40
2009/04/23 08:40:12.7     212    -69     27    224    226 108.2   6.9  34038  287.52 0855.40
2009/04/23 08:40:12.8     267    -56     14    273    274 101.9   3.1  34044  287.60 0855.40
2009/04/23 08:40:12.9     259    -40      5    263    264  98.8   1.2  34038  287.51 0855.40
2009/04/23 08:40:13.0     224     10    139    225    264  87.2  35.0  34042  287.56 0855.40
2009/04/23 08:40:13.1     221      9    185    222    288  87.6  43.8  34044  287.60 0855.40
2009/04/23 08:40:13.2     166     67    168    180    246  68.0  47.9  34042  287.57 0855.40
2009/04/23 08:40:13.3     102     -1     99    103    142  90.8  49.0  34044  287.60 0855.40
2009/04/23 08:40:13.4      55   -158     88    168    189 160.6  29.8  34042  287.57 0855.40
2009/04/23 08:40:13.5     -42   -220    175    225    285 190.9  41.7  34042  287.58 0855.40
2009/04/23 08:40:13.6     -79   -219     84    234    248 200.0  20.4  34040  287.53 0855.40
2009/04/23 08:40:13.7     -10   -183      1    184    185 183.4   0.5  34042  287.57 0855.40
2009/04/23 08:40:13.8     124   -182     10    221    222 145.7   2.8  34040  287.55 0855.40
2009/04/23 08:40:13.9     146    -35     44    151    158 103.7  16.3  34044  287.60 0855.40
2009/04/23 08:40:14.0      48    -58    111     76    134 140.3  62.7  34040  287.54 0855.40
2009/04/23 08:40:14.1     115     10     84    116    143  84.8  39.5  34042  287.59 0855.40
2009/04/23 08:40:14.2      55    -68     60     88    106 141.3  37.6  34038  287.52 0855.40
2009/04/23 08:40:14.3      65    -58     -4     88     89 131.8  -3.1  34044  287.60 0855.40
2009/04/23 08:40:14.4      33    -82     -3     89     90 158.2  -2.2  34042  287.57 0855.40
2009/04/23 08:40:14.5      27   -102    -21    106    109 164.9 -11.5  34042  287.59 0855.40
2009/04/23 08:40:14.6      24   -109     39    112    119 167.1  19.2  34038  287.52 0855.40
2009/04/23 08:40:14.7     -47    -91     36    103    110 207.6  19.4  34038  287.52 0855.40
2009/04/23 08:40:14.8      76    -53    148     93    174 125.1  64.7  34040  287.55 0855.40
2009/04/23 08:40:14.9      90     33    159     97    186  69.6  65.4  34038  287.52 0855.40
2009/04/23 08:40:15.0     153    -11    100    154    183  94.4  35.7  34038  287.50 0855.40
2009/04/23 08:40:15.1     123     17     68    125    142  82.1  31.3  34040  287.55 0855.40
2009/04/23 08:40:15.2      56    -11    -20     58     62 101.5 -19.7  34042  287.59 0855.40
2009/04/23 08:40:15.3      12    -41    -52     43     67 163.1 -60.7  34040  287.55 0855.40
2009/04/23 08:40:15.4    -105    -92    -27    140    143 228.7 -10.9  34038  287.52 0855.40
2009/04/23 08:40:15.5     -59   -177    -42    187    192 198.7 -12.9  34038  287.52 0855.40
2009/04/23 08:40:15.6     -53   -148    -43    158    163 200.0 -20.0  34040  287.54 0855.40
2009/04/23 08:40:15.7     -29   -113      0    117    118 194.7   0.2  34042  287.57 0855.40
2009/04/23 08:40:15.8      -1    -89      6     90     91 180.9   3.8  34040  287.54 0855.40
2009/04/23 08:40:15.9      59    -91      4    109    110 147.0   2.3  34040  287.55 0855.40
2009/04/23 08:40:16.0      70    -69      3     99    100 134.6   1.8  34040  287.54 0855.40
2009/04/23 08:40:16.1      19    -70    -12     73     74 164.9  -9.3  34038  287.50 0855.40
2009/04/23 08:40:16.2      15    -77     11     79     80 168.4   8.5  34038  287.52 0855.40
2009/04/23 08:40:16.3      44    -47     38     65     75 136.7  33.5  34038  287.52 0855.40
2009/04/23 08:40:16.4      58    -51     68     78    103 131.3  46.4  34040  287.55 0855.40
2009/04/23 08:40:16.5      27   -134     66    137    152 168.5  27.3  34038  287.50 0855.40
2009/04/23 08:40:16.6      43   -255    159    259    303 170.3  34.4  34040  287.55 0855.40
2009/04/23 08:40:16.7      49   -291    207    296    361 170.4  38.4  34038  287.52 0855.40
2009/04/23 08:40:16.8      39   -282    261    285    386 172.0  47.5  34040  287.54 0855.40
2009/04/23 08:40:16.9      24   -194    197    196    277 172.7  50.1  34044  287.60 0855.40
2009/04/23 08:40:17.0      26   -195    181    197    267 172.2  47.7  34044  287.60 0855.40
2009/04/23 08:40:17.1     -15   -140    139    141    197 186.3  49.9  34042  287.59 0855.40
2009/04/23 08:40:17.2      24   -244     78    246    259 174.2  17.7  34044  287.60 0855.40
2009/04/23 08:40:17.3     -76   -228     86    241    255 198.5  20.2  34038  287.51 0855.40
2009/04/23 08:40:17.4     -44   -188    131    194    234 193.4  37.0  34038  287.50 0855.40
2009/04/23 08:40:17.5      -5   -137     57    138    149 182.2  23.1  34044  287.60 0855.40
2009/04/23 08:40:17.6      66   -137     81    153    173 154.1  30.3  34040  287.55 0855.40
2009/04/23 08:40:17.7      11   -338    130    339    363 178.0  22.0  34038  287.51 0855.40
2009/04/23 08:40:17.8     -42   -248    119    252    278 189.8  27.1  34042  287.58 0855.40
2009/04/23 08:40:17.9     -31   -222    122    225    255 188.1  30.8  34044  287.61 0855.40
2009/04/23 08:40:18.0     -35   -179    133    183    226 191.1  39.7  34044  287.60 0855.40
2009/04/23 08:40:18.1     -17   -211     83    212    227 184.7  22.8  34044  287.60 0855.40
2009/04/23 08:40:18.2      -7   -156    163    157    226 182.6  51.2  34032  287.40 0855.40
2009/04/23 08:40:18.3    -143   -117    209    185    279 230.7  54.2  34038  287.50 0855.40
2009/04/23 08:40:18.4      -7   -103    239    104    260 184.4  75.0  34046  287.64 0855.40
2009/04/23 08:40:18.5      82    -61    193    103    218 126.4  69.6  34044  287.62 0855.40
2009/04/23 08:40:18.6     125    -79    159    149    217 122.4  52.1  34040  287.55 0855.40
2009/04/23 08:40:18.7      82    -20     97     85    128 104.2  54.3  34038  287.50 0855.40
2009/04/23 08:40:18.8     102     33    -21    108    111  71.8 -11.3  34048  287.69 0855.40
2009/04/23 08:40:18.9      88     48     54    101    114  61.6  30.8  34044  287.62 0855.40
2009/04/23 08:40:19.0      72     70     63    101    119  45.6  35.5  34050  287.72 0855.40
2009/04/23 08:40:19.1      97     70      1    120    121  54.0   0.7  34046  287.64 0855.40
2009/04/23 08:40:19.2     184    193     47    267    272  43.7  10.0  34052  287.75 0855.40
2009/04/23 08:40:19.3     115    234     77    261    273  26.3  16.4  34052  287.73 0855.40
2009/04/23 08:40:19.4     186    154    113    242    267  50.4  27.1  34048  287.66 0855.40
2009/04/23 08:40:19.5     138    165    117    216    245  39.9  30.6  34050  287.70 0855.40
2009/04/23 08:40:19.6      34    165     84    169    188  11.8  28.2  34054  287.77 0855.40
2009/04/23 08:40:19.7      60    129     91    143    169  24.9  35.5  34052  287.76 0855.40
2009/04/23 08:40:19.8     152    110     99    188    212  54.1  30.1  34048  287.67 0855.40
2009/04/23 08:40:19.9     133    143     96    196    218  42.8  28.0  34054  287.79 0855.40
2009/04/23 08:40:20.0      78    190     60    206    215  22.5  16.3  34058  287.84 0855.40
2009/04/23 08:40:20.1     108    147     89    183    203  36.5  28.0  34058  287.84 0855.40
2009/04/23 08:40:20.2      84     70     81    110    136  50.0  39.7  34054  287.79 0855.40
2009/04/23 08:40:20.3       0     44     79     45     90 359.1  67.7  34056  287.81 0855.40
2009/04/23 08:40:20.4     -55     55     73     79    107 314.9  47.9  34052  287.76 0855.40
2009/04/23 08:40:20.5     -79     96     57    125    137 320.4  26.2  34048  287.67 0855.40
2009/04/23 08:40:20.7     -68     77     59    103    118 318.6  32.4  34052  287.74 0855.40
2009/04/23 08:40:20.7      13     65     87     67    109  11.5  58.5  34050  287.70 0855.40
2009/04/23 08:40:20.8      18    120    112    122    165   8.5  47.7  34048  287.69 0855.40
2009/04/23 08:40:20.9     -94    147     55    175    184 327.4  17.7  34046  287.64 0855.40
2009/04/23 08:40:21.0    -106    206     84    232    247 332.6  19.9  34048  287.68 0855.40
2009/04/23 08:40:21.1     -17    162     98    163    190 353.8  34.0  34048  287.69 0855.40
2009/04/23 08:40:21.2     -17     52    109     55    122 341.7  71.0  34054  287.77 0855.40
2009/04/23 08:40:21.3      32     51    107     61    123  32.6  67.2  34050  287.72 0855.40
2009/04/23 08:40:21.4      94     41     92    103    138  66.5  46.4  34056  287.81 0855.40
2009/04/23 08:40:21.5      74    -38     88     84    121 117.1  51.2  34050  287.70 0855.40
2009/04/23 08:40:21.6     -73    -38     74     83    111 242.0  46.4  34050  287.70 0855.40
2009/04/23 08:40:21.7     -43      6     88     44     98 278.8  71.9  34038  287.52 0855.40
2009/04/23 08:40:21.8     -17   -108    151    110    186 189.3  60.5  34044  287.62 0855.40
2009/04/23 08:40:21.9      -2   -158    173    159    234 180.9  52.7  34042  287.57 0855.40
2009/04/23 08:40:22.0      37   -177    193    182    265 168.0  52.1  34044  287.60 0855.40
2009/04/23 08:40:22.1     113    -38    163    120    202 108.6  60.5  34040  287.54 0855.40
2009/04/23 08:40:22.2      86   -104    150    136    202 140.4  53.0  34040  287.54 0855.40
2009/04/23 08:40:22.3     209   -115    170    239    293 118.8  39.1  34042  287.58 0855.40
2009/04/23 08:40:22.4     178   -152    170    235    290 130.4  39.5  34042  287.56 0855.40
2009/04/23 08:40:22.5     176    -97    165    202    260 118.9  43.7  34044  287.60 0855.40
2009/04/23 08:40:22.6     154    -75    122    172    210 116.0  39.1  34040  287.54 0855.40
2009/04/23 08:40:22.7     198   -111    145    228    270 119.3  35.5  34044  287.61 0855.40
2009/04/23 08:40:22.8     157   -119    156    198    252 127.1  42.4  34048  287.66 0855.40
2009/04/23 08:40:22.9     106   -125    161    165    230 139.7  49.8  34042  287.59 0855.40
2009/04/23 08:40:23.0     156   -213    148    265    303 143.7  31.4  34046  287.63 0855.40
2009/04/23 08:40:23.1     135   -224    137    262    295 149.0  29.5  34042  287.58 0855.40
2009/04/23 08:40:23.2     157   -260    173    305    350 148.8  32.1  34042  287.56 0855.40
2009/04/23 08:40:23.3     166   -243    121    295    318 145.7  23.6  34042  287.58 0855.40
2009/04/23 08:40:23.4     155   -272     77    314    324 150.4  13.9  34042  287.56 0855.40
2009/04/23 08:40:23.5     205   -155     31    258    260 127.1   6.9  34050  287.70 0855.40
2009/04/23 08:40:23.6     103   -209    170    234    289 153.7  39.7  34042  287.56 0855.40
2009/04/23 08:40:23.7     108   -140    109    177    207 142.4  34.8  34040  287.55 0855.40
2009/04/23 08:40:23.8     127   -223    201    257    326 150.4  42.1  34044  287.60 0855.40
2009/04/23 08:40:23.9     122   -195    189    231    298 147.9  43.7  34046  287.63 0855.40
2009/04/23 08:40:24.0     151   -111    182    188    261 126.2  49.0  34040  287.53 0855.40
2009/04/23 08:40:24.1      56    -68    167     89    189 140.4  69.6  34036  287.49 0855.40
2009/04/23 08:40:24.2     104    -65    129    123    178 122.0  51.4  34040  287.55 0855.40
2009/04/23 08:40:24.3      71     19    142     74    160  75.0  70.4  34044  287.60 0855.40
2009/04/23 08:40:24.4      23     48    148     54    157  25.3  79.2  34046  287.64 0855.40
2009/04/23 08:40:24.5      22    -17    131     29    134 127.8  88.5  34044  287.62 0855.40
2009/04/23 08:40:24.6      15     73    140     75    158  11.6  69.6  34048  287.67 0855.40
2009/04/23 08:40:24.7      98     57    194    114    225  59.8  66.8  34048  287.69 0855.40
2009/04/23 08:40:24.8     200     -9    243    201    315  92.8  56.2  34046  287.63 0855.40
2009/04/23 08:40:24.9     186      0    239    187    303  90.0  58.2  34042  287.58 0855.40
2009/04/23 08:40:25.0     143     15    211    144    255  83.9  62.6  34044  287.60 0855.40
2009/04/23 08:40:25.1     198      2    196    199    279  89.4  49.9  34044  287.61 0855.40
2009/04/23 08:40:25.2     239     99    207    259    331  67.4  42.7  34048  287.66 0855.40
2009/04/23 08:40:25.3     300    116    193    322    375  68.7  33.7  34048  287.67 0855.40
2009/04/23 08:40:25.4     306    117    175    328    371  68.9  30.5  34056  287.81 0855.40
2009/04/23 08:40:25.5     304      4    157    305    343  89.2  29.3  34050  287.72 0855.40
2009/04/23 08:40:25.6     274    164    151    320    353  59.1  27.1  34044  287.62 0855.40
2009/04/23 08:40:25.7     304    149    165    339    377  63.9  27.9  34048  287.66 0855.40
2009/04/23 08:40:25.8     339     84     79    350    359  76.1  12.8  34048  287.66 0855.40
2009/04/23 08:40:25.9     347     20     14    348    349  86.6   2.3  34050  287.72 0855.40
2009/04/23 08:40:26.0     282     71     55    291    297  75.8  10.8  34046  287.63 0855.40
2009/04/23 08:40:26.1     204    123     33    239    242  58.9   8.0  34066  287.97 0855.40
2009/04/23 08:40:26.2     257    204    165    329    368  51.5  28.6  34080  288.22 0855.40
2009/04/23 08:40:26.3     429    219    197    482    520  62.9  23.5  34074  288.12 0855.40
2009/04/23 08:40:26.4     341    243    173    419    453  54.5  23.7  34056  287.80 0855.40
2009/04/23 08:40:26.5     452    267     99    526    536  59.4  10.7  34044  287.62 0855.40
2009/04/23 08:40:26.6     543    246    113    597    608  65.6  10.7  34038  287.51 0855.40
2009/04/23 08:40:26.7     642    228     20    682    683  70.4   1.7  34044  287.62 0855.40
2009/04/23 08:40:26.8     720    225    -29    755    756  72.6  -2.2  34038  287.52 0855.40
2009/04/23 08:40:26.9     602    208    -24    638    639  70.9  -2.2  34048  287.66 0855.40
2009/04/23 08:40:27.0     574    230     22    619    620  68.2   2.1  34070  288.05 0855.40
2009/04/23 08:40:27.1     529    193     89    564    572  70.0   9.0  34046  287.65 0855.40
2009/04/23 08:40:27.2     434    189    108    474    487  66.5  12.9  34048  287.69 0855.40
2009/04/23 08:40:27.3     547    151    -12    568    569  74.5  -1.3  34046  287.65 0855.40
2009/04/23 08:40:27.4     617    193     10    647    648  72.6   0.9  34042  287.57 0855.40
2009/04/23 08:40:27.5     561    171     44    587    589  73.0   4.3  34046  287.65 0855.40
2009/04/23 08:40:27.6     548    128     10    563    564  76.8   1.1  34044  287.60 0855.40
2009/04/23 08:40:27.7     482    193    121    520    534  68.2  13.1  34046  287.64 0855.40
2009/04/23 08:40:27.8     398    219     18    455    456  61.1   2.4  34044  287.62 0855.38
2009/04/23 08:40:27.9     367    261    -40    451    453  54.5  -5.1  34050  287.72 0855.38
2009/04/23 08:40:28.0     318    153    -49    354    358  64.3  -8.0  34052  287.76 0855.38
2009/04/23 08:40:28.1     293     54   -106    299    318  79.4 -19.6  34052  287.73 0855.38
2009/04/23 08:40:28.2     234     84    -88    249    265  70.1 -19.6  34044  287.60 0855.38
2009/04/23 08:40:28.3     217     21    -60    219    228  84.3 -15.5  34050  287.70 0855.38
2009/04/23 08:40:28.4     135    133    -54    190    197  45.3 -20.7  34044  287.62 0855.38
2009/04/23 08:40:28.5     327    214    -84    392    402  56.8 -12.2  34044  287.62 0855.38
2009/04/23 08:40:28.6     514     87   -130    522    539  80.4 -14.1  34048  287.67 0855.38
2009/04/23 08:40:28.7     452     22    -78    453    460  87.1  -9.9  34046  287.63 0855.38
2009/04/23 08:40:28.8     517    -72   -166    523    548  98.0 -22.8  34052  287.75 0855.38
2009/04/23 08:40:28.9     477     -4   -134    478    496  90.5 -20.3  34048  287.66 0855.38
2009/04/23 08:40:29.0     427    130     16    447    448  73.0   2.1  34050  287.70 0855.38
2009/04/23 08:40:29.1     401    205    -33    451    453  62.9  -4.2  34046  287.65 0855.38
2009/04/23 08:40:29.2     143    143    -47    203    209  45.0 -13.2  34044  287.62 0855.38
2009/04/23 08:40:29.3     143    111    -50    182    189  52.2 -15.5  34046  287.65 0855.38
2009/04/23 08:40:29.4     104      0   -137    105    172  90.0 -63.1  34044  287.60 0855.38
2009/04/23 08:40:29.5     135    -44   -161    143    215 108.2 -58.4  34042  287.57 0855.38
2009/04/23 08:40:29.6     310    109    -96    329    343  70.6 -16.4  34044  287.62 0855.38
2009/04/23 08:40:29.7     252     89    -85    268    282  70.5 -17.6  34046  287.63 0855.38
2009/04/23 08:40:29.8     135    199    -40    241    245  34.2  -9.6  34046  287.63 0855.38
2009/04/23 08:40:29.9     157    205     70    259    269  37.4  15.3  34052  287.73 0855.38
2009/04/23 08:40:30.0     188    156    -17    245    246  50.4  -4.1  34050  287.71 0855.38
2009/04/23 08:40:30.1     166    145     60    221    230  48.7  15.2  34050  287.70 0855.38
2009/04/23 08:40:30.2     195    208     89    286    300  43.2  17.3  34042  287.58 0855.38
2009/04/23 08:40:30.3     165    231     62    285    292  35.6  12.4  34052  287.73 0855.38
2009/04/23 08:40:30.4     175    197    189    264    324  41.7  39.2  34094  288.46 0855.38
2009/04/23 08:40:30.5     194    308     85    365    375  32.2  13.2  34078  288.20 0855.38
2009/04/23 08:40:30.6     133    295     99    324    339  24.3  17.1  34072  288.08 0855.38
2009/04/23 08:40:30.7     251    316     28    404    405  38.5   4.0  34082  288.26 0855.38
2009/04/23 08:40:30.8     330    193     -5    383    384  59.7  -0.9  34074  288.13 0855.38
2009/04/23 08:40:30.9     460    268    -58    533    537  59.8  -6.2  34050  287.72 0855.38
2009/04/23 08:40:31.1     335    267     60    429    434  51.4   8.0  34068  288.01 0855.38
2009/04/23 08:40:31.1     240    197   -124    311    334  50.5 -27.3  34048  287.68 0855.38
2009/04/23 08:40:31.2     198    263    104    330    347  37.0  17.5  34068  288.00 0855.38
2009/04/23 08:40:31.3     239    212     73    320    329  48.4  12.9  34060  287.87 0855.38
2009/04/23 08:40:31.4     285    246     45    377    380  49.2   6.9  34048  287.69 0855.38
2009/04/23 08:40:31.5     312    317     45    446    449  44.5   5.8  34060  287.89 0855.38
2009/04/23 08:40:31.6     183    322    -31    371    373  29.7  -4.9  34068  288.00 0855.38
2009/04/23 08:40:31.8      85    284      9    297    298  16.7   1.8  34076  288.15 0855.38
2009/04/23 08:40:31.9     264    140     64    300    307  62.0  12.2  34060  287.88 0855.38
2009/04/23 08:40:32.0     274    168     62    322    329  58.5  11.0  34056  287.80 0855.38
2009/04/23 08:40:32.1     257    256     34    363    365  45.1   5.5  34058  287.83 0855.38
2009/04/23 08:40:32.2     206    193     70    283    292  46.8  13.9  34058  287.83 0855.38
2009/04/23 08:40:32.3     189    128      0    229    230  55.9   0.0  34056  287.82 0855.38
2009/04/23 08:40:32.4     201     84     21    219    221  67.2   5.7  34062  287.92 0855.38
2009/04/23 08:40:32.5     260     74     25    271    273  74.1   5.4  34058  287.83 0855.38
2009/04/23 08:40:32.6     273     72     26    283    285  75.2   5.4  34056  287.80 0855.38
2009/04/23 08:40:32.7     289     54     27    294    296  79.4   5.4  34058  287.85 0855.38
2009/04/23 08:40:32.8     200    110     53    229    236  61.2  13.2  34064  287.95 0855.38
2009/04/23 08:40:32.9     113    191     10    223    224  30.7   2.8  34060  287.89 0855.38
2009/04/23 08:40:33.0     104    111    -36    153    158  43.3 -13.4  34062  287.92 0855.38
2009/04/23 08:40:33.1     159     67     -6    173    174  67.2  -2.2  34054  287.79 0855.38
2009/04/23 08:40:33.2      78     98     34    126    131  38.3  15.2  34058  287.86 0855.38
2009/04/23 08:40:33.3      76      0      0     77     78  90.0  -0.3  34060  287.89 0855.38
2009/04/23 08:40:33.4      60    -24    -10     65     66 111.7  -9.3  34060  287.89 0855.38
2009/04/23 08:40:33.5       5    -63    -57     64     85 174.7 -50.8  34062  287.91 0855.38
2009/04/23 08:40:33.6      11    -61    -53     63     82 169.3 -49.2  34056  287.82 0855.38
2009/04/23 08:40:33.7       6    -72    -63     73     96 174.7 -49.8  34060  287.89 0855.38
2009/04/23 08:40:33.8      61    -87    -43    107    115 144.8 -27.4  34056  287.82 0855.38
2009/04/23 08:40:33.9      46    -38     10     60     61 129.6  10.1  34052  287.76 0855.37
2009/04/23 08:40:34.0      57    -27     -8     64     65 115.4  -7.3  34054  287.77 0855.37
2009/04/23 08:40:34.1      75    -15     10     77     78 101.4   8.0  34052  287.76 0855.37
2009/04/23 08:40:34.2      57      3      2     58     59  86.5   2.9  34050  287.72 0855.37
2009/04/23 08:40:34.3      56    -28    -22     63     67 117.1 -19.7  34048  287.69 0855.37
2009/04/23 08:40:34.4      13    -42    -47     45     65 162.2 -55.6  34050  287.70 0855.37
2009/04/23 08:40:34.5       2    -45    -14     46     48 177.3 -23.8  34052  287.76 0855.37
2009/04/23 08:40:34.6       6    -40    -12     41     42 171.1 -20.7  34054  287.77 0855.37
2009/04/23 08:40:34.7      -9    -61     -2     62     63 188.9  -2.2  34054  287.79 0855.37
2009/04/23 08:40:34.8     -36    -45     -3     58     59 218.7  -3.1  34054  287.77 0855.37
2009/04/23 08:40:34.9     -52    -89     35    104    110 210.3  18.9  34044  287.60 0855.37
2009/04/23 08:40:35.0     -36   -191     68    195    207 190.7  19.2  34042  287.59 0855.37
2009/04/23 08:40:35.1     -71   -221    105    233    255 197.8  26.2  34044  287.61 0855.37
2009/04/23 08:40:35.2    -120   -225    116    256    281 208.1  26.2  34042  287.58 0855.37
2009/04/23 08:40:35.3     -64   -269     63    277    285 193.4  12.9  34048  287.66 0855.37
2009/04/23 08:40:35.4    -121   -245     50    274    279 206.3  10.3  34044  287.60 0855.37
2009/04/23 08:40:35.5     -70   -231      5    242    243 196.9   1.2  34046  287.63 0855.37
2009/04/23 08:40:35.6     -60   -261    -22    268    270 193.1  -4.9  34042  287.58 0855.37
2009/04/23 08:40:35.7     -41   -216     26    221    223 190.9   6.9  34042  287.57 0855.37
2009/04/23 08:40:35.8      -7   -217     87    218    234 182.0  22.8  34048  287.67 0855.37
2009/04/23 08:40:35.9     -51   -233     81    239    253 192.4  18.9  34050  287.70 0855.37
2009/04/23 08:40:36.0     -82   -224    153    239    283 200.1  35.6  34042  287.58 0855.37
2009/04/23 08:40:36.1    -127   -250    117    281    304 207.0  24.1  34044  287.60 0855.37
2009/04/23 08:40:36.2    -109   -220    173    246    300 206.5  38.6  34046  287.65 0855.37
2009/04/23 08:40:36.3     -82   -222    202    237    311 200.3  44.8  34040  287.55 0855.37
2009/04/23 08:40:36.4     -56   -153    232    164    284 200.3  61.3  34046  287.63 0855.37
2009/04/23 08:40:36.5     -23     61    136     66    151 339.1  72.8  34052  287.74 0855.37
2009/04/23 08:40:36.6     -11    -55    152     57    162 191.6  78.9  34048  287.69 0855.37
2009/04/23 08:40:36.7     -53    -53    138     76    157 225.0  68.8  34048  287.69 0855.37
2009/04/23 08:40:36.8     -97    -80    266    126    294 230.4  72.9  34042  287.58 0855.37
2009/04/23 08:40:36.9    -138    -44    216    145    260 252.3  63.2  34046  287.65 0855.36
2009/04/23 08:40:37.0     -33   -117    239    122    268 196.0  71.0  34048  287.69 0855.36
2009/04/23 08:40:37.1     -67     -7    194     68    205 263.9  80.5  34048  287.69 0855.36
2009/04/23 08:40:37.2      67      6    259     68    267  84.8  85.2  34048  287.69 0855.36
2009/04/23 08:40:37.3      -1      6    126      7    126 350.3  90.0  34046  287.65 0855.36
2009/04/23 08:40:37.4      43   -178    227    184    292 166.2  56.9  34048  287.66 0855.36
2009/04/23 08:40:37.5     -61   -227    232    236    330 195.1  49.8  34044  287.61 0855.36
2009/04/23 08:40:37.6    -122   -331    318    354    475 200.3  46.6  34042  287.57 0855.36
2009/04/23 08:40:37.7      -9   -258    193    259    323 182.0  40.6  34042  287.56 0855.36
2009/04/23 08:40:37.8     -14   -308    264    309    406 182.7  44.9  34044  287.62 0855.36
2009/04/23 08:40:37.9     -95   -326    267    340    432 196.3  42.1  34044  287.60 0855.36
2009/04/23 08:40:38.0     -49   -349    305    353    466 188.1  45.2  34048  287.67 0855.36
2009/04/23 08:40:38.1     -93   -406    354    417    546 192.9  44.8  34040  287.53 0855.36
2009/04/23 08:40:38.2     -77   -378    288    387    482 191.6  40.4  34044  287.60 0855.36
2009/04/23 08:40:38.3     -50   -281    302    286    415 190.2  52.0  34042  287.59 0855.36
2009/04/23 08:40:38.4     -79   -295    238    306    387 195.1  41.9  34042  287.56 0855.36
2009/04/23 08:40:38.5     -67   -382    230    388    451 190.0  33.4  34038  287.52 0855.36
2009/04/23 08:40:38.6      74   -285    184    295    347 165.3  35.1  34034  287.44 0855.36
2009/04/23 08:40:38.7      33   -157    234    161    284 168.0  62.4  34046  287.63 0855.36
2009/04/23 08:40:38.8     -31   -194    139    197    241 189.1  38.6  34040  287.54 0855.36
2009/04/23 08:40:38.9     -34    -25    124     43    131 234.0  81.2  34048  287.67 0855.37
2009/04/23 08:40:39.0      23     40     70     47     84  29.9  63.6  34038  287.52 0855.37
2009/04/23 08:40:39.1     -17     83     45     85     96 348.4  30.3  34046  287.64 0855.37
2009/04/23 08:40:39.2      45    164     98    171    197  15.4  32.4  34044  287.60 0855.37
2009/04/23 08:40:39.3      77    177     80    194    209  23.6  23.8  34044  287.62 0855.37
2009/04/23 08:40:39.4      31    225     80    228    242   8.0  19.4  34048  287.66 0855.37
2009/04/23 08:40:39.5     156    160    164    224    277  44.3  39.7  34044  287.61 0855.37
2009/04/23 08:40:39.6     325    314    249    452    516  46.0  31.3  34052  287.74 0855.37
2009/04/23 08:40:39.7     122    424    276    442    521  16.1  35.0  34052  287.74 0855.37
2009/04/23 08:40:39.8     119    146    309    189    362  39.2  65.7  34054  287.78 0855.37
2009/04/23 08:40:39.9     243    244    281    345    444  44.8  43.5  34072  288.07 0855.37
2009/04/23 08:40:40.0     323    119    237    345    418  69.7  37.7  34054  287.78 0855.37
2009/04/23 08:40:40.1     360     61    209    366    421  80.4  32.3  34046  287.63 0855.37
2009/04/23 08:40:40.2     329     68    205    337    394  78.2  34.2  34072  288.08 0855.37
2009/04/23 08:40:40.3      63    235     61    244    252  15.2  14.2  34068  288.00 0855.37
2009/04/23 08:40:40.4      84    219     79    235    249  21.2  18.6  34072  288.09 0855.37
2009/04/23 08:40:40.5      61    159    206    171    267  20.9  56.3  34068  288.02 0855.37
2009/04/23 08:40:40.6     103    268    201    288    351  21.0  38.3  34056  287.81 0855.37
2009/04/23 08:40:40.7     212    255    117    332    353  39.7  19.4  34056  287.81 0855.37
2009/04/23 08:40:40.8     283    214     90    355    367  52.9  14.3  34046  287.64 0855.37
2009/04/23 08:40:40.9     219    242    119    327    347  42.1  20.8  34034  287.44 0855.37
2009/04/23 08:40:41.0     155    304    154    342    375  27.0  25.9  34038  287.52 0855.37
2009/04/23 08:40:41.1     292    293    119    414    431  44.9  16.1  34088  288.36 0855.37
2009/04/23 08:40:41.2     306    265    112    406    422  49.1  15.4  34132  289.09 0855.37
2009/04/23 08:40:41.3     371    297    168    476    505  51.3  19.5  34068  288.02 0855.37
2009/04/23 08:40:41.4     417    274     74    500    506  56.7   8.5  34086  288.32 0855.37
2009/04/23 08:40:41.5     548    256    106    605    615  65.0  10.0  34066  287.98 0855.37
2009/04/23 08:40:41.6     284    260    252    386    460  47.6  36.3  34046  287.65 0855.37
2009/04/23 08:40:41.7     196    195    236    277    363  45.1  44.7  34052  287.76 0855.37
2009/04/23 08:40:41.8      63    143    206    157    259  23.7  59.0  34040  287.55 0855.37
2009/04/23 08:40:41.9    -105    303    232    321    396 340.8  39.5  34032  287.39 0855.37
2009/04/23 08:40:42.0    -240    135     81    276    288 299.3  16.4  34040  287.55 0855.37
2009/04/23 08:40:42.1      35    -33     44     49     65 133.1  47.9  34030  287.38 0855.37
2009/04/23 08:40:42.2     183     47    218    190    289  75.4  54.3  34048  287.68 0855.37
2009/04/23 08:40:42.3     297    -70    100    306    322 103.3  18.1  34040  287.53 0855.37
2009/04/23 08:40:42.4      41     86    141     96    170  25.9  62.6  34044  287.60 0855.37
2009/04/23 08:40:42.5      67      9    115     68    133  82.1  66.7  34042  287.59 0855.37
2009/04/23 08:40:42.6      32    -68     36     76     84 154.5  27.2  34044  287.60 0855.37
2009/04/23 08:40:42.7      92     30    113     97    148  71.8  55.4  34028  287.35 0855.37
2009/04/23 08:40:42.8      92    172    165    196    256  28.3  44.3  34040  287.53 0855.37
2009/04/23 08:40:42.9    -113     23    -11    116    117 281.5  -5.6  34040  287.54 0855.39
2009/04/23 08:40:43.0    -204     14     47    205    211 274.1  13.1  34038  287.50 0855.39
2009/04/23 08:40:43.1    -116    -80    -38    142    147 235.4 -15.0  34038  287.52 0855.39
2009/04/23 08:40:43.2    -336     18   -146    337    367 273.2 -29.4  34048  287.66 0855.39
2009/04/23 08:40:43.3    -445      6   -141    446    468 270.8 -17.6  34042  287.58 0855.39
2009/04/23 08:40:43.4    -493    -25   -153    494    517 267.0 -22.2  34044  287.61 0855.39
2009/04/23 08:40:43.5    -453    -77    -54    460    464 260.3  -6.8  34038  287.50 0855.39
2009/04/23 08:40:43.6    -387    -85    -87    397    407 257.6 -12.4  34044  287.60 0855.39
2009/04/23 08:40:43.7    -330    -90   -122    343    365 254.7 -19.7  34046  287.64 0855.39
2009/04/23 08:40:43.8    -302   -116   -102    324    340 249.0 -17.6  34050  287.71 0855.39
2009/04/23 08:40:43.9    -262   -114    -66    286    294 246.5 -13.2  34048  287.66 0855.39
2009/04/23 08:40:44.0    -227    -98    -74    248    259 246.7 -16.6  34048  287.68 0855.39
2009/04/23 08:40:44.1    -209    -89    -78    228    240 246.9 -23.8  34048  287.66 0855.39
2009/04/23 08:40:44.2    -178   -108    -65    209    218 238.7 -22.3  34048  287.67 0855.39
2009/04/23 08:40:44.3    -140   -114    -73    181    195 230.9 -27.4  34048  287.69 0855.39
2009/04/23 08:40:44.4     -64   -154   -127    167    209 202.7 -45.8  34046  287.65 0855.39
2009/04/23 08:40:44.5     -14   -194   -142    195    241 184.4 -44.1  34046  287.64 0855.39
2009/04/23 08:40:44.6      17   -160   -123    161    202 173.8 -45.8  34040  287.55 0855.39
2009/04/23 08:40:44.7      59   -219   -146    227    269 164.9 -40.0  34038  287.50 0855.39
2009/04/23 08:40:44.8     119   -262   -154    288    326 155.5 -34.9  34036  287.48 0855.39
2009/04/23 08:40:44.9     154   -252      5    296    297 148.6   1.0  34040  287.53 0855.40
2009/04/23 08:40:45.0     221   -300    122    373    393 143.6  18.2  34036  287.47 0855.40
2009/04/23 08:40:45.1     152   -239    136    284    314 147.5  27.4  34040  287.53 0855.40
2009/04/23 08:40:45.2     156   -220      7    271    272 144.6   1.6  34040  287.55 0855.40
2009/04/23 08:40:45.3      96   -219    102    240    260 156.3  24.3  34040  287.53 0855.40
2009/04/23 08:40:45.4     212   -192      8    287    288 132.2   1.7  34036  287.46 0855.40
2009/04/23 08:40:45.5     120   -212     -9    244    245 150.4  -2.2  34036  287.46 0855.40
2009/04/23 08:40:45.6      57   -181    -28    190    193 162.4  -8.6  34034  287.43 0855.40
2009/04/23 08:40:45.7      68   -172    -62    185    196 158.4 -18.7  34038  287.50 0855.40
2009/04/23 08:40:45.8     112   -193     50    224    230 149.9  12.6  34040  287.54 0855.40
2009/04/23 08:40:45.9      31   -122    100    126    160 165.7  42.7  34036  287.49 0855.40
2009/04/23 08:40:46.0      33   -139    140    143    200 166.6  49.8  34036  287.47 0855.40
2009/04/23 08:40:46.1      13   -174    -35    175    179 175.5 -11.5  34034  287.45 0855.40
2009/04/23 08:40:46.2      -7   -175    -75    176    191 182.5 -28.7  34036  287.47 0855.40
2009/04/23 08:40:46.3     -21   -170   -105    172    201 187.3 -38.6  34036  287.49 0855.40
2009/04/23 08:40:46.4      68   -268   -117    277    300 165.7 -28.6  34034  287.44 0855.40
2009/04/23 08:40:46.5     -32   -228     11    231    232 188.0   2.9  34034  287.45 0855.40
2009/04/23 08:40:46.6     -97   -116     34    152    156 219.7  12.6  34034  287.45 0855.40
2009/04/23 08:40:46.7    -151    -90     59    177    187 239.1  18.6  34036  287.49 0855.40
2009/04/23 08:40:46.8    -182   -119     77    218    232 236.7  19.4  34032  287.42 0855.40
2009/04/23 08:40:46.9      15   -144    -23    145    147 173.8  -9.4  34038  287.50 0855.42
2009/04/23 08:40:47.0     -29     -5   -104     30    108 258.5 -88.3  34036  287.49 0855.42
2009/04/23 08:40:47.1     -58    -15   -123     61    137 255.0 -76.3  34038  287.52 0855.42
2009/04/23 08:40:47.2       0     34   -112     35    117   0.9 -86.7  34036  287.49 0855.42
2009/04/23 08:40:47.3      50     53    -63     74     97  43.2 -49.2  34038  287.50 0855.42
2009/04/23 08:40:47.4      33      2    -13     34     36  85.6 -23.3  34038  287.50 0855.42
2009/04/23 08:40:47.5      42    -93     -5    103    104 155.5  -3.2  34038  287.50 0855.42
2009/04/23 08:40:47.6      47   -193     20    199    201 166.2   5.9  34036  287.47 0855.42
2009/04/23 08:40:47.7      35   -350     17    352    353 174.2   2.9  34038  287.51 0855.42
2009/04/23 08:40:47.8      23   -308     -2    309    310 175.6  -0.5  34036  287.46 0855.42
2009/04/23 08:40:47.9     159   -159    153    226    272 135.0  37.3  34040  287.53 0855.42
2009/04/23 08:40:48.0     165   -202    148    262    300 140.8  32.1  34038  287.51 0855.42
2009/04/23 08:40:48.1      61   -202     78    212    225 163.1  21.0  34036  287.47 0855.42
2009/04/23 08:40:48.2     106   -232     59    256    263 155.5  13.1  34036  287.48 0855.42
2009/04/23 08:40:48.3      79   -249     43    262    266 162.4   9.3  34038  287.50 0855.42
2009/04/23 08:40:48.4     155   -209    114    261    284 143.5  25.1  34034  287.44 0855.42
2009/04/23 08:40:48.5     134   -152     80    203    218 138.6  22.8  34036  287.47 0855.42
2009/04/23 08:40:48.6     159   -180     79    241    254 138.6  18.1  34036  287.46 0855.42
2009/04/23 08:40:48.7     204   -166    186    264    322 129.1  38.7  34036  287.46 0855.42
2009/04/23 08:40:48.8     186   -185    186    263    322 134.9  38.7  34036  287.46 0855.42
2009/04/23 08:40:48.9     303    -33    185    305    356  96.2  34.1  34034  287.45 0855.41
2009/04/23 08:40:49.0     195    -68    123    207    240 109.3  33.5  34034  287.45 0855.41
2009/04/23 08:40:49.1      12   -162    163    163    230 175.8  50.1  34038  287.52 0855.41
2009/04/23 08:40:49.2     108   -226    115    251    276 154.5  26.2  34040  287.53 0855.41
2009/04/23 08:40:49.3     107   -157     90    191    211 145.7  27.1  34036  287.49 0855.41
2009/04/23 08:40:49.4     102   -162     90    192    212 147.9  27.1  34042  287.57 0855.41
2009/04/23 08:40:49.5      90   -179    107    201    227 153.3  30.6  34042  287.57 0855.41
2009/04/23 08:40:49.6     120   -243     55    271    277 153.7  11.6  34042  287.56 0855.41
2009/04/23 08:40:49.7     108   -211    107    238    260 152.8  25.9  34042  287.58 0855.41
2009/04/23 08:40:49.8     134   -221     91    259    275 148.8  19.4  34040  287.53 0855.41
2009/04/23 08:40:49.9     172   -194     96    260    277 138.6  21.0  34042  287.56 0855.41
2009/04/23 08:40:50.0     166   -190     90    253    268 139.0  20.0  34040  287.55 0855.41
2009/04/23 08:40:50.1     144   -191     83    240    255 143.0  19.2  34040  287.53 0855.41
2009/04/23 08:40:50.2     116   -192    111    225    250 148.8  28.2  34040  287.55 0855.41
2009/04/23 08:40:50.3     156   -166     85    228    243 136.8  21.0  34042  287.56 0855.41
2009/04/23 08:40:50.4     141   -168     77    220    234 140.1  19.4  34042  287.59 0855.41
2009/04/23 08:40:50.5     126   -202     47    239    244 148.1  11.1  34040  287.53 0855.41
2009/04/23 08:40:50.6     102   -223     53    246    252 155.3  12.2  34042  287.56 0855.41
2009/04/23 08:40:50.7     207   -200    134    288    317 134.0  26.9  34036  287.46 0855.41
2009/04/23 08:40:50.8      66   -202    160    213    266 161.7  40.7  34032  287.41 0855.41
2009/04/23 08:40:50.9       4   -259    136    260    293 179.1  29.8  34036  287.46 0855.41
2009/04/23 08:40:51.0       0   -261    101    262    280 180.0  22.1  34034  287.44 0855.41
2009/04/23 08:40:51.1       3   -192     67    193    205 178.9  19.2  34032  287.42 0855.41
2009/04/23 08:40:51.2     -30   -242     38    244    248 187.1   9.0  34030  287.36 0855.41
2009/04/23 08:40:51.3    -123   -154     77    198    212 218.5  22.3  34034  287.43 0855.41
2009/04/23 08:40:51.4    -120   -136     57    182    191 221.4  17.4  34034  287.43 0855.41
2009/04/23 08:40:51.5     -56   -252    131    259    290 192.5  29.1  34032  287.39 0855.41
2009/04/23 08:40:51.6     -45   -256     75    261    272 190.0  16.0  34030  287.38 0855.41
2009/04/23 08:40:51.7     -53   -200    192    207    282 194.9  47.9  34034  287.43 0855.41
2009/04/23 08:40:51.8     -66   -135    159    151    219 206.3  51.6  34034  287.45 0855.41
2009/04/23 08:40:51.9     -38   -134    199    140    243 196.0  61.7  34034  287.45 0855.41
2009/04/23 08:40:52.0     -95   -172    196    197    277 209.0  50.0  34036  287.46 0855.41
2009/04/23 08:40:52.1    -111   -178    184    210    279 211.9  45.8  34036  287.46 0855.41
2009/04/23 08:40:52.2     -85   -186    202    205    287 204.5  49.9  34038  287.50 0855.41
2009/04/23 08:40:52.3    -112   -195    175    225    285 209.9  41.7  34038  287.50 0855.41
2009/04/23 08:40:52.4    -123   -247    188    276    333 206.5  37.6  34036  287.48 0855.41
2009/04/23 08:40:52.5     -59   -220    201    228    303 195.1  45.8  34032  287.41 0855.41
2009/04/23 08:40:52.6     -30   -201    180    204    272 188.5  45.9  34036  287.48 0855.41
2009/04/23 08:40:52.7      -8   -163    182    164    244 183.1  53.3  34036  287.49 0855.41
2009/04/23 08:40:52.8     -16   -147    164    148    220 186.3  53.3  34036  287.49 0855.41
2009/04/23 08:40:52.9     -20   -180    115    182    215 186.5  35.5  34034  287.43 0855.40
2009/04/23 08:40:53.0     -58   -160    104    171    200 200.0  34.0  34038  287.50 0855.40
2009/04/23 08:40:53.1      -8    -63     70     64     94 188.0  52.7  34034  287.43 0855.40
2009/04/23 08:40:53.2      55     17    109     58    123  72.3  69.8  34040  287.54 0855.40
2009/04/23 08:40:53.3      22     -5     64     23     68 103.3  81.2  34036  287.49 0855.40
2009/04/23 08:40:53.4       6    -76     96     77    123 175.5  56.9  34036  287.49 0855.40
2009/04/23 08:40:53.5    -102   -126     97    163    189 219.0  33.7  34036  287.49 0855.40
2009/04/23 08:40:53.6    -114    -94     35    149    154 230.5  13.5  34036  287.49 0855.40
2009/04/23 08:40:53.7     -89    -82      9    122    123 227.3   4.4  34036  287.47 0855.40
2009/04/23 08:40:53.8     -95   -149     31    177    180 212.5  10.1  34036  287.49 0855.40
2009/04/23 08:40:53.9    -110   -203     45    231    236 208.5  11.0  34036  287.48 0855.40
2009/04/23 08:40:54.0    -142   -173      9    225    226 219.4   2.3  34032  287.42 0855.40
2009/04/23 08:40:54.1     -86   -210     27    228    230 202.3   6.9  34036  287.49 0855.40
2009/04/23 08:40:54.2     -65   -186     69    198    210 199.4  19.2  34034  287.45 0855.40
2009/04/23 08:40:54.3      30   -240      2    242    243 172.7   0.5  34034  287.43 0855.40
2009/04/23 08:40:54.4      53   -284    -97    289    306 169.4 -18.6  34036  287.48 0855.40
2009/04/23 08:40:54.5      89   -498    -59    507    511 169.8  -6.7  34038  287.51 0855.40
2009/04/23 08:40:54.6     163   -460    -64    489    494 160.4  -7.5  34038  287.51 0855.40
2009/04/23 08:40:54.7      94   -393    -48    405    408 166.5  -6.8  34030  287.38 0855.40
2009/04/23 08:40:54.8      69   -270    131    279    308 165.5  27.1  34034  287.43 0855.40
2009/04/23 08:40:54.9      72   -288    130    297    324 165.8  25.2  34034  287.43 0855.40
2009/04/23 08:40:55.0     312   -371     23    486    487 139.9   2.8  34036  287.49 0855.40
2009/04/23 08:40:55.1      84   -510     45    518    521 170.6   5.0  34036  287.46 0855.40
2009/04/23 08:40:55.2      60   -475     66    479    484 172.8   7.9  34036  287.47 0855.40
2009/04/23 08:40:55.3     124   -376    164    397    429 161.7  23.7  34034  287.43 0855.40
2009/04/23 08:40:55.4     151   -317    128    352    374 154.5  20.9  34032  287.42 0855.40
2009/04/23 08:40:55.5     160   -249    158    297    336 147.3  30.3  34036  287.46 0855.40
2009/04/23 08:40:55.6     205   -172     62    268    276 130.0  13.1  34036  287.46 0855.40
2009/04/23 08:40:55.7     133   -184    -29    228    230 144.0  -7.3  34032  287.42 0855.40
2009/04/23 08:40:55.8     179    -84    -65    198    208 115.3 -23.6  34036  287.47 0855.40
2009/04/23 08:40:55.9     210    -14    -31    211    214  93.9  -8.6  34032  287.42 0855.39
2009/04/23 08:40:56.0     299   -118    -42    322    325 111.7  -7.5  34036  287.48 0855.39
2009/04/23 08:40:56.1     346     33    -81    348    358  84.4 -13.1  34032  287.42 0855.39
2009/04/23 08:40:56.2     280    -23    -12    281    282  94.8  -2.6  34040  287.53 0855.39
2009/04/23 08:40:56.3     266    -96     20    283    284 110.0   4.2  34038  287.51 0855.39
2009/04/23 08:40:56.4     197   -132     85    238    252 123.7  20.2  34032  287.41 0855.39
2009/04/23 08:40:56.5      88   -121     58    151    161 143.9  22.0  34036  287.49 0855.39
2009/04/23 08:40:56.6      89   -161     45    185    191 151.0  13.9  34036  287.49 0855.39
2009/04/23 08:40:56.7      85   -244    -24    259    261 160.8  -5.4  34038  287.50 0855.39
2009/04/23 08:40:56.8      71   -253     31    263    265 164.2   6.9  34038  287.50 0855.39
2009/04/23 08:40:56.9     115   -182     82    216    231 147.7  21.7  34036  287.47 0855.39
2009/04/23 08:40:57.0      38   -193    117    197    229 168.7  33.5  34034  287.43 0855.39
2009/04/23 08:40:57.1      25   -183    100    185    210 172.0  30.8  34032  287.42 0855.39
2009/04/23 08:40:57.2     -20   -146    137    148    201 188.0  47.9  34032  287.40 0855.39
2009/04/23 08:40:57.3     -21   -110    140    113    179 191.1  56.9  34032  287.40 0855.39
2009/04/23 08:40:57.4      -3    -68    139     69    155 182.7  71.9  34032  287.42 0855.39
2009/04/23 08:40:57.5     -87   -224    142    241    279 201.4  33.4  34024  287.26 0855.39
2009/04/23 08:40:57.6     -54   -226    107    233    256 193.4  26.4  34034  287.43 0855.39
2009/04/23 08:40:57.7    -120   -318    111    340    358 200.7  18.1  34030  287.37 0855.39
2009/04/23 08:40:57.8     -59   -248    163    255    302 193.4  35.6  34034  287.43 0855.39
2009/04/23 08:40:57.9      22   -290    233    291    372 175.5  42.9  34030  287.37 0855.40
2009/04/23 08:40:58.0     102   -310    274    327    426 161.7  44.1  34034  287.45 0855.40
2009/04/23 08:40:58.1      24   -143    193    146    242 170.2  59.4  34036  287.47 0855.40
2009/04/23 08:40:58.2     -17   -209    209    210    296 184.9  50.0  34042  287.58 0855.40
2009/04/23 08:40:58.3     183   -236    236    299    380 142.2  42.3  34040  287.54 0855.40
2009/04/23 08:40:58.4     173   -355    280    396    484 154.0  38.7  34040  287.53 0855.40
2009/04/23 08:40:58.5     116   -348    255    368    447 161.5  37.9  34038  287.50 0855.40
2009/04/23 08:40:58.6      95   -381    247    393    464 166.0  35.5  34036  287.46 0855.40
2009/04/23 08:40:58.8      52   -436    193    440    480 173.2  25.2  34036  287.47 0855.40
2009/04/23 08:40:58.8      24   -393    113    394    410 176.5  16.0  34038  287.50 0855.40
2009/04/23 08:40:58.9     -45   -419    177    422    457 186.3  24.1  34036  287.46 0855.40
2009/04/23 08:40:59.0     -57   -444    158    448    476 187.3  19.5  34036  287.47 0855.40
2009/04/23 08:40:59.1    -112   -436    209    451    497 194.5  26.7  34036  287.47 0855.40
2009/04/23 08:40:59.2    -102   -461    157    473    499 192.5  18.4  34032  287.42 0855.40
2009/04/23 08:40:59.3    -117   -439    221    455    505 195.0  27.8  34036  287.49 0855.40
2009/04/23 08:40:59.4    -106   -458    181    471    504 193.1  22.1  34032  287.39 0855.40
2009/04/23 08:40:59.6     -94   -394    182    406    444 193.4  25.8  34038  287.52 0855.40
2009/04/23 08:40:59.7    -123   -388    216    408    461 197.7  30.2  34030  287.38 0855.40
2009/04/23 08:40:59.8    -124   -408    170    427    459 197.0  23.0  34026  287.30 0855.40
2009/04/23 08:40:59.9     -82   -475    124    483    499 189.9  14.4  34036  287.46 0855.40
2009/04/23 08:41:00.0     -96   -455    167    466    495 192.0  20.4  34034  287.44 0855.40
2009/04/23 08:41:00.1    -182   -399     65    439    444 204.6   8.5  34032  287.40 0855.40
2009/04/23 08:41:00.2     -47   -253    231    258    346 190.6  46.5  34034  287.44 0855.40
2009/04/23 08:41:00.3      -5   -341     87    342    353 181.0  14.3  34032  287.42 0855.40
2009/04/23 08:41:00.4     -87   -434     46    443    446 191.3   6.0  34032  287.40 0855.40
2009/04/23 08:41:00.5     -65   -404     21    410    411 189.2   3.0  34034  287.43 0855.40
2009/04/23 08:41:00.6     -91   -408     20    419    420 192.7   2.8  34040  287.55 0855.40
2009/04/23 08:41:00.7     -74   -368    -64    376    382 191.5  -9.7  34042  287.57 0855.40
2009/04/23 08:41:00.8     -86   -338    -96    349    361 194.4 -20.0  34040  287.54 0855.40
2009/04/23 08:41:00.9     -64   -242    -88    251    265 194.9 -24.3  34040  287.53 0855.40
2009/04/23 08:41:01.0    -142   -314    -98    345    358 204.4 -20.5  34038  287.51 0855.40
2009/04/23 08:41:01.1     -33   -308    -51    310    315 186.3  -9.5  34036  287.46 0855.40
2009/04/23 08:41:01.2     -27   -309    -75    311    321 185.1 -13.7  34038  287.51 0855.40
2009/04/23 08:41:01.3     -66   -277    -97    285    301 193.4 -23.3  34032  287.41 0855.40
2009/04/23 08:41:01.4     -53   -256   -100    262    280 191.8 -26.4  34032  287.41 0855.40
2009/04/23 08:41:01.5     -12   -221   -100    222    243 183.1 -30.6  34036  287.46 0855.40
2009/04/23 08:41:01.6     -17   -217   -101    218    240 184.5 -30.8  34034  287.43 0855.40
2009/04/23 08:41:01.7    -108   -183   -156    213    264 210.7 -44.1  34032  287.41 0855.40
2009/04/23 08:41:01.8     -32   -185   -132    188    229 190.0 -43.0  34034  287.43 0855.40
2009/04/23 08:41:01.9      49   -310    -99    315    330 170.9 -22.6  34030  287.38 0855.40
2009/04/23 08:41:02.0    -259   -326     12    417    418 218.5   1.7  34036  287.48 0855.38
2009/04/23 08:41:02.1    -194   -194     38    275    278 225.1   8.0  34030  287.38 0855.38
2009/04/23 08:41:02.2    -126   -104    154    164    224 230.5  48.0  34038  287.50 0855.38
2009/04/23 08:41:02.3       8   -123    160    124    202 176.0  58.5  34030  287.37 0855.38
2009/04/23 08:41:02.4     -66    -42    149     79    168 237.6  69.8  34034  287.45 0855.38
2009/04/23 08:41:02.5     -73    -92    159    118    198 218.7  60.0  34032  287.42 0855.38
2009/04/23 08:41:02.6     -78    -85    104    116    155 222.3  46.9  34032  287.40 0855.38
2009/04/23 08:41:02.7     -44    -28     86     53    101 237.6  65.1  34034  287.45 0855.38
2009/04/23 08:41:02.8     -55     20     78     59     97 290.0  59.0  34034  287.45 0855.38
2009/04/23 08:41:02.9     -25     67     76     72    104 339.1  51.2  34036  287.47 0855.38
2009/04/23 08:41:03.0     -42     81     46     92    102 332.4  28.2  34032  287.42 0855.38
2009/04/23 08:41:03.1    -157      3     37    158    163 271.3  13.2  34026  287.30 0855.38
2009/04/23 08:41:03.2    -251     87     69    266    275 289.3  14.7  34026  287.29 0855.38
2009/04/23 08:41:03.3    -197    -23     68    199    211 263.2  18.9  34028  287.33 0855.38
2009/04/23 08:41:03.4    -142    -56     61    153    164 248.3  22.5  34034  287.43 0855.38
2009/04/23 08:41:03.5    -150    -78     -6    170    171 242.5  -2.3  34034  287.45 0855.38
2009/04/23 08:41:03.6    -184   -137     -8    230    231 233.4  -2.1  34036  287.49 0855.38
2009/04/23 08:41:03.7    -300   -137   -118    330    350 245.4 -24.7  34034  287.45 0855.38
2009/04/23 08:41:03.8    -225   -152    -99    272    289 235.8 -25.3  34034  287.44 0855.38
2009/04/23 08:41:03.9    -189   -104    -73    216    228 241.2 -23.3  34028  287.35 0855.38
2009/04/23 08:41:04.0     -70   -247     12    257    258 196.0   2.8  34030  287.36 0855.37
2009/04/23 08:41:04.1    -299    -14   -122    300    323 267.2 -27.9  34028  287.34 0855.37
2009/04/23 08:41:04.2    -304     13    -65    305    313 272.6 -12.2  34028  287.34 0855.37
2009/04/23 08:41:04.3    -319     24    -38    320    323 274.4  -6.8  34028  287.34 0855.37
2009/04/23 08:41:04.4    -251    -64    -77    260    271 255.6 -21.7  34032  287.41 0855.37
2009/04/23 08:41:04.5    -418   -149    -96    445    456 250.3 -12.2  34030  287.38 0855.37
2009/04/23 08:41:04.6    -470      4   -143    471    493 270.5 -17.0  34036  287.49 0855.37
2009/04/23 08:41:04.7    -377     -5   -133    378    401 269.2 -19.4  34028  287.35 0855.37
2009/04/23 08:41:04.8    -414     86   -121    423    439 281.8 -20.8  34034  287.43 0855.37
2009/04/23 08:41:04.9    -440    171   -166    473    502 291.3 -19.4  34032  287.39 0855.37
2009/04/23 08:41:05.0    -438    139     65    460    465 287.7   8.1  34030  287.38 0855.37
2009/04/23 08:41:05.1    -316     51      6    321    322 279.2   1.1  34034  287.43 0855.37
2009/04/23 08:41:05.2    -221    -35    -12    224    225 260.8  -3.1  34036  287.47 0855.37
2009/04/23 08:41:05.3    -255    -29     30    257    259 263.4   6.7  34036  287.48 0855.37
2009/04/23 08:41:05.4    -475    -77    -21    482    483 260.8  -2.5  34040  287.53 0855.37
2009/04/23 08:41:05.5    -456   -136   -151    476    499 253.4 -22.8  34040  287.54 0855.37
2009/04/23 08:41:05.6    -474    -32     -2    476    477 266.1  -0.3  34030  287.37 0855.37
2009/04/23 08:41:05.7    -481    -31    -54    482    486 266.3  -6.5  34036  287.47 0855.37
2009/04/23 08:41:05.8    -397    -30    -15    399    400 265.6  -2.2  34034  287.45 0855.37
2009/04/23 08:41:05.9    -423     12    -23    424    425 271.7  -3.2  34028  287.35 0855.37
2009/04/23 08:41:06.0    -466    -13   -132    467    486 268.3 -15.8  34042  287.59 0855.37
2009/04/23 08:41:06.1    -388    -16   -131    389    411 267.5 -18.7  34036  287.48 0855.37
2009/04/23 08:41:06.2    -398   -109     92    413    424 254.6  12.6  34034  287.45 0855.37
2009/04/23 08:41:06.3    -407   -123    -53    426    430 253.2  -7.2  34036  287.48 0855.37
2009/04/23 08:41:06.4    -477    -77    -70    484    490 260.8  -8.2  34046  287.63 0855.37
2009/04/23 08:41:06.5    -460    -70   -104    466    478 261.3 -12.7  34042  287.59 0855.37
2009/04/23 08:41:06.6    -454    -89   -124    463    480 258.9 -15.1  34044  287.61 0855.37
2009/04/23 08:41:06.7    -442    -47   -115    445    460 263.9 -14.5  34042  287.58 0855.37
2009/04/23 08:41:06.8    -449    -52   -109    453    466 263.3 -13.6  34042  287.57 0855.37
2009/04/23 08:41:06.9    -453   -102    -97    465    476 257.3 -11.8  34044  287.61 0855.37
2009/04/23 08:41:07.0    -406    -97   -107    418    432 256.5 -14.4  34042  287.57 0855.37
2009/04/23 08:41:07.1    -420    -71   -109    426    440 260.4 -14.4  34042  287.58 0855.37
2009/04/23 08:41:07.2    -418    -46   -145    421    446 263.7 -19.1  34042  287.57 0855.37
2009/04/23 08:41:07.3    -471    -36   -178    473    505 265.6 -25.9  34042  287.59 0855.37
2009/04/23 08:41:07.4    -357   -107   -147    373    400 253.3 -27.2  34026  287.32 0855.37
2009/04/23 08:41:07.5    -317   -323   -167    453    482 224.4 -25.7  34028  287.34 0855.37
2009/04/23 08:41:07.6    -251   -279   -112    376    392 221.9 -21.5  34022  287.22 0855.37
2009/04/23 08:41:07.7    -191   -216    -64    289    297 221.5 -12.6  34028  287.33 0855.37
2009/04/23 08:41:07.8    -240   -187    -96    305    320 232.2 -17.5  34032  287.39 0855.37
2009/04/23 08:41:07.9    -326   -196    -44    381    384 238.9  -6.6  34032  287.40 0855.37
2009/04/23 08:41:08.0    -278   -217    -32    354    356 232.0  -5.3  34026  287.32 0855.39
2009/04/23 08:41:08.1    -316   -150    -23    350    351 244.6  -3.8  34028  287.35 0855.39
2009/04/23 08:41:08.2    -324    -46    -78    328    338 261.9 -13.4  34038  287.52 0855.39
2009/04/23 08:41:08.3    -325   -100    -43    341    344 252.9  -7.2  34042  287.56 0855.39
2009/04/23 08:41:08.4    -333    -91    -53    346    351 254.6  -8.7  34038  287.52 0855.39
2009/04/23 08:41:08.5    -299   -164    -67    342    349 241.2 -11.1  34036  287.49 0855.39
2009/04/23 08:41:08.6    -257   -179      8    314    315 235.1   1.5  34034  287.43 0855.39
2009/04/23 08:41:08.7    -265   -133    -53    297    302 243.4 -10.3  34040  287.55 0855.39
2009/04/23 08:41:08.8    -263    -96   -115    281    303 250.0 -27.8  34046  287.65 0855.39
2009/04/23 08:41:08.9    -280    -56    -98    286    302 258.5 -23.6  34044  287.61 0855.39
2009/04/23 08:41:09.0    -300    -88   -101    313    328 253.6 -23.2  34044  287.60 0855.39
2009/04/23 08:41:09.1    -312    -84   -120    324    345 254.9 -25.7  34046  287.64 0855.39
2009/04/23 08:41:09.2    -329   -103   -117    345    364 252.5 -23.7  34044  287.62 0855.39
2009/04/23 08:41:09.3    -353   -102   -114    368    385 253.8 -22.3  34042  287.59 0855.39
2009/04/23 08:41:09.4    -333    -96   -122    347    367 253.9 -24.4  34044  287.62 0855.39
2009/04/23 08:41:09.5    -365    -93   -123    377    396 255.6 -23.2  34042  287.59 0855.39
2009/04/23 08:41:09.6    -350   -116   -103    369    383 251.6 -20.2  34042  287.57 0855.39
2009/04/23 08:41:09.7    -321   -100   -113    337    355 252.7 -23.6  34044  287.61 0855.39
2009/04/23 08:41:09.8    -326    -67    -94    333    346 258.3 -20.3  34044  287.61 0855.39
2009/04/23 08:41:09.9    -307   -119    -98    330    344 248.7 -21.5  34042  287.56 0855.39
2009/04/23 08:41:10.0    -327   -101   -116    343    363 252.7 -18.7  34046  287.64 0855.40
2009/04/23 08:41:10.1    -292   -102    -87    310    323 250.7 -15.7  34042  287.58 0855.40
2009/04/23 08:41:10.2    -271    -91    -81    286    297 251.4 -20.4  34048  287.66 0855.40
2009/04/23 08:41:10.3    -244    -97    -83    263    276 248.2 -17.5  34048  287.66 0855.40
2009/04/23 08:41:10.4    -227    -99    -82    248    261 246.4 -23.8  34046  287.63 0855.40
2009/04/23 08:41:10.5    -228   -130   -101    263    281 240.3 -26.4  34046  287.63 0855.40
2009/04/23 08:41:10.6    -189    -75   -183    204    274 248.2 -50.8  34046  287.65 0855.40
2009/04/23 08:41:10.7    -197    -54   -191    205    280 254.5 -52.3  34044  287.60 0855.40
2009/04/23 08:41:10.8    -144      7   -164    145    218 273.0 -58.4  34044  287.60 0855.40
2009/04/23 08:41:10.9    -104    -34   -120    110    162 251.8 -56.9  34046  287.64 0855.40
2009/04/23 08:41:11.0    -184    -45    -93    190    211 256.1 -32.2  34046  287.64 0855.40
2009/04/23 08:41:11.1    -134   -105    -87    171    191 232.0 -33.1  34044  287.62 0855.40
2009/04/23 08:41:11.2    -207   -134    -91    247    263 237.1 -25.4  34044  287.61 0855.40
2009/04/23 08:41:11.3    -223   -136    -99    262    280 238.5 -25.9  34044  287.61 0855.40
2009/04/23 08:41:11.4    -222   -119    -99    252    270 241.8 -27.2  34044  287.61 0855.40
2009/04/23 08:41:11.5    -180   -127   -122    221    252 234.7 -35.8  34044  287.60 0855.40
2009/04/23 08:41:11.6    -102    -99   -133    143    195 226.0 -52.3  34042  287.59 0855.40
2009/04/23 08:41:11.7    -113    -44   -102    122    159 248.7 -48.7  34044  287.62 0855.40
2009/04/23 08:41:11.8    -123    -40    -98    130    162 251.8 -45.1  34044  287.60 0855.40
2009/04/23 08:41:11.9    -163    -31   -109    167    199 259.0 -40.7  34044  287.60 0855.40
2009/04/23 08:41:12.0    -137     -8    -98    138    169 266.5 -43.2  34044  287.62 0855.37
2009/04/23 08:41:12.1    -134    -31   -109    138    175 256.7 -46.8  34044  287.60 0855.37
2009/04/23 08:41:12.2    -137    -38    -98    143    173 254.5 -42.0  34042  287.59 0855.37
2009/04/23 08:41:12.3    -109    -49    -96    120    153 245.6 -47.7  34044  287.60 0855.37
2009/04/23 08:41:12.4    -133    -74    -99    153    182 240.7 -40.1  34046  287.65 0855.37
2009/04/23 08:41:12.5    -147    -82    -82    169    187 240.7 -31.7  34044  287.60 0855.37
2009/04/23 08:41:12.6    -153    -50    -86    162    183 251.8 -35.0  34044  287.60 0855.37
2009/04/23 08:41:12.7    -162    -48    -82    170    188 253.4 -31.7  34044  287.60 0855.37
2009/04/23 08:41:12.8    -136    -44    -82    144    165 251.8 -36.8  34044  287.60 0855.37
2009/04/23 08:41:12.9    -136    -44    -96    144    173 251.8 -40.9  34044  287.62 0855.37
2009/04/23 08:41:13.0    -135    -28    -96    138    168 258.1 -42.8  34044  287.62 0855.37
2009/04/23 08:41:13.1    -150    -54    -94    160    185 250.0 -37.9  34044  287.62 0855.37
2009/04/23 08:41:13.2    -164    -57    -88    174    194 250.7 -33.1  34046  287.64 0855.37
2009/04/23 08:41:13.3    -138    -22    -99    140    171 260.8 -43.2  34044  287.60 0855.37
2009/04/23 08:41:13.4    -138    -16    -95    140    169 263.0 -41.7  34046  287.64 0855.37
2009/04/23 08:41:13.5    -120    -25    -96    123    156 258.1 -46.1  34044  287.62 0855.37
2009/04/23 08:41:13.6    -121    -17    -97    123    156 261.6 -46.8  34046  287.64 0855.37
2009/04/23 08:41:13.7     -93    -31   -100     99    140 251.6 -54.5  34044  287.62 0855.37
2009/04/23 08:41:13.8    -111     -8   -101    112    150 265.6 -51.3  34042  287.59 0855.37
2009/04/23 08:41:13.9    -115    -16    -77    117    140 262.1 -40.9  34044  287.60 0855.37
2009/04/23 08:41:14.0    -120    -24    -82    123    147 258.6 -40.9  34044  287.60 0855.37
2009/04/23 08:41:14.1    -135    -14    -68    136    152 263.9 -32.6  34044  287.60 0855.37
2009/04/23 08:41:14.2    -116    -31    -78    121    143 254.9 -40.0  34044  287.60 0855.37
2009/04/23 08:41:14.3    -114    -30    -77    119    141 255.0 -40.0  34042  287.59 0855.37
2009/04/23 08:41:14.4    -143    -31    -50    147    155 257.6 -23.3  34044  287.60 0855.37
2009/04/23 08:41:14.5    -179    -31    -70    182    195 260.1 -26.1  34044  287.60 0855.37
2009/04/23 08:41:14.6    -215    -19   -105    216    240 264.8 -32.2  34048  287.66 0855.37
2009/04/23 08:41:14.7    -148    -59   -131    160    206 248.3 -48.1  34046  287.64 0855.37
2009/04/23 08:41:14.8    -189     -8    -78    190    205 267.4 -28.0  34044  287.60 0855.37
2009/04/23 08:41:14.9    -165    -25   -118    167    204 261.2 -43.0  34048  287.67 0855.37
2009/04/23 08:41:15.0    -130    -39   -131    136    188 253.2 -53.4  34044  287.60 0855.37
2009/04/23 08:41:15.1    -153    -42   -123    159    201 254.5 -46.1  34046  287.65 0855.37
2009/04/23 08:41:15.2    -201    -19   -112    202    230 264.5 -35.8  34042  287.59 0855.37
2009/04/23 08:41:15.3    -205     -7    -95    206    226 267.9 -31.0  34044  287.60 0855.37
2009/04/23 08:41:15.4    -172    -14    -64    173    184 265.0 -25.4  34044  287.60 0855.37
2009/04/23 08:41:15.5    -150    -37    -45    155    162 255.8 -16.4  34044  287.60 0855.37
2009/04/23 08:41:15.6    -138    -46    -65    146    159 251.6 -30.1  34046  287.64 0855.37
2009/04/23 08:41:15.7     -94    -44    -90    105    138 244.7 -49.8  34044  287.62 0855.37
2009/04/23 08:41:15.8     -79    -36   -108     88    139 245.2 -60.8  34046  287.65 0855.37
2009/04/23 08:41:15.9     -90    -25    -81     94    124 254.1 -50.2  34044  287.62 0855.37
2009/04/23 08:41:16.0     -95    -46    -80    106    132 243.8 -46.0  34046  287.64 0855.38
2009/04/23 08:41:16.1    -116    -38   -102    123    159 251.6 -48.5  34046  287.64 0855.38
2009/04/23 08:41:16.2    -154      0   -112    155    191 270.0 -43.9  34042  287.59 0855.38
2009/04/23 08:41:16.3    -117    -28   -119    121    169 256.3 -54.4  34044  287.62 0855.38
2009/04/23 08:41:16.4     -94    -44   -107    105    149 244.7 -54.5  34046  287.64 0855.38
2009/04/23 08:41:16.5    -105    -33   -136    111    175 252.7 -60.8  34044  287.60 0855.38
2009/04/23 08:41:16.6    -103    -37   -162    110    195 250.0 -67.0  34044  287.62 0855.38
2009/04/23 08:41:16.7    -109    -35   -137    115    178 251.8 -60.2  34046  287.64 0855.38
2009/04/23 08:41:16.8     -88    -29   -147     93    173 251.4 -69.1  34044  287.62 0855.38
2009/04/23 08:41:16.9       3     46    -79     47     91   4.5 -70.6  34046  287.65 0855.38
2009/04/23 08:41:17.0      28     35   -103     46    112  38.7 -78.9  34046  287.65 0855.37
2009/04/23 08:41:17.1     -10    -22   -105     25    107 203.6 -90.0  34040  287.55 0855.37
2009/04/23 08:41:17.2      -1    -12    -97     13     97 188.0 -90.0  34040  287.54 0855.37
2009/04/23 08:41:17.3      43    -48    -87     65    108 137.7 -63.8  34044  287.60 0855.37
2009/04/23 08:41:17.4      63    -53    -79     83    114 130.0 -53.4  34044  287.62 0855.37
2009/04/23 08:41:17.5      41    -26    -77     49     91 122.5 -69.1  34042  287.59 0855.37
2009/04/23 08:41:17.6      49     10    -53     51     73  77.6 -54.5  34044  287.60 0855.37
2009/04/23 08:41:17.7      82     22    -47     86     98  74.5 -35.2  34044  287.60 0855.37
2009/04/23 08:41:17.8     105      0    -39    106    112  90.0 -24.8  34042  287.59 0855.37
2009/04/23 08:41:17.9      33      0    -36     34     49  90.0 -54.5  34040  287.54 0855.37
2009/04/23 08:41:18.0      55   -129    -58    141    152 156.8 -27.5  34038  287.50 0855.37
2009/04/23 08:41:18.1      91   -142    -48    169    175 147.3 -20.4  34038  287.52 0855.37
2009/04/23 08:41:18.2      90   -177    -32    199    202 153.0  -9.3  34036  287.47 0855.37
2009/04/23 08:41:18.3      72   -187    -40    201    206 158.8 -11.3  34040  287.55 0855.37
2009/04/23 08:41:18.4      85   -159    -39    181    186 151.7 -12.4  34042  287.57 0855.37
2009/04/23 08:41:18.5      96   -174    -24    199    201 151.0  -6.9  34038  287.52 0855.37
2009/04/23 08:41:18.6     102   -185     10    212    213 151.0   2.9  34038  287.52 0855.37
2009/04/23 08:41:18.7     103   -190     26    217    219 151.5   6.9  34040  287.54 0855.37
2009/04/23 08:41:18.8      79   -196     64    212    222 158.1  16.8  34038  287.52 0855.37
2009/04/23 08:41:18.9      35   -184     89    188    208 169.1  27.1  34038  287.52 0855.37
2009/04/23 08:41:19.0     -10   -213    139    214    255 182.9  36.0  34040  287.53 0855.37
2009/04/23 08:41:19.1     -14   -185    110    186    216 184.5  33.5  34040  287.55 0855.37
2009/04/23 08:41:19.2      35   -179    107    183    211 168.7  33.4  34042  287.57 0855.37
2009/04/23 08:41:19.3      38   -228     74    232    244 170.4  17.7  34042  287.58 0855.37
2009/04/23 08:41:19.4      82   -286     85    298    311 163.9  16.0  34042  287.56 0855.37
2009/04/23 08:41:19.5      92   -305     64    319    326 163.1  11.3  34038  287.51 0855.37
2009/04/23 08:41:19.6     132   -249     71    282    291 152.0  14.2  34042  287.56 0855.37
2009/04/23 08:41:19.7      80   -232     85    246    261 160.8  19.2  34044  287.60 0855.37
2009/04/23 08:41:19.8     102   -233    104    255    275 156.4  23.4  34046  287.63 0855.37
2009/04/23 08:41:19.9     178   -219    135    283    313 141.0  27.3  34044  287.61 0855.37
2009/04/23 08:41:20.0     161   -320     56    359    364 153.3   9.0  34042  287.57 0855.37
2009/04/23 08:41:20.1     155   -296     60    335    341 152.3  10.2  34042  287.57 0855.37
2009/04/23 08:41:20.2     153   -341     72    374    381 155.8  11.0  34042  287.57 0855.37
2009/04/23 08:41:20.3     127   -357     55    380    385 160.4   8.2  34044  287.61 0855.37
2009/04/23 08:41:20.4     146   -285     60    321    327 152.9  10.7  34044  287.60 0855.37
2009/04/23 08:41:20.5     182   -246    114    307    327 143.5  21.3  34042  287.58 0855.37
2009/04/23 08:41:20.6     141   -243    129    281    309 149.9  26.6  34046  287.63 0855.37
2009/04/23 08:41:20.7     168   -203    106    264    284 140.4  23.0  34040  287.53 0855.37
2009/04/23 08:41:20.8     111   -232     88    258    273 154.4  18.9  34042  287.58 0855.37
2009/04/23 08:41:20.9      94   -197     90    219    236 154.5  23.6  34040  287.55 0855.37
2009/04/23 08:41:21.0      81   -170     69    189    201 154.5  21.0  34040  287.55 0855.36
2009/04/23 08:41:21.1      89   -259     86    275    289 160.9  17.4  34040  287.55 0855.36
2009/04/23 08:41:21.2     101   -305     63    322    329 161.5  11.1  34044  287.60 0855.36
2009/04/23 08:41:21.3      70   -281     15    290    291 166.0   3.1  34042  287.56 0855.36
2009/04/23 08:41:21.4      69   -267     27    276    278 165.5   5.7  34042  287.56 0855.36
2009/04/23 08:41:21.5     101   -254      3    274    275 158.2   0.8  34042  287.58 0855.36
2009/04/23 08:41:21.6      95   -249     72    267    277 159.0  15.2  34042  287.56 0855.36
2009/04/23 08:41:21.7      95   -289     83    305    317 161.7  15.2  34042  287.58 0855.36
2009/04/23 08:41:21.8     141   -286     73    320    329 153.7  12.9  34044  287.60 0855.36
2009/04/23 08:41:21.9     151   -237     55    282    288 147.5  11.1  34044  287.60 0855.36
2009/04/23 08:41:22.0     150   -230    110    275    296 146.8  23.0  34044  287.60 0855.36
2009/04/23 08:41:22.1     149   -160     77    219    233 137.0  19.4  34042  287.57 0855.36
2009/04/23 08:41:22.2     104   -226    103    249    269 155.3  23.8  34042  287.56 0855.36
2009/04/23 08:41:22.3      88   -236    102    253    272 159.5  23.0  34042  287.58 0855.36
2009/04/23 08:41:22.4      78   -264    108    276    296 163.5  22.8  34040  287.55 0855.36
2009/04/23 08:41:22.5      74   -275    102    285    302 164.8  20.4  34042  287.58 0855.36
2009/04/23 08:41:22.6      47   -241     97    246    264 168.9  22.8  34042  287.58 0855.36
2009/04/23 08:41:22.7      30   -239     98    241    260 172.7  23.1  34040  287.55 0855.36
2009/04/23 08:41:22.8      44   -241    107    246    268 169.5  25.1  34042  287.58 0855.36
2009/04/23 08:41:22.9      45   -257     99    262    280 170.0  21.5  34042  287.58 0855.36
2009/04/23 08:41:23.0      43   -253     85    257    271 170.3  18.4  34046  287.63 0855.37
2009/04/23 08:41:23.1      32   -249      5    252    253 172.7   1.2  34040  287.55 0855.37
2009/04/23 08:41:23.3      61   -306     23    313    314 168.7   4.2  34040  287.53 0855.37
2009/04/23 08:41:23.3      66   -295     -3    303    304 167.3  -0.7  34040  287.53 0855.37
2009/04/23 08:41:23.4      82   -244      0    258    259 161.3   0.0  34040  287.55 0855.37
2009/04/23 08:41:23.5      96   -207     -9    229    230 155.1  -2.3  34038  287.50 0855.37
2009/04/23 08:41:23.6      31   -216     18    219    220 171.8   4.9  34038  287.50 0855.37
2009/04/23 08:41:23.7     -13   -218    -12    219    220 183.6  -3.2  34040  287.54 0855.37
2009/04/23 08:41:23.8     -45   -225    -29    230    232 191.5  -7.2  34042  287.57 0855.37
2009/04/23 08:41:23.9     -38   -227     -4    231    232 189.7  -1.2  34036  287.49 0855.37
2009/04/23 08:41:24.0     -90   -164    -73    188    201 208.9 -26.7  34038  287.50 0855.37
2009/04/23 08:41:24.1      40   -201    -65    206    217 168.7 -17.5  34040  287.54 0855.37
2009/04/23 08:41:24.2      24   -194    -62    196    206 172.9 -17.6  34042  287.57 0855.37
2009/04/23 08:41:24.3     -15   -199    -32    200    203 184.4  -9.3  34038  287.52 0855.37
2009/04/23 08:41:24.4     -35   -161    -47    165    171 192.3 -20.7  34042  287.57 0855.37
2009/04/23 08:41:24.5       8   -159    -48    160    168 176.9 -16.8  34042  287.59 0855.37
2009/04/23 08:41:24.6      56   -201    -23    209    211 164.4  -6.5  34036  287.49 0855.37
2009/04/23 08:41:24.7      71   -231     -9    242    243 162.8  -2.2  34042  287.58 0855.37
2009/04/23 08:41:24.8      66   -242     -9    252    253 164.6  -2.2  34042  287.58 0855.37
2009/04/23 08:41:24.9      80   -232     -1    246    247 160.8  -0.3  34044  287.60 0855.37
2009/04/23 08:41:25.0      43   -254    -66    258    267 170.2 -14.5  34038  287.51 0855.36
2009/04/23 08:41:25.1     -18   -243    -44    244    248 184.2 -10.3  34040  287.53 0855.36
2009/04/23 08:41:25.2      -6   -222    -79    223    237 181.8 -19.7  34040  287.54 0855.36
2009/04/23 08:41:25.3     -21   -237    -48    238    243 185.1 -11.5  34042  287.56 0855.36
2009/04/23 08:41:25.4     -54   -268     11    274    275 191.6   2.3  34040  287.53 0855.36
2009/04/23 08:41:25.5     -93   -283    -19    299    300 198.3  -3.7  34040  287.53 0855.36
2009/04/23 08:41:25.6     -76   -266    -46    277    281 196.1  -9.6  34038  287.51 0855.36
2009/04/23 08:41:25.7      27   -276    -45    278    282 174.4  -9.4  34038  287.51 0855.36
2009/04/23 08:41:25.8      53   -222    -74    229    240 166.6 -23.0  34040  287.55 0855.36
2009/04/23 08:41:25.9      35   -304    -92    307    321 173.3 -16.8  34038  287.51 0855.36
2009/04/23 08:41:26.0       5   -331    -93    332    345 179.0 -15.7  34038  287.52 0855.36
2009/04/23 08:41:26.2     -34   -343   -101    345    359 185.7 -21.4  34042  287.56 0855.36
2009/04/23 08:41:26.2     -22   -343    -53    344    349 183.8  -8.9  34040  287.54 0855.36
2009/04/23 08:41:26.4      19   -384    -70    385    392 177.1 -10.4  34040  287.54 0855.36
2009/04/23 08:41:26.5       8   -450    -77    451    458 178.9  -9.8  34040  287.53 0855.36
2009/04/23 08:41:26.6      31   -351   -115    353    372 174.9 -18.1  34040  287.54 0855.36
2009/04/23 08:41:26.7     -17   -222   -176    223    284 184.5 -46.8  34034  287.43 0855.36
2009/04/23 08:41:26.8    -117   -237    -85    265    278 206.3 -22.9  34038  287.50 0855.36
2009/04/23 08:41:26.9    -165   -251   -102    301    317 213.4 -23.7  34038  287.50 0855.36
2009/04/23 08:41:27.0     -40   -323    -68    326    334 187.2 -11.9  34038  287.52 0855.36
2009/04/23 08:41:27.1     -24   -316    -21    317    318 184.4  -3.8  34038  287.51 0855.36
2009/04/23 08:41:27.2     -69   -338    -46    346    350 191.7  -7.6  34038  287.51 0855.35
2009/04/23 08:41:27.3    -102   -296    -81    314    325 199.1 -14.5  34044  287.60 0855.35
2009/04/23 08:41:27.4     -15   -263    -19    264    265 183.4  -4.1  34044  287.60 0855.35
2009/04/23 08:41:27.5     -27   -224    -27    226    228 187.1  -6.9  34038  287.52 0855.35
2009/04/23 08:41:27.6      16   -209     -6    210    211 175.6  -1.8  34040  287.54 0855.35
2009/04/23 08:41:27.7       3   -235     -5    236    237 179.1  -1.3  34040  287.55 0855.35
2009/04/23 08:41:27.8      15   -196     10    197    198 175.5   3.1  34036  287.47 0855.35
2009/04/23 08:41:27.9      75   -152     49    170    178 153.5  16.3  34036  287.49 0855.35
2009/04/23 08:41:28.0      33   -194     61    197    207 170.2  17.3  34038  287.52 0855.35
2009/04/23 08:41:28.1      40   -196     66    201    212 168.4  18.4  34036  287.49 0855.35
2009/04/23 08:41:28.2     126   -185     50    224    230 145.7  12.6  34036  287.49 0855.35
2009/04/23 08:41:28.3     167   -194     95    257    273 139.2  21.0  34038  287.50 0855.35
2009/04/23 08:41:28.4     160   -176     95    239    257 137.7  23.0  34034  287.44 0855.35
2009/04/23 08:41:28.5     122   -149    129    193    232 140.8  36.7  34038  287.50 0855.35
2009/04/23 08:41:28.6     177   -171    177    247    303 134.0  39.5  34034  287.43 0855.35
2009/04/23 08:41:28.7     206   -140     48    250    255 124.2  11.0  34038  287.51 0855.35
2009/04/23 08:41:28.8     234    -56     85    241    256 103.5  19.4  34038  287.51 0855.35
2009/04/23 08:41:28.9     197    -37     86    201    218 100.8  24.3  34042  287.57 0855.35
2009/04/23 08:41:29.0     235      5     -2    236    237  88.7  -0.7  34040  287.55 0855.35
2009/04/23 08:41:29.1     217      6    -51    218    224  88.3 -13.2  34038  287.52 0855.34
2009/04/23 08:41:29.2     194      1    -59    195    204  89.6 -17.0  34038  287.52 0855.34
2009/04/23 08:41:29.3     227     15     11    228    229  86.1   2.9  34042  287.59 0855.34
2009/04/23 08:41:29.4     193      6    -45    194    200  88.1 -13.2  34044  287.60 0855.34
2009/04/23 08:41:29.5      65    -59   -106     88    137 132.2 -60.7  34040  287.54 0855.34
2009/04/23 08:41:29.6      66   -101    -78    121    143 146.6 -40.0  34040  287.55 0855.34
2009/04/23 08:41:29.7      80   -126    -79    150    169 147.5 -34.2  34042  287.59 0855.34
2009/04/23 08:41:29.8      83   -114    -74    142    160 143.9 -34.2  34042  287.57 0855.34
2009/04/23 08:41:29.9      68   -104    -63    125    139 147.0 -33.6  34042  287.59 0855.34
2009/04/23 08:41:30.0      72   -112    -61    134    147 147.4 -31.0  34042  287.59 0855.34
2009/04/23 08:41:30.1     130    -94    -23    161    163 126.0  -8.2  34040  287.55 0855.34
2009/04/23 08:41:30.2      99    -99    -19    141    143 135.0  -7.7  34042  287.59 0855.34
2009/04/23 08:41:30.3     114    -88     17    145    147 127.8   6.9  34042  287.59 0855.34
2009/04/23 08:41:30.4      92    -86     -2    127    128 133.1  -1.3  34042  287.59 0855.34
2009/04/23 08:41:30.5     109    -56     51    123    133 117.5  23.6  34042  287.59 0855.34
2009/04/23 08:41:30.6     113    -29     47    117    126 104.6  23.0  34040  287.55 0855.34
2009/04/23 08:41:30.7      94    -39     -3    102    103 112.6  -1.8  34044  287.60 0855.34
2009/04/23 08:41:30.8      62    -68    -29     93     98 137.7 -17.6  34042  287.59 0855.34
2009/04/23 08:41:30.9      85    -92    -44    126    133 137.2 -23.8  34042  287.57 0855.34
2009/04/23 08:41:31.0      63   -117    -47    134    142 151.5 -23.8  34040  287.54 0855.34
2009/04/23 08:41:31.1      78    -82    -18    114    116 136.7  -9.4  34038  287.52 0855.33
2009/04/23 08:41:31.2      90    -74     22    117    120 129.5  11.0  34040  287.55 0855.33
2009/04/23 08:41:31.3     103    -78     35    130    135 127.3  15.3  34044  287.60 0855.33
2009/04/23 08:41:31.4     109    -84      2    138    139 127.8   1.2  34046  287.65 0855.33
2009/04/23 08:41:31.5     116    -59      8    131    132 117.0   3.8  34048  287.69 0855.33
2009/04/23 08:41:31.6     137    -78     38    158    163 119.8  13.5  34044  287.60 0855.33
2009/04/23 08:41:31.7     153   -123     56    197    206 128.9  16.0  34044  287.60 0855.33
2009/04/23 08:41:31.8     155   -139     53    209    216 131.8  14.3  34044  287.62 0855.33
2009/04/23 08:41:31.9     147   -129     43    196    201 131.3  12.6  34046  287.65 0855.33
2009/04/23 08:41:32.0     144   -135     82    198    214 133.1  23.6  34042  287.57 0855.33
2009/04/23 08:41:32.1     128   -157     74    203    216 140.8  20.9  34044  287.60 0855.33
2009/04/23 08:41:32.2     100   -148     13    179    180 145.9   4.2  34044  287.62 0855.33
2009/04/23 08:41:32.3     112   -149     -9    187    188 143.0  -2.8  34044  287.62 0855.33
2009/04/23 08:41:32.4     122   -160      1    202    203 142.8   0.5  34044  287.62 0855.33
2009/04/23 08:41:32.5     148   -203      3    252    253 143.9   0.8  34046  287.65 0855.33
2009/04/23 08:41:32.6     156   -252     54    297    302 148.1  10.3  34046  287.63 0855.33
2009/04/23 08:41:32.7     113   -221    102    249    269 152.9  23.1  34044  287.60 0855.33
2009/04/23 08:41:32.8     118   -235     81    264    277 153.3  17.1  34044  287.61 0855.33
2009/04/23 08:41:32.9     104   -188     67    216    227 151.0  17.3  34044  287.60 0855.33
2009/04/23 08:41:33.0      76   -141     41    161    167 151.5  14.5  34044  287.60 0855.33
2009/04/23 08:41:33.1      49   -104    104    116    155 154.5  46.9  34038  287.50 0855.34
2009/04/23 08:41:33.2     100   -121     99    158    186 140.3  35.5  34042  287.59 0855.34
2009/04/23 08:41:33.3     116   -207     60    238    246 150.6  14.2  34044  287.61 0855.34
2009/04/23 08:41:33.4      73   -252     82    263    276 163.7  17.3  34044  287.60 0855.34
2009/04/23 08:41:33.5      83   -287     69    299    307 163.7  13.1  34038  287.51 0855.34
2009/04/23 08:41:33.6      56   -299    106    305    324 169.4  19.2  34044  287.61 0855.34
2009/04/23 08:41:33.7      60   -297    107    304    322 168.4  20.0  34044  287.60 0855.34
2009/04/23 08:41:33.8      71   -321    123    329    351 167.5  21.5  34040  287.54 0855.34
2009/04/23 08:41:33.9      -9   -298    158    299    338 181.8  30.2  34040  287.55 0855.34
2009/04/23 08:41:34.0     -51   -276    113    281    302 190.6  23.1  34040  287.55 0855.34
2009/04/23 08:41:34.1     -89   -305    100    318    334 196.4  17.5  34042  287.56 0855.34
2009/04/23 08:41:34.2     -90   -271     84    286    299 198.5  16.4  34040  287.55 0855.34
2009/04/23 08:41:34.3    -127   -255     76    285    296 206.5  15.0  34038  287.51 0855.34
2009/04/23 08:41:34.4     -83   -199     16    216    217 202.7   4.2  34040  287.55 0855.34
2009/04/23 08:41:34.5      10   -239     51    240    246 177.4  12.2  34038  287.50 0855.34
2009/04/23 08:41:34.6      92   -240    -23    258    260 159.1  -5.2  34040  287.53 0855.34
2009/04/23 08:41:34.7      99   -225    -69    246    255 156.2 -20.0  34038  287.51 0855.34
2009/04/23 08:41:34.8     153   -197    -79    250    263 142.2 -17.5  34040  287.53 0855.34
2009/04/23 08:41:34.9     229   -188    -29    297    299 129.3  -5.6  34042  287.56 0855.34
2009/04/23 08:41:35.0     202   -153     -5    254    255 127.3  -1.3  34044  287.60 0855.34
2009/04/23 08:41:35.1      95   -158    -32    185    188 149.0 -10.1  34040  287.55 0855.34
2009/04/23 08:41:35.2     140   -155     28    209    211 137.9   7.8  34042  287.59 0855.34
2009/04/23 08:41:35.3     136   -168     42    217    222 141.0  11.0  34040  287.55 0855.34
2009/04/23 08:41:35.4     123   -171     32    211    214 144.2   8.8  34038  287.52 0855.34
2009/04/23 08:41:35.5     101   -120     57    158    167 139.9  20.4  34038  287.52 0855.34
2009/04/23 08:41:35.6     125   -129     60    180    190 135.9  18.4  34040  287.55 0855.34
2009/04/23 08:41:35.7      51   -163     25    171    173 162.6   8.5  34044  287.60 0855.34
2009/04/23 08:41:35.8      48   -177     84    184    202 164.6  26.2  34042  287.59 0855.34
2009/04/23 08:41:35.9      18   -231     54    232    239 175.5  13.1  34042  287.56 0855.34
2009/04/23 08:41:36.0      73   -246     21    257    259 163.5   4.9  34040  287.55 0855.34
2009/04/23 08:41:36.1      66   -266    -15    275    276 166.0  -3.2  34042  287.58 0855.34
2009/04/23 08:41:36.2      66   -235     -9    245    246 164.2  -2.2  34044  287.60 0855.34
2009/04/23 08:41:36.3      51   -169    -82    177    195 163.1 -31.4  34040  287.55 0855.34
2009/04/23 08:41:36.4      22   -107    -82    110    137 168.4 -45.1  34042  287.57 0855.34
2009/04/23 08:41:36.5      26   -106    -47    110    119 166.2 -28.5  34042  287.59 0855.34
2009/04/23 08:41:36.6      36    -67    -38     77     85 151.9 -32.6  34042  287.57 0855.34
2009/04/23 08:41:36.7      40    -47    -22     62     66 139.5 -19.6  34042  287.57 0855.34
2009/04/23 08:41:36.8      99   -113    -48    151    159 139.0 -17.6  34038  287.50 0855.34
2009/04/23 08:41:36.9     104   -178     18    207    208 149.7   5.2  34038  287.52 0855.34
2009/04/23 08:41:37.0      84   -128     72    154    170 146.6  27.1  34036  287.49 0855.34
2009/04/23 08:41:37.1      22   -110     77    113    136 168.4  37.4  34040  287.54 0855.34
2009/04/23 08:41:37.2       7    -99     48    100    110 175.6  27.3  34038  287.50 0855.34
2009/04/23 08:41:37.3     124   -157     62    201    211 141.7  17.3  34040  287.54 0855.34
2009/04/23 08:41:37.4      75   -153     72    171    185 153.9  23.8  34038  287.52 0855.34
2009/04/23 08:41:37.5      54   -186    107    194    221 163.7  31.3  34038  287.50 0855.34
2009/04/23 08:41:37.6      64   -245    133    254    286 165.3  29.8  34032  287.41 0855.34
2009/04/23 08:41:37.7      17   -219    135    220    258 175.5  34.4  34036  287.46 0855.34
2009/04/23 08:41:37.8       4   -258    106    259    279 179.0  23.4  34040  287.53 0855.34
2009/04/23 08:41:37.9     -16   -258     51    259    265 183.6  11.1  34036  287.48 0855.34
2009/04/23 08:41:38.0     -54   -215     66    222    232 194.3  16.6  34036  287.49 0855.34
2009/04/23 08:41:38.1       7   -150     74    151    168 177.3  27.8  34038  287.50 0855.36
2009/04/23 08:41:38.2      16   -182     60    183    193 174.7  18.4  34038  287.52 0855.36
2009/04/23 08:41:38.3      29   -158     34    161    165 169.3  12.0  34036  287.47 0855.36
2009/04/23 08:41:38.4      45   -150      0    157    158 163.1   0.2  34038  287.50 0855.36
2009/04/23 08:41:38.5      41   -124    -19    131    133 161.5  -8.2  34038  287.52 0855.36
2009/04/23 08:41:38.6      16   -120     28    122    126 172.0  13.2  34038  287.50 0855.36
2009/04/23 08:41:38.7     -39   -106    -26    114    117 200.5 -12.9  34036  287.47 0855.36
2009/04/23 08:41:38.8     -32    -55     29     64     70 210.7  27.1  34038  287.50 0855.36
2009/04/23 08:41:38.9      28   -111     29    115    119 165.7  14.3  34036  287.49 0855.36
2009/04/23 08:41:39.0      63    -89      5    110    111 144.8   2.9  34036  287.49 0855.36
2009/04/23 08:41:39.1      56    -87    -40    104    111 147.4 -26.4  34038  287.52 0855.36
2009/04/23 08:41:39.2     105    -67    -39    125    130 122.4 -22.3  34038  287.52 0855.36
2009/04/23 08:41:39.3     109     12    -41    110    117  83.4 -25.4  34034  287.43 0855.36
2009/04/23 08:41:39.4     173      0    -31    174    177  90.0 -10.1  34038  287.52 0855.36
2009/04/23 08:41:39.5     174      0    -49    175    181  90.0 -20.2  34038  287.52 0855.36
2009/04/23 08:41:39.6     198      6    -39    199    203  88.1 -11.1  34038  287.52 0855.36
2009/04/23 08:41:39.7     173      7    -23    174    176  87.6  -7.7  34036  287.49 0855.36
2009/04/23 08:41:39.8     183     46    -12    189    190  75.8  -3.9  34038  287.52 0855.36
2009/04/23 08:41:39.9     161     49    -24    169    171  72.9  -8.2  34038  287.52 0855.36
2009/04/23 08:41:40.0     149     62     -7    162    163  67.2  -2.6  34040  287.54 0855.36
2009/04/23 08:41:40.1     151     57     18    162    164  69.2   6.5  34044  287.60 0855.36
2009/04/23 08:41:40.2     101     49      8    113    114  63.8   4.4  34044  287.62 0855.36
2009/04/23 08:41:40.3      61     22     14     65     67  70.0  12.2  34042  287.59 0855.36
2009/04/23 08:41:40.4      91     37     13     99    100  67.8   8.0  34042  287.59 0855.36
2009/04/23 08:41:40.5     144     47    -57    152    162  71.8 -25.7  34044  287.62 0855.36
2009/04/23 08:41:40.6     198     66    -65    209    218  71.6 -22.3  34040  287.55 0855.36
2009/04/23 08:41:40.7     230    -38    -15    234    235  99.5  -3.9  34032  287.41 0855.36
2009/04/23 08:41:40.8     171      9    109    172    203  87.0  35.5  34042  287.57 0855.36
2009/04/23 08:41:40.9     111     92      4    145    146  50.4   1.8  34044  287.60 0855.36
2009/04/23 08:41:41.0     -44     74     22     87     90 329.3  14.3  34048  287.67 0855.36
2009/04/23 08:41:41.1    -105     57     10    120    121 298.9   5.0  34046  287.64 0855.36
2009/04/23 08:41:41.2    -127    -98     84    161    181 232.2  29.8  34042  287.57 0855.36
2009/04/23 08:41:41.3     -27   -103     93    107    141 195.1  45.8  34040  287.54 0855.36
2009/04/23 08:41:41.4     -43   -128     53    136    145 198.7  22.5  34038  287.50 0855.36
2009/04/23 08:41:41.5      -7   -133     70    134    151 183.1  29.3  34038  287.52 0855.36
2009/04/23 08:41:41.6      21   -128     90    130    158 170.7  38.0  34038  287.50 0855.36
2009/04/23 08:41:41.7      -2   -163    129    164    208 180.9  42.2  34038  287.50 0855.36
2009/04/23 08:41:41.8       7   -112    128    113    170 176.0  54.3  34042  287.57 0855.36
2009/04/23 08:41:41.9     -42    -93     74    103    126 204.5  39.5  34042  287.57 0855.36
2009/04/23 08:41:42.0     -42   -116     -4    124    125 200.0  -2.2  34040  287.55 0855.36
2009/04/23 08:41:42.1    -104   -130    -59    167    178 218.7 -19.4  34040  287.54 0855.35
2009/04/23 08:41:42.2    -118   -124    -11    172    173 223.4  -3.9  34038  287.52 0855.35
2009/04/23 08:41:42.3    -113   -152    -58    190    198 216.7 -21.8  34042  287.57 0855.35
2009/04/23 08:41:42.4    -119   -167   -115    206    235 215.4 -35.8  34040  287.54 0855.35
2009/04/23 08:41:42.5     -92   -160    -89    185    205 210.1 -31.7  34038  287.50 0855.35
2009/04/23 08:41:42.6    -198   -239   -184    311    361 219.7 -37.9  34038  287.52 0855.35
2009/04/23 08:41:42.7     -32   -312   -167    314    355 186.0 -34.7  34042  287.59 0855.35
2009/04/23 08:41:42.8     146   -293   -157    328    363 153.5 -31.7  34042  287.56 0855.35
2009/04/23 08:41:42.9     118   -269   -115    294    315 156.3 -26.9  34038  287.51 0855.35
2009/04/23 08:41:43.0     118   -226    -97    256    273 152.4 -25.9  34044  287.60 0855.35
2009/04/23 08:41:43.1     195   -254    -98    321    335 142.4 -21.9  34042  287.57 0855.35
2009/04/23 08:41:43.2     124   -116   -156    171    231 133.1 -51.9  34030  287.37 0855.35
2009/04/23 08:41:43.3       1    -70   -107     71    128 179.1 -68.0  34038  287.52 0855.35
2009/04/23 08:41:43.4      62    -74    -82     97    127 139.9 -49.2  34038  287.52 0855.35
2009/04/23 08:41:43.5      11    -35    -97     37    103 161.3 -83.0  34040  287.54 0855.35
2009/04/23 08:41:43.6      34    -97   -120    104    158 160.4 -59.2  34040  287.55 0855.35
2009/04/23 08:41:43.7      65    -95    -72    116    136 145.7 -39.9  34040  287.55 0855.35
2009/04/23 08:41:43.8      56    -82    -49    100    111 145.3 -31.7  34040  287.55 0855.35
2009/04/23 08:41:43.9     102    -64    -28    121    125 122.5 -13.3  34044  287.60 0855.35
2009/04/23 08:41:44.0      84    -30      8     90     91 109.5   5.4  34042  287.57 0855.35
2009/04/23 08:41:44.1      13     -1     98     14     99  97.9  90.0  34046  287.64 0855.35
2009/04/23 08:41:44.2     172   -147     61    227    236 130.7  15.2  34046  287.64 0855.35
2009/04/23 08:41:44.3     134   -165     43    213    218 140.8  11.4  34044  287.60 0855.35
2009/04/23 08:41:44.4     178   -178     67    252    261 135.0  15.0  34044  287.60 0855.35
2009/04/23 08:41:44.5      81   -164    116    184    217 153.7  35.5  34046  287.65 0855.35
2009/04/23 08:41:44.6     147   -189    140    240    277 142.2  33.1  34048  287.66 0855.35
2009/04/23 08:41:44.7     140   -193    125    239    269 143.9  29.8  34044  287.60 0855.35
2009/04/23 08:41:44.8     127   -203     74    240    252 147.9  17.1  34046  287.63 0855.35
2009/04/23 08:41:44.9     212   -229     63    313    320 137.2  11.5  34048  287.68 0855.35
2009/04/23 08:41:45.0     217   -231     98    318    333 136.8  17.2  34050  287.70 0855.35
2009/04/23 08:41:45.1     190   -230     89    299    313 140.4  16.6  34046  287.63 0855.35
2009/04/23 08:41:45.2     122   -265    100    292    309 155.3  18.9  34044  287.60 0855.35
2009/04/23 08:41:45.3      69   -209    132    221    257 161.7  33.5  34044  287.60 0855.35
2009/04/23 08:41:45.4      92   -115    122    148    191 141.3  43.8  34038  287.50 0855.35
2009/04/23 08:41:45.5      -9   -149    105    150    183 183.6  38.4  34040  287.54 0855.35
2009/04/23 08:41:45.6     -27   -197     67    199    211 188.0  18.6  34040  287.54 0855.35
2009/04/23 08:41:45.7     -50   -266     13    271    272 190.7   2.8  34042  287.58 0855.35
2009/04/23 08:41:45.8     -87   -335     17    347    348 194.6   2.9  34042  287.57 0855.35
2009/04/23 08:41:45.9     -24   -306    -33    308    310 184.5  -6.2  34040  287.55 0855.35
2009/04/23 08:41:46.0      28   -292     30    294    296 174.4   5.9  34042  287.56 0855.35
2009/04/23 08:41:46.1      -7   -189     20    190    192 182.2   6.1  34042  287.57 0855.36
2009/04/23 08:41:46.2      26   -184    -10    186    187 171.9  -3.2  34040  287.55 0855.36
2009/04/23 08:41:46.3     -87   -149    -89    173    194 210.3 -33.7  34040  287.55 0855.36
2009/04/23 08:41:46.4       6   -186   -141    187    234 178.0 -45.1  34038  287.52 0855.36
2009/04/23 08:41:46.5      87   -169   -112    191    221 152.8 -37.8  34042  287.57 0855.36
2009/04/23 08:41:46.6     112   -125    -55    169    177 138.1 -23.3  34040  287.54 0855.36
2009/04/23 08:41:46.7     132    -77    -80    153    172 120.2 -33.9  34042  287.57 0855.36
2009/04/23 08:41:46.8     -14    -88    -48     90    102 189.3 -35.2  34042  287.57 0855.36
2009/04/23 08:41:46.9       8   -114     10    115    116 175.6   5.4  34042  287.57 0855.36
2009/04/23 08:41:47.0      37    -78     46     87     98 154.6  29.8  34038  287.50 0855.36
2009/04/23 08:41:47.1     116    -70     54    136    146 121.1  23.0  34042  287.57 0855.36
2009/04/23 08:41:47.2     126    -42     66    133    148 108.6  27.8  34042  287.57 0855.36
2009/04/23 08:41:47.3     134    -62     81    148    168 114.8  31.0  34042  287.59 0855.36
2009/04/23 08:41:47.4     116   -143     91    185    206 140.8  28.0  34040  287.55 0855.36
2009/04/23 08:41:47.5      92   -186     75    208    221 153.5  20.4  34036  287.49 0855.36
2009/04/23 08:41:47.6     101   -180    120    207    239 150.6  32.7  34040  287.55 0855.36
2009/04/23 08:41:47.7     180   -225    100    289    307 141.3  19.2  34046  287.63 0855.36
2009/04/23 08:41:47.8     143   -292    122    326    348 153.9  21.5  34042  287.56 0855.36
2009/04/23 08:41:47.9      51   -223    137    229    266 167.1  33.7  34040  287.55 0855.36
2009/04/23 08:41:48.0     112   -223    127    250    280 153.3  29.2  34044  287.61 0855.36
2009/04/23 08:41:48.1      82   -260     99    273    290 162.4  20.9  34042  287.56 0855.35
2009/04/23 08:41:48.2     118   -218    113    249    273 151.5  26.2  34046  287.65 0855.35
2009/04/23 08:41:48.3     129   -180    134    222    259 144.4  34.0  34046  287.65 0855.35
2009/04/23 08:41:48.4      52   -260     72    266    276 168.7  15.2  34044  287.60 0855.35
2009/04/23 08:41:48.5      84   -232     12    248    249 160.0   2.8  34044  287.61 0855.35
2009/04/23 08:41:48.6      46   -203     49    209    215 167.1  13.2  34042  287.59 0855.35
2009/04/23 08:41:48.7      42   -194     38    199    203 167.7  10.8  34048  287.67 0855.35
2009/04/23 08:41:48.8      86   -238     14    254    255 160.0   3.3  34046  287.63 0855.35
2009/04/23 08:41:48.9       8   -260     20    261    262 178.2   4.6  34044  287.61 0855.35
2009/04/23 08:41:49.0     106   -172     21    203    205 148.4   6.1  34042  287.57 0855.35
2009/04/23 08:41:49.1     122   -147     67    192    204 140.3  19.2  34044  287.62 0855.35
2009/04/23 08:41:49.3     122   -191     79    227    241 147.4  19.2  34048  287.66 0855.35
2009/04/23 08:41:49.3      75   -205    128    219    253 159.7  32.9  34048  287.66 0855.35
2009/04/23 08:41:49.4      45   -198    123    204    238 167.1  34.0  34048  287.67 0855.35
2009/04/23 08:41:49.5      34   -202    143    206    250 170.2  38.0  34048  287.68 0855.35
2009/04/23 08:41:49.6      44   -175    120    181    217 165.7  36.7  34048  287.67 0855.35
2009/04/23 08:41:49.7      42   -171    129    177    219 166.0  39.7  34044  287.62 0855.35
2009/04/23 08:41:49.8       7   -177    166    178    243 177.5  48.0  34046  287.65 0855.35
2009/04/23 08:41:49.9      -6   -121    148    122    191 183.1  56.3  34050  287.72 0855.35
2009/04/23 08:41:50.0       7   -102    130    103    165 176.0  57.7  34048  287.69 0855.35
2009/04/23 08:41:50.1      12    -78    107     79    133 171.1  60.5  34048  287.69 0855.35
2009/04/23 08:41:50.2      -8   -108    106    109    152 184.5  49.4  34046  287.64 0855.35
2009/04/23 08:41:50.3       3   -113    141    114    181 178.2  56.9  34046  287.65 0855.35
2009/04/23 08:41:50.4      -3    -97    119     98    154 181.8  56.4  34048  287.69 0855.35
2009/04/23 08:41:50.5       0     32     66     33     73 359.1  72.8  34050  287.70 0855.35
2009/04/23 08:41:50.6       1    -18     42     19     46 175.6  75.0  34048  287.69 0855.35
2009/04/23 08:41:50.7      20    -64     82     68    106 162.2  56.3  34044  287.62 0855.35
2009/04/23 08:41:50.8      -7    -89    107     90    139 184.9  56.3  34044  287.60 0855.35
2009/04/23 08:41:50.9     -30    -79     95     85    127 200.9  53.7  34042  287.57 0855.35
2009/04/23 08:41:51.0     -23      7     44     25     50 288.4  67.7  34044  287.62 0855.35
2009/04/23 08:41:51.1       3     41     22     42     47   4.4  30.3  34046  287.64 0855.35
2009/04/23 08:41:51.2      40     13     27     43     50  72.3  35.5  34046  287.64 0855.35
2009/04/23 08:41:51.3      -1     95      3     96     97 359.1   2.3  34044  287.60 0855.35
2009/04/23 08:41:51.4     -59    106     71    122    141 331.0  32.9  34046  287.64 0855.35
2009/04/23 08:41:51.5     -62     94     62    113    128 326.6  31.3  34048  287.67 0855.35
2009/04/23 08:41:51.6     -50     78      1     93     94 327.4   1.2  34048  287.69 0855.35
2009/04/23 08:41:51.7      50     41     41     65     76  50.4  35.5  34056  287.82 0855.35
2009/04/23 08:41:51.8      64     66     72     93    117  44.1  41.7  34064  287.94 0855.35
2009/04/23 08:41:51.9      62     20    102     66    121  71.8  64.1  34058  287.84 0855.35
2009/04/23 08:41:52.0      -7    -11     46     14     48 212.5  80.7  34058  287.84 0855.35
2009/04/23 08:41:52.1       9    -15      2     18     19 147.5   6.9  34058  287.86 0855.35
2009/04/23 08:41:52.2      33     26    -13     43     44  51.4 -22.8  34058  287.84 0855.35
2009/04/23 08:41:52.3     -44     69     22     82     86 327.5  15.3  34074  288.11 0855.35
2009/04/23 08:41:52.4      10     91     59     92    109   6.7  35.6  34084  288.28 0855.35
2009/04/23 08:41:52.5      15    113    -10    114    115   7.6  -5.2  34094  288.45 0855.35
2009/04/23 08:41:52.6      18    136     -7    138    139   7.6  -3.2  34100  288.57 0855.35
2009/04/23 08:41:52.8      15     82     44     84     94  10.7  29.8  34102  288.58 0855.35
2009/04/23 08:41:52.9      50     50      3     71     72  45.1   2.9  34100  288.55 0855.35
2009/04/23 08:41:53.0      42     53      3     68     69  38.7   2.9  34090  288.40 0855.35
2009/04/23 08:41:53.1      40     10     49     42     64  75.8  54.3  34072  288.08 0855.35
2009/04/23 08:41:53.1      32    -32     69     46     82 135.8  63.2  34056  287.81 0855.35
2009/04/23 08:41:53.3      33     -1     54     34     63  92.6  64.7  34056  287.81 0855.35
2009/04/23 08:41:53.4     -12    -37     75     39     84 198.3  70.4  34060  287.89 0855.35
2009/04/23 08:41:53.5      -6    -38    102     39    109 189.8  78.6  34054  287.79 0855.35
2009/04/23 08:41:53.6     -24     10     69     27     74 293.5  78.2  34056  287.82 0855.35
2009/04/23 08:41:53.7      -7      6     66     10     66 313.1  90.0  34052  287.74 0855.35
2009/04/23 08:41:53.8      32     15     57     36     67  64.6  64.7  34058  287.86 0855.35
2009/04/23 08:41:53.9      53     23     53     58     78  66.5  47.9  34058  287.84 0855.35
2009/04/23 08:41:54.0      60     24     65     65     91  67.4  50.1  34060  287.89 0855.35
2009/04/23 08:41:54.1      53     31     66     62     90  59.3  51.6  34096  288.48 0855.35
2009/04/23 08:41:54.2      63     17     76     66    100  74.9  54.3  34070  288.06 0855.35
2009/04/23 08:41:54.3      31     10     74     33     81  71.8  74.5  34058  287.86 0855.35
2009/04/23 08:41:54.4      36     -7     70     37     79 101.5  69.8  34052  287.76 0855.35
2009/04/23 08:41:54.5      87      5     77     88    116  86.5  45.8  34048  287.67 0855.35
2009/04/23 08:41:54.6      58    -57     69     82    107 134.9  44.3  34046  287.65 0855.35
2009/04/23 08:41:54.7     111    -52     46    123    131 115.4  21.0  34046  287.65 0855.35
2009/04/23 08:41:54.8     103    -51     39    116    123 116.6  18.9  34050  287.70 0855.35
2009/04/23 08:41:54.9      75    -35     43     83     93 115.2  29.3  34058  287.84 0855.35
2009/04/23 08:41:55.0      87      1     36     88     95  88.7  23.6  34088  288.36 0855.35
2009/04/23 08:41:55.1     124     -9     25    125    128  94.4  11.6  34080  288.21 0855.35
2009/04/23 08:41:55.2     134    -22     38    136    142  99.6  15.8  34058  287.84 0855.35
2009/04/23 08:41:55.3     104    -28    -16    108    110 105.1  -8.8  34072  288.08 0855.35
2009/04/23 08:41:55.4      92    -54      1    107    108 120.7   0.8  34066  287.98 0855.35
2009/04/23 08:41:55.5     147    -57     12    158    159 111.3   4.6  34060  287.89 0855.35
2009/04/23 08:41:55.6      96    -22      3     99    100 103.3   1.8  34056  287.82 0855.35
2009/04/23 08:41:55.7     102    -40     21    110    113 111.8  11.0  34052  287.76 0855.35
2009/04/23 08:41:55.8      81    -19     21     84     87 103.3  14.3  34060  287.87 0855.35
2009/04/23 08:41:55.9      52    -33     21     62     66 122.4  18.9  34058  287.84 0855.35
2009/04/23 08:41:56.0      22    -36      6     43     44 148.4   9.0  34054  287.77 0855.35
2009/04/23 08:41:56.1       7    -34     -1     35     36 168.4  -2.2  34054  287.79 0855.35
2009/04/23 08:41:56.2      -3    -21     22     22     31 189.8  50.1  34054  287.79 0855.34
2009/04/23 08:41:56.3     -19    -37     41     42     58 208.1  52.0  34052  287.74 0855.34
2009/04/23 08:41:56.4       8    -40     17     41     44 168.4  23.0  34052  287.74 0855.34
2009/04/23 08:41:56.5      -6    -78     49     79     92 184.4  35.5  34048  287.69 0855.34
2009/04/23 08:41:56.6      24    -63     35     68     76 159.1  29.3  34048  287.69 0855.34
2009/04/23 08:41:56.7      54    -54     66     77    101 135.0  44.8  34048  287.69 0855.34
2009/04/23 08:41:56.8      61    -60     86     86    121 134.4  50.1  34046  287.64 0855.34
2009/04/23 08:41:56.9      51    -54     70     75    102 136.7  48.0  34046  287.64 0855.34
2009/04/23 08:41:57.0      28    -59     69     66     95 154.5  51.2  34046  287.65 0855.34
2009/04/23 08:41:57.1      33    -42     73     54     90 141.3  60.0  34046  287.65 0855.34
2009/04/23 08:41:57.2      36    -24     61     44     75 123.3  60.6  34048  287.67 0855.34
2009/04/23 08:41:57.3      75    -10     46     76     88  97.9  34.4  34046  287.65 0855.34
2009/04/23 08:41:57.4      82      0     53     83     98  90.0  35.6  34046  287.64 0855.34
2009/04/23 08:41:57.5      80     -2     37     81     89  91.7  26.2  34046  287.65 0855.34
2009/04/23 08:41:57.6      87    -21     31     90     96 103.7  19.4  34048  287.67 0855.34
2009/04/23 08:41:57.7      68    -58     38     90     97 130.9  24.1  34046  287.65 0855.34
2009/04/23 08:41:57.8      77    -77     26    110    114 135.0  13.2  34044  287.62 0855.34
2009/04/23 08:41:57.9      85    -64     33    107    113 127.3  17.3  34046  287.65 0855.34
2009/04/23 08:41:58.0      99    -43     44    108    116 113.5  23.0  34046  287.64 0855.34
2009/04/23 08:41:58.1      81    -51     47     96    106 122.4  27.8  34048  287.67 0855.34
2009/04/23 08:41:58.2      63   -118     42    134    141 151.9  17.4  34044  287.60 0855.35
2009/04/23 08:41:58.3       4    -85     66     86    108 176.9  41.7  34046  287.64 0855.35
2009/04/23 08:41:58.4      46    -66     89     81    120 144.8  52.7  34046  287.65 0855.35
2009/04/23 08:41:58.5      33    -54     63     64     89 148.4  50.5  34046  287.64 0855.35
2009/04/23 08:41:58.6      -7    -97     86     98    130 184.5  45.8  34046  287.65 0855.35
2009/04/23 08:41:58.7       2    -86    104     87    135 178.6  56.3  34046  287.64 0855.35
2009/04/23 08:41:58.8      19   -138    100    140    172 171.9  38.8  34046  287.65 0855.35
2009/04/23 08:41:58.9       8   -173    106    174    203 177.3  34.4  34050  287.70 0855.35
2009/04/23 08:41:59.0     -36   -179     87    183    202 191.6  27.2  34046  287.65 0855.35
2009/04/23 08:41:59.1      -9   -180     49    181    188 182.9  15.2  34046  287.65 0855.35
2009/04/23 08:41:59.2     -36   -176     38    180    185 191.6  12.2  34046  287.65 0855.35
2009/04/23 08:41:59.3     -27   -198     51    200    207 188.0  14.3  34048  287.67 0855.35
2009/04/23 08:41:59.4     -58   -190     50    199    206 197.0  14.3  34046  287.65 0855.35
2009/04/23 08:41:59.5     -43   -178     65    184    195 193.8  20.0  34046  287.65 0855.35
2009/04/23 08:41:59.6     -48   -156     57    164    174 197.2  19.2  34046  287.65 0855.35
2009/04/23 08:41:59.7     -63   -133     38    148    153 205.3  14.5  34044  287.62 0855.35
2009/04/23 08:41:59.8     -41   -156     36    162    167 194.9  12.6  34046  287.65 0855.35
2009/04/23 08:41:59.9     -42   -168     28    174    177 194.0   9.3  34046  287.64 0855.35
2009/04/23 08:42:00.0      -8   -124     22    125    127 184.0  10.1  34044  287.62 0855.35
2009/04/23 08:42:00.1      -2   -138     27    139    142 181.0  11.1  34044  287.62 0855.35
2009/04/23 08:42:00.2       3   -129     25    130    133 178.6  11.1  34046  287.64 0855.35
2009/04/23 08:42:00.3       1   -123     40    124    131 179.1  17.9  34044  287.62 0855.35
2009/04/23 08:42:00.4       8   -134     56    135    146 176.4  23.1  34044  287.60 0855.35
2009/04/23 08:42:00.5      28   -180     76    183    198 170.9  23.6  34044  287.62 0855.35
2009/04/23 08:42:00.6      33   -195     73    198    211 170.2  20.9  34046  287.65 0855.35
2009/04/23 08:42:00.7      44   -191     36    197    201 166.9  10.6  34046  287.64 0855.35
2009/04/23 08:42:00.8      78   -192     -6    208    209 157.9  -1.8  34044  287.60 0855.35
2009/04/23 08:42:00.9      92   -189     10    211    212 153.9   2.9  34042  287.57 0855.35
2009/04/23 08:42:01.0      94   -185      9    208    209 153.0   2.5  34044  287.60 0855.35
2009/04/23 08:42:01.1      69   -213     19    225    226 162.0   4.9  34042  287.59 0855.35
2009/04/23 08:42:01.2      59   -180      9    190    191 161.7   2.9  34040  287.55 0855.34
2009/04/23 08:42:01.3      59   -160      5    171    172 159.7   1.8  34044  287.60 0855.34
2009/04/23 08:42:01.4      86   -150     31    174    177 150.1  10.1  34042  287.59 0855.34
2009/04/23 08:42:01.5      63   -153     32    166    170 157.7  11.0  34040  287.54 0855.34
2009/04/23 08:42:01.6      80   -144     51    165    173 151.0  17.3  34042  287.59 0855.34
2009/04/23 08:42:01.7      77   -132     57    154    164 149.7  21.0  34040  287.55 0855.34
2009/04/23 08:42:01.8      58   -114     77    129    150 152.8  33.5  34042  287.59 0855.34
2009/04/23 08:42:01.9      31   -143     65    147    160 167.5  25.3  34044  287.60 0855.34
2009/04/23 08:42:02.0      52   -120     48    131    139 156.4  20.9  34042  287.59 0855.34
2009/04/23 08:42:02.1      55   -104     33    118    123 151.9  15.8  34042  287.59 0855.34
2009/04/23 08:42:02.2      75   -118     -7    141    142 147.5  -3.1  34044  287.60 0855.34
2009/04/23 08:42:02.3      65   -137     19    152    154 154.5   7.1  34040  287.55 0855.34
2009/04/23 08:42:02.4      73   -123     22    144    146 149.2   8.9  34042  287.59 0855.34
2009/04/23 08:42:02.5      66   -103     11    123    124 147.5   5.4  34044  287.60 0855.34
2009/04/23 08:42:02.6      79    -79     28    113    117 135.0  14.3  34044  287.60 0855.34
2009/04/23 08:42:02.7      80    -94     40    124    131 139.5  17.9  34042  287.59 0855.34
2009/04/23 08:42:02.8      38   -111     16    118    120 160.8   8.0  34044  287.60 0855.34
2009/04/23 08:42:02.9      55   -118     48    131    139 155.1  20.9  34042  287.59 0855.34
2009/04/23 08:42:03.0      15   -134     65    135    149 173.3  27.3  34044  287.60 0855.34
2009/04/23 08:42:03.1      74   -125    105    146    179 149.3  39.5  34042  287.57 0855.34
2009/04/23 08:42:03.2      29   -108     76    112    135 164.9  37.4  34042  287.59 0855.34
2009/04/23 08:42:03.3      19    -92     79     95    123 168.0  44.3  34042  287.57 0855.34
2009/04/23 08:42:03.4       0   -111     94    112    146 180.4  43.8  34042  287.57 0855.34
2009/04/23 08:42:03.5     -33   -124     42    129    136 195.1  18.4  34042  287.59 0855.34
2009/04/23 08:42:03.6     -42   -107     17    116    118 201.4   8.5  34042  287.59 0855.34
2009/04/23 08:42:03.7     -48   -100     22    112    115 205.9  11.1  34040  287.55 0855.34
2009/04/23 08:42:03.8     -40   -165     55    170    179 193.8  17.9  34042  287.57 0855.34
2009/04/23 08:42:03.9     -62   -166      5    178    179 200.7   1.8  34042  287.57 0855.34
2009/04/23 08:42:04.0     -70   -160    -12    175    176 203.8  -4.1  34044  287.60 0855.34
2009/04/23 08:42:04.1     -55   -134     -5    145    146 202.3  -2.2  34038  287.52 0855.34
2009/04/23 08:42:04.2     -31   -120      6    125    126 194.7   2.9  34040  287.54 0855.34
2009/04/23 08:42:04.3     -27   -100    -13    104    105 195.6  -7.3  34040  287.55 0855.34
2009/04/23 08:42:04.4     -19    -85    -25     88     91 192.9 -20.7  34042  287.59 0855.34
2009/04/23 08:42:04.5     -27   -123    -38    127    133 192.5 -17.0  34042  287.57 0855.34
2009/04/23 08:42:04.6       0   -131    -47    132    141 180.0 -19.7  34040  287.54 0855.34
2009/04/23 08:42:04.7      22   -106    -37    109    116 168.0 -19.1  34038  287.50 0855.34
2009/04/23 08:42:04.8      33    -74      2     82     83 155.9   1.8  34038  287.52 0855.34
2009/04/23 08:42:04.9      16    -71     15     73     75 166.6  12.2  34038  287.52 0855.34
2009/04/23 08:42:05.0      47    -57     40     75     85 140.4  30.3  34042  287.57 0855.34
2009/04/23 08:42:05.1      22    -65     54     69     87 160.8  42.2  34042  287.59 0855.34
2009/04/23 08:42:05.2      25    -42     44     50     66 149.3  46.9  34044  287.62 0855.34
2009/04/23 08:42:05.3      46    -46     44     66     79 135.0  37.0  34044  287.62 0855.34
2009/04/23 08:42:05.4      45    -56     63     72     95 141.3  45.8  34044  287.62 0855.34
2009/04/23 08:42:05.5      45    -15     44     48     65 108.6  47.9  34044  287.62 0855.34
2009/04/23 08:42:05.6      62      0     49     63     79  90.0  42.2  34044  287.62 0855.34
2009/04/23 08:42:05.7      80      0     68     81    105  90.0  44.3  34044  287.62 0855.34
2009/04/23 08:42:05.8     123      1     78    124    146  89.2  35.5  34040  287.54 0855.34
2009/04/23 08:42:05.9      84    -11     88     85    122  97.5  50.7  34040  287.55 0855.34
2009/04/23 08:42:06.0      43    -41     63     60     87 134.1  51.2  34044  287.60 0855.34
2009/04/23 08:42:06.1      63    -39     47     75     88 121.5  35.5  34040  287.55 0855.34
2009/04/23 08:42:06.2      56    -35     58     67     88 122.4  45.4  34042  287.57 0855.34
2009/04/23 08:42:06.3      67     -7     66     68     94  96.1  50.5  34044  287.62 0855.34
2009/04/23 08:42:06.4      68    -64     86     94    127 133.6  47.5  34044  287.60 0855.34
2009/04/23 08:42:06.5      85    -92     75    126    146 137.2  33.5  34042  287.57 0855.34
2009/04/23 08:42:06.6      41    -86     -3     96     97 154.6  -2.2  34042  287.57 0855.34
2009/04/23 08:42:06.7       0   -128    -43    129    137 180.4 -18.7  34044  287.60 0855.34
2009/04/23 08:42:06.8     -65   -154    -26    168    171 202.9  -9.0  34044  287.60 0855.34
2009/04/23 08:42:06.9     -55   -170    -63    179    191 198.0 -19.6  34044  287.60 0855.34
2009/04/23 08:42:07.0      -2   -158    -92    159    183 181.0 -37.1  34042  287.57 0855.34
2009/04/23 08:42:07.1       8   -157    -46    158    164 176.9 -21.5  34040  287.55 0855.34
2009/04/23 08:42:07.2      -8   -187    -12    188    189 182.7  -3.7  34042  287.57 0855.32
2009/04/23 08:42:07.3      30   -148    -59    151    162 168.5 -26.7  34042  287.57 0855.32
2009/04/23 08:42:07.4      62   -164    -22    176    178 159.3  -7.3  34038  287.52 0855.32
2009/04/23 08:42:07.5      69    -71     27    100    104 135.8  15.3  34040  287.55 0855.32
2009/04/23 08:42:07.6       8    -69     16     70     72 172.9  13.2  34042  287.59 0855.32
2009/04/23 08:42:07.7      13    -60     21     62     66 167.5  19.4  34042  287.59 0855.32
2009/04/23 08:42:07.8      72     -7     36     73     81  96.1  28.2  34042  287.59 0855.32
2009/04/23 08:42:07.9      62    -61     76     88    116 134.6  45.4  34038  287.50 0855.32
2009/04/23 08:42:08.0      99    -17    113    101    151 100.1  53.7  34042  287.57 0855.32
2009/04/23 08:42:08.1     127     25    115    130    173  78.5  46.2  34042  287.57 0855.32
2009/04/23 08:42:08.2      92     13     76     93    120  81.6  43.7  34044  287.60 0855.32
2009/04/23 08:42:08.3     113     -5     47    114    123  93.0  23.1  34042  287.59 0855.32
2009/04/23 08:42:08.4     142     11     47    143    151  85.2  18.4  34046  287.64 0855.32
2009/04/23 08:42:08.5     153     31     59    157    167  78.5  21.5  34042  287.59 0855.32
2009/04/23 08:42:08.6     157     14     60    158    169  84.8  21.7  34042  287.57 0855.32
2009/04/23 08:42:08.7     164      4     47    165    172  88.5  16.0  34042  287.57 0855.32
2009/04/23 08:42:08.8     153    -46     87    160    182 106.9  31.0  34042  287.57 0855.32
2009/04/23 08:42:08.9       8   -134    116    135    177 176.4  45.1  34038  287.50 0855.32
2009/04/23 08:42:09.0     -10   -167    144    168    221 183.6  45.1  34044  287.60 0855.32
2009/04/23 08:42:09.1       2   -144    132    145    196 179.1  47.1  34042  287.59 0855.32
2009/04/23 08:42:09.2      69    -91    142    115    182 142.6  56.6  34042  287.59 0855.33
2009/04/23 08:42:09.3      12     55    143     57    153  12.5  77.1  34046  287.64 0855.33
2009/04/23 08:42:09.4      -8     49    116     50    126 350.2  75.0  34044  287.62 0855.33
2009/04/23 08:42:09.5       4    -83    128     84    153 176.9  64.6  34044  287.60 0855.33
2009/04/23 08:42:09.6       0   -142    132    143    194 180.0  47.9  34042  287.57 0855.33
2009/04/23 08:42:09.7     -78   -194     40    210    214 201.9  11.0  34040  287.55 0855.33
2009/04/23 08:42:09.8    -163   -243      4    293    294 213.8   0.8  34042  287.58 0855.33
2009/04/23 08:42:09.9     -42   -222    -17    227    228 190.9  -4.4  34042  287.57 0855.33
2009/04/23 08:42:10.0     -18   -183   -106    184    212 185.8 -37.3  34042  287.57 0855.33
2009/04/23 08:42:10.1     -59   -236    -66    244    253 194.2 -15.2  34042  287.56 0855.33
2009/04/23 08:42:10.2    -105   -228      7    252    253 204.7   1.6  34042  287.58 0855.33
2009/04/23 08:42:10.3     -97   -254     11    273    274 200.9   2.5  34044  287.61 0855.33
2009/04/23 08:42:10.4     -82   -211     28    227    229 201.4   7.2  34044  287.60 0855.33
2009/04/23 08:42:10.5     -68   -132     30    149    153 207.2  11.6  34040  287.55 0855.33
2009/04/23 08:42:10.6     -71    -95     38    119    126 217.0  17.9  34042  287.59 0855.33
2009/04/23 08:42:10.7     -70    -14     60     72     93 258.5  44.3  34044  287.60 0855.33
2009/04/23 08:42:10.8     -35     16     58     39     69 295.3  63.6  34044  287.62 0855.33
2009/04/23 08:42:10.9      -9     31     85     33     91 343.1  78.2  34046  287.64 0855.33
2009/04/23 08:42:11.0      37    -26     70     46     83 125.1  64.1  34042  287.59 0855.33
2009/04/23 08:42:11.1      17     33     65     38     75  27.2  66.8  34046  287.65 0855.33
2009/04/23 08:42:11.2       1     76     63     77     99   0.9  43.7  34046  287.64 0855.34
2009/04/23 08:42:11.3       6     78     67     79    103   4.4  44.8  34044  287.60 0855.34
2009/04/23 08:42:11.4     -36     87     51     95    107 337.3  30.3  34044  287.60 0855.34
2009/04/23 08:42:11.5      -6     83     43     84     94 355.6  29.3  34044  287.60 0855.34
2009/04/23 08:42:11.6     -25     87     46     91    101 343.5  28.7  34042  287.59 0855.34
2009/04/23 08:42:11.7      50     93     45    106    115  28.5  24.1  34044  287.60 0855.34
2009/04/23 08:42:11.8      62     61     65     88    109  45.4  39.7  34042  287.59 0855.34
2009/04/23 08:42:11.9      68     32     49     76     90  64.8  35.6  34044  287.60 0855.34
2009/04/23 08:42:12.0      20     -7      0     22     23 110.0  -1.3  34044  287.62 0855.34
2009/04/23 08:42:12.1      42    -14     36     45     57 109.1  43.7  34040  287.55 0855.34
2009/04/23 08:42:12.2      66     -3     98     67    118  92.6  62.6  34044  287.60 0855.34
2009/04/23 08:42:12.3      93    -17    102     95    139 100.6  52.2  34044  287.60 0855.34
2009/04/23 08:42:12.4      11    -23     74     26     78 154.6  81.2  34046  287.64 0855.34
2009/04/23 08:42:12.5     -17    -11     45     21     49 237.5  72.9  34044  287.62 0855.34
2009/04/23 08:42:12.6       8    -12     41     15     43 147.5  80.2  34044  287.62 0855.34
2009/04/23 08:42:12.7      67      0     56     68     88  90.0  43.8  34046  287.65 0855.34
2009/04/23 08:42:12.8      81    -46     80     94    123 119.8  45.4  34044  287.62 0855.34
2009/04/23 08:42:12.9      97    -74     87    123    150 127.3  39.1  34048  287.69 0855.34
2009/04/23 08:42:13.0      60    -64     89     89    125 136.8  50.1  34052  287.74 0855.34
2009/04/23 08:42:13.1      76   -119    123    142    187 147.5  45.4  34048  287.67 0855.34
2009/04/23 08:42:13.2      77   -126    131    148    197 148.4  46.2  34050  287.72 0855.35
2009/04/23 08:42:13.3       7   -119    103    120    158 176.4  45.4  34048  287.67 0855.35
2009/04/23 08:42:13.4      45   -136    124    144    190 161.7  45.1  34048  287.69 0855.35
2009/04/23 08:42:13.5       7   -173    130    174    217 177.5  40.4  34046  287.64 0855.35
2009/04/23 08:42:13.6       2   -180    145    181    231 179.1  43.3  34048  287.69 0855.35
2009/04/23 08:42:13.7     -39   -166    124    171    211 193.4  39.7  34048  287.67 0855.35
2009/04/23 08:42:13.8     -18   -103     76    105    129 190.2  39.7  34044  287.62 0855.35
2009/04/23 08:42:13.9      46    -49     82     68    106 136.8  56.3  34044  287.60 0855.35
2009/04/23 08:42:14.0      25    -82    105     86    135 163.1  56.4  34044  287.62 0855.35
2009/04/23 08:42:14.1      64    -17    131     67    147 105.1  71.0  34044  287.60 0855.35
2009/04/23 08:42:14.2     -21     21    138     31    141 315.0  88.0  34054  287.79 0855.35
2009/04/23 08:42:14.3      28    -23    126     37    131 129.6  83.3  34052  287.74 0855.35
2009/04/23 08:42:14.4      38     25    105     46    114  55.8  75.0  34050  287.70 0855.35
2009/04/23 08:42:14.5      55     30    119     63    134  61.1  69.8  34060  287.89 0855.35
2009/04/23 08:42:14.6      25    -25    100     36    106 135.0  80.2  34052  287.74 0855.35
2009/04/23 08:42:14.7      31     -6     91     32     96 101.4  81.2  34058  287.86 0855.35
2009/04/23 08:42:14.8     -11   -149    116    150    189 184.4  42.0  34050  287.72 0855.35
2009/04/23 08:42:14.9     -27   -184     88    187    206 188.5  27.1  34042  287.59 0855.35
2009/04/23 08:42:15.0     -33   -182     44    186    192 190.5  13.5  34046  287.65 0855.35
2009/04/23 08:42:15.1     -47   -120     55    129    140 201.4  24.6  34042  287.59 0855.35
2009/04/23 08:42:15.2     -21    -64     27     68     73 198.7  23.0  34042  287.59 0855.35
2009/04/23 08:42:15.3      36    -39     18     54     57 137.7  18.4  34044  287.60 0855.35
2009/04/23 08:42:15.4      32    -10     42     34     54 108.6  56.4  34046  287.64 0855.35
2009/04/23 08:42:15.5      13      0     41     14     43  89.2  81.0  34050  287.70 0855.35
2009/04/23 08:42:15.6       7     21     11     23     25  18.5  27.2  34050  287.70 0855.35
2009/04/23 08:42:15.7      46     38     -6     61     62  50.4  -6.2  34052  287.74 0855.35
2009/04/23 08:42:15.8      67     62     39     92     99  46.9  24.1  34058  287.84 0855.35
2009/04/23 08:42:15.9      52     68     65     86    107  37.8  40.7  34056  287.82 0855.35
2009/04/23 08:42:16.0      67     55     61     88    107  50.5  38.0  34058  287.86 0855.35
2009/04/23 08:42:16.1      38     38     81     55     97  45.0  63.2  34054  287.77 0855.35
2009/04/23 08:42:16.2      -3     10     56     11     57 341.5  89.1  34050  287.70 0855.35
2009/04/23 08:42:16.3      47    -22     25     53     58 115.3  27.1  34052  287.76 0855.35
2009/04/23 08:42:16.4      87    -24     58     91    107 105.9  35.5  34048  287.67 0855.35
2009/04/23 08:42:16.5     166    -17     65    167    179  95.9  22.5  34056  287.81 0855.35
2009/04/23 08:42:16.6     104    -66     61    124    138 122.4  27.3  34054  287.79 0855.35
2009/04/23 08:42:16.7      13   -173     86    174    194 175.5  28.0  34052  287.76 0855.35
2009/04/23 08:42:16.8      76   -213    153    227    273 160.4  37.4  34052  287.73 0855.35
2009/04/23 08:42:16.9     152   -167    101    226    247 137.7  25.7  34048  287.68 0855.35
2009/04/23 08:42:17.0     158   -154     75    221    234 134.2  18.9  34048  287.67 0855.35
2009/04/23 08:42:17.1     111   -201     93    230    248 151.0  23.1  34048  287.68 0855.35
2009/04/23 08:42:17.2      92   -235     76    253    265 158.6  16.8  34046  287.65 0855.36
2009/04/23 08:42:17.3      60   -189     46    199    205 162.4  13.2  34046  287.64 0855.36
2009/04/23 08:42:17.4      65   -186     16    198    199 160.8   4.9  34048  287.69 0855.36
2009/04/23 08:42:17.6      57   -210     19    218    219 164.8   5.2  34044  287.62 0855.36
2009/04/23 08:42:17.6       6   -195     56    196    204 178.0  16.0  34042  287.57 0855.36
2009/04/23 08:42:17.7      25   -165     66    168    180 171.1  22.8  34048  287.67 0855.36
2009/04/23 08:42:17.8     -44   -188     85    194    211 193.4  25.1  34048  287.67 0855.36
2009/04/23 08:42:17.9       0   -144    148    145    207 180.4  50.4  34044  287.62 0855.36
2009/04/23 08:42:18.1       0   -122     81    123    147 180.0  36.0  34046  287.64 0855.36
2009/04/23 08:42:18.1      57   -136     -8    148    149 157.3  -3.1  34048  287.67 0855.36
2009/04/23 08:42:18.2     -25    -39    -66     47     81 212.6 -65.5  34048  287.69 0855.36
2009/04/23 08:42:18.4     -12    -62    -53     64     83 191.5 -48.7  34048  287.69 0855.36
2009/04/23 08:42:18.4      -6    -49    -19     50     53 188.0 -24.4  34046  287.65 0855.36
2009/04/23 08:42:18.5      29    -29    -11     42     44 134.9 -15.5  34048  287.69 0855.36
2009/04/23 08:42:18.6      55    -20    -34     59     68 110.8 -36.8  34050  287.70 0855.36
2009/04/23 08:42:18.7      63    -50    -38     81     89 128.6 -31.5  34048  287.69 0855.36
2009/04/23 08:42:18.8      77    -69    -22    104    107 131.8 -12.4  34050  287.70 0855.36
2009/04/23 08:42:18.9      80   -109     19    136    138 143.9   8.0  34046  287.65 0855.36
2009/04/23 08:42:19.1     126   -133     36    184    188 136.6  11.1  34046  287.65 0855.36
2009/04/23 08:42:19.2     152   -231     38    277    280 146.6   7.8  34046  287.63 0855.36
2009/04/23 08:42:19.3     121   -257     55    285    291 154.7  11.0  34040  287.55 0855.36
2009/04/23 08:42:19.4     129   -283     73    311    320 155.5  13.3  34044  287.61 0855.36
2009/04/23 08:42:19.5     120   -342    124    363    384 160.6  18.9  34044  287.62 0855.36
2009/04/23 08:42:19.6     166   -349     18    387    388 154.5   2.8  34042  287.59 0855.36
2009/04/23 08:42:19.7      83   -281     38    294    297 163.5   7.5  34044  287.60 0855.36
2009/04/23 08:42:19.8      46   -298    109    302    322 171.1  19.9  34040  287.55 0855.36
2009/04/23 08:42:19.9      44   -284     96    288    304 171.1  18.5  34044  287.61 0855.36
2009/04/23 08:42:20.0      22   -279    104    280    298 175.3  21.0  34042  287.56 0855.36
2009/04/23 08:42:20.1      17   -270    104    271    290 176.4  22.0  34042  287.56 0855.36
2009/04/23 08:42:20.2      -4   -281    122    282    307 181.0  25.1  34044  287.61 0855.36
2009/04/23 08:42:20.3      -1   -279    144    280    314 180.2  29.3  34040  287.53 0855.37
2009/04/23 08:42:20.4      71   -367    180    374    415 169.0  27.4  34036  287.46 0855.37
2009/04/23 08:42:20.5     -31   -279    193    281    340 186.5  37.8  34036  287.46 0855.37
2009/04/23 08:42:20.6     -90   -197     62    217    226 204.7  16.0  34032  287.42 0855.37
2009/04/23 08:42:20.7     -98   -216     57    238    245 204.5  13.5  34034  287.44 0855.37
2009/04/23 08:42:20.8     -91   -271    -38    287    290 198.7  -7.7  34032  287.39 0855.37
2009/04/23 08:42:20.9     -37   -138   -104    143    176 195.1 -44.1  34040  287.54 0855.37
2009/04/23 08:42:21.0     -45   -201   -105    207    232 192.7 -33.6  34034  287.45 0855.37
2009/04/23 08:42:21.1     -80   -241    -90    255    271 198.5 -19.6  34034  287.43 0855.37
2009/04/23 08:42:21.2       3   -248    -89    249    265 179.1 -19.7  34034  287.43 0855.37
2009/04/23 08:42:21.3     -38   -233    -68    237    247 189.3 -16.0  34030  287.38 0855.37
2009/04/23 08:42:21.4    -149   -207    -90    256    271 215.8 -24.3  34032  287.41 0855.37
2009/04/23 08:42:21.5    -162   -250    -39    299    302 213.0  -7.5  34032  287.41 0855.37
2009/04/23 08:42:21.6    -157   -313    -29    351    353 206.7  -4.9  34026  287.32 0855.37
2009/04/23 08:42:21.7     -47   -312    -88    316    328 188.7 -20.3  34026  287.31 0855.37
2009/04/23 08:42:21.8     -22   -300    -83    301    313 184.4 -15.5  34026  287.31 0855.37
2009/04/23 08:42:21.9      94   -316   -156    330    365 163.3 -31.5  34028  287.34 0855.37
2009/04/23 08:42:22.0       4   -158   -255    159    300 178.2 -69.1  34028  287.34 0855.37
2009/04/23 08:42:22.1     -99   -210   -254    233    344 205.3 -57.3  34026  287.31 0855.37
2009/04/23 08:42:22.2      86   -325   -222    337    403 165.2 -40.9  34026  287.32 0855.37
2009/04/23 08:42:22.3      19   -135   -204    137    245 171.9 -67.2  34020  287.20 0855.37
2009/04/23 08:42:22.4     145   -221   -103    265    284 146.6 -26.7  34024  287.26 0855.37
2009/04/23 08:42:22.5      52   -224   -110    230    254 166.9 -31.7  34030  287.36 0855.37
2009/04/23 08:42:22.6      92   -242      3    260    261 159.1   0.7  34022  287.22 0855.37
2009/04/23 08:42:22.7      25   -173    112    175    207 171.5  35.6  34024  287.27 0855.37
2009/04/23 08:42:22.8      31    -65    125     73    144 154.5  66.8  34028  287.35 0855.37
2009/04/23 08:42:22.9      38    -16     63     42     75 113.5  64.6  34032  287.40 0855.37
2009/04/23 08:42:23.0      46    -89    -54    101    114 152.8 -35.2  34032  287.42 0855.37
2009/04/23 08:42:23.1      51   -153    -64    162    174 161.5 -26.9  34030  287.37 0855.37
2009/04/23 08:42:23.2     119   -156     30    197    200 142.8   8.9  34028  287.33 0855.37
2009/04/23 08:42:23.3     167    -67      2    181    182 112.0   0.8  34028  287.33 0855.37
2009/04/23 08:42:23.4     145   -109     -8    182    183 127.1  -2.6  34028  287.33 0855.37
2009/04/23 08:42:23.5     155   -228     54    276    282 145.8  11.1  34030  287.36 0855.37
2009/04/23 08:42:23.6      73   -216     82    229    243 161.3  20.2  34030  287.36 0855.37
2009/04/23 08:42:23.7     200   -257     96    326    341 142.1  16.5  34032  287.39 0855.37
2009/04/23 08:42:23.8     201   -131    146    241    281 123.1  34.2  34028  287.34 0855.37
2009/04/23 08:42:23.9     343   -284    219    446    496 129.6  28.1  34030  287.37 0855.37
2009/04/23 08:42:24.0     442   -253     89    510    518 119.8  10.0  34022  287.24 0855.37
2009/04/23 08:42:24.1     404   -280    -57    492    496 124.8  -6.7  34030  287.37 0855.37
2009/04/23 08:42:24.2     381   -257     23    460    461 124.0   2.9  34032  287.41 0855.37
2009/04/23 08:42:24.3     461   -322     89    563    571 125.0   9.0  34030  287.38 0855.37
2009/04/23 08:42:24.4     367   -219     63    428    433 120.8   8.5  34032  287.41 0855.37
2009/04/23 08:42:24.5     350   -164     70    387    394 115.2  10.4  34030  287.37 0855.37
2009/04/23 08:42:24.6     195   -180     20    266    267 132.7   4.4  34032  287.39 0855.37
2009/04/23 08:42:24.7     168    -86    -45    189    195 117.1 -13.4  34026  287.32 0855.37
2009/04/23 08:42:24.8     124     41    -47    131    140  71.4 -19.7  34030  287.38 0855.37
2009/04/23 08:42:24.9     123     66    -30    140    144  61.6 -12.4  34030  287.37 0855.37
2009/04/23 08:42:25.0      90     40     34     99    105  65.6  19.2  34028  287.33 0855.37
2009/04/23 08:42:25.1      35     49     84     61    103  35.2  60.6  34032  287.40 0855.37
2009/04/23 08:42:25.2       0     50     46     51     68 359.1  47.9  34030  287.38 0855.37
2009/04/23 08:42:25.3      -8     24     -3     26     27 341.3  -7.3  34032  287.40 0855.37
2009/04/23 08:42:25.4       8     -1     19      9     21 101.5  72.9  34032  287.42 0855.37
2009/04/23 08:42:25.5      60     25     40     66     77  67.4  35.5  34032  287.40 0855.37
2009/04/23 08:42:25.6      86     14     64     88    108  80.3  39.7  34032  287.40 0855.37
2009/04/23 08:42:25.7     137    -96    146    168    222 125.1  45.8  34032  287.40 0855.37
2009/04/23 08:42:25.8      85   -263    104    277    295 162.0  21.5  34032  287.41 0855.37
2009/04/23 08:42:25.9     151   -270    111    310    329 150.8  20.3  34032  287.39 0855.37
2009/04/23 08:42:26.0     168   -209    153    269    309 141.2  32.1  34032  287.39 0855.37
2009/04/23 08:42:26.1     137   -297    177    328    372 155.2  30.7  34032  287.42 0855.37
2009/04/23 08:42:26.2     330   -392     33    513    515 139.9   3.7  34028  287.34 0855.37
2009/04/23 08:42:26.3     323   -331    139    463    484 135.7  16.8  34032  287.42 0855.37
2009/04/23 08:42:26.4     339   -266      1    431    432 128.1   0.2  34032  287.40 0855.37
2009/04/23 08:42:26.5     273   -336     33    434    436 140.9   4.4  34030  287.38 0855.37
2009/04/23 08:42:26.6     195   -449     59    490    494 156.5   6.9  34034  287.44 0855.37
2009/04/23 08:42:26.7     192   -406     50    450    453 154.6   6.4  34030  287.38 0855.37
2009/04/23 08:42:26.8      84   -288     74    301    311 163.7  13.9  34036  287.46 0855.37
2009/04/23 08:42:26.9     150   -155     19    216    217 135.9   5.2  34028  287.35 0855.37
2009/04/23 08:42:27.0     191   -133    -74    233    244 124.9 -22.8  34032  287.41 0855.37
2009/04/23 08:42:27.1      72   -269    -86    279    291 164.9 -22.3  34032  287.41 0855.37
2009/04/23 08:42:27.2      53   -226    -77    233    245 166.7 -23.8  34034  287.44 0855.37
2009/04/23 08:42:27.3      11   -174   -140    175    224 176.4 -47.1  34034  287.43 0855.37
2009/04/23 08:42:27.4     153   -257    -20    300    301 149.2  -3.9  34032  287.39 0855.37
2009/04/23 08:42:27.5     132   -275    -50    306    311 154.4  -9.3  34030  287.36 0855.37
2009/04/23 08:42:27.6     169   -235     10    290    291 144.2   2.1  34034  287.44 0855.37
2009/04/23 08:42:27.7      32   -316      5    318    319 174.2   1.0  34034  287.44 0855.37
2009/04/23 08:42:27.8      39   -149     69    155    169 165.3  25.9  34028  287.33 0855.37
2009/04/23 08:42:27.9      45   -261    128    265    294 170.2  27.3  34034  287.43 0855.37
2009/04/23 08:42:28.0      91   -317     67    330    337 164.0  11.5  34032  287.42 0855.37
2009/04/23 08:42:28.1     130   -309    -28    336    338 157.2  -4.8  34034  287.44 0855.37
2009/04/23 08:42:28.2     168   -347    -46    386    389 154.1  -6.8  34034  287.44 0855.37
2009/04/23 08:42:28.3     233   -408    -18    471    472 150.2  -2.2  34032  287.41 0855.37
2009/04/23 08:42:28.4     312   -316      6    445    446 135.4   0.8  34036  287.46 0855.37
2009/04/23 08:42:28.5     363   -305     66    475    480 130.0   8.0  34030  287.37 0855.37
2009/04/23 08:42:28.6     404   -308     97    509    519 127.3  10.8  34028  287.34 0855.37
2009/04/23 08:42:28.7     367   -357     -2    513    514 134.2  -0.3  34028  287.34 0855.37
2009/04/23 08:42:28.8     402   -355     55    537    540 131.5   5.9  34022  287.23 0855.37
2009/04/23 08:42:28.9     343   -303    146    459    482 131.5  17.7  34032  287.42 0855.37
2009/04/23 08:42:29.0     220   -325    158    393    423 145.9  23.0  34028  287.35 0855.37
2009/04/23 08:42:29.1     168   -297    153    342    374 150.5  25.7  34026  287.32 0855.37
2009/04/23 08:42:29.2     305   -210    143    371    397 124.5  22.1  34030  287.37 0855.37
2009/04/23 08:42:29.3     313   -209     -7    377    378 123.7  -1.1  34028  287.35 0855.37
2009/04/23 08:42:29.4     264   -217    -43    342    345 129.4  -7.2  34032  287.39 0855.37
2009/04/23 08:42:29.5     299   -233     32    380    382 128.0   4.9  34028  287.34 0855.37
2009/04/23 08:42:29.6     261   -274     43    379    382 136.3   6.6  34028  287.35 0855.37
2009/04/23 08:42:29.7     113   -426     33    441    443 165.1   4.4  34026  287.31 0855.37
2009/04/23 08:42:29.8     176   -419     56    455    459 157.2   7.1  34024  287.26 0855.37
2009/04/23 08:42:29.9     208   -382    107    436    449 151.4  13.8  34028  287.33 0855.37
2009/04/23 08:42:30.0     290   -374    157    474    500 142.2  18.4  34030  287.36 0855.37
2009/04/23 08:42:30.1     316   -303    181    439    474 133.8  23.7  34030  287.38 0855.37
2009/04/23 08:42:30.2     236   -267    232    357    425 138.6  36.0  34024  287.28 0855.37
2009/04/23 08:42:30.3     171   -344    114    385    402 153.6  16.5  34026  287.30 0855.37
2009/04/23 08:42:30.4      79   -418    -70    426    432 169.2  -9.3  34028  287.35 0855.37
2009/04/23 08:42:30.5      48   -396   -132    399    420 173.0 -23.7  34028  287.33 0855.37
2009/04/23 08:42:30.6      15   -355   -126    356    378 177.5 -19.6  34028  287.34 0855.37
2009/04/23 08:42:30.7      54   -342    -89    347    359 171.0 -14.4  34028  287.34 0855.37
2009/04/23 08:42:30.8      50   -322    -98    326    340 171.1 -21.7  34030  287.37 0855.37
2009/04/23 08:42:30.9      33   -299    -86    301    313 173.7 -20.7  34030  287.36 0855.37
2009/04/23 08:42:31.0      78   -271   -113    283    304 163.9 -27.4  34030  287.38 0855.37
2009/04/23 08:42:31.1     157   -270   -112    313    332 149.7 -24.7  34028  287.33 0855.37
2009/04/23 08:42:31.2     165   -286    -12    331    332 150.1  -2.2  34026  287.32 0855.37
2009/04/23 08:42:31.3     122   -180    -28    218    220 145.9  -7.3  34030  287.38 0855.37
2009/04/23 08:42:31.4     137   -116    -50    180    187 130.2 -15.5  34028  287.33 0855.37
2009/04/23 08:42:31.5     143   -121    -58    188    197 130.4 -17.3  34028  287.35 0855.37
2009/04/23 08:42:31.6      94   -293     38    308    311 162.2   7.1  34026  287.31 0855.37
2009/04/23 08:42:31.7      54   -190   -108    198    225 164.0 -35.7  34028  287.33 0855.37
2009/04/23 08:42:31.8      56   -189     -4    198    199 163.3  -1.2  34026  287.32 0855.37
2009/04/23 08:42:31.9     163   -343    -69    380    387 154.5 -10.3  34022  287.23 0855.37
2009/04/23 08:42:32.0     140   -396    -61    421    426 160.5  -8.3  34026  287.31 0855.37
2009/04/23 08:42:32.1     150   -454   -130    479    497 161.7 -15.2  34022  287.24 0855.37
2009/04/23 08:42:32.2     120   -440   -139    457    478 164.7 -17.0  34020  287.19 0855.37
2009/04/23 08:42:32.3     107   -427   -131    441    460 165.9 -21.5  34024  287.28 0855.36
2009/04/23 08:42:32.4     156   -412   -161    441    469 159.2 -25.4  34022  287.24 0855.36
2009/04/23 08:42:32.5     152   -371   -145    401    426 157.7 -25.1  34024  287.26 0855.36
2009/04/23 08:42:32.6     172   -411   -153    446    471 157.3 -24.0  34022  287.23 0855.36
2009/04/23 08:42:32.7     194   -341   -122    393    412 150.3 -17.3  34024  287.26 0855.36
2009/04/23 08:42:32.8     206   -276    -97    345    358 143.2 -20.4  34032  287.39 0855.36
2009/04/23 08:42:32.9     190   -415    -66    457    462 155.4  -8.3  34026  287.31 0855.36
2009/04/23 08:42:33.0     212   -271   -135    345    370 141.9 -27.1  34024  287.27 0855.36
2009/04/23 08:42:33.1     197   -257   -111    325    344 142.5 -19.0  34022  287.25 0855.36
2009/04/23 08:42:33.2     198   -206   -142    286    319 136.1 -32.8  34026  287.29 0855.36
2009/04/23 08:42:33.3     164   -322    -76    362    370 153.0 -11.9  34032  287.40 0855.36
2009/04/23 08:42:33.4     206   -472    -76    516    522 156.4  -8.4  34034  287.43 0855.36
2009/04/23 08:42:33.5     136   -454   -164    474    502 163.3 -19.1  34028  287.34 0855.36
2009/04/23 08:42:33.6     175   -356   -125    397    417 153.8 -17.5  34028  287.35 0855.36
2009/04/23 08:42:33.7     187   -392   -107    435    449 154.5 -13.9  34030  287.38 0855.36
2009/04/23 08:42:33.8     141   -316   -107    347    363 155.9 -22.1  34032  287.39 0855.36
2009/04/23 08:42:33.9     154   -241    -11    287    288 147.4  -2.2  34030  287.38 0855.36
2009/04/23 08:42:34.0     196   -330     -7    385    386 149.3  -1.2  34032  287.40 0855.36
2009/04/23 08:42:34.1     160   -298   -202    339    394 151.7 -37.9  34026  287.30 0855.36
2009/04/23 08:42:34.2     198   -304    -90    364    375 146.9 -13.9  34026  287.30 0855.36
2009/04/23 08:42:34.3     268   -267    -57    379    384 134.9  -8.6  34036  287.47 0855.35
2009/04/23 08:42:34.4     318   -200   -111    376    392 122.2 -21.1  34032  287.39 0855.35
2009/04/23 08:42:34.5     291   -250    -26    385    386 130.7  -3.9  34034  287.44 0855.35
2009/04/23 08:42:34.6     186   -279    -66    336    343 146.2 -11.2  34030  287.37 0855.35
2009/04/23 08:42:34.7     167   -246     93    298    313 145.9  17.3  34032  287.39 0855.35
2009/04/23 08:42:34.8      18   -241     36    242    245 175.5   8.5  34030  287.36 0855.35
2009/04/23 08:42:34.9      -1   -159    -44    160    165 180.5 -20.2  34026  287.32 0855.35
2009/04/23 08:42:35.0      42   -185    -79    190    205 167.1 -28.2  34022  287.23 0855.35
2009/04/23 08:42:35.1     163   -208    -45    265    269 141.9  -9.8  34028  287.33 0855.35
2009/04/23 08:42:35.2     187   -138    -71    233    243 126.6 -22.1  34030  287.36 0855.35
2009/04/23 08:42:35.3     178   -163   -102    242    262 132.4 -28.5  34032  287.39 0855.35
2009/04/23 08:42:35.4     126   -134    -43    185    190 136.7 -13.2  34028  287.35 0855.35
2009/04/23 08:42:35.5     -17   -129    -41    131    137 187.6 -22.3  34028  287.35 0855.35
2009/04/23 08:42:35.6     -59   -163    -11    174    175 200.0  -3.9  34030  287.37 0855.35
2009/04/23 08:42:35.7     -21   -112    -31    115    120 190.7 -15.4  34028  287.35 0855.35
2009/04/23 08:42:35.8     -27   -116     -4    120    121 193.4  -2.2  34030  287.38 0855.35
2009/04/23 08:42:35.9     -13   -121    -40    122    129 186.3 -18.1  34032  287.40 0855.35
2009/04/23 08:42:36.0     -38   -182      7    187    188 192.0   2.3  34032  287.40 0855.35
2009/04/23 08:42:36.1     -27   -165    -37    168    173 189.3 -12.6  34030  287.37 0855.35
2009/04/23 08:42:36.2      59   -179     30    189    192 161.5   9.0  34032  287.40 0855.35
2009/04/23 08:42:36.3      32   -159     57    163    173 168.4  19.4  34032  287.40 0855.34
2009/04/23 08:42:36.4      70   -175     87    189    208 158.2  27.0  34034  287.43 0855.34
2009/04/23 08:42:36.5      65   -225     68    235    245 163.7  16.3  34036  287.48 0855.34
2009/04/23 08:42:36.6      84   -261     90    275    290 162.2  18.1  34034  287.44 0855.34
2009/04/23 08:42:36.7     114   -255     87    280    294 155.9  17.4  34032  287.41 0855.34
2009/04/23 08:42:36.8     195   -263    116    328    349 143.5  19.5  34034  287.44 0855.34
2009/04/23 08:42:36.9     259   -269     83    374    384 136.1  12.6  34032  287.40 0855.34
2009/04/23 08:42:37.0      74   -320    136    329    356 167.0  23.7  34032  287.40 0855.34
2009/04/23 08:42:37.1     238   -287    163    374    407 140.3  25.1  34028  287.35 0855.34
2009/04/23 08:42:37.2     250   -199    113    320    339 128.6  20.1  34032  287.42 0855.34
2009/04/23 08:42:37.3     296   -220    -20    369    370 126.6  -3.2  34032  287.42 0855.34
2009/04/23 08:42:37.4     147   -309     18    343    344 154.5   3.1  34032  287.42 0855.34
2009/04/23 08:42:37.5     220   -325    101    393    406 145.8  14.5  34034  287.45 0855.34
2009/04/23 08:42:37.6     212   -362     90    420    430 149.6  12.1  34036  287.48 0855.34
2009/04/23 08:42:37.7     132   -362    101    386    399 160.0  14.7  34036  287.47 0855.34
2009/04/23 08:42:37.8      67   -413     81    419    427 170.7  11.0  34034  287.43 0855.34
2009/04/23 08:42:37.9     147   -458     23    482    483 162.2   2.8  34040  287.54 0855.34
2009/04/23 08:42:38.0     163   -441     47    471    474 159.7   5.8  34034  287.44 0855.34
2009/04/23 08:42:38.1     158   -410     42    440    443 158.8   5.5  34036  287.46 0855.34
2009/04/23 08:42:38.2     104   -427      6    440    441 166.3   0.8  34038  287.52 0855.34
2009/04/23 08:42:38.3     191   -443    168    483    512 156.6  19.2  34036  287.49 0855.34
2009/04/23 08:42:38.4     198   -381     97    430    441 152.5  12.8  34036  287.48 0855.34
2009/04/23 08:42:38.5     166   -312    110    354    371 152.0  17.3  34034  287.45 0855.34
2009/04/23 08:42:38.6     131   -339     59    364    369 158.8   9.3  34034  287.44 0855.34
2009/04/23 08:42:38.7      99   -342     23    357    358 163.9   3.8  34032  287.40 0855.34
2009/04/23 08:42:38.8      32   -369    -61    371    377 175.0  -9.3  34030  287.37 0855.34
2009/04/23 08:42:38.9      45   -269      3    273    274 170.4   0.8  34032  287.39 0855.34
2009/04/23 08:42:39.0       5   -258    110    259    281 178.9  24.3  34034  287.43 0855.34
2009/04/23 08:42:39.1      36   -351    207    353    409 174.0  33.1  34034  287.44 0855.34
2009/04/23 08:42:39.2      32   -231    160    234    283 171.9  37.6  34034  287.44 0855.34
2009/04/23 08:42:39.3     146   -213    186    259    318 145.5  39.2  34030  287.38 0855.34
2009/04/23 08:42:39.4      31   -285    197    287    348 173.8  37.8  34036  287.47 0855.34
2009/04/23 08:42:39.5      -3   -337    250    338    420 180.6  40.1  34042  287.56 0855.34
2009/04/23 08:42:39.6     -38   -275    242    278    368 188.0  45.6  34032  287.42 0855.34
2009/04/23 08:42:39.7     -76   -227    169    240    293 198.7  38.6  34038  287.50 0855.34
2009/04/23 08:42:39.8    -113   -222    152    250    292 207.0  34.4  34036  287.46 0855.34
2009/04/23 08:42:39.9    -167   -315    146    357    385 208.0  23.4  34034  287.45 0855.34
2009/04/23 08:42:40.0     -24   -315    119    317    338 184.5  21.6  34036  287.47 0855.34
2009/04/23 08:42:40.1     -22   -269     53    270    276 184.7  11.1  34030  287.36 0855.34
2009/04/23 08:42:40.2       0   -215    114    216    244 180.2  30.1  34034  287.44 0855.34
2009/04/23 08:42:40.3      45   -283     78    287    298 170.9  15.3  34034  287.43 0855.35
2009/04/23 08:42:40.4      65   -223     17    233    234 163.7   4.4  34026  287.31 0855.35
2009/04/23 08:42:40.5      67   -178     72    191    204 159.3  21.3  34032  287.40 0855.35
2009/04/23 08:42:40.6     -19   -200    162    201    258 185.6  43.0  34034  287.44 0855.35
2009/04/23 08:42:40.7     -44   -244    -31    248    250 190.2  -7.2  34036  287.46 0855.35
2009/04/23 08:42:40.8     -22   -289    -82    290    302 184.4 -15.8  34034  287.43 0855.35
2009/04/23 08:42:40.9      28   -329   -111    331    349 175.1 -23.3  34032  287.40 0855.35
2009/04/23 08:42:41.0      24   -238   -173    240    295 174.0 -43.9  34030  287.38 0855.35
2009/04/23 08:42:41.1    -254    -22    -85    255    268 265.0 -23.6  34034  287.43 0855.35
2009/04/23 08:42:41.2    -260     76    -78    271    282 286.4 -20.8  34034  287.44 0855.35
2009/04/23 08:42:41.4    -196    158    -65    253    262 308.9 -14.5  34032  287.41 0855.36
2009/04/23 08:42:41.4    -189    137    -56    234    241 306.0 -13.7  34036  287.48 0855.36
2009/04/23 08:42:41.5    -131     75    -95    151    178 299.8 -39.9  34032  287.40 0855.36
2009/04/23 08:42:41.6    -198     26   -126    200    236 277.7 -39.9  34026  287.32 0855.36
2009/04/23 08:42:41.7    -126      0    -30    127    131 270.0 -13.4  34030  287.37 0855.36
2009/04/23 08:42:41.8     -96    -19    -21     98    101 258.5 -12.4  34034  287.45 0855.36
2009/04/23 08:42:41.9     -50     16    -15     53     55 288.6 -20.7  34034  287.43 0855.36
2009/04/23 08:42:42.0      -2      6     20      7     21 341.7  81.0  34034  287.45 0855.36
2009/04/23 08:42:42.1     -56    -59    -47     82     94 223.2 -37.3  34034  287.43 0855.36
2009/04/23 08:42:42.2     -90    -47     35    102    108 242.0  18.9  34034  287.43 0855.36
2009/04/23 08:42:42.3     -72    -99    -15    123    124 216.1  -7.2  34032  287.40 0855.36
2009/04/23 08:42:42.4     -23   -254    -32    256    259 185.3  -7.3  34028  287.34 0855.36
2009/04/23 08:42:42.5    -145   -146   -241    206    317 224.8 -59.7  34032  287.39 0855.36
2009/04/23 08:42:42.6      -5    -12   -108     14    108 201.8 -90.0  34034  287.43 0855.36
2009/04/23 08:42:42.7    -112    -62     79    129    151 241.1  35.0  34034  287.43 0855.36
2009/04/23 08:42:42.8    -226     44    -50    231    237 281.0 -12.4  34034  287.44 0855.36
2009/04/23 08:42:42.9    -138    192     18    237    238 324.2   4.6  34028  287.33 0855.36
2009/04/23 08:42:43.0     -52    246    -11    252    253 348.0  -2.6  34036  287.48 0855.36
2009/04/23 08:42:43.1      39    111     -7    118    119  19.6  -3.7  34030  287.38 0855.36
2009/04/23 08:42:43.2      60     69     75     92    118  41.0  43.7  34036  287.47 0855.36
2009/04/23 08:42:43.3     -67     31     38     75     84 295.2  28.7  34038  287.50 0855.36
2009/04/23 08:42:43.4    -164     41    -72    170    184 284.2 -28.7  34030  287.38 0855.36
2009/04/23 08:42:43.5    -183     70    -54    197    204 291.1 -20.0  34038  287.50 0855.36
2009/04/23 08:42:43.6    -253    106   -121    275    300 292.7 -29.6  34036  287.48 0855.36
2009/04/23 08:42:43.7    -182    -15   -218    183    284 265.0 -60.5  34032  287.41 0855.36
2009/04/23 08:42:43.8    -166    -81   -206    185    276 244.0 -57.9  34034  287.43 0855.36
2009/04/23 08:42:43.9    -160   -127    -26    205    207 231.4  -7.3  34036  287.49 0855.36
2009/04/23 08:42:44.0    -242    -71    -29    253    255 253.6  -6.7  34038  287.50 0855.36
2009/04/23 08:42:44.1    -292    -64    -98    299    314 257.6 -23.2  34038  287.51 0855.36
2009/04/23 08:42:44.2    -244    -41    -63    248    256 260.3 -14.3  34038  287.50 0855.36
2009/04/23 08:42:44.3    -184    -86   -104    204    228 244.8 -33.6  34036  287.49 0855.36
2009/04/23 08:42:44.4     -57    -97   -123    113    167 210.3 -57.1  34036  287.49 0855.36
2009/04/23 08:42:44.5       8   -190    -71    191    203 177.5 -25.4  34036  287.47 0855.36
2009/04/23 08:42:44.7     -23   -226    -27    228    230 186.0  -6.9  34036  287.47 0855.36
2009/04/23 08:42:44.7    -146   -198   -168    247    298 216.5 -42.0  34038  287.51 0855.36
2009/04/23 08:42:44.9    -179   -145    -79    231    245 230.9 -18.9  34038  287.51 0855.36
2009/04/23 08:42:45.0    -202   -208     -9    291    292 224.1  -1.8  34034  287.43 0855.36
2009/04/23 08:42:45.0     -76   -110    -64    134    148 214.7 -31.7  34038  287.50 0855.36
2009/04/23 08:42:45.1      -5    -72    -89     73    115 184.4 -60.8  34038  287.50 0855.36
2009/04/23 08:42:45.2     -35   -144    -68    149    163 193.8 -30.3  34034  287.43 0855.36
2009/04/23 08:42:45.4      72   -125    -90    145    170 150.1 -39.4  34036  287.47 0855.36
2009/04/23 08:42:45.5     -37   -106    -40    113    119 199.6 -24.4  34036  287.47 0855.36
2009/04/23 08:42:45.6     -51    -79     29     95    100 213.0  17.3  34032  287.42 0855.36
2009/04/23 08:42:45.7    -146    -20    -46    148    155 262.1 -17.3  34036  287.47 0855.36
2009/04/23 08:42:45.8    -230     32   -125    233    264 277.9 -34.7  34038  287.51 0855.36
2009/04/23 08:42:45.9    -142    -17   -137    144    198 263.0 -52.9  34038  287.52 0855.36
2009/04/23 08:42:46.0    -146   -175   -115    229    256 219.9 -32.9  34026  287.31 0855.36
2009/04/23 08:42:46.1    -407   -100   -121    420    437 256.2 -20.8  34036  287.48 0855.36
2009/04/23 08:42:46.2    -294   -100   -184    311    361 251.2 -37.9  34040  287.54 0855.36
2009/04/23 08:42:46.3    -276   -111   -246    298    386 248.0 -48.1  34036  287.47 0855.36
2009/04/23 08:42:46.4    -214   -226   -158    312    349 223.4 -33.3  34032  287.40 0855.36
2009/04/23 08:42:46.5     -41   -324    -43    327    330 187.3  -7.6  34032  287.40 0855.36
2009/04/23 08:42:46.6    -154   -222    -63    271    279 214.7 -13.2  34032  287.39 0855.36
2009/04/23 08:42:46.7    -222   -200    -40    300    303 228.0  -7.7  34036  287.48 0855.36
2009/04/23 08:42:46.8    -337     21   -147    338    368 273.6 -29.5  34034  287.45 0855.36
2009/04/23 08:42:46.9    -236    -41    -75    240    251 260.1 -22.8  34038  287.51 0855.36
2009/04/23 08:42:47.0    -204   -143    -89    250    265 234.9 -24.6  34036  287.48 0855.36
2009/04/23 08:42:47.1    -169   -143     22    222    224 229.6   5.7  34034  287.45 0855.36
2009/04/23 08:42:47.2    -264   -109    111    286    306 247.6  22.3  34030  287.38 0855.36
2009/04/23 08:42:47.3    -238    -79   -111    251    274 251.6 -29.6  34036  287.46 0855.36
2009/04/23 08:42:47.4    -165    -57    -49    175    181 250.9 -20.2  34028  287.33 0855.33
2009/04/23 08:42:47.5    -118    -43     76    126    147 249.6  34.4  34036  287.47 0855.33
2009/04/23 08:42:47.6    -199    -53     32    206    209 255.0   9.0  34032  287.42 0855.33
2009/04/23 08:42:47.7     -37   -141    -77    146    165 195.1 -34.5  34036  287.49 0855.33
2009/04/23 08:42:47.8     -28   -139    -96    142    171 191.6 -41.7  34034  287.45 0855.33
2009/04/23 08:42:47.9    -233   -167   -200    287    349 234.3 -42.7  34034  287.45 0855.33
2009/04/23 08:42:48.0    -350   -139   -214    377    433 248.3 -36.5  34036  287.48 0855.33
2009/04/23 08:42:48.1    -225   -237   -163    328    366 223.5 -32.8  34032  287.39 0855.33
2009/04/23 08:42:48.2    -242   -176   -227    300    376 234.1 -45.3  34038  287.52 0855.33
2009/04/23 08:42:48.3    -189   -166   -259    252    361 228.7 -55.2  34038  287.52 0855.33
2009/04/23 08:42:48.4    -237   -182   -278    299    408 232.5 -52.3  34032  287.42 0855.33
2009/04/23 08:42:48.5    -254   -152   -233    297    377 239.1 -46.5  34038  287.51 0855.33
2009/04/23 08:42:48.6    -264   -105   -228    285    364 248.2 -47.3  34034  287.45 0855.33
2009/04/23 08:42:48.7    -261   -103   -259    281    382 248.3 -52.1  34034  287.45 0855.33
2009/04/23 08:42:48.8    -145    -55   -154    156    219 249.2 -54.4  34034  287.43 0855.33
2009/04/23 08:42:48.9    -193   -150   -162    245    293 232.0 -40.9  34032  287.41 0855.33
2009/04/23 08:42:49.0    -218    -80   -157    233    280 249.8 -41.7  34040  287.55 0855.33
2009/04/23 08:42:49.1    -172    -69   -174    186    254 248.0 -52.3  34040  287.55 0855.33
2009/04/23 08:42:49.2    -132    -71   -150    151    212 241.6 -54.4  34036  287.49 0855.33
2009/04/23 08:42:49.3     -90    -56   -162    107    194 238.0 -68.5  34040  287.54 0855.33
2009/04/23 08:42:49.4    -186      8   -165    187    249 272.6 -50.3  34038  287.50 0855.33
2009/04/23 08:42:49.5     -68    -23   -159     73    174 250.9 -77.9  34034  287.43 0855.33
2009/04/23 08:42:49.6     -96   -186   -168    210    268 207.4 -47.4  34038  287.51 0855.33
2009/04/23 08:42:49.7       2   -209   -159    210    263 179.3 -45.1  34036  287.48 0855.33
2009/04/23 08:42:49.8     -42   -168   -132    174    218 194.0 -45.6  34036  287.47 0855.33
2009/04/23 08:42:49.9      -3   -121   -110    122    164 181.8 -51.3  34036  287.47 0855.33
2009/04/23 08:42:50.0    -144    -91   -135    171    217 237.5 -46.6  34038  287.52 0855.33
2009/04/23 08:42:50.1    -121    -50   -175    132    219 247.4 -63.8  34036  287.49 0855.33
2009/04/23 08:42:50.2    -101   -166    -80    195    210 211.4 -27.8  34032  287.40 0855.33
2009/04/23 08:42:50.3    -104   -131    -21    168    170 218.3  -7.2  34034  287.45 0855.33
2009/04/23 08:42:50.4    -154    -51   -141    163    215 251.4 -50.0  34036  287.47 0855.33
2009/04/23 08:42:50.5    -127    -80   -123    151    194 237.6 -48.1  34036  287.49 0855.33
2009/04/23 08:42:50.6    -114    -94    -68    149    163 230.5 -30.3  34036  287.49 0855.33
2009/04/23 08:42:50.7    -129    -93    -78    160    178 234.1 -32.4  34036  287.49 0855.33
2009/04/23 08:42:50.8     -99    -63    -86    118    146 237.5 -44.1  34036  287.49 0855.33
2009/04/23 08:42:50.9     -69    -24   -122     74    142 250.9 -70.1  34036  287.49 0855.33
2009/04/23 08:42:51.0    -192     -4    -59    193    201 268.7 -21.8  34032  287.40 0855.33
2009/04/23 08:42:51.1    -143     25    -52    146    156 280.1 -19.7  34034  287.43 0855.33
2009/04/23 08:42:51.2    -147      2   -114    148    186 270.9 -46.4  34036  287.47 0855.33
2009/04/23 08:42:51.3    -121    -86    -96    149    177 234.5 -40.1  34036  287.49 0855.33
2009/04/23 08:42:51.4    -225   -109   -145    251    289 244.0 -37.3  34036  287.46 0855.33
2009/04/23 08:42:51.5    -188    -58   -162    197    255 252.7 -48.1  34040  287.55 0855.33
2009/04/23 08:42:51.6    -206    -68   -197    218    293 251.6 -51.3  34040  287.55 0855.33
2009/04/23 08:42:51.7    -261    -83   -204    274    341 252.3 -44.8  34040  287.53 0855.33
2009/04/23 08:42:51.8    -206    -93   -197    227    300 245.6 -50.2  34038  287.51 0855.33
2009/04/23 08:42:51.9    -160    -80   -157    179    238 243.4 -50.3  34036  287.49 0855.33
2009/04/23 08:42:52.0     -37     22   -125     44    132 300.7 -85.1  34034  287.45 0855.33
2009/04/23 08:42:52.1      19     23    -94     31     98  39.6 -85.1  34036  287.47 0855.33
2009/04/23 08:42:52.2       6    -56   -125     57    137 173.8 -78.4  34034  287.45 0855.33
2009/04/23 08:42:52.3      -5    -77   -124     78    146 184.4 -69.1  34038  287.52 0855.33
2009/04/23 08:42:52.4     -17    -88    -85     90    123 191.1 -52.9  34038  287.52 0855.33
2009/04/23 08:42:52.5     -18    -68    -56     71     90 195.1 -47.1  34038  287.52 0855.33
2009/04/23 08:42:52.6      -2   -143    -70    144    160 180.9 -32.4  34038  287.52 0855.33
2009/04/23 08:42:52.7      11   -155    -75    156    173 175.6 -31.7  34036  287.47 0855.33
2009/04/23 08:42:52.8     -51   -151    -95    160    186 198.7 -38.1  34038  287.50 0855.33
2009/04/23 08:42:52.9      15   -125   -120    126    174 172.9 -53.4  34038  287.50 0855.33
2009/04/23 08:42:53.0      67    -99   -102    120    157 145.7 -49.5  34032  287.42 0855.33
2009/04/23 08:42:53.1      51    -68    -78     86    116 143.0 -51.9  34036  287.47 0855.33
2009/04/23 08:42:53.2     -14    -84    -64     86    107 189.8 -44.5  34034  287.45 0855.33
2009/04/23 08:42:53.3      37    -93    -55    101    115 158.2 -35.8  34036  287.49 0855.33
2009/04/23 08:42:53.4      54   -175   -107    184    212 162.8 -37.5  34036  287.47 0855.33
2009/04/23 08:42:53.5     114   -192   -108    224    248 149.2 -31.8  34038  287.50 0855.33
2009/04/23 08:42:53.6      95   -201    -91    223    240 154.7 -27.8  34036  287.46 0855.33
2009/04/23 08:42:53.7      29   -161    -68    164    177 169.8 -28.0  34034  287.45 0855.33
2009/04/23 08:42:53.8      86   -124    -78    152    170 145.3 -33.7  34036  287.47 0855.33
2009/04/23 08:42:53.9      43   -128    -48    136    144 161.3 -23.8  34034  287.45 0855.33
2009/04/23 08:42:54.0      47   -121   -101    130    164 158.6 -46.1  34038  287.52 0855.33
2009/04/23 08:42:54.1      57   -135   -107    147    181 156.8 -44.1  34038  287.50 0855.33
2009/04/23 08:42:54.2     102   -164   -139    194    238 148.1 -43.5  34034  287.45 0855.33
2009/04/23 08:42:54.3      83   -114   -162    142    215 143.9 -58.7  34038  287.50 0855.33
2009/04/23 08:42:54.4      76   -148   -153    167    226 152.8 -52.1  34036  287.47 0855.33
2009/04/23 08:42:54.5      73   -115    -85    137    161 147.5 -39.2  34034  287.43 0855.33
2009/04/23 08:42:54.6      14   -107    -21    108    111 172.4 -11.3  34034  287.43 0855.33
2009/04/23 08:42:54.7     -88   -100   -134    134    189 221.4 -54.5  34036  287.47 0855.33
2009/04/23 08:42:54.8       7    -27   -121     29    124 164.9 -90.0  34034  287.45 0855.33
2009/04/23 08:42:54.9      -7    -21   -117     23    119 200.0 -90.0  34038  287.50 0855.33
2009/04/23 08:42:55.0      -6    -55    -88     56    104 186.2 -69.1  34034  287.45 0855.33
2009/04/23 08:42:55.1      40      8    -50     41     64  77.6 -60.8  34040  287.55 0855.33
2009/04/23 08:42:55.2      48     27    -67     56     87  60.2 -60.2  34042  287.57 0855.33
2009/04/23 08:42:55.3     130     56    -98    142    172  66.5 -42.2  34036  287.47 0855.33
2009/04/23 08:42:55.4     202    103   -102    227    248  62.9 -30.6  34092  288.41 0855.33
2009/04/23 08:42:55.5     176    133     22    221    223  52.9   5.9  34098  288.52 0855.33
2009/04/23 08:42:55.6     260    132     14    292    293  63.0   2.9  34060  287.87 0855.33
2009/04/23 08:42:55.7     252     92     44    269    273  70.0   9.5  34062  287.90 0855.33
2009/04/23 08:42:55.8     230    -17    -18    231    232  94.4  -4.6  34050  287.70 0855.33
2009/04/23 08:42:55.9     164    -32    -44    168    174 101.0 -14.7  34048  287.69 0855.33
2009/04/23 08:42:56.0     174      7    -48    175    182  87.6 -15.5  34052  287.76 0855.33
2009/04/23 08:42:56.1     150     -7    -53    151    160  93.0 -24.4  34060  287.89 0855.33
2009/04/23 08:42:56.2     136     19    -48    138    147  82.0 -19.1  34064  287.94 0855.33
2009/04/23 08:42:56.3      91      0      8     92     93  90.0   5.4  34068  288.03 0855.33
2009/04/23 08:42:56.4      84      2     30     85     91  88.3  19.4  34076  288.14 0855.33
2009/04/23 08:42:56.5      60     18     21     63     67  73.2  18.4  34074  288.13 0855.33
2009/04/23 08:42:56.6      47     20     -6     52     53  66.5  -7.3  34072  288.09 0855.33
2009/04/23 08:42:56.7      59      7     37     60     70  83.0  35.5  34066  287.98 0855.33
2009/04/23 08:42:56.8      41     -5     33     42     53  97.0  43.7  34064  287.96 0855.33
2009/04/23 08:42:56.9      44      1     90     45    100  88.3  71.9  34064  287.96 0855.33
2009/04/23 08:42:57.0       3     -8     90      9     90 154.6  90.0  34064  287.96 0855.33
2009/04/23 08:42:57.1      -9    -18     94     21     96 207.2  88.5  34066  287.98 0855.33
2009/04/23 08:42:57.2     -27     11    100     30    104 291.7  82.3  34060  287.87 0855.33
2009/04/23 08:42:57.3     -26    -99    140    103    173 195.2  60.3  34062  287.92 0855.33
2009/04/23 08:42:57.4     -65   -138    112    153    189 205.3  39.7  34056  287.82 0855.33
2009/04/23 08:42:57.5     -73   -144     74    162    178 207.1  26.2  34062  287.91 0855.33
2009/04/23 08:42:57.6     -60    -62     42     87     96 224.1  27.3  34062  287.92 0855.33
2009/04/23 08:42:57.7     -70    -33     30     78     83 244.6  21.5  34060  287.89 0855.33
2009/04/23 08:42:57.8     -33    -29     68     45     81 228.7  63.6  34058  287.84 0855.33
2009/04/23 08:42:57.9     -91    -77     82    120    145 229.6  37.6  34056  287.81 0855.33
2009/04/23 08:42:58.0      20    -64    155     68    169 162.2  74.8  34040  287.55 0855.33
2009/04/23 08:42:58.1     -74   -124    159    145    215 210.8  52.7  34036  287.49 0855.33
2009/04/23 08:42:58.2     -41   -121    176    128    217 198.7  60.5  34038  287.52 0855.33
2009/04/23 08:42:58.3     -44   -130    187    138    232 198.7  60.5  34040  287.54 0855.33
2009/04/23 08:42:58.4     -47   -196    189    202    276 193.6  47.9  34044  287.61 0855.33
2009/04/23 08:42:58.5     -40   -151    165    157    227 195.1  51.6  34036  287.47 0855.33
2009/04/23 08:42:58.6     -99   -166     67    194    206 210.8  19.2  34052  287.76 0855.33
2009/04/23 08:42:58.7    -108   -210     86    237    252 207.2  20.7  34058  287.85 0855.33
2009/04/23 08:42:58.8     -97   -159     83    187    204 211.4  25.3  34052  287.74 0855.33
2009/04/23 08:42:58.9    -135   -120    105    181    209 228.4  32.9  34046  287.64 0855.33
2009/04/23 08:42:59.0    -190    -62      4    200    201 251.8   1.2  34046  287.64 0855.33
2009/04/23 08:42:59.1    -218   -120     -7    249    250 241.1  -1.6  34044  287.60 0855.33
2009/04/23 08:42:59.2    -113   -111     25    159    162 225.3   9.0  34042  287.59 0855.33
2009/04/23 08:42:59.3     -62   -193     75    203    216 198.0  21.3  34046  287.65 0855.33
2009/04/23 08:42:59.4     -55   -166     74    176    190 198.5  24.1  34042  287.59 0855.34
2009/04/23 08:42:59.5    -116   -156    116    195    226 216.7  33.5  34038  287.52 0855.34
2009/04/23 08:42:59.6    -127   -151    134    198    239 219.9  37.4  34036  287.47 0855.34
2009/04/23 08:42:59.7    -107   -195     81    223    238 208.9  19.9  34036  287.48 0855.34
2009/04/23 08:42:59.8    -111   -223     35    250    253 206.5   8.0  34034  287.43 0855.34
2009/04/23 08:42:59.9     -42   -220     57    225    233 190.9  14.3  34030  287.37 0855.34
2009/04/23 08:43:00.0     -80   -219     85    234    248 200.1  20.7  34032  287.39 0855.34
2009/04/23 08:43:00.1     -90   -248     77    264    276 200.0  16.3  34032  287.39 0855.34
2009/04/23 08:43:00.2    -189   -221     58    291    297 220.5  11.4  34044  287.60 0855.34
2009/04/23 08:43:00.3    -218   -166     54    275    281 232.7  11.1  34040  287.55 0855.34
2009/04/23 08:43:00.4    -184   -145    -10    235    236 231.8  -2.6  34042  287.58 0855.34
2009/04/23 08:43:00.5    -309    -43    -63    313    320 262.0 -11.5  34026  287.31 0855.34
2009/04/23 08:43:00.6    -329    -79   -159    339    374 256.4 -31.5  34032  287.40 0855.34
2009/04/23 08:43:00.7    -179   -187    -72    260    270 223.7 -15.5  34032  287.41 0855.34
2009/04/23 08:43:00.8    -209   -223     32    306    308 223.2   6.0  34028  287.34 0855.34
2009/04/23 08:43:00.9    -187   -187     77    265    277 225.0  16.3  34030  287.38 0855.34
2009/04/23 08:43:01.0     -80   -192     92    209    228 202.7  25.2  34034  287.43 0855.34
2009/04/23 08:43:01.1     -97   -152     95    181    204 212.5  30.1  34032  287.40 0855.34
2009/04/23 08:43:01.2    -143   -136     89    198    217 226.4  25.7  34032  287.42 0855.34
2009/04/23 08:43:01.3    -156    -11   -109    157    191 265.6 -42.8  34036  287.49 0855.34
2009/04/23 08:43:01.4    -190     -7    -95    191    213 267.9 -32.9  34038  287.50 0855.32
2009/04/23 08:43:01.5    -210     42   -140    215    256 281.5 -40.4  34034  287.44 0855.32
2009/04/23 08:43:01.6    -135   -144    -15    198    199 223.0  -4.4  34038  287.52 0855.32
2009/04/23 08:43:01.7    -103    -92    -42    139    145 228.2 -21.8  34034  287.45 0855.32
2009/04/23 08:43:01.8    -110    -71      8    131    132 237.1   3.8  34034  287.45 0855.32
2009/04/23 08:43:01.9    -139   -181      0    229    230 217.6   0.0  34036  287.49 0855.32
2009/04/23 08:43:02.0    -218   -205     44    300    304 226.9   8.5  34036  287.48 0855.32
2009/04/23 08:43:02.1    -210   -196     43    288    292 226.9   8.5  34038  287.50 0855.32
2009/04/23 08:43:02.2    -254   -161     36    301    304 237.6   6.9  34038  287.50 0855.32
2009/04/23 08:43:02.3    -214   -268    -13    343    344 218.6  -2.2  34036  287.49 0855.32
2009/04/23 08:43:02.4    -185   -274    -29    331    333 214.1  -5.1  34036  287.49 0855.31
2009/04/23 08:43:02.5    -262   -161   -124    308    332 238.5 -27.5  34038  287.50 0855.31
2009/04/23 08:43:02.6    -177   -250    -34    307    309 215.2  -6.5  34038  287.50 0855.31
2009/04/23 08:43:02.7    -210   -296    -42    364    367 215.4  -6.7  34036  287.49 0855.31
2009/04/23 08:43:02.8    -243   -169    -48    297    302 235.1  -9.3  34038  287.50 0855.31
2009/04/23 08:43:02.9     -92   -177    -16    200    201 207.6  -4.6  34036  287.49 0855.31
2009/04/23 08:43:03.0    -105    -92     66    140    154 228.7  27.2  34036  287.47 0855.31
2009/04/23 08:43:03.1    -212   -161    -34    267    270 232.9  -7.3  34038  287.51 0855.31
2009/04/23 08:43:03.2    -252   -263   -112    365    381 223.7 -22.1  34034  287.45 0855.31
2009/04/23 08:43:03.3    -236   -209    -87    316    328 228.4 -15.4  34038  287.50 0855.31
2009/04/23 08:43:03.4    -176   -188     25    258    260 223.2   5.7  34038  287.51 0855.31
2009/04/23 08:43:03.5    -174   -190     24    258    260 222.4   5.4  34038  287.51 0855.31
2009/04/23 08:43:03.6     -96    -74    -44    122    129 232.2 -24.8  34036  287.49 0855.31
2009/04/23 08:43:03.7    -134   -225   -115    263    287 210.8 -29.5  34032  287.41 0855.31
2009/04/23 08:43:03.8    -220    -84   -230    236    329 248.9 -53.8  34044  287.60 0855.31
2009/04/23 08:43:03.9     -26   -173   -209    176    273 188.7 -60.5  34042  287.56 0855.31
2009/04/23 08:43:04.0      -9   -208   -156    209    260 182.5 -45.0  34040  287.53 0855.31
2009/04/23 08:43:04.1       2   -326    -60    327    333 179.5 -10.5  34036  287.49 0855.31
2009/04/23 08:43:04.2      31   -165     76    169    185 169.1  25.9  34034  287.45 0855.31
2009/04/23 08:43:04.3      59    -48     98     77    124 129.5  58.4  34038  287.52 0855.31
2009/04/23 08:43:04.4      25     17     38     31     49  55.8  56.4  34038  287.50 0855.31
2009/04/23 08:43:04.5       0    -35    -76     36     84 180.9 -77.3  34042  287.57 0855.31
2009/04/23 08:43:04.6     -44    -75    -62     88    107 210.3 -43.9  34040  287.55 0855.31
2009/04/23 08:43:04.7      18   -126    -36    128    132 171.5 -20.7  34040  287.55 0855.31
2009/04/23 08:43:04.8     -71   -130    -34    149    153 208.5 -12.9  34036  287.47 0855.31
2009/04/23 08:43:04.9    -153    -50     22    162    164 251.8   8.0  34038  287.52 0855.31
2009/04/23 08:43:05.0     -96   -124     -5    157    158 217.8  -2.1  34040  287.54 0855.31
2009/04/23 08:43:05.1     -54   -148   -101    158    187 200.1 -40.0  34040  287.54 0855.31
2009/04/23 08:43:05.2    -164   -215    -42    271    275 217.4  -8.8  34040  287.53 0855.31
2009/04/23 08:43:05.3    -300   -181    -70    351    358 238.8 -11.3  34036  287.49 0855.31
2009/04/23 08:43:05.4    -326    -88     -7    338    339 254.8  -1.3  34042  287.59 0855.31
2009/04/23 08:43:05.5    -385   -138   -130    410    431 250.2 -17.7  34046  287.63 0855.31
2009/04/23 08:43:05.6    -383   -154   -204    413    460 248.0 -32.6  34044  287.60 0855.31
2009/04/23 08:43:05.7    -344   -249   -120    425    441 234.0 -20.4  34046  287.65 0855.31
2009/04/23 08:43:05.8    -302    -96   -194    317    371 252.3 -38.7  34050  287.71 0855.31
2009/04/23 08:43:05.9    -144   -353   -209    382    435 202.2 -35.7  34044  287.62 0855.31
2009/04/23 08:43:06.0    -169   -399     12    434    435 202.9   1.7  34038  287.52 0855.31
2009/04/23 08:43:06.1     -83   -342    -21    352    353 193.7  -3.5  34034  287.45 0855.31
2009/04/23 08:43:06.2    -220   -364     67    426    432 211.2   9.0  34028  287.33 0855.31
2009/04/23 08:43:06.3    -175   -344   -106    387    402 207.0 -15.4  34040  287.54 0855.31
2009/04/23 08:43:06.4    -135   -421    -80    443    451 197.8 -10.3  34042  287.57 0855.29
2009/04/23 08:43:06.5    -238   -344   -143    419    442 214.7 -23.8  34044  287.60 0855.29
2009/04/23 08:43:06.6    -257   -198   -113    325    344 232.3 -24.3  34036  287.49 0855.29
2009/04/23 08:43:06.7    -222   -254   -184    338    384 221.2 -35.7  34042  287.57 0855.29
2009/04/23 08:43:06.8    -186   -241   -164    305    346 217.8 -35.1  34038  287.52 0855.29
2009/04/23 08:43:06.9    -278    -68    -90    287    300 256.1 -22.5  34036  287.48 0855.29
2009/04/23 08:43:07.0    -109   -254    -97    277    293 203.2 -24.4  34038  287.51 0855.29
2009/04/23 08:43:07.1    -190   -218   -119    290    313 221.2 -28.0  34044  287.61 0855.29
2009/04/23 08:43:07.2    -254   -225   -138    340    366 228.5 -27.8  34042  287.57 0855.29
2009/04/23 08:43:07.3    -274   -274   -105    388    403 225.0 -15.2  34040  287.54 0855.29
2009/04/23 08:43:07.4    -206   -329   -195    389    435 212.1 -33.1  34044  287.60 0855.29
2009/04/23 08:43:07.5    -176   -344    -77    387    395 207.1 -11.3  34042  287.56 0855.29
2009/04/23 08:43:07.6    -184   -213     72    282    292 220.8  14.3  34040  287.55 0855.29
2009/04/23 08:43:07.7    -227   -335     38    405    407 214.2   5.5  34040  287.55 0855.29
2009/04/23 08:43:07.8    -182   -332    109    379    395 208.8  16.0  34034  287.44 0855.29
2009/04/23 08:43:07.9    -217   -333    169    398    432 213.2  24.3  34040  287.53 0855.29
2009/04/23 08:43:08.0    -284   -302    117    415    432 223.2  15.8  34040  287.53 0855.29
2009/04/23 08:43:08.1    -229   -178    112    291    311 232.2  22.0  34038  287.51 0855.29
2009/04/23 08:43:08.2    -164   -209    113    266    289 218.1  24.6  34040  287.53 0855.29
2009/04/23 08:43:08.3    -180   -122     98    218    239 235.9  25.9  34042  287.59 0855.29
2009/04/23 08:43:08.4    -202    -52     82    209    224 255.4  22.5  34036  287.49 0855.30
2009/04/23 08:43:08.6    -276    -43     10    280    281 261.0   2.1  34040  287.53 0855.30
2009/04/23 08:43:08.6    -329    -27    -41    331    334 265.3  -7.2  34042  287.59 0855.30
2009/04/23 08:43:08.7    -207     -9    -11    208    209 267.5  -3.3  34038  287.52 0855.30
2009/04/23 08:43:08.8    -258     19    -71    259    269 274.3 -15.5  34040  287.53 0855.30
2009/04/23 08:43:08.9    -238     10   -136    239    274 272.6 -36.5  34040  287.53 0855.30
2009/04/23 08:43:09.0    -275      8    -90    276    290 271.7 -23.6  34044  287.60 0855.30
2009/04/23 08:43:09.1    -250   -127   -145    281    316 243.1 -33.9  34040  287.55 0855.30
2009/04/23 08:43:09.2    -311   -148   -106    345    362 244.5 -17.2  34038  287.52 0855.30
2009/04/23 08:43:09.3    -342   -173   -141    384    409 243.2 -25.4  34042  287.56 0855.30
2009/04/23 08:43:09.4    -302   -148    -66    337    344 243.8 -11.1  34038  287.52 0855.30
2009/04/23 08:43:09.5    -224   -179   -115    287    309 231.4 -27.4  34038  287.51 0855.30
2009/04/23 08:43:09.6    -298   -238    -68    382    389 231.4 -10.1  34040  287.54 0855.30
2009/04/23 08:43:09.7    -290   -249    -40    383    386 229.4  -6.1  34038  287.52 0855.30
2009/04/23 08:43:09.8    -337   -187     70    386    393 240.9  10.4  34042  287.57 0855.30
2009/04/23 08:43:09.9    -452    -48    -48    455    458 263.9  -6.1  34048  287.68 0855.30
2009/04/23 08:43:10.0    -403     -5    -58    404    409 269.3  -8.3  34052  287.73 0855.30
2009/04/23 08:43:10.1    -342   -139    -21    370    371 247.9  -3.3  34046  287.64 0855.30
2009/04/23 08:43:10.2    -312   -104    -41    330    333 251.5  -7.2  34052  287.74 0855.30
2009/04/23 08:43:10.3    -307    -89    -30    320    322 253.8  -5.5  34054  287.78 0855.30
2009/04/23 08:43:10.4    -274    -20    -97    275    292 265.7 -19.4  34056  287.82 0855.31
2009/04/23 08:43:10.5    -311    -67    -81    319    330 257.7 -14.3  34052  287.75 0855.31
2009/04/23 08:43:10.6    -316    -50   -106    320    337 261.0 -23.7  34052  287.74 0855.31
2009/04/23 08:43:10.7    -247   -106     -7    269    270 246.7  -1.6  34044  287.61 0855.31
2009/04/23 08:43:10.8    -309    -40   -102    312    328 262.5 -23.5  34044  287.60 0855.31
2009/04/23 08:43:10.9    -343    -50   -159    347    381 261.6 -30.9  34044  287.61 0855.31
2009/04/23 08:43:11.0    -274    -65   -147    282    318 256.5 -34.0  34042  287.58 0855.31
2009/04/23 08:43:11.1    -212   -212   -143    300    332 225.0 -31.7  34040  287.53 0855.31
2009/04/23 08:43:11.2    -254   -262    -93    366    378 224.1 -14.3  34038  287.52 0855.31
2009/04/23 08:43:11.3    -228   -186    -11    295    296 230.7  -2.2  34038  287.51 0855.31
2009/04/23 08:43:11.4    -318    -67    -88    326    338 258.1 -15.2  34058  287.84 0855.31
2009/04/23 08:43:11.5    -373    -33   -130    375    396 264.9 -24.3  34060  287.88 0855.31
2009/04/23 08:43:11.7    -364    -44   -153    367    397 263.0 -28.5  34064  287.93 0855.31
2009/04/23 08:43:11.8    -353    -23   -192    354    402 266.2 -35.2  34060  287.88 0855.31
2009/04/23 08:43:11.9    -343     -3   -253    344    427 269.4 -44.3  34056  287.81 0855.31
2009/04/23 08:43:12.0    -312   -103   -331    329    466 251.6 -54.5  34052  287.73 0855.31
2009/04/23 08:43:12.1    -343   -216    -48    406    409 237.7  -6.9  34056  287.82 0855.31
2009/04/23 08:43:12.2    -290   -168    -90    336    348 240.0 -15.0  34056  287.81 0855.31
2009/04/23 08:43:12.3    -347   -140   -112    375    392 248.0 -16.7  34040  287.54 0855.31
2009/04/23 08:43:12.4    -343    -92   -112    356    373 255.0 -22.4  34042  287.57 0855.31
2009/04/23 08:43:12.5    -298    -60    -97    304    319 258.6 -22.8  34046  287.63 0855.30
2009/04/23 08:43:12.6    -250    -76    -85    262    276 252.9 -18.1  34038  287.51 0855.30
2009/04/23 08:43:12.7    -280    -64    -92    288    302 257.0 -23.0  34046  287.65 0855.30
2009/04/23 08:43:12.8    -300     25   -134    302    330 274.8 -30.0  34062  287.92 0855.30
2009/04/23 08:43:12.9    -310     83   -141    321    350 285.1 -29.6  34064  287.96 0855.30
2009/04/23 08:43:13.0    -352    126   -147    375    402 289.8 -26.9  34058  287.86 0855.30
2009/04/23 08:43:13.1    -258     33   -175    261    314 277.5 -41.6  34048  287.68 0855.30
2009/04/23 08:43:13.2    -259    -98    -65    278    286 249.2 -13.3  34048  287.68 0855.30
2009/04/23 08:43:13.3    -249    -52    -86    255    269 258.1 -23.3  34040  287.55 0855.30
2009/04/23 08:43:13.4    -286     67    -81    294    306 283.3 -15.4  34032  287.39 0855.30
2009/04/23 08:43:13.5    -300     82   -109    312    331 285.4 -19.4  34032  287.39 0855.30
2009/04/23 08:43:13.6    -334    111   -120    353    374 288.4 -18.8  34042  287.57 0855.30
2009/04/23 08:43:13.7    -368    160   -138    402    426 293.5 -18.9  34038  287.52 0855.30
2009/04/23 08:43:13.8    -348    134   -143    373    399 291.1 -26.4  34036  287.47 0855.30
2009/04/23 08:43:13.9    -338    160   -125    375    395 295.4 -23.6  34032  287.40 0855.30
2009/04/23 08:43:14.0    -302    174   -117    349    368 300.0 -23.3  34034  287.45 0855.30
2009/04/23 08:43:14.1    -271    153   -145    312    344 299.5 -31.3  34032  287.39 0855.30
2009/04/23 08:43:14.2    -260    158   -136    305    333 301.3 -30.1  34034  287.43 0855.30
2009/04/23 08:43:14.3    -257    116   -143    283    317 294.4 -33.3  34030  287.38 0855.30
2009/04/23 08:43:14.4    -273     64   -140    281    313 283.3 -32.9  34032  287.39 0855.30
2009/04/23 08:43:14.5    -284     94   -133    300    328 288.4 -30.0  34034  287.43 0855.29
2009/04/23 08:43:14.6    -273     96   -136    290    320 289.5 -31.4  34034  287.44 0855.29
2009/04/23 08:43:14.7    -202     95   -120    224    254 295.2 -34.7  34040  287.53 0855.29
2009/04/23 08:43:14.8    -161    160    -89    228    244 314.9 -26.5  34038  287.51 0855.29
2009/04/23 08:43:14.9    -189    156    -80    246    259 309.5 -18.1  34038  287.51 0855.29
2009/04/23 08:43:15.0    -167    157    -74    230    241 313.2 -23.0  34040  287.55 0855.29
2009/04/23 08:43:15.1    -136    116    -70    179    192 310.4 -26.9  34042  287.59 0855.29
2009/04/23 08:43:15.2    -109     91    -83    143    165 310.0 -37.3  34044  287.60 0855.29
2009/04/23 08:43:15.3    -121     99   -111    157    192 309.5 -43.2  34052  287.74 0855.29
2009/04/23 08:43:15.4    -103     91   -114    138    178 311.3 -48.1  34050  287.70 0855.29
2009/04/23 08:43:15.5     -79    116   -138    141    197 325.7 -53.8  34048  287.67 0855.29
2009/04/23 08:43:15.6     -40    213    -79    217    230 349.3 -25.1  34046  287.65 0855.29
2009/04/23 08:43:15.7    -126    199    -76    236    249 327.5 -17.9  34050  287.71 0855.29
2009/04/23 08:43:15.8    -136    192    -68    236    245 324.8 -20.8  34052  287.75 0855.29
2009/04/23 08:43:15.9     -79    174    -57    192    200 335.7 -21.7  34052  287.76 0855.29
2009/04/23 08:43:16.0     -49    209     11    215    216 346.6   3.1  34048  287.67 0855.29
2009/04/23 08:43:16.1       7    255     17    256    257   1.6   3.8  34044  287.60 0855.29
2009/04/23 08:43:16.2     -10    113    -31    114    119 354.7 -15.5  34044  287.62 0855.29
2009/04/23 08:43:16.3    -115    110   -132    160    207 313.6 -48.2  34044  287.60 0855.29
2009/04/23 08:43:16.4    -113    125    -47    169    175 317.9 -20.4  34046  287.65 0855.29
2009/04/23 08:43:16.5    -151     52    -45    160    167 289.3 -15.8  34040  287.55 0855.28
2009/04/23 08:43:16.6    -100    100    -18    142    144 314.8  -7.3  34040  287.54 0855.28
2009/04/23 08:43:16.7    -172    209    -46    271    276 320.6  -9.8  34044  287.60 0855.28
2009/04/23 08:43:16.8    -165    258    -61    307    314 327.4 -11.3  34046  287.63 0855.28
2009/04/23 08:43:16.9    -149    281    -82    319    330 332.0 -14.5  34044  287.60 0855.28
2009/04/23 08:43:17.0    -174    174    -68    247    257 315.1 -15.5  34042  287.58 0855.28
2009/04/23 08:43:17.1    -127    243    -91    275    289 332.4 -23.8  34038  287.51 0855.28
2009/04/23 08:43:17.2    -102    176   -131    204    242 329.9 -40.0  34040  287.54 0855.28
2009/04/23 08:43:17.3     -74    231   -125    243    273 342.2 -33.7  34040  287.55 0855.28
2009/04/23 08:43:17.4    -156    221   -137    271    303 324.8 -33.5  34042  287.58 0855.28
2009/04/23 08:43:17.5    -156    165   -119    228    257 316.7 -34.2  34046  287.63 0855.28
2009/04/23 08:43:17.6    -141    168   -152    220    267 320.1 -42.4  34044  287.60 0855.28
2009/04/23 08:43:17.7    -169    254   -167    306    348 326.4 -35.4  34044  287.61 0855.28
2009/04/23 08:43:17.8    -138    217   -126    258    287 327.5 -32.4  34044  287.61 0855.28
2009/04/23 08:43:17.9    -142    209   -116    253    278 325.7 -30.6  34044  287.60 0855.28
2009/04/23 08:43:18.0    -153    175    -84    233    247 318.8 -25.1  34044  287.60 0855.28
2009/04/23 08:43:18.1    -209    138    -87    251    265 303.5 -24.0  34046  287.63 0855.28
2009/04/23 08:43:18.2    -272    173   -147    323    354 302.5 -30.6  34044  287.61 0855.28
2009/04/23 08:43:18.3    -249    122   -104    278    296 296.2 -25.9  34044  287.60 0855.28
2009/04/23 08:43:18.4    -234    135   -135    271    302 300.0 -32.6  34044  287.60 0855.28
2009/04/23 08:43:18.5    -209    119   -139    241    278 299.8 -37.1  34046  287.65 0855.29
2009/04/23 08:43:18.6    -158     75   -154    176    233 295.5 -50.2  34046  287.65 0855.29
2009/04/23 08:43:18.7    -140     70   -164    157    227 296.6 -56.0  34044  287.62 0855.29
2009/04/23 08:43:18.8    -179     46   -124    185    222 284.6 -41.4  34044  287.62 0855.29
2009/04/23 08:43:18.9    -111     36   -134    117    177 288.4 -58.7  34046  287.65 0855.29
2009/04/23 08:43:19.0     -33    -26   -134     43    140 232.2 -85.6  34044  287.62 0855.29
2009/04/23 08:43:19.1      10     22    -90     25     93  23.6 -88.8  34044  287.62 0855.29
2009/04/23 08:43:19.2      24     50    -77     56     95  25.5 -64.9  34042  287.59 0855.29
2009/04/23 08:43:19.3      42    -10    -73     44     85 104.2 -70.1  34042  287.57 0855.29
2009/04/23 08:43:19.4      15    -78    -73     80    108 168.5 -51.9  34044  287.60 0855.29
2009/04/23 08:43:19.5      16    -40    -81     44     92 158.2 -73.7  34044  287.62 0855.29
2009/04/23 08:43:19.6      50     -5    -63     51     81  96.1 -61.3  34040  287.55 0855.29
2009/04/23 08:43:19.7      24    -27    -90     37     97 138.6 -81.5  34044  287.62 0855.29
2009/04/23 08:43:19.8      66    -54    -99     86    131 129.5 -58.7  34048  287.67 0855.29
2009/04/23 08:43:19.9      98     -7   -128     99    161  94.4 -62.9  34050  287.70 0855.29
2009/04/23 08:43:20.0     148    -20    -90    150    174  98.0 -38.6  34044  287.60 0855.29
2009/04/23 08:43:20.1     176    -74    -68    192    204 112.8 -19.6  34044  287.60 0855.29
2009/04/23 08:43:20.2     204   -176    -24    270    272 130.7  -5.2  34046  287.63 0855.29
2009/04/23 08:43:20.3      85   -246   -169    261    310 160.8 -40.0  34042  287.56 0855.29
2009/04/23 08:43:20.4     170    -88   -140    192    237 117.5 -44.1  34044  287.60 0855.29
2009/04/23 08:43:20.5     105    -67   -103    125    161 122.4 -48.5  34050  287.72 0855.30
2009/04/23 08:43:20.6     121    -23   -125    124    176 101.0 -54.1  34048  287.69 0855.30
2009/04/23 08:43:20.7     127    -28    -73    131    149 102.8 -35.8  34054  287.79 0855.30
2009/04/23 08:43:20.8     123    -53   -114    135    176 113.5 -48.9  34056  287.81 0855.30
2009/04/23 08:43:20.9     105    -72   -140    128    189 124.6 -57.1  34052  287.74 0855.30
2009/04/23 08:43:21.0     117    -42   -125    125    176 110.0 -54.5  34054  287.79 0855.30
2009/04/23 08:43:21.1     143     47   -104    151    183  71.8 -42.2  34056  287.82 0855.30
2009/04/23 08:43:21.2     159     69    -77    174    190  66.3 -30.1  34056  287.81 0855.30
2009/04/23 08:43:21.3     135     54    -65    146    159  68.2 -30.1  34052  287.76 0855.30
2009/04/23 08:43:21.4     119     51    -46    130    137  66.5 -24.8  34048  287.67 0855.30
2009/04/23 08:43:21.5     106     54    -19    120    122  63.0  -9.3  34048  287.67 0855.30
2009/04/23 08:43:21.6      87     87     -6    124    125  45.1  -3.1  34046  287.64 0855.30
2009/04/23 08:43:21.7      27    120     24    124    127  12.9  11.1  34048  287.69 0855.30
2009/04/23 08:43:21.8      42    111     59    119    132  20.9  27.8  34052  287.76 0855.30
2009/04/23 08:43:21.9       7    103     51    104    115   4.4  27.3  34052  287.74 0855.30
2009/04/23 08:43:22.0      40     32     40     52     65  51.4  41.7  34048  287.67 0855.30
2009/04/23 08:43:22.1      42     72     58     84    102  30.7  38.6  34050  287.70 0855.30
2009/04/23 08:43:22.2      22     77     41     81     90  16.0  28.7  34052  287.76 0855.30
2009/04/23 08:43:22.3      26     17     39     32     50  55.8  56.4  34050  287.72 0855.30
2009/04/23 08:43:22.4      -7     -6     51     10     51 226.9  89.1  34052  287.76 0855.30
2009/04/23 08:43:22.5     -18     -7     29     20     35 248.3  64.6  34052  287.76 0855.32
2009/04/23 08:43:22.6     -29      0      1     30     31 269.2   2.9  34052  287.76 0855.32
2009/04/23 08:43:22.7     -35     18    -13     40     43 297.1 -18.7  34050  287.70 0855.32
2009/04/23 08:43:22.8     -41     45    -20     62     65 317.7 -23.8  34052  287.76 0855.32
2009/04/23 08:43:22.9     -32     39    -36     51     62 320.3 -43.9  34048  287.69 0855.32
2009/04/23 08:43:23.0     -45     21    -24     50     55 295.4 -31.7  34052  287.76 0855.32
2009/04/23 08:43:23.1     -37     19    -17     42     45 297.1 -27.4  34052  287.74 0855.32
2009/04/23 08:43:23.2     -45     63    -24     78     81 324.0 -22.3  34052  287.74 0855.32
2009/04/23 08:43:23.3     -45     55    -24     72     75 320.4 -23.6  34052  287.76 0855.32
2009/04/23 08:43:23.4     -53     50     -9     74     75 313.2  -7.2  34052  287.74 0855.32
2009/04/23 08:43:23.5     -65     21    -22     69     72 288.2 -23.8  34048  287.67 0855.32
2009/04/23 08:43:23.6     -68     15     -2     70     71 282.4  -2.2  34048  287.67 0855.32
2009/04/23 08:43:23.7     -36     -7     18     37     41 258.6  27.2  34048  287.69 0855.32
2009/04/23 08:43:23.8     -72     -4     19     73     76 266.5  15.2  34052  287.74 0855.32
2009/04/23 08:43:23.9     -60    -45     38     76     84 233.1  28.7  34048  287.69 0855.32
2009/04/23 08:43:24.0     -53    -43     14     69     71 230.5  12.2  34050  287.70 0855.32
2009/04/23 08:43:24.1     -33    -52     55     62     82 212.5  46.4  34050  287.72 0855.32
2009/04/23 08:43:24.2     -80    -50     49     95    106 237.6  29.8  34052  287.74 0855.32
2009/04/23 08:43:24.3    -112    -33     41    117    125 253.6  19.4  34048  287.69 0855.32
2009/04/23 08:43:24.4    -164     36     24    168    170 282.4   8.2  34052  287.74 0855.32
2009/04/23 08:43:24.5    -157     34     46    161    168 282.4  16.0  34052  287.76 0855.32
2009/04/23 08:43:24.6    -145     49     44    154    161 288.6  16.0  34052  287.76 0855.32
2009/04/23 08:43:24.7    -142     38     -5    148    149 285.1  -2.2  34052  287.76 0855.32
2009/04/23 08:43:24.8    -126    -46      0    135    136 250.0  -0.3  34050  287.70 0855.32
2009/04/23 08:43:24.9    -151    -50    -28    160    163 251.4 -10.1  34052  287.76 0855.32
2009/04/23 08:43:25.0    -124    -34     20    129    131 254.5   9.0  34054  287.77 0855.32
2009/04/23 08:43:25.1     -98    -62     39    117    124 237.5  18.4  34050  287.72 0855.32
2009/04/23 08:43:25.2    -120     11     -8    121    122 275.7  -4.1  34050  287.72 0855.32
2009/04/23 08:43:25.3    -134     27    -13    137    138 281.4  -5.6  34052  287.76 0855.32
2009/04/23 08:43:25.4    -150     30    -26    154    157 281.5  -9.8  34052  287.76 0855.32
2009/04/23 08:43:25.5    -133     38    -40    139    145 285.9 -16.0  34054  287.77 0855.34
2009/04/23 08:43:25.6    -127    -44     39    135    141 250.9  16.3  34050  287.70 0855.34
2009/04/23 08:43:25.7    -119    -23      6    122    123 259.0   2.9  34052  287.74 0855.34
2009/04/23 08:43:25.8     -84    -36     20     92     95 246.9  12.6  34052  287.74 0855.34
2009/04/23 08:43:25.9     -69    -63     34     94     99 227.3  20.4  34054  287.77 0855.34
2009/04/23 08:43:26.0     -39    -24     38     46     59 238.5  43.7  34052  287.76 0855.34
2009/04/23 08:43:26.1     -36    -51     39     63     74 215.2  35.5  34054  287.77 0855.34
2009/04/23 08:43:26.2     -69    -81     55    107    120 220.5  29.3  34050  287.70 0855.34
2009/04/23 08:43:26.3     -71    -69     63    100    118 226.0  35.5  34050  287.70 0855.34
2009/04/23 08:43:26.4     -65    -40     62     77     98 238.5  43.7  34050  287.72 0855.34
2009/04/23 08:43:26.5     -60     -8     49     61     78 262.1  43.7  34052  287.74 0855.34
2009/04/23 08:43:26.6     -54     37     20     66     70 305.1  17.3  34052  287.76 0855.34
2009/04/23 08:43:26.7     -83     53     19     99    101 302.5  11.1  34052  287.76 0855.34
2009/04/23 08:43:26.8     -83     51     39     98    105 301.5  23.0  34052  287.74 0855.34
2009/04/23 08:43:26.9     -92     86     15    127    128 313.2   6.9  34048  287.69 0855.34
2009/04/23 08:43:27.0     -58    107     41    122    129 331.5  18.9  34044  287.60 0855.34
2009/04/23 08:43:27.1     -58     73     59     94    110 321.3  35.5  34044  287.62 0855.34
2009/04/23 08:43:27.2     -15     58     38     61     71 344.8  35.5  34040  287.55 0855.34
2009/04/23 08:43:27.3     -20     42     34     47     58 333.7  39.7  34040  287.54 0855.34
2009/04/23 08:43:27.4       1     40     57     41     70   2.7  60.5  34042  287.57 0855.34
2009/04/23 08:43:27.5      23     19     51     31     59  50.5  65.7  34046  287.64 0855.33
2009/04/23 08:43:27.6      30    -26     63     40     74 131.3  64.7  34046  287.64 0855.33
2009/04/23 08:43:27.7      23     10     51     26     57  66.5  71.9  34046  287.65 0855.33
2009/04/23 08:43:27.8      16     -5     30     17     34 108.6  68.8  34048  287.67 0855.33
2009/04/23 08:43:27.9      22     -8     26     24     35 110.0  50.1  34050  287.70 0855.33
2009/04/23 08:43:28.0      60    -63     23     88     91 136.3  14.7  34050  287.72 0855.33
2009/04/23 08:43:28.1      72    -87     23    114    117 140.4  11.6  34044  287.62 0855.33
2009/04/23 08:43:28.2      76   -119     51    142    150 147.5  20.0  34044  287.60 0855.33
2009/04/23 08:43:28.3      86   -124     53    152    162 145.3  19.4  34044  287.62 0855.33
2009/04/23 08:43:28.4      94   -125     64    157    169 143.0  23.4  34046  287.65 0855.33
2009/04/23 08:43:28.5      69   -109     54    130    140 147.5  23.6  34048  287.67 0855.33
2009/04/23 08:43:28.6      59   -132     45    145    152 155.9  17.3  34046  287.64 0855.33
2009/04/23 08:43:28.7      37   -101     21    108    111 159.5  11.0  34046  287.65 0855.33
2009/04/23 08:43:28.8     -31   -100     50    105    116 197.4  27.2  34046  287.64 0855.33
2009/04/23 08:43:28.9       1   -106     20    107    109 179.0  11.0  34044  287.62 0855.33
2009/04/23 08:43:29.0       0    -93    -12     94     95 179.5  -7.3  34048  287.67 0855.33
2009/04/23 08:43:29.1       8    -70    -19     71     74 172.9 -15.5  34048  287.67 0855.33
2009/04/23 08:43:29.2       6    -70    -32     71     77 174.7 -30.6  34048  287.69 0855.33
2009/04/23 08:43:29.3      18    -39    -22     44     49 154.6 -31.7  34048  287.69 0855.33
2009/04/23 08:43:29.4       3    -31    -22     32     38 173.8 -42.0  34048  287.69 0855.33
2009/04/23 08:43:29.5      31    -28    -24     42     48 132.2 -37.9  34046  287.65 0855.33
2009/04/23 08:43:29.6      -2    -35    -15     36     39 184.4 -25.4  34046  287.65 0855.33
2009/04/23 08:43:29.7       9    -21     -6     24     25 156.4 -15.5  34048  287.67 0855.33
2009/04/23 08:43:29.8      20     -2     11     21     23  97.9  29.3  34046  287.64 0855.33
2009/04/23 08:43:29.9      32    -10     20     34     39 108.4  33.5  34046  287.65 0855.33
2009/04/23 08:43:30.0      35     22     62     42     74  57.6  63.6  34048  287.69 0855.33
2009/04/23 08:43:30.1     -50     50     37     71     80 314.9  29.8  34044  287.62 0855.33
2009/04/23 08:43:30.2     -19     68     39     71     81 344.0  31.4  34048  287.69 0855.33
2009/04/23 08:43:30.3      54     58     44     80     91  43.2  31.4  34056  287.82 0855.33
2009/04/23 08:43:30.4      79     85     39    117    124  42.8  18.4  34054  287.77 0855.33
2009/04/23 08:43:30.5     138     70     23    155    157  62.9   8.5  34048  287.69 0855.33
2009/04/23 08:43:30.6     178    156     28    237    239  48.7   6.9  34046  287.63 0855.33
2009/04/23 08:43:30.7     178    141     62    228    237  51.6  15.3  34048  287.68 0855.33
2009/04/23 08:43:30.8     202    166     74    262    273  50.5  15.8  34048  287.68 0855.33
2009/04/23 08:43:30.9     102     34    119    108    160  71.6  53.3  34052  287.74 0855.33
2009/04/23 08:43:31.0      65     17    136     68    152  74.9  71.9  34050  287.72 0855.33
2009/04/23 08:43:31.1      28     19    123     34    127  55.8  84.4  34048  287.69 0855.33
2009/04/23 08:43:31.2      79     96    129    125    179  39.2  50.9  34050  287.72 0855.33
2009/04/23 08:43:31.3     114     94    121    148    191  50.5  43.7  34050  287.72 0855.33
2009/04/23 08:43:31.4      87     48    108    100    147  61.1  52.2  34050  287.72 0855.33
2009/04/23 08:43:31.5     114     73    135    136    191  57.1  50.2  34060  287.89 0855.32
2009/04/23 08:43:31.6     152     91    111    178    209  59.1  35.2  34048  287.69 0855.32
2009/04/23 08:43:31.7     146     94     82    175    193  57.1  27.1  34056  287.81 0855.32
2009/04/23 08:43:31.8     177     73     49    192    199  67.4  14.3  34050  287.72 0855.32
2009/04/23 08:43:31.9     278     91     41    293    296  71.8   8.0  34072  288.09 0855.32
2009/04/23 08:43:32.0     335    108     32    353    355  72.1   5.3  34078  288.20 0855.32
2009/04/23 08:43:32.1     280     90    190    295    350  72.2  35.6  34086  288.32 0855.32
2009/04/23 08:43:32.2     312     80    181    323    370  75.6  31.7  34084  288.28 0855.32
2009/04/23 08:43:32.3     366     47     86    370    380  82.6  13.1  34046  287.64 0855.32
2009/04/23 08:43:32.5     414     46     43    417    420  83.6   5.9  34038  287.50 0855.32
2009/04/23 08:43:32.5     371    118     48    390    394  72.3   7.1  34042  287.56 0855.32
2009/04/23 08:43:32.6     328     98     44    343    346  73.4   7.5  34044  287.62 0855.32
2009/04/23 08:43:32.7     314    118      2    336    337  69.4   0.4  34044  287.62 0855.32
2009/04/23 08:43:32.8     287     58      1    293    294  78.5   0.2  34046  287.63 0855.32
2009/04/23 08:43:32.9     240     54      0    247    248  77.2   0.0  34044  287.61 0855.32
2009/04/23 08:43:33.0     164     34     -3    168    169  78.1  -1.3  34044  287.62 0855.32
2009/04/23 08:43:33.1     195      1    -51    196    203  89.6 -14.7  34042  287.59 0855.32
2009/04/23 08:43:33.2     214     31    -43    217    222  81.6 -11.3  34040  287.55 0855.32
2009/04/23 08:43:33.3     226    -24    -63    228    237  96.2 -15.5  34042  287.58 0855.32
2009/04/23 08:43:33.4     271    -11    -35    272    275  92.5  -7.3  34046  287.65 0855.32
2009/04/23 08:43:33.5     271    -24    -62    273    281  95.2 -12.9  34044  287.60 0855.31
2009/04/23 08:43:33.6     264    -26    -14    266    267  95.7  -3.1  34046  287.65 0855.31
2009/04/23 08:43:33.7     222    -61    -89    231    247 105.5 -26.5  34044  287.61 0855.31
2009/04/23 08:43:33.8     219    -16    -72    220    231  94.3 -23.8  34046  287.64 0855.31
2009/04/23 08:43:33.9     127    -48    -74    136    154 110.8 -35.7  34052  287.76 0855.31
2009/04/23 08:43:34.0     146    -41    -54    152    162 105.9 -19.7  34048  287.69 0855.31
2009/04/23 08:43:34.1     130    -42   -124    137    184 108.2 -51.5  34052  287.76 0855.31
2009/04/23 08:43:34.2     170     44    -26    176    179  75.4  -8.6  34056  287.81 0855.31
2009/04/23 08:43:34.3      85     57    -59    103    118  56.3 -36.8  34054  287.77 0855.31
2009/04/23 08:43:34.4      65     36    -22     75     78  61.1 -21.7  34048  287.69 0855.31
2009/04/23 08:43:34.5     110     37      1    117    118  71.4   0.8  34052  287.76 0855.31
2009/04/23 08:43:34.6     124     -6    -25    125    128  93.0 -11.5  34050  287.70 0855.31
2009/04/23 08:43:34.7     113     23    -46    116    124  78.5 -26.9  34050  287.72 0855.31
2009/04/23 08:43:34.8     114     82    -39    141    147  54.0 -15.4  34058  287.86 0855.31
2009/04/23 08:43:34.9     133    104    -39    170    175  52.0 -12.9  34066  287.99 0855.31
2009/04/23 08:43:35.0     135    122    -14    183    184  47.8  -4.6  34060  287.89 0855.31
2009/04/23 08:43:35.1      75     24     -3     79     80  72.3  -2.2  34056  287.82 0855.31
2009/04/23 08:43:35.2      84    101   -116    132    175  39.6 -50.2  34054  287.79 0855.31
2009/04/23 08:43:35.3     137    147   -100    202    225  43.0 -32.4  34050  287.70 0855.31
2009/04/23 08:43:35.4     145    111   -116    183    216  52.5 -39.9  34048  287.69 0855.31
2009/04/23 08:43:35.5     140     88    -36    166    171  57.6 -12.4  34054  287.77 0855.31
2009/04/23 08:43:35.6     139      7     93    140    168  87.0  36.5  34058  287.86 0855.31
2009/04/23 08:43:35.7     174     16     85    175    194  84.5  27.4  34058  287.86 0855.31
2009/04/23 08:43:35.8     197     59     82    206    221  73.2  23.0  34154  289.46 0855.31
2009/04/23 08:43:35.9     214     97     81    236    250  65.6  18.9  34068  288.00 0855.31
2009/04/23 08:43:36.0     207     85    103    224    246  67.6  26.4  34064  287.93 0855.31
2009/04/23 08:43:36.1     185     79    110    202    230  66.9  31.3  34090  288.38 0855.31
2009/04/23 08:43:36.2     153     63    118    166    203  67.6  38.8  34088  288.35 0855.31
2009/04/23 08:43:36.3     220     42     82    225    239  79.0  20.9  34160  289.58 0855.31
2009/04/23 08:43:36.4     193     53     98    201    223  74.7  27.8  34156  289.52 0855.31
2009/04/23 08:43:36.5     153     73     55    170    179  64.2  17.9  34154  289.46 0855.31
2009/04/23 08:43:36.6     155     90     19    180    182  59.8   6.1  34152  289.45 0855.31
2009/04/23 08:43:36.7      94     13     80     96    124  81.6  43.8  34168  289.70 0855.31
2009/04/23 08:43:36.8      58     33    116     67    133  60.2  66.8  34164  289.65 0855.31
2009/04/23 08:43:36.9      96     41    115    105    155  66.9  52.2  34178  289.89 0855.31
2009/04/23 08:43:37.0      84     64    126    106    164  52.7  55.6  34174  289.80 0855.31
2009/04/23 08:43:37.1     102     78    140    129    190  52.7  52.5  34170  289.74 0855.31
2009/04/23 08:43:37.2      91     58    110    108    154  57.5  50.1  34104  288.64 0855.31
2009/04/23 08:43:37.3     130     35    107    135    172  74.9  42.7  34168  289.70 0855.31
2009/04/23 08:43:37.4     182    -30     56    185    194  99.5  17.1  34056  287.82 0855.31
2009/04/23 08:43:37.5     156     14     37    157    162  84.8  13.2  34050  287.72 0855.32
2009/04/23 08:43:37.6     162    -23     68    164    177  98.1  23.6  34040  287.55 0855.32
2009/04/23 08:43:37.7     143    -24     76    146    164  99.6  29.8  34040  287.55 0855.32
2009/04/23 08:43:37.8      65    -22     76     69    102 109.1  52.7  34050  287.72 0855.32
2009/04/23 08:43:37.9     -18   -127    100    129    163 188.1  41.7  34082  288.26 0855.32
2009/04/23 08:43:38.0      16   -209     74    210    223 175.6  19.4  34056  287.81 0855.32
2009/04/23 08:43:38.1     -11   -153    108    154    188 184.4  38.6  34058  287.84 0855.32
2009/04/23 08:43:38.2      31   -135     98    139    170 166.7  38.6  34050  287.72 0855.32
2009/04/23 08:43:38.3      60   -128     84    142    164 154.7  33.7  34038  287.52 0855.32
2009/04/23 08:43:38.4      39   -154     82    159    178 165.7  29.5  34042  287.59 0855.32
2009/04/23 08:43:38.5      69   -170     63    184    195 157.9  18.9  34046  287.64 0855.32
2009/04/23 08:43:38.6      54   -156     40    166    171 160.8  13.7  34048  287.69 0855.32
2009/04/23 08:43:38.8      50   -138     -3    147    148 160.0  -1.3  34046  287.65 0855.32
2009/04/23 08:43:38.8      69   -110     13    131    132 147.9   5.9  34050  287.72 0855.32
2009/04/23 08:43:38.9      77   -108     31    133    137 144.4  13.2  34048  287.67 0855.32
2009/04/23 08:43:39.0      73   -114     22    136    138 147.4   9.5  34050  287.70 0855.32
2009/04/23 08:43:39.1      98   -104      7    144    145 136.8   2.8  34050  287.72 0855.32
2009/04/23 08:43:39.2     122    -83     50    148    157 124.2  18.9  34044  287.60 0855.32
2009/04/23 08:43:39.3     103    -88     64    136    150 130.4  27.1  34044  287.60 0855.32
2009/04/23 08:43:39.5      98   -104     51    143    151 136.7  20.0  34044  287.62 0855.32
2009/04/23 08:43:39.6     103   -147    108    180    209 144.8  33.7  34042  287.59 0855.33
2009/04/23 08:43:39.7      81   -141    111    163    197 150.1  37.6  34042  287.59 0855.33
2009/04/23 08:43:39.8      99   -180     95    206    226 151.1  26.6  34046  287.65 0855.33
2009/04/23 08:43:39.9     109   -141     24    179    181 142.4   7.8  34054  287.77 0855.33
2009/04/23 08:43:40.0     154   -168     46    228    233 137.5  11.6  34044  287.62 0855.33
2009/04/23 08:43:40.1      88   -201    104    220    243 156.3  27.2  34042  287.56 0855.33
2009/04/23 08:43:40.2     129   -209     96    246    264 148.4  22.5  34044  287.60 0855.33
2009/04/23 08:43:40.3     160   -282     72    325    333 150.4  12.5  34044  287.62 0855.33
2009/04/23 08:43:40.4     133   -269     47    301    305 153.7   8.9  34046  287.63 0855.33
2009/04/23 08:43:40.5     145   -256     20    295    296 150.4   3.9  34046  287.65 0855.33
2009/04/23 08:43:40.6     143   -225    -61    267    274 147.5 -12.9  34050  287.70 0855.33
2009/04/23 08:43:40.7     180   -193    -43    264    268 137.0  -9.3  34048  287.66 0855.33
2009/04/23 08:43:40.8     154   -175      7    234    235 138.6   1.8  34042  287.58 0855.33
2009/04/23 08:43:40.9      78   -140     14    161    162 151.0   5.2  34046  287.65 0855.33
2009/04/23 08:43:41.0      64   -136    -13    151    152 154.6  -5.1  34048  287.67 0855.33
2009/04/23 08:43:41.1      35   -129     15    134    135 164.4   6.5  34046  287.65 0855.33
2009/04/23 08:43:41.2      15   -126    -11    127    128 172.9  -5.2  34044  287.60 0855.33
2009/04/23 08:43:41.3     -23   -125     22    128    131 190.7  10.1  34044  287.60 0855.33
2009/04/23 08:43:41.4      -8   -113     40    114    121 184.5  19.4  34044  287.60 0855.33
2009/04/23 08:43:41.5      20    -96      7     99    100 168.0   4.4  34046  287.64 0855.33
2009/04/23 08:43:41.6      22    -39    -21     45     49 150.1 -31.6  34046  287.65 0855.34
2009/04/23 08:43:41.7      45    -24     -9     52     53 118.0 -10.3  34048  287.69 0855.34
2009/04/23 08:43:41.8      60      0      7     61     62  90.0   6.9  34054  287.77 0855.34
2009/04/23 08:43:41.9      64    -19     15     67     69 106.8  13.2  34062  287.92 0855.34
2009/04/23 08:43:42.0      69      5      4     70     71  85.7   3.8  34064  287.94 0855.34
2009/04/23 08:43:42.1      76    -36     37     85     92 115.3  25.1  34054  287.77 0855.34
2009/04/23 08:43:42.2      56    -35     45     67     80 122.4  37.6  34050  287.72 0855.34
2009/04/23 08:43:42.3      29    -12     48     32     57 113.5  64.6  34052  287.74 0855.34
2009/04/23 08:43:42.4      18     10     46     21     50  59.3  73.1  34054  287.77 0855.34
2009/04/23 08:43:42.5      25     16     40     30     50  57.6  58.5  34054  287.79 0855.34
2009/04/23 08:43:42.6      33     11     26     35     43  71.4  40.7  34054  287.79 0855.34
2009/04/23 08:43:42.7      21     -7      8     23     25 108.2  19.2  34054  287.79 0855.34
2009/04/23 08:43:42.8      27    -22    -10     36     38 129.5 -15.5  34064  287.94 0855.34
2009/04/23 08:43:42.9      34    -35    -16     49     51 135.8 -23.8  34068  288.03 0855.34
2009/04/23 08:43:43.0      51   -131    -19    141    143 158.6  -7.7  34074  288.13 0855.34
2009/04/23 08:43:43.1      70   -144    -41    161    167 154.1 -14.5  34066  287.98 0855.34
2009/04/23 08:43:43.2      91   -178    -42    201    206 152.9 -11.9  34048  287.69 0855.34
2009/04/23 08:43:43.3     117   -190     -4    224    225 148.4  -1.2  34046  287.65 0855.34
2009/04/23 08:43:43.4     106   -192     76    220    233 151.0  19.2  34048  287.69 0855.34
2009/04/23 08:43:43.5      89   -163     36    186    190 151.3  11.1  34044  287.62 0855.34
2009/04/23 08:43:43.6     180   -159    -83    241    255 131.4 -19.1  34046  287.63 0855.34
2009/04/23 08:43:43.7      94   -183     10    206    207 152.8   2.9  34044  287.60 0855.34
2009/04/23 08:43:43.8     128   -242    115    274    297 152.1  24.1  34044  287.60 0855.34
2009/04/23 08:43:43.9     114   -189    143    221    263 148.8  35.7  34042  287.58 0855.34
2009/04/23 08:43:44.0     102   -160    114    190    221 147.5  34.0  34042  287.57 0855.34
2009/04/23 08:43:44.1     181   -112    144    214    257 121.8  37.3  34042  287.56 0855.34
2009/04/23 08:43:44.2     214    -85     68    231    241 111.7  16.4  34046  287.63 0855.34
2009/04/23 08:43:44.3     209    -64     18    219    220 107.1   4.9  34044  287.60 0855.34
2009/04/23 08:43:44.4     209    -62     -1    219    220 106.6  -0.5  34044  287.62 0855.34
2009/04/23 08:43:44.5     222   -128     69    257    267 120.0  15.2  34048  287.66 0855.34
2009/04/23 08:43:44.6     184   -152    105    239    261 129.6  25.2  34046  287.63 0855.33
2009/04/23 08:43:44.7     194   -171    -34    259    262 131.4  -7.5  34046  287.65 0855.33
2009/04/23 08:43:44.8     128   -189    -34    229    232 145.7  -8.6  34044  287.62 0855.33
2009/04/23 08:43:44.9     103   -149    -36    182    186 145.5 -11.3  34044  287.62 0855.33
2009/04/23 08:43:45.0      62   -167    108    179    209 159.5  34.0  34040  287.54 0855.33
2009/04/23 08:43:45.1      44   -171    114    177    210 165.3  35.6  34044  287.60 0855.33
2009/04/23 08:43:45.2     -16   -209    112    210    238 184.5  30.3  34046  287.64 0855.33
2009/04/23 08:43:45.3      50   -193     96    200    221 165.3  27.3  34044  287.60 0855.33
2009/04/23 08:43:45.4      43   -212     85    217    233 168.5  22.5  34046  287.64 0855.33
2009/04/23 08:43:45.5      -3   -213     91    214    232 180.9  24.3  34042  287.59 0855.33
2009/04/23 08:43:45.6     -19   -207     74    208    221 185.3  19.6  34040  287.54 0855.33
2009/04/23 08:43:45.7     -47   -222     53    227    234 192.0  13.1  34042  287.57 0855.33
2009/04/23 08:43:45.8      11   -176    -37    177    181 176.4 -11.9  34046  287.64 0855.33
2009/04/23 08:43:45.9      54   -162    -49    171    177 161.5 -20.7  34044  287.60 0855.33
2009/04/23 08:43:46.0     102   -156    -15    187    188 146.8  -4.9  34044  287.62 0855.33
2009/04/23 08:43:46.1      95   -110    -15    146    147 139.0  -6.2  34044  287.60 0855.33
2009/04/23 08:43:46.2      48   -113    -20    123    125 156.8  -9.3  34044  287.62 0855.33
2009/04/23 08:43:46.3      36   -116    -24    122    125 162.6 -11.5  34048  287.69 0855.33
2009/04/23 08:43:46.4      46    -97    -50    108    119 154.7 -31.5  34046  287.64 0855.33
2009/04/23 08:43:46.5      63    -87    -26    108    112 144.0 -13.9  34044  287.60 0855.33
2009/04/23 08:43:46.6      35   -106      5    112    113 161.3   2.9  34046  287.65 0855.32
2009/04/23 08:43:46.7      30   -112     23    117    120 164.8  11.1  34044  287.60 0855.32
2009/04/23 08:43:46.8      26   -107     32    111    116 166.2  16.3  34044  287.62 0855.32
2009/04/23 08:43:46.9      26   -125     32    128    133 168.0  14.3  34044  287.62 0855.32
2009/04/23 08:43:47.0       9   -132     11    133    134 176.0   4.9  34044  287.60 0855.32
2009/04/23 08:43:47.1      -8   -116     51    117    127 184.0  25.1  34042  287.59 0855.32
2009/04/23 08:43:47.2     -14   -134     47    135    144 186.2  19.4  34042  287.57 0855.32
2009/04/23 08:43:47.3     -37   -190    -29    194    197 191.1  -8.6  34042  287.57 0855.32
2009/04/23 08:43:47.4     -24   -218    -12    220    221 186.5  -3.2  34040  287.55 0855.32
2009/04/23 08:43:47.5       1   -200     17    201    202 179.5   4.9  34042  287.57 0855.32
2009/04/23 08:43:47.6     -19   -277      4    278    279 184.0   1.0  34044  287.60 0855.32
2009/04/23 08:43:47.7      13   -277    -15    278    279 177.3  -3.2  34042  287.56 0855.32
2009/04/23 08:43:47.8     -12   -247     -9    248    249 182.9  -2.1  34038  287.50 0855.32
2009/04/23 08:43:47.9      34   -275    -45    278    282 172.9  -9.3  34040  287.53 0855.32
2009/04/23 08:43:48.0      29   -316      9    318    319 174.7   1.8  34038  287.51 0855.32
2009/04/23 08:43:48.1       4   -306     15    307    308 179.1   2.9  34038  287.51 0855.32
2009/04/23 08:43:48.2     -42   -298     84    302    314 188.0  15.6  34042  287.56 0855.32
2009/04/23 08:43:48.3     -68   -239     88    249    265 196.1  19.4  34038  287.50 0855.32
2009/04/23 08:43:48.4     -85   -200    134    218    255 203.2  34.5  34036  287.48 0855.32
2009/04/23 08:43:48.5     -68   -168    153    182    237 202.1  44.5  34038  287.52 0855.32
2009/04/23 08:43:48.6     -56   -136    148    148    209 202.3  50.1  34040  287.54 0855.32
2009/04/23 08:43:48.7     -32    -96    116    102    154 198.3  54.3  34038  287.52 0855.32
2009/04/23 08:43:48.8     -19    -72    109     75    132 195.1  62.6  34042  287.57 0855.32
2009/04/23 08:43:48.9      42    -79    112     90    143 151.5  56.9  34038  287.52 0855.32
2009/04/23 08:43:49.0     148   -157     29    217    219 136.7   7.8  34036  287.49 0855.32
2009/04/23 08:43:49.1     126   -150     54    197    205 139.9  15.3  34038  287.52 0855.32
2009/04/23 08:43:49.2     102   -166     -3    196    197 148.4  -1.2  34038  287.52 0855.32
2009/04/23 08:43:49.3     183   -204     53    275    281 138.1  11.0  34044  287.60 0855.32
2009/04/23 08:43:49.4     140   -189     61    236    244 143.5  14.7  34044  287.60 0855.32
2009/04/23 08:43:49.5     107   -162     23    195    197 146.6   6.9  34042  287.59 0855.32
2009/04/23 08:43:49.6      83   -158     79    179    195 152.4  25.2  34042  287.57 0855.32
2009/04/23 08:43:49.7     117   -186    119    220    250 147.9  30.6  34042  287.56 0855.32
2009/04/23 08:43:49.8     117   -172    126    209    244 145.7  34.0  34042  287.56 0855.32
2009/04/23 08:43:49.9     110   -185    154    216    265 149.2  39.3  34044  287.61 0855.32
2009/04/23 08:43:50.0     112   -184    133    216    253 148.6  34.8  34042  287.56 0855.32
2009/04/23 08:43:50.1     126   -149     17    196    197 139.7   5.0  34042  287.57 0855.32
2009/04/23 08:43:50.2      83   -169     30    189    192 153.9   9.0  34042  287.59 0855.32
2009/04/23 08:43:50.3     107   -192     -6    221    222 150.8  -1.8  34044  287.60 0855.32
2009/04/23 08:43:50.4     129   -184     -8    225    226 145.0  -2.2  34042  287.59 0855.32
2009/04/23 08:43:50.5     132   -258     35    290    293 152.9   6.9  34042  287.56 0855.32
2009/04/23 08:43:50.6      85   -237     69    252    262 160.2  15.3  34040  287.53 0855.33
2009/04/23 08:43:50.7      66   -169     81    182    199 158.6  25.3  34042  287.59 0855.33
2009/04/23 08:43:50.8      47   -204     93    210    229 166.9  25.3  34042  287.59 0855.33
2009/04/23 08:43:50.9      76   -156     79    174    191 153.9  26.2  34042  287.57 0855.33
2009/04/23 08:43:51.0      94   -168     98    193    216 150.8  29.1  34038  287.52 0855.33
2009/04/23 08:43:51.1     103   -161    105    192    218 147.4  31.3  34042  287.57 0855.33
2009/04/23 08:43:51.2     115   -269    -10    293    294 156.8  -2.1  34042  287.56 0855.33
2009/04/23 08:43:51.3      80   -231     -9    245    246 160.8  -2.2  34040  287.53 0855.33
2009/04/23 08:43:51.4     105   -250     24    272    274 157.3   5.2  34042  287.56 0855.33
2009/04/23 08:43:51.5      70   -236     25    247    249 163.5   6.0  34042  287.56 0855.33
2009/04/23 08:43:51.6      12   -218     76    219    232 176.6  19.2  34044  287.62 0855.33
2009/04/23 08:43:51.7      77   -213      6    227    228 159.9   1.6  34042  287.59 0855.33
2009/04/23 08:43:51.8      65   -195     23    206    208 161.5   6.5  34046  287.64 0855.33
2009/04/23 08:43:51.9      41   -176     73    181    195 166.9  23.0  34044  287.60 0855.33
2009/04/23 08:43:52.0      78   -163     81    181    198 154.4  25.3  34042  287.59 0855.33
2009/04/23 08:43:52.1      72   -150    171    167    239 154.4  50.7  34044  287.60 0855.33
2009/04/23 08:43:52.2      92   -186    122    208    241 153.5  33.4  34044  287.60 0855.33
2009/04/23 08:43:52.3      33   -182    131    186    227 169.5  38.6  34046  287.65 0855.33
2009/04/23 08:43:52.4       7   -204    134    205    244 177.8  36.3  34046  287.64 0855.33
2009/04/23 08:43:52.5     -36   -163    105    167    197 192.5  35.5  34044  287.62 0855.33
2009/04/23 08:43:52.6      -9   -140    153    141    208 184.0  52.5  34044  287.62 0855.34
2009/04/23 08:43:52.7     -18   -115    112    117    161 188.9  49.0  34046  287.64 0855.34
2009/04/23 08:43:52.8      39   -123    111    130    170 162.2  44.8  34044  287.60 0855.34
2009/04/23 08:43:52.9     107   -123     98    164    191 138.8  34.0  34046  287.64 0855.34
2009/04/23 08:43:53.0     115   -108    101    159    188 133.2  35.5  34046  287.64 0855.34
2009/04/23 08:43:53.1     124   -148     56    194    203 140.1  16.3  34044  287.62 0855.34
2009/04/23 08:43:53.2      88   -157     43    181    187 150.6  13.5  34046  287.65 0855.34
2009/04/23 08:43:53.3     117   -193     33    226    229 148.8   8.5  34044  287.62 0855.34
2009/04/23 08:43:53.4      85   -167     -2    188    189 153.0  -0.7  34042  287.59 0855.34
2009/04/23 08:43:53.5      97   -127      0    161    162 142.6   0.2  34044  287.60 0855.34
2009/04/23 08:43:53.6     124   -118     12    172    173 133.6   4.2  34046  287.64 0855.34
2009/04/23 08:43:53.7     127    -98     -3    161    162 127.8  -1.3  34046  287.64 0855.34
2009/04/23 08:43:53.8     140    -61     22    153    155 113.5   8.5  34044  287.60 0855.34
2009/04/23 08:43:53.9     129    -26      7    132    133 101.5   3.3  34044  287.62 0855.34
2009/04/23 08:43:54.0     119     21     38    121    127  79.9  17.4  34040  287.55 0855.34
2009/04/23 08:43:54.1     118     23     80    121    145  78.6  36.0  34044  287.60 0855.34
2009/04/23 08:43:54.2      56    -35     62     67     91 122.4  47.9  34046  287.65 0855.34
2009/04/23 08:43:54.3      60     12    -21     62     65  78.5 -23.6  34044  287.62 0855.34
2009/04/23 08:43:54.4      89     29    -68     94    116  71.8 -44.1  34044  287.62 0855.34
2009/04/23 08:43:54.5      92    -22    -38     95    102 103.7 -27.4  34046  287.64 0855.34
2009/04/23 08:43:54.6      50    -41    -84     66    106 129.5 -61.9  34044  287.60 0855.35
2009/04/23 08:43:54.7      57    -73    -46     93    103 141.7 -32.2  34042  287.59 0855.35
2009/04/23 08:43:54.8      -7    -98    -19     99    101 184.5 -10.9  34044  287.62 0855.35
2009/04/23 08:43:54.9     -26    -91    -31     95     99 196.0 -23.8  34044  287.60 0855.35
2009/04/23 08:43:55.0      17   -119     39    121    128 171.9  17.9  34044  287.60 0855.35
2009/04/23 08:43:55.1      31   -100     36    105    112 162.6  19.2  34042  287.57 0855.35
2009/04/23 08:43:55.2      32    -91     39     97    104 160.4  23.0  34044  287.62 0855.35
2009/04/23 08:43:55.3      35    -64     35     74     81 151.0  26.6  34044  287.62 0855.35
2009/04/23 08:43:55.4      53    -55      3     77     78 135.8   2.9  34044  287.60 0855.35
2009/04/23 08:43:55.5      75    -95    -15    122    123 141.7  -7.2  34044  287.62 0855.35
2009/04/23 08:43:55.6      88   -106     47    138    146 140.4  18.9  34044  287.60 0855.35
2009/04/23 08:43:55.7      97    -61     68    115    133 122.4  33.5  34042  287.57 0855.35
2009/04/23 08:43:55.8     123    -57     97    136    167 115.2  39.1  34044  287.62 0855.35
2009/04/23 08:43:55.9     126    -47    107    135    172 110.8  42.7  34046  287.65 0855.35
2009/04/23 08:43:56.0     114    -15     91    116    147  97.9  42.7  34048  287.67 0855.35
2009/04/23 08:43:56.1     145    -63    108    159    192 113.5  37.0  34050  287.70 0855.35
2009/04/23 08:43:56.2      94    -72     33    119    124 127.3  15.8  34048  287.67 0855.35
2009/04/23 08:43:56.3     150    -40     60    156    167 105.1  22.0  34048  287.69 0855.35
2009/04/23 08:43:56.4     148    -86     -9    172    173 120.0  -3.2  34044  287.62 0855.35
2009/04/23 08:43:56.5     183    -98     -7    208    209 118.2  -2.1  34042  287.59 0855.35
2009/04/23 08:43:56.6     156   -128      5    202    203 129.3   1.6  34046  287.65 0855.35
2009/04/23 08:43:56.7     129   -232     86    266    280 150.8  17.9  34044  287.61 0855.35
2009/04/23 08:43:56.8     176   -242     74    300    310 143.9  13.9  34050  287.70 0855.35
2009/04/23 08:43:56.9     135   -240     75    276    287 150.6  15.2  34050  287.70 0855.35
2009/04/23 08:43:57.0     105   -209     28    234    236 153.3   6.9  34048  287.66 0855.35
2009/04/23 08:43:57.1      62   -209     18    219    220 163.5   4.9  34046  287.64 0855.35
2009/04/23 08:43:57.2      67   -233     -2    243    244 164.0  -0.5  34048  287.68 0855.35
2009/04/23 08:43:57.3      23   -301     25    302    304 175.6   4.9  34050  287.70 0855.35
2009/04/23 08:43:57.4      38   -284     14    287    288 172.2   2.9  34048  287.68 0855.35
2009/04/23 08:43:57.5      50   -295     31    300    302 170.3   5.9  34046  287.65 0855.35
2009/04/23 08:43:57.6    -125   -480    -27    497    498 194.7  -3.2  34044  287.61 0855.35
2009/04/23 08:43:57.7    -277   -506   -126    577    591 208.7 -12.4  34046  287.65 0855.35
2009/04/23 08:43:57.8    -199   -428    -67    472    477 204.9  -8.1  34048  287.68 0855.35
2009/04/23 08:43:57.9    -130   -391    -65    413    419 198.5  -9.0  34048  287.68 0855.35
2009/04/23 08:43:58.0     -96   -329   -106    343    360 196.3 -17.2  34048  287.66 0855.35
2009/04/23 08:43:58.1    -135   -320   -177    348    390 202.8 -33.6  34048  287.66 0855.35
2009/04/23 08:43:58.2    -162   -301   -181    342    386 208.3 -34.6  34048  287.66 0855.35
2009/04/23 08:43:58.3    -119   -343   -134    364    387 199.2 -25.4  34048  287.66 0855.35
2009/04/23 08:43:58.4      50   -314   -156    319    355 170.9 -32.3  34046  287.64 0855.35
2009/04/23 08:43:58.5      97   -296   -171    312    355 161.7 -35.7  34042  287.56 0855.35
2009/04/23 08:43:58.6      61   -270   -112    277    298 167.1 -27.5  34046  287.63 0855.34
2009/04/23 08:43:58.7     -18   -231    -29    232    234 184.5  -7.3  34048  287.66 0855.34
2009/04/23 08:43:58.8     -39   -198    -40    202    207 191.3 -11.3  34044  287.62 0855.34
2009/04/23 08:43:58.9     -21   -170    -56    172    180 187.3 -23.6  34044  287.60 0855.34
2009/04/23 08:43:59.0     -94   -155    -67    182    193 211.4 -25.1  34040  287.55 0855.34
2009/04/23 08:43:59.1    -169   -168    -81    239    253 225.1 -18.7  34042  287.58 0855.34
2009/04/23 08:43:59.2     -94   -149   -120    177    213 212.1 -41.7  34034  287.45 0855.34
2009/04/23 08:43:59.3     -76   -190   -127    205    241 201.8 -39.4  34030  287.38 0855.34
2009/04/23 08:43:59.4     -56   -208   -114    216    244 195.1 -34.5  34032  287.39 0855.34
2009/04/23 08:43:59.5     -39   -182    -73    187    200 192.3 -26.9  34030  287.38 0855.34
2009/04/23 08:43:59.6       5   -196    -68    197    208 178.4 -23.8  34034  287.43 0855.34
2009/04/23 08:43:59.7      26   -185    -55    187    194 172.0 -21.7  34040  287.54 0855.34
2009/04/23 08:43:59.8      55   -206    -50    214    220 164.9 -13.2  34036  287.49 0855.34
2009/04/23 08:43:59.9      79   -204    -33    219    222 158.8  -8.6  34034  287.43 0855.34
2009/04/23 08:44:00.0      77   -204    -34    219    222 159.3  -9.0  34034  287.45 0855.34
2009/04/23 08:44:00.1      67   -204    -11    215    216 161.7  -3.1  34036  287.49 0855.34
2009/04/23 08:44:00.2      70   -202    -27    214    216 160.8  -7.2  34036  287.47 0855.34
2009/04/23 08:44:00.3      63   -186    -25    197    199 161.1  -7.3  34036  287.49 0855.34
2009/04/23 08:44:00.4      75   -202    -50    216    222 159.5 -13.3  34034  287.45 0855.34
2009/04/23 08:44:00.5      78   -193    -62    209    219 158.1 -16.6  34036  287.47 0855.34
2009/04/23 08:44:00.6      51   -175    -78    183    198 163.7 -28.7  34034  287.43 0855.34
2009/04/23 08:44:00.7      50   -187    -56    194    201 164.8 -21.0  34036  287.47 0855.34
2009/04/23 08:44:00.8      33   -205    -61    208    217 170.7 -16.4  34036  287.49 0855.34
2009/04/23 08:44:00.9      24   -198    -47    200    206 172.9 -13.4  34042  287.57 0855.34
2009/04/23 08:44:01.0      27   -194    -44    197    202 171.9 -12.6  34044  287.60 0855.34
2009/04/23 08:44:01.1      28   -182    -40    185    190 171.3 -12.4  34042  287.57 0855.34
2009/04/23 08:44:01.2      24   -167    -38    169    174 171.5 -12.9  34040  287.55 0855.34
2009/04/23 08:44:01.3      17   -167    -30    168    171 174.0 -10.1  34038  287.52 0855.34
2009/04/23 08:44:01.4      17   -165    -30    166    169 173.8 -10.5  34038  287.52 0855.34
2009/04/23 08:44:01.5      23   -176    -23    178    180 172.4  -7.5  34036  287.49 0855.34
2009/04/23 08:44:01.6      45   -177    -20    183    185 165.7  -6.2  34038  287.50 0855.34
2009/04/23 08:44:01.7      53   -187    -15    195    196 164.2  -4.6  34042  287.57 0855.34
2009/04/23 08:44:01.8      39   -179      5    184    185 167.7   1.8  34040  287.55 0855.34
2009/04/23 08:44:01.9      18   -193    -15    194    195 174.4  -4.6  34040  287.55 0855.34
2009/04/23 08:44:02.0      23   -186     -3    188    189 172.7  -1.2  34042  287.59 0855.34
2009/04/23 08:44:02.1       0   -166     -6    167    168 180.2  -2.3  34040  287.54 0855.34
2009/04/23 08:44:02.2      24   -139     -7    142    143 170.2  -3.1  34040  287.54 0855.34
2009/04/23 08:44:02.3      30   -144     46    148    155 168.0  17.3  34038  287.52 0855.34
2009/04/23 08:44:02.4      31   -130     31    134    138 166.2  13.1  34038  287.52 0855.34
2009/04/23 08:44:02.5       9   -117      3    118    119 175.6   1.8  34040  287.54 0855.34
2009/04/23 08:44:02.6      12   -125      9    126    127 174.2   4.4  34040  287.54 0855.34
2009/04/23 08:44:02.7      12   -125      9    126    127 174.2   4.4  34040  287.54 0855.34
2009/04/23 08:44:02.8      -2   -145     16    146    147 181.0   6.5  34042  287.57 0855.34
2009/04/23 08:44:02.9      -3   -148      9    149    150 181.4   3.8  34040  287.55 0855.34
2009/04/23 08:44:03.0      23   -153      0    155    156 171.1  -0.3  34034  287.45 0855.34
2009/04/23 08:44:03.1      12   -185     10    186    187 176.2   3.3  34042  287.59 0855.34
2009/04/23 08:44:03.2       3   -188     19    189    190 178.9   5.9  34044  287.60 0855.34
2009/04/23 08:44:03.3      -8   -178     21    179    181 182.7   6.9  34044  287.60 0855.34
2009/04/23 08:44:03.4      -8   -164     20    165    167 182.9   7.2  34044  287.60 0855.34
2009/04/23 08:44:03.5     -16   -153     13    154    155 186.2   4.9  34042  287.57 0855.34
2009/04/23 08:44:03.6     -19   -148     28    150    153 187.6  10.6  34044  287.60 0855.34
2009/04/23 08:44:03.7     -16   -148     44    149    156 186.3  16.6  34042  287.59 0855.34
2009/04/23 08:44:03.8       0   -133     67    134    149 180.4  28.2  34034  287.45 0855.34
2009/04/23 08:44:03.9     -20   -112     82    114    140 190.2  39.5  34036  287.49 0855.34
2009/04/23 08:44:04.0     -17   -132    110    134    173 187.6  43.7  34036  287.47 0855.34
2009/04/23 08:44:04.1      41   -152    112    158    193 164.8  38.8  34038  287.52 0855.34
2009/04/23 08:44:04.2     -14   -141    107    142    177 185.8  40.7  34038  287.52 0855.34
2009/04/23 08:44:04.3     -13   -123     95    124    156 186.2  41.6  34040  287.54 0855.34
2009/04/23 08:44:04.4      10   -132    102    133    167 175.6  41.7  34038  287.50 0855.34
2009/04/23 08:44:04.5      20   -145     88    147    171 172.0  33.7  34040  287.54 0855.34
2009/04/23 08:44:04.6      26   -152    107    155    188 170.2  38.0  34038  287.52 0855.34
2009/04/23 08:44:04.7      -2   -171     90    172    194 180.9  30.1  34040  287.54 0855.34
2009/04/23 08:44:04.8     -13   -173     73    174    188 184.5  23.8  34044  287.60 0855.34
2009/04/23 08:44:04.9     -51   -162     50    170    178 197.6  16.6  34040  287.55 0855.34
2009/04/23 08:44:05.0     -65   -159     48    172    179 202.3  15.6  34042  287.57 0855.34
2009/04/23 08:44:05.1     -68   -155     43    170    176 203.8  14.3  34042  287.57 0855.34
2009/04/23 08:44:05.2     -48   -119     67    129    145 201.9  29.8  34042  287.59 0855.34
2009/04/23 08:44:05.3     -35   -100     49    107    117 199.6  26.2  34040  287.55 0855.34
2009/04/23 08:44:05.4       3    -45     37     46     59 175.6  43.7  34044  287.60 0855.34
2009/04/23 08:44:05.5      40    -64     66     76    100 147.5  45.8  34038  287.52 0855.34
2009/04/23 08:44:05.6      23    -68     57     73     92 160.8  42.7  34042  287.57 0855.35
2009/04/23 08:44:05.7      14    -72      2     74     75 168.5   1.8  34040  287.55 0855.35
2009/04/23 08:44:05.8      26    -59    -24     65     69 155.5 -24.4  34042  287.57 0855.35
2009/04/23 08:44:05.9      50    -47    -31     69     75 133.1 -31.5  34038  287.52 0855.35
2009/04/23 08:44:06.0      71    -55    -25     90     94 127.8 -15.5  34040  287.54 0855.35
2009/04/23 08:44:06.1      77    -49      6     92     93 122.4   3.8  34038  287.52 0855.35
2009/04/23 08:44:06.2      10    -52    -97     54    111 168.4 -73.2  34040  287.54 0855.35
2009/04/23 08:44:06.3     107   -159    -59    192    200 145.9 -22.1  34038  287.52 0855.35
2009/04/23 08:44:06.4     122   -222     -9    254    255 151.3  -2.2  34038  287.51 0855.35
2009/04/23 08:44:06.5     120   -230    -30    260    262 152.4  -6.7  34040  287.55 0855.35
2009/04/23 08:44:06.6     114   -217    -49    246    251 152.4 -11.3  34040  287.55 0855.35
2009/04/23 08:44:06.7     161   -151    -48    222    228 133.2 -12.2  34042  287.59 0855.35
2009/04/23 08:44:06.8     130   -140    -33    192    195 137.0  -9.8  34042  287.59 0855.35
2009/04/23 08:44:06.9     159   -145    -70    216    227 132.4 -23.6  34040  287.55 0855.35
2009/04/23 08:44:07.0     193   -159    -94    251    268 129.5 -25.9  34042  287.58 0855.35
2009/04/23 08:44:07.1     119   -157    -75    198    211 142.8 -25.9  34040  287.55 0855.35
2009/04/23 08:44:07.2     127   -192    -81    231    244 146.4 -24.4  34040  287.53 0855.35
2009/04/23 08:44:07.4     114   -210    -42    240    244 151.5 -10.1  34040  287.55 0855.35
2009/04/23 08:44:07.5      89   -223    -17    241    242 158.2  -4.1  34038  287.51 0855.35
2009/04/23 08:44:07.6     126   -246     65    277    285 152.8  13.2  34034  287.44 0855.35
2009/04/23 08:44:07.7     -45   -326    117    330    351 188.0  19.5  34038  287.51 0855.35
2009/04/23 08:44:07.8      13   -290    115    291    312 177.3  22.8  34036  287.48 0855.35
2009/04/23 08:44:07.9      16   -276    -30    277    279 176.5  -6.2  34036  287.48 0855.35
2009/04/23 08:44:08.0       3   -490   -185    491    524 179.6 -25.9  34034  287.44 0855.35
2009/04/23 08:44:08.1      52   -403   -188    407    448 172.6 -30.9  34034  287.45 0855.35
2009/04/23 08:44:08.2    -143   -290   -164    324    363 206.3 -33.3  34036  287.47 0855.35
2009/04/23 08:44:08.3    -172   -331   -161    374    407 207.5 -29.2  34040  287.54 0855.35
2009/04/23 08:44:08.4     -94   -340   -128    353    375 195.5 -25.2  34036  287.47 0855.35
2009/04/23 08:44:08.5    -130   -307   -109    334    351 202.9 -23.2  34038  287.51 0855.35
2009/04/23 08:44:08.6    -170   -291   -101    338    352 210.3 -21.5  34032  287.39 0855.35
2009/04/23 08:44:08.7    -121   -283   -102    308    324 203.2 -23.6  34030  287.36 0855.35
2009/04/23 08:44:08.8     -42   -272   -101    276    293 188.9 -25.3  34034  287.43 0855.35
2009/04/23 08:44:08.9     -91   -306   -102    320    336 196.5 -17.7  34036  287.47 0855.35
2009/04/23 08:44:09.0     -61   -289   -101    296    312 192.0 -23.8  34032  287.39 0855.35
2009/04/23 08:44:09.1     -29   -286    -79    288    299 185.8 -15.5  34030  287.38 0855.35
2009/04/23 08:44:09.2    -105   -261    -77    282    293 201.9 -15.4  34034  287.43 0855.35
2009/04/23 08:44:09.3     -35   -186    -59    190    200 190.9 -17.3  34030  287.37 0855.35
2009/04/23 08:44:09.4     -15   -240     57    241    248 183.6  13.5  34034  287.43 0855.35
2009/04/23 08:44:09.5      20   -309     40    310    313 176.2   7.4  34028  287.33 0855.35
2009/04/23 08:44:09.6      94   -350    128    363    384 164.9  20.1  34032  287.42 0855.35
2009/04/23 08:44:09.7      97   -362    160    375    407 165.0  24.5  34032  287.40 0855.35
2009/04/23 08:44:09.8     111   -347    106    365    381 162.2  16.3  34032  287.39 0855.35
2009/04/23 08:44:09.9     150   -364    118    394    412 157.5  16.7  34032  287.41 0855.35
2009/04/23 08:44:10.0     147   -298    111    333    352 153.7  18.5  34028  287.35 0855.35
2009/04/23 08:44:10.1     137   -165    126    215    249 140.4  33.1  34032  287.39 0855.35
2009/04/23 08:44:10.2     -12   -267     96    268    284 182.6  20.7  34032  287.41 0855.35
2009/04/23 08:44:10.3     -74   -363     73    371    379 191.6  11.1  34032  287.40 0855.35
2009/04/23 08:44:10.4       4   -305     65    306    313 179.1  12.0  34030  287.36 0855.35
2009/04/23 08:44:10.5      96   -274    119    291    314 160.6  23.6  34030  287.38 0855.35
2009/04/23 08:44:10.6     146   -285    171    321    363 152.8  30.3  34034  287.44 0855.35
2009/04/23 08:44:10.7     131   -323     67    349    356 157.8  11.0  34032  287.39 0855.35
2009/04/23 08:44:10.8     119   -327     98    349    363 160.0  15.8  34032  287.40 0855.35
2009/04/23 08:44:10.9     142   -334    107    363    379 157.0  16.5  34032  287.42 0855.35
2009/04/23 08:44:11.0     178   -271    110    325    344 146.6  18.8  34032  287.42 0855.35
2009/04/23 08:44:11.1     164   -215     83    271    284 142.6  17.1  34032  287.39 0855.35
2009/04/23 08:44:11.2     167   -195     54    257    263 139.4  12.0  34034  287.43 0855.35
2009/04/23 08:44:11.3     106   -266     50    287    292 158.2   9.9  34036  287.46 0855.35
2009/04/23 08:44:11.4     126   -287     67    314    322 156.3  12.2  34034  287.44 0855.35
2009/04/23 08:44:11.5      49   -255     -5    260    261 169.1  -1.3  34036  287.48 0855.35
2009/04/23 08:44:11.6      98   -332    -19    347    348 163.5  -3.1  34034  287.44 0855.34
2009/04/23 08:44:11.7      94   -353    -20    366    367 165.0  -3.2  34034  287.45 0855.34
2009/04/23 08:44:11.8     192   -449    -10    489    490 156.8  -1.3  34032  287.41 0855.34
2009/04/23 08:44:11.9     301   -409      2    509    510 143.6   0.3  34036  287.46 0855.34
2009/04/23 08:44:12.0     257   -298     65    394    400 139.2   9.4  34028  287.35 0855.34
2009/04/23 08:44:12.1     171   -317     69    361    368 151.7  10.8  34032  287.39 0855.34
2009/04/23 08:44:12.2     120   -316     80    339    349 159.2  13.3  34030  287.37 0855.34
2009/04/23 08:44:12.3     186   -349     57    396    401 151.9   8.2  34032  287.42 0855.34
2009/04/23 08:44:12.4     132   -333     35    359    361 158.3   5.7  34032  287.40 0855.34
2009/04/23 08:44:12.5     123   -361     46    382    385 161.2   6.9  34030  287.37 0855.34
2009/04/23 08:44:12.6     247   -298     68    388    395 140.4  10.0  34030  287.37 0855.34
2009/04/23 08:44:12.7     250   -261    119    362    382 136.2  18.2  34032  287.42 0855.34
2009/04/23 08:44:12.8     291   -354     89    459    468 140.5  11.0  34030  287.37 0855.34
2009/04/23 08:44:12.9     293   -407     28    502    503 144.3   3.3  34032  287.39 0855.34
2009/04/23 08:44:13.0     301   -460      6    550    551 146.8   0.7  34032  287.42 0855.34
2009/04/23 08:44:13.1     215   -456    -71    505    511 154.7  -8.0  34032  287.39 0855.34
2009/04/23 08:44:13.2     172   -361   -111    400    416 154.5 -15.5  34028  287.35 0855.34
2009/04/23 08:44:13.3     193   -278   -109    339    357 145.3 -17.9  34032  287.40 0855.34
2009/04/23 08:44:13.4     160   -227    -36    278    281 144.8  -7.5  34030  287.38 0855.34
2009/04/23 08:44:13.5      81   -278    -47    290    294 163.7  -9.3  34032  287.39 0855.34
2009/04/23 08:44:13.6     125   -348     11    370    371 160.2   1.8  34028  287.35 0855.34
2009/04/23 08:44:13.7     119   -328    -32    350    352 160.0  -5.3  34030  287.37 0855.34
2009/04/23 08:44:13.8     205   -358      5    413    414 150.2   0.8  34032  287.40 0855.34
2009/04/23 08:44:13.9     103   -358     -7    373    374 164.0  -1.1  34032  287.40 0855.34
2009/04/23 08:44:14.0     102   -349     45    364    367 163.7   7.1  34032  287.39 0855.34
2009/04/23 08:44:14.1     166   -381    -11    416    417 156.4  -1.6  34028  287.35 0855.34
2009/04/23 08:44:14.2     122   -367    -59    387    392 161.6  -8.7  34028  287.35 0855.34
2009/04/23 08:44:14.3      60   -448    -10    453    454 172.3  -1.4  34032  287.40 0855.34
2009/04/23 08:44:14.4      50   -442    -80    445    453 173.4 -10.3  34032  287.41 0855.34
2009/04/23 08:44:14.5      60   -455    -73    460    466 172.4  -9.1  34028  287.33 0855.34
2009/04/23 08:44:14.6      -5   -362   -128    363    386 180.8 -19.5  34034  287.44 0855.34
2009/04/23 08:44:14.7      78   -475   -118    482    497 170.7 -13.8  34030  287.37 0855.34
2009/04/23 08:44:14.8     166   -547    -62    572    576 163.1  -6.2  34036  287.46 0855.34
2009/04/23 08:44:14.9      98   -542   -162    551    575 169.7 -16.4  34032  287.42 0855.34
2009/04/23 08:44:15.0      37   -561   -144    563    582 176.2 -14.4  34034  287.44 0855.34
2009/04/23 08:44:15.1      77   -617    -81    622    628 172.8  -7.5  34032  287.40 0855.34
2009/04/23 08:44:15.2      -1   -588   -100    589    598 180.1  -9.7  34036  287.48 0855.34
2009/04/23 08:44:15.3      65   -599    -87    603    610 173.8  -8.2  34032  287.41 0855.34
2009/04/23 08:44:15.4     -45   -536    -84    539    546 184.9  -8.9  34034  287.45 0855.34
2009/04/23 08:44:15.5     -65   -542    -99    546    555 186.9 -10.4  34032  287.42 0855.34
2009/04/23 08:44:15.6     -76   -638   -172    643    666 186.9 -15.0  34034  287.45 0855.34
2009/04/23 08:44:15.7     -84   -647   -128    653    666 187.5 -11.1  34036  287.48 0855.34
2009/04/23 08:44:15.8    -100   -590   -126    599    613 189.7 -11.9  34036  287.46 0855.34
2009/04/23 08:44:15.9    -168   -657   -233    679    719 194.4 -19.0  34032  287.41 0855.34
2009/04/23 08:44:16.0    -186   -536   -165    568    591 199.2 -21.0  34024  287.26 0855.34
2009/04/23 08:44:16.1    -156   -482   -206    507    547 197.9 -27.9  34028  287.35 0855.34
2009/04/23 08:44:16.2    -178   -455   -148    489    510 201.4 -21.7  34032  287.42 0855.34
2009/04/23 08:44:16.3    -209   -491   -136    534    552 203.1 -14.3  34030  287.37 0855.34
2009/04/23 08:44:16.4     -77   -452   -157    459    485 189.8 -23.9  34030  287.37 0855.34
2009/04/23 08:44:16.5     -45   -556   -199    558    593 184.7 -19.7  34030  287.36 0855.34
2009/04/23 08:44:16.6    -142   -579   -142    597    614 193.8 -13.4  34030  287.36 0855.34
2009/04/23 08:44:16.7    -207   -542   -118    581    593 200.9 -11.5  34030  287.36 0855.34
2009/04/23 08:44:16.8    -130   -389   -146    411    437 198.5 -19.6  34030  287.36 0855.34
2009/04/23 08:44:16.9      -4   -360   -152    361    391 180.7 -28.6  34032  287.39 0855.34
2009/04/23 08:44:17.0     139   -371    -15    397    398 159.4  -2.2  34032  287.42 0855.34
2009/04/23 08:44:17.1     137   -459    -81    479    486 163.4  -9.6  34032  287.39 0855.34
2009/04/23 08:44:17.2      34   -470   -131    472    490 175.8 -15.5  34032  287.39 0855.34
2009/04/23 08:44:17.3     -14   -452   -156    453    480 181.9 -19.1  34032  287.42 0855.34
2009/04/23 08:44:17.4      24   -520   -143    521    541 177.3 -15.4  34034  287.45 0855.34
2009/04/23 08:44:17.5      79   -581   -172    587    612 172.2 -16.4  34036  287.46 0855.34
2009/04/23 08:44:17.6     130   -660   -191    673    699 168.8 -20.5  34036  287.48 0855.35
2009/04/23 08:44:17.7      88   -743   -210    749    777 173.2 -20.3  34034  287.45 0855.35
2009/04/23 08:44:17.8      97   -661   -223    669    705 171.6 -23.6  34030  287.38
    134   -716   -187    729    753 169.4 -14.4  34032  287.40
    105   -616   -194    625    655 170.3 -17.3  34028  287.34
    108   -573   -185    584    613 169.3 -17.6  34030  287.36
     80   -567   -204    573    609 171.9 -19.6  34026  287.29
     13   -621   -249    622    669 178.8 -27.4  34026  287.32
    196   -610   -204    641    672 162.2 -22.6  34032  287.40
    250   -569     30    622    623 156.3   2.8  34032  287.40
    262   -501     37    566    568 152.4   3.8  34026  287.32
    260   -527     73    588    593 153.7   7.1  34032  287.39
    221   -504      6    551    552 156.3   0.7  34028  287.33
    281   -477    -33    554    555 149.5  -3.5  34028  287.35
    137   -525    -75    543    549 165.3  -7.9  34028  287.33
    127   -542    -30    557    558 166.7  -3.2  34030  287.38
    158   -548   -109    571    582 163.9 -10.8  34030  287.38
    190   -569   -129    601    615 161.5 -12.2  34028  287.34
    147   -544   -156    564    586 164.8 -15.5  34028  287.34
    148   -566   -112    586    597 165.3 -10.8  34034  287.43
    133   -493   -127    511    527 164.9 -14.0  34028  287.35
    136   -462   -132    482    500 163.6 -15.4  34026  287.32
    207   -462    -86    507    515 155.9  -9.7  34030  287.37
    201   -441    -83    485    493 155.4  -9.7  34030  287.36
    186   -435    -79    474    481 156.8  -9.5  34032  287.39
    168   -421   -113    454    468 158.2 -14.1  34030  287.38
    11 0855.35
2009/04/23 08:44:20.8    -126    514    530 158.1 -13.8  34042  287.59
    260   -528  0855.35
2009/04/23 08:44:22.3 .7 -12.4  34036  287.48
    116   -189     52    222    229 148 0855.34
2009/04/23 08:44:23.4 4034  287.43
    291   -339    108    448    461 139.4  13.6   0855.33
2009/04/23 08:44:23.5 4036  287.46
    213   -366    105    424    437 149.8  13.9   0855.33
2009/04/23 08:44:23.6 4038  287.52
     85   -316     39    328    331 164.9   6.9   0855.33
2009/04/23 08:44:23.7 4034  287.44
     35   -221    -49    224    230 170.9 -12.4  3 0855.33
2009/04/23 08:44:24.0 32  287.40
    264   -318     70    414    420 140.4   9.7  3404 0855.33
2009/04/23 08:44:24.3  287.55
     88   -433    -19    442    443 168.5  -2.5  34036  0855.33
2009/04/23 08:44:24.9      77   -159   -140    177    225 154.1 -47.1  34036  287.47 0855.33
2009/04/23 08:44:25.0     125   -103   -139    162    213 129.5 -49.5  34038  287.50 0855.33
2009/04/23 08:44:25.1     157   -281    -92    322    334 150.8 -20.7  34042  287.56 0855.33
2009/04/23 08:44:25.2      61   -562    -32    566    567 173.8  -3.3  34036  287.48 0855.33
2009/04/23 08:44:25.3       8   -552    -12    553    554 179.1  -1.3  34040  287.55 0855.33
2009/04/23 08:44:25.4     -49   -572     21    575    576 185.0   2.1  34036  287.48 0855.33
2009/04/23 08:44:25.5     -57   -610    -34    613    614 185.4  -3.2  34040  287.53 0855.33
2009/04/23 08:44:25.6       1   -606   -108    607    617 179.9 -10.1  34036  287.49 0855.33
2009/04/23 08:44:25.7    -111   -523   -214    535    576 192.1 -27.4  34036  287.48 0855.33
2009/04/23 08:44:25.8    -157   -525   -189    549    581 196.7 -19.1  34040  287.53 0855.33
2009/04/23 08:44:25.9      30   -532   -106    533    544 176.8 -11.3  34036  287.48 0855.33
2009/04/23 08:44:26.0      24   -527   -124    528    543 177.3 -13.3  34036  287.47 0855.33
2009/04/23 08:44:26.1     -20   -420   -149    421    447 182.8 -19.6  34040  287.55 0855.33
2009/04/23 08:44:26.2      12   -509   -133    510    528 178.6 -14.6  34036  287.48 0855.33
2009/04/23 08:44:26.3      23   -520   -105    521    532 177.4 -11.5  34038  287.52 0855.33
2009/04/23 08:44:26.4      54   -444   -136    448    469 173.0 -16.9  34038  287.50 0855.33
2009/04/23 08:44:26.5     105   -404    -95    418    429 165.3 -12.9  34042  287.57 0855.33
2009/04/23 08:44:26.6     244   -401    -68    470    475 148.6  -8.3  34040  287.53 0855.33
2009/04/23 08:44:26.7     236   -396   -115    461    476 149.2 -14.1  34044  287.61 0855.33
2009/04/23 08:44:26.8     202   -329   -136    387    411 148.5 -19.4  34042  287.58 0855.33
2009/04/23 08:44:26.9     193   -314   -132    369    392 148.4 -19.7  34048  287.66 0855.33
2009/04/23 08:44:27.0     204   -384    -64    435    440 152.0  -8.4  34048  287.68 0855.33
2009/04/23 08:44:27.1     219   -447   -101    498    509 153.9 -11.5  34048  287.66 0855.33
2009/04/23 08:44:27.2     341   -416    -10    539    540 140.7  -1.2  34042  287.59 0855.33
2009/04/23 08:44:27.3     289   -348    -20    453    454 140.2  -2.6  34038  287.52 0855.32
2009/04/23 08:44:27.4     268   -323    -32    421    423 140.3  -4.5  34044  287.62 0855.32
2009/04/23 08:44:27.5     280   -354    -40    452    454 141.6  -5.1  34038  287.50 0855.32
2009/04/23 08:44:27.6     236   -386    -33    453    455 148.6  -4.2  34044  287.60 0855.32
2009/04/23 08:44:27.7     215   -433      6    484    485 153.6   0.7  34042  287.56 0855.32
2009/04/23 08:44:27.8     159   -476     44    503    506 161.5   5.1  34048  287.68 0855.32
2009/04/23 08:44:27.9     210   -442     54    490    494 154.5   6.4  34046  287.63 0855.32
2009/04/23 08:44:28.0     206   -465     71    509    515 156.0   8.0  34054  287.78 0855.32
2009/04/23 08:44:28.1     255   -492     64    555    559 152.6   6.6  34048  287.69 0855.32
2009/04/23 08:44:28.2     297   -524     -5    603    604 150.5  -0.5  34046  287.65 0855.32
2009/04/23 08:44:28.3     212   -435     17    484    485 154.0   2.1  34042  287.56 0855.31
2009/04/23 08:44:28.4     136   -330    -14    358    359 157.5  -2.2  34042  287.57 0855.31
2009/04/23 08:44:28.5     135   -289    -61    320    326 155.0 -10.9  34040  287.55 0855.31
2009/04/23 08:44:28.6     119   -311    -71    334    342 159.0 -12.0  34038  287.52 0855.31
2009/04/23 08:44:28.7     206   -289     13    355    356 144.5   2.2  34042  287.56 0855.31
2009/04/23 08:44:28.8     218   -341     -9    405    406 147.4  -1.4  34042  287.58 0855.31
2009/04/23 08:44:28.9     160   -335    -34    372    374 154.4  -5.3  34042  287.56 0855.31
2009/04/23 08:44:29.0     217   -332    -18    397    398 146.8  -2.6  34042  287.57 0855.31
2009/04/23 08:44:29.1     203   -369     40    422    424 151.1   5.5  34044  287.60 0855.31
2009/04/23 08:44:29.2     250   -254     71    357    365 135.4  11.3  34048  287.67 0855.31
2009/04/23 08:44:29.3     304   -210     20    370    371 124.6   3.2  34048  287.69 0855.31
2009/04/23 08:44:29.4     221   -236     24    324    325 136.8   4.4  34038  287.51 0855.31
2009/04/23 08:44:29.5      29   -360     99    362    376 175.3  15.3  34046  287.64 0855.31
2009/04/23 08:44:29.6      42   -388    101    391    404 173.8  14.5  34040  287.54 0855.31
2009/04/23 08:44:29.7      55   -403     20    407    408 172.2   2.9  34042  287.58 0855.31
2009/04/23 08:44:29.8      36   -362    -48    364    368 174.3  -7.6  34042  287.59 0855.31
2009/04/23 08:44:29.9     140   -307     25    338    339 155.4   4.3  34038  287.51 0855.31
2009/04/23 08:44:30.0     131   -277    -16    307    308 154.7  -3.1  34044  287.60 0855.31
2009/04/23 08:44:30.1      63   -288   -108    295    314 167.6 -25.4  34044  287.61 0855.31
2009/04/23 08:44:30.2      37   -300    -48    303    307 172.9  -9.0  34040  287.53 0855.31
2009/04/23 08:44:30.3     125   -246    -32    277    279 153.0  -6.7  34036  287.48 0855.32
2009/04/23 08:44:30.4     192   -217    -44    291    295 138.5  -8.6  34052  287.73 0855.32
2009/04/23 08:44:30.5     216   -278     -5    353    354 142.2  -0.9  34050  287.72 0855.32
2009/04/23 08:44:30.6     268   -313    -45    413    416 139.5  -6.2  34050  287.70 0855.32
2009/04/23 08:44:30.7     166   -280   -145    326    356 149.2 -29.7  34048  287.69 0855.32
2009/04/23 08:44:30.8     158   -190   -117    248    274 140.3 -31.5  34048  287.68 0855.32
2009/04/23 08:44:30.9     154   -154    -82    219    233 135.0 -25.4  34048  287.67 0855.32
2009/04/23 08:44:31.0     184   -152    -77    239    251 129.5 -23.3  34050  287.71 0855.32
2009/04/23 08:44:31.1     235   -129    -82    269    281 118.9 -21.8  34052  287.73 0855.32
2009/04/23 08:44:31.2     186   -201    -91    275    290 137.2 -18.3  34046  287.65 0855.32
2009/04/23 08:44:31.3     115   -193    -87    225    241 149.3 -26.5  34046  287.63 0855.32
2009/04/23 08:44:31.4     168   -129   -156    212    263 127.5 -44.1  34046  287.63 0855.32
2009/04/23 08:44:31.5     115   -140     10    182    183 140.6   3.1  34050  287.70 0855.32
2009/04/23 08:44:31.6     162   -216     40    271    275 143.1   8.5  34048  287.68 0855.32
2009/04/23 08:44:31.7      64   -282     57    290    296 167.1  11.1  34052  287.75 0855.32
2009/04/23 08:44:31.8     132   -130     41    186    191 134.6  12.6  34044  287.62 0855.32
2009/04/23 08:44:31.9     142   -132     64    195    206 132.9  18.1  34048  287.69 0855.32
2009/04/23 08:44:32.0     208   -132     12    247    248 122.5   2.9  34052  287.75 0855.32
2009/04/23 08:44:32.1     271   -161     -8    316    317 120.7  -1.6  34052  287.73 0855.32
2009/04/23 08:44:32.2     243   -115     33    269    272 115.3   7.1  34052  287.73 0855.32
2009/04/23 08:44:32.3     245   -183     14    306    307 126.8   2.8  34050  287.70 0855.31
2009/04/23 08:44:32.4     265   -164     -3    312    313 121.8  -0.7  34050  287.70 0855.31
2009/04/23 08:44:32.5     175    -58     19    185    187 108.4   6.1  34046  287.64 0855.31
2009/04/23 08:44:32.6      71   -101     55    124    135 144.8  25.2  34050  287.70 0855.31
2009/04/23 08:44:32.7      69   -154     43    169    175 155.9  14.3  34052  287.74 0855.31
2009/04/23 08:44:32.8      48   -101     41    112    119 154.5  20.9  34050  287.70 0855.31
2009/04/23 08:44:32.9      53    -52     32     75     81 134.1  24.1  34050  287.70 0855.31
2009/04/23 08:44:33.0       3    -51     18     52     56 176.4  19.4  34052  287.76 0855.31
2009/04/23 08:44:33.1      13    -31      6     34     35 156.4  11.1  34052  287.76 0855.31
2009/04/23 08:44:33.2      24    -29      0     38     39 140.4  -1.3  34052  287.76 0855.31
2009/04/23 08:44:33.3      15    -27     22     31     38 151.0  37.6  34052  287.74 0855.31
2009/04/23 08:44:33.4      33     13      7     36     37  68.3  11.1  34052  287.76 0855.31
2009/04/23 08:44:33.5      15     23     41     28     49  32.5  62.6  34050  287.72 0855.31
2009/04/23 08:44:33.6     -10     22     37     25     44 336.4  63.6  34052  287.76 0855.31
2009/04/23 08:44:33.7      54      0     60     55     81  90.0  52.7  34050  287.70 0855.31
2009/04/23 08:44:33.8      59    -12     54     61     81 101.4  46.4  34050  287.72 0855.31
2009/04/23 08:44:33.9      67    -18     59     70     91 105.0  44.3  34052  287.76 0855.31
2009/04/23 08:44:34.0      47      0    -17     48     52  90.0 -19.7  34052  287.74 0855.31
2009/04/23 08:44:34.1      47     30    -14     56     58  57.6 -14.5  34052  287.76 0855.31
2009/04/23 08:44:34.2      29     36      8     47     48  38.7  10.1  34052  287.76 0855.31
2009/04/23 08:44:34.3      25     17     18     31     35  55.8  35.5  34054  287.79 0855.31
2009/04/23 08:44:34.4       9     16      6     19     21  29.0  19.2  34054  287.77 0855.31
2009/04/23 08:44:34.5      25     58     32     64     71  23.6  27.3  34052  287.76 0855.31
2009/04/23 08:44:34.6      44      7     77     45     89  80.3  66.8  34054  287.77 0855.31
2009/04/23 08:44:34.7       3     42     44     43     61   4.5  50.1  34054  287.77 0855.31
2009/04/23 08:44:34.8      -1     22     32     23     39 357.3  60.5  34054  287.77 0855.31
2009/04/23 08:44:35.0       3      8     52      9     52  25.4  90.0  34054  287.79 0855.31
2009/04/23 08:44:35.1     -13     -4     60     14     61 251.4  86.9  34054  287.79 0855.31
2009/04/23 08:44:35.2      -6      2     53      7     53 288.2  90.0  34054  287.79 0855.31
2009/04/23 08:44:35.3      29     -8     58     31     65 105.1  68.9  34054  287.77 0855.31
2009/04/23 08:44:35.4      79    -42     38     90     97 118.0  24.1  34054  287.77 0855.31
2009/04/23 08:44:35.5     119     10    -19    120    122  85.2  -9.3  34052  287.76 0855.31
2009/04/23 08:44:35.6      82     -6      4     83     84  94.8   2.8  34052  287.76 0855.31
2009/04/23 08:44:35.7      97    -57    -32    113    118 120.7 -16.0  34052  287.76 0855.31
2009/04/23 08:44:35.8      68    -65     33     95    101 133.6  19.4  34052  287.74 0855.31
2009/04/23 08:44:35.9      40    -40     54     57     78 134.9  48.5  34054  287.79 0855.31
2009/04/23 08:44:36.0      45   -173     -5    179    180 165.3  -1.6  34056  287.81 0855.31
2009/04/23 08:44:36.1      95   -138    -23    168    170 145.3  -8.0  34054  287.79 0855.31
2009/04/23 08:44:36.2      70   -175    -64    189    200 158.2 -18.9  34054  287.79 0855.31
2009/04/23 08:44:36.3     137   -129    -32    189    192 133.1  -9.8  34056  287.81 0855.31
2009/04/23 08:44:36.4     112    -95    -62    148    160 130.4 -28.5  34056  287.81 0855.30
2009/04/23 08:44:36.5     119    -57    -39    133    138 115.8 -21.2  34054  287.77 0855.30
2009/04/23 08:44:36.6     116    -52    -55    128    139 114.0 -29.0  34056  287.81 0855.30
2009/04/23 08:44:36.7     119    -24     -4    122    123 101.5  -2.2  34052  287.76 0855.30
2009/04/23 08:44:36.8     118     -8     12    119    120  94.3   5.9  34052  287.76 0855.30
2009/04/23 08:44:36.9      79     -4     57     80     98  93.5  39.5  34054  287.79 0855.30
2009/04/23 08:44:37.0      71    -18     83     74    111 104.2  53.7  34054  287.77 0855.30
2009/04/23 08:44:37.1     123    -29     85    127    152 103.3  36.5  34054  287.77 0855.30
2009/04/23 08:44:37.2      51    -25     88     57    104 116.2  64.6  34058  287.84 0855.30
2009/04/23 08:44:37.3      41    -40     65     58     87 134.9  53.3  34054  287.77 0855.30
2009/04/23 08:44:37.4       2      0     51      3     51  90.0  90.0  34054  287.77 0855.30
2009/04/23 08:44:37.5       0     -9     49     10     50 179.1  89.1  34054  287.79 0855.30
2009/04/23 08:44:37.6       9     -5     36     11     37 118.9  80.7  34058  287.84 0855.30
2009/04/23 08:44:37.7      -1    -39     47     40     61 182.6  55.4  34052  287.76 0855.30
2009/04/23 08:44:37.8      18    -28     62     34     70 147.4  68.8  34054  287.77 0855.30
2009/04/23 08:44:37.9      28      3     48     29     56  82.1  64.7  34054  287.77 0855.30
2009/04/23 08:44:38.0     115    -53     91    127    156 114.8  39.1  34054  287.77 0855.30
2009/04/23 08:44:38.1     137    -64    108    152    186 115.2  39.3  34054  287.77 0855.30
2009/04/23 08:44:38.2     130    -43    118    138    181 108.6  45.1  34050  287.70 0855.30
2009/04/23 08:44:38.3     137    -15    128    138    188  96.6  47.9  34048  287.69 0855.30
2009/04/23 08:44:38.4     167     -5    154    168    227  91.9  47.7  34052  287.74 0855.29
2009/04/23 08:44:38.5     113    -12    137    114    178  96.1  56.1  34058  287.84 0855.29
2009/04/23 08:44:38.6      67    -22     98     71    121 108.2  60.5  34058  287.86 0855.29
2009/04/23 08:44:38.7     140    -16    141    141    199  96.6  50.1  34050  287.72 0855.29
2009/04/23 08:44:38.8     104     -4    108    105    150  92.6  50.2  34050  287.72 0855.29
2009/04/23 08:44:38.9      42    -50     68     66     94 139.5  49.7  34054  287.79 0855.29
2009/04/23 08:44:39.0      64    -26    102     70    123 111.8  62.6  34056  287.82 0855.29
2009/04/23 08:44:39.1      28     -3     69     29     74  97.9  76.1  34056  287.82 0855.29
2009/04/23 08:44:39.2      24      9     58     26     63  68.3  75.0  34054  287.77 0855.29
2009/04/23 08:44:39.3     -13      6     53     15     55 295.3  83.9  34054  287.79 0855.29
2009/04/23 08:44:39.4       7      7     73     11     73  45.0  90.0  34056  287.81 0855.29
2009/04/23 08:44:39.5       6    -56     78     57     96 173.8  60.5  34056  287.82 0855.29
2009/04/23 08:44:39.6      94    -44     87    105    136 115.3  43.8  34056  287.81 0855.29
2009/04/23 08:44:39.7      68      0     93     69    115  90.0  60.0  34058  287.84 0855.29
2009/04/23 08:44:39.8     -23    -17     59     29     65 234.0  71.9  34056  287.82 0855.29
2009/04/23 08:44:39.9      53    -33     74     63     97 122.5  55.4  34058  287.84 0855.29
2009/04/23 08:44:40.0      54     -6     67     55     86  97.0  56.4  34058  287.84 0855.29
2009/04/23 08:44:40.1       1    -12     63     13     64 172.0  89.0  34060  287.87 0855.29
2009/04/23 08:44:40.2      44     14     78     47     91  71.4  66.2  34058  287.86 0855.29
2009/04/23 08:44:40.3      46    -15     64     49     80 108.4  59.0  34058  287.86 0855.29
2009/04/23 08:44:40.4      13    -16     66     21     69 140.4  80.7  34058  287.84 0855.28
2009/04/23 08:44:40.5      26     -8     67     28     72 108.6  77.0  34058  287.84 0855.28
2009/04/23 08:44:40.6      29    -10     69     31     75 110.0  73.1  34056  287.82 0855.28
2009/04/23 08:44:40.7      -8     -6     57     11     58 230.5  89.1  34058  287.84 0855.28
2009/04/23 08:44:40.8      59      0     58     60     83  90.0  50.0  34058  287.84 0855.28
2009/04/23 08:44:40.9      59    -16     58     62     84 105.1  48.5  34058  287.84 0855.28
2009/04/23 08:44:41.0      47     -3     46     48     66  94.4  50.0  34056  287.81 0855.28
2009/04/23 08:44:41.1      -1      6     53      7     53 350.3  90.0  34058  287.84 0855.28
2009/04/23 08:44:41.2     -15     21     52     26     58 323.9  71.9  34060  287.89 0855.28
2009/04/23 08:44:41.3      -2     11     50     12     51 348.4  86.9  34058  287.86 0855.28
2009/04/23 08:44:41.4     -19     10     47     22     51 298.9  73.1  34058  287.86 0855.28
2009/04/23 08:44:41.5      -1     24     26     25     36 357.3  48.2  34058  287.84 0855.28
2009/04/23 08:44:41.6      -3     46     52     47     70 355.5  53.3  34058  287.86 0855.28
2009/04/23 08:44:41.7      17     36     41     40     57  25.4  49.1  34058  287.84 0855.28
2009/04/23 08:44:41.8      23    -36     65     43     77 147.5  64.6  34056  287.81 0855.28
2009/04/23 08:44:41.9      35   -106     67    112    130 161.3  33.5  34054  287.77 0855.28
2009/04/23 08:44:42.0      29   -100     76    105    129 163.5  39.7  34054  287.79 0855.28
2009/04/23 08:44:42.1      19    -83     67     86    109 166.6  42.2  34054  287.79 0855.28
2009/04/23 08:44:42.2      27    -58     30     65     71 154.6  27.1  34054  287.79 0855.28
2009/04/23 08:44:42.3      -7    -58     61     59     84 187.1  50.1  34056  287.81 0855.28
2009/04/23 08:44:42.4       6   -113    101    114    152 176.9  45.9  34056  287.81 0855.27
2009/04/23 08:44:42.5      -4    -93    108     94    143 182.7  54.3  34052  287.76 0855.27
2009/04/23 08:44:42.6     -31    -91    112     97    148 198.7  54.8  34054  287.79 0855.27
2009/04/23 08:44:42.7     -16   -117     70    119    138 188.0  33.4  34054  287.79 0855.27
2009/04/23 08:44:42.8     -55   -114    101    127    162 205.9  42.7  34046  287.65 0855.27
2009/04/23 08:44:42.9     -51    -80     58     95    111 212.6  35.0  34048  287.69 0855.27
2009/04/23 08:44:43.0     -64    -77     65    101    120 219.7  35.6  34046  287.65 0855.27
2009/04/23 08:44:43.1     -38   -106     84    113    140 200.0  40.1  34048  287.67 0855.27
2009/04/23 08:44:43.2      37    -50     96     63    114 143.9  64.6  34046  287.65 0855.27
2009/04/23 08:44:43.3      21    -21     89     31     94 135.0  81.2  34050  287.70 0855.27
2009/04/23 08:44:43.4      24    -75     90     79    119 161.7  54.3  34046  287.64 0855.27
2009/04/23 08:44:43.5      -9    -98     44     99    108 185.3  25.7  34046  287.64 0855.27
2009/04/23 08:44:43.6     -31    -31     69     44     81 225.1  64.7  34044  287.60 0855.27
2009/04/23 08:44:43.7     -50    -50     36     72     80 225.1  28.7  34044  287.62 0855.27
2009/04/23 08:44:43.8     -36    -57     23     68     72 212.5  18.9  34046  287.64 0855.27
2009/04/23 08:44:43.9     -18    -43     58     47     74 202.7  56.4  34046  287.64 0855.27
2009/04/23 08:44:44.0     -37    -55     85     67    108 214.3  56.9  34048  287.69 0855.27
2009/04/23 08:44:44.1     -68    -49     98     85    129 234.0  54.8  34046  287.65 0855.27
2009/04/23 08:44:44.2     -74    -54     79     92    121 233.6  45.4  34046  287.65 0855.27
2009/04/23 08:44:44.3     -97    -41     79    106    132 246.9  40.7  34044  287.60 0855.27
2009/04/23 08:44:44.4     -88    -20     67     91    113 256.7  40.1  34040  287.55 0855.25
2009/04/23 08:44:44.5     -47      3     69     48     84 274.4  62.1  34042  287.59 0855.25
2009/04/23 08:44:44.6     -95      4     42     96    104 272.6  25.1  34040  287.54 0855.25
2009/04/23 08:44:44.7     -76      0     67     77    102 270.0  45.8  34048  287.67 0855.25
2009/04/23 08:44:44.8     -17     39     62     43     75 336.4  62.6  34048  287.67 0855.25
2009/04/23 08:44:44.9      -5     -5     55      8     55 225.0  90.0  34046  287.65 0855.25
2009/04/23 08:44:45.0     -59      0     42     60     73 270.0  39.5  34044  287.60 0855.25
2009/04/23 08:44:45.1     -46    -40     56     62     83 228.7  47.5  34044  287.60 0855.25
2009/04/23 08:44:45.2     -71    -59     82     93    123 230.5  45.9  34042  287.59 0855.25
2009/04/23 08:44:45.3     -61    -73     86     96    128 219.6  46.9  34046  287.65 0855.25
2009/04/23 08:44:45.4     -89    -32     43     95    104 250.0  26.2  34042  287.59 0855.25
2009/04/23 08:44:45.5     -90    -41     22    100    103 245.2  12.6  34042  287.57 0855.25
2009/04/23 08:44:45.6    -104    -16     12    106    107 260.8   6.9  34042  287.57 0855.25
2009/04/23 08:44:45.7    -115    -26      0    118    119 257.2  -0.3  34040  287.55 0855.25
2009/04/23 08:44:45.8    -107      1    -11    108    109 270.8  -6.2  34040  287.55 0855.25
2009/04/23 08:44:45.9     -95     32      4    101    102 288.6   2.3  34044  287.60 0855.25
2009/04/23 08:44:46.0     -98     22     52    101    113 282.8  28.7  34040  287.55 0855.25
2009/04/23 08:44:46.1    -121    -28     40    125    132 256.8  17.9  34046  287.64 0855.25
2009/04/23 08:44:46.2    -102    -10     27    103    107 263.9  14.7  34048  287.69 0855.25
2009/04/23 08:44:46.3    -124    -26      6    127    128 258.1   2.9  34048  287.69 0855.24
2009/04/23 08:44:46.4    -101      3     12    102    103 272.1   6.9  34058  287.84 0855.24
2009/04/23 08:44:46.5    -120     -4     24    121    124 267.9  11.6  34054  287.77 0855.24
2009/04/23 08:44:46.6    -157     -9     34    158    162 266.5  12.4  34050  287.72 0855.24
2009/04/23 08:44:46.7    -148      2     46    149    157 270.8  17.4  34052  287.76 0855.24
2009/04/23 08:44:46.8    -104     14     75    105    129 277.9  39.5  34050  287.72 0855.24
2009/04/23 08:44:46.9     -18      6    109     20    110 290.0  90.0  34052  287.76 0855.24
2009/04/23 08:44:47.0     -22     17     92     28     96 307.8  81.8  34052  287.74 0855.24
2009/04/23 08:44:47.1      -4     31     82     32     88 352.0  78.2  34054  287.77 0855.24
2009/04/23 08:44:47.2      -1     10     57     11     58 352.0  89.1  34054  287.79 0855.24
2009/04/23 08:44:47.3       9      3     71     10     71  68.3  90.0  34054  287.79 0855.24
2009/04/23 08:44:47.4      30     23     44     38     58  52.2  54.3  34058  287.84 0855.24
2009/04/23 08:44:47.5     -14    -14     41     21     46 225.0  70.8  34058  287.84 0855.24
2009/04/23 08:44:47.6     -10    -10     57     15     58 223.2  84.9  34056  287.81 0855.24
2009/04/23 08:44:47.7     -16    -16     39     24     45 225.0  64.7  34058  287.86 0855.24
2009/04/23 08:44:47.8       0      4     31      5     31 350.3  90.0  34062  287.91 0855.24
2009/04/23 08:44:47.9      -9     21     26     24     35 336.4  50.1  34062  287.92 0855.24
2009/04/23 08:44:48.0      18     28     39     34     51  32.6  54.3  34060  287.89 0855.24
2009/04/23 08:44:48.1     -32      7     50     33     59 283.3  63.6  34058  287.86 0855.24
2009/04/23 08:44:48.2      14      8     51     17     53  61.1  81.0  34062  287.92 0855.24
2009/04/23 08:44:48.3      65     -9     64     66     91  98.0  50.0  34060  287.87 0855.23
2009/04/23 08:44:48.4      24    -24     86     34     92 134.9  77.6  34068  288.03 0855.23
2009/04/23 08:44:48.5      65    -19     71     68     98 106.8  50.7  34074  288.11 0855.23
2009/04/23 08:44:48.6      79    -11     84     80    116  97.9  51.2  34082  288.25 0855.23
2009/04/23 08:44:48.7      93      4    100     94    137  87.0  52.1  34068  288.01 0855.23
2009/04/23 08:44:48.8     133     10    100    134    167  85.6  40.9  34066  287.98 0855.23
2009/04/23 08:44:48.9     129     35     61    134    147  74.9  26.6  34066  287.99 0855.23
2009/04/23 08:44:49.0     136     10     64    137    151  85.6  27.1  34066  287.99 0855.23
2009/04/23 08:44:49.1     101      0     91    102    136  90.0  46.4  34068  288.03 0855.23
2009/04/23 08:44:49.2      80     11     71     81    107  82.1  45.8  34068  288.01 0855.23
2009/04/23 08:44:49.3      93      4     50     94    106  87.0  30.8  34068  288.01 0855.21
2009/04/23 08:44:49.4      93     16     59     95    111  79.9  35.5  34070  288.04 0855.21
2009/04/23 08:44:49.5      94     31     78    100    126  71.4  41.7  34068  288.01 0855.21
2009/04/23 08:44:49.6     111      8     85    112    140  85.7  41.2  34062  287.91 0855.21
2009/04/23 08:44:49.7     103     45     61    113    128  66.5  30.8  34066  287.99 0855.21
2009/04/23 08:44:49.8     108     40     58    116    129  69.6  28.7  34064  287.94 0855.21
2009/04/23 08:44:49.9     102     11     81    103    131  83.4  42.7  34060  287.89 0855.21
2009/04/23 08:44:50.0      88     13     64     90    110  81.2  39.5  34062  287.92 0855.21
2009/04/23 08:44:50.1      28     13     63     31     70  64.8  72.8  34062  287.91 0855.21
2009/04/23 08:44:50.2       8      0     56      9     56  94.4  90.0  34058  287.86 0855.21
2009/04/23 08:44:50.3      12     15     19     20     27  39.6  52.0  34062  287.92 0855.21
2009/04/23 08:44:50.4      21      7     26     23     34  70.0  52.2  34060  287.87 0855.21
2009/04/23 08:44:50.5      40     23     12     47     49  60.2  14.3  34064  287.94 0855.21
2009/04/23 08:44:50.6      39     44    -16     60     63  41.4 -15.5  34068  288.01 0855.21
2009/04/23 08:44:50.7      39     50      2     64     65  37.8   1.8  34068  288.01 0855.21
2009/04/23 08:44:50.8      25     37    -24     45     51  34.3 -34.7  34078  288.18 0855.21
2009/04/23 08:44:50.9      23     54    -37     59     69  23.6 -39.9  34078  288.18 0855.21
2009/04/23 08:44:51.0      25     60    -35     66     74  22.7 -34.7  34074  288.11 0855.21
2009/04/23 08:44:51.1       1     66     12     67     69   1.0  10.1  34068  288.03 0855.21
2009/04/23 08:44:51.2     -15     63      3     65     66 346.6   2.9  34062  287.91 0855.21
2009/04/23 08:44:51.3     -20     62      9     66     67 341.7   8.0  34062  287.92 0855.20
2009/04/23 08:44:51.4       4     33     19     34     38   8.0  31.4  34058  287.86 0855.20
2009/04/23 08:44:51.5       5     29     19     30     35   9.8  35.5  34058  287.84 0855.20
2009/04/23 08:44:51.6      -7     26     14     27     30 344.9  29.3  34060  287.89 0855.20
2009/04/23 08:44:51.7      -1      6     33      7     33 350.3  89.0  34062  287.92 0855.20
2009/04/23 08:44:51.8      15     17     42     24     48  41.4  66.8  34060  287.87 0855.20
2009/04/23 08:44:51.9      -6     17     40     19     44 341.3  74.0  34060  287.89 0855.20
2009/04/23 08:44:52.0      -1     24     33     25     41 357.3  58.5  34062  287.92 0855.20
2009/04/23 08:44:52.1       9     31     34     33     47  16.9  49.1  34064  287.94 0855.20
2009/04/23 08:44:52.2       0     49     26     50     56 359.1  29.3  34062  287.91 0855.20
2009/04/23 08:44:52.3       8     51     11     52     54   8.9  12.2  34060  287.89 0855.20
2009/04/23 08:44:52.4      17     53      1     56     57  18.7   1.8  34058  287.84 0855.20
2009/04/23 08:44:52.5       8     47     -7     48     49   9.8  -8.2  34060  287.89 0855.20
2009/04/23 08:44:52.6      34     33     -9     48     49  45.9 -11.3  34060  287.87 0855.20
2009/04/23 08:44:52.7      60     19     -2     63     64  72.3  -2.2  34060  287.89 0855.20
2009/04/23 08:44:52.8      59     24     -7     64     65  67.4  -6.2  34058  287.86 0855.20
2009/04/23 08:44:52.9      65     41    -30     77     82  57.6 -26.4  34058  287.86 0855.20
2009/04/23 08:44:53.0      46     21    -49     51     70  64.6 -53.4  34058  287.84 0855.20
2009/04/23 08:44:53.1      73      8    -20     74     77  83.0 -15.4  34060  287.87 0855.20
2009/04/23 08:44:53.2      79    -22    -31     83     88 105.9 -25.4  34060  287.87 0855.20
2009/04/23 08:44:53.3      79    -14    -24     81     85 100.6 -17.0  34056  287.82 0855.20
2009/04/23 08:44:53.4      96    -40     -4    105    106 112.6  -2.2  34054  287.77 0855.20
2009/04/23 08:44:53.5      93    -13      4     95     96  98.4   2.9  34054  287.77 0855.20
2009/04/23 08:44:53.6      83    -19     32     86     91 103.3  21.0  34054  287.79 0855.20
2009/04/23 08:44:53.7      88    -32     33     94    100 110.4  19.4  34056  287.81 0855.20
2009/04/23 08:44:53.8      79    -52      7     95     96 123.7   4.4  34054  287.79 0855.20
2009/04/23 08:44:53.9      78    -38     21     88     91 116.2  13.7  34054  287.77 0855.20
2009/04/23 08:44:54.0      76    -62     42     99    107 129.5  23.6  34054  287.79 0855.20
2009/04/23 08:44:54.1      73    -72     37    103    109 134.4  20.0  34054  287.77 0855.20
2009/04/23 08:44:54.2      72    -91     42    117    124 141.7  20.0  34056  287.82 0855.20
2009/04/23 08:44:54.3      65   -111     44    129    137 149.7  18.9  34054  287.79 0855.20
2009/04/23 08:44:54.4      48   -165     55    172    181 163.7  17.7  34054  287.79 0855.20
2009/04/23 08:44:54.5      49   -176     96    183    206 164.2  29.5  34050  287.72 0855.20
2009/04/23 08:44:54.6      88   -161    118    184    218 151.1  35.6  34054  287.77 0855.20
2009/04/23 08:44:54.7      80   -107    131    134    187 143.0  49.4  34056  287.81 0855.20
2009/04/23 08:44:54.8      34    -35    106     50    117 135.8  73.1  34054  287.79 0855.20
2009/04/23 08:44:54.9     100   -120     98    157    185 140.4  35.2  34054  287.79 0855.20
2009/04/23 08:44:55.0     101    -89    104    135    170 131.3  41.7  34052  287.76 0855.20
2009/04/23 08:44:55.1      58    -79    132     99    165 143.5  59.4  34052  287.76 0855.20
2009/04/23 08:44:55.2      -2      0     75      3     75 270.0  90.0  34056  287.81 0855.20
2009/04/23 08:44:55.3      67   -107     64    127    142 147.9  28.7  34056  287.81 0855.23
2009/04/23 08:44:55.4      26    -99     50    103    114 164.8  27.3  34056  287.81 0855.23
2009/04/23 08:44:55.5       3   -115     40    116    123 178.2  19.4  34056  287.82 0855.23
2009/04/23 08:44:55.6      21   -126     45    128    136 170.2  19.4  34054  287.79 0855.23
2009/04/23 08:44:55.7      38   -115     72    122    141 161.7  33.5  34054  287.77 0855.23
2009/04/23 08:44:55.8      12    -86     60     87    105 172.0  37.6  34056  287.82 0855.23
2009/04/23 08:44:55.9     -29    -90     46     95    105 198.3  27.3  34054  287.77 0855.23
2009/04/23 08:44:56.0      -5   -110     62    111    127 182.7  31.4  34058  287.84 0855.23
2009/04/23 08:44:56.1      41    -87     60     97    114 154.6  35.5  34056  287.82 0855.23
2009/04/23 08:44:56.2      19    -92     74     95    120 168.0  41.7  34056  287.81 0855.23
2009/04/23 08:44:56.3      23   -129     90    132    159 169.8  37.8  34056  287.82 0855.23
2009/04/23 08:44:56.4     -43   -130     78    138    158 198.5  32.1  34056  287.81 0855.23
2009/04/23 08:44:56.5       4   -112     41    113    120 177.8  20.9  34060  287.87 0855.23
2009/04/23 08:44:56.6      20    -82     18     85     87 166.2  12.2  34060  287.87 0855.23
2009/04/23 08:44:56.7      12    -49     39     51     64 165.7  40.7  34058  287.86 0855.23
2009/04/23 08:44:56.8      63     -8     35     64     72  97.9  31.3  34058  287.84 0855.23
2009/04/23 08:44:56.9      73     -6     30     74     79  95.2  23.6  34058  287.84 0855.23
2009/04/23 08:44:57.0      50    -10     24     52     57 101.5  27.1  34060  287.87 0855.23
2009/04/23 08:44:57.1      36    -25     15     45     48 125.1  19.4  34060  287.89 0855.23
2009/04/23 08:44:57.2      43    -27      8     51     52 122.5   9.0  34060  287.89 0855.23
2009/04/23 08:44:57.3      40     -4      7     41     42  97.0  10.1  34060  287.89 0855.24
2009/04/23 08:44:57.4      32     26     -1     42     43  51.4  -2.2  34060  287.89 0855.24
2009/04/23 08:44:57.5      35     30     -6     47     48  49.6  -7.3  34060  287.89 0855.24
2009/04/23 08:44:57.6      21     38     -5     44     45  29.9  -7.3  34060  287.89 0855.24
2009/04/23 08:44:57.7      15     41      0     44     45  20.9   0.8  34058  287.86 0855.24
2009/04/23 08:44:57.8      -8     23     31     25     39 340.0  56.4  34058  287.84 0855.24
2009/04/23 08:44:57.9      16     22     31     28     41  36.1  53.3  34058  287.84 0855.24
2009/04/23 08:44:58.0      12     35     35     38     51  20.0  47.9  34060  287.89 0855.24
2009/04/23 08:44:58.1      10     78     31     79     84   8.0  22.0  34064  287.94 0855.24
2009/04/23 08:44:58.2       1     77     23     78     82   0.9  16.8  34064  287.96 0855.24
2009/04/23 08:44:58.3       0     67     18     68     71   0.0  15.3  34068  288.03 0855.24
2009/04/23 08:44:58.4       0     72      1     73     74   0.0   0.8  34070  288.04 0855.24
2009/04/23 08:44:58.5     -18     30     42     36     55 329.3  55.4  34066  287.98 0855.24
2009/04/23 08:44:58.6       5     18     53     19     56  18.3  81.2  34064  287.96 0855.24
2009/04/23 08:44:58.7      -1    -40     75     41     85 182.7  68.8  34060  287.89 0855.24
2009/04/23 08:44:58.8      24     38     48     46     66  32.5  50.1  34058  287.86 0855.24
2009/04/23 08:44:58.9     -10     82     29     83     89 352.9  19.4  34066  287.98 0855.24
2009/04/23 08:44:59.0      15     96     11     98     99   8.9   6.9  34066  287.99 0855.24
2009/04/23 08:44:59.1       0     68     53     69     87   0.0  41.7  34070  288.06 0855.24
2009/04/23 08:44:59.2      -6     61     24     62     66 353.8  22.0  34070  288.04 0855.24
2009/04/23 08:44:59.3     -17     26     22     32     38 327.4  37.6  34070  288.06 0855.26
2009/04/23 08:44:59.4     -27     11     -1     30     31 293.5  -3.1  34082  288.26 0855.26
2009/04/23 08:44:59.5     -53      6     -2     54     55 277.0  -2.2  34076  288.16 0855.26
2009/04/23 08:44:59.6     -38     -2      2     39     40 265.6   3.8  34074  288.11 0855.26
2009/04/23 08:44:59.7     -41    -20    -17     46     49 243.8 -23.3  34070  288.06 0855.26
2009/04/23 08:44:59.8     -29     24    -40     38     55 309.6 -54.5  34072  288.09 0855.26
2009/04/23 08:44:59.9     -46     26    -32     53     61 299.8 -38.8  34068  288.03 0855.26
2009/04/23 08:45:00.0     -35     23    -35     42     54 303.3 -48.2  34068  288.01 0855.26
2009/04/23 08:45:00.1     -34     33    -33     48     58 314.1 -40.9  34068  288.03 0855.26
2009/04/23 08:45:00.2     -36     26    -32     45     55 306.0 -43.0  34064  287.94 0855.26
2009/04/23 08:45:00.3     -49     46    -35     68     76 313.1 -33.7  34066  287.99 0855.26
2009/04/23 08:45:00.4     -84     46    -37     97    103 298.9 -25.9  34062  287.92 0855.26
2009/04/23 08:45:00.5     -85     48      0     98     99 299.8  -0.3  34052  287.76 0855.26
2009/04/23 08:45:00.6    -136     69    -27    153    156 297.0 -10.1  34052  287.74 0855.26
2009/04/23 08:45:00.8    -147    115     36    187    191 308.0  11.0  34052  287.76 0855.26
2009/04/23 08:45:00.9    -148    103     39    181    186 304.9  12.2  34052  287.76 0855.26
2009/04/23 08:45:00.9    -159     14     42    160    166 275.2  14.7  34058  287.86 0855.26
2009/04/23 08:45:01.1    -122    -39     14    129    130 252.3   6.5  34056  287.82 0855.26
2009/04/23 08:45:01.2    -112    -25    -23    115    118 257.2 -11.3  34054  287.77 0855.26
2009/04/23 08:45:01.3     -52     10    -17     54     56 281.5 -23.8  34054  287.79 0855.26
2009/04/23 08:45:01.4       0     49     -1     50     51 359.1  -1.3  34054  287.77 0855.27
2009/04/23 08:45:01.5     -31     66     48     74     88 334.5  36.0  34048  287.69 0855.27
2009/04/23 08:45:01.6     -10     13     44     17     47 323.9  79.2  34052  287.74 0855.27
2009/04/23 08:45:01.7      23     23     81     33     87  45.1  77.1  34056  287.82 0855.27
2009/04/23 08:45:01.8      15     44     82     47     94  18.7  67.2  34060  287.87 0855.27
2009/04/23 08:45:01.9      16     22     98     28    101  36.1  83.9  34058  287.84 0855.27
2009/04/23 08:45:02.0       0     12     69     13     70   0.9  89.1  34060  287.87 0855.27
2009/04/23 08:45:02.1       0    -21     54     22     58 180.9  78.2  34060  287.87 0855.27
2009/04/23 08:45:02.2      -3    -44     36     45     57 184.5  43.7  34056  287.82 0855.27
2009/04/23 08:45:02.3      -9    -35     55     37     66 195.1  63.6  34056  287.81 0855.27
2009/04/23 08:45:02.4     -26    -35     75     44     86 217.0  66.8  34054  287.79 0855.27
2009/04/23 08:45:02.5     -46    -31     66     56     86 235.8  54.8  34058  287.84 0855.27
2009/04/23 08:45:02.6     -35    -27     74     45     86 232.2  65.7  34056  287.82 0855.27
2009/04/23 08:45:02.7     -37    -19     67     42     79 242.9  65.1  34054  287.79 0855.27
2009/04/23 08:45:02.8      -9     -3     42     10     43 248.3  85.9  34060  287.87 0855.27
2009/04/23 08:45:02.9      30      4     30     31     43  82.1  50.0  34060  287.87 0855.27
2009/04/23 08:45:03.0     -30    -54     96     62    114 209.0  64.6  34060  287.87 0855.27
2009/04/23 08:45:03.1      -4    -62     76     63     98 184.4  56.3  34058  287.84 0855.27
2009/04/23 08:45:03.2      16    -86     84     88    121 169.3  49.0  34058  287.84 0855.27
2009/04/23 08:45:03.3       8   -110     75    111    133 175.6  37.0  34060  287.89 0855.27
2009/04/23 08:45:03.4     -13   -102    100    103    143 187.6  49.4  34058  287.84 0855.29
2009/04/23 08:45:03.5     -33   -100     89    106    138 198.7  44.3  34058  287.84 0855.29
2009/04/23 08:45:03.6      -8   -102     57    103    117 184.5  31.4  34058  287.84 0855.29
2009/04/23 08:45:03.7     -20   -109     82    111    138 190.7  40.1  34056  287.81 0855.29
2009/04/23 08:45:03.8      -7   -106     87    107    137 184.0  43.7  34056  287.81 0855.29
2009/04/23 08:45:03.9      14    -68    102     70    123 168.4  62.6  34054  287.79 0855.29
2009/04/23 08:45:04.0       0   -108    107    109    152 179.5  50.0  34056  287.81 0855.29
2009/04/23 08:45:04.1      30   -111    131    116    174 164.9  54.0  34054  287.77 0855.29
2009/04/23 08:45:04.2      60   -139    122    152    194 156.4  43.3  34054  287.77 0855.29
2009/04/23 08:45:04.3      55   -129    128    141    190 156.8  47.1  34056  287.81 0855.29
2009/04/23 08:45:04.4      41   -134    127    141    189 163.0  46.9  34052  287.76 0855.29
2009/04/23 08:45:04.5      29   -179    119    182    217 170.7  36.0  34052  287.74 0855.29
2009/04/23 08:45:04.6      14   -191    130    192    231 175.6  37.3  34052  287.74 0855.29
2009/04/23 08:45:04.7      27   -170    143    173    224 170.9  43.8  34052  287.74 0855.29
2009/04/23 08:45:04.8      17   -184    129    185    225 174.7  38.6  34056  287.81 0855.29
2009/04/23 08:45:04.9      79   -176    124    194    230 155.7  35.6  34052  287.76 0855.29
2009/04/23 08:45:05.0      16   -183    119    184    219 174.9  35.7  34052  287.76 0855.29
2009/04/23 08:45:05.1      50   -167    120    175    212 163.1  37.6  34050  287.70 0855.29
2009/04/23 08:45:05.2     145   -155    104    213    237 136.8  28.0  34054  287.77 0855.29
2009/04/23 08:45:05.3     101   -123    107    160    192 140.8  36.5  34052  287.76 0855.29
2009/04/23 08:45:05.4      67   -133    105    149    182 153.3  38.6  34052  287.74 0855.29
2009/04/23 08:45:05.5      60   -130    139    144    200 155.1  49.2  34050  287.70 0855.29
2009/04/23 08:45:05.6      49    -67    106     84    135 143.5  57.5  34048  287.67 0855.29
2009/04/23 08:45:05.7      68      3    130     69    147  87.4  70.4  34048  287.67 0855.29
2009/04/23 08:45:05.8      72    -54    115     90    146 126.9  58.4  34054  287.79 0855.29
2009/04/23 08:45:05.9      70    -14     88     72    113 101.5  56.4  34050  287.72 0855.29
2009/04/23 08:45:06.0     146   -134    144    199    245 132.7  39.7  34050  287.70 0855.29
2009/04/23 08:45:06.1      42   -165    141    171    221 165.7  43.8  34048  287.67 0855.29
2009/04/23 08:45:06.2      36   -124    150    130    198 163.5  54.6  34048  287.67 0855.29
2009/04/23 08:45:06.3      52   -120    152    131    200 156.4  54.8  34050  287.72 0855.29
2009/04/23 08:45:06.4      36   -151    130    156    203 166.6  44.1  34048  287.67 0855.29
2009/04/23 08:45:06.5      47    -71    103     86    134 146.6  56.3  34048  287.67 0855.29
2009/04/23 08:45:06.6     162    -34    144    166    219 102.2  45.6  34050  287.70 0855.29
2009/04/23 08:45:06.7     158    -52    126    167    209 108.2  40.9  34048  287.69 0855.29
2009/04/23 08:45:06.8     136    -54    123    147    191 111.8  44.1  34048  287.69 0855.29
2009/04/23 08:45:06.9      -3     -4     90      6     90 219.6  90.0  34050  287.72 0855.29
2009/04/23 08:45:07.0       4    -56    120     57    132 175.6  73.1  34050  287.72 0855.29
2009/04/23 08:45:07.1      20     -2    109     21    111  97.9  89.1  34052  287.74 0855.29
2009/04/23 08:45:07.2      95     52    155    109    189  61.2  61.3  34116  288.84 0855.29
2009/04/23 08:45:07.3     130     59     93    143    170  65.6  36.0  34144  289.30 0855.29
2009/04/23 08:45:07.4      57    -36     29     68     73 122.4  23.1  34114  288.79 0855.29
2009/04/23 08:45:07.5      61    -44     68     76    101 126.0  46.9  34074  288.13 0855.29
2009/04/23 08:45:07.6      58     -4     86     59    104  94.4  62.6  34060  287.89 0855.29
2009/04/23 08:45:07.7      -2      0     89      3     89 270.0  90.0  34060  287.89 0855.29
2009/04/23 08:45:07.8      55     45    107     72    128  50.5  63.2  34104  288.62 0855.29
2009/04/23 08:45:07.9      17     53     49     56     74  18.7  45.8  34090  288.40 0855.29
2009/04/23 08:45:08.0     -30     77    123     83    148 338.2  62.7  34122  288.92 0855.29
2009/04/23 08:45:08.1      32     41    103     53    115  37.8  70.8  34154  289.48 0855.29
2009/04/23 08:45:08.2      18     10     80     21     82  59.3  85.4  34130  289.06 0855.29
2009/04/23 08:45:08.3      24    -46     75     53     91 151.9  61.1  34086  288.33 0855.29
2009/04/23 08:45:08.4      18    -54     85     58    102 161.3  62.6  34066  287.98 0855.29
2009/04/23 08:45:08.5     125      5    113    126    169  87.4  46.6  34050  287.72 0855.29
2009/04/23 08:45:08.6      94    -18    140     96    169 101.0  62.4  34052  287.74 0855.29
2009/04/23 08:45:08.7      63      0    117     64    133  90.9  68.8  34076  288.16 0855.29
2009/04/23 08:45:08.8      77      5    109     78    134  85.6  61.1  34114  288.79 0855.29
2009/04/23 08:45:08.9     121     12    144    122    188  83.9  55.8  34146  289.35 0855.29
2009/04/23 08:45:09.0      78    -15    123     80    146 101.5  64.6  34112  288.75 0855.29
2009/04/23 08:45:09.1     122     10    118    123    170  85.2  49.2  34120  288.89 0855.29
2009/04/23 08:45:09.2     123     34     98    128    161  74.5  41.4  34156  289.50 0855.29
2009/04/23 08:45:09.3     169     47     75    176    191  74.3  24.3  34152  289.43 0855.29
2009/04/23 08:45:09.4     149    -21    131    151    199  98.4  45.6  34134  289.14 0855.29
2009/04/23 08:45:09.5     180    162    135    243    277  48.0  31.4  34144  289.31 0855.29
2009/04/23 08:45:09.6     146     76    126    165    207  62.2  41.4  34154  289.48 0855.29
2009/04/23 08:45:09.7     155     57    147    166    221  69.8  46.2  34140  289.23 0855.29
2009/04/23 08:45:09.8     167     45     74    174    189  74.7  24.6  34138  289.21 0855.29
2009/04/23 08:45:09.9     147     39     82    153    173  74.9  30.6  34132  289.09 0855.29
2009/04/23 08:45:10.0     103     63     67    121    138  58.5  31.4  34146  289.33 0855.29
2009/04/23 08:45:10.1      45     13     86     47     98  73.2  69.3  34158  289.53 0855.29
2009/04/23 08:45:10.2      58     28    113     65    130  63.8  67.2  34152  289.45 0855.29
2009/04/23 08:45:10.3      55     26     83     61    103  64.7  60.0  34164  289.63 0855.29
2009/04/23 08:45:10.4       7    -24     65     26     70 163.1  77.1  34152  289.43 0855.29
2009/04/23 08:45:10.5     -25    -95     63     99    117 195.1  35.5  34084  288.30 0855.29
2009/04/23 08:45:10.6      43    -45     68     63     92 136.7  52.2  34132  289.09 0855.29
2009/04/23 08:45:10.7      -1    -68     80     69    105 181.0  54.8  34094  288.47 0855.29
2009/04/23 08:45:10.8      41    -11     85     43     95 105.1  71.4  34134  289.13 0855.29
2009/04/23 08:45:10.9      78    -10     86     79    116  97.9  52.2  34142  289.26 0855.29
2009/04/23 08:45:11.0       7    -92    100     93    136 175.5  52.2  34064  287.96 0855.29
2009/04/23 08:45:11.1      47   -120     86    129    155 158.6  36.0  34048  287.69 0855.29
2009/04/23 08:45:11.2      28   -110     87    114    143 165.7  41.2  34048  287.69 0855.29
2009/04/23 08:45:11.3      -7   -118    135    119    179 183.6  54.0  34052  287.74 0855.29
2009/04/23 08:45:11.4       0   -117    127    118    173 180.0  52.2  34066  287.98 0855.29
2009/04/23 08:45:11.5     -59   -106    138    122    184 209.0  54.0  34064  287.94 0855.29
2009/04/23 08:45:11.6    -115    -77     67    139    154 235.9  27.3  34060  287.87 0855.29
2009/04/23 08:45:11.7    -106    -99      7    146    147 226.8   2.9  34070  288.04 0855.29
2009/04/23 08:45:11.8    -130    -45     17    138    140 250.9   7.1  34058  287.86 0855.29
2009/04/23 08:45:11.9     -94    -37     15    102    104 248.3   8.5  34054  287.79 0855.29
2009/04/23 08:45:12.0     -91    -53     36    106    113 239.8  18.9  34068  288.03 0855.29
2009/04/23 08:45:12.1    -116    -51     26    127    130 246.0  11.6  34082  288.26 0855.29
2009/04/23 08:45:12.2    -147    -90    -25    173    175 238.5  -8.2  34082  288.26 0855.29
2009/04/23 08:45:12.3    -158    -58     -1    169    170 249.6  -0.5  34092  288.42 0855.30
2009/04/23 08:45:12.4    -126    -17     -7    128    129 262.1  -3.2  34092  288.43 0855.30
2009/04/23 08:45:12.5     -84     19    -26     87     92 283.3 -17.0  34094  288.47 0855.30
2009/04/23 08:45:12.6     -77    -14     37     79     87 259.4  26.6  34086  288.33 0855.30
2009/04/23 08:45:12.7     -34      0     18     35     39 269.1  27.3  34080  288.21 0855.30
2009/04/23 08:45:12.8      -9     12     30     16     34 323.9  70.8  34086  288.33 0855.30
2009/04/23 08:45:12.9      -7    -42     56     43     70 190.7  58.5  34082  288.26 0855.30
2009/04/23 08:45:13.0     -40    -48     74     63     97 219.6  55.4  34076  288.14 0855.30
2009/04/23 08:45:13.1      -1   -116     40    117    124 180.9  18.9  34056  287.82 0855.30
2009/04/23 08:45:13.2      50   -160     31    168    171 162.6  10.6  34054  287.77 0855.30
2009/04/23 08:45:13.3      38   -175     27    180    183 167.5   8.5  34050  287.72 0855.30
2009/04/23 08:45:13.4      15   -157     45    158    165 174.2  16.0  34052  287.74 0855.30
2009/04/23 08:45:13.5      64   -154    123    167    207 157.3  39.9  34050  287.72 0855.30
2009/04/23 08:45:13.6      55   -139    129    150    197 158.2  45.4  34050  287.72 0855.30
2009/04/23 08:45:13.7       7    -99    102    100    142 175.5  50.1  34046  287.65 0855.30
2009/04/23 08:45:13.8      32    -30    105     45    114 133.1  76.1  34052  287.74 0855.30
2009/04/23 08:45:13.9      54    -58     97     80    125 136.8  56.4  34050  287.72 0855.30
2009/04/23 08:45:14.0      43    -41     63     60     87 134.0  51.2  34052  287.76 0855.30
2009/04/23 08:45:14.1      53    -83     50     99    110 147.5  28.2  34050  287.70 0855.30
2009/04/23 08:45:14.2      57   -104     47    119    127 151.1  23.0  34052  287.76 0855.30
2009/04/23 08:45:14.3       9   -115     43    116    123 175.5  21.0  34052  287.76 0855.30
2009/04/23 08:45:14.4       5   -121     43    122    130 177.3  19.4  34052  287.76 0855.30
2009/04/23 08:45:14.5     -33   -126     56    131    142 194.7  24.1  34054  287.77 0855.30
2009/04/23 08:45:14.6     -39   -145     48    151    159 195.1  17.9  34052  287.74 0855.30
2009/04/23 08:45:14.7     -28   -148     30    151    155 190.7  11.4  34052  287.76 0855.30
2009/04/23 08:45:14.8     -41   -132     24    139    142 197.4  10.1  34050  287.70 0855.30
2009/04/23 08:45:14.9       2   -155     90    156    180 179.1  32.7  34052  287.76 0855.30
2009/04/23 08:45:15.0      28   -175     68    178    190 170.9  22.0  34052  287.76 0855.30
2009/04/23 08:45:15.1      29   -193     77    196    210 171.3  22.5  34052  287.74 0855.30
2009/04/23 08:45:15.2      55   -153     98    163    190 160.0  34.0  34052  287.76 0855.30
2009/04/23 08:45:15.3      49   -135     88    144    168 160.0  34.4  34050  287.72 0855.30
2009/04/23 08:45:15.4      57   -158     77    169    185 160.2  26.4  34052  287.74 0855.30
2009/04/23 08:45:15.5      35   -149     54    154    164 166.7  19.6  34052  287.74 0855.30
2009/04/23 08:45:15.6      16   -175     44    176    182 174.7  14.3  34052  287.74 0855.30
2009/04/23 08:45:15.7       0   -184     43    185    191 180.2  13.2  34050  287.72 0855.30
2009/04/23 08:45:15.8      30   -151     54    155    165 168.5  19.2  34050  287.70 0855.30
2009/04/23 08:45:15.9       2   -139     77    140    159 179.1  31.0  34052  287.76 0855.30
2009/04/23 08:45:16.0       0    -97     92     98    134 180.5  48.5  34048  287.69 0855.30
2009/04/23 08:45:16.1      10    -93     86     94    127 173.3  47.5  34052  287.74 0855.30
2009/04/23 08:45:16.2      -7    -68     63     69     93 186.2  47.9  34050  287.72 0855.30
2009/04/23 08:45:16.3       3    -62     38     63     73 176.4  34.4  34054  287.77 0855.30
2009/04/23 08:45:16.4       0    -53     32     54     62 179.1  33.5  34052  287.76 0855.30
2009/04/23 08:45:16.5      -2    -90     15     91     93 181.8   9.5  34052  287.76 0855.30
2009/04/23 08:45:16.6       0    -79     24     80     84 179.5  17.3  34052  287.74 0855.30
2009/04/23 08:45:16.7     -26    -42     49     50     70 211.6  51.1  34050  287.72 0855.30
2009/04/23 08:45:16.8      20    -50     40     54     67 158.2  39.7  34054  287.79 0855.30
2009/04/23 08:45:16.9      24    -24     59     34     68 134.9  67.7  34054  287.77 0855.30
2009/04/23 08:45:17.0     -18    -54     29     57     63 198.5  28.2  34052  287.76 0855.30
2009/04/23 08:45:17.1     -30    -24     18     39     42 230.5  26.2  34054  287.77 0855.30
2009/04/23 08:45:17.2     -42      0    -22     43     48 270.0 -33.7  34052  287.74 0855.30
2009/04/23 08:45:17.3     -27     14    -18     31     35 297.1 -39.9  34048  287.69 0855.30
2009/04/23 08:45:17.4      -9     28    -10     30     32 341.3 -19.7  34050  287.70 0855.30
2009/04/23 08:45:17.5      10     31      4     33     34  18.3   6.9  34052  287.74 0855.30
2009/04/23 08:45:17.6      12     59     12     61     63  11.6  11.0  34048  287.69 0855.30
2009/04/23 08:45:17.7       2     48     33     49     59   2.7  37.6  34048  287.69 0855.30
2009/04/23 08:45:17.8      -5     17     34     18     38 341.5  70.8  34048  287.67 0855.30
2009/04/23 08:45:17.9     -19     21     49     29     56 318.6  65.7  34048  287.67 0855.30
2009/04/23 08:45:18.0     -14     14     41     21     46 314.9  70.8  34048  287.67 0855.30
2009/04/23 08:45:18.1     -13    -14     40     20     44 223.2  70.8  34048  287.69 0855.30
2009/04/23 08:45:18.2      -5    -17     34     18     38 198.5  70.8  34050  287.70 0855.30
2009/04/23 08:45:18.3      38    -39      1     55     56 135.9   1.8  34050  287.70 0855.30
2009/04/23 08:45:18.4     -23    -26     -4     36     37 221.4  -7.3  34050  287.72 0855.30
2009/04/23 08:45:18.5     -77    -92    128    121    176 220.1  52.0  34050  287.72 0855.30
2009/04/23 08:45:18.6     -77    -92    128    121    176 220.1  52.0  34048  287.69 0855.30
2009/04/23 08:45:18.7     -62   -142     45    156    163 203.6  16.3  34050  287.70 0855.30
2009/04/23 08:45:18.8    -111   -153     -7    190    191 216.1  -2.2  34048  287.67 0855.30
2009/04/23 08:45:18.9    -149   -159     43    219    224 223.2  11.1  34044  287.62 0855.30
2009/04/23 08:45:19.0    -136   -186     23    231    233 216.1   5.9  34046  287.64 0855.30
2009/04/23 08:45:19.1    -110   -169     23    202    204 213.2   6.7  34046  287.65 0855.30
2009/04/23 08:45:19.2     -95   -152      9    180    181 211.9   2.9  34046  287.64 0855.30
2009/04/23 08:45:19.3    -105   -129    -14    167    168 219.2  -4.9  34046  287.64 0855.30
2009/04/23 08:45:19.4     -62   -130     -5    145    146 205.5  -2.2  34046  287.64 0855.30
2009/04/23 08:45:19.5     -17   -130    -22    132    134 187.6  -9.8  34048  287.69 0855.30
2009/04/23 08:45:19.6     -31   -112    -23    117    120 195.6 -11.5  34048  287.69 0855.30
2009/04/23 08:45:19.7      -9    -89    -14     90     92 185.8  -8.8  34048  287.69 0855.30
2009/04/23 08:45:19.8      23    -41     16     48     51 150.1  19.4  34048  287.69 0855.30
2009/04/23 08:45:19.9      23    -68     50     73     88 160.8  37.6  34050  287.70 0855.30
2009/04/23 08:45:20.0      11    -55     39     57     69 168.4  37.6  34050  287.72 0855.30
2009/04/23 08:45:20.1      37    -37     57     53     77 134.9  52.1  34052  287.76 0855.30
2009/04/23 08:45:20.2      23    -35     71     43     83 146.6  66.2  34052  287.74 0855.30
2009/04/23 08:45:20.3      17    -53     65     56     85 161.3  54.8  34052  287.76 0855.30
2009/04/23 08:45:20.4       6    -70     68     71     98 174.7  49.4  34052  287.76 0855.30
2009/04/23 08:45:20.5      34   -124     44    129    137 164.4  18.9  34052  287.76 0855.30
2009/04/23 08:45:20.6      55   -121     57    134    145 155.5  24.1  34048  287.69 0855.30
2009/04/23 08:45:20.7      61   -197     93    207    226 162.6  25.9  34046  287.65 0855.30
2009/04/23 08:45:20.8      34   -150    167    154    227 167.1  52.2  34050  287.70 0855.30
2009/04/23 08:45:20.9      36   -193     95    197    218 169.3  27.4  34050  287.72 0855.30
2009/04/23 08:45:21.0     153   -202     35    254    257 142.8   8.0  34052  287.75 0855.30
2009/04/23 08:45:21.1     128   -182     27    223    225 144.8   7.1  34050  287.72 0855.30
2009/04/23 08:45:21.2     147   -185     99    237    256 141.5  24.1  34054  287.77 0855.30
2009/04/23 08:45:21.3     207   -172     63    270    278 129.6  13.1  34058  287.85 0855.30
2009/04/23 08:45:21.4     186   -214     -3    284    285 139.0  -0.7  34054  287.77 0855.30
2009/04/23 08:45:21.5     122   -236     78    266    278 152.6  16.3  34052  287.73 0855.30
2009/04/23 08:45:21.6      43   -247     90    251    266 170.0  20.2  34052  287.75 0855.30
2009/04/23 08:45:21.7     146   -165     14    221    222 138.6   3.6  34050  287.72 0855.30
2009/04/23 08:45:21.8     102   -223    106    246    267 155.5  24.9  34050  287.71 0855.30
2009/04/23 08:45:21.9      19   -249    127    250    280 175.6  29.2  34052  287.73 0855.30
2009/04/23 08:45:22.0     106   -200    156    227    275 152.1  37.6  34052  287.73 0855.30
2009/04/23 08:45:22.1      74   -225    153    237    282 161.7  35.6  34054  287.77 0855.30
2009/04/23 08:45:22.2      46   -243    109    248    270 169.3  25.2  34054  287.78 0855.30
2009/04/23 08:45:22.3      51   -287     97    292    308 169.8  18.4  34052  287.73 0855.31
2009/04/23 08:45:22.4      54   -285     74    291    301 169.3  14.3  34054  287.77 0855.31
2009/04/23 08:45:22.5      34   -249     40    252    256 172.2   9.0  34054  287.77 0855.31
2009/04/23 08:45:22.6      -7   -227      7    228    229 182.0   1.8  34052  287.76 0855.31
2009/04/23 08:45:22.7       0   -237     -9    238    239 180.0  -2.2  34052  287.73 0855.31
2009/04/23 08:45:22.8      -5   -188     -4    189    190 181.8  -1.3  34052  287.76 0855.31
2009/04/23 08:45:22.9       5   -187    -24    188    190 178.2  -7.3  34052  287.76 0855.31
2009/04/23 08:45:23.0      16   -210    -35    211    214 175.6  -9.6  34054  287.77 0855.31
2009/04/23 08:45:23.1      18   -166      6    168    169 173.8   2.1  34052  287.76 0855.31
2009/04/23 08:45:23.2     -46   -140     17    148    150 198.5   6.9  34048  287.69 0855.31
2009/04/23 08:45:23.3    -110   -117    -54    161    169 223.2 -23.6  34048  287.69 0855.31
2009/04/23 08:45:23.4     -53   -179     32    187    190 196.7   9.9  34044  287.62 0855.31
2009/04/23 08:45:23.5       4   -136     56    137    148 178.2  23.1  34046  287.64 0855.31
2009/04/23 08:45:23.6      71   -182     56    196    204 158.6  16.0  34048  287.67 0855.31
2009/04/23 08:45:23.7      85   -210     62    227    236 157.9  15.3  34052  287.73 0855.31
2009/04/23 08:45:23.8     105   -172     -1    202    203 148.4  -0.5  34048  287.69 0855.31
2009/04/23 08:45:23.9      87   -128     52    156    165 145.7  18.4  34050  287.72 0855.31
2009/04/23 08:45:24.0      73   -145     17    163    164 153.3   6.1  34054  287.77 0855.31
2009/04/23 08:45:24.1      53   -113    -58    125    137 154.7 -31.0  34046  287.65 0855.31
2009/04/23 08:45:24.2      36   -107    -60    113    127 161.3 -34.2  34046  287.65 0855.31
2009/04/23 08:45:24.3      43    -83    -51     94    106 152.4 -35.7  34046  287.65 0855.31
2009/04/23 08:45:24.4      52    -94     -7    108    109 151.0  -4.1  34048  287.69 0855.31
2009/04/23 08:45:24.5      42    -98     31    107    112 156.4  16.3  34050  287.72 0855.31
2009/04/23 08:45:24.6      82    -95     44    126    134 139.0  19.4  34054  287.77 0855.31
2009/04/23 08:45:24.7      78    -83     23    114    117 136.8  11.6  34054  287.79 0855.31
2009/04/23 08:45:24.8      50    -93      0    106    107 151.5  -0.3  34054  287.79 0855.31
2009/04/23 08:45:24.9       1    -76     10     77     78 179.0   7.5  34052  287.74 0855.31
2009/04/23 08:45:25.0     -40    -59     62     72     95 214.3  45.4  34054  287.79 0855.31
2009/04/23 08:45:25.1     -32    -65     27     73     77 206.3  20.0  34052  287.74 0855.31
2009/04/23 08:45:25.2      30    -42     64     52     82 143.9  56.4  34054  287.79 0855.31
2009/04/23 08:45:25.3     -26    -99     76    103    128 195.1  40.1  34054  287.79 0855.31
2009/04/23 08:45:25.4      -1    -89     57     90    106 180.9  35.5  34054  287.79 0855.31
2009/04/23 08:45:25.5      14    -94     89     96    130 171.5  47.9  34054  287.77 0855.31
2009/04/23 08:45:25.6     -24   -119    111    122    164 191.6  47.1  34052  287.76 0855.31
2009/04/23 08:45:25.7     -58   -114     80    129    151 207.2  35.5  34054  287.79 0855.31
2009/04/23 08:45:25.8       2   -147     77    148    166 179.1  29.3  34052  287.76 0855.31
2009/04/23 08:45:25.9      27   -198     43    200    205 172.0  12.2  34050  287.72 0855.31
2009/04/23 08:45:26.0      52   -212      2    219    220 166.2   0.7  34050  287.70 0855.31
2009/04/23 08:45:26.1      90   -236     26    253    255 159.1   5.9  34052  287.75 0855.31
2009/04/23 08:45:26.2      62   -188     59    199    208 161.7  16.6  34052  287.76 0855.31
2009/04/23 08:45:26.3      91   -166     67    190    202 151.1  19.6  34054  287.77 0855.31
2009/04/23 08:45:26.4     138   -147     71    202    215 136.8  19.4  34052  287.76 0855.31
2009/04/23 08:45:26.5     123   -189     42    226    230 146.8  10.6  34052  287.76 0855.31
2009/04/23 08:45:26.6     152   -148     42    213    218 134.2  11.1  34054  287.77 0855.31
2009/04/23 08:45:26.7     134   -169     64    216    226 141.5  16.6  34052  287.76 0855.31
2009/04/23 08:45:26.8     148   -139     82    204    219 133.1  23.1  34054  287.79 0855.31
2009/04/23 08:45:26.9     161   -187     45    247    252 139.2  10.3  34056  287.80 0855.31
2009/04/23 08:45:27.1      79   -212     88    227    243 159.5  22.0  34056  287.82 0855.31
2009/04/23 08:45:27.2      84   -174     62    194    204 154.1  17.9  34054  287.77 0855.31
2009/04/23 08:45:27.3     110   -198     56    227    234 150.8  13.9  34054  287.77 0855.31
2009/04/23 08:45:27.4     114   -200     28    231    233 150.4   7.1  34054  287.77 0855.31
2009/04/23 08:45:27.5     114   -114    -17    162    163 135.0  -6.2  34054  287.79 0855.31
2009/04/23 08:45:27.6      62   -123     48    138    147 153.3  19.4  34054  287.79 0855.31
2009/04/23 08:45:27.7      65   -111     44    129    137 149.7  18.9  34054  287.79 0855.31
2009/04/23 08:45:27.8      34   -124      1    129    130 164.4   0.8  34056  287.82 0855.31
2009/04/23 08:45:27.9      47    -97     -2    108    109 154.1  -1.3  34056  287.81 0855.31
2009/04/23 08:45:28.0      70    -70      3     99    100 135.0   1.8  34056  287.82 0855.31
2009/04/23 08:45:28.1      52    -52     50     74     89 135.0  37.0  34056  287.81 0855.31
2009/04/23 08:45:28.2      49    -60     54     78     94 140.4  37.6  34054  287.77 0855.31
2009/04/23 08:45:28.3      61    -63     76     89    117 135.9  44.8  34054  287.77 0855.31
2009/04/23 08:45:28.4      47    -88     90    100    134 151.9  46.9  34052  287.76 0855.31
2009/04/23 08:45:28.5      52    -78     40     95    103 146.2  23.6  34054  287.77 0855.31
2009/04/23 08:45:28.6      60   -104    -15    121    122 150.1  -7.3  34054  287.79 0855.31
2009/04/23 08:45:28.7      44   -110     28    119    123 158.2  13.2  34056  287.82 0855.31
2009/04/23 08:45:28.8      47   -129     29    138    142 160.0  12.2  34054  287.79 0855.31
2009/04/23 08:45:28.9      61   -140     67    154    167 156.3  24.9  34054  287.79 0855.31
2009/04/23 08:45:29.0      51   -159     64    168    179 162.0  21.7  34054  287.79 0855.31
2009/04/23 08:45:29.1      67   -156     96    170    195 156.6  32.1  34054  287.77 0855.31
2009/04/23 08:45:29.2      63   -119    117    135    178 151.9  45.4  34056  287.82 0855.31
2009/04/23 08:45:29.3      78   -101    113    128    170 142.1  45.8  34056  287.81 0855.31
2009/04/23 08:45:29.4     104   -106     80    149    169 135.5  30.6  34054  287.77 0855.31
2009/04/23 08:45:29.5     104    -66     46    124    132 122.5  21.0  34054  287.77 0855.31
2009/04/23 08:45:29.6      88    -56     32    105    110 122.5  17.3  34052  287.76 0855.31
2009/04/23 08:45:29.7      45    -40     51     61     79 131.3  44.3  34052  287.76 0855.31
2009/04/23 08:45:29.8      74    -22     38     78     86 106.8  27.8  34054  287.79 0855.31
2009/04/23 08:45:29.9      82    -23     32     86     91 105.9  21.0  34054  287.77 0855.31
2009/04/23 08:45:30.0     121    -79     34    145    149 123.3  13.2  34054  287.77 0855.31
2009/04/23 08:45:30.1      93   -110     63    145    158 139.9  24.9  34050  287.72 0855.31
2009/04/23 08:45:30.2      74   -184     98    199    221 157.9  28.0  34058  287.84 0855.31
2009/04/23 08:45:30.3      82   -199     79    216    229 157.5  20.9  34056  287.82 0855.31
2009/04/23 08:45:30.4      43   -213     68    218    229 168.4  17.4  34056  287.82 0855.32
2009/04/23 08:45:30.5      76   -209     27    223    225 160.0   7.1  34056  287.81 0855.32
2009/04/23 08:45:30.6      75   -195     19    210    211 158.8   5.2  34056  287.81 0855.32
2009/04/23 08:45:30.7      55   -198     40    206    210 164.4  11.1  34054  287.79 0855.32
2009/04/23 08:45:30.8      87   -169     49    191    198 152.8  14.5  34052  287.76 0855.32
2009/04/23 08:45:30.9      59   -197     63    206    216 163.1  17.1  34058  287.84 0855.32
2009/04/23 08:45:31.0     133   -249     99    283    301 151.9  19.4  34056  287.82 0855.32
2009/04/23 08:45:31.1      88   -259    124    274    300 161.1  26.2  34058  287.85 0855.32
2009/04/23 08:45:31.2      85   -224    123    240    269 159.1  29.2  34058  287.85 0855.32
2009/04/23 08:45:31.3     108   -211     79    238    251 152.9  18.4  34056  287.80 0855.32
2009/04/23 08:45:31.4     188   -134     11    231    232 125.5   2.9  34052  287.76 0855.32
2009/04/23 08:45:31.5     215   -128     12    251    252 120.7   2.8  34056  287.82 0855.32
2009/04/23 08:45:31.6     133   -163    -42    211    216 140.8 -11.3  34052  287.76 0855.32
2009/04/23 08:45:31.7      95   -180    -86    204    221 152.1 -28.5  34054  287.79 0855.32
2009/04/23 08:45:31.8     103   -138    -84    173    192 143.3 -31.7  34054  287.77 0855.32
2009/04/23 08:45:31.9      94   -103    -92    140    167 137.7 -40.7  34054  287.77 0855.32
2009/04/23 08:45:32.0     109    -79    -74    135    153 125.9 -35.8  34056  287.82 0855.32
2009/04/23 08:45:32.1      64    -65    -68     92    114 135.3 -44.1  34054  287.77 0855.32
2009/04/23 08:45:32.2       6    -56    -46     57     73 173.8 -48.1  34056  287.82 0855.32
2009/04/23 08:45:32.3      62   -185    -27    196    198 161.3  -8.0  34054  287.79 0855.32
2009/04/23 08:45:32.4      89   -137      6    164    165 146.8   2.3  34054  287.77 0855.32
2009/04/23 08:45:32.5     109   -155    -36    190    194 144.8 -10.9  34054  287.79 0855.32
2009/04/23 08:45:32.6     150   -124     82    195    211 129.5  24.1  34052  287.76 0855.32
2009/04/23 08:45:32.7     176    -83     68    195    207 115.3  19.4  34054  287.77 0855.32
2009/04/23 08:45:32.8     132    -84    127    157    201 122.5  43.5  34052  287.76 0855.32
2009/04/23 08:45:32.9      36    -53    117     65    133 145.7  68.8  34056  287.82 0855.32
2009/04/23 08:45:33.0      45    -34     87     57    104 126.9  64.1  34058  287.86 0855.32
2009/04/23 08:45:33.1      50    -48    108     70    128 134.1  64.6  34058  287.86 0855.32
2009/04/23 08:45:33.2     111   -151     93    188    209 143.5  28.0  34058  287.84 0855.32
2009/04/23 08:45:33.3     130   -219     71    255    265 149.3  15.6  34056  287.82 0855.32
2009/04/23 08:45:33.4      70   -214     70    226    237 161.7  17.3  34058  287.85 0855.32
2009/04/23 08:45:33.5       5   -205     51    206    213 178.4  13.9  34052  287.74 0855.32
2009/04/23 08:45:33.6       0   -170     30    171    174 180.0  10.1  34056  287.81 0855.32
2009/04/23 08:45:33.7     -53   -242     30    248    250 192.4   7.1  34054  287.78 0855.32
2009/04/23 08:45:33.8     -93   -223    -13    242    243 202.7  -3.1  34052  287.75 0855.32
2009/04/23 08:45:33.9    -111   -152    -12    189    190 216.1  -3.9  34054  287.77 0855.32
2009/04/23 08:45:34.0    -127    -95    -24    159    161 233.1  -8.8  34054  287.77 0855.32
2009/04/23 08:45:34.1    -103    -66    -59    123    136 237.1 -31.7  34054  287.77 0855.32
2009/04/23 08:45:34.2    -104    -35    -88    110    140 251.4 -47.7  34054  287.79 0855.32
2009/04/23 08:45:34.3     -67     10   -123     68    140 278.8 -73.2  34052  287.76 0855.32
2009/04/23 08:45:34.4     -44     32   -119     55    131 306.0 -77.5  34056  287.81 0855.32
2009/04/23 08:45:34.5     -56     31   -118     65    134 298.9 -73.2  34052  287.76 0855.32
2009/04/23 08:45:34.6     -31     44   -123     55    134 324.8 -78.9  34056  287.82 0855.32
2009/04/23 08:45:34.7     -45     10   -131     47    139 283.3 -84.1  34054  287.77 0855.32
2009/04/23 08:45:34.8      -2    -37    -99     38    106 184.5 -82.6  34050  287.70 0855.32
2009/04/23 08:45:34.9     -12    -31    -93     34     99 201.8 -84.1  34048  287.67 0855.32
2009/04/23 08:45:35.0      -9    -58    -65     59     87 188.9 -57.1  34048  287.69 0855.32
2009/04/23 08:45:35.1     -70    -70    -50    100    111 225.0 -32.6  34052  287.74 0855.32
2009/04/23 08:45:35.2     -12   -100    -26    101    105 187.1 -14.5  34050  287.70 0855.32
2009/04/23 08:45:35.3      30   -149     25    153    156 168.5   9.5  34048  287.67 0855.32
2009/04/23 08:45:35.4      30   -148     50    151    160 168.5  18.6  34050  287.72 0855.32
2009/04/23 08:45:35.5      78   -129     53    151    161 148.8  19.4  34046  287.65 0855.32
2009/04/23 08:45:35.6     103   -141     27    175    178 143.7   8.8  34046  287.65 0855.32
2009/04/23 08:45:35.7      81    -66     20    105    107 129.5  11.0  34048  287.69 0855.32
2009/04/23 08:45:35.8      28    -64      2     70     71 156.4   1.8  34046  287.65 0855.32
2009/04/23 08:45:35.9      35    -42    -20     55     58 140.3 -23.3  34046  287.65 0855.32
2009/04/23 08:45:36.0      38    -67    -19     78     81 150.1 -13.9  34048  287.69 0855.32
2009/04/23 08:45:36.1      -3   -103    -49    104    114 181.8 -31.5  34040  287.55 0855.32
2009/04/23 08:45:36.2     -68    -85    -72    110    131 218.7 -40.4  34038  287.52 0855.32
2009/04/23 08:45:36.3     -56    -86    -64    103    121 213.0 -39.4  34040  287.54 0855.32
2009/04/23 08:45:36.4     -25    -70     19     75     78 200.0  14.3  34044  287.60 0855.32
2009/04/23 08:45:36.5     -50    -78      1     93     94 212.6   1.2  34038  287.52 0855.32
2009/04/23 08:45:36.6     -36    -87     37     95    101 202.7  22.5  34042  287.59 0855.32
2009/04/23 08:45:36.7     -40    -82     61     92    110 206.3  36.0  34042  287.59 0855.32
2009/04/23 08:45:36.8      19   -117     23    119    122 170.7  11.0  34042  287.59 0855.32
2009/04/23 08:45:36.9     -12    -62     66     64     91 191.6  50.1  34038  287.52 0855.32
2009/04/23 08:45:37.0     -24   -101    110    104    151 193.8  52.1  34042  287.57 0855.32
2009/04/23 08:45:37.1      24   -120     82    123    147 168.5  36.5  34040  287.54 0855.32
2009/04/23 08:45:37.2      73    -93     41    119    127 142.2  19.2  34036  287.49 0855.32
2009/04/23 08:45:37.3      92    -20     49     95    106 102.4  29.8  34040  287.54 0855.32
2009/04/23 08:45:37.4      65     16     31     68     74  75.8  27.1  34038  287.52 0855.32
2009/04/23 08:45:37.5      59    -32     -8     68     69 118.9  -7.3  34040  287.55 0855.32
2009/04/23 08:45:37.6       9    -67     -3     68     69 172.0  -3.2  34040  287.55 0855.32
2009/04/23 08:45:37.7     -59    -49     -4     77     78 230.4  -3.2  34040  287.54 0855.32
2009/04/23 08:45:37.8     -11      0      0     12     13 270.0  -2.2  34038  287.52 0855.32
2009/04/23 08:45:37.9      49     -3     -9     50     51  93.5 -10.3  34040  287.54 0855.32
2009/04/23 08:45:38.0      32     25     66     41     77  52.2  64.7  34042  287.57 0855.32
2009/04/23 08:45:38.1      -3     12    -25     13     28 344.9 -75.2  34040  287.55 0855.32
2009/04/23 08:45:38.2      37    -19    -33     42     53 117.1 -48.1  34040  287.55 0855.32
2009/04/23 08:45:38.3      70    -45     -5     84     85 122.5  -3.7  34040  287.55 0855.32
2009/04/23 08:45:38.4      91    -74     22    118    121 129.1  10.6  34040  287.55 0855.32
2009/04/23 08:45:38.5     108   -108     41    153    159 134.9  15.2  34042  287.57 0855.32
2009/04/23 08:45:38.6      98   -157     48    186    193 148.1  14.7  34038  287.50 0855.32
2009/04/23 08:45:38.7      27   -123     76    127    148 167.5  33.5  34034  287.43 0855.32
2009/04/23 08:45:38.8     -68   -193     93    205    225 199.4  26.4  34036  287.49 0855.32
2009/04/23 08:45:38.9      15   -166     47    167    174 174.7  15.8  34038  287.50 0855.32
2009/04/23 08:45:39.0      80   -172     59    190    200 155.1  17.3  34036  287.49 0855.32
2009/04/23 08:45:39.1      83   -189     17    207    208 156.3   4.9  34036  287.49 0855.32
2009/04/23 08:45:39.2      58   -275     16    282    283 168.0   3.3  34034  287.44 0855.32
2009/04/23 08:45:39.3     134   -256     68    290    298 152.4  13.2  34034  287.43 0855.33
2009/04/23 08:45:39.4      89   -233     90    250    265 159.1  20.4  34032  287.39 0855.33
2009/04/23 08:45:39.5     116   -243     79    270    282 154.5  16.4  34032  287.41 0855.33
2009/04/23 08:45:39.6     126   -251     54    281    287 153.3  11.0  34030  287.36 0855.33
2009/04/23 08:45:39.7      62   -328    105    334    351 169.2  17.5  34038  287.51 0855.33
2009/04/23 08:45:39.8      45   -266     99    270    287 170.2  21.0  34040  287.53 0855.33
2009/04/23 08:45:39.9      -4   -294     71    295    304 180.9  13.5  34040  287.53 0855.33
2009/04/23 08:45:40.0      42   -298     31    302    304 172.0   5.9  34038  287.50 0855.33
2009/04/23 08:45:40.1     111   -233     63    259    267 154.4  13.7  34030  287.38 0855.33
2009/04/23 08:45:40.2      37   -261     41    264    268 171.8   8.8  34038  287.50 0855.33
2009/04/23 08:45:40.3       7   -253     49    254    259 178.2  11.1  34036  287.48 0855.33
2009/04/23 08:45:40.4       0   -216    106    217    241 180.2  28.0  34036  287.48 0855.33
2009/04/23 08:45:40.5       4   -219    114    220    247 178.9  29.5  34040  287.53 0855.33
2009/04/23 08:45:40.6      63   -332    179    339    383 169.2  30.1  34038  287.52 0855.33
2009/04/23 08:45:40.7      90   -303    112    317    336 163.5  20.2  34042  287.57 0855.33
2009/04/23 08:45:40.8      68   -264    122    273    299 165.5  25.7  34042  287.58 0855.33
2009/04/23 08:45:40.9      24   -317    182    319    367 175.5  32.3  34038  287.51 0855.33
2009/04/23 08:45:41.0      96   -261     82    279    291 159.7  16.4  34038  287.50 0855.33
2009/04/23 08:45:41.1     159   -339     75    375    383 154.8  11.4  34032  287.39 0855.33
2009/04/23 08:45:41.2     119   -367    154    386    415 162.0  23.0  34032  287.41 0855.33
2009/04/23 08:45:41.3      44   -365    176    368    407 173.1  27.3  34036  287.49 0855.34
2009/04/23 08:45:41.4     104   -335    160    351    385 162.7  26.3  34034  287.44 0855.34
2009/04/23 08:45:41.5     159   -300    186    340    387 152.0  31.3  34034  287.44 0855.34
2009/04/23 08:45:41.6     176   -272    132    325    350 147.0  23.2  34038  287.51 0855.34
2009/04/23 08:45:41.7      89   -293    137    307    336 163.0  25.7  34038  287.51 0855.34
2009/04/23 08:45:41.8     169   -244    182    298    349 145.3  34.6  34038  287.51 0855.34
2009/04/23 08:45:41.9     151   -270    195    310    366 150.8  35.3  34036  287.47 0855.34
2009/04/23 08:45:42.0      76   -209    207    223    304 159.9  47.9  34036  287.48 0855.34
2009/04/23 08:45:42.1      11   -240    170    241    294 177.3  38.8  34030  287.38 0855.34
2009/04/23 08:45:42.2     113   -220    210    248    324 152.8  44.5  34036  287.48 0855.34
2009/04/23 08:45:42.3      80   -133    186    156    242 148.8  55.8  34030  287.38 0855.34
2009/04/23 08:45:42.4      11   -150    161    151    220 175.6  52.1  34038  287.52 0855.34
2009/04/23 08:45:42.5     -56   -252    160    259    304 192.5  34.8  34038  287.50 0855.34
2009/04/23 08:45:42.6     -83   -177    159    196    252 205.3  43.3  34036  287.48 0855.34
2009/04/23 08:45:42.7    -120   -233     84    263    277 207.2  17.7  34038  287.50 0855.34
2009/04/23 08:45:42.8    -107   -225     91    250    266 205.4  20.7  34034  287.44 0855.34
2009/04/23 08:45:42.9     -79   -190     90    207    225 202.7  25.1  34034  287.43 0855.34
2009/04/23 08:45:43.0     -59   -196    118    205    236 196.9  32.4  34038  287.50 0855.34
2009/04/23 08:45:43.1     -70   -150    136    166    214 204.9  43.7  34036  287.49 0855.34
2009/04/23 08:45:43.2     -16   -105    128    107    166 188.9  56.1  34038  287.52 0855.34
2009/04/23 08:45:43.3     -21    -99     87    102    134 192.0  44.8  34038  287.50 0855.34
2009/04/23 08:45:43.4      -6   -102     99    103    142 183.6  49.0  34036  287.49 0855.34
2009/04/23 08:45:43.5      20   -142     90    144    169 172.0  35.2  34038  287.52 0855.34
2009/04/23 08:45:43.6     -23   -136    106    138    174 189.7  41.4  34036  287.49 0855.34
2009/04/23 08:45:43.7     -63   -133     72    148    164 205.3  28.0  34038  287.50 0855.34
2009/04/23 08:45:43.8     -87    -84     33    122    127 226.0  15.3  34038  287.50 0855.34
2009/04/23 08:45:43.9    -122   -121     60    173    184 225.2  19.2  34036  287.49 0855.34
2009/04/23 08:45:44.0    -149   -233     38    277    280 212.7   8.0  34038  287.51 0855.34
2009/04/23 08:45:44.1    -164   -299    -30    342    344 208.8  -5.1  34032  287.42 0855.34
2009/04/23 08:45:44.2     -98   -284     42    301    305 199.2   8.0  34036  287.46 0855.34
2009/04/23 08:45:44.3     -77   -254     64    266    274 196.9  13.7  34036  287.46 0855.34
2009/04/23 08:45:44.4    -164   -281    118    326    347 210.2  19.9  34038  287.51 0855.34
2009/04/23 08:45:44.5     -99   -197     37    221    225 206.7   9.5  34036  287.47 0855.34
2009/04/23 08:45:44.6     -69   -156     57    171    181 203.8  18.4  34036  287.47 0855.34
2009/04/23 08:45:44.7     -49   -138     71    147    163 199.6  27.8  34036  287.49 0855.34
2009/04/23 08:45:44.8     -22   -109    107    112    154 191.5  49.0  34036  287.47 0855.34
2009/04/23 08:45:45.0     -35   -142    111    147    184 193.8  40.7  34034  287.45 0855.34
2009/04/23 08:45:45.0     -50   -161    129    169    212 197.4  41.4  34036  287.49 0855.34
2009/04/23 08:45:45.1      -5   -146    106    147    181 182.2  39.5  34036  287.47 0855.34
2009/04/23 08:45:45.2      37   -165    138    170    218 167.1  43.5  34036  287.47 0855.34
2009/04/23 08:45:45.3      68    -94    115    117    164 143.9  50.0  34034  287.43 0855.34
2009/04/23 08:45:45.4      78   -308    123    318    340 165.7  22.3  34034  287.44 0855.34
2009/04/23 08:45:45.5     104   -298     55    316    321 160.6   9.9  34032  287.39 0855.34
2009/04/23 08:45:45.6      87   -275     70    289    298 162.4  13.7  34034  287.43 0855.34
2009/04/23 08:45:45.7     102   -295     33    313    315 160.8   6.1  34032  287.41 0855.34
2009/04/23 08:45:45.8     154   -260     54    303    308 149.3  10.1  34034  287.44 0855.34
2009/04/23 08:45:45.9     187   -233     88    299    312 141.3  16.4  34032  287.41 0855.34
2009/04/23 08:45:46.0     168   -166    138    237    274 134.7  32.7  34036  287.46 0855.34
2009/04/23 08:45:46.1     200   -135     38    242    246 124.1   8.9  34036  287.46 0855.34
2009/04/23 08:45:46.2     158   -133    106    207    232 130.0  29.3  34034  287.45 0855.34
2009/04/23 08:45:46.3      87   -158    103    181    208 151.0  32.4  34034  287.43 0855.34
2009/04/23 08:45:46.4      46   -160     39    167    172 163.7  13.2  34032  287.40 0855.34
2009/04/23 08:45:46.5     -44   -169     27    175    178 194.9   8.8  34032  287.40 0855.34
2009/04/23 08:45:46.6     -44   -201     -9    206    207 192.5  -2.6  34030  287.38 0855.34
2009/04/23 08:45:46.7      34   -167    -50    171    178 168.4 -21.0  34034  287.43 0855.34
2009/04/23 08:45:46.8     133   -113    -48    175    182 130.4 -15.4  34032  287.42 0855.34
2009/04/23 08:45:46.9     122   -121     26    173    176 134.8   8.8  34034  287.43 0855.34
2009/04/23 08:45:47.0      78   -151    -13    171    172 152.6  -4.4  34034  287.45 0855.34
2009/04/23 08:45:47.1     141   -229    -44    269    273 148.4  -9.4  34034  287.43 0855.34
2009/04/23 08:45:47.2      91   -271     27    287    289 161.3   5.4  34034  287.43 0855.34
2009/04/23 08:45:47.3      76   -170    -12    187    188 155.9  -3.9  34032  287.40 0855.34
2009/04/23 08:45:47.4      64   -204   -110    214    240 162.6 -33.7  34032  287.39 0855.34
2009/04/23 08:45:47.5      95   -261    -35    278    281 160.0  -7.2  34030  287.38 0855.34
2009/04/23 08:45:47.6      41   -341    -26    344    346 173.1  -4.5  34032  287.42 0855.34
2009/04/23 08:45:47.7      39   -369    -75    372    380 173.9 -11.5  34028  287.35 0855.34
2009/04/23 08:45:47.8     -15   -411    -16    412    413 182.1  -2.2  34028  287.35 0855.34
2009/04/23 08:45:47.9      25   -399    -43    400    403 176.4  -6.2  34030  287.37 0855.34
2009/04/23 08:45:48.0      38   -394   -106    396    410 174.4 -15.0  34028  287.35 0855.34
2009/04/23 08:45:48.1      29   -354    -98    356    370 175.2 -15.4  34032  287.40 0855.34
2009/04/23 08:45:48.2      81   -379   -107    388    403 167.9 -15.4  34032  287.39 0855.34
2009/04/23 08:45:48.3      58   -338    -95    344    357 170.2 -15.5  34032  287.40 0855.34
2009/04/23 08:45:48.4     -10   -379    -83    380    390 181.6 -12.4  34032  287.40 0855.34
2009/04/23 08:45:48.5     -82   -366   -112    376    392 192.7 -21.5  34026  287.29 0855.34
2009/04/23 08:45:48.6    -112   -451    -70    465    471 194.0  -8.6  34030  287.37 0855.34
2009/04/23 08:45:48.7    -100   -323   -133    339    364 197.3 -27.1  34030  287.37 0855.34
2009/04/23 08:45:48.8     -35   -342   -102    344    358 185.9 -21.5  34028  287.34 0855.34
2009/04/23 08:45:48.9      13   -332    -93    333    345 177.7 -20.2  34032  287.40 0855.34
2009/04/23 08:45:49.0      -4   -268   -111    269    291 180.9 -28.2  34030  287.36 0855.34
2009/04/23 08:45:49.1       4   -255   -116    256    281 178.9 -30.6  34030  287.36 0855.34
2009/04/23 08:45:49.2     -60   -199   -138    209    250 196.9 -40.9  34036  287.48 0855.34
2009/04/23 08:45:49.3     -39   -278   -174    281    330 188.0 -39.3  34032  287.41 0855.33
2009/04/23 08:45:49.4      -1   -323   -175    324    368 180.2 -35.1  34032  287.39 0855.33
2009/04/23 08:45:49.5     -10   -326   -146    327    358 181.8 -30.1  34032  287.40 0855.33
2009/04/23 08:45:49.6     -10   -387   -140    388    412 181.6 -25.2  34034  287.45 0855.33
2009/04/23 08:45:49.7      -4   -379   -142    380    405 180.7 -25.8  34032  287.42 0855.33
2009/04/23 08:45:49.8     -37   -469    -71    471    477 184.6  -8.6  34032  287.41 0855.33
2009/04/23 08:45:49.9     -17   -393    -66    394    400 182.5  -9.6  34032  287.40 0855.33
2009/04/23 08:45:50.0      34   -444    -76    446    453 175.6  -9.8  34036  287.46 0855.33
2009/04/23 08:45:50.1     -79   -391    138    399    423 191.5  19.2  34030  287.38 0855.33
2009/04/23 08:45:50.2     -32   -369    140    371    396 185.0  21.7  34036  287.47 0855.33
2009/04/23 08:45:50.3      19   -349     74    350    358 176.9  12.0  34032  287.42 0855.33
2009/04/23 08:45:50.4     -88   -458     58    467    471 190.9   7.1  34034  287.44 0855.33
2009/04/23 08:45:50.5    -144   -492     81    513    520 196.4   9.0  34032  287.42 0855.33
2009/04/23 08:45:50.6    -167   -487     39    516    518 199.0   4.4  34032  287.42 0855.33
2009/04/23 08:45:50.7    -100   -490     42    501    503 191.6   4.9  34036  287.46 0855.33
2009/04/23 08:45:50.8    -166   -471    -19    500    501 199.4  -2.2  34032  287.42 0855.33
2009/04/23 08:45:50.9    -105   -422     57    435    439 194.0   7.6  34038  287.50 0855.33
2009/04/23 08:45:51.0    -160   -500     48    526    529 197.8   5.3  34032  287.42 0855.33
2009/04/23 08:45:51.1    -146   -543    -21    563    564 195.1  -2.2  34034  287.43 0855.33
2009/04/23 08:45:51.2    -207   -436   -119    483    498 205.5 -13.9  34032  287.41 0855.33
2009/04/23 08:45:51.3    -190   -398    -24    442    443 205.5  -3.2  34036  287.46 0855.32
2009/04/23 08:45:51.4    -199   -397    -52    445    449 206.6  -6.7  34032  287.41 0855.32
2009/04/23 08:45:51.5    -133   -392    -12    415    416 198.8  -1.7  34038  287.50 0855.32
2009/04/23 08:45:51.6    -189   -355    -52    403    407 208.1  -7.4  34032  287.41 0855.32
2009/04/23 08:45:51.7    -154   -242    -96    288    304 212.5 -18.6  34040  287.53 0855.32
2009/04/23 08:45:51.8     -44   -275    -25    279    281 189.1  -5.2  34036  287.46 0855.32
2009/04/23 08:45:51.9     -26   -286    -27    288    290 185.3  -5.4  34038  287.50 0855.32
2009/04/23 08:45:52.0     -37   -314    -98    317    332 186.9 -17.3  34036  287.46 0855.32
2009/04/23 08:45:52.1     -60   -298    -38    305    308 191.5  -7.2  34036  287.48 0855.32
2009/04/23 08:45:52.2     -78   -319    -91    329    342 193.8 -15.5  34036  287.47 0855.32
2009/04/23 08:45:52.3     -32   -314    -48    316    320 186.0  -8.7  34036  287.48 0855.31
2009/04/23 08:45:52.4     -19   -321    -53    322    327 183.4  -9.3  34034  287.44 0855.31
2009/04/23 08:45:52.5     -93   -296   -109    311    330 197.4 -19.4  34036  287.46 0855.31
2009/04/23 08:45:52.6      12   -276    -93    277    293 177.4 -18.7  34034  287.44 0855.31
2009/04/23 08:45:52.7     -23   -298    -71    299    308 184.5 -13.4  34036  287.46 0855.31
2009/04/23 08:45:52.8     -13   -288    -94    289    304 182.6 -18.1  34040  287.55 0855.31
2009/04/23 08:45:52.9     -96   -300    -29    316    318 197.8  -5.4  34038  287.50 0855.31
2009/04/23 08:45:53.0    -128   -271    -37    300    303 205.3  -7.2  34032  287.41 0855.31
2009/04/23 08:45:53.1     -46   -297    -85    301    313 188.9 -15.8  34036  287.46 0855.31
2009/04/23 08:45:53.3    -143   -262   -106    299    317 208.7 -24.6  34036  287.48 0855.31
2009/04/23 08:45:53.3    -147   -309   -107    343    359 205.5 -22.4  34032  287.39 0855.31
2009/04/23 08:45:53.4     -55   -289    -86    295    308 190.9 -16.4  34040  287.55 0855.31
2009/04/23 08:45:53.5    -143   -299    -92    332    345 205.6 -15.5  34038  287.52 0855.31
2009/04/23 08:45:53.7    -132   -262    -37    294    297 206.7  -7.3  34038  287.50 0855.31
2009/04/23 08:45:53.8     -50   -168    -35    176    180 196.5 -11.3  34040  287.55 0855.31
2009/04/23 08:45:53.9      -6   -146    -31    147    151 182.7 -11.9  34038  287.50 0855.31
2009/04/23 08:45:54.0      62   -246   -114    254    278 165.7 -30.3  34038  287.51 0855.31
2009/04/23 08:45:54.1      14   -246   -114    247    272 176.6 -31.0  34038  287.51 0855.31
2009/04/23 08:45:54.2     -47   -234   -122    239    268 191.5 -33.6  34042  287.58 0855.31
2009/04/23 08:45:54.3      44   -173    -52    179    186 165.7 -20.7  34040  287.54 0855.31
2009/04/23 08:45:54.4      54   -168    -65    177    188 162.0 -25.4  34038  287.52 0855.31
2009/04/23 08:45:54.5      62   -134    -71    148    164 155.1 -31.8  34040  287.54 0855.31
2009/04/23 08:45:54.6     133   -202    -44    243    247 146.6 -10.3  34040  287.53 0855.31
2009/04/23 08:45:54.7     166   -194     42    256    260 139.4   9.3  34036  287.48 0855.31
2009/04/23 08:45:54.8     129   -180     55    222    229 144.2  13.9  34040  287.54 0855.31
2009/04/23 08:45:54.9     114   -127     75    172    187 138.1  25.1  34042  287.57 0855.31
2009/04/23 08:45:55.0      82   -120    134    146    198 145.7  47.7  34038  287.52 0855.31
2009/04/23 08:45:55.1      21    -86    123     89    151 165.7  60.5  34042  287.57 0855.31
2009/04/23 08:45:55.2      62   -167    148    179    232 159.5  43.8  34044  287.60 0855.31
2009/04/23 08:45:55.3      32   -226    142    229    269 171.8  35.0  34040  287.53 0855.31
2009/04/23 08:45:55.4      35   -203    153    207    257 170.2  40.1  34040  287.55 0855.31
2009/04/23 08:45:55.5       0   -206    121    207    239 180.0  33.1  34040  287.55 0855.31
2009/04/23 08:45:55.6       1   -220    111    221    247 179.5  28.7  34042  287.56 0855.31
2009/04/23 08:45:55.7      -3   -195    109    196    224 180.9  31.4  34040  287.54 0855.31
2009/04/23 08:45:55.8      -5   -189    123    190    226 181.6  35.6  34044  287.62 0855.31
2009/04/23 08:45:55.9     -15   -196    121    197    231 184.5  35.0  34042  287.59 0855.31
2009/04/23 08:45:56.0      -3   -223    126    224    257 180.9  31.9  34042  287.58 0855.31
2009/04/23 08:45:56.1      -4   -254    135    255    288 181.0  30.2  34044  287.60 0855.31
2009/04/23 08:45:56.2       9   -208    160    209    263 177.5  41.2  34042  287.58 0855.31
2009/04/23 08:45:56.3      15   -248    123    249    277 176.4  28.2  34040  287.55 0855.31
2009/04/23 08:45:56.4      -4   -284    109    285    305 180.9  22.0  34044  287.61 0855.31
2009/04/23 08:45:56.5      13   -251    165    252    301 176.9  36.0  34044  287.60 0855.31
2009/04/23 08:45:56.6       8   -270    164    271    316 178.2  34.0  34046  287.65 0855.31
2009/04/23 08:45:56.7      -5   -311    119    312    333 181.0  22.0  34044  287.60 0855.31
2009/04/23 08:45:56.8      -9   -290    139    291    322 181.8  27.3  34042  287.58 0855.31
2009/04/23 08:45:56.9       0   -259    145    260    297 179.8  31.4  34040  287.55 0855.31
2009/04/23 08:45:57.0      11   -235    165    236    287 177.1  38.4  34044  287.60 0855.31
2009/04/23 08:45:57.1       1   -210    123    211    244 179.5  33.1  34042  287.58 0855.31
2009/04/23 08:45:57.2     -28   -193    100    196    220 188.2  29.2  34042  287.59 0855.31
2009/04/23 08:45:57.3     -61   -186    104    196    221 198.3  30.6  34044  287.60 0855.31
2009/04/23 08:45:57.4     -33   -143    109    147    183 193.3  40.1  34044  287.60 0855.31
2009/04/23 08:45:57.5     -47   -150    109    158    191 197.4  37.8  34044  287.60 0855.31
2009/04/23 08:45:57.6     -31   -174    124    177    216 190.2  38.8  34042  287.59 0855.31
2009/04/23 08:45:57.7     -30   -186    105    189    216 189.3  31.4  34040  287.55 0855.31
2009/04/23 08:45:57.8     -50   -214    109    220    245 193.3  28.2  34044  287.60 0855.31
2009/04/23 08:45:57.9    -176   -281     54    332    337 212.0   9.3  34048  287.67 0855.31
2009/04/23 08:45:58.0    -121   -255     35    283    286 205.5   7.1  34042  287.58 0855.31
2009/04/23 08:45:58.1    -135   -199     15    241    242 214.3   3.6  34046  287.63 0855.31
2009/04/23 08:45:58.2     -98   -199     23    223    225 206.3   6.1  34042  287.59 0855.31
2009/04/23 08:45:58.3    -145   -246    113    286    307 210.7  23.0  34042  287.58 0855.31
2009/04/23 08:45:58.4    -163   -203      9    261    262 218.7   2.1  34042  287.58 0855.31
2009/04/23 08:45:58.5    -140   -218     14    260    261 212.6   3.3  34044  287.60 0855.31
2009/04/23 08:45:58.6    -113   -207     69    237    247 208.7  16.3  34042  287.56 0855.31
2009/04/23 08:45:58.7    -108   -218     99    244    263 206.5  23.1  34046  287.63 0855.31
2009/04/23 08:45:58.8    -104   -191     82    218    232 208.7  21.3  34042  287.59 0855.31
2009/04/23 08:45:58.9     -58   -155     86    166    186 200.7  29.3  34040  287.54 0855.31
2009/04/23 08:45:59.0     -57   -166    113    176    209 198.9  35.6  34044  287.60 0855.31
2009/04/23 08:45:59.1     -84   -139     52    163    172 211.2  17.7  34042  287.57 0855.31
2009/04/23 08:45:59.2    -128   -128     25    182    184 225.0   8.0  34044  287.60 0855.31
2009/04/23 08:45:59.3     -67   -175     59    188    198 200.9  17.4  34044  287.62 0855.31
2009/04/23 08:45:59.4    -179   -242     47    302    306 216.5   9.0  34042  287.58 0855.31
2009/04/23 08:45:59.5    -190   -207    -15    282    283 222.5  -3.1  34044  287.60 0855.31
2009/04/23 08:45:59.6    -161   -165     17    231    232 224.3   4.4  34048  287.67 0855.31
2009/04/23 08:45:59.7    -153   -173     -2    232    233 221.4  -0.7  34044  287.60 0855.31
2009/04/23 08:45:59.8    -115   -128     67    173    185 221.9  22.3  34044  287.62 0855.31
2009/04/23 08:45:59.9     -73   -133     43    152    159 208.9  15.8  34044  287.62 0855.31
2009/04/23 08:46:00.0     -91    -96     19    133    135 223.2   8.5  34048  287.67 0855.31
2009/04/23 08:46:00.1     -78    -90     27    120    124 221.0  12.6  34046  287.64 0855.31
2009/04/23 08:46:00.2     -64   -127     44    143    150 206.7  17.3  34048  287.67 0855.31
2009/04/23 08:46:00.3     -46   -121     35    130    135 200.9  15.2  34046  287.64 0855.31
2009/04/23 08:46:00.4     -29   -110     39    114    121 195.2  18.9  34046  287.65 0855.30
2009/04/23 08:46:00.5       2   -141     51    142    150 179.0  20.0  34044  287.60 0855.30
2009/04/23 08:46:00.6     -63   -100     55    119    131 212.5  27.1  34044  287.62 0855.30
2009/04/23 08:46:00.7     -96    -45     61    107    123 244.8  32.9  34044  287.62 0855.30
2009/04/23 08:46:00.8     -34    -22     46     41     61 237.5  53.3  34046  287.64 0855.30
2009/04/23 08:46:00.9       4      7    -18      9     20  32.5 -75.2  34044  287.62 0855.30
2009/04/23 08:46:01.0     -13     -4    -34     14     36 251.6 -81.5  34044  287.62 0855.30
2009/04/23 08:46:01.1      16    -46    -83     49     96 160.0 -70.6  34044  287.62 0855.30
2009/04/23 08:46:01.2      -3      8   -113      9    113 334.6 -90.0  34046  287.65 0855.30
2009/04/23 08:46:01.3     -27    -48    -94     56    109 209.0 -70.6  34050  287.70 0855.30
2009/04/23 08:46:01.4      60    -20    -37     64     73 108.4 -36.8  34042  287.59 0855.30
2009/04/23 08:46:01.5      89    -56     12    106    107 122.0   6.9  34044  287.62 0855.30
2009/04/23 08:46:01.6      59    -23    -21     64     67 111.7 -23.8  34044  287.62 0855.30
2009/04/23 08:46:01.7      98    -59    -19    115    117 121.1  -9.4  34044  287.60 0855.30
2009/04/23 08:46:01.8      48    -71    -61     87    106 145.7 -43.0  34046  287.65 0855.30
2009/04/23 08:46:01.9      53   -107    -14    120    121 153.7  -6.7  34044  287.62 0855.30
2009/04/23 08:46:02.0      68    -93     14    116    117 143.9   7.1  34044  287.62 0855.30
2009/04/23 08:46:02.1      43    -93     21    103    106 155.1  11.6  34046  287.64 0855.30
2009/04/23 08:46:02.2      33    -83    -47     90    101 158.2 -34.2  34046  287.65 0855.30
2009/04/23 08:46:02.3      21   -104    -84    107    136 168.4 -46.6  34044  287.62 0855.30
2009/04/23 08:46:02.4      14   -104    -65    106    124 172.0 -39.4  34046  287.65 0855.29
2009/04/23 08:46:02.5     -19   -113    -46    115    123 189.8 -27.4  34046  287.65 0855.29
2009/04/23 08:46:02.6     -42   -108    -41    117    125 201.4 -19.6  34046  287.64 0855.29
2009/04/23 08:46:02.7     -64   -126    -72    142    159 207.2 -33.5  34044  287.62 0855.29
2009/04/23 08:46:02.8     -43   -131   -101    139    171 198.3 -44.3  34046  287.65 0855.29
2009/04/23 08:46:02.9     -43   -159   -104    165    195 195.4 -39.9  34044  287.62 0855.29
2009/04/23 08:46:03.0     -49   -182   -110    189    218 195.2 -37.3  34044  287.60 0855.29
2009/04/23 08:46:03.1     -67   -160    -84    174    193 202.7 -31.8  34044  287.60 0855.29
2009/04/23 08:46:03.2      -6   -152      7    153    154 182.6   2.9  34044  287.60 0855.29
2009/04/23 08:46:03.3       8   -158     63    159    171 176.9  22.8  34044  287.62 0855.29
2009/04/23 08:46:03.4     -47   -143     48    151    159 198.3  17.7  34046  287.65 0855.29
2009/04/23 08:46:03.5     -28   -117     23    121    124 193.4  11.1  34048  287.67 0855.29
2009/04/23 08:46:03.6      -3   -128      6    129    130 181.4   2.9  34046  287.65 0855.29
2009/04/23 08:46:03.7     -13   -116     63    117    132 186.7  31.3  34040  287.55 0855.29
2009/04/23 08:46:03.8      14   -191     23    192    194 175.5   7.1  34044  287.60 0855.29
2009/04/23 08:46:03.9      13   -177    -37    178    182 175.8 -11.9  34050  287.72 0855.29
2009/04/23 08:46:04.0     -23   -235    -24    237    239 185.6  -6.0  34046  287.63 0855.29
2009/04/23 08:46:04.1     -62   -209    -26    219    221 196.7  -6.9  34044  287.60 0855.29
2009/04/23 08:46:04.2     -61   -192    -34    202    205 197.6  -9.6  34042  287.59 0855.29
2009/04/23 08:46:04.3     -81   -162    -23    182    184 206.7  -7.5  34044  287.62 0855.29
2009/04/23 08:46:04.4     -46   -168     39    175    180 195.4  12.6  34050  287.70 0855.28
2009/04/23 08:46:04.5      -1   -191     85    192    209 180.5  25.3  34044  287.62 0855.28
2009/04/23 08:46:04.6     -22   -178     35    180    184 187.1  11.1  34046  287.65 0855.28
2009/04/23 08:46:04.7     -85   -305     -7    317    318 195.6  -1.4  34046  287.65 0855.28
2009/04/23 08:46:04.8     -32   -334     25    336    337 185.6   4.4  34048  287.67 0855.28
2009/04/23 08:46:04.9     -38   -353     72    356    364 186.2  11.6  34044  287.62 0855.28
2009/04/23 08:46:05.0     -28   -346      7    348    349 184.7   1.2  34048  287.69 0855.28
2009/04/23 08:46:05.1      45   -334     -7    338    339 172.2  -1.3  34044  287.62 0855.28
2009/04/23 08:46:05.2      21   -317     13    318    319 176.2   2.3  34044  287.61 0855.28
2009/04/23 08:46:05.3     -25   -339    -17    340    341 184.2  -3.0  34044  287.61 0855.28
2009/04/23 08:46:05.4     -30   -296    -16    298    299 185.8  -3.2  34044  287.60 0855.28
2009/04/23 08:46:05.5     -58   -254    -33    261    264 192.9  -7.3  34044  287.60 0855.28
2009/04/23 08:46:05.6     -37   -250     67    253    262 188.5  15.0  34048  287.66 0855.28
2009/04/23 08:46:05.7      18   -202     53    203    210 174.7  14.7  34044  287.60 0855.28
2009/04/23 08:46:05.8      18   -155     74    157    173 173.3  27.1  34048  287.67 0855.28
2009/04/23 08:46:05.9     -15   -195    149    196    246 184.5  41.2  34046  287.64 0855.28
2009/04/23 08:46:06.0     -52   -215     76    222    235 193.6  18.9  34048  287.67 0855.28
2009/04/23 08:46:06.1     -25   -162    103    165    194 188.9  35.5  34046  287.64 0855.28
2009/04/23 08:46:06.2       1   -162    128    163    207 179.5  42.2  34046  287.64 0855.28
2009/04/23 08:46:06.3      22   -162    119    164    202 172.2  39.5  34046  287.65 0855.28
2009/04/23 08:46:06.4      -2   -134     91    135    162 180.9  37.0  34048  287.69 0855.28
2009/04/23 08:46:06.5      -3   -100     92    101    136 181.8  47.5  34046  287.65 0855.28
2009/04/23 08:46:06.6      31   -114     85    119    146 164.4  39.5  34048  287.67 0855.28
2009/04/23 08:46:06.7      35   -129     95    134    164 164.8  38.6  34048  287.69 0855.28
2009/04/23 08:46:06.8      13   -143     79    144    164 174.7  31.4  34048  287.67 0855.28
2009/04/23 08:46:06.9      11   -145     91    146    172 175.6  35.0  34048  287.69 0855.28
2009/04/23 08:46:07.0     -10   -140     93    141    168 184.4  36.5  34046  287.64 0855.28
2009/04/23 08:46:07.1      21   -155     73    157    173 172.0  26.6  34046  287.65 0855.28
2009/04/23 08:46:07.2       5   -205     38    206    210 178.4  10.6  34050  287.72 0855.28
2009/04/23 08:46:07.3     -17   -228     28    229    231 184.4   7.1  34048  287.69 0855.28
2009/04/23 08:46:07.4     -22   -219     26    221    223 186.0   6.9  34046  287.65 0855.28
2009/04/23 08:46:07.5     -27   -217     39    219    223 187.3  10.3  34046  287.64 0855.28
2009/04/23 08:46:07.6     -47   -230      8    235    236 191.6   2.1  34044  287.61 0855.28
2009/04/23 08:46:07.7     -15   -196     38    197    201 184.4  11.1  34044  287.60 0855.28
2009/04/23 08:46:07.8     -53   -181    127    189    227 196.3  37.3  34042  287.57 0855.28
2009/04/23 08:46:07.9     -91   -209    148    229    272 203.6  35.6  34044  287.60 0855.28
2009/04/23 08:46:08.0     -19   -137    122    139    184 188.0  45.8  34044  287.60 0855.28
2009/04/23 08:46:08.1      -2    -91    116     92    148 181.4  57.5  34046  287.64 0855.28
2009/04/23 08:46:08.2     -23   -103    125    106    163 192.9  55.6  34046  287.64 0855.28
2009/04/23 08:46:08.3       0   -101    127    102    162 180.5  57.1  34040  287.55 0855.28
2009/04/23 08:46:08.4      -4    -57    139     58    150 184.5  76.6  34042  287.57 0855.28
2009/04/23 08:46:08.5      14     12     89     19     91  50.5  89.0  34044  287.60 0855.28
2009/04/23 08:46:08.6     -16    -16    103     24    105 225.0  87.5  34044  287.60 0855.28
2009/04/23 08:46:08.7      77      5     70     78    104  85.6  46.9  34044  287.62 0855.28
2009/04/23 08:46:08.8      14     95     48     97    108   8.9  27.3  34044  287.62 0855.28
2009/04/23 08:46:08.9       7      7     54     11     55  45.0  89.1  34042  287.57 0855.28
2009/04/23 08:46:09.0     -30     -4     71     31     77 262.1  75.0  34044  287.60 0855.28
2009/04/23 08:46:09.1      33     33     65     47     80  45.0  60.5  34044  287.62 0855.28
2009/04/23 08:46:09.2     142    -23     21    144    146  99.2   8.5  34044  287.60 0855.28
2009/04/23 08:46:09.3     180   -123     24    219    221 124.4   6.5  34044  287.62 0855.28
2009/04/23 08:46:09.4     150   -107     51    185    193 125.7  15.6  34046  287.65 0855.28
2009/04/23 08:46:09.5     140    -86     62    165    176 121.5  21.5  34048  287.67 0855.28
2009/04/23 08:46:09.6      67   -108     64    128    143 148.4  28.7  34046  287.65 0855.28
2009/04/23 08:46:09.7      88    -70     69    113    132 128.6  34.4  34046  287.64 0855.28
2009/04/23 08:46:09.8      53    -61     75     81    110 139.0  47.9  34048  287.67 0855.28
2009/04/23 08:46:09.9      12    -60     67     62     91 168.5  52.2  34048  287.67 0855.28
2009/04/23 08:46:10.0     -23    -72     91     76    118 198.3  55.8  34046  287.65 0855.28
2009/04/23 08:46:10.1     -27    -83     96     88    130 198.3  52.7  34050  287.70 0855.28
2009/04/23 08:46:10.2     -22    -92    126     95    157 193.4  59.2  34050  287.70 0855.28
2009/04/23 08:46:10.3       4    -86     91     87    125 177.3  51.2  34048  287.69 0855.29
2009/04/23 08:46:10.4      51    -88     73    103    126 149.7  39.1  34050  287.72 0855.29
2009/04/23 08:46:10.5     -32    -59    107     68    126 208.9  64.7  34048  287.69 0855.29
2009/04/23 08:46:10.6      -1    -78    101     79    128 180.9  57.9  34050  287.70 0855.29
2009/04/23 08:46:10.7       2    -62     78     63    100 177.3  56.9  34052  287.74 0855.29
2009/04/23 08:46:10.8     -25    -75     70     80    106 198.7  46.4  34048  287.69 0855.29
2009/04/23 08:46:10.9     -24   -119     99    122    157 191.5  43.3  34050  287.72 0855.29
2009/04/23 08:46:11.0     -27   -136     68    139    154 191.5  27.3  34048  287.67 0855.29
2009/04/23 08:46:11.1     -66   -112     52    131    140 210.7  23.0  34046  287.65 0855.29
2009/04/23 08:46:11.2     -81    -96     65    126    141 220.1  29.3  34050  287.72 0855.29
2009/04/23 08:46:11.3     -69    -41     59     81    100 239.3  39.7  34048  287.67 0855.29
2009/04/23 08:46:11.4     -23    -23     32     33     45 225.0  50.0  34050  287.72 0855.29
2009/04/23 08:46:11.5     -42    -50    -18     66     69 219.6 -15.4  34050  287.70 0855.29
2009/04/23 08:46:11.6     -33    -83    -40     90     98 201.8 -30.1  34050  287.70 0855.29
2009/04/23 08:46:11.7     -58   -125     47    138    146 204.9  18.9  34052  287.74 0855.29
2009/04/23 08:46:11.8     -49   -143    -16    152    153 199.2  -6.2  34048  287.69 0855.29
2009/04/23 08:46:11.9     -41   -122    -11    129    130 198.7  -5.1  34050  287.72 0855.29
2009/04/23 08:46:12.0     -47   -119    -22    129    131 201.8  -9.8  34050  287.70 0855.29
2009/04/23 08:46:12.1     -65   -124      3    141    142 207.6   1.2  34048  287.69 0855.29
2009/04/23 08:46:12.2    -102   -150      3    182    183 214.1   1.0  34048  287.69 0855.29
2009/04/23 08:46:12.3     -91   -137      0    165    166 213.6   0.2  34050  287.70 0855.28
2009/04/23 08:46:12.4     -66   -120    -30    138    142 208.9 -12.4  34048  287.69 0855.28
2009/04/23 08:46:12.5     -94   -106    -25    142    145 221.5 -10.3  34046  287.64 0855.28
2009/04/23 08:46:12.6     -59    -48    -31     77     83 230.5 -27.4  34048  287.69 0855.28
2009/04/23 08:46:12.7     -60     -8    -18     61     63 262.0 -21.7  34046  287.64 0855.28
2009/04/23 08:46:12.8     -57      6      7     58     59 276.1   7.1  34044  287.62 0855.28
2009/04/23 08:46:12.9     -28     55     77     62     98 332.8  56.4  34048  287.67 0855.28
2009/04/23 08:46:13.0     -23     57    100     62    117 337.3  65.1  34046  287.65 0855.28
2009/04/23 08:46:13.1     -94     45     56    105    119 295.4  30.3  34048  287.67 0855.28
2009/04/23 08:46:13.2    -109     74     56    132    143 304.2  24.1  34046  287.65 0855.28
2009/04/23 08:46:13.3    -127     70      7    146    147 298.9   2.8  34046  287.64 0855.28
2009/04/23 08:46:13.4    -176      1     37    177    181 270.6  12.0  34046  287.65 0855.28
2009/04/23 08:46:13.5    -101    -28     11    105    106 254.5   6.5  34046  287.65 0855.28
2009/04/23 08:46:13.6      -7    -56     32     57     65 187.1  31.4  34048  287.67 0855.28
2009/04/23 08:46:13.7     -18    -47     29     51     58 200.9  33.5  34050  287.70 0855.28
2009/04/23 08:46:13.8      12    -40      3     42     43 163.1   4.9  34050  287.72 0855.28
2009/04/23 08:46:13.9      27    -22     46     35     57 129.5  58.5  34052  287.76 0855.28
2009/04/23 08:46:14.0     -30    -77     64     83    104 201.8  41.2  34050  287.70 0855.28
2009/04/23 08:46:14.1     -31    -95     69    101    122 198.3  37.6  34052  287.74 0855.28
2009/04/23 08:46:14.2     -65   -110     46    128    136 210.7  20.4  34050  287.72 0855.28
2009/04/23 08:46:14.3      -8    -67     62     68     92 187.1  47.5  34050  287.72 0855.28
2009/04/23 08:46:14.4     -11    -91     68     92    114 187.1  39.7  34050  287.70 0855.28
2009/04/23 08:46:14.5     -15   -111     47    113    122 188.1  23.6  34048  287.69 0855.28
2009/04/23 08:46:14.6     -49   -103     77    115    138 205.5  37.4  34048  287.69 0855.28
2009/04/23 08:46:14.7     -68    -81     82    106    134 220.1  41.7  34048  287.67 0855.28
2009/04/23 08:46:14.8     -61    -79     63    101    119 217.8  35.5  34048  287.69 0855.28
2009/04/23 08:46:14.9     -67    -67     83     95    126 225.0  45.8  34048  287.69 0855.28
2009/04/23 08:46:15.0     -48    -45     59     67     89 226.9  46.4  34048  287.67 0855.28
2009/04/23 08:46:15.1     -35    -98     17    105    107 199.6   9.5  34050  287.70 0855.28
2009/04/23 08:46:15.2       2   -123     -1    124    125 179.0  -0.7  34048  287.67 0855.28
2009/04/23 08:46:15.3      52   -177     50    185    192 163.5  15.2  34048  287.67 0855.28
2009/04/23 08:46:15.4      47   -187     44    193    199 165.7  12.9  34048  287.69 0855.28
2009/04/23 08:46:15.5      36   -203     17    207    208 169.8   4.9  34048  287.67 0855.28
2009/04/23 08:46:15.6      58   -172     56    182    191 161.3  17.1  34048  287.67 0855.28
2009/04/23 08:46:15.7      67   -189     31    201    204 160.4   8.9  34048  287.69 0855.28
2009/04/23 08:46:15.8     127   -163     37    207    211 142.2  10.1  34048  287.67 0855.28
2009/04/23 08:46:15.9      91   -190    -19    211    213 154.4  -5.4  34048  287.69 0855.28
2009/04/23 08:46:16.0      51   -221     11    227    228 166.9   2.8  34052  287.76 0855.28
2009/04/23 08:46:16.1      38   -226     -9    230    231 170.3  -2.2  34048  287.69 0855.28
2009/04/23 08:46:16.2      38   -201    -32    205    208 169.1  -9.0  34052  287.74 0855.28
2009/04/23 08:46:16.3      28   -202    -34    205    208 172.0  -9.6  34050  287.72 0855.28
2009/04/23 08:46:16.4     -39   -161     33    166    170 193.8  11.4  34052  287.74 0855.28
2009/04/23 08:46:16.5     -65   -124     -2    141    142 207.6  -1.2  34048  287.67 0855.28
2009/04/23 08:46:16.6     -38   -123     13    129    130 197.4   5.9  34048  287.67 0855.28
2009/04/23 08:46:16.7     -32   -119     20    124    126 195.1   9.5  34052  287.74 0855.28
2009/04/23 08:46:16.8     -38   -116     30    123    127 198.5  13.7  34048  287.69 0855.28
2009/04/23 08:46:16.9     -50   -132      0    142    143 200.9   0.2  34048  287.67 0855.28
2009/04/23 08:46:17.0     -27   -137     14    140    141 191.5   5.9  34050  287.70 0855.28
2009/04/23 08:46:17.1     -36   -125     30    131    135 196.0  13.2  34048  287.69 0855.28
2009/04/23 08:46:17.2     -49   -124     60    134    146 201.8  26.2  34050  287.70 0855.28
2009/04/23 08:46:17.3       2   -122     38    123    129 179.0  17.3  34052  287.74 0855.28
2009/04/23 08:46:17.4      -6   -139      5    140    141 182.7   2.3  34046  287.64 0855.28
2009/04/23 08:46:17.5     -19   -118     30    120    124 189.3  14.3  34052  287.74 0855.28
2009/04/23 08:46:17.6     -22   -110      5    113    114 191.5   2.8  34052  287.76 0855.28
2009/04/23 08:46:17.7     -55   -116     25    129    132 205.5  11.1  34050  287.70 0855.28
2009/04/23 08:46:17.8     -81    -41    -28     92     97 242.9 -17.0  34052  287.74 0855.28
2009/04/23 08:46:17.9     -32    -30    -16     45     47 226.9 -23.3  34050  287.70 0855.28
2009/04/23 08:46:18.0      13    -43     -7     46     47 163.1  -9.3  34052  287.76 0855.28
2009/04/23 08:46:18.1      25    -55     34     61     69 155.5  31.4  34052  287.74 0855.28
2009/04/23 08:46:18.2      26    -99     15    103    105 164.9   8.5  34052  287.74 0855.28
2009/04/23 08:46:18.3       4    -96     55     97    111 177.3  31.9  34050  287.72 0855.28
2009/04/23 08:46:18.4      10   -134     87    135    160 175.5  36.0  34052  287.74 0855.28
2009/04/23 08:46:18.5       7   -149     82    150    170 177.3  31.0  34052  287.76 0855.28
2009/04/23 08:46:18.6       1   -129     89    130    157 179.5  37.8  34054  287.77 0855.28
2009/04/23 08:46:18.7      -4   -102     89    103    136 182.7  45.8  34050  287.72 0855.28
2009/04/23 08:46:18.8       0    -62    103     63    120 179.1  65.7  34052  287.74 0855.28
2009/04/23 08:46:18.9       7    -36     68     37     77 168.4  68.9  34052  287.76 0855.28
2009/04/23 08:46:19.0      25    -46     73     53     90 151.0  60.5  34048  287.69 0855.28
2009/04/23 08:46:19.1      26    -80    101     85    132 162.2  55.8  34048  287.69 0855.28
2009/04/23 08:46:19.2      -1     13     88     14     89 353.8  90.0  34050  287.72 0855.28
2009/04/23 08:46:19.3      35     -2    103     36    109  94.4  81.2  34048  287.69 0855.29
2009/04/23 08:46:19.4     -18   -128    151    130    199 188.0  54.8  34054  287.79 0855.29
2009/04/23 08:46:19.5       7   -103    153    104    185 176.0  62.8  34058  287.84 0855.29
2009/04/23 08:46:19.6     -39   -162    163    167    233 193.8  49.8  34054  287.79 0855.29
2009/04/23 08:46:19.7     -56   -135    140    147    203 202.7  48.7  34054  287.77 0855.29
2009/04/23 08:46:19.8     -81   -170    106    189    216 205.4  31.4  34052  287.74 0855.29
2009/04/23 08:46:19.9     -52   -126     48    137    146 202.3  19.4  34050  287.70 0855.29
2009/04/23 08:46:20.1      19    -71     -6     74     75 164.9  -5.2  34052  287.74 0855.29
2009/04/23 08:46:20.2       5    -68     68     69     96 175.6  50.5  34052  287.76 0855.29
2009/04/23 08:46:20.3      10   -128     66    129    144 175.5  29.3  34056  287.82 0855.29
2009/04/23 08:46:20.4       0    -90     68     91    113 180.4  40.1  34056  287.81 0855.29
2009/04/23 08:46:20.5      -1    -67     59     68     90 180.9  45.4  34052  287.74 0855.29
2009/04/23 08:46:20.6      41    -26     52     49     71 122.5  52.1  34056  287.81 0855.29
2009/04/23 08:46:20.7      16    -36     73     40     83 156.4  69.3  34056  287.82 0855.29
2009/04/23 08:46:20.8     126    -64    121    142    186 117.0  44.5  34056  287.81 0855.29
2009/04/23 08:46:20.9      75    -68    117    102    155 132.2  54.3  34056  287.81 0855.29
2009/04/23 08:46:21.0      41    -44     88     61    107 136.8  62.1  34056  287.81 0855.29
2009/04/23 08:46:21.1      14    -41     65     44     78 160.8  63.6  34054  287.79 0855.29
2009/04/23 08:46:21.2      62    -85     76    106    130 144.0  39.5  34056  287.82 0855.29
2009/04/23 08:46:21.3      36   -107     74    113    135 161.3  35.6  34052  287.76 0855.29
2009/04/23 08:46:21.4      42   -115     66    123    139 160.0  30.8  34056  287.82 0855.29
2009/04/23 08:46:21.5      28   -140     94    143    171 168.4  36.3  34056  287.81 0855.29
2009/04/23 08:46:21.6       2   -152    158    153    219 179.0  50.9  34056  287.81 0855.29
2009/04/23 08:46:21.7       0   -108    137    109    175 180.5  57.5  34054  287.77 0855.29
2009/04/23 08:46:21.8     -46   -136     48    144    153 198.7  18.6  34054  287.77 0855.29
2009/04/23 08:46:21.9     -73   -103      1    127    128 215.2   0.8  34054  287.79 0855.29
2009/04/23 08:46:22.0     -38   -125     37    131    137 196.9  15.8  34056  287.82 0855.29
2009/04/23 08:46:22.1     -38   -142     -3    148    149 195.1  -1.2  34054  287.79 0855.29
2009/04/23 08:46:22.2      14   -105    -32    107    112 172.0 -16.6  34058  287.84 0855.29
2009/04/23 08:46:22.3       0   -110    -19    111    113 180.0  -9.8  34056  287.81 0855.29
2009/04/23 08:46:22.4     -10    -58     42     59     72 189.8  39.5  34056  287.81 0855.29
2009/04/23 08:46:22.5      24     -9     64     26     69 111.7  77.1  34056  287.81 0855.29
2009/04/23 08:46:22.6      43     45     53     63     82  44.1  44.8  34054  287.79 0855.29
2009/04/23 08:46:22.7      47    103     26    114    118  24.5  13.2  34056  287.81 0855.29
2009/04/23 08:46:22.8      -4     92     21     93     96 357.3  13.2  34054  287.79 0855.29
2009/04/23 08:46:22.9      29     88    -10     93     94  18.3  -6.2  34056  287.81 0855.29
2009/04/23 08:46:23.0      38    128    -58    134    146  16.5 -29.5  34054  287.79 0855.29
2009/04/23 08:46:23.1      31     91     57     97    112  18.7  33.5  34056  287.81 0855.29
2009/04/23 08:46:23.2      61     51    107     80    133  50.4  60.0  34054  287.79 0855.29
2009/04/23 08:46:23.3       0     30     55     31     63   0.9  68.8  34056  287.81 0855.29
2009/04/23 08:46:23.4     -21     19     21     29     35 311.3  39.7  34056  287.81 0855.29
2009/04/23 08:46:23.5     -54     18     11     58     60 288.6  11.0  34054  287.79 0855.29
2009/04/23 08:46:23.6       0     33     15     34     37 359.1  25.1  34054  287.77 0855.29
2009/04/23 08:46:23.7      69     57     12     90     91  50.5   8.0  34054  287.79 0855.29
2009/04/23 08:46:23.8      73     31     48     80     93  66.5  34.4  34056  287.82 0855.29
2009/04/23 08:46:23.9      76     38     49     86     98  63.4  31.9  34054  287.79 0855.29
2009/04/23 08:46:24.0      10     86     30     87     93   7.1  18.9  34054  287.79 0855.29
2009/04/23 08:46:24.1      20     66     46     70     83  16.9  36.0  34054  287.77 0855.29
2009/04/23 08:46:24.2     -32     39     49     51     70 320.3  49.0  34054  287.79 0855.29
2009/04/23 08:46:24.3     -17     53     43     56     70 341.3  41.7  34052  287.74 0855.29
2009/04/23 08:46:24.4     -67    -91    102    114    152 216.5  46.9  34052  287.76 0855.29
2009/04/23 08:46:24.5     -69   -164    144    179    229 202.9  43.3  34050  287.72 0855.29
2009/04/23 08:46:24.6     -39   -115    129    122    177 198.7  52.0  34050  287.70 0855.29
2009/04/23 08:46:24.7     -40   -136    138    142    198 196.5  49.4  34048  287.69 0855.29
2009/04/23 08:46:24.8     -25   -124    122    127    176 191.6  49.0  34048  287.69 0855.29
2009/04/23 08:46:24.9     -35    -78    109     86    138 204.1  57.9  34052  287.74 0855.29
2009/04/23 08:46:25.0     -26    -59     90     65    111 203.6  60.5  34054  287.77 0855.29
2009/04/23 08:46:25.1     -18    -86    123     88    151 192.0  60.6  34054  287.77 0855.29
2009/04/23 08:46:25.2     -23    -82    108     86    138 195.6  56.9  34050  287.72 0855.29
2009/04/23 08:46:25.3     -53    -97     77    111    135 209.0  37.6  34052  287.76 0855.29
2009/04/23 08:46:25.4     -45   -101     44    111    119 204.1  22.5  34054  287.79 0855.29
2009/04/23 08:46:25.5     -36    -84      8     92     93 203.2   5.4  34052  287.76 0855.29
2009/04/23 08:46:25.6     -33    -87     37     94    101 200.9  23.0  34054  287.77 0855.29
2009/04/23 08:46:25.7     -47    -48     10     68     69 224.2   9.0  34052  287.74 0855.29
2009/04/23 08:46:25.8     -57    -68      0     90     91 220.1  -0.3  34054  287.77 0855.29
2009/04/23 08:46:25.9     -65    -84     23    107    110 217.8  12.2  34052  287.76 0855.29
2009/04/23 08:46:26.0     -16   -117     -2    119    120 188.1  -1.3  34054  287.77 0855.29
2009/04/23 08:46:26.1       0   -122     23    123    126 180.4  10.6  34050  287.72 0855.29
2009/04/23 08:46:26.2      29   -140     49    144    153 168.0  18.9  34054  287.77 0855.29
2009/04/23 08:46:26.3      23   -112     69    115    134 168.0  34.4  34052  287.74 0855.29
2009/04/23 08:46:26.4      18   -131    106    133    170 172.0  42.7  34054  287.77 0855.29
2009/04/23 08:46:26.5     -17    -84     84     86    120 191.6  50.0  34052  287.74 0855.29
2009/04/23 08:46:26.6       9     41     47     43     63  12.5  52.2  34056  287.81 0855.29
2009/04/23 08:46:26.7      21    -56     35     60     69 159.1  33.5  34052  287.76 0855.29
2009/04/23 08:46:26.8      73   -100     19    125    127 143.9   8.9  34054  287.77 0855.29
2009/04/23 08:46:26.9      42   -127      0    134    135 161.7  -0.3  34054  287.79 0855.29
2009/04/23 08:46:27.0      71   -122    -10    142    143 149.7  -4.1  34054  287.79 0855.29
2009/04/23 08:46:27.1      88   -108     -7    140    141 140.8  -3.1  34054  287.77 0855.29
2009/04/23 08:46:27.2      54   -117    -11    130    131 155.1  -5.2  34052  287.76 0855.29
2009/04/23 08:46:27.3      36   -119     -3    125    126 163.0  -1.8  34052  287.76 0855.29
2009/04/23 08:46:27.4      29   -124     -8    128    129 166.6  -3.7  34052  287.74 0855.28
2009/04/23 08:46:27.5      28   -103    -33    107    111 164.8 -22.8  34052  287.76 0855.28
2009/04/23 08:46:27.6      31    -91    -31     97    101 161.3 -23.3  34052  287.74 0855.28
2009/04/23 08:46:27.7      25    -67    -25     72     77 159.1 -19.1  34054  287.77 0855.28
2009/04/23 08:46:27.8       3    -84    -21     85     88 177.3 -13.9  34050  287.70 0855.28
2009/04/23 08:46:27.9      24    -72     -3     77     78 161.3  -2.2  34050  287.72 0855.28
2009/04/23 08:46:28.0       0    -83     -9     84     85 180.4  -6.7  34052  287.74 0855.28
2009/04/23 08:46:28.1      28    -65     35     71     79 156.4  28.2  34050  287.72 0855.28
2009/04/23 08:46:28.2      68    -99     76    121    142 145.7  35.5  34050  287.72 0855.28
2009/04/23 08:46:28.3      91    -91    104    129    165 134.9  43.0  34048  287.67 0855.28
2009/04/23 08:46:28.4      26   -135    127    138    187 168.9  47.7  34044  287.60 0855.28
2009/04/23 08:46:28.5      51   -117    119    128    174 156.4  48.2  34042  287.59 0855.28
2009/04/23 08:46:28.6     -13   -126    101    127    162 186.2  42.7  34044  287.60 0855.28
2009/04/23 08:46:28.7     -18   -103     83    105    133 190.2  42.7  34044  287.60 0855.28
2009/04/23 08:46:28.8     -23    -78     78     82    113 196.9  49.0  34044  287.60 0855.28
2009/04/23 08:46:28.9     -45    -73     57     86    103 211.6  36.5  34042  287.59 0855.28
2009/04/23 08:46:29.0     -38    -46     46     61     76 219.6  40.7  34042  287.59 0855.28
2009/04/23 08:46:29.1     -32    -39     36     51     62 219.7  39.5  34044  287.62 0855.28
2009/04/23 08:46:29.2     -40    -47     16     62     65 220.5  14.3  34046  287.65 0855.28
2009/04/23 08:46:29.3      -1    -52     -7     53     54 181.8  -8.2  34044  287.60 0855.28
2009/04/23 08:46:29.4      47    -48    -18     68     71 135.8 -15.4  34044  287.62 0855.29
2009/04/23 08:46:29.5      32    -98    -28    104    108 161.5 -15.5  34046  287.65 0855.29
2009/04/23 08:46:29.6      38   -140    -40    146    152 164.9 -15.4  34046  287.64 0855.29
2009/04/23 08:46:29.7      13   -137    -42    138    145 174.2 -17.0  34044  287.60 0855.29
2009/04/23 08:46:29.8     -22    -96     -5     99    100 193.4  -3.1  34042  287.59 0855.29
2009/04/23 08:46:29.9      -4    -60     94     61    112 184.4  64.6  34042  287.59 0855.29
2009/04/23 08:46:30.0     -39    -38     78     55     95 225.9  62.1  34044  287.60 0855.29
2009/04/23 08:46:30.1     -50    -11     31     52     60 257.6  33.5  34046  287.64 0855.29
2009/04/23 08:46:30.2     -34    -22     70     41     81 237.5  67.2  34044  287.62 0855.29
2009/04/23 08:46:30.3     -16   -116    156    118    195 188.1  59.0  34046  287.65 0855.29
2009/04/23 08:46:30.4    -123   -119    130    172    215 225.8  41.2  34046  287.64 0855.29
2009/04/23 08:46:30.5    -127   -107    115    167    202 229.8  37.6  34046  287.65 0855.29
2009/04/23 08:46:30.6    -123   -116     39    170    175 226.7  12.9  34044  287.62 0855.29
2009/04/23 08:46:30.7    -105   -148     20    182    184 215.4   6.5  34046  287.64 0855.29
2009/04/23 08:46:30.8     -74   -107      1    131    132 214.7   0.8  34044  287.60 0855.29
2009/04/23 08:46:30.9     -61    -96    -22    114    117 212.6 -11.3  34046  287.65 0855.29
2009/04/23 08:46:31.0     -13    -64    -18     66     68 191.6 -20.7  34044  287.62 0855.29
2009/04/23 08:46:31.1      42    -24     -1     49     50 119.8  -2.2  34044  287.60 0855.29
2009/04/23 08:46:31.2     133    -26    -27    136    139 101.4 -11.3  34046  287.64 0855.29
2009/04/23 08:46:31.3     154   -100     50    184    191 123.1  15.2  34042  287.57 0855.29
2009/04/23 08:46:31.4     148   -116     81    189    205 128.0  24.9  34040  287.55 0855.29
2009/04/23 08:46:31.5     114   -174     90    209    227 146.8  24.9  34038  287.52 0855.29
2009/04/23 08:46:31.6     123   -193    123    230    260 147.5  30.3  34040  287.53 0855.29
2009/04/23 08:46:31.7      56   -279    162    285    327 168.5  32.1  34040  287.53 0855.29
2009/04/23 08:46:31.8      65   -273    218    281    355 166.6  41.7  34042  287.57 0855.29
2009/04/23 08:46:31.9      28   -239    218    241    324 173.3  46.8  34044  287.61 0855.29
2009/04/23 08:46:32.0       0   -244    195    245    313 179.9  42.6  34044  287.60 0855.29
2009/04/23 08:46:32.1      22   -270    -21    271    272 175.3  -4.6  34042  287.56 0855.29
2009/04/23 08:46:32.2    -239   -175    -53    297    302 233.8 -10.3  34038  287.51 0855.29
2009/04/23 08:46:32.3    -249   -229    101    339    354 227.4  16.6  34040  287.54 0855.29
2009/04/23 08:46:32.4     -81   -315    197    326    380 194.5  34.1  34042  287.59 0855.29
2009/04/23 08:46:32.5     -69   -228     53    239    245 197.0  12.6  34038  287.50 0855.29
2009/04/23 08:46:32.6     -74   -296    129    306    332 194.0  24.2  34040  287.53 0855.29
2009/04/23 08:46:32.7     -93   -325     86    339    350 196.1  14.3  34042  287.56 0855.29
2009/04/23 08:46:32.8     -66   -312     90    320    333 192.1  15.7  34040  287.55 0855.29
2009/04/23 08:46:32.9      26   -246     99    248    267 173.8  23.0  34042  287.58 0855.29
2009/04/23 08:46:33.0     104   -171    179    201    269 148.8  46.4  34040  287.53 0855.29
2009/04/23 08:46:33.1     121   -116    151    169    226 133.8  46.4  34042  287.59 0855.29
2009/04/23 08:46:33.2     148    -66    171    163    236 114.0  51.4  34042  287.59 0855.29
2009/04/23 08:46:33.3      52     22    120     57    132  66.5  73.1  34046  287.65 0855.29
2009/04/23 08:46:33.4      22     22     86     32     91  45.1  79.2  34048  287.69 0855.30
2009/04/23 08:46:33.5     -36     22     86     43     96 301.5  71.9  34048  287.67 0855.30
2009/04/23 08:46:33.6      83    -12     95     84    126  98.8  54.2  34044  287.60 0855.30
2009/04/23 08:46:33.7     128    -65    120    144    187 117.0  43.8  34048  287.69 0855.30
2009/04/23 08:46:33.8      50    -88    116    102    154 150.1  54.3  34052  287.74 0855.30
2009/04/23 08:46:33.9      37     -7    117     38    123 101.4  81.2  34046  287.65 0855.30
2009/04/23 08:46:34.0      46     31    111     56    124  55.8  71.0  34044  287.60 0855.30
2009/04/23 08:46:34.1      41     28    124     50    133  55.8  77.1  34044  287.62 0855.30
2009/04/23 08:46:34.2     -25     -2    116     26    118 263.9  87.5  34038  287.52 0855.30
2009/04/23 08:46:34.3     -34     62     54     71     89 331.1  41.2  34042  287.59 0855.30
2009/04/23 08:46:34.4     -32    -33     44     46     63 224.1  50.0  34044  287.60 0855.30
2009/04/23 08:46:34.5     -56    -89    119    106    159 212.5  53.5  34042  287.57 0855.30
2009/04/23 08:46:34.6    -135    -98     59    167    177 234.0  20.2  34042  287.59 0855.30
2009/04/23 08:46:34.7     -69    -66     14     96     98 226.0   8.5  34042  287.57 0855.30
2009/04/23 08:46:34.8      78    -24     73     82    109 107.7  46.4  34040  287.55 0855.30
2009/04/23 08:46:34.9      65    -51     57     83    100 128.2  38.0  34042  287.57 0855.30
2009/04/23 08:46:35.0      97    -17     60     99    115 100.1  35.0  34040  287.54 0855.30
2009/04/23 08:46:35.1     127     -5    123    128    177  92.5  48.7  34042  287.57 0855.30
2009/04/23 08:46:35.2     106    -46    105    116    156 113.5  47.5  34040  287.54 0855.30
2009/04/23 08:46:35.3      60    -77     78     98    125 142.2  42.7  34044  287.60 0855.30
2009/04/23 08:46:35.4      31    -90     62     96    114 160.8  35.6  34040  287.55 0855.30
2009/04/23 08:46:35.5      29    -82     56     88    104 160.4  35.5  34040  287.54 0855.30
2009/04/23 08:46:35.6      33    -52     66     62     90 147.4  51.6  34042  287.59 0855.30
2009/04/23 08:46:35.7       6    -39    106     40    113 170.2  78.6  34040  287.54 0855.30
2009/04/23 08:46:35.8     -93    -75     80    120    144 230.9  36.5  34040  287.54 0855.30
2009/04/23 08:46:35.9       6      5     33      8     33  50.5  86.9  34042  287.57 0855.30
2009/04/23 08:46:36.0      90    -48    164    103    193 118.4  64.7  34076  288.14 0855.30
2009/04/23 08:46:36.1      24     42    144     49    152  30.7  81.2  34100  288.55 0855.30
2009/04/23 08:46:36.2     -44     -2    112     45    120 266.5  77.1  34060  287.87 0855.30
2009/04/23 08:46:36.3       8    -77    162     78    179 173.8  72.7  34052  287.74 0855.29
2009/04/23 08:46:36.4      34     15    109     38    115  66.5  81.2  34070  288.04 0855.29
2009/04/23 08:46:36.5      89   -120     93    150    176 143.5  35.0  34076  288.14 0855.29
2009/04/23 08:46:36.6      17   -210    113    211    239 175.3  30.3  34040  287.54 0855.29
2009/04/23 08:46:36.7     120   -188    127    224    257 147.5  32.1  34038  287.50 0855.29
2009/04/23 08:46:36.8       4   -344     66    345    352 179.3  10.8  34040  287.54 0855.29
2009/04/23 08:46:36.9      31   -369     39    371    374 175.2   6.1  34038  287.51 0855.29
2009/04/23 08:46:37.0      44   -317    -20    321    322 172.0  -3.7  34036  287.48 0855.29
2009/04/23 08:46:37.1      77   -284      6    295    296 164.9   1.2  34038  287.50 0855.29
2009/04/23 08:46:37.2      37   -257     85    260    274 171.8  18.1  34036  287.48 0855.29
2009/04/23 08:46:37.3     -57   -281    -85    287    299 191.5 -21.7  34038  287.50 0855.29
2009/04/23 08:46:37.4      13   -220    -24    221    223 176.6  -6.2  34038  287.52 0855.29
2009/04/23 08:46:37.5      44   -190     13    196    197 166.9   3.8  34036  287.47 0855.29
2009/04/23 08:46:37.6       9   -102      5    103    104 174.7   3.3  34034  287.45 0855.29
2009/04/23 08:46:37.7     -33   -142    -18    146    148 193.3  -7.2  34032  287.42 0855.29
2009/04/23 08:46:37.8    -159   -222    -55    274    280 215.6 -11.3  34038  287.51 0855.29
2009/04/23 08:46:37.9    -146   -137    -65    201    212 226.8 -18.1  34034  287.45 0855.29
2009/04/23 08:46:38.0    -118   -111    -42    163    169 226.9 -14.7  34036  287.49 0855.29
2009/04/23 08:46:38.1     -57   -183     -7    192    193 197.4  -2.2  34038  287.50 0855.29
2009/04/23 08:46:38.2      31   -198      4    201    202 171.1   1.2  34038  287.52 0855.29
2009/04/23 08:46:38.3      18   -206     36    207    211 174.9   9.9  34038  287.50 0855.29
2009/04/23 08:46:38.4     -24   -157     29    159    162 188.7  10.3  34038  287.52 0855.29
2009/04/23 08:46:38.5       0   -145     28    146    149 180.0  11.1  34038  287.52 0855.29
2009/04/23 08:46:38.6      38   -187     50    191    198 168.4  14.7  34038  287.52 0855.29
2009/04/23 08:46:38.7      40   -285     45    288    292 172.0   9.0  34038  287.50 0855.29
2009/04/23 08:46:38.8      37   -281     77    284    295 172.4  15.3  34038  287.51 0855.29
2009/04/23 08:46:38.9       5   -265     94    266    283 178.9  19.6  34038  287.50 0855.29
2009/04/23 08:46:39.0      38   -245     55    249    256 171.1  12.6  34036  287.48 0855.29
2009/04/23 08:46:39.1     -20   -205     54    207    214 185.6  14.7  34032  287.42 0855.29
2009/04/23 08:46:39.2     -74   -184     38    199    203 202.1  10.8  34036  287.47 0855.29
2009/04/23 08:46:39.3     -57   -199     10    208    209 196.0   2.8  34038  287.50 0855.29
2009/04/23 08:46:39.4     -64   -215    -34    225    228 196.7  -8.6  34038  287.50 0855.29
2009/04/23 08:46:39.5     -26   -191     -7    193    194 188.0  -2.2  34036  287.47 0855.29
2009/04/23 08:46:39.6     -13   -198     -7    199    200 183.8  -2.1  34036  287.49 0855.29
2009/04/23 08:46:39.7       1   -199     16    200    201 179.5   4.6  34034  287.45 0855.29
2009/04/23 08:46:39.8       3   -150     57    151    161 178.6  21.7  34034  287.45 0855.29
2009/04/23 08:46:39.9      78   -169     18    187    188 155.1   5.7  34034  287.45 0855.29
2009/04/23 08:46:40.0      67   -224    -39    234    238 163.3  -9.6  34038  287.50 0855.29
2009/04/23 08:46:40.1      58   -267    -33    274    276 167.7  -6.9  34038  287.50 0855.29
2009/04/23 08:46:40.2      81   -267    -25    280    282 163.1  -5.2  34036  287.46 0855.29
2009/04/23 08:46:40.3     129   -252     14    284    285 152.8   2.9  34036  287.48 0855.28
2009/04/23 08:46:40.4     157   -247     57    293    299 147.5  11.1  34036  287.48 0855.28
2009/04/23 08:46:40.5     156   -180    115    239    265 139.2  27.3  34032  287.41 0855.28
2009/04/23 08:46:40.6     112   -195    118    225    254 150.1  29.8  34036  287.48 0855.28
2009/04/23 08:46:40.7      52   -209    121    216    247 166.0  31.6  34038  287.51 0855.28
2009/04/23 08:46:40.8     161   -234    116    285    307 145.5  23.1  34036  287.46 0855.28
2009/04/23 08:46:40.9     189   -250    116    314    334 142.8  21.3  34036  287.48 0855.28
2009/04/23 08:46:41.0     150   -295     79    331    341 153.0  13.5  34036  287.49 0855.28
2009/04/23 08:46:41.1     164   -288     78    332    342 150.4  13.3  34036  287.47 0855.28
2009/04/23 08:46:41.2     140   -288     65    321    328 154.1  11.6  34040  287.53 0855.28
2009/04/23 08:46:41.3     193   -299     63    357    363 147.2  10.1  34034  287.45 0855.28
2009/04/23 08:46:41.4     188   -268     89    328    341 145.0  15.3  34034  287.44 0855.28
2009/04/23 08:46:41.5     147   -248    121    289    313 149.3  24.1  34034  287.44 0855.28
2009/04/23 08:46:41.6     139   -261    156    296    334 151.9  30.1  34042  287.58 0855.28
2009/04/23 08:46:41.7      99   -249    185    269    326 158.2  37.8  34042  287.56 0855.28
2009/04/23 08:46:41.8      86   -242    151    257    298 160.4  33.4  34040  287.55 0855.28
2009/04/23 08:46:41.9      30   -282    138    284    315 173.8  27.9  34038  287.50 0855.28
2009/04/23 08:46:42.0       4   -306    123    307    330 179.1  23.0  34038  287.51 0855.28
2009/04/23 08:46:42.1      -3   -328    131    329    354 180.6  23.0  34038  287.51 0855.28
2009/04/23 08:46:42.2     133   -320     98    347    361 157.4  15.8  34042  287.56 0855.28
2009/04/23 08:46:42.3      56   -280    132    286    314 168.5  26.5  34040  287.53 0855.28
2009/04/23 08:46:42.4      69   -290    -59    299    305 166.6 -11.3  34034  287.44 0855.28
2009/04/23 08:46:42.5      54   -262    -53    268    274 168.2 -11.3  34038  287.50 0855.28
2009/04/23 08:46:42.6      49   -245    -61    250    258 168.7 -13.7  34038  287.51 0855.28
2009/04/23 08:46:42.7      45   -281    -84    285    298 170.9 -16.4  34038  287.50 0855.28
2009/04/23 08:46:42.8      17   -342    -53    343    348 177.1  -8.9  34038  287.51 0855.28
2009/04/23 08:46:42.9      12   -341    -19    342    343 177.9  -3.2  34042  287.56 0855.28
2009/04/23 08:46:43.0     -10   -361    -30    362    364 181.7  -4.8  34054  287.78 0855.28
2009/04/23 08:46:43.1       0   -372    -20    373    374 180.1  -3.1  34042  287.57 0855.28
2009/04/23 08:46:43.2      -5   -323    -65    324    331 180.9 -11.3  34044  287.60 0855.28
2009/04/23 08:46:43.3     -79   -297     -9    308    309 195.1  -1.8  34044  287.60 0855.28
2009/04/23 08:46:43.4      -9   -288    -37    289    292 181.8  -7.3  34050  287.70 0855.28
2009/04/23 08:46:43.5       1   -278    -45    279    283 179.8  -9.3  34052  287.75 0855.28
2009/04/23 08:46:43.6     -13   -293    -45    294    298 182.7  -8.8  34046  287.63 0855.28
2009/04/23 08:46:43.7     -44   -331    -30    334    336 187.6  -5.2  34042  287.59 0855.28
2009/04/23 08:46:43.8      42   -304    -58    308    314 172.0 -10.8  34046  287.63 0855.28
2009/04/23 08:46:43.9      15   -253    -14    254    255 176.6  -3.2  34044  287.60 0855.28
2009/04/23 08:46:44.0     -58   -172    -53    182    189 198.7 -21.0  34042  287.57 0855.28
2009/04/23 08:46:44.1     -21   -164    -48    166    172 187.3 -21.2  34042  287.57 0855.28
2009/04/23 08:46:44.2       1   -186    -22    187    189 179.5  -6.9  34044  287.62 0855.28
2009/04/23 08:46:44.3     -48   -199    -22    205    207 193.8  -6.2  34044  287.60 0855.27
2009/04/23 08:46:44.4     -36   -227    -42    230    234 189.1 -10.5  34046  287.63 0855.27
2009/04/23 08:46:44.5     -15   -258      0    259    260 183.5   0.2  34050  287.70 0855.27
2009/04/23 08:46:44.6     -89   -293    -16    307    308 196.9  -3.1  34048  287.68 0855.27
2009/04/23 08:46:44.7     -53   -259    -60    265    272 191.6 -12.9  34056  287.80 0855.27
2009/04/23 08:46:44.8     -27   -246    -13    248    249 186.5  -3.1  34054  287.78 0855.27
2009/04/23 08:46:44.9     -25   -230    -21    232    234 186.3  -5.4  34058  287.83 0855.27
2009/04/23 08:46:45.0     -46   -260    -79    265    277 190.0 -16.6  34058  287.85 0855.27
2009/04/23 08:46:45.1       6   -256     -5    257    258 178.6  -1.1  34054  287.78 0855.27
2009/04/23 08:46:45.2      74   -191    -18    205    206 158.8  -5.1  34054  287.79 0855.27
2009/04/23 08:46:45.3      52   -156    -46    165    172 161.3 -15.8  34056  287.81 0855.27
2009/04/23 08:46:45.4      70   -144    -19    161    163 154.1  -6.7  34054  287.79 0855.27
2009/04/23 08:46:45.5      49   -174    -19    181    183 164.2  -6.2  34052  287.76 0855.27
2009/04/23 08:46:45.6      29   -163     -9    166    167 169.8  -3.3  34054  287.79 0855.27
2009/04/23 08:46:45.7      -6   -181    -27    182    185 182.0  -8.6  34050  287.72 0855.27
2009/04/23 08:46:45.8     -14   -205      0    206    207 184.0   0.2  34048  287.67 0855.27
2009/04/23 08:46:45.9      -6   -262    -24    263    265 181.4  -5.4  34046  287.63 0855.27
2009/04/23 08:46:46.0     -45   -262    -60    266    273 189.8 -12.9  34048  287.66 0855.27
2009/04/23 08:46:46.1     -28   -257    -72    259    268 186.2 -20.2  34048  287.66 0855.27
2009/04/23 08:46:46.2      17   -224     35    225    228 175.5   8.9  34046  287.65 0855.27
2009/04/23 08:46:46.3      68   -254     33    264    267 164.9   7.1  34048  287.68 0855.28
2009/04/23 08:46:46.4      50   -250     21    255    256 168.7   4.9  34048  287.68 0855.28
2009/04/23 08:46:46.5      68   -222     17    233    234 163.0   4.4  34048  287.66 0855.28
2009/04/23 08:46:46.6      71   -211      4    223    224 161.3   1.2  34048  287.67 0855.28
2009/04/23 08:46:46.7      60   -179     12    189    190 161.3   3.6  34048  287.67 0855.28
2009/04/23 08:46:46.8      85   -188     54    207    214 155.5  14.7  34048  287.67 0855.28
2009/04/23 08:46:46.9      90   -192     24    213    215 154.8   6.5  34048  287.69 0855.28
2009/04/23 08:46:47.0      72   -148     79    165    182 154.1  27.4  34044  287.62 0855.28
2009/04/23 08:46:47.1      83   -126     95    151    178 146.6  35.5  34046  287.64 0855.28
2009/04/23 08:46:47.3      91   -110    100    143    174 140.3  38.0  34046  287.65 0855.28
2009/04/23 08:46:47.4     114   -125    107    170    200 137.7  35.2  34046  287.64 0855.28
2009/04/23 08:46:47.5     108   -129    103    169    197 140.1  34.2  34048  287.67 0855.28
2009/04/23 08:46:47.6      80   -157     90    177    198 153.0  29.2  34050  287.70 0855.28
2009/04/23 08:46:47.7      69   -155     71    170    184 155.9  23.6  34050  287.70 0855.28
2009/04/23 08:46:47.8      86   -107     69    138    154 141.3  28.2  34048  287.69 0855.28
2009/04/23 08:46:47.9      83    -99     46    130    137 139.9  20.4  34046  287.64 0855.28
2009/04/23 08:46:48.0      80    -88     66    119    136 137.7  31.4  34046  287.65 0855.28
2009/04/23 08:46:48.1      62    -89     60    109    124 144.8  31.4  34046  287.65 0855.28
2009/04/23 08:46:48.2      83    -80     60    116    130 134.0  29.3  34048  287.69 0855.28
2009/04/23 08:46:48.3     126    -97    -20    160    162 127.8  -7.3  34048  287.69 0855.28
2009/04/23 08:46:48.4      96   -110     -5    147    148 139.0  -2.2  34048  287.67 0855.28
2009/04/23 08:46:48.5      63    -84     38    106    112 143.0  20.0  34050  287.72 0855.28
2009/04/23 08:46:48.6      52    -67     50     86     99 142.2  32.9  34050  287.70 0855.28
2009/04/23 08:46:48.7      -8    -63     71     64     95 188.0  53.3  34052  287.74 0855.28
2009/04/23 08:46:48.8      -1    -34     95     35    101 182.6  79.2  34050  287.70 0855.28
2009/04/23 08:46:48.9      -2    -81     71     82    108 181.8  45.4  34050  287.72 0855.28
2009/04/23 08:46:49.0      17   -102     24    104    107 170.2  13.2  34052  287.76 0855.28
2009/04/23 08:46:49.1       0    -80      9     81     82 180.5   6.5  34050  287.70 0855.28
2009/04/23 08:46:49.2       1    -76     38     77     85 179.1  28.2  34052  287.74 0855.28
2009/04/23 08:46:49.3       1    -84     76     85    114 179.1  46.9  34050  287.70 0855.28
2009/04/23 08:46:49.4     -21    -66     32     70     76 198.3  27.1  34048  287.69 0855.28
2009/04/23 08:46:49.5     -25    -87     53     91    105 196.5  33.5  34046  287.65 0855.28
2009/04/23 08:46:49.6      -6    -72     71     73    101 185.3  49.4  34048  287.67 0855.28
2009/04/23 08:46:49.7     -13    -64     95     66    115 191.6  62.1  34050  287.70 0855.28
2009/04/23 08:46:49.8       0    -87    122     88    150 180.0  60.5  34048  287.67 0855.28
2009/04/23 08:46:49.9      27    -48    101     56    115 151.0  68.8  34048  287.69 0855.28
2009/04/23 08:46:50.0      22   -101     94    104    140 167.5  47.5  34048  287.69 0855.28
2009/04/23 08:46:50.1      74   -155    102    172    199 154.4  33.5  34052  287.76 0855.28
2009/04/23 08:46:50.2      77   -144     83    164    183 151.9  29.1  34052  287.74 0855.28
2009/04/23 08:46:50.3     104   -136     76    172    188 142.8  25.3  34052  287.76 0855.28
2009/04/23 08:46:50.4      28   -161    112    164    198 170.0  37.6  34054  287.79 0855.29
2009/04/23 08:46:50.5      68   -144    127    160    204 154.5  42.4  34052  287.76 0855.29
2009/04/23 08:46:50.6      90   -174    120    196    229 152.6  34.8  34052  287.74 0855.29
2009/04/23 08:46:50.7      74   -163    119    180    215 155.5  36.5  34048  287.67 0855.29
2009/04/23 08:46:50.8      69   -166    147    180    232 157.3  43.7  34052  287.76 0855.29
2009/04/23 08:46:50.9      74   -150    132    168    213 153.5  42.2  34052  287.76 0855.29
2009/04/23 08:46:51.0      71   -172    140    187    233 157.5  40.4  34054  287.79 0855.29
2009/04/23 08:46:51.1      82   -168    127    188    226 153.9  37.3  34052  287.76 0855.29
2009/04/23 08:46:51.2     115   -148    141    188    235 142.2  40.7  34054  287.77 0855.29
2009/04/23 08:46:51.3      85   -149    122    172    210 150.1  39.1  34050  287.70 0855.29
2009/04/23 08:46:51.4      68   -143     74    159    175 154.5  27.0  34050  287.72 0855.29
2009/04/23 08:46:51.5      89   -144    130    170    214 148.1  41.4  34052  287.76 0855.29
2009/04/23 08:46:51.6     120   -132    118    179    214 137.7  36.3  34052  287.76 0855.29
2009/04/23 08:46:51.7     128   -120    132    176    220 133.3  40.7  34052  287.76 0855.29
2009/04/23 08:46:51.8     134   -112    134    175    220 130.0  41.4  34052  287.76 0855.29
2009/04/23 08:46:51.9     152    -77    140    171    221 117.1  43.7  34056  287.81 0855.29
2009/04/23 08:46:52.0     112    -94    106    147    181 130.0  39.5  34052  287.76 0855.29
2009/04/23 08:46:52.1      76   -104     50    129    138 143.9  22.5  34052  287.74 0855.29
2009/04/23 08:46:52.2      88    -92     27    128    131 136.3  12.2  34056  287.81 0855.29
2009/04/23 08:46:52.3      72    -87     78    114    138 140.3  37.6  34052  287.76 0855.29
2009/04/23 08:46:52.4      99    -49     74    111    133 116.6  36.5  34052  287.76 0855.29
2009/04/23 08:46:52.5     124    -61     38    139    145 116.2  15.3  34054  287.79 0855.29
2009/04/23 08:46:52.6     111    -68     20    131    133 121.5   9.0  34056  287.82 0855.29
2009/04/23 08:46:52.7      97    -88     53    132    142 132.2  23.0  34052  287.74 0855.29
2009/04/23 08:46:52.8      89   -103    103    137    171 139.0  40.9  34050  287.70 0855.29
2009/04/23 08:46:52.9       9    -63    101     64    119 171.1  64.7  34052  287.76 0855.29
2009/04/23 08:46:53.0      -1    -70     88     71    113 181.0  56.4  34052  287.76 0855.29
2009/04/23 08:46:53.1      60    -64     64     88    108 136.8  39.7  34052  287.76 0855.29
2009/04/23 08:46:53.2      37    -43     77     57     95 139.5  60.0  34052  287.74 0855.29
2009/04/23 08:46:53.3      71    -19     62     74     96 105.1  44.3  34052  287.74 0855.29
2009/04/23 08:46:53.4      35    -35     60     50     78 135.0  55.4  34050  287.72 0855.29
2009/04/23 08:46:53.5      71    -26     75     76    106 110.8  50.5  34052  287.74 0855.29
2009/04/23 08:46:53.6      75    -35     76     83    112 115.2  47.9  34052  287.76 0855.29
2009/04/23 08:46:53.7      82    -23     46     86     97 105.9  30.3  34054  287.77 0855.29
2009/04/23 08:46:53.8      92    -35     39     99    106 111.3  22.5  34052  287.74 0855.29
2009/04/23 08:46:53.9      95    -37     53    102    114 111.3  29.8  34052  287.74 0855.29
2009/04/23 08:46:54.0     110    -52     80    122    145 115.4  36.0  34052  287.74 0855.29
2009/04/23 08:46:54.1      88    -73     64    115    131 130.0  31.4  34050  287.72 0855.29
2009/04/23 08:46:54.2      77    -83     93    114    147 137.2  43.7  34052  287.74 0855.29
2009/04/23 08:46:54.3      46    -68     88     83    120 146.2  52.1  34052  287.76 0855.29
2009/04/23 08:46:54.4      19    -43     67     48     82 156.4  61.1  34052  287.74 0855.29
2009/04/23 08:46:54.5      53    -33     67     63     91 122.5  51.6  34050  287.72 0855.29
2009/04/23 08:46:54.6      48    -45     54     66     85 133.1  43.7  34052  287.74 0855.29
2009/04/23 08:46:54.7      95    -39     55    103    116 112.6  30.8  34054  287.77 0855.29
2009/04/23 08:46:54.8      88    -49     46    101    110 119.3  26.6  34050  287.72 0855.29
2009/04/23 08:46:54.9      86    -39     45     95    105 114.8  27.2  34052  287.76 0855.29
2009/04/23 08:46:55.0     106    -43     53    115    126 112.2  26.6  34058  287.84 0855.29
2009/04/23 08:46:55.1     115    -45     42    124    132 111.7  18.9  34062  287.92 0855.29
2009/04/23 08:46:55.2     112    -47     77    122    144 113.1  35.5  34062  287.91 0855.29
2009/04/23 08:46:55.3     170    -24     57    172    182  98.1  18.6  34184  289.97 0855.29
2009/04/23 08:46:55.4     190    -28    101    193    217  98.4  29.8  34142  289.26 0855.29
2009/04/23 08:46:55.5     180     -2     25    181    183  90.9   8.0  34150  289.41 0855.29
2009/04/23 08:46:55.6     147     -7      7    148    149  93.0   2.8  34166  289.67 0855.29
2009/04/23 08:46:55.7     135    -17     56    137    148  97.5  23.1  34182  289.94 0855.29
2009/04/23 08:46:55.8     244     -3     -2    245    246  90.8  -0.5  34158  289.54 0855.29
2009/04/23 08:46:55.9     217    -64    -45    227    232 106.6 -11.3  34142  289.26 0855.29
2009/04/23 08:46:56.0     173     16     14    174    175  84.5   4.9  34210  290.43 0855.29
2009/04/23 08:46:56.1     148     94     75    176    191  57.4  24.3  34198  290.21 0855.29
2009/04/23 08:46:56.2     178     71      9    192    193  68.2   2.9  34250  291.11 0855.29
2009/04/23 08:46:56.3     157    100     32    187    190  57.6   9.9  34256  291.21 0855.29
2009/04/23 08:46:56.4     160     47     50    167    175  73.6  16.8  34246  291.03 0855.29
2009/04/23 08:46:56.5     188     19     22    189    191  84.1   6.7  34188  290.06 0855.29
2009/04/23 08:46:56.6     199     40     24    204    206  78.5   6.9  34196  290.18 0855.29
2009/04/23 08:46:56.7     118     43     67    126    142  70.0  30.3  34218  290.55 0855.29
2009/04/23 08:46:56.8      67     52    101     85    132  52.2  55.8  34144  289.30 0855.29
2009/04/23 08:46:56.9      17    -17     85     25     88 135.0  82.8  34116  288.84 0855.29
2009/04/23 08:46:57.0      21    -15     66     27     71 126.0  77.1  34112  288.77 0855.29
2009/04/23 08:46:57.1      68    -55     58     88    105 129.1  36.0  34066  287.99 0855.29
2009/04/23 08:46:57.2      97    -53     78    111    135 118.8  38.0  34066  287.99 0855.29
2009/04/23 08:46:57.3      88    -51     80    102    129 120.2  42.2  34054  287.79 0855.29
2009/04/23 08:46:57.4      80    -75     87    110    140 133.2  42.2  34050  287.72 0855.28
2009/04/23 08:46:57.5      90    -65     91    112    144 125.9  43.7  34052  287.76 0855.28
2009/04/23 08:46:57.6      95    -60     87    113    142 122.4  41.7  34052  287.76 0855.28
2009/04/23 08:46:57.7      81    -50     82     96    126 122.0  45.4  34052  287.76 0855.28
2009/04/23 08:46:57.8      50    -49     68     71     98 134.1  49.4  34052  287.74 0855.28
2009/04/23 08:46:57.9      45    -54     64     71     95 140.3  46.9  34054  287.77 0855.28
2009/04/23 08:46:58.0      83    -45     49     95    106 118.4  29.8  34056  287.81 0855.28
2009/04/23 08:46:58.1      67    -49     60     84    103 126.0  39.1  34054  287.77 0855.28
2009/04/23 08:46:58.2      31    -82     79     88    118 159.1  46.9  34052  287.76 0855.28
2009/04/23 08:46:58.3      35    -63     75     73    104 151.0  50.1  34050  287.72 0855.28
2009/04/23 08:46:58.4      50    -28     73     58     93 119.8  56.9  34056  287.82 0855.28
2009/04/23 08:46:58.5      43    -27     58     52     77 122.4  52.2  34058  287.86 0855.28
2009/04/23 08:46:58.6      38    -34     44     52     68 132.2  44.8  34054  287.79 0855.28
2009/04/23 08:46:58.7      18     -6     39     19     43 108.6  72.9  34060  287.87 0855.28
2009/04/23 08:46:58.8      26      8     40     28     48  71.4  61.5  34076  288.16 0855.28
2009/04/23 08:46:58.9      21     13     39     26     46  57.5  63.6  34078  288.18 0855.28
2009/04/23 08:46:59.0      12     15     46     20     50  39.6  74.0  34084  288.30 0855.28
2009/04/23 08:46:59.1      28     10     42     30     51  70.0  60.5  34088  288.35 0855.28
2009/04/23 08:46:59.2      50     36     26     62     67  54.0  23.1  34084  288.30 0855.28
2009/04/23 08:46:59.3      44     28     59     53     79  57.5  52.7  34076  288.14 0855.28
2009/04/23 08:46:59.4      33     27     73     43     84  50.5  66.2  34074  288.11 0855.29
2009/04/23 08:46:59.5      68     40     85     80    116  59.3  51.6  34120  288.89 0855.29
2009/04/23 08:46:59.6      81     34     63     89    109  66.9  39.1  34088  288.36 0855.29
2009/04/23 08:46:59.7      89     26     53     93    107  73.6  32.4  34086  288.31 0855.29
2009/04/23 08:46:59.8      76      5     43     77     88  85.6  31.4  34090  288.40 0855.29
2009/04/23 08:46:59.9      52     26     73     59     93  63.8  56.4  34126  289.01 0855.29
2009/04/23 08:47:00.0      54     -4     77     55     94  95.2  61.1  34128  289.04 0855.29
2009/04/23 08:47:00.1      69      4     70     70     98  86.5  50.1  34116  288.82 0855.29
2009/04/23 08:47:00.2      88     20     78     91    119  76.7  45.4  34152  289.45 0855.29
2009/04/23 08:47:00.3      73     48     78     88    117  56.7  46.4  34158  289.53 0855.29
2009/04/23 08:47:00.4     118     75     45    140    148  57.5  17.9  34142  289.28 0855.29
2009/04/23 08:47:00.5     124     25     52    127    137  78.5  23.1  34134  289.13 0855.29
2009/04/23 08:47:00.6     109     29     69    113    132  74.9  34.4  34128  289.02 0855.29
2009/04/23 08:47:00.7     119      9    100    120    156  85.6  44.3  34104  288.62 0855.29
2009/04/23 08:47:00.8     129     31     91    133    161  76.3  37.8  34108  288.70 0855.29
2009/04/23 08:47:00.9     148     20     95    150    177  82.0  35.5  34084  288.30 0855.29
2009/04/23 08:47:01.0     166     17     70    167    181  83.9  23.8  34130  289.08 0855.29
2009/04/23 08:47:01.1     178     17    110    179    210  84.3  34.8  34158  289.55 0855.29
2009/04/23 08:47:01.2     119      9    102    120    157  85.6  45.1  34140  289.24 0855.29
2009/04/23 08:47:01.3     131    -19     73    133    151  98.4  31.3  34116  288.84 0855.29
2009/04/23 08:47:01.4      79    -99     49    127    136 141.3  22.0  34086  288.33 0855.29
2009/04/23 08:47:01.5      98    -96     54    138    148 134.4  23.0  34056  287.82 0855.29
2009/04/23 08:47:01.6      79    -95     67    124    140 140.3  31.3  34056  287.81 0855.29
2009/04/23 08:47:01.7      79    -92     69    122    140 139.5  31.4  34052  287.76 0855.29
2009/04/23 08:47:01.8      97   -112     74    149    166 139.0  28.0  34054  287.77 0855.29
2009/04/23 08:47:01.9     121   -121     66    172    184 135.0  22.0  34050  287.72 0855.29
2009/04/23 08:47:02.0     131   -102     87    167    188 128.0  29.8  34050  287.72 0855.29
2009/04/23 08:47:02.1     140    -92     62    168    179 123.3  21.3  34054  287.77 0855.29
2009/04/23 08:47:02.2     128    -78     69    151    166 121.5  26.4  34052  287.76 0855.29
2009/04/23 08:47:02.3     123    -91     83    154    174 126.4  30.6  34052  287.76 0855.29
2009/04/23 08:47:02.4     128    -76     82    149    170 120.7  31.0  34054  287.77 0855.29
2009/04/23 08:47:02.5     125    -59     64    139    153 115.4  26.6  34054  287.79 0855.29
2009/04/23 08:47:02.6     102    -34     58    108    122 108.6  30.8  34060  287.89 0855.29
2009/04/23 08:47:02.7      82    -26     74     87    114 107.7  44.8  34062  287.91 0855.29
2009/04/23 08:47:02.8      87    -24     75     91    117 105.9  43.8  34062  287.91 0855.29
2009/04/23 08:47:02.9      74    -13     58     76     95 100.6  41.7  34060  287.89 0855.29
2009/04/23 08:47:03.0      69     -6     60     70     92  95.2  45.4  34060  287.87 0855.29
2009/04/23 08:47:03.1      50     23     37     56     67  65.6  35.6  34056  287.82 0855.29
2009/04/23 08:47:03.2      92     46     48    103    113  63.4  27.1  34054  287.79 0855.29
2009/04/23 08:47:03.3     109     35     11    115    116  71.8   5.9  34054  287.79 0855.29
2009/04/23 08:47:03.4     115      8     14    116    117  85.7   7.1  34054  287.79 0855.29
2009/04/23 08:47:03.5     141      0     21    142    144  90.0   8.5  34056  287.82 0855.29
2009/04/23 08:47:03.6     183     38     -8    188    189  78.1  -2.6  34144  289.31 0855.29
2009/04/23 08:47:03.7     219     46     -4    224    225  78.1  -1.3  34176  289.85 0855.29
2009/04/23 08:47:03.8     184     72     86    198    215  68.5  25.1  34192  290.13 0855.29
2009/04/23 08:47:03.9     165     78    107    183    211  64.6  33.4  34178  289.89 0855.29
2009/04/23 08:47:04.0     178     72     89    193    212  67.8  26.6  34220  290.58 0855.29
2009/04/23 08:47:04.1     173     40     82    178    195  76.7  26.4  34202  290.30 0855.29
2009/04/23 08:47:04.2     237     53     61    243    251  77.4  14.3  34226  290.68 0855.29
2009/04/23 08:47:04.3     219     66     35    229    232  73.2   8.9  34214  290.50 0855.29
2009/04/23 08:47:04.4     222     45    102    227    248  78.3  26.2  34220  290.58 0855.29
2009/04/23 08:47:04.5     227    125     92    260    277  61.1  19.6  34134  289.14 0855.29
2009/04/23 08:47:04.6     246    156    110    292    312  57.5  21.6  34126  288.98 0855.29
2009/04/23 08:47:04.7     228    141     98    269    286  58.2  20.9  34170  289.73 0855.29
2009/04/23 08:47:04.8     232     77     68    245    255  71.6  15.6  34186  290.00 0855.29
2009/04/23 08:47:04.9     206     41     31    211    214  78.6   8.5  34194  290.14 0855.29
2009/04/23 08:47:05.0     168     33    111    172    204  78.8  35.6  34204  290.31 0855.29
2009/04/23 08:47:05.1     211     67     65    222    232  72.3  16.4  34204  290.31 0855.29
2009/04/23 08:47:05.2     232    137     48    270    275  59.4  10.1  34210  290.42 0855.29
2009/04/23 08:47:05.3     257    163    126    305    330  57.5  23.7  34132  289.10 0855.29
2009/04/23 08:47:05.4     235    149     95    279    296  57.5  18.9  34144  289.31 0855.29
2009/04/23 08:47:05.5     242     73     69    253    263  73.2  15.3  34208  290.39 0855.29
2009/04/23 08:47:05.6     308     42    109    311    330  82.1  19.4  34192  290.10 0855.29
2009/04/23 08:47:05.7     275     90    132    290    318  71.8  26.2  34172  289.76 0855.29
2009/04/23 08:47:05.8     193    132     88    235    250  55.6  21.0  34094  288.46 0855.29
2009/04/23 08:47:05.9      14    130    143    131    193   6.3  52.5  34114  288.80 0855.29
2009/04/23 08:47:06.0      64    155    140    168    218  22.5  43.8  34124  288.97 0855.29
2009/04/23 08:47:06.1     125     91    110    155    190  54.0  39.1  34090  288.40 0855.29
2009/04/23 08:47:06.2      61    182     92    193    213  18.7  27.3  34080  288.21 0855.29
2009/04/23 08:47:06.3      90    201     92    221    239  24.1  23.8  34102  288.59 0855.29
2009/04/23 08:47:06.4      71    168     95    183    206  22.9  29.3  34190  290.08 0855.29
2009/04/23 08:47:06.5     130    174     70    218    230  36.7  17.9  34068  288.01 0855.29
2009/04/23 08:47:06.6     201    108     40    229    233  61.8   9.9  34060  287.87 0855.29
2009/04/23 08:47:06.7     167    136     77    216    229  50.9  20.2  34058  287.86 0855.29
2009/04/23 08:47:06.8     187    175     76    257    269  46.8  16.6  34116  288.81 0855.29
2009/04/23 08:47:06.9     207    150     61    256    264  54.1  13.5  34104  288.63 0855.29
2009/04/23 08:47:07.0     209    106     46    235    240  63.0  11.1  34132  289.09 0855.29
2009/04/23 08:47:07.1     236    148     35    279    282  57.8   7.2  34160  289.58 0855.29
2009/04/23 08:47:07.2     227    106     33    251    254  64.8   7.5  34176  289.83 0855.29
2009/04/23 08:47:07.3     215    150     46    263    268  55.0   9.9  34170  289.75 0855.29
2009/04/23 08:47:07.4     228    108     75    253    265  64.5  16.6  34196  290.17 0855.29
2009/04/23 08:47:07.5     196    103     99    222    243  62.2  25.3  34204  290.32 0855.29
2009/04/23 08:47:07.6     168     -4    118    169    206  91.5  38.4  34114  288.79 0855.29
2009/04/23 08:47:07.7     158     36    139    163    214  77.2  44.8  34192  290.11 0855.29
2009/04/23 08:47:07.8     216     24    122    218    249  83.4  31.6  34182  289.93 0855.29
2009/04/23 08:47:07.9     227     69    151    238    281  72.9  35.5  34144  289.31 0855.29
2009/04/23 08:47:08.0     302     61     84    309    321  78.5  15.3  34136  289.15 0855.29
2009/04/23 08:47:08.1     263     83    104    276    294  72.5  21.7  34110  288.73 0855.29
2009/04/23 08:47:08.2     237     76     73    249    260  72.2  16.4  34110  288.71 0855.29
2009/04/23 08:47:08.3     181     95     79    205    219  62.2  22.3  34078  288.20 0855.29
2009/04/23 08:47:08.4     164     98     63    192    203  59.1  18.1  34064  287.96 0855.29
2009/04/23 08:47:08.5     184    102     77    211    224  60.9  20.9  34054  287.77 0855.29
2009/04/23 08:47:08.6     185     79     86    202    219  66.9  24.6  34062  287.91 0855.29
2009/04/23 08:47:08.7     149     89     78    174    190  59.1  25.9  34056  287.81 0855.29
2009/04/23 08:47:08.8     159     86     80    181    197  61.6  25.2  34058  287.84 0855.29
2009/04/23 08:47:08.9     166     70     61    181    192  67.2  18.6  34066  287.98 0855.29
2009/04/23 08:47:09.0     144    103     45    178    184  54.3  14.3  34054  287.79 0855.29
2009/04/23 08:47:09.1     130     91     21    160    162  54.9   7.8  34062  287.91 0855.29
2009/04/23 08:47:09.2     117    113     35    163    167  46.0  12.4  34062  287.91 0855.29
2009/04/23 08:47:09.3      92    142     23    170    172  33.0   7.8  34070  288.04 0855.28
2009/04/23 08:47:09.4     146    141     32    204    207  46.0   8.9  34168  289.72 0855.28
2009/04/23 08:47:09.5     106    130     45    169    175  39.2  15.0  34104  288.64 0855.28
2009/04/23 08:47:09.6      47    164     36    171    175  16.3  12.0  34078  288.18 0855.28
2009/04/23 08:47:09.7      30    150      7    154    155  11.5   2.9  34072  288.08 0855.28
2009/04/23 08:47:09.8      55    153      8    163    164  20.0   2.9  34128  289.04 0855.28
2009/04/23 08:47:09.9      -2    146     32    147    151 359.2  12.6  34054  287.77 0855.28
2009/04/23 08:47:10.0     -14    136     48    137    146 353.8  19.4  34060  287.87 0855.28
2009/04/23 08:47:10.1     -26    128      8    131    132 348.5   3.8  34066  287.99 0855.28
2009/04/23 08:47:10.2       1    101      5    102    103   0.9   2.9  34098  288.53 0855.28
2009/04/23 08:47:10.3     110    103     -4    151    152  46.9  -1.8  34146  289.33 0855.28
2009/04/23 08:47:10.4     102    113    -22    153    155  42.3  -8.2  34170  289.75 0855.28
2009/04/23 08:47:10.5     118    110     21    162    164  46.8   7.5  34144  289.31 0855.28
2009/04/23 08:47:10.6     135     85     88    160    182  57.6  31.4  34166  289.69 0855.28
2009/04/23 08:47:10.7     140    121     27    186    189  49.1   8.5  34144  289.31 0855.28
2009/04/23 08:47:10.8     134     66     14    150    151  63.8   5.4  34146  289.35 0855.28
2009/04/23 08:47:10.9     169     56     43    179    185  71.6  13.5  34144  289.31 0855.28
2009/04/23 08:47:11.0     169     93     23    193    195  61.1   6.9  34110  288.72 0855.28
2009/04/23 08:47:11.1     138     84     31    162    166  58.5  11.1  34148  289.38 0855.28
2009/04/23 08:47:11.2     125     87     60    153    164  54.9  22.3  34160  289.58 0855.28
2009/04/23 08:47:11.3      84    106     58    136    147  38.3  24.6  34166  289.69 0855.28
2009/04/23 08:47:11.4      96    150     59    179    189  32.5  18.4  34154  289.48 0855.28
2009/04/23 08:47:11.5      60    137     57    150    160  23.6  21.5  34156  289.50 0855.28
2009/04/23 08:47:11.6      46    101     75    112    134  24.5  36.5  34142  289.26 0855.28
2009/04/23 08:47:11.7      62     39     41     74     84  57.5  31.9  34150  289.41 0855.28
2009/04/23 08:47:11.8      99     29    117    104    156  73.6  53.7  34172  289.77 0855.28
2009/04/23 08:47:11.9      90     11     87     91    125  82.5  49.0  34172  289.77 0855.28
2009/04/23 08:47:12.0      86     21     43     89     98  75.8  27.8  34184  289.97 0855.28
2009/04/23 08:47:12.1     105     33     55    111    123  72.7  28.7  34202  290.30 0855.28
2009/04/23 08:47:12.2     108     34     21    114    116  72.3  10.6  34202  290.30 0855.28
2009/04/23 08:47:12.3      83     25     30     87     93  73.2  19.4  34204  290.31 0855.28
2009/04/23 08:47:12.4      37     21      5     43     44  60.2   6.9  34192  290.13 0855.28
2009/04/23 08:47:12.5      30     10     22     32     38  70.0  37.6  34188  290.06 0855.28
2009/04/23 08:47:12.6       5     17     30     18     35  18.5  64.7  34186  290.01 0855.28
2009/04/23 08:47:12.7     -13     13     26     19     32 315.0  60.5  34178  289.87 0855.28
2009/04/23 08:47:12.8     -22      7     38     24     44 288.2  64.7  34168  289.70 0855.28
2009/04/23 08:47:12.9     -38      0     54     39     66 270.8  60.6  34160  289.58 0855.28
2009/04/23 08:47:13.0     -43    -11     51     45     68 255.8  52.2  34152  289.43 0855.28
2009/04/23 08:47:13.1       0      2     36      3     36 350.3  90.0  34142  289.26 0855.28
2009/04/23 08:47:13.2      10      2     38     11     39  74.9  80.7  34142  289.26 0855.28
2009/04/23 08:47:13.3      13     -8     25     16     29 122.5  64.7  34142  289.26 0855.28
2009/04/23 08:47:13.4     -15    -12     11     20     22 230.5  31.4  34148  289.38 0855.28
2009/04/23 08:47:13.5     -33    -17      6     38     39 242.9  10.1  34168  289.72 0855.28
2009/04/23 08:47:13.6     -46      3      7     47     48 274.4   9.0  34198  290.23 0855.28
2009/04/23 08:47:13.7     -47      3     -1     48     49 274.4  -2.2  34198  290.21 0855.28
2009/04/23 08:47:13.8     -47     17    -12     50     52 290.0 -13.4  34158  289.55 0855.28
2009/04/23 08:47:13.9     -78     27    -49     83     96 289.1 -38.4  34138  289.21 0855.28
2009/04/23 08:47:14.0     -44      4    -29     45     53 276.1 -40.0  34148  289.36 0855.28
2009/04/23 08:47:14.1     -15    -19     -9     25     26 219.6 -23.3  34136  289.18 0855.28
2009/04/23 08:47:14.2       3    -21     -2     22     23 170.2  -5.2  34132  289.11 0855.28
2009/04/23 08:47:14.3      15    -46     24     49     54 161.7  27.2  34150  289.41 0855.28
2009/04/23 08:47:14.4      38    -27     22     47     51 126.0  27.1  34168  289.70 0855.28
2009/04/23 08:47:14.5      53    -33     28     63     68 122.4  25.1  34168  289.70 0855.28
2009/04/23 08:47:14.6      63     -1     33     64     72  91.7  28.2  34160  289.58 0855.28
2009/04/23 08:47:14.7      39     -1     10     40     42  91.7  14.3  34162  289.60 0855.28
2009/04/23 08:47:14.8      27    -34      2     44     45 141.3   2.8  34156  289.50 0855.28
2009/04/23 08:47:14.9      59    -59    -25     84     87 134.9 -21.7  34148  289.36 0855.28
2009/04/23 08:47:15.1      57     20    -21     61     65  70.0 -19.7  34144  289.30 0855.28
2009/04/23 08:47:15.2      45     -6    -16     46     48  97.9 -23.3  34142  289.26 0855.28
2009/04/23 08:47:15.3      51     20    -43     55     69  68.3 -47.1  34132  289.09 0855.28
2009/04/23 08:47:15.4      56     30    -84     64    105  61.1 -63.4  34146  289.33 0855.29
2009/04/23 08:47:15.5      82     44    -95     94    133  61.6 -54.5  34152  289.45 0855.29
2009/04/23 08:47:15.6     105     76    -35    130    135  54.0 -15.4  34168  289.70 0855.29
2009/04/23 08:47:15.7     116     90    -44    147    153  52.2 -21.7  34172  289.79 0855.29
2009/04/23 08:47:15.8      73     94    -57    120    132  37.8 -31.5  34172  289.77 0855.29
2009/04/23 08:47:15.9      23     80    -73     84    111  16.5 -49.8  34158  289.53 0855.29
2009/04/23 08:47:16.0     -16     42    -31     45     54 339.1 -42.0  34152  289.45 0855.29
2009/04/23 08:47:16.1       2     52     23     53     57   2.7  25.1  34156  289.52 0855.29
2009/04/23 08:47:16.2     -27      0     37     28     46 270.0  59.4  34152  289.43 0855.29
2009/04/23 08:47:16.3     -34      0     57     35     66 270.0  64.7  34156  289.50 0855.29
2009/04/23 08:47:16.4     -85    -49     37     99    105 240.2  21.5  34160  289.57 0855.29
2009/04/23 08:47:16.5     -92    -53     43    107    115 239.8  23.0  34166  289.69 0855.29
2009/04/23 08:47:16.6     -73    -25     58     78     97 250.9  40.7  34164  289.65 0855.29
2009/04/23 08:47:16.7     -76     21     60     80    100 285.9  40.7  34164  289.63 0855.29
2009/04/23 08:47:16.8    -110     26     14    114    115 283.7   7.1  34150  289.40 0855.29
2009/04/23 08:47:16.9    -175     27    -49    178    184 278.8 -20.0  34096  288.48 0855.29
2009/04/23 08:47:17.0    -172     41    -47    177    184 283.7 -15.0  34068  288.03 0855.29
2009/04/23 08:47:17.1    -192     -7     -9    193    194 267.9  -2.8  34066  287.98 0855.29
2009/04/23 08:47:17.2    -183    -38    -19    188    190 258.1  -6.0  34062  287.92 0855.29
2009/04/23 08:47:17.3    -182     -6    -31    183    186 267.9  -9.6  34064  287.94 0855.29
2009/04/23 08:47:17.4    -156    -19    -32    158    162 262.8 -11.6  34064  287.96 0855.29
2009/04/23 08:47:17.5    -130    -49    -42    140    146 249.2 -21.7  34064  287.94 0855.29
2009/04/23 08:47:17.6    -110   -104    -53    152    160 226.8 -24.0  34068  288.01 0855.29
2009/04/23 08:47:17.7    -119   -110    -92    163    187 227.3 -36.3  34070  288.06 0855.29
2009/04/23 08:47:17.8    -104   -104    -62    148    160 225.1 -28.5  34070  288.06 0855.29
2009/04/23 08:47:17.9     -80   -125    -57    149    159 212.6 -26.1  34070  288.06 0855.29
2009/04/23 08:47:18.0    -100   -106    -48    147    154 223.3 -23.8  34070  288.04 0855.29
2009/04/23 08:47:18.1     -95   -152    -47    180    187 211.9 -14.7  34066  287.99 0855.29
2009/04/23 08:47:18.2    -122   -142    -56    188    197 220.5 -16.6  34074  288.13 0855.29
2009/04/23 08:47:18.3    -130   -135    -51    188    195 223.9 -15.2  34072  288.09 0855.29
2009/04/23 08:47:18.4    -127   -134    -43    185    191 223.4 -13.2  34068  288.03 0855.29
2009/04/23 08:47:18.5     -86   -155    -17    178    179 209.2  -5.6  34068  288.01 0855.29
2009/04/23 08:47:18.6     -63   -168    -23    180    182 200.7  -7.3  34072  288.08 0855.29
2009/04/23 08:47:18.7     -81   -169    -18    188    189 205.6  -5.6  34068  288.03 0855.29
2009/04/23 08:47:18.8     -71   -176    -29    190    193 202.1  -8.8  34070  288.06 0855.29
2009/04/23 08:47:18.9    -101   -161    -36    191    195 212.1 -10.9  34076  288.16 0855.29
2009/04/23 08:47:19.0     -90   -140    -46    167    173 213.0 -20.2  34074  288.11 0855.29
2009/04/23 08:47:19.1     -84   -145    -58    168    177 210.3 -24.0  34078  288.18 0855.29
2009/04/23 08:47:19.2     -68   -138    -59    154    164 206.3 -25.9  34078  288.20 0855.29
2009/04/23 08:47:19.3     -72   -161    -35    177    181 204.1 -11.3  34070  288.06 0855.29
2009/04/23 08:47:19.4     -80   -156    -32    176    179 207.2 -10.5  34072  288.08 0855.29
2009/04/23 08:47:19.5     -89   -159    -41    183    188 209.2 -12.6  34074  288.11 0855.29
2009/04/23 08:47:19.6     -89   -143    -64    169    180 211.9 -25.9  34072  288.09 0855.29
2009/04/23 08:47:19.7    -120   -135    -54    181    190 221.7 -16.8  34070  288.06 0855.29
2009/04/23 08:47:19.8    -110   -107    -50    154    161 226.0 -23.3  34076  288.16 0855.29
2009/04/23 08:47:19.9    -137   -129    -44    189    195 226.9 -13.2  34076  288.16 0855.29
2009/04/23 08:47:20.0    -157   -113    -65    194    205 234.0 -18.7  34108  288.69 0855.29
2009/04/23 08:47:20.1    -121   -107    -66    162    174 228.4 -27.8  34112  288.75 0855.29
2009/04/23 08:47:20.2    -157   -137    -69    209    220 228.7 -23.8  34094  288.47 0855.29
2009/04/23 08:47:20.3    -241    -61    -74    249    259 255.6 -21.5  34094  288.44 0855.29
2009/04/23 08:47:20.4    -272   -108    -80    293    304 248.3 -15.4  34078  288.17 0855.29
2009/04/23 08:47:20.5    -271   -138    -50    305    310 242.9  -9.3  34078  288.19 0855.29
2009/04/23 08:47:20.6    -242   -144    -81    282    294 239.3 -16.0  34070  288.04 0855.29
2009/04/23 08:47:20.7    -193   -163    -76    253    264 229.8 -21.7  34068  288.02 0855.29
2009/04/23 08:47:20.8    -180   -167    -88    246    261 227.1 -24.6  34068  288.00 0855.29
2009/04/23 08:47:20.9    -193   -142    -84    240    254 233.6 -24.4  34064  287.95 0855.29
2009/04/23 08:47:21.0    -176   -112    -91    209    227 237.5 -29.5  34068  288.03 0855.29
2009/04/23 08:47:21.1    -119   -190    -65    225    234 212.1 -21.2  34082  288.25 0855.29
2009/04/23 08:47:21.2    -141   -191    -52    238    244 216.5 -12.4  34082  288.26 0855.29
2009/04/23 08:47:21.3    -135   -160    -69    210    221 220.1 -23.8  34082  288.25 0855.29
2009/04/23 08:47:21.4    -142   -134    -67    196    208 226.7 -18.9  34084  288.30 0855.29
2009/04/23 08:47:21.5    -152   -155    -84    218    233 224.3 -26.4  34078  288.20 0855.29
2009/04/23 08:47:21.6     -31    -95     -7    101    102 198.5  -4.1  34076  288.14 0855.29
2009/04/23 08:47:21.7     -36   -126    -49    132    140 196.0 -25.4  34082  288.25 0855.29
2009/04/23 08:47:21.8     -25   -181    -63    183    194 188.0 -19.1  34080  288.23 0855.29
2009/04/23 08:47:21.9     -50   -253     26    259    261 191.3   5.9  34078  288.19 0855.29
2009/04/23 08:47:22.0     -23   -236    -17    238    239 185.6  -4.1  34080  288.21 0855.29
2009/04/23 08:47:22.1     -33   -239    -13    242    243 188.0  -3.3  34078  288.17 0855.29
2009/04/23 08:47:22.2     -73   -255     32    266    268 196.1   6.9  34080  288.21 0855.29
2009/04/23 08:47:22.3    -107   -234    -76    258    270 204.5 -16.5  34076  288.15 0855.29
2009/04/23 08:47:22.4     -62   -211    -52    221    228 196.5 -13.4  34072  288.09 0855.30
2009/04/23 08:47:22.5     -91   -176    -71    199    212 207.4 -19.7  34072  288.09 0855.30
2009/04/23 08:47:22.6    -126   -153    -64    199    209 219.6 -23.0  34074  288.11 0855.30
2009/04/23 08:47:22.7     -80   -201    -58    217    225 201.8 -15.0  34074  288.13 0855.30
2009/04/23 08:47:22.8    -105   -223    -18    247    248 205.4  -4.4  34072  288.09 0855.30
2009/04/23 08:47:22.9    -155   -239    -51    285    290 213.0 -10.3  34072  288.07 0855.30
2009/04/23 08:47:23.0    -115   -287    -73    310    319 201.9 -13.4  34072  288.09 0855.30
2009/04/23 08:47:23.1    -104   -248    -94    270    285 202.8 -24.3  34076  288.15 0855.30
2009/04/23 08:47:23.2     -98   -175   -128    201    238 209.4 -39.9  34072  288.09 0855.30
2009/04/23 08:47:23.3    -113   -238   -112    264    286 205.5 -28.7  34072  288.07 0855.30
2009/04/23 08:47:23.4     -87   -272   -125    286    312 197.8 -29.4  34068  288.02 0855.30
2009/04/23 08:47:23.5      19   -260   -110    261    283 175.8 -28.5  34072  288.07 0855.30
2009/04/23 08:47:23.6      46   -220    -54    225    232 168.0 -13.7  34070  288.06 0855.30
2009/04/23 08:47:23.7      -8   -237    -62    238    246 182.0 -14.7  34070  288.05 0855.30
2009/04/23 08:47:23.8      -5   -221    -54    222    229 181.4 -13.7  34072  288.09 0855.30
2009/04/23 08:47:23.9     -20   -208    -66    210    220 185.6 -22.8  34070  288.06 0855.30
2009/04/23 08:47:24.0     -30   -219   -102    222    244 188.0 -30.8  34078  288.17 0855.30
2009/04/23 08:47:24.1     -66   -198    -75    209    223 198.5 -19.7  34070  288.06 0855.30
2009/04/23 08:47:24.2    -106   -211    -90    237    253 206.7 -26.1  34076  288.14 0855.30
2009/04/23 08:47:24.3     -65   -226    -67    236    245 196.0 -20.7  34070  288.05 0855.30
2009/04/23 08:47:24.4     -87   -271    -78    285    296 197.8 -15.4  34068  288.02 0855.29
2009/04/23 08:47:24.5     -88   -228    -71    245    255 201.2 -20.8  34068  288.00 0855.29
2009/04/23 08:47:24.6     -78   -247    -77    260    272 197.6 -16.5  34068  288.00 0855.29
2009/04/23 08:47:24.7     -41   -263    -74    267    278 188.9 -15.5  34066  287.99 0855.29
2009/04/23 08:47:24.8     -91   -239    -47    256    261 200.9 -10.5  34066  287.99 0855.29
2009/04/23 08:47:24.9       0   -228     -8    229    230 179.8  -2.2  34068  288.01 0855.29
2009/04/23 08:47:25.0     -17   -191    -22    192    194 185.3  -6.7  34070  288.06 0855.29
2009/04/23 08:47:25.1       8   -163    -33    164    168 177.1 -11.3  34072  288.08 0855.29
2009/04/23 08:47:25.2      -7   -214    -82    215    230 182.0 -26.1  34068  288.01 0855.29
2009/04/23 08:47:25.3      18   -232    -61    233    241 175.5 -14.7  34068  288.00 0855.29
2009/04/23 08:47:25.4      67   -220    -62    231    240 163.1 -15.0  34066  287.99 0855.29
2009/04/23 08:47:25.5     -24   -229    -47    231    236 186.2 -11.6  34072  288.09 0855.29
2009/04/23 08:47:25.6       7   -224    -53    225    232 178.2 -13.3  34062  287.91 0855.29
2009/04/23 08:47:25.7       6   -201    -60    202    210 178.2 -21.7  34066  287.98 0855.29
2009/04/23 08:47:25.8     -24   -194    -26    196    198 187.1  -7.7  34064  287.94 0855.29
2009/04/23 08:47:25.9     -52   -224    -70    231    242 193.1 -17.0  34068  288.00 0855.29
2009/04/23 08:47:26.0      -5   -261    -66    262    271 181.1 -14.3  34066  287.97 0855.29
2009/04/23 08:47:26.1     -48   -274    -65    279    287 190.0 -13.3  34068  288.00 0855.29
2009/04/23 08:47:26.2     -27   -276    -60    278    285 185.6 -12.2  34064  287.95 0855.29
2009/04/23 08:47:26.3     -20   -304    -44    305    309 183.8  -8.2  34062  287.92 0855.29
2009/04/23 08:47:26.4      51   -316    -54    321    326 170.8  -9.7  34064  287.93 0855.30
2009/04/23 08:47:26.5     101   -325    -75    341    350 162.7 -12.5  34064  287.94 0855.30
2009/04/23 08:47:26.6       5   -378    -89    379    390 179.2 -13.3  34060  287.88 0855.30
2009/04/23 08:47:26.7     -88   -398    -85    408    417 192.5 -11.8  34062  287.90 0855.30
2009/04/23 08:47:26.8     -94   -372   -113    384    401 194.3 -16.4  34064  287.93 0855.30
2009/04/23 08:47:26.9     -78   -346   -120    355    375 192.8 -18.7  34062  287.91 0855.30
2009/04/23 08:47:27.0     -90   -325   -100    338    352 195.5 -21.4  34060  287.89 0855.30
2009/04/23 08:47:27.1     -63   -308    -64    315    322 191.6 -11.5  34066  287.99 0855.30
2009/04/23 08:47:27.2     -71   -294    -82    303    315 193.6 -15.2  34066  287.99 0855.30
2009/04/23 08:47:27.3     -73   -283    -76    293    303 194.5 -14.7  34066  287.99 0855.30
2009/04/23 08:47:27.4     -61   -291    -55    298    304 192.0 -10.5  34064  287.95 0855.30
2009/04/23 08:47:27.5     -54   -287    -37    293    296 190.7  -7.2  34064  287.93 0855.30
2009/04/23 08:47:27.6     -35   -278    -35    281    284 187.3  -7.2  34068  288.02 0855.30
2009/04/23 08:47:27.7     -35   -269    -24    272    274 187.6  -5.2  34066  287.99 0855.30
2009/04/23 08:47:27.8     -33   -245    -85    248    263 187.8 -19.1  34064  287.93 0855.30
2009/04/23 08:47:27.9     -53   -259    -62    265    273 191.6 -13.2  34066  287.97 0855.30
2009/04/23 08:47:28.0     -20   -261    -72    262    272 184.4 -15.4  34064  287.95 0855.30
2009/04/23 08:47:28.1      -7   -262    -83    263    276 181.6 -17.5  34064  287.95 0855.30
2009/04/23 08:47:28.2       4   -270    -80    271    283 179.1 -16.6  34066  287.97 0855.30
2009/04/23 08:47:28.3      -7   -271    -78    272    282 181.6 -20.8  34066  287.99 0855.30
2009/04/23 08:47:28.4     -74   -296   -103    306    324 194.0 -18.7  34064  287.93 0855.31
2009/04/23 08:47:28.5     -85   -314    -80    326    336 195.2 -13.9  34064  287.93 0855.31
2009/04/23 08:47:28.6     -99   -325   -102    340    354 197.0 -21.7  34064  287.93 0855.31
2009/04/23 08:47:28.7     -64   -288   -114    296    317 192.7 -26.6  34064  287.95 0855.31
2009/04/23 08:47:28.8     -57   -285   -105    291    309 191.5 -25.1  34062  287.92 0855.31
2009/04/23 08:47:28.9       2   -310   -111    311    331 179.5 -19.7  34062  287.90 0855.31
2009/04/23 08:47:29.0     -34   -287    -80    290    301 186.9 -15.5  34058  287.85 0855.31
2009/04/23 08:47:29.1     -34   -266    -77    269    280 187.3 -16.0  34062  287.90 0855.31
2009/04/23 08:47:29.2     -42   -271    -65    275    283 188.9 -13.4  34064  287.93 0855.31
2009/04/23 08:47:29.3     -36   -342    -82    344    354 186.1 -13.4  34062  287.91 0855.31
2009/04/23 08:47:29.4      -9   -304    -58    305    311 181.8 -10.9  34064  287.95 0855.31
2009/04/23 08:47:29.5       0   -246    -61    247    255 180.0 -13.9  34064  287.95 0855.31
2009/04/23 08:47:29.6     -28   -219    -64    221    230 187.3 -21.0  34064  287.96 0855.31
2009/04/23 08:47:29.7     -13   -213    -67    214    224 183.6 -22.5  34064  287.94 0855.31
2009/04/23 08:47:29.8       2   -181    -85    182    200 179.1 -31.4  34062  287.92 0855.31
2009/04/23 08:47:29.9      17   -210    -68    211    222 175.1 -18.1  34064  287.94 0855.31
2009/04/23 08:47:30.0      37   -212    -68    216    227 170.0 -17.6  34066  287.99 0855.31
2009/04/23 08:47:30.1      14   -193    -75    194    207 175.8 -26.4  34064  287.94 0855.31
2009/04/23 08:47:30.2      28   -160   -127    163    206 170.0 -46.4  34066  287.98 0855.31
2009/04/23 08:47:30.3     -36   -238    -90    241    257 188.7 -25.9  34060  287.88 0855.30
2009/04/23 08:47:30.4     -47   -415    -77    418    426 186.6 -10.5  34062  287.92 0855.30
2009/04/23 08:47:30.5    -125   -355   -123    377    397 199.4 -18.1  34062  287.91 0855.30
2009/04/23 08:47:30.6    -169   -331   -140    372    397 207.1 -26.0  34064  287.94 0855.30
2009/04/23 08:47:30.7    -171   -292   -149    339    370 210.4 -29.6  34060  287.89 0855.30
2009/04/23 08:47:30.8     -66   -242   -153    252    294 195.4 -38.4  34064  287.95 0855.30
2009/04/23 08:47:30.9     -57   -262   -126    269    297 192.3 -31.5  34062  287.90 0855.30
2009/04/23 08:47:31.0    -145   -238    -91    279    294 211.4 -18.1  34062  287.92 0855.30
2009/04/23 08:47:31.1    -135   -213    -83    253    266 212.5 -23.8  34062  287.90 0855.30
2009/04/23 08:47:31.2    -132   -159    -96    207    228 219.6 -31.5  34062  287.92 0855.30
2009/04/23 08:47:31.3     -93   -155    -69    181    193 211.0 -26.1  34060  287.89 0855.30
2009/04/23 08:47:31.4     -78   -188    -65    204    214 202.5 -23.0  34062  287.92 0855.30
2009/04/23 08:47:31.5    -133   -169    -74    216    228 218.3 -23.6  34056  287.82 0855.30
2009/04/23 08:47:31.6    -119   -151    -85    193    210 218.3 -29.6  34060  287.87 0855.30
2009/04/23 08:47:31.7    -117   -128    -98    174    199 222.3 -36.3  34058  287.86 0855.30
2009/04/23 08:47:31.8    -118   -148   -127    190    228 218.7 -41.1  34058  287.86 0855.30
2009/04/23 08:47:31.9     -32   -117   -106    122    161 195.6 -50.0  34060  287.89 0855.30
2009/04/23 08:47:32.0     -63   -105    -74    123    143 210.8 -38.4  34056  287.81 0855.30
2009/04/23 08:47:32.1     -85   -187    -64    206    215 204.5 -22.5  34060  287.87 0855.30
2009/04/23 08:47:32.2     -80   -140    -72    162    177 209.9 -30.1  34060  287.89 0855.30
2009/04/23 08:47:32.3     -74   -160    -98    177    202 204.7 -35.8  34062  287.92 0855.30
2009/04/23 08:47:32.4     -38   -181   -106    186    214 192.0 -36.8  34066  287.98 0855.30
2009/04/23 08:47:32.5      -9   -201   -116    202    232 182.7 -37.1  34068  288.01 0855.30
2009/04/23 08:47:32.6     -24   -234   -111    236    260 186.0 -31.5  34062  287.90 0855.30
2009/04/23 08:47:32.7     -35   -207    -72    211    222 189.8 -23.3  34060  287.87 0855.30
2009/04/23 08:47:32.8     -23   -218    -71    220    231 186.2 -23.6  34062  287.91 0855.30
2009/04/23 08:47:32.9     -30   -205    -76    208    221 188.5 -25.4  34060  287.89 0855.30
2009/04/23 08:47:33.0     -40   -209    -92    213    232 190.9 -29.3  34060  287.89 0855.30
2009/04/23 08:47:33.1      15   -195    -85    196    213 175.5 -29.3  34064  287.96 0855.30
2009/04/23 08:47:33.2     -41   -158    -53    164    172 194.5 -23.3  34058  287.84 0855.30
2009/04/23 08:47:33.3     -18   -132    -59    134    146 188.0 -29.5  34058  287.84 0855.30
2009/04/23 08:47:33.4     -10    -99    -53    100    113 186.2 -34.2  34058  287.86 0855.30
2009/04/23 08:47:33.5      15   -146    -51    147    155 173.8 -23.3  34060  287.87 0855.30
2009/04/23 08:47:33.6      -9   -213    -75    214    226 182.5 -24.0  34060  287.87 0855.30
2009/04/23 08:47:33.7       4   -248   -120    249    276 179.0 -31.7  34066  287.97 0855.30
2009/04/23 08:47:33.8      16   -267    -91    268    283 176.4 -23.3  34064  287.95 0855.30
2009/04/23 08:47:33.9      65   -276    -78    284    295 166.6 -15.5  34062  287.92 0855.30
2009/04/23 08:47:34.0      41   -217    -63    222    231 169.1 -16.0  34062  287.91 0855.30
2009/04/23 08:47:34.1      17   -178    -56    179    187 174.4 -22.5  34062  287.92 0855.30
2009/04/23 08:47:34.2      44   -260    -10    264    265 170.2  -2.3  34062  287.92 0855.30
2009/04/23 08:47:34.3      50   -210      7    216    217 166.6   2.1  34062  287.92 0855.30
2009/04/23 08:47:34.4      43   -197    -57    202    210 167.5 -15.8  34064  287.94 0855.30
2009/04/23 08:47:34.5      17   -257    -71    258    268 176.2 -15.5  34062  287.92 0855.30
2009/04/23 08:47:34.6      77   -284    -77    295    305 164.9 -14.7  34062  287.90 0855.30
2009/04/23 08:47:34.7      93   -212    -19    232    233 156.3  -4.9  34062  287.92 0855.30
2009/04/23 08:47:34.8     103   -217      3    241    242 154.6   0.7  34064  287.93 0855.30
2009/04/23 08:47:34.9     -21   -163    -45    165    172 187.6 -15.2  34062  287.92 0855.30
2009/04/23 08:47:35.0      21   -153      7    155    156 172.0   2.9  34062  287.91 0855.30
2009/04/23 08:47:35.1     129   -225     -5    260    261 150.2  -1.2  34064  287.93 0855.30
2009/04/23 08:47:35.2      60   -307    -50    313    318 168.9  -9.1  34062  287.92 0855.30
2009/04/23 08:47:35.3      34   -351    -58    353    358 174.3  -9.3  34064  287.94 0855.30
2009/04/23 08:47:35.4     114   -250     -5    275    276 155.5  -1.1  34062  287.90 0855.30
2009/04/23 08:47:35.5     142   -209      2    253    254 145.7   0.5  34062  287.92 0855.30
2009/04/23 08:47:35.6     126   -216    -16    251    252 149.7  -3.7  34064  287.93 0855.30
2009/04/23 08:47:35.7     146   -215    -20    261    262 145.7  -4.6  34064  287.95 0855.30
2009/04/23 08:47:35.8     138   -216     -5    257    258 147.5  -1.3  34066  287.97 0855.30
2009/04/23 08:47:35.9      51   -252    -14    258    259 168.4  -3.3  34064  287.95 0855.30
2009/04/23 08:47:36.0      38   -246    -50    250    255 171.1 -11.3  34060  287.88 0855.30
2009/04/23 08:47:36.1      41   -227    -31    231    234 169.8  -7.7  34060  287.88 0855.30
2009/04/23 08:47:36.2      54   -257    -62    263    271 168.0 -13.4  34062  287.90 0855.30
2009/04/23 08:47:36.3      46   -229    -54    234    241 168.4 -13.2  34062  287.90 0855.31
2009/04/23 08:47:36.4      96   -204     -4    226    227 154.7  -1.3  34062  287.92 0855.31
2009/04/23 08:47:36.5      97   -186     24    210    212 152.4   6.7  34062  287.91 0855.31
2009/04/23 08:47:36.6     136   -177     10    224    225 142.4   2.8  34062  287.92 0855.31
2009/04/23 08:47:36.7     103   -190     11    217    218 151.5   3.1  34064  287.96 0855.31
2009/04/23 08:47:36.8      91   -192     50    213    219 154.5  13.2  34064  287.94 0855.31
2009/04/23 08:47:36.9      84   -274     34    287    290 162.8   6.9  34062  287.90 0855.31
2009/04/23 08:47:37.0     137   -240     81    277    289 150.2  16.3  34064  287.95 0855.31
2009/04/23 08:47:37.1     138   -210     10    252    253 146.6   2.3  34060  287.88 0855.31
2009/04/23 08:47:37.2     106   -191     -4    219    220 151.0  -1.3  34060  287.87 0855.31
2009/04/23 08:47:37.3     115   -158      5    196    197 143.9   1.6  34064  287.94 0855.31
2009/04/23 08:47:37.4      96   -188     -4    212    213 152.9  -1.3  34060  287.89 0855.31
2009/04/23 08:47:37.5     101   -217     33    240    243 155.1   8.0  34062  287.90 0855.31
2009/04/23 08:47:37.6     139   -266     70    301    310 152.4  13.1  34064  287.93 0855.31
2009/04/23 08:47:37.7     164   -242      5    293    294 145.7   1.0  34062  287.92 0855.31
2009/04/23 08:47:37.8     203   -230     97    308    324 138.6  17.5  34064  287.93 0855.31
2009/04/23 08:47:37.9     121   -190     26    226    228 147.5   6.7  34060  287.87 0855.31
2009/04/23 08:47:38.0     176   -158    -21    237    238 132.0  -5.2  34060  287.87 0855.31
2009/04/23 08:47:38.1     112   -175    -54    208    215 147.4 -14.7  34058  287.84 0855.31
2009/04/23 08:47:38.2     103   -168     -4    198    199 148.6  -1.3  34058  287.86 0855.31
2009/04/23 08:47:38.3      97   -152    -61    181    191 147.4 -23.3  34060  287.87 0855.31
2009/04/23 08:47:38.4     144   -121    -65    189    199 130.0 -23.8  34060  287.87 0855.31
2009/04/23 08:47:38.5     170   -140    -61    221    229 129.5 -20.0  34062  287.91 0855.31
2009/04/23 08:47:38.6     162   -110    -56    197    204 124.2 -20.7  34062  287.91 0855.31
2009/04/23 08:47:38.7     171   -144    -53    224    231 130.0 -13.3  34060  287.87 0855.31
2009/04/23 08:47:38.8     117   -150    -78    191    206 142.2 -27.8  34060  287.89 0855.31
2009/04/23 08:47:38.9      71   -188    -41    202    207 159.3 -11.5  34060  287.89 0855.31
2009/04/23 08:47:39.0      73   -165    -23    181    183 155.9  -7.3  34062  287.92 0855.31
2009/04/23 08:47:39.1      85   -255    -12    269    270 161.5  -2.6  34060  287.87 0855.31
2009/04/23 08:47:39.2     102   -309     49    326    330 161.7   8.7  34060  287.88 0855.31
2009/04/23 08:47:39.3      93   -349    -19    362    363 165.0  -3.0  34064  287.94 0855.31
2009/04/23 08:47:39.4     112   -336      0    355    356 161.6   0.0  34060  287.89 0855.31
2009/04/23 08:47:39.5      92   -321     13    334    335 164.0   2.3  34064  287.94 0855.31
2009/04/23 08:47:39.6      20   -290    -16    291    292 176.0  -3.3  34060  287.88 0855.31
2009/04/23 08:47:39.7     -28   -300     14    302    303 185.4   2.8  34060  287.88 0855.31
2009/04/23 08:47:39.8     -14   -269     20    270    271 183.1   4.4  34060  287.87 0855.31
2009/04/23 08:47:39.9     -24   -261    -10    263    264 185.3  -2.2  34060  287.87 0855.31
2009/04/23 08:47:40.0     -31   -342    -10    344    345 185.3  -1.7  34064  287.94 0855.31
2009/04/23 08:47:40.1      11   -334    -59    335    341 178.0 -10.1  34068  288.00 0855.31
2009/04/23 08:47:40.2      37   -320    -71    323    331 173.4 -12.5  34064  287.95 0855.31
2009/04/23 08:47:40.3      25   -327    -59    328    334 175.6 -10.3  34064  287.94 0855.31
2009/04/23 08:47:40.4     -18   -335    -32    336    338 183.2  -5.6  34068  288.01 0855.31
2009/04/23 08:47:40.5     -35   -337    -24    339    340 186.1  -4.1  34068  288.00 0855.31
2009/04/23 08:47:40.6     -13   -354    -34    355    357 182.1  -5.6  34070  288.06 0855.31
2009/04/23 08:47:40.7      22   -343    -78    344    353 176.3 -12.9  34068  288.03 0855.31
2009/04/23 08:47:40.8     -29   -362    -43    364    367 184.6  -6.9  34060  287.89 0855.31
2009/04/23 08:47:40.9     -42   -330    -67    333    340 187.3 -11.5  34064  287.96 0855.31
2009/04/23 08:47:41.0     -59   -291    -16    298    299 191.6  -3.1  34062  287.92 0855.31
2009/04/23 08:47:41.1     -17   -259    -36    260    263 183.8  -8.0  34064  287.93 0855.31
2009/04/23 08:47:41.2    -106   -306    -51    325    330 199.2  -9.0  34058  287.83 0855.31
2009/04/23 08:47:41.3    -130   -340    -56    365    370 201.0  -8.8  34060  287.88 0855.31
2009/04/23 08:47:41.4    -130   -298    -59    326    332 203.6 -10.4  34060  287.89 0855.31
2009/04/23 08:47:41.5    -117   -308    -78    330    340 200.8 -13.4  34058  287.86 0855.31
2009/04/23 08:47:41.6    -131   -287    -65    316    323 204.5 -11.8  34060  287.88 0855.31
2009/04/23 08:47:41.7    -101   -280    -91    298    312 200.0 -17.0  34070  288.05 0855.31
2009/04/23 08:47:41.8     -46   -274    -15    278    279 189.6  -3.1  34064  287.93 0855.31
2009/04/23 08:47:41.9     -64   -255    -39    263    266 194.2  -8.6  34062  287.90 0855.31
2009/04/23 08:47:42.0     -91   -263    -77    279    289 199.1 -20.2  34064  287.93 0855.31
2009/04/23 08:47:42.1     -91   -268    -67    284    292 198.7 -13.4  34066  287.97 0855.31
2009/04/23 08:47:42.3     -99   -275   -105    293    312 199.8 -19.7  34068  288.02 0855.31
2009/04/23 08:47:42.4     -49   -265    -75    270    280 190.5 -20.2  34072  288.07 0855.31
2009/04/23 08:47:42.4     -38   -268    -87    271    285 188.2 -17.9  34068  288.00 0855.31
2009/04/23 08:47:42.5     -32   -260    -75    263    274 187.2 -16.0  34066  287.97 0855.31
2009/04/23 08:47:42.7     -19   -234    -71    235    246 184.7 -17.0  34064  287.93 0855.31
2009/04/23 08:47:42.8     -76   -226    -79    239    251 198.7 -23.8  34064  287.93 0855.31
2009/04/23 08:47:42.9     -68   -225    -79    236    250 196.9 -18.6  34064  287.93 0855.31
2009/04/23 08:47:43.0     -23   -180    -28    182    185 187.3  -9.0  34062  287.92 0855.31
2009/04/23 08:47:43.1      20   -151    -56    153    162 172.4 -25.1  34062  287.92 0855.31
2009/04/23 08:47:43.2      20   -199    -56    201    209 174.2 -15.8  34064  287.96 0855.31
2009/04/23 08:47:43.3      38   -246    -58    250    257 171.1 -13.2  34066  287.99 0855.31
2009/04/23 08:47:43.4       4   -232     13    233    234 178.9   3.3  34060  287.88 0855.32
2009/04/23 08:47:43.5      49   -208    -58    214    222 166.6 -15.4  34060  287.89 0855.32
2009/04/23 08:47:43.6     -49   -118   -111    129    170 202.7 -49.5  34054  287.79 0855.32
2009/04/23 08:47:43.7     -36   -118   -103    124    161 197.0 -48.5  34056  287.82 0855.32
2009/04/23 08:47:43.8     -44   -132    -95    140    169 198.7 -41.7  34060  287.87 0855.32
2009/04/23 08:47:43.9     -86   -180    -64    200    209 205.5 -23.3  34062  287.91 0855.32
2009/04/23 08:47:44.0    -106   -156    -79    190    205 214.3 -28.2  34062  287.91 0855.32
2009/04/23 08:47:44.1     -64   -151   -108    165    197 202.9 -40.7  34062  287.92 0855.32
2009/04/23 08:47:44.2     -26   -171    -97    174    199 188.9 -35.8  34066  287.98 0855.32
2009/04/23 08:47:44.3     -22   -141    -83    143    165 188.9 -37.3  34062  287.91 0855.32
2009/04/23 08:47:44.4      18   -167    -52    169    176 173.8 -22.1  34066  287.98 0855.32
2009/04/23 08:47:44.5       0   -206    -46    207    213 180.2 -12.6  34062  287.92 0855.32
2009/04/23 08:47:44.6     -13   -218    -28    219    221 183.6  -7.5  34062  287.92 0855.32
2009/04/23 08:47:44.7     -14   -186    -14    187    188 184.4  -4.4  34062  287.92 0855.32
2009/04/23 08:47:44.8     -44   -168     -3    174    175 194.9  -1.1  34062  287.91 0855.32
2009/04/23 08:47:44.9     -50   -142    -41    151    157 199.6 -15.4  34062  287.91 0855.32
2009/04/23 08:47:45.0     -51   -108    -77    120    142 205.5 -40.0  34066  287.98 0855.32
2009/04/23 08:47:45.1      21    -69    -47     73     86 163.1 -40.0  34064  287.96 0855.32
2009/04/23 08:47:45.2       8    -65    -37     66     75 172.9 -35.8  34064  287.96 0855.32
2009/04/23 08:47:45.3      37    -88    -27     96    100 157.3 -16.0  34064  287.96 0855.32
2009/04/23 08:47:45.4      50   -100    -43    113    120 153.3 -26.4  34064  287.96 0855.32
2009/04/23 08:47:45.5      44   -100    -38    110    116 155.9 -23.3  34066  287.98 0855.32
2009/04/23 08:47:45.6      71   -119    -33    139    143 149.3 -13.4  34066  287.98 0855.32
2009/04/23 08:47:45.7      60   -105      1    122    123 150.1   0.7  34064  287.96 0855.32
2009/04/23 08:47:45.8      40   -152     41    158    164 165.3  14.5  34062  287.92 0855.32
2009/04/23 08:47:45.9      71   -144     28    161    164 153.7   9.9  34066  287.98 0855.32
2009/04/23 08:47:46.0      97   -141     39    172    177 145.3  12.9  34066  287.98 0855.32
2009/04/23 08:47:46.1      83   -168     65    188    200 153.5  19.2  34064  287.94 0855.32
2009/04/23 08:47:46.2      76   -137     56    157    166 151.0  20.2  34066  287.99 0855.32
2009/04/23 08:47:46.3      77   -156     52    175    183 153.7  16.8  34062  287.92 0855.32
2009/04/23 08:47:46.4      98   -137     38    169    174 144.4  12.9  34062  287.92 0855.32
2009/04/23 08:47:46.5      89   -129     14    158    159 145.3   5.2  34066  287.99 0855.32
2009/04/23 08:47:46.6      80   -126     38    150    155 147.4  14.3  34066  287.98 0855.32
2009/04/23 08:47:46.7      93   -120     30    153    156 142.1  11.1  34064  287.96 0855.32
2009/04/23 08:47:46.8     102   -104    -21    146    148 135.5  -8.2  34062  287.91 0855.32
2009/04/23 08:47:46.9     105   -115      6    156    157 137.7   2.3  34062  287.92 0855.32
2009/04/23 08:47:47.0      87    -87     51    124    134 134.9  23.1  34066  287.98 0855.32
2009/04/23 08:47:47.1      64   -102     42    121    129 147.5  19.4  34064  287.94 0855.32
2009/04/23 08:47:47.2      62    -83      3    104    105 143.0   1.8  34066  287.98 0855.32
2009/04/23 08:47:47.3      44    -69     21     83     86 147.5  14.7  34064  287.94 0855.32
2009/04/23 08:47:47.4      62    -62     47     88     99 134.9  30.8  34066  287.98 0855.31
2009/04/23 08:47:47.5      97    -58     55    114    126 121.1  27.3  34064  287.96 0855.31
2009/04/23 08:47:47.6     103    -59     59    119    132 119.8  27.8  34066  287.98 0855.31
2009/04/23 08:47:47.7     114    -45     67    123    140 111.8  31.3  34064  287.96 0855.31
2009/04/23 08:47:47.8     133    -63     75    148    165 115.3  29.1  34064  287.94 0855.31
2009/04/23 08:47:47.9     107    -68     83    128    152 122.5  35.6  34066  287.98 0855.31
2009/04/23 08:47:48.0     119    -62    108    135    172 117.5  43.0  34064  287.96 0855.31
2009/04/23 08:47:48.1     124    -41    140    131    191 108.6  52.1  34070  288.04 0855.31
2009/04/23 08:47:48.2      28    -37    124     47    132 142.2  79.1  34070  288.04 0855.31
2009/04/23 08:47:48.3     -14     43     71     46     84 341.7  64.6  34070  288.04 0855.31
2009/04/23 08:47:48.4      84    -26    107     89    139 107.3  56.3  34070  288.04 0855.31
2009/04/23 08:47:48.5      85    -15    111     87    141 100.1  57.9  34068  288.01 0855.31
2009/04/23 08:47:48.6     122     -3    104    123    161  91.7  44.5  34066  287.98 0855.31
2009/04/23 08:47:48.7     124      0    120    125    173  90.0  49.2  34068  288.01 0855.31
2009/04/23 08:47:48.8     103     10     86    104    134  84.3  43.8  34066  287.98 0855.31
2009/04/23 08:47:48.9      51    -12     90     53    104 104.2  66.8  34068  288.03 0855.31
2009/04/23 08:47:49.0     -17    -11     72     21     75 237.5  82.8  34072  288.09 0855.31
2009/04/23 08:47:49.1      82      3     83     83    117  87.4  50.1  34070  288.06 0855.31
2009/04/23 08:47:49.2      66     21    101     70    122  71.8  62.1  34068  288.01 0855.31
2009/04/23 08:47:49.3      48     35     93     60    110  54.0  64.6  34070  288.06 0855.31
2009/04/23 08:47:49.4      34     23     81     42     91  55.8  70.8  34070  288.06 0855.29
2009/04/23 08:47:49.5      29     46    104     55    117  32.6  69.8  34070  288.04 0855.29
2009/04/23 08:47:49.6       8    106     91    107    140   4.5  44.8  34068  288.03 0855.29
2009/04/23 08:47:49.7      19      3     67     20     69  78.5  82.8  34068  288.03 0855.29
2009/04/23 08:47:49.8      -3      4     70      6     70 320.4  90.0  34068  288.03 0855.29
2009/04/23 08:47:49.9       0     33     94     34     99 359.1  79.7  34070  288.06 0855.29
2009/04/23 08:47:50.0      -4      0    101      5    101 281.5  90.0  34066  287.99 0855.29
2009/04/23 08:47:50.1     -81     53     56     97    112 303.3  32.4  34068  288.01 0855.29
2009/04/23 08:47:50.2      32     10     47     34     58  71.6  60.5  34068  288.01 0855.29
2009/04/23 08:47:50.3      58    -23     94     63    113 111.7  63.6  34066  287.99 0855.29
2009/04/23 08:47:50.4      65     19     98     68    119  73.2  62.1  34066  287.99 0855.29
2009/04/23 08:47:50.5     117     38    115    124    169  71.8  47.9  34068  288.01 0855.29
2009/04/23 08:47:50.6     161     12    166    162    231  85.7  50.4  34064  287.96 0855.29
2009/04/23 08:47:50.7     187    -16    152    188    241  95.0  43.3  34066  287.98 0855.29
2009/04/23 08:47:50.8     136    -12    145    137    199  95.2  51.6  34066  287.98 0855.29
2009/04/23 08:47:50.9     144    -57    121    155    196 111.7  42.0  34066  287.99 0855.29
2009/04/23 08:47:51.0     124    -68    124    142    188 118.8  45.8  34066  287.99 0855.29
2009/04/23 08:47:51.1      76    -15    108     78    133 101.5  60.6  34062  287.92 0855.29
2009/04/23 08:47:51.2      70      1    108     71    129  89.2  64.1  34064  287.94 0855.29
2009/04/23 08:47:51.3      88    -52    127    103    163 120.7  56.9  34064  287.94 0855.29
2009/04/23 08:47:51.4      51    -67    175     85    194 142.6  72.7  34052  287.74 0855.28
2009/04/23 08:47:51.5     267   -101    169    286    332 110.8  33.3  34050  287.70 0855.28
2009/04/23 08:47:51.6     291    -14    174    292    339  92.8  33.7  34060  287.88 0855.28
2009/04/23 08:47:51.7     325    -10    235    326    401  91.9  39.5  34054  287.78 0855.28
2009/04/23 08:47:51.8     325   -211    118    388    406 123.0  17.0  34060  287.89 0855.28
2009/04/23 08:47:51.9     256   -309    236    402    466 140.4  33.3  34056  287.80 0855.28
2009/04/23 08:47:52.0     323   -268    223    420    475 129.7  30.2  34050  287.72 0855.28
2009/04/23 08:47:52.1     377   -298    -11    481    482 128.4  -1.4  34054  287.78 0855.28
2009/04/23 08:47:52.2     276   -226     46    358    362 129.3   7.4  34046  287.64 0855.28
2009/04/23 08:47:52.3     119   -358    140    378    403 161.5  21.3  34054  287.79 0855.28
2009/04/23 08:47:52.4     278   -446    183    526    558 148.0  19.2  34054  287.77 0855.28
2009/04/23 08:47:52.5     160   -373    200    406    452 156.8  28.2  34048  287.67 0855.28
2009/04/23 08:47:52.6      90   -329    173    342    383 164.7  28.9  34056  287.81 0855.28
2009/04/23 08:47:52.7      66   -247    193    256    320 164.9  40.7  34054  287.77 0855.28
2009/04/23 08:47:52.8      25   -220    101    222    243 173.3  26.2  34052  287.75 0855.28
2009/04/23 08:47:52.9     -24   -167    172    169    241 188.2  50.2  34052  287.76 0855.28
2009/04/23 08:47:53.0     -31   -132    126    136    185 193.4  47.9  34060  287.87 0855.28
2009/04/23 08:47:53.1     -59   -181     67    191    203 198.3  19.4  34060  287.89 0855.28
2009/04/23 08:47:53.2     -64   -135     74    150    167 205.3  28.0  34058  287.86 0855.28
2009/04/23 08:47:53.3      24   -163     78    165    182 171.3  27.1  34058  287.86 0855.28
2009/04/23 08:47:53.4    -109    -99     11    148    149 227.8   4.4  34058  287.86 0855.28
2009/04/23 08:47:53.5     -84   -154    -53    176    184 208.7 -16.8  34060  287.89 0855.28
2009/04/23 08:47:53.6      67   -128    -18    145    147 152.4  -7.2  34054  287.77 0855.28
2009/04/23 08:47:53.7     -59    -91     65    109    126 213.0  33.5  34062  287.91 0855.28
2009/04/23 08:47:53.8     -17   -133     26    135    138 187.6  11.1  34062  287.92 0855.28
2009/04/23 08:47:53.9       0   -113    -27    114    118 180.0 -13.4  34060  287.89 0855.28
2009/04/23 08:47:54.0      13    -60    -41     62     74 167.5 -40.0  34066  287.98 0855.28
2009/04/23 08:47:54.1      40    -93    -56    102    116 156.4 -35.8  34066  287.98 0855.28
2009/04/23 08:47:54.2      39    -74    -71     84    109 151.9 -48.2  34066  287.98 0855.28
2009/04/23 08:47:54.3      47    -56    -64     74     97 140.3 -50.2  34066  287.98 0855.28
2009/04/23 08:47:54.4      82    -33    -32     89     94 112.2 -23.8  34066  287.99 0855.28
2009/04/23 08:47:54.5      54    -51    -15     75     77 133.1 -11.9  34066  287.99 0855.28
2009/04/23 08:47:54.6      79    -70     59    106    121 131.8  31.4  34062  287.92 0855.28
2009/04/23 08:47:54.7      56    -87     85    104    134 147.4  43.7  34062  287.92 0855.28
2009/04/23 08:47:54.8     175   -105    -26    205    207 120.9  -7.3  34066  287.99 0855.28
2009/04/23 08:47:54.9     110    -70    -95    131    161 122.4 -44.1  34060  287.87 0855.28
2009/04/23 08:47:55.0      83    -48    -73     97    121 120.2 -45.6  34066  287.99 0855.28
2009/04/23 08:47:55.1      64    -22    -13     68     70 109.1 -11.5  34062  287.92 0855.28
2009/04/23 08:47:55.2     -25    -20     15     33     36 230.5  27.1  34060  287.87 0855.28
2009/04/23 08:47:55.3      -4    -56     27     57     63 184.5  27.2  34060  287.87 0855.27
2009/04/23 08:47:55.4      43    -36    -20     57     61 129.6 -19.7  34060  287.89 0855.27
2009/04/23 08:47:55.5      30    -30     25     43     49 134.9  33.5  34062  287.91 0855.27
2009/04/23 08:47:55.6      64      0     17     65     68  90.0  15.2  34062  287.91 0855.27
2009/04/23 08:47:55.7      99     21      8    102    103  77.6   4.9  34064  287.94 0855.27
2009/04/23 08:47:55.8      68    -75     13    102    103 137.7   7.5  34070  288.04 0855.27
2009/04/23 08:47:55.9      -3    -84    -32     85     90 182.2 -25.9  34066  287.99 0855.27
2009/04/23 08:47:56.0      26    -64    -84     70    109 158.2 -60.7  34066  287.99 0855.27
2009/04/23 08:47:56.1      49   -115    -74    126    146 156.8 -37.9  34066  287.98 0855.27
2009/04/23 08:47:56.2      21   -154    -87    156    178 172.0 -35.8  34066  287.98 0855.27
2009/04/23 08:47:56.3      49   -145    -68    154    168 161.3 -29.7  34066  287.98 0855.27
2009/04/23 08:47:56.4      75   -137   -113    157    193 151.1 -43.7  34066  287.98 0855.27
2009/04/23 08:47:56.5      59   -138    -43    151    157 156.8 -20.7  34064  287.94 0855.27
2009/04/23 08:47:56.6      11   -174     15    175    176 176.4   5.2  34064  287.96 0855.27
2009/04/23 08:47:56.7     -66    -75     19    101    103 221.4  11.1  34060  287.87 0855.27
2009/04/23 08:47:56.8     117   -154    -32    194    197 142.8  -9.6  34064  287.96 0855.27
2009/04/23 08:47:56.9      58   -213    -65    221    230 164.6 -21.7  34060  287.87 0855.27
2009/04/23 08:47:57.0      77   -184    -21    200    202 157.1  -6.2  34058  287.86 0855.27
2009/04/23 08:47:57.1     170   -288     12    335    336 149.5   2.1  34062  287.91 0855.27
2009/04/23 08:47:57.2      94   -371     36    383    385 165.7   5.5  34058  287.86 0855.27
2009/04/23 08:47:57.3      76   -358     21    367    368 168.0   3.3  34058  287.83 0855.26
2009/04/23 08:47:57.4      57   -302    -41    308    311 169.3  -7.6  34058  287.83 0855.26
2009/04/23 08:47:57.5      83   -289    -11    301    302 164.0  -2.2  34056  287.80 0855.26
2009/04/23 08:47:57.6    -147   -301    -47    336    340 206.1  -8.0  34054  287.79 0855.26
2009/04/23 08:47:57.7    -116   -414    -94    430    441 195.7 -12.4  34036  287.48 0855.26
2009/04/23 08:47:57.8    -220   -343   -136    408    430 212.7 -23.6  34038  287.52 0855.26
2009/04/23 08:47:57.9    -152   -324   -138    359    384 205.2 -26.6  34046  287.64 0855.26
2009/04/23 08:47:58.0    -144   -365   -133    393    416 201.5 -18.7  34044  287.62 0855.26
2009/04/23 08:47:58.1     -71   -380    -85    387    397 190.6 -12.4  34050  287.71 0855.26
2009/04/23 08:47:58.2     -53   -370   -103    374    388 188.2 -15.4  34044  287.62 0855.26
2009/04/23 08:47:58.3     -19   -321    -90    322    334 183.4 -20.3  34040  287.54 0855.25
2009/04/23 08:47:58.4     -50   -296   -121    301    324 189.6 -27.4  34042  287.56 0855.25
2009/04/23 08:47:58.5    -120   -274   -169    300    344 203.7 -36.1  34036  287.49 0855.25
2009/04/23 08:47:58.6    -108   -289   -201    309    368 200.5 -40.3  34038  287.51 0855.25
2009/04/23 08:47:58.7    -130   -236   -152    270    309 209.0 -36.3  34044  287.61 0855.25
2009/04/23 08:47:58.8    -184   -226   -108    292    311 219.2 -25.4  34050  287.71 0855.25
2009/04/23 08:47:58.9    -169   -198    -98    261    278 220.6 -25.7  34050  287.71 0855.25
2009/04/23 08:47:59.0    -128   -164   -136    209    249 217.9 -40.4  34042  287.56 0855.25
2009/04/23 08:47:59.1     -79   -124   -131    148    197 212.5 -50.6  34036  287.49 0855.25
2009/04/23 08:47:59.2    -122    -57    -70    135    152 244.7 -33.7  34040  287.55 0855.25
2009/04/23 08:47:59.3     -78    -57    -66     97    117 233.6 -41.4  34042  287.59 0855.25
2009/04/23 08:47:59.4     -45    -78    -98     91    133 209.9 -56.6  34042  287.57 0855.25
2009/04/23 08:47:59.5     -15    -88    -78     90    119 189.8 -50.2  34042  287.59 0855.25
2009/04/23 08:47:59.6      12   -118    -53    119    130 174.2 -30.1  34044  287.60 0855.25
2009/04/23 08:47:59.7      66   -130    -57    146    156 152.9 -26.9  34040  287.55 0855.25
2009/04/23 08:47:59.8     108   -115    -78    158    176 136.8 -32.4  34040  287.54 0855.25
2009/04/23 08:47:59.9      27   -168   -144    171    223 170.7 -48.5  34038  287.52 0855.25
2009/04/23 08:48:00.0      85   -186    -94    205    225 155.5 -31.0  34038  287.52 0855.25
2009/04/23 08:48:00.1      77   -190    -70    206    217 157.9 -23.6  34036  287.47 0855.25
2009/04/23 08:48:00.2      98   -155    -23    184    186 147.5  -7.2  34038  287.50 0855.25
2009/04/23 08:48:00.3      33   -174    -49    178    184 169.3 -20.0  34038  287.52 0855.27
2009/04/23 08:48:00.4      74   -145    -69    163    177 152.8 -28.7  34038  287.52 0855.27
2009/04/23 08:48:00.5     121   -156    -35    198    202 142.2 -10.1  34038  287.50 0855.27
2009/04/23 08:48:00.6     116   -148    -33    189    192 141.9 -10.1  34036  287.47 0855.27
2009/04/23 08:48:00.7     118   -145    -26    188    190 140.8  -8.0  34038  287.52 0855.27
2009/04/23 08:48:00.8      86   -147    -93    171    194 149.7 -35.7  34040  287.54 0855.27
2009/04/23 08:48:00.9     117   -149    -24    190    192 141.9  -7.3  34040  287.55 0855.27
2009/04/23 08:48:01.0     107   -132     -6    171    172 141.0  -2.2  34042  287.57 0855.27
2009/04/23 08:48:01.1      91   -135    -19    163    165 145.9  -6.9  34042  287.57 0855.27
2009/04/23 08:48:01.2      76   -138    -55    158    167 151.0 -23.8  34044  287.60 0855.27
2009/04/23 08:48:01.3      64   -137    -31    152    156 154.7 -11.6  34042  287.57 0855.27
2009/04/23 08:48:01.4      23   -155    -31    157    161 171.5 -11.3  34042  287.59 0855.27
2009/04/23 08:48:01.5      59   -209    -28    218    220 164.2  -7.5  34058  287.86 0855.27
2009/04/23 08:48:01.6      66   -213      3    224    225 162.8   1.0  34054  287.77 0855.27
2009/04/23 08:48:01.7      49   -259    -10    264    265 169.3  -2.2  34054  287.77 0855.27
2009/04/23 08:48:01.8      29   -227    -52    229    235 172.7 -12.9  34048  287.68 0855.27
2009/04/23 08:48:01.9      29   -232    -29    234    236 172.7  -7.2  34046  287.65 0855.27
2009/04/23 08:48:02.0      36   -213    -25    217    219 170.4  -6.7  34050  287.72 0855.27
2009/04/23 08:48:02.1      41   -191    -15    196    197 167.7  -4.4  34054  287.77 0855.27
2009/04/23 08:48:02.2      43   -169      0    175    176 165.7   0.0  34056  287.81 0855.27
2009/04/23 08:48:02.3      56   -153    -18    164    166 159.7  -6.5  34056  287.82 0855.27
2009/04/23 08:48:02.4      51   -147    -43    156    162 160.8 -15.5  34052  287.76 0855.27
2009/04/23 08:48:02.5      90   -119    -33    150    154 143.0 -12.6  34054  287.77 0855.27
2009/04/23 08:48:02.6     112   -151     -7    189    190 143.5  -2.2  34058  287.84 0855.27
2009/04/23 08:48:02.7     116   -140     -4    183    184 140.4  -1.3  34058  287.84 0855.27
2009/04/23 08:48:02.8     111   -118      7    163    164 136.8   2.8  34058  287.84 0855.27
2009/04/23 08:48:02.9     107   -146    -23    182    184 143.7  -7.3  34056  287.82 0855.27
2009/04/23 08:48:03.0      81   -178    -64    196    206 155.5 -23.8  34052  287.76 0855.27
2009/04/23 08:48:03.1     108   -125    -76    166    182 139.2 -30.8  34050  287.70 0855.27
2009/04/23 08:48:03.2      96   -141    -47    171    178 145.7 -15.5  34048  287.69 0855.27
2009/04/23 08:48:03.3      91   -157    -52    182    190 149.9 -16.0  34046  287.65 0855.27
2009/04/23 08:48:03.4      97   -101    -65    141    155 136.3 -31.5  34040  287.55 0855.27
2009/04/23 08:48:03.5      74    -79    -69    109    129 136.7 -39.9  34040  287.55 0855.27
2009/04/23 08:48:03.6     168    -53   -115    177    211 107.7 -40.1  34040  287.55 0855.27
2009/04/23 08:48:03.7     186   -117    -69    221    231 122.2 -22.8  34042  287.59 0855.27
2009/04/23 08:48:03.8     130   -138    -68    190    202 136.8 -19.7  34044  287.62 0855.27
2009/04/23 08:48:03.9     105   -123    -11    163    164 139.5  -4.1  34048  287.67 0855.27
2009/04/23 08:48:04.0      80   -146    -15    167    168 151.3  -5.4  34052  287.74 0855.27
2009/04/23 08:48:04.1      86   -196      9    215    216 156.2   2.5  34050  287.70 0855.27
2009/04/23 08:48:04.2     110   -199    -49    228    234 151.1 -12.2  34048  287.67 0855.27
2009/04/23 08:48:04.3      96   -155     18    183    184 148.1   5.9  34048  287.67 0855.28
2009/04/23 08:48:04.4      85   -125     55    152    161 145.7  20.7  34048  287.67 0855.28
2009/04/23 08:48:04.5     103   -110     98    151    180 136.8  36.0  34050  287.72 0855.28
2009/04/23 08:48:04.6     105   -166     88    197    215 147.5  25.7  34050  287.70 0855.28
2009/04/23 08:48:04.7      92   -168    122    192    227 151.1  35.5  34052  287.76 0855.28
2009/04/23 08:48:04.8      73   -152    158    169    231 154.4  47.9  34052  287.76 0855.28
2009/04/23 08:48:04.9      67   -179    153    192    245 159.5  42.7  34054  287.79 0855.28
2009/04/23 08:48:05.0      68   -177    126    190    227 158.8  36.5  34054  287.77 0855.28
2009/04/23 08:48:05.1      31   -184    125    187    224 170.4  37.0  34054  287.77 0855.28
2009/04/23 08:48:05.2      29   -162    130    165    210 169.8  42.2  34054  287.79 0855.28
2009/04/23 08:48:05.3      81   -171    139    190    235 154.6  39.9  34054  287.79 0855.28
2009/04/23 08:48:05.4      -1   -121    113    122    166 180.9  47.7  34054  287.79 0855.28
2009/04/23 08:48:05.5     -43   -128    121    136    182 198.7  46.4  34056  287.82 0855.28
2009/04/23 08:48:05.6     -19   -164    121    166    205 186.7  39.7  34054  287.79 0855.28
2009/04/23 08:48:05.7     -48   -181    115    188    220 195.1  34.4  34054  287.79 0855.28
2009/04/23 08:48:05.8     -40   -166    102    171    199 193.6  33.5  34056  287.81 0855.28
2009/04/23 08:48:05.9     -36   -138     98    143    173 194.7  37.6  34056  287.82 0855.28
2009/04/23 08:48:06.0     -41   -144    106    150    183 196.0  38.8  34058  287.84 0855.28
2009/04/23 08:48:06.1     -32   -157     75    161    177 191.6  27.0  34058  287.84 0855.28
2009/04/23 08:48:06.2     -53   -114     38    126    132 204.9  16.8  34056  287.82 0855.28
2009/04/23 08:48:06.3     -25    -69     24     74     79 200.0  18.4  34056  287.81 0855.28
2009/04/23 08:48:06.4       5    -35     47     36     59 172.0  58.5  34056  287.82 0855.28
2009/04/23 08:48:06.5      34    -16     57     38     68 115.4  64.6  34058  287.84 0855.28
2009/04/23 08:48:06.6      16     -7     57     18     59 115.3  81.8  34058  287.84 0855.28
2009/04/23 08:48:06.7      14    -31     67     35     75 154.7  69.8  34058  287.86 0855.28
2009/04/23 08:48:06.8      25    -33     59     42     72 142.2  60.6  34058  287.86 0855.28
2009/04/23 08:48:06.9      23    -24     55     34     64 136.6  64.7  34058  287.86 0855.28
2009/04/23 08:48:07.0      -8    -24     45     26     51 198.5  67.7  34056  287.82 0855.28
2009/04/23 08:48:07.1       5    -10     46     12     47 154.6  84.9  34060  287.87 0855.28
2009/04/23 08:48:07.2     -22     27     45     36     57 320.4  56.4  34058  287.86 0855.28
2009/04/23 08:48:07.3       0     23     53     24     58 359.1  74.0  34058  287.84 0855.28
2009/04/23 08:48:07.4       0     34     52     35     62 359.1  62.6  34060  287.89 0855.28
2009/04/23 08:48:07.5       4     56     25     57     62   4.5  25.1  34058  287.86 0855.28
2009/04/23 08:48:07.6      12     38     14     41     44  18.3  19.4  34054  287.79 0855.28
2009/04/23 08:48:07.7      27     58     -1     65     66  25.5  -1.3  34056  287.82 0855.28
2009/04/23 08:48:07.8      30     56     -5     64     65  28.9  -5.2  34056  287.81 0855.28
2009/04/23 08:48:07.9      17     54      0     57     58  18.3   0.8  34056  287.82 0855.28
2009/04/23 08:48:08.0      44     55     11     71     72  38.7   9.0  34054  287.77 0855.28
2009/04/23 08:48:08.1      27     47     26     55     60  29.9  27.2  34054  287.79 0855.28
2009/04/23 08:48:08.2      15     75     35     77     84  11.6  26.2  34054  287.79 0855.28
2009/04/23 08:48:08.3      -2     79     44     80     91 358.2  31.4  34054  287.79 0855.28
2009/04/23 08:48:08.4     -14     85     33     87     93 350.2  21.5  34054  287.79 0855.28
2009/04/23 08:48:08.5     -37     72     38     81     89 332.8  27.1  34052  287.76 0855.28
2009/04/23 08:48:08.6     -70     58     56     91    106 309.6  35.0  34054  287.79 0855.28
2009/04/23 08:48:08.7     -85     52     44    100    109 301.5  25.7  34050  287.72 0855.28
2009/04/23 08:48:08.8    -100     71     19    124    126 305.5   9.0  34046  287.65 0855.28
2009/04/23 08:48:09.0    -108     40      8    116    117 290.4   4.4  34044  287.62 0855.28
2009/04/23 08:48:09.1    -114      2     22    115    118 271.3  11.1  34046  287.65 0855.28
2009/04/23 08:48:09.2     -96     -7     33     97    103 265.7  18.9  34048  287.69 0855.28
2009/04/23 08:48:09.3    -122    -23      1    125    126 259.0   0.8  34048  287.69 0855.28
2009/04/23 08:48:09.4     -91    -29     -3     96     97 251.8  -2.2  34050  287.70 0855.28
2009/04/23 08:48:09.5     -81    -32     25     88     92 248.3  15.8  34052  287.76 0855.28
2009/04/23 08:48:09.6     -56     -7      5     57     58 262.1   5.9  34054  287.77 0855.28
2009/04/23 08:48:09.7     -24     -7     18     26     31 253.2  37.6  34054  287.77 0855.28
2009/04/23 08:48:09.8     -26     23     45     35     57 311.3  57.5  34052  287.74 0855.28
2009/04/23 08:48:09.9     -51     54     44     75     86 316.8  33.5  34052  287.74 0855.28
2009/04/23 08:48:10.0     -40     38     40     56     68 314.0  39.5  34052  287.74 0855.28
2009/04/23 08:48:10.1     -17     27     11     33     35 327.4  19.4  34052  287.74 0855.28
2009/04/23 08:48:10.2       4     36    -12     37     38   6.2 -23.8  34050  287.72 0855.28
2009/04/23 08:48:10.3      25     30    -25     40     47  39.6 -39.9  34052  287.76 0855.28
2009/04/23 08:48:10.4      46     21    -29     51     58  64.6 -37.9  34052  287.76 0855.27
2009/04/23 08:48:10.5      69    -14    -18     71     74 101.5 -14.5  34058  287.84 0855.27
2009/04/23 08:48:10.6      49    -10     18     51     55 101.5  19.4  34054  287.79 0855.27
2009/04/23 08:48:10.7      77     -3     26     78     83  92.6  18.4  34062  287.92 0855.27
2009/04/23 08:48:10.8      26     22     74     35     81  50.4  73.5  34062  287.91 0855.27
2009/04/23 08:48:10.9      -8      0     57      9     57 270.0  90.0  34060  287.89 0855.27
2009/04/23 08:48:11.0     -44    -17     58     48     75 248.3  56.3  34064  287.94 0855.27
2009/04/23 08:48:11.1     -48     -3     54     49     72 265.6  52.2  34062  287.91 0855.27
2009/04/23 08:48:11.2     -88     18     56     90    106 281.9  35.5  34056  287.81 0855.27
2009/04/23 08:48:11.3    -148      2     74    149    166 270.8  28.0  34046  287.65 0855.27
2009/04/23 08:48:11.4    -171      0     93    172    195 270.1  30.8  34050  287.72 0855.27
2009/04/23 08:48:11.5    -184    -19     68    185    197 264.1  21.0  34060  287.87 0855.27
2009/04/23 08:48:11.6    -182    -90     40    204    208 243.6  11.1  34052  287.76 0855.27
2009/04/23 08:48:11.7    -196    -28    -33    199    202 261.9  -9.6  34052  287.74 0855.27
2009/04/23 08:48:11.8    -205    -39    -35    209    212 259.2  -9.6  34052  287.74 0855.27
2009/04/23 08:48:11.9    -169    -47    -35    176    180 254.3 -11.5  34056  287.81 0855.27
2009/04/23 08:48:12.0    -160    -81    -44    180    186 242.9 -13.9  34054  287.77 0855.27
2009/04/23 08:48:12.1    -150    -85    -47    173    180 240.2 -15.4  34054  287.77 0855.27
2009/04/23 08:48:12.2    -142   -110    -42    180    185 232.2 -13.2  34052  287.76 0855.27
2009/04/23 08:48:12.3    -123   -123    -25    175    177 225.1  -8.2  34054  287.77 0855.27
2009/04/23 08:48:12.4     -94   -137     45    167    174 214.3  15.3  34052  287.76 0855.27
2009/04/23 08:48:12.5     -83   -131     50    156    164 212.5  17.9  34052  287.76 0855.27
2009/04/23 08:48:12.6    -122   -136     25    184    186 221.9   7.8  34048  287.69 0855.27
2009/04/23 08:48:12.7    -115   -106     54    157    167 227.3  19.2  34042  287.57 0855.27
2009/04/23 08:48:12.8    -135   -111     21    176    178 230.5   6.9  34044  287.60 0855.27
2009/04/23 08:48:12.9    -114   -113      5    161    162 225.2   2.1  34046  287.65 0855.27
2009/04/23 08:48:13.0     -59   -135    -16    148    149 203.7  -6.2  34046  287.64 0855.27
2009/04/23 08:48:13.1       1   -171     21    172    174 179.5   7.2  34052  287.76 0855.27
2009/04/23 08:48:13.2     -47   -166     -4    173    174 195.8  -1.6  34052  287.76 0855.27
2009/04/23 08:48:13.3      -7   -149    -19    150    152 182.7  -7.3  34052  287.76 0855.27
2009/04/23 08:48:13.4     -38   -107     42    114    121 199.6  21.0  34052  287.74 0855.27
2009/04/23 08:48:13.5     -42   -116     96    124    156 200.1  42.0  34054  287.77 0855.27
2009/04/23 08:48:13.6     -10   -106     33    107    113 185.8  17.3  34052  287.76 0855.27
2009/04/23 08:48:13.7     -35   -134    128    139    188 194.7  47.7  34050  287.72 0855.27
2009/04/23 08:48:13.8     -49   -163    101    171    198 196.9  33.5  34052  287.74 0855.27
2009/04/23 08:48:13.9     -63   -188     80    199    214 198.5  23.0  34050  287.72 0855.27
2009/04/23 08:48:14.0     -54   -203     76    211    224 195.1  20.4  34052  287.74 0855.27
2009/04/23 08:48:14.1     -56   -211     43    219    224 194.9  11.1  34054  287.77 0855.27
2009/04/23 08:48:14.2     -50   -231     64    237    246 192.3  15.3  34054  287.77 0855.27
2009/04/23 08:48:14.3     -59   -232     51    240    246 194.3  12.0  34060  287.88 0855.27
2009/04/23 08:48:14.4     -58   -252     36    259    262 193.1   8.0  34060  287.87 0855.27
2009/04/23 08:48:14.5      25   -145     66    148    162 170.2  25.7  34054  287.77 0855.27
2009/04/23 08:48:14.6     -44    -93    148    103    180 205.3  61.8  34054  287.77 0855.27
2009/04/23 08:48:14.7     -61   -181    147    192    241 198.7  41.2  34054  287.77 0855.27
2009/04/23 08:48:14.8      11   -215    140    216    257 176.9  36.0  34050  287.71 0855.27
2009/04/23 08:48:14.9      12   -204    153    205    255 176.6  40.6  34054  287.77 0855.27
2009/04/23 08:48:15.0      30   -162    145    165    219 169.5  45.8  34052  287.76 0855.27
2009/04/23 08:48:15.1      18   -155    147    157    215 173.3  47.9  34054  287.77 0855.27
2009/04/23 08:48:15.2      23   -155    152    157    218 171.5  49.2  34054  287.79 0855.27
2009/04/23 08:48:15.3      25   -147    127    150    196 170.2  44.5  34054  287.77 0855.27
2009/04/23 08:48:15.4      29   -108    110    112    156 164.9  49.8  34056  287.82 0855.27
2009/04/23 08:48:15.5     -19   -116    116    118    165 189.3  50.2  34056  287.82 0855.27
2009/04/23 08:48:15.6     -27   -133    109    136    174 191.5  43.0  34058  287.86 0855.27
2009/04/23 08:48:15.7      -7    -98    114     99    150 184.4  54.8  34060  287.87 0855.27
2009/04/23 08:48:15.8     -14    -94     94     96    134 188.9  50.0  34058  287.84 0855.27
2009/04/23 08:48:15.9      13    -63     66     65     92 168.4  49.7  34058  287.84 0855.27
2009/04/23 08:48:16.0      19    -35     60     41     72 151.0  62.6  34058  287.86 0855.27
2009/04/23 08:48:16.1      53    -53     52     76     92 135.0  37.6  34056  287.82 0855.27
2009/04/23 08:48:16.2      42    -50     57     66     87 140.4  45.8  34058  287.84 0855.27
2009/04/23 08:48:16.3      20    -93     71     96    119 167.5  40.1  34058  287.84 0855.27
2009/04/23 08:48:16.4      63    -54     34     84     90 130.4  23.6  34058  287.84 0855.27
2009/04/23 08:48:16.5     100    -27     12    104    105 105.1   6.9  34056  287.81 0855.27
2009/04/23 08:48:16.6     115     56     16    129    131  63.8   7.1  34054  287.79 0855.27
2009/04/23 08:48:16.7     111     56      0    125    126  62.9   0.2  34060  287.87 0855.27
2009/04/23 08:48:16.8     108     82     24    136    139  52.7  10.1  34062  287.92 0855.27
2009/04/23 08:48:16.9      74     54     76     92    119  53.6  43.7  34062  287.91 0855.27
2009/04/23 08:48:17.0      77     49     92     92    130  57.1  50.1  34066  287.98 0855.27
2009/04/23 08:48:17.1     129     43    109    137    175  71.4  42.7  34064  287.94 0855.27
2009/04/23 08:48:17.2     161     41    195    167    256  75.6  55.3  34062  287.92 0855.27
2009/04/23 08:48:17.3     178     17    210    179    275  84.3  55.4  34068  288.02 0855.27
2009/04/23 08:48:17.4     161     -2    169    162    234  90.8  51.2  34072  288.09 0855.27
2009/04/23 08:48:17.5     165     -4    199    166    259  91.7  56.3  34068  288.01 0855.27
2009/04/23 08:48:17.6     144    -73    174    162    237 117.1  52.2  34068  288.03 0855.27
2009/04/23 08:48:17.7      98    -30    184    103    210 107.3  68.5  34064  287.94 0855.27
2009/04/23 08:48:17.8     138    -62    206    152    256 114.4  60.3  34068  288.03 0855.27
2009/04/23 08:48:17.9     241    -46    266    246    362 100.8  52.5  34066  287.97 0855.27
2009/04/23 08:48:18.0     227    -28    272    229    355  97.2  55.7  34062  287.92 0855.27
2009/04/23 08:48:18.1     245    -51    276    251    373 101.9  53.0  34066  287.98 0855.27
2009/04/23 08:48:18.2     248   -107    254    271    371 113.3  47.9  34064  287.94 0855.27
2009/04/23 08:48:18.3     241    -52    174    247    302 102.3  38.6  34058  287.85 0855.27
2009/04/23 08:48:18.4     262    -53     92    268    284 101.5  18.9  34054  287.77 0855.27
2009/04/23 08:48:18.5     293    -30     58    295    301  95.9  11.1  34060  287.88 0855.27
2009/04/23 08:48:18.6     298    -64     32    305    307 102.2   6.1  34056  287.80 0855.27
2009/04/23 08:48:18.7     311    -76     77    321    331 103.8  13.5  34056  287.82 0855.27
2009/04/23 08:48:18.8     333    -76     79    342    352 102.9  13.1  34058  287.83 0855.27
2009/04/23 08:48:18.9     322   -117    145    343    372 110.0  24.3  34062  287.91 0855.27
2009/04/23 08:48:19.0     321   -162      4    360    361 116.8   0.7  34058  287.83 0855.27
2009/04/23 08:48:19.1     333   -170      7    375    376 117.1   1.1  34054  287.78 0855.27
2009/04/23 08:48:19.2     312   -112     29    332    334 109.8   5.1  34054  287.79 0855.27
2009/04/23 08:48:19.3     285   -114     66    308    316 111.8  12.1  34060  287.87 0855.27
2009/04/23 08:48:19.4     259    -80     65    272    280 107.3  13.5  34060  287.88 0855.27
2009/04/23 08:48:19.5     239    -64    132    248    280 105.1  30.3  34058  287.83 0855.27
2009/04/23 08:48:19.6     203    -59    132    212    249 106.4  35.0  34062  287.90 0855.27
2009/04/23 08:48:19.7     148    -66    137    163    212 114.0  44.1  34058  287.84 0855.27
2009/04/23 08:48:19.8      -7   -160    140    161    213 182.5  45.8  34060  287.87 0855.27
2009/04/23 08:48:19.9     127   -120    185    175    254 133.3  52.0  34058  287.86 0855.27
2009/04/23 08:48:20.0      67   -178    179    191    261 159.3  48.0  34062  287.92 0855.27
2009/04/23 08:48:20.1      86   -147    218    171    277 149.7  58.4  34060  287.88 0855.27
2009/04/23 08:48:20.2      -6    -29    181     30    183 191.6  90.0  34060  287.89 0855.27
2009/04/23 08:48:20.3       5   -184    222    185    288 178.2  56.3  34062  287.92 0855.27
2009/04/23 08:48:20.4      61   -293    107    300    318 168.2  20.4  34058  287.83 0855.27
2009/04/23 08:48:20.5      12   -241    153    242    286 177.1  35.5  34058  287.83 0855.27
2009/04/23 08:48:20.6     -60   -269    188    276    333 192.7  37.6  34056  287.80 0855.27
2009/04/23 08:48:20.7       7   -346    170    347    386 178.8  27.9  34062  287.91 0855.27
2009/04/23 08:48:20.8      26   -349    137    350    375 175.6  22.7  34058  287.83 0855.27
2009/04/23 08:48:20.9       5   -324    147    325    356 179.1  25.9  34056  287.81 0855.27
2009/04/23 08:48:21.0       8   -265    162    266    311 178.2  34.4  34054  287.78 0855.27
2009/04/23 08:48:21.1      50   -255    182    260    317 168.9  38.5  34052  287.73 0855.27
2009/04/23 08:48:21.2      62   -177    179    188    259 160.6  48.7  34050  287.71 0855.27
2009/04/23 08:48:21.3      17   -281    214    282    354 176.4  41.2  34056  287.81 0855.27
2009/04/23 08:48:21.4      24   -312    103    314    331 175.5  18.1  34056  287.80 0855.27
2009/04/23 08:48:21.5     -13   -288    109    289    308 182.7  21.5  34056  287.82 0855.27
2009/04/23 08:48:21.6      43   -305     99    309    325 172.0  17.8  34058  287.83 0855.27
2009/04/23 08:48:21.7      34   -316    108    318    337 173.8  18.8  34058  287.84 0855.27
2009/04/23 08:48:21.8       7   -281    132    282    311 178.4  27.1  34058  287.85 0855.27
2009/04/23 08:48:21.9      11   -241    114    242    267 177.3  27.1  34058  287.85 0855.27
2009/04/23 08:48:22.0      35   -252    112    255    278 172.0  25.2  34060  287.88 0855.27
2009/04/23 08:48:22.1      44   -285     86    289    302 171.1  16.6  34060  287.88 0855.27
2009/04/23 08:48:22.2      10   -338     88    339    351 178.3  14.7  34060  287.88 0855.27
2009/04/23 08:48:22.3      12   -285    114    286    307 177.4  23.0  34064  287.93 0855.27
2009/04/23 08:48:22.4      54   -278    110    284    304 168.9  22.3  34058  287.85 0855.27
2009/04/23 08:48:22.5     -17   -229     81    230    243 184.4  20.0  34064  287.95 0855.27
2009/04/23 08:48:22.6     -37   -249     71    252    262 188.5  15.8  34064  287.95 0855.27
2009/04/23 08:48:22.7     -55   -271     81    277    289 191.5  16.3  34066  287.97 0855.27
2009/04/23 08:48:22.8     -14   -308     12    309    310 182.6   2.3  34066  287.99 0855.27
2009/04/23 08:48:22.9     -89   -372     47    383    386 193.6   7.1  34058  287.84 0855.27
2009/04/23 08:48:23.0     -89   -346     88    358    369 194.4  13.8  34058  287.84 0855.27
2009/04/23 08:48:23.1    -129   -395     29    416    418 198.1   4.0  34064  287.94 0855.27
2009/04/23 08:48:23.2     -93   -314    -18    328    329 196.5  -3.3  34074  288.10 0855.27
2009/04/23 08:48:23.3    -234   -195    -11    305    306 230.2  -2.2  34054  287.78 0855.27
2009/04/23 08:48:23.4    -170   -204    198    266    331 219.9  40.4  34060  287.88 0855.27
2009/04/23 08:48:23.5    -107   -242    111    265    287 203.8  24.1  34058  287.85 0855.27
2009/04/23 08:48:23.6     -72   -195    173    208    270 200.3  43.8  34060  287.88 0855.27
2009/04/23 08:48:23.7     -78   -188    181    204    272 202.5  46.2  34058  287.83 0855.27
2009/04/23 08:48:23.8     -64   -165    156    178    236 201.4  45.8  34056  287.81 0855.27
2009/04/23 08:48:23.9     -51   -188    159    195    251 195.2  43.7  34060  287.87 0855.27
2009/04/23 08:48:24.0     -26   -229    122    231    261 186.5  30.2  34060  287.88 0855.27
2009/04/23 08:48:24.1      -5   -210    125    211    245 181.6  33.5  34060  287.87 0855.27
2009/04/23 08:48:24.2     -15   -196    127    197    234 184.5  36.0  34060  287.87 0855.27
2009/04/23 08:48:24.3    -117   -200     63    232    241 210.3  15.2  34060  287.87 0855.27
2009/04/23 08:48:24.4    -123   -157     22    200    202 218.3   6.5  34058  287.86 0855.27
2009/04/23 08:48:24.5    -122   -150     23    194    196 219.2   6.9  34060  287.87 0855.27
2009/04/23 08:48:24.6    -100   -213     45    236    241 205.3  11.0  34058  287.85 0855.27
2009/04/23 08:48:24.7     -73   -188     55    202    210 201.4  15.2  34060  287.87 0855.27
2009/04/23 08:48:24.8     -87   -184     43    204    209 205.3  12.0  34058  287.86 0855.27
2009/04/23 08:48:24.9     -80   -167     84    186    204 205.5  25.9  34060  287.89 0855.27
2009/04/23 08:48:25.0    -180   -152     11    236    237 229.8   2.8  34060  287.87 0855.27
2009/04/23 08:48:25.1    -126   -114    -19    171    173 227.8  -6.5  34058  287.84 0855.27
2009/04/23 08:48:25.2    -104    -35    -34    110    115 251.4 -23.3  34052  287.74 0855.27
2009/04/23 08:48:25.3     -21    -31      1     38     39 214.3   2.9  34056  287.81 0855.26
2009/04/23 08:48:25.4     -42   -125    -65    132    147 198.7 -31.7  34058  287.84 0855.26
2009/04/23 08:48:25.5     -98   -156    -91    185    206 212.1 -32.4  34058  287.84 0855.26
2009/04/23 08:48:25.6    -151   -212    -84    261    274 215.4 -22.9  34058  287.83 0855.26
2009/04/23 08:48:25.7    -104   -229   -134    252    285 204.5 -34.6  34060  287.88 0855.26
2009/04/23 08:48:25.8     -74   -181    -93    196    216 202.5 -31.5  34056  287.82 0855.26
2009/04/23 08:48:25.9      13   -150    -49    151    159 174.7 -18.1  34058  287.86 0855.26
2009/04/23 08:48:26.0      35   -140   -100    145    176 165.7 -42.4  34058  287.86 0855.26
2009/04/23 08:48:26.1      54   -134    -49    145    153 158.1 -23.3  34054  287.79 0855.26
2009/04/23 08:48:26.2      82   -115    -19    142    144 144.4  -7.7  34058  287.84 0855.26
2009/04/23 08:48:26.3      15   -171    -61    172    183 174.7 -19.7  34060  287.87 0855.26
2009/04/23 08:48:26.4      51   -205    -45    212    217 166.0 -12.2  34060  287.87 0855.26
2009/04/23 08:48:26.5      -5   -320   -104    321    338 180.9 -18.0  34058  287.83 0855.26
2009/04/23 08:48:26.6     -28   -281    -82    283    294 185.8 -20.8  34058  287.83 0855.26
2009/04/23 08:48:26.7      -8   -282    -89    283    297 181.8 -17.6  34058  287.85 0855.26
2009/04/23 08:48:26.8       7   -238    -46    239    244 178.2 -10.9  34058  287.83 0855.26
2009/04/23 08:48:26.9     -43   -278    -95    282    298 188.9 -18.7  34058  287.83 0855.26
2009/04/23 08:48:27.0      17   -295    -45    296    300 176.6  -8.8  34056  287.80 0855.26
2009/04/23 08:48:27.1     -95   -239    -75    258    268 201.8 -21.0  34056  287.82 0855.26
2009/04/23 08:48:27.2     -96   -277   -132    294    322 199.2 -30.3  34058  287.83 0855.26
2009/04/23 08:48:27.3    -104   -287   -209    306    370 200.0 -42.0  34060  287.88 0855.27
2009/04/23 08:48:27.4    -179   -295   -152    346    377 211.3 -29.6  34056  287.81 0855.27
2009/04/23 08:48:27.5     -95   -244   -162    263    308 201.4 -39.2  34056  287.82 0855.27
2009/04/23 08:48:27.6    -265   -225   -133    348    372 229.7 -26.4  34058  287.83 0855.27
2009/04/23 08:48:27.7    -215   -283   -189    356    403 217.2 -34.6  34058  287.84 0855.27
2009/04/23 08:48:27.8    -161   -284   -164    327    365 209.6 -33.0  34056  287.81 0855.27
2009/04/23 08:48:27.9    -113   -212   -190    241    306 208.1 -46.6  34060  287.88 0855.27
2009/04/23 08:48:28.0    -140   -254   -163    291    333 208.9 -36.0  34054  287.78 0855.27
2009/04/23 08:48:28.1    -129    -69    -46    147    154 241.6 -22.8  34054  287.79 0855.27
2009/04/23 08:48:28.2    -163   -115   -122    200    234 234.7 -39.2  34054  287.79 0855.27
2009/04/23 08:48:28.3     -67   -163   -147    177    230 202.5 -48.2  34058  287.84 0855.27
2009/04/23 08:48:28.4    -111   -133   -190    174    257 219.9 -57.1  34056  287.82 0855.27
2009/04/23 08:48:28.5    -185   -224   -110    291    311 219.6 -25.9  34040  287.55 0855.27
2009/04/23 08:48:28.6    -143   -129    -61    193    203 228.0 -17.6  34056  287.81 0855.27
2009/04/23 08:48:28.7    -117   -128   -110    174    205 222.5 -39.9  34056  287.81 0855.27
2009/04/23 08:48:28.8    -102   -200   -144    225    267 207.1 -40.0  34062  287.90 0855.27
2009/04/23 08:48:28.9     -71   -221   -142    233    272 197.8 -38.8  34056  287.80 0855.27
2009/04/23 08:48:29.0    -136   -237    -92    274    289 209.9 -23.3  34058  287.83 0855.27
2009/04/23 08:48:29.1    -144   -204    -89    250    266 215.2 -19.6  34058  287.83 0855.27
2009/04/23 08:48:29.2    -112   -172    -91    206    225 213.2 -29.7  34054  287.79 0855.27
2009/04/23 08:48:29.3     -79   -244   -106    257    278 198.0 -28.0  34056  287.80 0855.28
2009/04/23 08:48:29.4     -51   -270    -76    275    286 190.7 -15.5  34054  287.78 0855.28
2009/04/23 08:48:29.5     -42   -247    -84    251    265 189.8 -18.6  34056  287.82 0855.28
2009/04/23 08:48:29.6     -72   -200    -84    213    228 200.0 -27.2  34058  287.86 0855.28
2009/04/23 08:48:29.7    -140   -181   -114    230    256 217.8 -32.6  34060  287.88 0855.28
2009/04/23 08:48:29.8    -206   -125   -139    242    279 238.7 -36.8  34062  287.90 0855.28
2009/04/23 08:48:29.9    -166   -166   -119    236    264 225.0 -32.9  34060  287.87 0855.28
2009/04/23 08:48:30.0    -162   -192    -88    252    266 220.1 -24.3  34054  287.78 0855.28
2009/04/23 08:48:30.1     -30   -177    -97    180    204 189.6 -35.2  34058  287.84 0855.28
2009/04/23 08:48:30.2     -15   -198    -89    199    217 184.4 -30.1  34060  287.87 0855.28
2009/04/23 08:48:30.3     -57   -242    -73    249    259 193.4 -21.2  34058  287.83 0855.28
2009/04/23 08:48:30.4       4   -240    -68    241    251 178.9 -15.8  34054  287.77 0855.28
2009/04/23 08:48:30.5      -8   -179   -100    180    205 182.7 -35.8  34056  287.81 0855.28
2009/04/23 08:48:30.6     -31   -210   -141    213    255 188.5 -40.9  34056  287.82 0855.28
2009/04/23 08:48:30.7     -52   -255   -153    261    302 191.6 -37.8  34060  287.87 0855.28
2009/04/23 08:48:30.8      -2   -180    -82    181    198 180.7 -30.3  34054  287.79 0855.28
2009/04/23 08:48:30.9      -3   -125    -92    126    156 181.4 -44.1  34062  287.91 0855.28
2009/04/23 08:48:31.0       4   -123   -112    124    167 177.8 -51.3  34060  287.89 0855.28
2009/04/23 08:48:31.1      41   -164    -59    170    179 166.0 -23.8  34058  287.84 0855.28
2009/04/23 08:48:31.2      11   -127   -103    128    164 174.7 -47.4  34054  287.77 0855.28
2009/04/23 08:48:31.3     -61   -125    -86    140    164 205.9 -39.2  34060  287.87 0855.29
2009/04/23 08:48:31.4     -81   -118    -85    144    167 214.3 -37.5  34060  287.87 0855.29
2009/04/23 08:48:31.5     -59   -148    -59    160    170 201.9 -25.1  34060  287.87 0855.29
2009/04/23 08:48:31.6     -62   -185    -78    196    210 198.5 -27.4  34060  287.87 0855.29
2009/04/23 08:48:31.7     -20   -168    -54    170    178 186.9 -22.8  34060  287.89 0855.29
2009/04/23 08:48:31.8     -96    -87    -86    130    155 227.8 -40.4  34058  287.84 0855.29
2009/04/23 08:48:31.9    -178   -145    -77    230    242 230.9 -23.6  34060  287.87 0855.29
2009/04/23 08:48:32.0    -130   -160   -118    207    238 219.2 -36.7  34060  287.87 0855.29
2009/04/23 08:48:32.1      -8   -197    -89    198    217 182.5 -30.1  34054  287.79 0855.29
2009/04/23 08:48:32.2     -31   -184    -72    187    200 189.8 -26.1  34060  287.89 0855.29
2009/04/23 08:48:32.3     -30   -151    -63    155    167 191.5 -27.8  34058  287.84 0855.29
2009/04/23 08:48:32.4     -62    -87    -38    108    115 215.6 -19.7  34058  287.84 0855.29
2009/04/23 08:48:32.5      30   -177    -40    180    185 170.2 -12.6  34056  287.81 0855.29
2009/04/23 08:48:32.6      33   -197    -17    200    201 170.4  -4.9  34052  287.74 0855.29
2009/04/23 08:48:32.7      10   -208    -16    209    210 177.1  -4.6  34052  287.74 0855.29
2009/04/23 08:48:32.8     -34   -171    -13    175    176 191.5  -4.4  34056  287.81 0855.29
2009/04/23 08:48:32.9      12   -142     39    143    149 175.1  15.3  34048  287.69 0855.29
2009/04/23 08:48:33.0     -11   -112    -10    113    114 185.8  -5.2  34052  287.76 0855.29
2009/04/23 08:48:33.1      27   -134    -12    137    138 168.4  -5.1  34052  287.76 0855.29
2009/04/23 08:48:33.2      40   -121    -21    128    130 161.5  -9.4  34056  287.81 0855.29
2009/04/23 08:48:33.3      30    -96    -46    101    110 162.6 -31.0  34058  287.86 0855.29
2009/04/23 08:48:33.4      22    -67    -33     71     78 161.7 -31.0  34058  287.84 0855.29
2009/04/23 08:48:33.5      20    -43    -47     48     67 154.6 -55.5  34058  287.86 0855.29
2009/04/23 08:48:33.6      12    -40    -45     42     61 163.1 -56.6  34056  287.81 0855.29
2009/04/23 08:48:33.7      -3    -39    -37     40     54 184.5 -53.4  34060  287.87 0855.29
2009/04/23 08:48:33.8      -7    -49    -18     50     53 188.9 -23.3  34060  287.89 0855.29
2009/04/23 08:48:33.9       3    -50    -18     51     55 176.4 -19.7  34058  287.86 0855.29
2009/04/23 08:48:34.0       0    -80    -22     81     83 179.5 -20.2  34060  287.87 0855.29
2009/04/23 08:48:34.1      -1    -78    -32     79     85 181.0 -27.4  34056  287.82 0855.29
2009/04/23 08:48:34.2      -7    -71    -62     72     95 186.2 -49.8  34058  287.84 0855.29
2009/04/23 08:48:34.3       0   -113    -63    114    130 180.4 -35.8  34060  287.89 0855.29
2009/04/23 08:48:34.4       0    -94    -55     95    109 180.5 -37.3  34060  287.87 0855.29
2009/04/23 08:48:34.5      18    -91    -41     93    101 168.4 -29.5  34062  287.91 0855.29
2009/04/23 08:48:34.6      40   -101     22    109    112 158.2  11.6  34058  287.86 0855.29
2009/04/23 08:48:34.7      58    -90      5    108    109 147.4   2.8  34060  287.87 0855.29
2009/04/23 08:48:34.9      51    -63    -10     82     83 141.3  -7.3  34060  287.87 0855.29
2009/04/23 08:48:34.9      35   -100    -29    107    112 160.4 -15.5  34058  287.86 0855.29
2009/04/23 08:48:35.0      40   -106    -24    114    117 159.1 -11.9  34062  287.91 0855.29
2009/04/23 08:48:35.2      78    -68     39    104    111 131.3  21.5  34060  287.89 0855.29
2009/04/23 08:48:35.3      85    -80     -8    118    119 133.2  -4.1  34062  287.91 0855.29
2009/04/23 08:48:35.4      56    -86    -13    103    104 147.0  -7.2  34060  287.89 0855.28
2009/04/23 08:48:35.5      49   -103    -36    115    121 154.6 -17.5  34056  287.81 0855.28
2009/04/23 08:48:35.6      36   -126      4    132    133 164.0   1.8  34054  287.79 0855.28
2009/04/23 08:48:35.7      27   -116    -18    120    122 166.6  -8.8  34058  287.84 0855.28
2009/04/23 08:48:35.8      18   -131      0    133    134 172.0  -0.3  34056  287.81 0855.28
2009/04/23 08:48:35.9      26    -81     30     86     92 162.2  19.4  34056  287.82 0855.28
2009/04/23 08:48:36.0      38    -72     41     82     91 151.9  28.2  34054  287.79 0855.28
2009/04/23 08:48:36.1      42    -65     27     78     83 147.4  19.4  34058  287.84 0855.28
2009/04/23 08:48:36.2      33    -99     36    105    112 161.3  18.9  34056  287.81 0855.28
2009/04/23 08:48:36.3      -1    -72     42     73     84 180.9  32.9  34056  287.82 0855.28
2009/04/23 08:48:36.4       6    -92     31     93     99 176.0  18.4  34056  287.82 0855.28
2009/04/23 08:48:36.5      32   -110     32    115    120 163.5  15.8  34056  287.82 0855.28
2009/04/23 08:48:36.6      -8   -103     15    104    106 184.5   8.5  34058  287.84 0855.28
2009/04/23 08:48:36.7     -41    -83     57     93    109 206.7  35.0  34060  287.87 0855.28
2009/04/23 08:48:36.8     -33    -80     37     87     94 202.7  24.6  34056  287.82 0855.28
2009/04/23 08:48:36.9     -28    -15     47     33     57 241.1  61.5  34058  287.86 0855.28
2009/04/23 08:48:37.0     -20      8     32     22     38 291.7  62.6  34060  287.89 0855.28
2009/04/23 08:48:37.1     -16     18     37     25     44 318.6  63.6  34058  287.86 0855.28
2009/04/23 08:48:37.2      -1      8     43      9     43 348.4  88.0  34060  287.87 0855.28
2009/04/23 08:48:37.3      -7      6     37     10     38 313.1  82.8  34062  287.92 0855.28
2009/04/23 08:48:37.4     -23      0     37     24     44 269.2  63.6  34062  287.91 0855.29
2009/04/23 08:48:37.5     -34     -3     32     35     47 263.9  47.9  34058  287.86 0855.29
2009/04/23 08:48:37.6     -28     31     46     42     62 317.7  52.2  34060  287.87 0855.29
2009/04/23 08:48:37.7     -42     34     38     55     66 308.6  37.6  34058  287.86 0855.29
2009/04/23 08:48:37.8     -55      7     40     56     68 277.9  39.5  34058  287.84 0855.29
2009/04/23 08:48:37.9     -70      5     37     71     80 274.3  29.8  34058  287.86 0855.29
2009/04/23 08:48:38.0     -52     -3     42     53     67 266.5  42.7  34060  287.87 0855.29
2009/04/23 08:48:38.1     -36      0     31     37     48 270.0  45.8  34060  287.89 0855.29
2009/04/23 08:48:38.2     -43    -19     30     48     56 245.6  35.5  34058  287.86 0855.29
2009/04/23 08:48:38.3     -46    -39     36     61     70 229.6  33.5  34058  287.84 0855.29
2009/04/23 08:48:38.4     -39    -38     44     55     70 225.9  43.7  34058  287.84 0855.29
2009/04/23 08:48:38.5     -18    -39     49     44     65 205.4  52.2  34058  287.84 0855.29
2009/04/23 08:48:38.6     -10    -30     38     32     49 198.5  56.3  34058  287.86 0855.29
2009/04/23 08:48:38.7       5    -34     33     35     48 170.2  50.0  34060  287.87 0855.29
2009/04/23 08:48:38.8       5    -10     33     12     35 151.0  81.2  34060  287.87 0855.29
2009/04/23 08:48:38.9     -13     13     19     19     26 316.6  50.1  34062  287.91 0855.29
2009/04/23 08:48:39.0     -23     13     36     27     45 298.9  59.4  34062  287.91 0855.29
2009/04/23 08:48:39.1     -42    -11     57     44     72 254.9  57.5  34060  287.89 0855.29
2009/04/23 08:48:39.2     -91    -10     57     92    108 263.4  35.5  34058  287.84 0855.29
2009/04/23 08:48:39.3     -82     -3     41     83     92 267.4  27.8  34058  287.86 0855.29
2009/04/23 08:48:39.4     -38    -38     32     55     63 225.0  32.4  34058  287.84 0855.28
2009/04/23 08:48:39.5     -16    -23     21     29     35 214.3  39.7  34056  287.82 0855.28
2009/04/23 08:48:39.6       6    -47     48     48     67 172.0  50.1  34058  287.84 0855.28
2009/04/23 08:48:39.7      13    -47     40     49     63 164.0  43.7  34058  287.84 0855.28
2009/04/23 08:48:39.8      17    -40     44     44     62 156.4  50.1  34058  287.84 0855.28
2009/04/23 08:48:39.9      20    -32     35     38     51 147.4  47.9  34060  287.89 0855.28
2009/04/23 08:48:40.0      20    -12     30     24     38 122.4  56.4  34074  288.13 0855.28
2009/04/23 08:48:40.1      11      8     33     14     35  54.0  77.1  34078  288.20 0855.28
2009/04/23 08:48:40.2      -1     -2     38      3     38 212.5  90.0  34084  288.30 0855.28
2009/04/23 08:48:40.3     -10     -3     33     11     34 251.6  81.0  34078  288.20 0855.28
2009/04/23 08:48:40.4      -2    -44     64     45     78 182.7  61.5  34068  288.01 0855.28
2009/04/23 08:48:40.5      -1    -28     65     29     71 182.7  74.0  34068  288.03 0855.28
2009/04/23 08:48:40.6     -30    -34     44     46     63 222.3  50.0  34064  287.94 0855.28
2009/04/23 08:48:40.7     -27    -39     47     48     67 215.2  51.1  34062  287.92 0855.28
2009/04/23 08:48:40.8     -19    -30     49     36     60 212.5  60.5  34060  287.89 0855.28
2009/04/23 08:48:40.9      -7     -7     51     11     52 225.0  89.0  34062  287.91 0855.28
2009/04/23 08:48:41.0       4    -12     38     13     40 161.3  81.0  34064  287.94 0855.28
2009/04/23 08:48:41.1     -14     -3     38     15     40 254.9  78.2  34066  287.98 0855.28
2009/04/23 08:48:41.2      -2     -7     35      8     35 198.5  89.0  34064  287.96 0855.28
2009/04/23 08:48:41.3      -6     -1     32      7     32 258.5  89.0  34066  287.98 0855.28
2009/04/23 08:48:41.4       0    -21     33     22     39 180.9  63.6  34062  287.92 0855.28
2009/04/23 08:48:41.5       0    -20     33     21     39 182.7  64.7  34062  287.92 0855.28
2009/04/23 08:48:41.6       3    -46     51     47     69 175.5  52.2  34062  287.92 0855.28
2009/04/23 08:48:41.7      -9    -70     50     71     86 188.0  38.6  34062  287.92 0855.28
2009/04/23 08:48:41.8     -12    -59     49     61     78 191.5  43.7  34060  287.89 0855.28
2009/04/23 08:48:41.9      -9    -60     57     61     83 188.9  48.5  34060  287.87 0855.28
2009/04/23 08:48:42.0     -19    -51     47     55     72 200.9  44.8  34058  287.86 0855.28
2009/04/23 08:48:42.1     -17    -54     48     57     74 198.3  43.8  34058  287.86 0855.28
2009/04/23 08:48:42.2     -31    -56     63     65     90 209.0  49.4  34060  287.89 0855.28
2009/04/23 08:48:42.3     -33    -69     71     77    104 205.5  47.9  34054  287.79 0855.28
2009/04/23 08:48:42.4     -27   -103     93    107    141 195.1  45.8  34058  287.84 0855.26
2009/04/23 08:48:42.5     -61    -96     42    115    122 212.5  20.9  34060  287.89 0855.26
2009/04/23 08:48:42.6     -81    -56     -7     99    100 235.4  -4.6  34058  287.84 0855.26
2009/04/23 08:48:42.7     -94    -45     -4    105    106 244.6  -2.2  34060  287.89 0855.26
2009/04/23 08:48:42.8    -120    -61      0    135    136 242.9   0.2  34054  287.79 0855.26
2009/04/23 08:48:42.9    -113    -56      6    127    128 243.4   2.9  34056  287.82 0855.26
2009/04/23 08:48:43.0    -147    -11    -55    148    157 265.6 -25.7  34102  288.60 0855.26
2009/04/23 08:48:43.1    -149    -15    -26    150    153 263.9 -10.1  34124  288.96 0855.26
2009/04/23 08:48:43.2    -185     39    -54    190    197 281.9 -20.7  34142  289.28 0855.26
2009/04/23 08:48:43.3    -188    120    -45    224    229 302.5 -11.5  34120  288.89 0855.26
2009/04/23 08:48:43.4    -174     69    -90    188    208 291.8 -31.7  34094  288.47 0855.26
2009/04/23 08:48:43.5     -92     42    -50    102    113 294.4 -32.2  34078  288.20 0855.26
2009/04/23 08:48:43.6    -101      1    -67    102    122 270.9 -40.9  34072  288.08 0855.26
2009/04/23 08:48:43.7     -42    -31    -61     53     80 234.0 -58.7  34072  288.08 0855.26
2009/04/23 08:48:43.8    -154    -82      8    175    176 242.0   2.9  34070  288.06 0855.26
2009/04/23 08:48:43.9    -121    -57     21    135    137 244.6   9.0  34066  287.98 0855.26
2009/04/23 08:48:44.0    -125     -9     55    126    137 265.6  25.1  34068  288.03 0855.26
2009/04/23 08:48:44.1    -122      9     43    123    131 274.3  19.4  34074  288.11 0855.26
2009/04/23 08:48:44.2     -93     34     68    100    120 290.4  37.6  34080  288.21 0855.26
2009/04/23 08:48:44.3     -83    -54     74    100    124 236.7  40.1  34072  288.09 0855.26
2009/04/23 08:48:44.4     -27   -100     70    104    125 195.2  37.4  34068  288.01 0855.26
2009/04/23 08:48:44.5      -2   -146     40    147    153 180.9  15.3  34066  287.98 0855.26
2009/04/23 08:48:44.6      27   -140    -18    143    145 168.9  -7.3  34064  287.96 0855.26
2009/04/23 08:48:44.7      19   -136     -7    138    139 172.0  -3.1  34062  287.91 0855.26
2009/04/23 08:48:44.8      40   -132     -3    139    140 163.1  -1.3  34064  287.94 0855.26
2009/04/23 08:48:44.9      27   -135    -12    138    139 168.5  -5.2  34062  287.92 0855.26
2009/04/23 08:48:45.0      23   -117      5    120    121 168.5   2.8  34060  287.89 0855.26
2009/04/23 08:48:45.1      -8   -114      5    115    116 184.5   2.9  34062  287.91 0855.26
2009/04/23 08:48:45.2     -23   -112     18    115    117 191.6   9.0  34060  287.89 0855.26
2009/04/23 08:48:45.3     -34   -113    -10    119    120 196.9  -5.1  34058  287.86 0855.26
2009/04/23 08:48:45.4     -57   -101     10    117    118 209.4   5.0  34056  287.81 0855.26
2009/04/23 08:48:45.5     -71   -201     33    214    217 199.6   9.0  34056  287.82 0855.26
2009/04/23 08:48:45.6     -58   -210     18    219    220 195.6   4.9  34058  287.84 0855.26
2009/04/23 08:48:45.7     -44   -214      0    219    220 191.8   0.0  34058  287.84 0855.26
2009/04/23 08:48:45.8     -72   -203      3    216    217 199.6   0.8  34056  287.82 0855.26
2009/04/23 08:48:45.9     -28   -177     52    180    188 189.1  16.3  34058  287.84 0855.26
2009/04/23 08:48:46.0     -60   -203     47    212    218 196.5  12.6  34058  287.86 0855.26
2009/04/23 08:48:46.1     -58   -201      0    210    211 196.0   0.2  34062  287.91 0855.26
2009/04/23 08:48:46.2     -71   -184     53    198    206 201.2  15.2  34054  287.79 0855.26
2009/04/23 08:48:46.3     -16   -172     82    173    191 185.3  27.1  34058  287.86 0855.26
2009/04/23 08:48:46.4     -22   -206     20    208    210 186.3   5.7  34062  287.91 0855.24
2009/04/23 08:48:46.5     -51   -254     11    260    261 191.5   2.5  34058  287.85 0855.24
2009/04/23 08:48:46.6     -38   -215     11    219    220 190.2   2.9  34058  287.86 0855.24
2009/04/23 08:48:46.7      16   -217      6    218    219 175.8   1.8  34058  287.86 0855.24
2009/04/23 08:48:46.8       3   -201     -4    202    203 179.1  -1.3  34058  287.86 0855.24
2009/04/23 08:48:46.9      57   -192     13    201    202 163.5   3.8  34060  287.87 0855.24
2009/04/23 08:48:47.0      10   -225    -11    226    227 177.3  -2.8  34060  287.87 0855.24
2009/04/23 08:48:47.1     -12   -195     -2    196    197 183.6  -0.7  34056  287.82 0855.24
2009/04/23 08:48:47.2     -30   -205    -11    208    209 188.5  -3.1  34058  287.86 0855.24
2009/04/23 08:48:47.3     -21   -201     15    203    204 186.0   4.2  34060  287.87 0855.24
2009/04/23 08:48:47.4      13   -207      2    208    209 176.4   0.7  34058  287.86 0855.24
2009/04/23 08:48:47.5      -9   -204    -17    205    206 182.6  -4.9  34060  287.89 0855.24
2009/04/23 08:48:47.6     -13   -178      7    179    180 184.5   2.3  34058  287.86 0855.24
2009/04/23 08:48:47.7     -13   -182     23    183    185 184.2   7.2  34060  287.89 0855.24
2009/04/23 08:48:47.8      -2   -153      7    154    155 181.0   2.8  34058  287.86 0855.24
2009/04/23 08:48:47.9     -12   -157     14    158    159 184.4   5.2  34060  287.89 0855.24
2009/04/23 08:48:48.0     -12   -123     34    124    129 185.8  15.3  34062  287.91 0855.24
2009/04/23 08:48:48.1      -5   -136     35    137    142 182.2  14.7  34060  287.89 0855.24
2009/04/23 08:48:48.2     -20   -167     30    169    172 187.1  10.1  34058  287.86 0855.24
2009/04/23 08:48:48.3     -53   -184      0    192    193 196.3  -0.3  34062  287.91 0855.23
2009/04/23 08:48:48.4     -60   -180     26    190    192 198.5   7.8  34060  287.87 0855.23
2009/04/23 08:48:48.5     -11   -175     42    176    181 183.6  13.5  34060  287.87 0855.23
2009/04/23 08:48:48.6     -33   -173     24    177    179 190.9   8.0  34062  287.92 0855.23
2009/04/23 08:48:48.7     -19   -159     31    161    165 187.1  11.1  34060  287.87 0855.23
2009/04/23 08:48:48.8     -19   -147     42    149    155 187.6  15.8  34062  287.92 0855.23
2009/04/23 08:48:48.9     -27   -156     38    159    164 190.0  13.7  34060  287.89 0855.23
2009/04/23 08:48:49.0     -32   -169     12    173    174 190.7   4.2  34060  287.89 0855.23
2009/04/23 08:48:49.1     -12   -189     18    190    191 183.6   5.4  34062  287.91 0855.23
2009/04/23 08:48:49.2     -23   -215     22    217    219 186.2   5.9  34058  287.86 0855.23
2009/04/23 08:48:49.3      17   -246     12    247    248 176.0   2.8  34058  287.83 0855.23
2009/04/23 08:48:49.4      -8   -258     -5    259    260 181.8  -1.2  34058  287.83 0855.23
2009/04/23 08:48:49.5      -8   -280     25    281    283 181.8   5.2  34056  287.82 0855.23
2009/04/23 08:48:49.6      -7   -243     -4    244    245 181.8  -1.2  34058  287.85 0855.23
2009/04/23 08:48:49.7      -5   -229     28    230    232 181.4   7.1  34058  287.84 0855.23
2009/04/23 08:48:49.8     -14   -180    -11    181    182 184.7  -3.7  34058  287.86 0855.23
2009/04/23 08:48:49.9      13   -199      2    200    201 176.2   0.7  34060  287.87 0855.23
2009/04/23 08:48:50.0      22   -239     37    241    244 174.7   8.9  34062  287.92 0855.23
2009/04/23 08:48:50.1       9   -213     -4    214    215 177.5  -1.2  34060  287.89 0855.23
2009/04/23 08:48:50.2      25   -184     57    186    195 172.2  17.1  34058  287.86 0855.23
2009/04/23 08:48:50.3      27   -199     38    201    205 172.2  10.8  34058  287.84 0855.24
2009/04/23 08:48:50.4      41   -178     74    183    197 166.9  23.1  34062  287.92 0855.24
2009/04/23 08:48:50.5      76   -200     37    215    219 159.1   9.9  34062  287.91 0855.24
2009/04/23 08:48:50.6      73   -206     51    219    225 160.4  13.2  34062  287.92 0855.24
2009/04/23 08:48:50.7      72   -208     41    221    225 160.8  10.6  34060  287.87 0855.24
2009/04/23 08:48:50.8      42   -171     84    177    195 166.0  27.2  34058  287.86 0855.24
2009/04/23 08:48:50.9      20   -223     40    225    229 174.7  10.1  34062  287.91 0855.24
2009/04/23 08:48:51.0      55   -204     43    212    217 164.9  11.4  34062  287.91 0855.24
2009/04/23 08:48:51.1      36   -199     57    203    212 169.8  15.8  34062  287.92 0855.24
2009/04/23 08:48:51.2      39   -250     49    254    259 171.1  11.1  34062  287.90 0855.24
2009/04/23 08:48:51.3      56   -244     50    251    257 166.9  11.4  34058  287.83 0855.24
2009/04/23 08:48:51.4      36   -190     61    194    204 169.3  17.4  34060  287.87 0855.24
2009/04/23 08:48:51.5      -2   -197     27    198    200 180.7   8.0  34062  287.91 0855.24
2009/04/23 08:48:51.6     -34   -208     38    211    215 189.3  10.3  34062  287.91 0855.24
2009/04/23 08:48:51.7      -8   -208     74    209    221 182.2  20.0  34058  287.86 0855.24
2009/04/23 08:48:51.8     -14   -187     54    188    196 184.4  16.3  34058  287.84 0855.24
2009/04/23 08:48:51.9      45   -189     85    195    212 166.4  25.1  34058  287.84 0855.24
2009/04/23 08:48:52.0       0   -186     58    187    196 180.0  17.4  34058  287.84 0855.24
2009/04/23 08:48:52.1     -48   -162     54    170    179 196.5  17.7  34060  287.89 0855.24
2009/04/23 08:48:52.2     -56   -152     35    163    167 200.3  12.4  34060  287.87 0855.24
2009/04/23 08:48:52.3     -78   -152     12    171    172 207.2   4.2  34060  287.89 0855.24
2009/04/23 08:48:52.4     -66   -140     13    155    156 205.4   4.9  34058  287.86 0855.24
2009/04/23 08:48:52.5     -35   -130     -5    135    136 195.1  -2.2  34060  287.87 0855.24
2009/04/23 08:48:52.6      52    -98     77    112    135 151.9  37.6  34058  287.86 0855.24
2009/04/23 08:48:52.7      39    -94     79    102    129 157.3  41.7  34058  287.86 0855.24
2009/04/23 08:48:52.8       9   -108     57    109    123 175.1  29.3  34060  287.89 0855.24
2009/04/23 08:48:52.9      30   -137     12    141    142 167.5   4.9  34060  287.89 0855.24
2009/04/23 08:48:53.0      20   -130      1    132    133 171.1   0.8  34058  287.86 0855.24
2009/04/23 08:48:53.1       4   -122      1    123    124 177.8   0.7  34058  287.86 0855.24
2009/04/23 08:48:53.2      -3   -124     -9    125    126 181.8  -4.1  34058  287.84 0855.24
2009/04/23 08:48:53.3      -3   -106      1    107    108 181.8   0.8  34060  287.89 0855.24
2009/04/23 08:48:53.4       9    -98     -5     99    100 174.2  -3.1  34058  287.84 0855.24
2009/04/23 08:48:53.5       2    -94    -26     95     99 178.2 -15.5  34060  287.87 0855.24
2009/04/23 08:48:53.6       7    -68    -32     69     76 173.8 -31.5  34058  287.86 0855.24
2009/04/23 08:48:53.7      12    -44    -16     46     49 164.0 -19.7  34058  287.84 0855.24
2009/04/23 08:48:53.8      40    -32     -2     52     53 128.6  -2.2  34058  287.84 0855.24
2009/04/23 08:48:53.9      72    -24     44     77     88 108.6  32.4  34058  287.86 0855.24
2009/04/23 08:48:54.0      96    -47     67    108    127 116.2  35.5  34060  287.89 0855.24
2009/04/23 08:48:54.1      78    -66     81    103    131 130.4  42.7  34062  287.91 0855.24
2009/04/23 08:48:54.2      58    -91    108    109    153 147.5  50.0  34060  287.87 0855.24
2009/04/23 08:48:54.3      60    -28     82     67    105 115.4  56.4  34062  287.91 0855.24
2009/04/23 08:48:54.4      85   -117     90    145    170 143.9  35.0  34060  287.89 0855.24
2009/04/23 08:48:54.5     114   -113     97    161    187 134.8  34.2  34058  287.84 0855.24
2009/04/23 08:48:54.6     114   -113    111    161    195 134.8  37.8  34058  287.84 0855.24
2009/04/23 08:48:54.7     142   -125    122    190    225 131.3  35.6  34058  287.86 0855.24
2009/04/23 08:48:54.8     144   -143     72    204    216 134.8  20.2  34058  287.84 0855.24
2009/04/23 08:48:54.9      32   -253    151    256    297 172.7  33.4  34060  287.87 0855.24
2009/04/23 08:48:55.0      57   -301     99    307    323 169.3  18.0  34054  287.78 0855.24
2009/04/23 08:48:55.1     137   -302    114    332    352 155.5  19.1  34058  287.83 0855.24
2009/04/23 08:48:55.2      65   -295     58    303    309 167.5  11.0  34058  287.85 0855.24
2009/04/23 08:48:55.3     234   -274     14    361    362 139.5   2.2  34058  287.86 0855.24
2009/04/23 08:48:55.4     178   -293    -33    343    345 148.7  -5.6  34058  287.86 0855.24
2009/04/23 08:48:55.5      40   -281     12    284    285 171.8   2.5  34058  287.83 0855.24
2009/04/23 08:48:55.6      89   -335    120    347    368 165.0  19.2  34050  287.72 0855.24
2009/04/23 08:48:55.7      47   -355    110    359    376 172.4  17.0  34058  287.84 0855.24
2009/04/23 08:48:55.8      29   -363    131    365    387 175.4  20.6  34056  287.81 0855.24
2009/04/23 08:48:55.9      -5   -341    127    342    364 180.9  21.1  34058  287.83 0855.24
2009/04/23 08:48:56.0      28   -322    115    324    343 175.0  20.3  34058  287.86 0855.24
2009/04/23 08:48:56.1     -24   -322     40    323    326 184.3   7.2  34054  287.77 0855.24
2009/04/23 08:48:56.2     -78   -337     -7    346    347 193.1  -1.3  34058  287.84 0855.24
2009/04/23 08:48:56.3     -65   -259    -53    268    274 194.2 -11.3  34060  287.87 0855.23
2009/04/23 08:48:56.4     -62   -277    -78    284    295 192.7 -15.5  34058  287.83 0855.23
2009/04/23 08:48:56.5       2   -332    -63    333    340 179.5 -10.8  34054  287.79 0855.23
2009/04/23 08:48:56.6    -138   -379    -58    404    409 200.1  -8.2  34058  287.84 0855.23
2009/04/23 08:48:56.7    -217   -368   -124    428    446 210.5 -16.2  34056  287.80 0855.23
2009/04/23 08:48:56.8    -198   -332    -50    387    391 210.9  -7.4  34054  287.79 0855.23
2009/04/23 08:48:56.9    -161   -346   -121    382    401 205.0 -17.6  34060  287.88 0855.23
2009/04/23 08:48:57.0    -131   -337   -108    362    377 201.3 -21.6  34060  287.88 0855.23
2009/04/23 08:48:57.1    -136   -287   -111    318    337 205.5 -19.3  34060  287.89 0855.23
2009/04/23 08:48:57.2    -101   -266    -84    285    297 200.9 -21.2  34058  287.85 0855.23
2009/04/23 08:48:57.3    -139   -222    -73    263    272 212.1 -20.2  34060  287.88 0855.23
2009/04/23 08:48:57.4    -231   -109    -82    256    268 244.6 -23.0  34056  287.80 0855.23
2009/04/23 08:48:57.5    -194   -145    -62    243    251 233.1 -14.5  34060  287.88 0855.23
2009/04/23 08:48:57.6    -195    -99    -83    219    234 243.0 -25.9  34052  287.74 0855.23
2009/04/23 08:48:57.7    -230   -100    -74    251    261 246.5 -21.2  34050  287.71 0855.23
2009/04/23 08:48:57.8    -219   -153   -112    268    290 235.0 -28.5  34054  287.77 0855.23
2009/04/23 08:48:57.9    -123   -193    -86    230    245 212.5 -25.7  34054  287.78 0855.23
2009/04/23 08:48:58.0     -90   -179    -84    201    217 206.7 -28.2  34054  287.79 0855.23
2009/04/23 08:48:58.1    -103   -116    -25    156    159 221.4  -9.3  34054  287.77 0855.23
2009/04/23 08:48:58.2    -216   -143    -34    260    263 236.5  -7.5  34058  287.83 0855.23
2009/04/23 08:48:58.3    -166   -108    -57    199    208 236.9 -16.0  34058  287.84 0855.24
2009/04/23 08:48:58.4    -141   -110    -54    180    189 232.0 -16.8  34056  287.81 0855.24
2009/04/23 08:48:58.5    -136   -127    -56    187    195 226.9 -22.1  34052  287.74 0855.24
2009/04/23 08:48:58.6    -121   -134    -59    181    190 222.1 -23.8  34058  287.84 0855.24
2009/04/23 08:48:58.7    -172   -207   -105    270    289 219.7 -26.5  34064  287.93 0855.24
2009/04/23 08:48:58.8    -185   -177   -110    257    279 226.2 -29.0  34062  287.92 0855.24
2009/04/23 08:48:58.9    -174   -187    -99    256    274 223.0 -26.5  34068  288.00 0855.24
2009/04/23 08:48:59.0    -182   -153    -66    238    246 230.0 -20.2  34062  287.92 0855.24
2009/04/23 08:48:59.1    -184   -141    -68    232    241 232.5 -21.2  34062  287.92 0855.24
2009/04/23 08:48:59.2    -178   -135   -106    224    247 232.9 -31.6  34064  287.95 0855.24
2009/04/23 08:48:59.3    -140   -169   -145    220    263 219.6 -40.9  34058  287.83 0855.24
2009/04/23 08:48:59.4    -138    -97   -140    169    219 234.9 -48.2  34058  287.84 0855.24
2009/04/23 08:48:59.5    -133    -73   -148    152    212 241.1 -54.2  34062  287.92 0855.24
2009/04/23 08:48:59.6     -64   -120   -143    137    198 208.1 -55.6  34056  287.82 0855.24
2009/04/23 08:48:59.7    -121   -118   -133    170    215 225.6 -46.4  34050  287.72 0855.24
2009/04/23 08:48:59.8     -87    -66    -78    110    134 232.7 -43.0  34050  287.72 0855.24
2009/04/23 08:48:59.9     -46     -4    -18     47     50 264.8 -25.4  34056  287.81 0855.24
2009/04/23 08:49:00.0      20     -5    -39     21     44 105.1 -73.2  34056  287.81 0855.24
2009/04/23 08:49:00.1      72    -24    -11     77     78 108.6  -8.2  34056  287.81 0855.24
2009/04/23 08:49:00.2      94    -48      0    106    107 117.5  -0.3  34056  287.82 0855.24
2009/04/23 08:49:00.3      78    -22     26     82     87 105.9  17.9  34058  287.84 0855.25
2009/04/23 08:49:00.4     100    -22     58    103    118 102.4  31.4  34058  287.84 0855.25
2009/04/23 08:49:00.5     108    -26     90    112    143 103.7  43.3  34058  287.84 0855.25
2009/04/23 08:49:00.6     121    -78     92    145    171 122.9  35.5  34058  287.86 0855.25
2009/04/23 08:49:00.7     138   -152     18    206    207 137.7   5.2  34054  287.77 0855.25
2009/04/23 08:49:00.8     176   -152     82    233    247 130.9  20.0  34052  287.73 0855.25
2009/04/23 08:49:00.9      25   -262    113    264    287 174.4  24.6  34054  287.78 0855.25
2009/04/23 08:49:01.0      34   -309    102    311    328 173.7  18.2  34052  287.75 0855.25
2009/04/23 08:49:01.2      56   -279     35    285    288 168.5   7.1  34050  287.71 0855.25
2009/04/23 08:49:01.3      58   -235     60    243    251 166.0  13.9  34052  287.73 0855.25
2009/04/23 08:49:01.4      39   -241     29    245    247 170.7   6.9  34054  287.77 0855.25
2009/04/23 08:49:01.5      92   -303     60    317    323 163.1  10.7  34056  287.82 0855.25
2009/04/23 08:49:01.6      59   -313     81    319    330 169.3  14.3  34058  287.85 0855.25
2009/04/23 08:49:01.7      90   -324    116    337    357 164.4  19.1  34060  287.89 0855.25
2009/04/23 08:49:01.8     128   -427    128    446    465 163.2  16.0  34060  287.87 0855.25
2009/04/23 08:49:01.9     166   -394     78    428    436 157.1  10.3  34054  287.79 0855.25
2009/04/23 08:49:02.0     160   -361     45    396    399 156.1   6.5  34054  287.78 0855.25
2009/04/23 08:49:02.1     164   -347     18    384    385 154.7   2.8  34042  287.59 0855.25
2009/04/23 08:49:02.2     166   -214     79    271    283 142.2  16.4  34048  287.68 0855.25
2009/04/23 08:49:02.3     201   -275    131    341    365 143.8  22.0  34054  287.78 0855.25
2009/04/23 08:49:02.4     281   -358    169    456    486 141.9  21.1  34042  287.58 0855.25
2009/04/23 08:49:02.5     298   -355    205    464    507 139.9  25.2  34036  287.47 0855.25
2009/04/23 08:49:02.6     273   -357    233    450    506 142.6  29.5  34044  287.61 0855.25
2009/04/23 08:49:02.7     261   -384    130    465    483 145.8  15.7  34052  287.74 0855.25
2009/04/23 08:49:02.8      41   -440    199    443    485 174.6  25.8  34054  287.78 0855.25
2009/04/23 08:49:02.9       7   -446     47    447    450 179.0   6.1  34056  287.82 0855.25
2009/04/23 08:49:03.0    -104   -492     79    504    511 192.0   9.0  34052  287.74 0855.25
2009/04/23 08:49:03.1      -6   -436     85    437    446 180.9  11.0  34050  287.70 0855.25
2009/04/23 08:49:03.2     -13   -457     35    458    460 181.7   4.4  34048  287.68 0855.25
2009/04/23 08:49:03.3    -102   -465     74    477    483 192.4   8.9  34048  287.66 0855.25
2009/04/23 08:49:03.4    -117   -408    -16    425    426 196.0  -2.2  34048  287.67 0855.25
2009/04/23 08:49:03.5    -131   -365     -8    388    389 199.8  -1.3  34046  287.64 0855.25
2009/04/23 08:49:03.6    -142   -367    -15    394    395 201.2  -2.2  34048  287.66 0855.25
2009/04/23 08:49:03.7    -188   -259    -73    321    330 216.0 -12.9  34054  287.77 0855.25
2009/04/23 08:49:03.8    -295   -200   -148    357    386 235.8 -28.1  34058  287.83 0855.25
2009/04/23 08:49:03.9    -127   -236    -19    268    269 208.3  -4.1  34044  287.60 0855.25
2009/04/23 08:49:04.0     -71   -280    115    289    311 194.3  23.0  34054  287.78 0855.25
2009/04/23 08:49:04.1      -1   -214    129    215    250 180.5  34.2  34050  287.70 0855.25
2009/04/23 08:49:04.2      33   -218    121    221    251 171.3  31.3  34056  287.80 0855.25
2009/04/23 08:49:04.3       7   -233    120    234    262 178.2  29.3  34052  287.75 0855.25
2009/04/23 08:49:04.4     -22   -201    121    203    236 186.3  33.5  34050  287.70 0855.25
2009/04/23 08:49:04.5     -77   -178    108    194    222 203.4  31.4  34054  287.79 0855.25
2009/04/23 08:49:04.6     -30   -211     41    214    219 188.2  11.0  34054  287.77 0855.25
2009/04/23 08:49:04.7     -90   -266     96    281    298 198.7  18.9  34052  287.75 0855.25
2009/04/23 08:49:04.8    -135   -332     10    359    360 202.2   1.7  34052  287.76 0855.25
2009/04/23 08:49:04.9     -98   -293    -37    310    313 198.5  -6.9  34052  287.75 0855.25
2009/04/23 08:49:05.0      -8   -276     70    277    286 181.8  14.3  34058  287.83 0855.25
2009/04/23 08:49:05.1     -41   -242     74    246    257 189.7  16.8  34058  287.83 0855.25
2009/04/23 08:49:05.2     -54   -226     82    233    247 193.6  20.0  34056  287.82 0855.25
2009/04/23 08:49:05.3      42   -161     15    167    168 165.1   5.2  34056  287.81 0855.25
2009/04/23 08:49:05.4     -35   -258    121    261    287 187.8  27.0  34052  287.75 0855.26
2009/04/23 08:49:05.5     -61   -256    109    264    285 193.4  23.8  34054  287.78 0855.26
2009/04/23 08:49:05.6     -94   -240     44    258    262 201.4   9.9  34052  287.75 0855.26
2009/04/23 08:49:05.7     -95   -173     24    198    200 208.7   7.1  34052  287.74 0855.26
2009/04/23 08:49:05.8    -105   -125    -37    164    169 220.1 -12.9  34048  287.67 0855.26
2009/04/23 08:49:05.9    -118    -98    -50    154    163 230.4 -18.1  34054  287.77 0855.26
2009/04/23 08:49:06.0    -131    -46    -64    139    153 250.5 -31.0  34054  287.77 0855.26
2009/04/23 08:49:06.1    -157    -20    -20    159    161 262.5  -7.3  34050  287.70 0855.26
2009/04/23 08:49:06.2     -99    -19     44    101    110 259.0  25.1  34054  287.79 0855.26
2009/04/23 08:49:06.3    -133    -48    -28    142    145 250.0 -11.3  34058  287.84 0855.26
2009/04/23 08:49:06.4     -63   -200     51    210    217 197.6  13.7  34052  287.74 0855.26
2009/04/23 08:49:06.5     -66   -264    -12    273    274 194.2  -2.6  34054  287.78 0855.26
2009/04/23 08:49:06.6     -40   -269    -19    272    273 188.5  -4.1  34054  287.77 0855.26
2009/04/23 08:49:06.7     -21   -222     11    224    225 185.6   2.9  34052  287.74 0855.26
2009/04/23 08:49:06.8      46   -225     63    230    239 168.2  15.3  34050  287.71 0855.26
2009/04/23 08:49:06.9      99   -195     87    219    235 153.0  23.0  34052  287.76 0855.26
2009/04/23 08:49:07.0      82   -195     92    212    231 157.1  25.1  34050  287.72 0855.26
2009/04/23 08:49:07.1      51   -222     97    228    247 166.9  24.3  34056  287.80 0855.26
2009/04/23 08:49:07.2      33   -271    130    274    303 172.9  27.2  34052  287.75 0855.26
2009/04/23 08:49:07.3     -10   -273     95    274    291 182.2  19.2  34054  287.78 0855.26
2009/04/23 08:49:07.4     -56   -265     82    271    284 192.0  16.8  34054  287.78 0855.26
2009/04/23 08:49:07.5     -24   -220     64    222    232 186.2  16.0  34054  287.79 0855.26
2009/04/23 08:49:07.6      43   -320     50    323    327 172.2   8.8  34056  287.80 0855.26
2009/04/23 08:49:07.7      92   -343    -13    356    357 164.9  -2.2  34054  287.79 0855.26
2009/04/23 08:49:07.8     102   -355     19    370    371 163.9   3.0  34054  287.79 0855.26
2009/04/23 08:49:07.9     111   -353     15    371    372 162.6   2.3  34056  287.81 0855.26
2009/04/23 08:49:08.0      36   -281     53    284    289 172.7  10.6  34056  287.82 0855.26
2009/04/23 08:49:08.1      96   -206    -77    228    241 155.1 -18.7  34058  287.83 0855.26
2009/04/23 08:49:08.2       0   -230     82    231    245 180.2  20.0  34052  287.73 0855.26
2009/04/23 08:49:08.3     104   -219    126    243    273 154.6  29.5  34056  287.82 0855.26
2009/04/23 08:49:08.4      73   -256     97    267    284 164.0  20.9  34054  287.78 0855.26
2009/04/23 08:49:08.5     115   -208     84    238    253 151.0  19.4  34054  287.78 0855.26
2009/04/23 08:49:08.6     102   -210     84    234    249 153.9  19.9  34054  287.77 0855.26
2009/04/23 08:49:08.7     105   -263    107    284    303 158.2  21.5  34054  287.78 0855.26
2009/04/23 08:49:08.8      82   -271    123    284    309 163.1  25.1  34054  287.77 0855.26
2009/04/23 08:49:08.9     184   -224    111    291    311 140.6  22.0  34056  287.80 0855.26
2009/04/23 08:49:09.0     201   -202     56    286    292 135.2  11.1  34052  287.75 0855.26
2009/04/23 08:49:09.1     117   -183    144    218    261 147.3  36.5  34052  287.73 0855.26
2009/04/23 08:49:09.2     139   -142    155    199    252 135.7  41.7  34052  287.73 0855.26
2009/04/23 08:49:09.3      77    -94    123    122    173 140.8  49.9  34052  287.76 0855.26
2009/04/23 08:49:09.4      75    -80    129    111    170 136.8  55.0  34056  287.82 0855.27
2009/04/23 08:49:09.5       1   -108    150    109    185 179.0  60.5  34058  287.84 0855.27
2009/04/23 08:49:09.6      28   -157    166    160    230 169.8  51.2  34056  287.81 0855.27
2009/04/23 08:49:09.7      41    -98    105    107    149 157.3  50.0  34056  287.82 0855.27
2009/04/23 08:49:09.8      26    -59     70     65     95 155.5  52.2  34056  287.81 0855.27
2009/04/23 08:49:09.9      68    -46     65     83    105 124.2  42.2  34054  287.79 0855.27
2009/04/23 08:49:10.0      22    -39     56     45     71 150.1  56.4  34058  287.86 0855.27
2009/04/23 08:49:10.1      30    -24     52     39     65 129.5  60.5  34056  287.81 0855.27
2009/04/23 08:49:10.2     -45    -54     65     71     96 219.6  47.9  34058  287.84 0855.27
2009/04/23 08:49:10.3     -15    -26     18     31     35 210.7  35.5  34058  287.86 0855.27
2009/04/23 08:49:10.4      45     14     16     48     51  72.3  19.4  34056  287.82 0855.27
2009/04/23 08:49:10.5      52     55     14     76     78  43.2  11.0  34058  287.84 0855.27
2009/04/23 08:49:10.6      69     82     24    108    111  40.1  12.6  34056  287.81 0855.27
2009/04/23 08:49:10.7     121     34    117    126    171  74.1  47.9  34056  287.81 0855.27
2009/04/23 08:49:10.8      85     78     86    116    144  47.3  39.7  34056  287.82 0855.27
2009/04/23 08:49:10.9      34    108     66    114    131  17.4  32.9  34054  287.77 0855.27
2009/04/23 08:49:11.0     -33     80     90     87    125 337.7  50.2  34056  287.82 0855.27
2009/04/23 08:49:11.1     -77     76     62    109    125 314.4  32.4  34056  287.81 0855.27
2009/04/23 08:49:11.2     -99     -7     39    100    107 265.6  22.0  34056  287.81 0855.27
2009/04/23 08:49:11.3    -102    -45     -5    112    113 246.0  -2.6  34056  287.82 0855.27
2009/04/23 08:49:11.4    -116    -33    -14    121    122 254.1  -6.7  34054  287.79 0855.26
2009/04/23 08:49:11.5    -140    -23     22    143    145 260.4   8.9  34056  287.81 0855.26
2009/04/23 08:49:11.6    -115      9     15    116    117 274.8   7.5  34054  287.77 0855.26
2009/04/23 08:49:11.7     -56     56     17     80     82 315.0  12.6  34054  287.79 0855.26
2009/04/23 08:49:11.8     -71     84     -6    111    112 319.9  -3.1  34056  287.81 0855.26
2009/04/23 08:49:11.9    -194     33    -74    197    210 279.9 -25.4  34056  287.82 0855.26
2009/04/23 08:49:12.0    -112     -8    -33    113    117 265.7 -21.7  34052  287.76 0855.26
2009/04/23 08:49:12.1    -135    -12     -7    136    137 264.8  -3.1  34054  287.77 0855.26
2009/04/23 08:49:12.2    -162     56    -24    172    174 289.1  -8.2  34054  287.77 0855.26
2009/04/23 08:49:12.3    -185     79    -58    202    211 293.3 -16.0  34052  287.76 0855.26
2009/04/23 08:49:12.4    -229      6    -82    230    245 271.7 -19.7  34050  287.70 0855.26
2009/04/23 08:49:12.5    -188    101    -22    214    216 298.2  -6.0  34052  287.74 0855.26
2009/04/23 08:49:12.6    -191     85     12    210    211 294.0   3.3  34050  287.72 0855.26
2009/04/23 08:49:12.7    -198   -143      0    245    246 234.0   0.0  34044  287.60 0855.26
2009/04/23 08:49:12.8    -232    -76      3    245    246 251.8   0.8  34046  287.65 0855.26
2009/04/23 08:49:12.9    -186     74     39    201    205 291.7  11.0  34052  287.76 0855.26
2009/04/23 08:49:13.0    -186     84     11    205    206 294.4   3.3  34052  287.76 0855.26
2009/04/23 08:49:13.1    -164     39     -4    169    170 283.5  -1.6  34050  287.72 0855.26
2009/04/23 08:49:13.2    -182    -61     26    193    195 251.4   7.8  34048  287.69 0855.26
2009/04/23 08:49:13.3    -228    -60     -9    236    237 255.2  -2.3  34040  287.55 0855.26
2009/04/23 08:49:13.4    -243     35     38    246    250 278.4   8.9  34046  287.63 0855.27
2009/04/23 08:49:13.5    -256     -4     33    257    260 269.1   7.5  34042  287.58 0855.27
2009/04/23 08:49:13.6    -163    -36     -5    168    169 257.4  -1.8  34044  287.62 0855.27
2009/04/23 08:49:13.7     -96    -29     30    101    106 253.2  16.8  34048  287.69 0855.27
2009/04/23 08:49:13.8     -87    -86     12    123    124 225.1   5.9  34048  287.69 0855.27
2009/04/23 08:49:13.9     -21    -84     34     87     93 194.3  22.0  34050  287.70 0855.27
2009/04/23 08:49:14.0     -17    -90     85     92    125 190.7  47.9  34052  287.76 0855.27
2009/04/23 08:49:14.1     -48   -151     26    159    162 197.8   9.3  34052  287.74 0855.27
2009/04/23 08:49:14.2     -80   -183      2    200    201 203.6   0.8  34056  287.81 0855.27
2009/04/23 08:49:14.3     -83   -158     36    179    183 207.9  11.6  34054  287.77 0855.27
2009/04/23 08:49:14.4     -50    -89     69    103    123 209.4  37.0  34052  287.76 0855.27
2009/04/23 08:49:14.5     -50   -205    106    212    237 193.8  28.7  34054  287.79 0855.27
2009/04/23 08:49:14.6     -20   -262     82    263    276 184.5  17.3  34056  287.80 0855.27
2009/04/23 08:49:14.7     -13   -300     47    301    305 182.5   9.0  34058  287.83 0855.27
2009/04/23 08:49:14.8     -70   -299     55    308    314 193.3  10.2  34054  287.77 0855.27
2009/04/23 08:49:14.9     -86   -328     68    340    347 194.7  11.4  34052  287.74 0855.27
2009/04/23 08:49:15.0    -120   -331    133    353    377 200.0  21.6  34052  287.76 0855.27
2009/04/23 08:49:15.1    -104   -261    142    282    315 201.8  28.9  34048  287.66 0855.27
2009/04/23 08:49:15.2     -84   -305    123    317    340 195.4  22.3  34058  287.83 0855.27
2009/04/23 08:49:15.3     -75   -341    111    350    368 192.4  17.7  34052  287.76 0855.28
2009/04/23 08:49:15.4     -86   -384    152    394    422 192.7  22.3  34048  287.68 0855.28
2009/04/23 08:49:15.5     -28   -311    140    313    342 185.3  25.9  34052  287.76 0855.28
2009/04/23 08:49:15.6     -59   -266    120    273    298 192.5  25.1  34050  287.71 0855.28
2009/04/23 08:49:15.7    -116   -265    111    290    310 203.7  22.0  34050  287.71 0855.28
2009/04/23 08:49:15.8     -19   -323    156    324    359 183.5  27.4  34046  287.64 0855.28
2009/04/23 08:49:15.9      32   -229    126    232    264 172.0  31.0  34046  287.65 0855.28
2009/04/23 08:49:16.0      84   -231     90    246    261 160.0  21.0  34044  287.61 0855.28
2009/04/23 08:49:16.1     178   -222    207    285    352 141.3  39.7  34044  287.62 0855.28
2009/04/23 08:49:16.2     113   -244    210    270    342 155.1  42.0  34046  287.65 0855.28
2009/04/23 08:49:16.3      56   -203    160    211    264 164.4  40.9  34048  287.68 0855.28
2009/04/23 08:49:16.4     117   -161    165    200    259 143.9  43.7  34048  287.68 0855.28
2009/04/23 08:49:16.5     136   -115     64    179    190 130.2  20.0  34046  287.64 0855.28
2009/04/23 08:49:16.6     124   -143      3    190    191 139.0   1.0  34048  287.67 0855.28
2009/04/23 08:49:16.7      39   -145      7    151    152 164.8   2.9  34048  287.67 0855.28
2009/04/23 08:49:16.8      35   -117      2    123    124 163.1   1.2  34048  287.67 0855.28
2009/04/23 08:49:16.9      -9   -118    -28    119    123 184.4 -13.4  34046  287.65 0855.28
2009/04/23 08:49:17.0     -91   -167     14    191    192 208.7   4.4  34050  287.70 0855.28
2009/04/23 08:49:17.1     -26   -163     58    166    176 189.3  19.4  34054  287.77 0855.28
2009/04/23 08:49:17.2       4   -140     53    141    150 178.2  21.5  34052  287.74 0855.28
2009/04/23 08:49:17.3       2    -93     51     94    106 178.6  31.3  34054  287.77 0855.28
2009/04/23 08:49:17.4      -8   -141     58    142    153 183.6  23.1  34050  287.72 0855.28
2009/04/23 08:49:17.5     -18   -136     61    138    150 187.6  25.2  34050  287.70 0855.28
2009/04/23 08:49:17.6     -41   -155     69    161    175 195.1  24.6  34050  287.70 0855.28
2009/04/23 08:49:17.7     -29   -147     46    150    157 191.5  17.1  34052  287.76 0855.28
2009/04/23 08:49:17.8     -28   -132     24    135    138 192.0  10.1  34048  287.69 0855.28
2009/04/23 08:49:17.9     -15   -109     52    111    122 188.0  26.6  34048  287.67 0855.28
2009/04/23 08:49:18.0     -15   -108      7    110    111 188.0   3.8  34050  287.70 0855.28
2009/04/23 08:49:18.1      -7    -67      0     68     69 186.2   0.8  34048  287.67 0855.28
2009/04/23 08:49:18.2      10    -18      3     21     22 149.3   9.0  34050  287.72 0855.28
2009/04/23 08:49:18.3      24     10     -1     27     28  66.5  -2.2  34050  287.72 0855.28
2009/04/23 08:49:18.4      32     27     -1     43     44  49.6  -2.2  34052  287.74 0855.28
2009/04/23 08:49:18.5      34     56    -30     66     72  31.6 -31.5  34048  287.69 0855.28
2009/04/23 08:49:18.6      62     97    -63    116    132  32.5 -35.2  34048  287.69 0855.28
2009/04/23 08:49:18.7      72     59   -116     94    149  50.4 -60.8  34048  287.67 0855.28
2009/04/23 08:49:18.8     132      0    -21    133    135  90.0  -9.3  34046  287.65 0855.28
2009/04/23 08:49:18.9      99     -7     15    100    102  94.4   9.0  34046  287.64 0855.28
2009/04/23 08:49:19.0      34      6     -5     35     36  78.5  -9.3  34048  287.67 0855.28
2009/04/23 08:49:19.1       4     22    -62     23     66  11.6 -84.6  34044  287.62 0855.28
2009/04/23 08:49:19.2     -10     31    -92     33     97 341.7 -85.1  34046  287.65 0855.28
2009/04/23 08:49:19.3      69    -44    -32     82     88 122.5 -26.4  34046  287.64 0855.28
2009/04/23 08:49:19.4     103     75   -116    128    172  54.0 -51.5  34036  287.49 0855.28
2009/04/23 08:49:19.5     -67    143    -92    159    183 334.7 -37.1  34046  287.64 0855.28
2009/04/23 08:49:19.6     -36     87    -29     95    100 337.7 -17.0  34048  287.69 0855.28
2009/04/23 08:49:19.7      12    -27    -30     30     42 154.6 -54.5  34048  287.67 0855.28
2009/04/23 08:49:19.8      51   -114    -37    125    130 155.9 -21.7  34042  287.59 0855.28
2009/04/23 08:49:19.9     -82    -64    -27    105    109 232.2 -14.5  34046  287.64 0855.28
2009/04/23 08:49:20.0     -83    -84     10    119    120 224.5   5.0  34046  287.64 0855.28
2009/04/23 08:49:20.1     -47   -171     -8    178    179 195.6  -2.8  34046  287.65 0855.28
2009/04/23 08:49:20.2     -14   -210    -20    211    213 184.0  -5.6  34042  287.59 0855.28
2009/04/23 08:49:20.3       0   -117     54    118    129 180.0  26.6  34048  287.69 0855.28
2009/04/23 08:49:20.4       8   -149     -8    150    151 176.9  -3.2  34046  287.65 0855.28
2009/04/23 08:49:20.5      19   -159    -48    161    169 172.9 -16.6  34046  287.65 0855.28
2009/04/23 08:49:20.6     128   -135    -44    187    193 136.6 -13.4  34048  287.67 0855.28
2009/04/23 08:49:20.7     129   -176    -69    219    229 143.7 -22.8  34050  287.70 0855.28
2009/04/23 08:49:20.8     202   -229      3    306    307 138.6   0.7  34046  287.65 0855.28
2009/04/23 08:49:20.9     176   -286     35    336    338 148.4   6.1  34048  287.66 0855.28
2009/04/23 08:49:21.0     203   -302     82    364    374 146.1  12.8  34044  287.62 0855.28
2009/04/23 08:49:21.1     105   -240     67    263    272 156.4  14.3  34044  287.61 0855.28
2009/04/23 08:49:21.2       0   -280     71    281    291 180.0  14.3  34050  287.70 0855.28
2009/04/23 08:49:21.3     -67   -300    150    308    342 192.7  27.8  34048  287.69 0855.28
2009/04/23 08:49:21.4    -148   -279    108    317    336 208.0  18.9  34048  287.66 0855.28
2009/04/23 08:49:21.5    -225   -170     81    283    295 232.9  16.0  34048  287.68 0855.28
2009/04/23 08:49:21.6    -164   -133      0    212    213 230.9   0.2  34044  287.62 0855.28
2009/04/23 08:49:21.7    -131    -80    -35    154    159 238.5 -12.9  34046  287.65 0855.28
2009/04/23 08:49:21.8      73    -76     73    106    128 136.3  37.6  34044  287.60 0855.28
2009/04/23 08:49:21.9      87   -128     96    155    182 145.8  35.0  34046  287.65 0855.28
2009/04/23 08:49:22.0      56   -116    -44    129    137 154.1 -19.1  34048  287.69 0855.28
2009/04/23 08:49:22.1       5   -120    -18    121    123 177.3  -8.8  34046  287.65 0855.28
2009/04/23 08:49:22.2     -18   -148    -48    150    157 187.1 -22.8  34046  287.64 0855.28
2009/04/23 08:49:22.3       9   -122    -14    123    124 175.5  -6.7  34046  287.64 0855.29
2009/04/23 08:49:22.4      -7   -111     26    112    116 183.6  13.2  34046  287.64 0855.29
2009/04/23 08:49:22.5      -2   -130     11    131    132 181.0   5.0  34046  287.65 0855.29
2009/04/23 08:49:22.6      26   -118     10    121    122 167.5   4.9  34048  287.69 0855.29
2009/04/23 08:49:22.7      12   -146    -40    147    153 175.1 -15.5  34046  287.64 0855.29
2009/04/23 08:49:22.8      38   -166    -52    171    179 166.9 -17.0  34048  287.67 0855.29
2009/04/23 08:49:22.9      40   -155    -56    161    170 165.3 -23.8  34046  287.65 0855.29
2009/04/23 08:49:23.0      94   -172    -32    197    200 151.3  -9.4  34044  287.60 0855.29
2009/04/23 08:49:23.1     106   -166    -30    198    201 147.4  -8.6  34046  287.64 0855.29
2009/04/23 08:49:23.2      87   -143    -16    168    169 148.8  -5.6  34046  287.65 0855.29
2009/04/23 08:49:23.3     122   -110     69    165    178 132.2  23.8  34042  287.57 0855.29
2009/04/23 08:49:23.4      95    -79     88    124    152 129.6  39.5  34040  287.55 0855.29
2009/04/23 08:49:23.5      46    -33     58     57     81 126.0  50.1  34044  287.62 0855.29
2009/04/23 08:49:23.6       6      6     34      9     35  43.4  86.9  34048  287.67 0855.29
2009/04/23 08:49:23.7     -17    -21     23     28     36 219.6  43.7  34048  287.67 0855.29
2009/04/23 08:49:23.8     -35     -7      1     36     37 258.6   2.9  34048  287.69 0855.29
2009/04/23 08:49:23.9     -61     24    -10     66     67 291.7  -9.3  34046  287.65 0855.29
2009/04/23 08:49:24.0     -57     15    -31     60     67 285.1 -33.7  34048  287.69 0855.29
2009/04/23 08:49:24.1     -32      8    -37     34     50 285.1 -57.7  34046  287.65 0855.29
2009/04/23 08:49:24.2     -35     -7    -35     36     50 258.5 -55.5  34048  287.67 0855.29
2009/04/23 08:49:24.3     -20    -27    -39     34     51 216.1 -58.7  34044  287.62 0855.28
2009/04/23 08:49:24.4      -8    -26    -45     28     53 196.9 -69.1  34046  287.64 0855.28
2009/04/23 08:49:24.5      -1    -80    -20     81     84 180.9 -13.9  34046  287.65 0855.28
2009/04/23 08:49:24.6       0   -138     -5    139    140 180.4  -2.2  34048  287.69 0855.28
2009/04/23 08:49:24.7      -9   -257    -17    258    259 182.0  -3.9  34046  287.65 0855.28
2009/04/23 08:49:24.8     -29   -176    -63    179    189 189.6 -24.0  34042  287.59 0855.28
2009/04/23 08:49:24.9     -22   -125    -36    128    132 190.2 -20.7  34044  287.60 0855.28
2009/04/23 08:49:25.0      -5   -162     32    163    167 182.0  11.1  34046  287.65 0855.28
2009/04/23 08:49:25.1     103   -222     33    245    248 155.1   7.8  34046  287.63 0855.28
2009/04/23 08:49:25.2      -6   -326    107    327    345 181.2  18.2  34044  287.62 0855.28
2009/04/23 08:49:25.3      -2   -212     10    213    214 180.7   2.9  34042  287.59 0855.28
2009/04/23 08:49:25.4      31   -173     -6    176    177 169.8  -2.2  34046  287.64 0855.28
2009/04/23 08:49:25.5     -23   -116    -27    119    123 191.6 -12.9  34042  287.59 0855.28
2009/04/23 08:49:25.6      14   -169      3    170    171 175.1   1.2  34044  287.60 0855.28
2009/04/23 08:49:25.7      69   -199     63    211    221 160.8  16.8  34042  287.59 0855.28
2009/04/23 08:49:25.8      44   -256     46    260    265 170.2  10.0  34046  287.63 0855.28
2009/04/23 08:49:25.9     103   -311     43    328    331 161.7   7.6  34044  287.62 0855.28
2009/04/23 08:49:26.0     -11   -217     68    218    229 183.1  17.3  34046  287.64 0855.28
2009/04/23 08:49:26.1       3   -279    -20    280    281 179.3  -4.1  34048  287.68 0855.28
2009/04/23 08:49:26.2     -23   -310     54    311    316 184.4  10.0  34044  287.61 0855.28
2009/04/23 08:49:26.3      18   -290     62    291    298 176.4  12.2  34044  287.60 0855.28
2009/04/23 08:49:26.4       9   -348     60    349    355 178.5   9.9  34046  287.64 0855.28
2009/04/23 08:49:26.5      45   -264     20    268    269 170.3   4.4  34042  287.56 0855.28
2009/04/23 08:49:26.6     -14   -315     43    316    319 182.6   7.8  34044  287.61 0855.28
2009/04/23 08:49:26.7     -15   -340     67    341    348 182.6  11.1  34044  287.62 0855.28
2009/04/23 08:49:26.8       2   -330     91    331    344 179.5  15.4  34044  287.61 0855.28
2009/04/23 08:49:26.9     -29   -313    139    315    344 185.4  25.6  34044  287.61 0855.28
2009/04/23 08:49:27.0     -33   -373     61    375    381 185.2   9.3  34048  287.67 0855.28
2009/04/23 08:49:27.1      31   -429     60    431    436 175.8   8.0  34046  287.65 0855.28
2009/04/23 08:49:27.3      30   -461     31    462    464 176.3   3.9  34044  287.62 0855.28
2009/04/23 08:49:27.4      49   -423     -9    426    427 173.3  -1.3  34044  287.60 0855.28
2009/04/23 08:49:27.5     130   -395     89    417    427 161.7  12.1  34044  287.60 0855.28
2009/04/23 08:49:27.6      59   -250    -56    257    264 166.6 -12.4  34044  287.61 0855.28
2009/04/23 08:49:27.7      56   -210    -44    218    223 164.9 -11.6  34038  287.52 0855.28
2009/04/23 08:49:27.8      19   -157     40    159    165 172.9  14.3  34042  287.59 0855.28
2009/04/23 08:49:27.9      68   -253     77    263    275 164.8  16.3  34040  287.55 0855.28
2009/04/23 08:49:28.0      49   -288     29    293    295 170.2   5.7  34040  287.53 0855.28
2009/04/23 08:49:28.1     -18   -310    137    311    339 183.4  25.3  34044  287.61 0855.28
2009/04/23 08:49:28.2     -49   -291     83    296    308 189.6  15.8  34042  287.56 0855.28
2009/04/23 08:49:28.3     -90   -338    155    350    382 195.1  25.6  34042  287.57 0855.28
2009/04/23 08:49:28.4       4   -256    153    257    299 179.0  33.5  34044  287.60 0855.27
2009/04/23 08:49:28.5     -19   -203    155    205    257 185.6  40.7  34042  287.58 0855.27
2009/04/23 08:49:28.6      -2   -123    138    124    185 181.0  53.5  34044  287.60 0855.27
2009/04/23 08:49:28.7     -47   -143    103    151    182 198.3  37.6  34044  287.62 0855.27
2009/04/23 08:49:28.8     -57   -120    106    134    170 205.5  42.7  34044  287.62 0855.27
2009/04/23 08:49:28.9     -59   -135    143    148    205 203.7  49.0  34042  287.57 0855.27
2009/04/23 08:49:29.0     -16    -64    102     67    122 194.3  63.6  34042  287.59 0855.27
2009/04/23 08:49:29.1      18    -71     51     74     89 165.7  37.6  34044  287.60 0855.27
2009/04/23 08:49:29.2     -82   -176    132    195    235 204.9  37.6  34042  287.59 0855.27
2009/04/23 08:49:29.3    -103   -198    126    224    257 207.6  31.9  34046  287.63 0855.27
2009/04/23 08:49:29.4    -128   -216     23    252    254 210.7   5.4  34046  287.63 0855.27
2009/04/23 08:49:29.5    -115   -208    103    238    259 209.0  24.9  34048  287.68 0855.27
2009/04/23 08:49:29.6    -140   -204     12    248    249 214.5   2.8  34046  287.65 0855.27
2009/04/23 08:49:29.7    -136   -164      2    214    215 219.6   0.7  34046  287.65 0855.27
2009/04/23 08:49:29.8    -105   -138     27    174    177 217.2   8.8  34046  287.64 0855.27
2009/04/23 08:49:29.9     -56   -160    121    170    208 199.4  39.1  34046  287.64 0855.27
2009/04/23 08:49:30.0    -100    -22     58    103    118 257.6  31.4  34046  287.65 0855.27
2009/04/23 08:49:30.1    -144    -30    -16    148    149 258.1  -6.2  34044  287.62 0855.27
2009/04/23 08:49:30.2    -174    -58      0    184    185 251.4   0.2  34042  287.59 0855.27
2009/04/23 08:49:30.3    -185   -191     91    266    282 224.1  18.9  34044  287.61 0855.27
2009/04/23 08:49:30.4    -187    -26     27    189    191 262.1   8.2  34042  287.59 0855.28
2009/04/23 08:49:30.5    -262     -4      7    263    264 269.1   1.6  34042  287.56 0855.28
2009/04/23 08:49:30.6    -240    -56    -21    247    248 256.7  -4.9  34044  287.60 0855.28
2009/04/23 08:49:30.7    -138    -65     79    153    172 244.8  29.3  34046  287.64 0855.28
2009/04/23 08:49:30.8    -219      0    106    220    244 270.0  27.4  34036  287.48 0855.28
2009/04/23 08:49:30.9    -163   -105     34    195    199 237.1  10.1  34040  287.54 0855.28
2009/04/23 08:49:31.0      -9   -122     12    123    124 184.5   5.9  34046  287.64 0855.28
2009/04/23 08:49:31.1       3    -46     17     47     49 175.5  20.0  34048  287.69 0855.28
2009/04/23 08:49:31.2      21    -32     22     39     44 145.7  32.4  34048  287.67 0855.28
2009/04/23 08:49:31.3      -9    -41     31     42     52 192.5  40.7  34048  287.67 0855.28
2009/04/23 08:49:31.4     -13   -140     38    141    147 185.3  15.3  34048  287.69 0855.28
2009/04/23 08:49:31.5     -19   -156    -16    158    159 187.1  -6.0  34048  287.67 0855.28
2009/04/23 08:49:31.6       1   -121    -13    122    123 179.1  -6.2  34046  287.65 0855.28
2009/04/23 08:49:31.7     -40   -154     55    160    170 194.5  19.2  34048  287.69 0855.28
2009/04/23 08:49:31.8    -100   -250     -1    270    271 201.9  -0.3  34050  287.70 0855.28
2009/04/23 08:49:31.9     -41   -278     -1    282    283 188.5  -0.3  34046  287.65 0855.28
2009/04/23 08:49:32.0     -38   -270     27    273    275 188.0   5.7  34050  287.70 0855.28
2009/04/23 08:49:32.1      -8   -267     47    268    273 181.8  10.1  34048  287.66 0855.28
2009/04/23 08:49:32.2    -117   -213      5    244    245 208.9   1.2  34048  287.66 0855.28
2009/04/23 08:49:32.3     -65   -226     69    236    246 196.0  16.4  34048  287.68 0855.28
2009/04/23 08:49:32.4     -26   -273     81    275    287 185.6  16.4  34050  287.70 0855.27
2009/04/23 08:49:32.5      39   -231     37    235    238 170.4   9.0  34048  287.66 0855.27
2009/04/23 08:49:32.6      -4   -173     62    174    184 181.6  20.0  34048  287.67 0855.27
2009/04/23 08:49:32.7     -85   -112     32    141    145 217.4  13.1  34048  287.67 0855.27
2009/04/23 08:49:32.8      -7   -214     25    215    217 182.0   6.9  34048  287.67 0855.27
2009/04/23 08:49:32.9     -62   -230     -1    239    240 195.2  -0.3  34048  287.68 0855.27
2009/04/23 08:49:33.0     -64   -211     69    221    232 197.0  17.4  34046  287.65 0855.27
2009/04/23 08:49:33.1     -46   -148    120    156    196 197.4  41.7  34048  287.69 0855.27
2009/04/23 08:49:33.2      -1   -191     71    192    204 180.5  21.0  34046  287.65 0855.27
2009/04/23 08:49:33.3     -47   -244    105    249    270 191.1  24.2  34042  287.58 0855.27
2009/04/23 08:49:33.4       0   -311     81    312    323 179.9  14.7  34052  287.73 0855.27
2009/04/23 08:49:33.5      56   -356    176    361    401 171.0  27.9  34048  287.67 0855.27
2009/04/23 08:49:33.6     -64   -309     72    316    325 191.8  12.9  34046  287.65 0855.27
2009/04/23 08:49:33.7     -45   -355     67    358    365 187.3  10.6  34050  287.71 0855.27
2009/04/23 08:49:33.8     -58   -417    117    422    439 188.0  15.6  34048  287.67 0855.27
2009/04/23 08:49:33.9      76   -304    127    314    338 166.0  23.1  34044  287.62 0855.27
2009/04/23 08:49:34.0     -22   -293     89    294    308 184.4  16.8  34052  287.73 0855.27
2009/04/23 08:49:34.1     -40   -307     78    310    320 187.6  14.2  34054  287.78 0855.27
2009/04/23 08:49:34.2     -46   -300     79    304    315 188.7  14.6  34052  287.73 0855.27
2009/04/23 08:49:34.3     -61   -280     63    287    294 192.3  12.4  34052  287.75 0855.27
2009/04/23 08:49:34.4     -25   -312     61    314    320 184.7  11.0  34050  287.70 0855.26
2009/04/23 08:49:34.5      78   -258     68    270    279 163.1  14.2  34050  287.70 0855.26
2009/04/23 08:49:34.6      63   -312     83    319    330 168.5  14.7  34052  287.73 0855.26
2009/04/23 08:49:34.7      32   -331     63    333    340 174.3  10.8  34054  287.78 0855.26
2009/04/23 08:49:34.8      53   -345     95    350    363 171.2  15.2  34050  287.71 0855.26
2009/04/23 08:49:34.9       7   -335     38    336    339 178.8   6.6  34050  287.72 0855.26
2009/04/23 08:49:35.0     -24   -285     58    287    294 184.9  11.6  34052  287.73 0855.26
2009/04/23 08:49:35.1      24   -308    100    310    326 175.5  17.9  34050  287.70 0855.26
2009/04/23 08:49:35.2     -15   -279     87    280    294 183.1  17.3  34054  287.77 0855.26
2009/04/23 08:49:35.3      38   -267      0    270    271 171.9   0.0  34050  287.71 0855.26
2009/04/23 08:49:35.4      53   -192     88    200    218 164.6  25.2  34050  287.70 0855.26
2009/04/23 08:49:35.5      16   -237     95    238    256 176.0  23.0  34050  287.71 0855.26
2009/04/23 08:49:35.6      16   -214     91    215    233 175.5  24.1  34052  287.76 0855.26
2009/04/23 08:49:35.7       7   -226     69    227    238 178.2  17.1  34054  287.77 0855.26
2009/04/23 08:49:35.8       8   -198     82    199    215 177.5  23.4  34052  287.76 0855.26
2009/04/23 08:49:35.9     -59   -145     69    157    171 202.3  25.3  34052  287.76 0855.26
2009/04/23 08:49:36.0    -108   -146     62    182    193 216.5  18.9  34052  287.74 0855.26
2009/04/23 08:49:36.1     -79   -149     28    169    172 207.9   9.5  34050  287.70 0855.26
2009/04/23 08:49:36.2     -12   -153    -24    154    156 184.5  -9.0  34048  287.69 0855.26
2009/04/23 08:49:36.3       4   -251      3    252    253 179.0   0.8  34052  287.75 0855.26
2009/04/23 08:49:36.4      26   -259     62    261    269 174.2  13.5  34050  287.71 0855.27
2009/04/23 08:49:36.5     191   -197     80    275    287 135.9  16.3  34052  287.73 0855.27
2009/04/23 08:49:36.6     156   -166     91    229    246 136.8  23.0  34052  287.75 0855.27
2009/04/23 08:49:36.7     151   -222     62    269    277 145.7  13.1  34052  287.73 0855.27
2009/04/23 08:49:36.8     103   -176     48    205    211 149.7  13.2  34050  287.72 0855.27
2009/04/23 08:49:36.9      88   -205     51    224    230 156.8  12.9  34050  287.70 0855.27
2009/04/23 08:49:37.0      72   -186    -11    200    201 158.6  -3.3  34050  287.72 0855.27
2009/04/23 08:49:37.1     -10   -213     19    214    215 182.7   5.2  34052  287.76 0855.27
2009/04/23 08:49:37.2     -17   -190     22    191    193 185.3   6.7  34050  287.72 0855.27
2009/04/23 08:49:37.3     -40   -168     65    173    184 193.4  21.3  34052  287.76 0855.27
2009/04/23 08:49:37.4     -49   -172    100    179    205 196.0  31.6  34050  287.72 0855.27
2009/04/23 08:49:37.5      -6   -202     74    203    216 181.8  20.9  34050  287.70 0855.27
2009/04/23 08:49:37.6      12   -159     46    160    167 175.6  16.0  34052  287.76 0855.27
2009/04/23 08:49:37.7      44   -130     92    138    165 161.3  36.7  34052  287.76 0855.27
2009/04/23 08:49:37.8      61   -159     93    171    194 159.1  31.3  34052  287.76 0855.27
2009/04/23 08:49:37.9     181   -124     57    220    228 124.4  14.7  34048  287.67 0855.27
2009/04/23 08:49:38.0     120   -117     31    168    171 134.2  10.6  34052  287.76 0855.27
2009/04/23 08:49:38.1      34   -171     54    175    184 168.7  17.1  34052  287.76 0855.27
2009/04/23 08:49:38.2      27   -173     49    176    183 170.9  15.8  34050  287.72 0855.27
2009/04/23 08:49:38.3       4   -198     54    199    207 178.6  15.2  34052  287.74 0855.27
2009/04/23 08:49:38.4      35   -173     78    177    193 168.5  25.1  34048  287.69 0855.27
2009/04/23 08:49:38.5      52   -221    223    228    318 166.7  49.4  34056  287.80 0855.27
2009/04/23 08:49:38.6     -29   -259    132    261    292 186.5  29.1  34052  287.73 0855.27
2009/04/23 08:49:38.7     -62   -241    135    249    283 194.5  30.8  34052  287.73 0855.27
2009/04/23 08:49:38.8     -19   -237    109    238    261 184.7  26.2  34052  287.73 0855.27
2009/04/23 08:49:38.9     -61   -247     95    255    272 194.0  21.3  34050  287.71 0855.27
2009/04/23 08:49:39.0     -81   -168    -29    187    190 205.9  -9.0  34050  287.72 0855.27
2009/04/23 08:49:39.1     -73   -155   -118    172    208 205.2 -42.0  34052  287.74 0855.27
2009/04/23 08:49:39.2     -16   -196   -109    197    225 184.7 -35.8  34048  287.69 0855.27
2009/04/23 08:49:39.3      11   -166    -59    167    178 176.2 -19.6  34052  287.74 0855.27
2009/04/23 08:49:39.4      40   -227    -27    231    233 170.0  -6.7  34048  287.69 0855.27
2009/04/23 08:49:39.5     -48   -208    -58    214    222 193.1 -15.2  34048  287.67 0855.27
2009/04/23 08:49:39.6     -42   -138    -40    145    151 197.0 -15.4  34046  287.65 0855.27
2009/04/23 08:49:39.7      14   -155     33    156    160 174.7  12.2  34052  287.74 0855.27
2009/04/23 08:49:39.8      31   -152    127    156    201 168.4  43.5  34048  287.67 0855.27
2009/04/23 08:49:39.9      93   -200    187    221    289 155.1  44.5  34050  287.71 0855.27
2009/04/23 08:49:40.0     112   -189    162    220    273 149.2  39.9  34054  287.77 0855.27
2009/04/23 08:49:40.1     143   -232    170    273    321 148.3  35.0  34048  287.68 0855.27
2009/04/23 08:49:40.2     127   -204    156    241    287 148.1  35.7  34052  287.73 0855.27
2009/04/23 08:49:40.3     124   -265    125    293    318 154.8  24.6  34052  287.75 0855.27
2009/04/23 08:49:40.4      36   -207    144    211    255 170.0  37.6  34052  287.75 0855.27
2009/04/23 08:49:40.5      13   -238    111    239    263 176.9  27.1  34052  287.75 0855.27
2009/04/23 08:49:40.6     -12   -223     27    224    226 183.1   7.1  34052  287.74 0855.27
2009/04/23 08:49:40.7      -5   -341     67    342    349 180.9  11.1  34050  287.71 0855.27
2009/04/23 08:49:40.8      -3   -335    -90    336    348 180.6 -15.0  34052  287.74 0855.27
2009/04/23 08:49:40.9    -119   -237   -123    266    293 206.7 -31.0  34050  287.71 0855.27
2009/04/23 08:49:41.0    -249   -105   -138    271    304 247.2 -33.6  34050  287.70 0855.27
2009/04/23 08:49:41.1    -174    -61   -102    185    211 250.7 -35.7  34052  287.74 0855.27
2009/04/23 08:49:41.2    -122   -115    -58    168    178 226.7 -19.1  34052  287.74 0855.27
2009/04/23 08:49:41.3     -15   -202    -54    203    211 184.5 -15.0  34052  287.74 0855.27
2009/04/23 08:49:41.4     -93   -213    -71    233    243 203.7 -22.1  34052  287.75 0855.27
2009/04/23 08:49:41.5     -63   -191    -93    202    222 198.3 -30.8  34050  287.72 0855.27
2009/04/23 08:49:41.6     -81   -201     42    217    222 202.1  11.0  34050  287.70 0855.27
2009/04/23 08:49:41.7     -73   -201     76    214    228 200.0  19.6  34052  287.76 0855.27
2009/04/23 08:49:41.8     -61   -183     24    193    195 198.5   7.2  34050  287.72 0855.27
2009/04/23 08:49:41.9     -58   -181     73    191    204 197.8  21.7  34052  287.76 0855.27
2009/04/23 08:49:42.0     -58   -160     60    171    182 200.0  19.6  34052  287.74 0855.27
2009/04/23 08:49:42.1     -81   -195     72    212    225 202.7  18.9  34054  287.77 0855.27
2009/04/23 08:49:42.2     -69   -231    114    242    267 196.7  27.1  34052  287.75 0855.27
2009/04/23 08:49:42.3    -102   -209     95    233    251 206.1  23.4  34050  287.71 0855.27
2009/04/23 08:49:42.4    -123   -192     62    229    238 212.6  15.3  34048  287.68 0855.28
2009/04/23 08:49:42.5     -33    -73     72     81    108 204.5  46.4  34050  287.70 0855.28
2009/04/23 08:49:42.6     -16   -118     82    120    145 188.0  37.6  34050  287.72 0855.28
2009/04/23 08:49:42.7     -13   -207    135    208    247 183.8  36.0  34050  287.71 0855.28
2009/04/23 08:49:42.8     -17   -277     43    278    282 183.6   8.8  34050  287.71 0855.28
2009/04/23 08:49:42.9     -50   -241     36    247    250 191.8   8.5  34052  287.73 0855.28
2009/04/23 08:49:43.0     -51   -223     24    229    231 192.9   6.1  34048  287.67 0855.28
2009/04/23 08:49:43.1     -29   -213    127    215    249 187.8  33.5  34054  287.77 0855.28
2009/04/23 08:49:43.2     -16   -255     96    256    273 183.6  21.3  34052  287.73 0855.28
2009/04/23 08:49:43.3      16   -264     97    265    282 176.4  21.0  34050  287.71 0855.28
2009/04/23 08:49:43.4     -86   -284     70    297    306 196.9  13.3  34052  287.73 0855.28
2009/04/23 08:49:43.5    -108   -270     35    291    294 201.9   6.9  34052  287.73 0855.28
2009/04/23 08:49:43.6    -123   -312    -30    336    338 201.6  -5.2  34052  287.76 0855.28
2009/04/23 08:49:43.7     -42   -308    -26    311    313 187.8  -4.8  34048  287.66 0855.28
2009/04/23 08:49:43.8      69   -206    102    218    240 161.5  27.0  34052  287.73 0855.28
2009/04/23 08:49:43.9      59   -115    131    130    184 152.9  49.9  34052  287.74 0855.28
2009/04/23 08:49:44.0      20    -49    129     54    139 157.3  76.6  34056  287.81 0855.28
2009/04/23 08:49:44.1       9    -52     70     53     87 169.3  59.0  34054  287.77 0855.28
2009/04/23 08:49:44.2      30    -63     64     70     94 154.5  47.5  34054  287.77 0855.28
2009/04/23 08:49:44.3       9     -5     43     11     44 118.9  84.9  34054  287.77 0855.28
2009/04/23 08:49:44.4      -7    -64     53     65     83 186.2  43.7  34052  287.76 0855.28
2009/04/23 08:49:44.5       1   -117     21    118    120 179.1  10.1  34054  287.77 0855.28
2009/04/23 08:49:44.6      19   -123      1    125    126 171.1   0.8  34052  287.74 0855.28
2009/04/23 08:49:44.7      11   -141     17    142    144 175.5   6.9  34052  287.76 0855.28
2009/04/23 08:49:44.8      18    -90     25     92     96 168.4  15.3  34052  287.76 0855.28
2009/04/23 08:49:44.9     -21    -82     53     85    100 194.7  35.5  34054  287.79 0855.28
2009/04/23 08:49:45.0      46    -21     -4     51     52 114.4  -5.2  34052  287.76 0855.28
2009/04/23 08:49:45.1     167    -93     -9    192    193 119.1  -2.8  34052  287.76 0855.28
2009/04/23 08:49:45.2      78   -161     -5    180    181 154.1  -1.8  34052  287.76 0855.28
2009/04/23 08:49:45.3     -15   -300     19    301    302 182.9   3.6  34052  287.75 0855.26
2009/04/23 08:49:45.4      69   -249     26    259    261 164.4   5.9  34054  287.77 0855.26
2009/04/23 08:49:45.5      -5   -303      3    304    305 181.0   0.7  34056  287.80 0855.26
2009/04/23 08:49:45.6     -21   -369     99    370    384 183.4  15.0  34052  287.74 0855.26
2009/04/23 08:49:45.7     196   -482     81    521    528 157.8   8.9  34052  287.75 0855.26
2009/04/23 08:49:45.8     119   -502    111    517    529 166.6  12.2  34054  287.77 0855.26
2009/04/23 08:49:45.9     105   -410     70    424    430 165.6   9.5  34050  287.72 0855.26
2009/04/23 08:49:46.0      25   -495    173    496    525 177.1  20.0  34052  287.73 0855.26
2009/04/23 08:49:46.1      51   -469    133    472    491 173.7  15.8  34052  287.74 0855.26
2009/04/23 08:49:46.2      82   -370    167    380    415 167.4  25.2  34048  287.68 0855.26
2009/04/23 08:49:46.3     120   -318    249    341    422 159.3  39.7  34052  287.76 0855.26
2009/04/23 08:49:46.4     167   -261    283    311    420 147.4  47.0  34052  287.74 0855.26
2009/04/23 08:49:46.5     284   -312    263    422    497 137.7  35.0  34052  287.74 0855.26
2009/04/23 08:49:46.6     240   -276    192    367    414 139.0  30.0  34056  287.81 0855.26
2009/04/23 08:49:46.7     205   -344    109    401    416 149.3  15.3  34056  287.80 0855.26
2009/04/23 08:49:46.8     221   -308     45    380    383 144.4   6.9  34054  287.79 0855.26
2009/04/23 08:49:46.9     205   -309     52    371    375 146.4   8.1  34052  287.74 0855.26
2009/04/23 08:49:47.0     184   -288     52    342    346 147.4   8.7  34054  287.78 0855.26
2009/04/23 08:49:47.1     186   -274    115    332    352 145.7  19.2  34054  287.79 0855.26
2009/04/23 08:49:47.2     139   -233     99    272    289 149.2  20.9  34054  287.78 0855.26
2009/04/23 08:49:47.3      97   -229    100    249    268 157.1  23.0  34054  287.77 0855.25
2009/04/23 08:49:47.4      82   -256    111    269    291 162.2  23.8  34054  287.78 0855.25
2009/04/23 08:49:47.5     -31   -222    136    225    262 188.1  34.2  34052  287.73 0855.25
2009/04/23 08:49:47.6     -45   -169    107    175    205 195.1  34.4  34054  287.77 0855.25
2009/04/23 08:49:47.7       0    -92     56     93    108 180.4  34.4  34054  287.79 0855.25
2009/04/23 08:49:47.8       2    -46     56     47     73 177.3  56.3  34056  287.82 0855.25
2009/04/23 08:49:47.9     -51   -146      7    155    156 199.6   2.9  34054  287.79 0855.25
2009/04/23 08:49:48.0     -94   -246     73    264    275 201.0  15.6  34056  287.80 0855.25
2009/04/23 08:49:48.1      11   -357     27    358    359 178.1   4.3  34052  287.74 0855.25
2009/04/23 08:49:48.2      50   -335    -25    339    340 171.4  -4.2  34054  287.79 0855.25
2009/04/23 08:49:48.3      18   -300    -28    301    303 176.5  -5.4  34054  287.77 0855.25
2009/04/23 08:49:48.4      32   -261    -58    264    271 172.9 -12.4  34052  287.75 0855.25
2009/04/23 08:49:48.5     -64   -238    -62    247    255 195.1 -14.3  34054  287.78 0855.25
2009/04/23 08:49:48.6    -116   -152   -156    192    247 217.2 -47.9  34056  287.82 0855.25
2009/04/23 08:49:48.7      -5   -261    -33    262    265 181.1  -7.2  34056  287.82 0855.25
2009/04/23 08:49:48.8      64   -158    -31    171    174 157.7 -10.5  34054  287.79 0855.25
2009/04/23 08:49:48.9     -37   -110    -66    117    134 198.5 -36.3  34056  287.81 0855.25
2009/04/23 08:49:49.0     -60    -71     17     94     96 220.1  10.6  34056  287.82 0855.25
2009/04/23 08:49:49.1     -39    -14    -41     42     58 249.2 -56.4  34056  287.81 0855.25
2009/04/23 08:49:49.2       0     23    -92     24     95 359.1 -89.8  34058  287.84 0855.25
2009/04/23 08:49:49.3      68     -5    -55     69     88  94.3 -48.1  34056  287.81 0855.23
2009/04/23 08:49:49.4      83   -124    -40    150    156 146.2 -15.0  34054  287.77 0855.23
2009/04/23 08:49:49.5      37   -119    -40    125    132 162.6 -18.1  34054  287.79 0855.23
2009/04/23 08:49:49.6      -4    -85    -24     86     89 183.1 -20.7  34056  287.82 0855.23
2009/04/23 08:49:49.7       5    -66     -2     67     68 175.5  -2.2  34058  287.84 0855.23
2009/04/23 08:49:49.8      -5    -65    -19     66     68 184.4 -21.7  34054  287.77 0855.23
2009/04/23 08:49:49.9      14    -41     28     44     52 160.8  35.5  34054  287.79 0855.23
2009/04/23 08:49:50.0     -22    -92     80     95    124 193.4  44.3  34054  287.79 0855.23
2009/04/23 08:49:50.1     -74   -116     16    138    140 212.6   6.9  34050  287.72 0855.23
2009/04/23 08:49:50.2     -55   -100     16    115    117 209.0   8.0  34052  287.74 0855.23
2009/04/23 08:49:50.3      16    -20     61     26     66 140.4  77.0  34052  287.74 0855.23
2009/04/23 08:49:50.4     119     -9    118    120    168  94.4  50.0  34054  287.79 0855.23
2009/04/23 08:49:50.5       6   -108    119    109    161 176.4  52.7  34054  287.77 0855.23
2009/04/23 08:49:50.6      10   -251    187    252    313 177.5  40.4  34054  287.78 0855.23
2009/04/23 08:49:50.7     -42   -284    202    288    351 188.5  38.5  34052  287.76 0855.23
2009/04/23 08:49:50.8     -84   -317    160    329    365 194.9  27.7  34058  287.83 0855.23
2009/04/23 08:49:50.9     -31   -393    205    395    445 184.6  29.5  34054  287.77 0855.23
2009/04/23 08:49:51.0      51   -400    249    404    474 172.7  34.5  34052  287.75 0855.23
2009/04/23 08:49:51.1      84   -420    221    429    482 168.7  29.3  34058  287.83 0855.23
2009/04/23 08:49:51.2     136   -451    204    472    514 163.2  25.0  34056  287.81 0855.23
2009/04/23 08:49:51.3      77   -403    162    411    441 169.1  22.8  34056  287.82 0855.22
2009/04/23 08:49:51.4      60   -390     55    395    399 171.2   8.0  34058  287.83 0855.22
2009/04/23 08:49:51.5      68   -387    139    394    418 170.0  19.5  34050  287.70 0855.22
2009/04/23 08:49:51.6     101   -393    200    406    452 165.5  28.2  34054  287.77 0855.22
2009/04/23 08:49:51.7     137   -336    187    363    408 157.8  29.3  34050  287.72 0855.22
2009/04/23 08:49:51.8      98   -339    166    353    390 163.9  27.0  34054  287.79 0855.22
2009/04/23 08:49:51.9     115   -347    135    366    390 161.5  21.0  34054  287.78 0855.22
2009/04/23 08:49:52.0     143   -280    127    315    339 152.8  23.1  34054  287.79 0855.22
2009/04/23 08:49:52.1     112   -333     58    352    357 161.4   9.5  34058  287.83 0855.22
2009/04/23 08:49:52.2      30   -278    105    280    299 173.8  21.3  34052  287.75 0855.22
2009/04/23 08:49:52.3      87   -301    113    314    333 163.9  20.7  34056  287.80 0855.22
2009/04/23 08:49:52.4      27   -367    168    368    404 175.8  26.2  34058  287.84 0855.22
2009/04/23 08:49:52.5     -18   -373    183    374    416 182.8  28.0  34056  287.80 0855.22
2009/04/23 08:49:52.6      16   -373    178    374    414 177.4  27.3  34058  287.86 0855.22
2009/04/23 08:49:52.7      15   -405    208    406    456 177.8  29.3  34056  287.82 0855.22
2009/04/23 08:49:52.8      -4   -345    197    346    398 180.7  32.3  34060  287.89 0855.22
2009/04/23 08:49:52.9      42   -303    199    307    365 172.0  35.9  34060  287.88 0855.22
2009/04/23 08:49:53.0      77   -408    310    416    518 169.3  40.6  34056  287.80 0855.22
2009/04/23 08:49:53.1      -1   -321    360    322    482 180.2  53.7  34056  287.82 0855.22
2009/04/23 08:49:53.2      40   -291    283    294    408 172.0  49.0  34058  287.84 0855.22
2009/04/23 08:49:53.3      76   -321    196    331    384 166.6  33.5  34054  287.79 0855.23
2009/04/23 08:49:53.4      22   -253    121    255    282 174.9  27.3  34060  287.87 0855.23
2009/04/23 08:49:53.5      45   -226     47    231    236 168.5  11.6  34058  287.83 0855.23
2009/04/23 08:49:53.6     105   -119     47    160    167 138.6  16.6  34058  287.86 0855.23
2009/04/23 08:49:53.7     119    -50     70    130    147 113.1  31.3  34058  287.84 0855.23
2009/04/23 08:49:53.8      75    -77     72    108    129 135.9  37.0  34054  287.79 0855.23
2009/04/23 08:49:53.9      34    -12    108     37    114 110.0  81.2  34058  287.86 0855.23
2009/04/23 08:49:54.0      51    -17     93     54    107 109.1  67.2  34060  287.87 0855.23
2009/04/23 08:49:54.1      33    -42     86     54    101 141.3  64.7  34058  287.86 0855.23
2009/04/23 08:49:54.2      -1   -199    138    200    242 180.5  37.8  34058  287.86 0855.23
2009/04/23 08:49:54.3      93   -295    101    310    327 162.4  18.1  34060  287.87 0855.23
2009/04/23 08:49:54.4      86   -317     83    329    340 164.8  14.3  34058  287.84 0855.23
2009/04/23 08:49:54.5     130   -385    170    407    441 161.3  24.1  34058  287.84 0855.23
2009/04/23 08:49:54.6     180   -396    214    436    485 155.5  28.1  34058  287.85 0855.23
2009/04/23 08:49:54.7     159   -422    106    452    465 159.3  13.3  34054  287.77 0855.23
2009/04/23 08:49:54.8      93   -383     92    395    406 166.3  13.2  34048  287.67 0855.23
2009/04/23 08:49:54.9      98   -397    200    409    455 166.1  28.0  34058  287.85 0855.23
2009/04/23 08:49:55.1     136   -345    -26    371    372 158.5  -4.0  34058  287.86 0855.23
2009/04/23 08:49:55.2     110   -279    -40    301    304 158.4  -7.7  34060  287.87 0855.23
2009/04/23 08:49:55.3     119   -320   -112    342    360 159.6 -18.2  34060  287.88 0855.23
2009/04/23 08:49:55.4     129   -330   -104    355    369 158.6 -21.4  34058  287.86 0855.24
2009/04/23 08:49:55.5     -42   -271   -113    275    297 188.9 -27.8  34058  287.83 0855.24
2009/04/23 08:49:55.6     106   -208    -82    234    249 152.9 -19.4  34058  287.85 0855.24
2009/04/23 08:49:55.7     198   -140   -120    243    271 125.3 -32.4  34060  287.87 0855.24
2009/04/23 08:49:55.8      65   -199    -86    210    226 161.7 -27.8  34058  287.84 0855.24
2009/04/23 08:49:55.9      16   -163    -58    164    175 174.2 -19.6  34060  287.89 0855.24
2009/04/23 08:49:56.0      64   -213    -54    223    230 163.3 -13.7  34060  287.87 0855.24
2009/04/23 08:49:56.1      76    -73   -103    106    147 133.6 -53.8  34058  287.84 0855.24
2009/04/23 08:49:56.2     -10    -40    -93     42    102 195.1 -78.9  34060  287.89 0855.24
2009/04/23 08:49:56.3     -18    -70     -9     73     74 195.1  -7.3  34058  287.84 0855.24
2009/04/23 08:49:56.4     -41    -48     10     64     65 220.5   9.0  34058  287.86 0855.24
2009/04/23 08:49:56.5      18     10     73     21     75  59.3  82.8  34058  287.84 0855.24
2009/04/23 08:49:56.6      -7    -22     25     24     34 198.3  48.2  34060  287.89 0855.24
2009/04/23 08:49:56.7     -73   -115    -49    137    145 212.5 -24.4  34060  287.87 0855.24
2009/04/23 08:49:56.8     -90   -248     -3    264    265 200.0  -0.7  34050  287.71 0855.24
2009/04/23 08:49:56.9     -79   -375     45    384    387 192.0   6.8  34058  287.86 0855.24
2009/04/23 08:49:57.0    -204   -355     65    410    416 209.9   9.0  34060  287.87 0855.24
2009/04/23 08:49:57.1    -311   -293    -46    428    431 226.7  -6.2  34058  287.85 0855.24
2009/04/23 08:49:57.2    -229   -357    -84    425    434 212.8 -11.2  34052  287.73 0855.24
2009/04/23 08:49:57.3     -53   -353    170    358    396 188.6  27.3  34058  287.84 0855.24
2009/04/23 08:49:57.4     -79   -340    281    350    448 193.2  42.9  34058  287.84 0855.24
2009/04/23 08:49:57.5     -27   -275    282    277    395 185.8  50.6  34060  287.88 0855.24
2009/04/23 08:49:57.6     -62   -257    250    265    364 193.6  48.2  34058  287.86 0855.24
2009/04/23 08:49:57.7    -169   -227    107    284    303 216.7  21.5  34058  287.85 0855.24
2009/04/23 08:49:57.8    -254   -205    -34    327    329 231.1  -6.0  34060  287.87 0855.24
2009/04/23 08:49:57.9    -262   -155    -93    305    319 239.4 -17.0  34060  287.88 0855.24
2009/04/23 08:49:58.0    -206   -123   -110    241    264 239.1 -30.6  34058  287.85 0855.24
2009/04/23 08:49:58.1    -172    -59    -65    183    194 250.9 -24.4  34062  287.91 0855.24
2009/04/23 08:49:58.2    -136    -69   -113    153    190 242.9 -44.5  34060  287.87 0855.24
2009/04/23 08:49:58.3     -78    -69    -97    105    142 228.7 -52.3  34060  287.89 0855.24
2009/04/23 08:49:58.4      -5   -141    -33    142    146 182.2 -13.3  34056  287.82 0855.24
2009/04/23 08:49:58.5    -100   -261    -72    280    290 201.0 -14.5  34056  287.80 0855.24
2009/04/23 08:49:58.6     -92   -259    -10    276    277 199.6  -2.2  34062  287.90 0855.24
2009/04/23 08:49:58.7     -72   -233    -22    244    246 197.2  -5.4  34060  287.88 0855.24
2009/04/23 08:49:58.8    -107    -53     -4    120    121 243.4  -2.2  34060  287.89 0855.24
2009/04/23 08:49:58.9    -131   -156      9    204    205 220.1   2.8  34060  287.89 0855.24
2009/04/23 08:49:59.0    -109   -109      7    155    156 224.9   2.9  34058  287.84 0855.24
2009/04/23 08:49:59.1    -107    -74    -65    131    146 235.4 -32.2  34062  287.92 0855.24
2009/04/23 08:49:59.2    -151    -64    -19    165    167 246.9  -6.9  34058  287.86 0855.24
2009/04/23 08:49:59.3    -154   -154    -81    218    232 225.0 -25.4  34058  287.86 0855.24
2009/04/23 08:49:59.4    -123   -113    -61    168    178 227.3 -25.1  34062  287.91 0855.24
2009/04/23 08:49:59.5       3   -231     12    232    233 179.1   3.1  34062  287.92 0855.24
2009/04/23 08:49:59.6     -13   -199     31    200    203 183.8   9.0  34062  287.91 0855.24
2009/04/23 08:49:59.7      15   -174     91    175    197 174.9  29.5  34062  287.91 0855.24
2009/04/23 08:49:59.8      29   -221     55    223    230 172.4  13.9  34062  287.92 0855.24
2009/04/23 08:49:59.9       9   -102    108    103    149 174.7  51.6  34064  287.96 0855.24
2009/04/23 08:50:00.0      -2    -89     85     90    123 181.8  48.5  34064  287.94 0855.24
2009/04/23 08:50:00.1      24    -79     91     83    123 163.1  52.2  34060  287.89 0855.24
2009/04/23 08:50:00.2      32   -180    120    183    218 169.8  36.3  34060  287.89 0855.24
2009/04/23 08:50:00.3      50   -186    115    193    224 164.8  33.7  34060  287.89 0855.24
2009/04/23 08:50:00.4      25   -183    114    185    217 172.2  34.8  34062  287.92 0855.24
2009/04/23 08:50:00.5      30   -175    118    178    213 170.0  36.5  34062  287.91 0855.24
2009/04/23 08:50:00.6      15   -189    111    190    220 175.3  32.9  34060  287.87 0855.24
2009/04/23 08:50:00.7       0   -186    104    187    213 180.0  31.4  34060  287.89 0855.24
2009/04/23 08:50:00.8     -18   -183    109    184    213 185.8  33.5  34062  287.92 0855.24
2009/04/23 08:50:00.9     -29   -185    113    188    219 189.1  33.7  34062  287.91 0855.24
2009/04/23 08:50:01.0     -28   -198    114    201    231 188.1  31.9  34062  287.92 0855.24
2009/04/23 08:50:01.1     -36   -220    123    224    255 189.3  31.3  34062  287.92 0855.24
2009/04/23 08:50:01.2     -37   -230     91    234    251 189.3  22.1  34064  287.93 0855.24
2009/04/23 08:50:01.3     -36   -260     82    263    276 188.0  17.4  34060  287.88 0855.24
2009/04/23 08:50:01.4      23   -277     57    279    285 175.1  11.6  34062  287.92 0855.25
2009/04/23 08:50:01.5      22   -291     79    292    303 175.5  15.2  34062  287.90 0855.25
2009/04/23 08:50:01.6      30   -235    101    237    257 172.7  24.3  34062  287.90 0855.25
2009/04/23 08:50:01.7      41   -263    101    267    285 171.1  21.7  34062  287.92 0855.25
2009/04/23 08:50:01.8      38   -270     88    273    287 171.9  17.9  34062  287.92 0855.25
2009/04/23 08:50:01.9      -7   -254    109    255    277 181.6  24.6  34062  287.92 0855.25
2009/04/23 08:50:02.0      39   -271     89    274    289 171.8  18.1  34064  287.93 0855.25
2009/04/23 08:50:02.1      95   -247     98    265    282 159.0  21.0  34062  287.92 0855.25
2009/04/23 08:50:02.2     111   -262    121    285    309 157.1  24.3  34060  287.87 0855.25
2009/04/23 08:50:02.3      37   -248    111    251    274 171.5  25.2  34062  287.92 0855.25
2009/04/23 08:50:02.4      94   -263    113    280    301 160.2  23.0  34062  287.90 0855.25
2009/04/23 08:50:02.5     150   -250     98    292    309 149.0  18.6  34064  287.93 0855.25
2009/04/23 08:50:02.6     122   -169    106    209    234 144.0  29.1  34060  287.87 0855.25
2009/04/23 08:50:02.7     126   -239    138    271    304 152.1  29.2  34062  287.90 0855.25
2009/04/23 08:50:02.8     178   -215     97    280    297 140.4  19.2  34064  287.93 0855.25
2009/04/23 08:50:02.9     105   -257     62    278    285 157.7  12.6  34062  287.92 0855.25
2009/04/23 08:50:03.0      39   -253     82    257    270 171.1  17.7  34062  287.92 0855.25
2009/04/23 08:50:03.1       0   -203     68    204    216 180.2  18.6  34060  287.89 0855.25
2009/04/23 08:50:03.2     -42   -174     87    180    199 193.8  27.4  34062  287.92 0855.25
2009/04/23 08:50:03.3     -35   -149     21    154    156 193.4   7.8  34062  287.92 0855.25
2009/04/23 08:50:03.4      11   -142     50    143    152 175.5  19.4  34062  287.92 0855.26
2009/04/23 08:50:03.5      36   -176     82    180    197 168.4  26.2  34062  287.91 0855.26
2009/04/23 08:50:03.6      37   -248    108    251    273 171.5  24.6  34064  287.93 0855.26
2009/04/23 08:50:03.7       0   -276    100    277    294 180.1  20.9  34064  287.95 0855.26
2009/04/23 08:50:03.8      20   -239     61    240    248 175.1  14.3  34064  287.95 0855.26
2009/04/23 08:50:03.9     -38   -189      1    194    195 191.6   0.5  34062  287.92 0855.26
2009/04/23 08:50:04.0     -21   -200    -19    202    203 186.2  -5.6  34062  287.91 0855.26
2009/04/23 08:50:04.1     -20   -175     20    177    179 186.7   6.7  34062  287.91 0855.26
2009/04/23 08:50:04.2     -27   -152     15    155    156 190.2   5.7  34062  287.91 0855.26
2009/04/23 08:50:04.3      24   -122    -25    125    128 168.5 -11.5  34060  287.87 0855.26
2009/04/23 08:50:04.4     -40   -118      9    125    126 198.7   4.4  34062  287.92 0855.26
2009/04/23 08:50:04.5     -50   -139    -25    148    151 200.0  -9.8  34060  287.89 0855.26
2009/04/23 08:50:04.6     -33   -180    -12    184    185 190.5  -3.9  34060  287.89 0855.26
2009/04/23 08:50:04.7       9   -297      5    298    299 178.2   1.0  34062  287.90 0855.26
2009/04/23 08:50:04.8      49   -260     12    265    266 169.3   2.8  34060  287.88 0855.26
2009/04/23 08:50:04.9     -31   -347    -10    349    350 185.2  -1.7  34060  287.88 0855.26
2009/04/23 08:50:05.0     -59   -321     10    327    328 190.5   1.9  34056  287.80 0855.26
2009/04/23 08:50:05.1     -84   -276     33    289    291 196.9   6.7  34058  287.83 0855.26
2009/04/23 08:50:05.2      50   -209    -63    215    225 166.4 -16.4  34060  287.89 0855.26
2009/04/23 08:50:05.3      73   -161    -56    177    186 155.5 -17.6  34062  287.92 0855.26
2009/04/23 08:50:05.4      89   -153    -30    178    181 149.7  -9.6  34060  287.87 0855.26
2009/04/23 08:50:05.5      62   -155      0    168    169 158.2   0.0  34058  287.86 0855.26
2009/04/23 08:50:05.6      84   -132     31    157    161 147.4  11.1  34060  287.87 0855.26
2009/04/23 08:50:05.7      86   -151     50    174    182 150.4  16.0  34060  287.89 0855.26
2009/04/23 08:50:05.8     142   -142     74    202    215 135.0  20.9  34060  287.87 0855.26
2009/04/23 08:50:05.9     203   -245    101    319    335 140.3  17.7  34064  287.93 0855.26
2009/04/23 08:50:06.0     127   -312     -6    338    339 157.8  -1.1  34060  287.88 0855.26
2009/04/23 08:50:06.1     208   -300     25    366    367 145.3   4.0  34062  287.91 0855.26
2009/04/23 08:50:06.2     205   -254     54    327    332 141.0   9.4  34064  287.96 0855.26
2009/04/23 08:50:06.3     187   -207     -1    280    281 137.9  -0.3  34060  287.88 0855.26
2009/04/23 08:50:06.4     155   -208      9    260    261 143.3   2.1  34062  287.92 0855.25
2009/04/23 08:50:06.5     157   -187     35    245    248 140.1   8.2  34064  287.95 0855.25
2009/04/23 08:50:06.6      76   -177     83    193    210 156.6  25.1  34062  287.91 0855.25
2009/04/23 08:50:06.7      49   -207     94    213    232 166.6  25.2  34062  287.91 0855.25
2009/04/23 08:50:06.8      42   -182     74    187    201 166.9  22.8  34056  287.81 0855.25
2009/04/23 08:50:06.9      22   -180     66    182    193 172.9  20.4  34060  287.87 0855.25
2009/04/23 08:50:07.0      42   -166    108    172    203 165.7  35.5  34054  287.79 0855.25
2009/04/23 08:50:07.1      55   -227    122    234    263 166.2  29.5  34062  287.90 0855.25
2009/04/23 08:50:07.2     162   -276     66    321    328 149.5  11.8  34060  287.88 0855.25
2009/04/23 08:50:07.3     116   -275    118    299    321 157.1  22.7  34054  287.78 0855.25
2009/04/23 08:50:07.4      97   -311    108    327    345 162.6  18.4  34058  287.84 0855.25
2009/04/23 08:50:07.5     192   -381     99    427    439 153.2  13.1  34060  287.87 0855.25
2009/04/23 08:50:07.6     195   -347    136    399    422 150.6  18.9  34060  287.87 0855.25
2009/04/23 08:50:07.7     198   -326     63    382    388 148.7   9.4  34054  287.79 0855.25
2009/04/23 08:50:07.8     126   -344    -28    367    368 159.8  -4.4  34058  287.83 0855.25
2009/04/23 08:50:07.9      76   -330    -35    339    341 167.0  -6.0  34054  287.79 0855.25
2009/04/23 08:50:08.0     136   -407    -57    430    434 161.4  -7.6  34056  287.82 0855.25
2009/04/23 08:50:08.1     155   -446    -42    473    475 160.8  -5.2  34052  287.76 0855.25
2009/04/23 08:50:08.2     167   -418      5    451    452 158.2   0.7  34056  287.80 0855.25
2009/04/23 08:50:08.3     107   -422    -22    436    437 165.7  -3.0  34054  287.77 0855.25
2009/04/23 08:50:08.4      -5   -361     14    362    363 180.9   2.2  34050  287.72 0855.23
2009/04/23 08:50:08.5      74   -316    -33    325    327 166.8  -5.9  34056  287.82 0855.23
2009/04/23 08:50:08.6      36   -330    -20    333    334 173.7  -3.5  34054  287.79 0855.23
2009/04/23 08:50:08.7      52   -304      4    309    310 170.2   0.8  34054  287.77 0855.23
2009/04/23 08:50:08.8     113   -283    -16    305    306 158.2  -3.2  34054  287.77 0855.23
2009/04/23 08:50:08.9     140   -253    -53    290    295 151.0 -10.4  34056  287.80 0855.23
2009/04/23 08:50:09.0     120   -238    -43    267    271 153.3  -9.3  34058  287.83 0855.23
2009/04/23 08:50:09.1      77   -173    -66    190    201 155.9 -24.0  34052  287.74 0855.23
2009/04/23 08:50:09.2      -6   -193   -106    194    221 182.0 -35.7  34050  287.72 0855.23
2009/04/23 08:50:09.3     -39   -194    -63    199    208 191.6 -22.8  34048  287.67 0855.23
2009/04/23 08:50:09.4     -97   -221    -76    242    254 203.7 -17.6  34050  287.71 0855.23
2009/04/23 08:50:09.5    -121   -227    -51    258    264 208.1 -11.3  34052  287.75 0855.23
2009/04/23 08:50:09.6    -127   -181    -82    222    236 215.0 -25.7  34050  287.70 0855.23
2009/04/23 08:50:09.7    -105    -99    -69    145    160 226.9 -31.6  34052  287.76 0855.23
2009/04/23 08:50:09.8     -70    -76    -27    104    108 222.8 -14.5  34052  287.76 0855.23
2009/04/23 08:50:09.9    -118    -30    -40    122    129 255.4 -18.1  34052  287.76 0855.23
2009/04/23 08:50:10.0     -64   -182    -67    194    205 199.6 -23.6  34052  287.74 0855.23
2009/04/23 08:50:10.1     -36   -177    -76    181    196 191.6 -28.5  34052  287.74 0855.23
2009/04/23 08:50:10.2     -27   -133    -86    136    160 191.5 -39.9  34052  287.76 0855.23
2009/04/23 08:50:10.3     -14   -108    -48    109    119 187.6 -29.5  34052  287.76 0855.22
2009/04/23 08:50:10.4     -40    -93    -61    102    118 203.2 -37.9  34054  287.77 0855.22
2009/04/23 08:50:10.5     -32    -50    -37     60     70 212.5 -39.9  34054  287.77 0855.22
2009/04/23 08:50:10.6      -2    -30    -37     31     48 184.5 -58.7  34052  287.76 0855.22
2009/04/23 08:50:10.7      15    -31    -32     35     47 154.6 -52.3  34052  287.76 0855.22
2009/04/23 08:50:10.8      29    -45    -19     54     58 147.4 -19.6  34052  287.76 0855.22
2009/04/23 08:50:10.9      21   -102     20    105    108 168.0  11.1  34052  287.76 0855.22
2009/04/23 08:50:11.0     -10   -117     37    118    124 185.3  17.4  34052  287.76 0855.22
2009/04/23 08:50:11.1     -15   -128     74    129    148 187.1  32.4  34050  287.72 0855.22
2009/04/23 08:50:11.2     -63   -133     53    148    157 205.5  20.4  34050  287.72 0855.22
2009/04/23 08:50:11.3     -68   -125     33    143    147 208.5  13.2  34052  287.76 0855.22
2009/04/23 08:50:11.4    -148    -73    -17    166    167 243.8  -6.0  34050  287.72 0855.22
2009/04/23 08:50:11.5    -153    -20    -40    155    161 262.5 -14.7  34056  287.82 0855.22
2009/04/23 08:50:11.6    -172    -39    -35    177    181 257.0 -11.3  34052  287.74 0855.22
2009/04/23 08:50:11.7    -146    -21     67    148    162 261.6  25.9  34054  287.79 0855.22
2009/04/23 08:50:11.8     -46     24     89     53    103 298.0  66.2  34056  287.81 0855.22
2009/04/23 08:50:11.9      26     27    106     38    112  43.2  80.2  34058  287.84 0855.22
2009/04/23 08:50:12.0     -11   -149    214    150    261 184.5  61.7  34058  287.86 0855.22
2009/04/23 08:50:12.1       7   -141    159    142    213 176.9  53.7  34054  287.79 0855.22
2009/04/23 08:50:12.2      13   -170    176    171    245 175.3  50.9  34056  287.81 0855.22
2009/04/23 08:50:12.3       0   -180    214    181    280 179.8  55.4  34056  287.82 0855.21
2009/04/23 08:50:12.4     -59   -248    205    255    327 193.4  43.0  34058  287.83 0855.21
2009/04/23 08:50:12.5    -106   -254    189    276    334 202.7  37.7  34052  287.75 0855.21
2009/04/23 08:50:12.6       7   -204    156    205    257 178.0  40.9  34054  287.78 0855.21
2009/04/23 08:50:12.7      48   -121    129    131    183 158.2  50.0  34054  287.79 0855.21
2009/04/23 08:50:12.8      21   -134     92    136    164 171.1  37.3  34052  287.74 0855.21
2009/04/23 08:50:12.9      64    -17    240     67    249 105.0  84.1  34056  287.82 0855.21
2009/04/23 08:50:13.0       0    -51    189     52    196 180.9  84.8  34056  287.82 0855.21
2009/04/23 08:50:13.1       2     -7    135      8    135 161.3  90.0  34058  287.84 0855.21
2009/04/23 08:50:13.2      84    -24    211     88    228 105.9  76.6  34052  287.76 0855.21
2009/04/23 08:50:13.3     -12    -11    181     17    181 226.7  90.0  34056  287.82 0855.21
2009/04/23 08:50:13.4       2      0    151      3    151  90.0  90.0  34056  287.81 0855.21
2009/04/23 08:50:13.5      29     21    150     36    154  54.0  86.9  34054  287.79 0855.21
2009/04/23 08:50:13.6      53    -16    147     56    157 106.8  78.4  34052  287.74 0855.21
2009/04/23 08:50:13.7      14   -121    201    122    235 173.3  66.0  34056  287.81 0855.21
2009/04/23 08:50:13.8      87    -20    175     90    196 103.3  70.8  34054  287.77 0855.21
2009/04/23 08:50:13.9     139    -23    172    141    222  99.6  56.4  34056  287.81 0855.21
2009/04/23 08:50:14.0      74    -22    165     78    182 106.8  73.1  34052  287.74 0855.21
2009/04/23 08:50:14.1      35    -34    169     49    175 134.1  83.5  34060  287.87 0855.21
2009/04/23 08:50:14.2      38     12    156     40    161  71.8  85.6  34054  287.77 0855.21
2009/04/23 08:50:14.3     107    -63    116    125    170 120.7  47.7  34050  287.70 0855.21
2009/04/23 08:50:14.4     181    -48    190    188    267 105.1  50.1  34048  287.68 0855.21
2009/04/23 08:50:14.5     178    -35    202    182    271 101.4  53.3  34048  287.66 0855.21
2009/04/23 08:50:14.6     195    -56     72    204    217 106.2  19.4  34050  287.70 0855.21
2009/04/23 08:50:14.7     277    -12    162    278    321  92.6  33.0  34048  287.68 0855.21
2009/04/23 08:50:14.8     315     10     -6    316    317  88.1  -1.3  34050  287.70 0855.21
2009/04/23 08:50:14.9     311     -4    -40    312    315  90.8  -7.3  34052  287.75 0855.21
2009/04/23 08:50:15.0     276    -48     38    281    284  99.9   7.8  34048  287.68 0855.21
2009/04/23 08:50:15.1     250     -7    106    251    272  91.7  24.1  34048  287.68 0855.21
2009/04/23 08:50:15.2     223    -23     92    225    243  96.1  23.4  34048  287.68 0855.21
2009/04/23 08:50:15.3     153   -123     48    197    203 128.9  13.7  34048  287.69 0855.21
2009/04/23 08:50:15.4      83   -120     80    147    167 145.3  30.6  34048  287.69 0855.21
2009/04/23 08:50:15.5       3   -104    113    105    154 178.2  52.1  34050  287.72 0855.21
2009/04/23 08:50:15.6      31    -66     89     74    115 154.5  56.3  34052  287.74 0855.21
2009/04/23 08:50:15.7      91    -75     80    119    143 129.5  37.0  34052  287.76 0855.21
2009/04/23 08:50:15.8      55    -71     46     91    101 142.2  28.7  34052  287.74 0855.21
2009/04/23 08:50:15.9      79    -15     43     81     91 101.0  30.3  34052  287.74 0855.21
2009/04/23 08:50:16.0     121    -79     49    145    154 123.3  18.9  34052  287.74 0855.21
2009/04/23 08:50:16.1     105    -75    100    130    164 125.5  41.4  34046  287.64 0855.21
2009/04/23 08:50:16.2      34   -217    159    220    271 170.9  39.5  34046  287.65 0855.21
2009/04/23 08:50:16.3     129   -117    128    175    216 132.2  39.7  34048  287.67 0855.20
2009/04/23 08:50:16.4      70    -49    120     86    147 125.1  60.6  34048  287.69 0855.20
2009/04/23 08:50:16.5     105    -76     87    130    156 126.0  36.5  34050  287.70 0855.20
2009/04/23 08:50:16.6     120   -109     59    163    173 132.2  20.4  34048  287.69 0855.20
2009/04/23 08:50:16.7       9   -103    116    104    155 174.7  53.3  34048  287.67 0855.20
2009/04/23 08:50:16.9      12   -120     99    121    156 174.2  43.7  34050  287.72 0855.20
2009/04/23 08:50:16.9      -6   -139    115    140    181 182.7  43.7  34048  287.67 0855.20
2009/04/23 08:50:17.0     -15    -94    107     96    143 189.3  53.3  34046  287.65 0855.20
2009/04/23 08:50:17.1     -73   -119    104    140    174 211.6  40.4  34046  287.65 0855.20
2009/04/23 08:50:17.2    -109    -97     38    147    152 228.2  14.7  34046  287.64 0855.20
2009/04/23 08:50:17.3    -112    -16    -40    114    120 261.6 -24.4  34046  287.64 0855.20
2009/04/23 08:50:17.4     -70    -56    -74     90    116 231.4 -48.1  34050  287.70 0855.20
2009/04/23 08:50:17.5     -35    -41    -34     54     63 220.5 -39.9  34046  287.64 0855.20
2009/04/23 08:50:17.6      43    -92    -35    102    108 155.1 -19.1  34046  287.64 0855.20
2009/04/23 08:50:17.7       0    -63    -65     64     91 179.1 -54.5  34042  287.59 0855.20
2009/04/23 08:50:17.8     -48    -45    -43     67     79 226.9 -40.4  34044  287.62 0855.20
2009/04/23 08:50:17.9     -43    -58     86     73    112 216.1  55.8  34044  287.62 0855.20
2009/04/23 08:50:18.0      16    -82    115     84    142 168.4  60.5  34044  287.62 0855.20
2009/04/23 08:50:18.1     -20   -172     95    174    198 186.7  31.0  34044  287.62 0855.20
2009/04/23 08:50:18.2     -47   -169     38    176    181 195.8  12.4  34042  287.57 0855.20
2009/04/23 08:50:18.3     -13   -197     91    198    217 183.8  26.4  34042  287.59 0855.20
2009/04/23 08:50:18.4     -59   -248    128    255    285 193.4  28.5  34044  287.60 0855.20
2009/04/23 08:50:18.5     -59   -258    -14    265    266 192.9  -3.2  34042  287.58 0855.20
2009/04/23 08:50:18.6    -119   -253    -57    280    286 205.3 -11.6  34044  287.60 0855.20
2009/04/23 08:50:18.7    -126   -228    -27    261    263 208.9  -6.1  34040  287.55 0855.20
2009/04/23 08:50:18.8     -76   -227     -9    240    241 198.7  -2.2  34040  287.55 0855.20
2009/04/23 08:50:18.9     -34   -160     31    164    167 192.3  10.8  34040  287.54 0855.20
2009/04/23 08:50:19.0       2   -152    -66    153    166 179.0 -29.3  34040  287.55 0855.20
2009/04/23 08:50:19.1      13   -144    -10    145    146 174.7  -4.1  34042  287.57 0855.20
2009/04/23 08:50:19.2       7   -123    -32    124    129 176.4 -14.5  34042  287.57 0855.20
2009/04/23 08:50:19.3      14   -172    -58    173    183 175.3 -18.7  34042  287.59 0855.20
2009/04/23 08:50:19.4      37   -215    -67    219    229 170.2 -22.1  34042  287.57 0855.20
2009/04/23 08:50:19.5     -32   -227    -63    230    239 188.0 -15.4  34042  287.58 0855.20
2009/04/23 08:50:19.6     -14   -169    -74    170    185 184.9 -29.3  34044  287.62 0855.20
2009/04/23 08:50:19.7     -51   -227    -57    233    241 192.7 -13.9  34044  287.61 0855.20
2009/04/23 08:50:19.8     -96   -321      6    336    337 196.7   1.1  34046  287.64 0855.20
2009/04/23 08:50:19.9    -136   -315    -65    344    351 203.3 -10.8  34048  287.66 0855.20
2009/04/23 08:50:20.0     -97   -352    -89    366    377 195.4 -13.8  34048  287.69 0855.20
2009/04/23 08:50:20.1     -27   -274     -8    276    277 185.8  -1.8  34046  287.63 0855.20
2009/04/23 08:50:20.2     -55   -256     57    263    270 192.3  12.4  34044  287.61 0855.20
2009/04/23 08:50:20.3       0   -249     87    250    265 180.1  19.2  34044  287.61 0855.21
2009/04/23 08:50:20.4      30   -221    116    224    252 172.2  29.5  34050  287.71 0855.21
2009/04/23 08:50:20.5      71   -213     70    225    236 161.5  17.4  34042  287.59 0855.21
2009/04/23 08:50:20.6      99   -219     97    241    259 155.7  23.1  34046  287.65 0855.21
2009/04/23 08:50:20.7      37   -193     17    197    198 169.1   5.0  34046  287.65 0855.21
2009/04/23 08:50:20.8      41   -263    -10    267    268 171.1  -2.2  34046  287.65 0855.21
2009/04/23 08:50:20.9      85   -372    -14    382    383 167.1  -2.2  34048  287.69 0855.21
2009/04/23 08:50:21.0     102   -396     -8    410    411 165.5  -1.2  34046  287.65 0855.21
2009/04/23 08:50:21.1     148   -372     10    401    402 158.3   1.5  34044  287.62 0855.21
2009/04/23 08:50:21.2     163   -370    -78    405    413 156.2 -11.0  34046  287.63 0855.21
2009/04/23 08:50:21.3     129   -331    -33    356    358 158.6  -5.3  34042  287.59 0855.21
2009/04/23 08:50:21.4     177   -329    -67    374    381 151.6 -10.2  34044  287.62 0855.21
2009/04/23 08:50:21.5     193   -316    -82    371    381 148.6 -12.5  34044  287.62 0855.21
2009/04/23 08:50:21.6     236   -287    -91    372    384 140.5 -13.8  34048  287.66 0855.21
2009/04/23 08:50:21.7     296   -253    -64    390    396 130.6  -9.4  34042  287.59 0855.21
2009/04/23 08:50:21.8     201   -293    -86    356    367 145.5 -13.7  34048  287.69 0855.21
2009/04/23 08:50:21.9     191   -256    -29    320    322 143.3  -5.3  34048  287.66 0855.21
2009/04/23 08:50:22.0     172   -255     15    308    309 145.9   2.8  34044  287.61 0855.21
2009/04/23 08:50:22.1     175   -384     52    422    426 155.5   7.1  34046  287.63 0855.21
2009/04/23 08:50:22.2     140   -384    104    409    423 160.0  14.3  34044  287.62 0855.21
2009/04/23 08:50:22.3     169   -326    192    368    415 152.5  29.8  34042  287.59 0855.23
2009/04/23 08:50:22.4     187   -321     72    372    379 149.8  11.0  34044  287.62 0855.23
2009/04/23 08:50:22.5     170   -326     15    368    369 152.4   2.3  34048  287.66 0855.23
2009/04/23 08:50:22.6     155   -329     82    364    374 154.7  12.8  34044  287.62 0855.23
2009/04/23 08:50:22.7     161   -268     84    313    325 149.0  15.1  34046  287.65 0855.23
2009/04/23 08:50:22.9     172   -289     94    337    350 149.2  15.6  34048  287.66 0855.23
2009/04/23 08:50:23.0     112   -280    -11    302    303 158.2  -2.2  34048  287.68 0855.23
2009/04/23 08:50:23.1      71   -351    -20    359    360 168.4  -3.3  34046  287.64 0855.23
2009/04/23 08:50:23.2     129   -331    -54    356    361 158.6  -8.7  34046  287.64 0855.23
2009/04/23 08:50:23.3     148   -320    -58    353    358 155.1  -9.5  34046  287.64 0855.23
2009/04/23 08:50:23.4      93   -324     13    338    339 163.9   2.2  34044  287.61 0855.23
2009/04/23 08:50:23.5      47   -311    -34    315    317 171.3  -6.3  34046  287.65 0855.23
2009/04/23 08:50:23.6      53   -373    -97    377    390 171.9 -14.5  34048  287.66 0855.23
2009/04/23 08:50:23.7      60   -362   -102    367    380 170.6 -20.1  34048  287.66 0855.23
2009/04/23 08:50:23.8      72   -321   -102    330    345 167.3 -22.3  34042  287.57 0855.23
2009/04/23 08:50:23.9      11   -238    -66    239    249 177.3 -15.5  34046  287.63 0855.23
2009/04/23 08:50:24.0       3   -218    -43    219    224 179.1 -11.1  34044  287.60 0855.23
2009/04/23 08:50:24.1      -1   -264    -53    265    271 180.2 -11.5  34046  287.63 0855.23
2009/04/23 08:50:24.2      62   -314    -45    321    325 168.8  -8.0  34046  287.65 0855.23
2009/04/23 08:50:24.3      72   -307   -104    316    333 166.8 -18.3  34046  287.63 0855.23
2009/04/23 08:50:24.4     106   -325    -76    342    351 161.9 -12.6  34042  287.57 0855.23
2009/04/23 08:50:24.5      77   -305    -73    315    324 165.7 -13.1  34046  287.63 0855.23
2009/04/23 08:50:24.6      23   -274    -65    276    284 175.1 -13.3  34046  287.63 0855.23
2009/04/23 08:50:24.7      40   -219    -77    223    237 169.5 -19.1  34046  287.65 0855.23
2009/04/23 08:50:24.8      48   -216    -36    222    226 167.5  -9.4  34042  287.59 0855.23
2009/04/23 08:50:24.9      35   -201    -73    205    218 170.0 -19.7  34044  287.62 0855.23
2009/04/23 08:50:25.0      61   -192    -68    202    213 162.4 -23.3  34044  287.62 0855.23
2009/04/23 08:50:25.1      58   -168    -53    178    186 160.8 -16.6  34042  287.59 0855.23
2009/04/23 08:50:25.2      64   -139    -54    154    163 155.1 -24.4  34046  287.64 0855.23
2009/04/23 08:50:25.3      39   -123    -31    130    134 162.2 -13.4  34046  287.64 0855.23
2009/04/23 08:50:25.4      66   -136      7    152    153 154.1   2.9  34042  287.59 0855.23
2009/04/23 08:50:25.5      97   -178     69    203    215 151.3  18.9  34042  287.59 0855.23
2009/04/23 08:50:25.6      79   -162     54    181    189 154.1  16.6  34042  287.59 0855.23
2009/04/23 08:50:25.7      59   -138     69    151    166 156.8  26.4  34046  287.65 0855.23
2009/04/23 08:50:25.8      16   -185     76    186    200 174.9  23.4  34044  287.60 0855.23
2009/04/23 08:50:25.9      37   -192    103    196    221 169.1  29.8  34046  287.64 0855.23
2009/04/23 08:50:26.0      68   -217    103    228    250 162.6  26.2  34048  287.66 0855.23
2009/04/23 08:50:26.1      67   -200     93    212    231 161.3  25.1  34046  287.64 0855.23
2009/04/23 08:50:26.2      68   -159    106    174    203 156.8  34.4  34048  287.67 0855.23
2009/04/23 08:50:26.3      99   -141     82    173    191 145.0  27.1  34046  287.65 0855.23
2009/04/23 08:50:26.4      77   -142     75    162    178 151.5  26.4  34046  287.65 0855.23
2009/04/23 08:50:26.5      86    -99     76    132    152 139.0  32.9  34044  287.62 0855.23
2009/04/23 08:50:26.6      77    -82     79    113    137 136.8  38.6  34046  287.64 0855.23
2009/04/23 08:50:26.7      55   -137     99    148    178 158.1  37.0  34042  287.59 0855.23
2009/04/23 08:50:26.8      43   -129    110    137    175 161.3  43.0  34046  287.64 0855.23
2009/04/23 08:50:26.9      29    -87     92     92    130 161.5  50.1  34048  287.69 0855.23
2009/04/23 08:50:27.0      31    -65     98     73    122 154.5  59.4  34048  287.67 0855.23
2009/04/23 08:50:27.1      76    -61    100     98    140 128.6  50.1  34046  287.64 0855.23
2009/04/23 08:50:27.2      13    -39     88     42     97 161.5  72.9  34048  287.69 0855.23
2009/04/23 08:50:27.3      70    -14     92     72    116 101.5  57.5  34048  287.67 0855.23
2009/04/23 08:50:27.4      -1      6     67      7     67 350.3  90.0  34048  287.67 0855.24
2009/04/23 08:50:27.5     -17     17     51     25     56 315.0  72.8  34050  287.70 0855.24
2009/04/23 08:50:27.6      23     -7     54     25     59 108.4  74.0  34048  287.69 0855.24
2009/04/23 08:50:27.7       0    -40     39     41     56 180.9  50.0  34048  287.67 0855.24
2009/04/23 08:50:27.8     -16    -47     28     50     57 198.7  32.4  34048  287.67 0855.24
2009/04/23 08:50:27.9     -14    -31    -11     35     36 205.3 -23.8  34046  287.65 0855.24
2009/04/23 08:50:28.0     -25      1     -9     26     27 274.4 -23.6  34046  287.64 0855.24
2009/04/23 08:50:28.1     -52      6     -2     53     54 277.0  -2.2  34048  287.67 0855.24
2009/04/23 08:50:28.2     -15      0     28     16     32 270.0  66.8  34048  287.69 0855.24
2009/04/23 08:50:28.3     -50     16     31     53     61 287.7  33.5  34048  287.69 0855.24
2009/04/23 08:50:28.4     -48     46     33     67     74 314.0  27.3  34048  287.69 0855.24
2009/04/23 08:50:28.5      -3     47     63     48     79 355.5  59.0  34048  287.67 0855.24
2009/04/23 08:50:28.6     -25      8     93     27     96 288.6  82.8  34048  287.69 0855.24
2009/04/23 08:50:28.7     -54     24     61     60     85 294.4  49.7  34054  287.77 0855.24
2009/04/23 08:50:28.8     -60     17     74     63     97 285.9  55.4  34048  287.67 0855.24
2009/04/23 08:50:28.9      30    -31     32     44     54 135.9  39.7  34046  287.65 0855.24
2009/04/23 08:50:29.0     -51   -133     66    143    157 200.9  26.4  34044  287.62 0855.24
2009/04/23 08:50:29.1     -66   -200     60    211    220 198.5  16.0  34044  287.60 0855.24
2009/04/23 08:50:29.2     -32   -229    170    232    287 188.0  39.7  34046  287.63 0855.24
2009/04/23 08:50:29.3     -28   -163    164    166    233 190.0  50.0  34046  287.65 0855.24
2009/04/23 08:50:29.4     -15   -193    158    194    250 184.5  43.7  34048  287.66 0855.26
2009/04/23 08:50:29.5      84   -206    186    223    290 157.7  43.8  34044  287.61 0855.26
2009/04/23 08:50:29.6     -15   -203    208    204    291 184.2  50.2  34044  287.61 0855.26
2009/04/23 08:50:29.7      81   -230    170    244    297 160.6  38.5  34046  287.65 0855.26
2009/04/23 08:50:29.8      81   -243    158    257    301 161.5  34.5  34046  287.65 0855.26
2009/04/23 08:50:29.9      90   -247    140    263    297 160.0  30.3  34046  287.65 0855.26
2009/04/23 08:50:30.0      41   -240    113    244    268 170.2  27.0  34046  287.63 0855.26
2009/04/23 08:50:30.1     -21   -279     79    280    291 184.5  15.8  34046  287.63 0855.26
2009/04/23 08:50:30.2      15   -297     18    298    299 177.1   3.6  34046  287.63 0855.26
2009/04/23 08:50:30.3      39   -287     62    290    297 172.2  12.2  34046  287.65 0855.26
2009/04/23 08:50:30.4       6   -269    103    270    288 178.6  21.7  34048  287.66 0855.26
2009/04/23 08:50:30.5      98   -306    136    322    349 162.2  24.3  34048  287.66 0855.26
2009/04/23 08:50:30.6     178   -420    123    457    474 157.0  15.1  34042  287.56 0855.26
2009/04/23 08:50:30.7     221   -412    107    468    481 151.7  12.9  34042  287.59 0855.26
2009/04/23 08:50:30.8      65   -306    182    313    362 168.0  32.8  34044  287.61 0855.26
2009/04/23 08:50:30.9       5   -285     62    286    293 178.9  12.4  34044  287.60 0855.26
2009/04/23 08:50:31.0      36   -255      8    258    259 171.8   1.8  34046  287.65 0855.26
2009/04/23 08:50:31.1      30   -298    -16    300    301 174.2  -3.1  34046  287.63 0855.26
2009/04/23 08:50:31.2      12   -329    -77    330    339 177.9 -13.2  34048  287.69 0855.26
2009/04/23 08:50:31.3      22   -254    -66    256    265 174.9 -14.5  34046  287.63 0855.26
2009/04/23 08:50:31.4     -23   -402    -29    403    405 183.4  -4.2  34042  287.57 0855.26
2009/04/23 08:50:31.5    -102   -263    -81    283    295 201.2 -16.0  34036  287.48 0855.26
2009/04/23 08:50:31.6    -145   -291     30    326    328 206.5   5.4  34044  287.60 0855.26
2009/04/23 08:50:31.7    -170   -333     -7    374    375 207.1  -1.2  34044  287.61 0855.26
2009/04/23 08:50:31.8    -115   -331    -69    351    358 199.2 -11.2  34046  287.64 0855.26
2009/04/23 08:50:31.9     -97   -293    -79    309    320 198.3 -14.4  34042  287.56 0855.26
2009/04/23 08:50:32.0       0   -238    -75    239    250 180.0 -22.8  34040  287.55 0855.26
2009/04/23 08:50:32.1       0   -204    -58    205    214 180.2 -15.8  34038  287.50 0855.26
2009/04/23 08:50:32.2      79   -248     53    261    267 162.2  11.6  34044  287.60 0855.26
2009/04/23 08:50:32.3      80   -147    179    168    245 151.3  52.2  34042  287.57 0855.26
2009/04/23 08:50:32.4     224   -149    167    270    317 123.7  34.6  34040  287.55 0855.26
2009/04/23 08:50:32.5     130   -204    151    243    286 147.5  35.0  34038  287.51 0855.26
2009/04/23 08:50:32.6     163   -215    136    271    303 142.8  28.5  34040  287.55 0855.26
2009/04/23 08:50:32.7     250   -368     28    445    446 145.8   3.6  34040  287.53 0855.26
2009/04/23 08:50:32.8     191   -410     30    453    455 155.1   3.8  34040  287.55 0855.26
2009/04/23 08:50:32.9     232   -386      3    451    452 149.0   0.5  34034  287.45 0855.26
2009/04/23 08:50:33.0     235   -304    107    385    400 142.3  15.6  34038  287.52 0855.26
2009/04/23 08:50:33.1     206   -298    111    363    380 145.3  17.1  34044  287.62 0855.26
2009/04/23 08:50:33.2     212   -316    133    381    404 146.2  19.3  34038  287.52 0855.26
2009/04/23 08:50:33.3      48   -254     94    259    275 169.3  20.9  34038  287.51 0855.26
2009/04/23 08:50:33.4     220   -220    -36    312    315 134.9  -6.7  34040  287.55 0855.28
2009/04/23 08:50:33.5     211   -239     18    319    320 138.6   3.3  34042  287.56 0855.28
2009/04/23 08:50:33.6     214   -356     21    416    417 149.0   3.0  34038  287.52 0855.28
2009/04/23 08:50:33.7     191   -371     65    418    424 152.7   8.9  34042  287.57 0855.28
2009/04/23 08:50:33.8     204   -336     47    394    397 148.7   6.8  34040  287.54 0855.28
2009/04/23 08:50:33.9     197   -321     49    377    381 148.5   7.5  34040  287.54 0855.28
2009/04/23 08:50:34.0      67   -321     24    329    330 168.1   4.2  34044  287.61 0855.28
2009/04/23 08:50:34.1      52   -259     -5    265    266 168.5  -1.2  34042  287.56 0855.28
2009/04/23 08:50:34.2      15   -198     29    199    202 175.5   8.5  34040  287.54 0855.28
2009/04/23 08:50:34.3      63   -161    109    173    204 158.6  35.5  34040  287.54 0855.28
2009/04/23 08:50:34.4     187   -135    101    231    252 125.9  25.1  34038  287.50 0855.28
2009/04/23 08:50:34.5     260   -208    207    334    392 128.7  34.5  34038  287.51 0855.28
2009/04/23 08:50:34.6      93   -214    262    234    351 156.6  53.7  34036  287.46 0855.28
2009/04/23 08:50:34.7     301   -217    134    372    395 125.9  20.7  34040  287.54 0855.28
2009/04/23 08:50:34.8     303   -111     21    323    324 110.2   3.7  34042  287.56 0855.28
2009/04/23 08:50:34.9     288   -135    -41    319    322 115.2  -7.4  34038  287.51 0855.28
2009/04/23 08:50:35.0     101   -230   -106    252    273 156.3 -28.6  34040  287.53 0855.28
2009/04/23 08:50:35.1      92   -161     40    186    191 150.1  12.2  34040  287.55 0855.28
2009/04/23 08:50:35.2     167   -155     73    228    240 132.9  17.9  34040  287.55 0855.28
2009/04/23 08:50:35.3     200   -190     97    277    293 133.6  20.0  34038  287.51 0855.28
2009/04/23 08:50:35.4     208   -249     12    325    326 140.1   2.2  34036  287.46 0855.28
2009/04/23 08:50:35.5      91   -320     51    333    337 164.0   8.8  34036  287.49 0855.28
2009/04/23 08:50:35.6     106   -378     17    393    394 164.2   2.5  34040  287.54 0855.28
2009/04/23 08:50:35.7      77   -241    -23    254    256 162.2  -5.2  34040  287.55 0855.28
2009/04/23 08:50:35.8      83   -198    -22    215    217 157.3  -6.0  34038  287.52 0855.28
2009/04/23 08:50:35.9     108   -196    -38    224    228 151.1  -9.8  34038  287.52 0855.28
2009/04/23 08:50:36.0     129   -325      4    350    351 158.3   0.7  34038  287.52 0855.28
2009/04/23 08:50:36.1     164   -288     24    332    333 150.4   4.2  34038  287.52 0855.28
2009/04/23 08:50:36.2     212   -317     29    382    384 146.2   4.5  34038  287.51 0855.28
2009/04/23 08:50:36.3     147   -266     -6    305    306 151.0  -1.2  34040  287.53 0855.28
2009/04/23 08:50:36.4     104   -252    -77    273    284 157.5 -15.8  34038  287.51 0855.28
2009/04/23 08:50:36.5      96   -149    -72    178    192 147.0 -27.5  34036  287.47 0855.28
2009/04/23 08:50:36.6     106   -106    -66    151    164 134.9 -29.5  34040  287.54 0855.28
2009/04/23 08:50:36.7     110    -89    -49    142    150 129.1 -23.3  34040  287.55 0855.28
2009/04/23 08:50:36.8     130    -56    -12    142    143 113.5  -5.2  34038  287.50 0855.28
2009/04/23 08:50:36.9      88    -56     67    105    124 122.9  35.6  34038  287.52 0855.28
2009/04/23 08:50:37.0     137    -32      1    141    142 103.2   0.7  34040  287.55 0855.28
2009/04/23 08:50:37.1      91      7     20     92     95  85.6  12.2  34040  287.54 0855.28
2009/04/23 08:50:37.2     120    -58     47    134    143 115.8  19.4  34042  287.57 0855.28
2009/04/23 08:50:37.3     128   -114     93    172    195 131.6  30.8  34038  287.50 0855.27
2009/04/23 08:50:37.4     138    -92    -30    167    170 123.7 -10.3  34036  287.49 0855.27
2009/04/23 08:50:37.5      80   -148    -58    169    178 151.7 -23.8  34040  287.54 0855.27
2009/04/23 08:50:37.6     136   -148    -25    202    204 137.5  -7.2  34038  287.50 0855.27
2009/04/23 08:50:37.7      83   -198    -36    215    219 157.3  -9.6  34040  287.54 0855.27
2009/04/23 08:50:37.8      36   -213     -4    217    218 170.2  -1.3  34040  287.55 0855.27
2009/04/23 08:50:37.9      70   -154    -20    170    172 155.7  -6.9  34036  287.49 0855.27
2009/04/23 08:50:38.0       7   -112     16    113    115 176.0   8.5  34038  287.52 0855.27
2009/04/23 08:50:38.1     -38    -73      4     83     84 207.6   2.9  34040  287.55 0855.27
2009/04/23 08:50:38.2     -32    -84      2     90     91 200.9   1.8  34040  287.54 0855.27
2009/04/23 08:50:38.3     -44    -41    -38     61     71 226.9 -39.9  34042  287.59 0855.27
2009/04/23 08:50:38.4    -135     -8    -37    136    142 266.5 -15.4  34042  287.57 0855.27
2009/04/23 08:50:38.5    -149    -10    -49    150    157 266.1 -23.0  34040  287.54 0855.27
2009/04/23 08:50:38.6    -158    -12    -12    159    160 265.7  -4.4  34040  287.55 0855.27
2009/04/23 08:50:38.7     -97    -33    -31    103    107 250.9 -22.3  34042  287.57 0855.27
2009/04/23 08:50:38.8       0    -41    -22     42     47 180.9 -34.7  34040  287.55 0855.27
2009/04/23 08:50:38.9     -22    -92     77     95    122 193.4  43.7  34038  287.52 0855.27
2009/04/23 08:50:39.0     -31    -77     70     84    109 202.3  43.8  34042  287.57 0855.27
2009/04/23 08:50:39.1      40    -54     42     68     79 143.9  35.0  34044  287.60 0855.27
2009/04/23 08:50:39.2      10    -81      0     82     83 172.4  -0.3  34042  287.57 0855.27
2009/04/23 08:50:39.3      42    -31     -8     53     54 126.0  -9.3  34044  287.60 0855.26
2009/04/23 08:50:39.4      28      0    -37     29     47  90.0 -61.9  34042  287.59 0855.26
2009/04/23 08:50:39.5      15    -57    -18     60     62 164.9 -21.7  34042  287.57 0855.26
2009/04/23 08:50:39.6      50      3    -17     51     53  85.7 -23.6  34044  287.60 0855.26
2009/04/23 08:50:39.7      58     -4    -30     59     66  94.4 -33.7  34044  287.60 0855.26
2009/04/23 08:50:39.8      51    -47    -51     70     86 133.2 -44.1  34044  287.60 0855.26
2009/04/23 08:50:39.9      47    -88    -42    100    108 151.9 -28.5  34044  287.60 0855.26
2009/04/23 08:50:40.0      31    -79    -56     86    102 158.2 -40.4  34044  287.60 0855.26
2009/04/23 08:50:40.1      32    -64    -55     72     90 152.8 -46.1  34044  287.60 0855.26
2009/04/23 08:50:40.2      26    -46    -53     54     75 150.1 -55.5  34040  287.55 0855.26
2009/04/23 08:50:40.3      33    -45    -29     56     63 143.9 -33.7  34042  287.59 0855.26
2009/04/23 08:50:40.4     -11    -34    -31     36     47 198.7 -50.2  34042  287.57 0855.26
2009/04/23 08:50:40.5     -29    -34    -22     45     50 220.5 -31.7  34044  287.62 0855.26
2009/04/23 08:50:40.6     -61    -56      9     84     85 227.3   6.5  34044  287.62 0855.26
2009/04/23 08:50:40.7     -51   -107      6    119    120 205.5   3.3  34044  287.60 0855.26
2009/04/23 08:50:40.8     -33   -141     12    145    146 193.3   4.9  34044  287.60 0855.26
2009/04/23 08:50:40.9     -36   -152     -4    157    158 193.3  -1.6  34042  287.59 0855.26
2009/04/23 08:50:41.0     -14   -186      3    187    188 184.5   1.2  34044  287.62 0855.26
2009/04/23 08:50:41.1      87   -203     45    221    226 156.8  11.6  34044  287.62 0855.26
2009/04/23 08:50:41.2      30   -225    -12    228    229 172.2  -3.1  34046  287.64 0855.26
2009/04/23 08:50:41.3     -53   -242     25    248    250 192.5   5.9  34042  287.58 0855.26
2009/04/23 08:50:41.4     -47   -218      7    224    225 192.3   1.8  34042  287.59 0855.26
2009/04/23 08:50:41.5      18   -242      5    243    244 175.6   1.2  34046  287.63 0855.26
2009/04/23 08:50:41.6       0   -227     -8    228    229 180.0  -2.2  34040  287.55 0855.26
2009/04/23 08:50:41.7      54   -248    140    254    290 167.6  31.4  34044  287.60 0855.26
2009/04/23 08:50:41.8      54   -250    192    256    320 167.6  40.6  34044  287.60 0855.26
2009/04/23 08:50:41.9      17   -220    189    221    290 175.5  44.9  34044  287.61 0855.26
2009/04/23 08:50:42.0      -5   -263    149    264    303 181.1  31.9  34046  287.65 0855.26
2009/04/23 08:50:42.1      19   -311     72    312    321 176.4  13.1  34040  287.55 0855.26
2009/04/23 08:50:42.2      -9   -337    143    338    367 181.6  24.3  34042  287.59 0855.26
2009/04/23 08:50:42.3     -91   -391    140    402    426 193.1  19.3  34044  287.60 0855.26
2009/04/23 08:50:42.4      14   -358    238    359    430 177.7  36.6  34046  287.63 0855.26
2009/04/23 08:50:42.5     -77   -365    185    374    417 191.9  28.2  34044  287.62 0855.26
2009/04/23 08:50:42.6     -24   -283     61    285    292 184.9  12.1  34040  287.53 0855.26
2009/04/23 08:50:42.7       5   -295     80    296    307 179.0  15.3  34044  287.60 0855.26
2009/04/23 08:50:42.8     -15   -437    149    438    463 182.0  18.8  34046  287.65 0855.26
2009/04/23 08:50:42.9     -28   -377    149    378    406 184.4  22.7  34048  287.69 0855.26
2009/04/23 08:50:43.0     -29   -316     63    318    325 185.3  11.3  34042  287.58 0855.26
2009/04/23 08:50:43.1     -63   -345     90    351    363 190.5  14.5  34044  287.62 0855.26
2009/04/23 08:50:43.2     -81   -253    176    266    318 197.9  36.7  34048  287.66 0855.26
2009/04/23 08:50:43.3     -48   -204    177    210    274 193.3  44.5  34046  287.65 0855.25
2009/04/23 08:50:43.4     -48   -183    203    190    278 194.9  52.1  34048  287.66 0855.25
2009/04/23 08:50:43.5      -1   -166    179    167    244 180.5  52.2  34046  287.65 0855.25
2009/04/23 08:50:43.6     -17   -147    170    149    226 186.7  54.3  34046  287.64 0855.25
2009/04/23 08:50:43.7      14     -1    123     15    123  94.3  90.0  34046  287.64 0855.25
2009/04/23 08:50:43.8      93   -120     95    152    179 142.2  35.2  34044  287.60 0855.25
2009/04/23 08:50:43.9      65   -112     68    130    146 149.7  29.3  34046  287.65 0855.25
2009/04/23 08:50:44.0      24   -122     44    125    133 168.9  19.4  34044  287.62 0855.25
2009/04/23 08:50:44.1       4   -138     14    139    140 178.2   5.9  34048  287.67 0855.25
2009/04/23 08:50:44.2       5   -131     -5    132    133 177.4  -2.2  34046  287.64 0855.25
2009/04/23 08:50:44.3       0   -151     13    152    153 180.0   5.0  34044  287.62 0855.25
2009/04/23 08:50:44.4     -15   -187    -10    188    189 184.7  -3.2  34046  287.64 0855.25
2009/04/23 08:50:44.5     -27   -182    -14    185    186 188.5  -4.6  34044  287.62 0855.25
2009/04/23 08:50:44.6      89   -224     60    242    250 158.2  13.9  34046  287.63 0855.25
2009/04/23 08:50:44.7      34   -313    118    315    336 173.7  21.5  34044  287.62 0855.25
2009/04/23 08:50:44.8      43   -253     -3    257    258 170.2  -0.7  34044  287.61 0855.25
2009/04/23 08:50:44.9    -106   -317    -13    335    336 198.5  -2.2  34042  287.59 0855.25
2009/04/23 08:50:45.0     -45   -317    123    321    343 188.1  22.2  34048  287.66 0855.25
2009/04/23 08:50:45.1      23   -273    158    275    317 175.1  32.6  34046  287.63 0855.25
2009/04/23 08:50:45.2     -30   -405     49    407    410 184.3   6.9  34046  287.65 0855.25
2009/04/23 08:50:45.3       9   -431    144    432    456 178.8  18.5  34046  287.63 0855.25
2009/04/23 08:50:45.4     119   -501    188    516    549 166.6  21.0  34046  287.65 0855.25
2009/04/23 08:50:45.5       4   -577     59    578    582 179.5   5.9  34046  287.63 0855.25
2009/04/23 08:50:45.6      69   -443     71    449    455 171.1   9.0  34048  287.67 0855.25
2009/04/23 08:50:45.7      10   -511     63    512    516 178.8   7.1  34044  287.61 0855.25
2009/04/23 08:50:45.8     -18   -486      9    487    488 182.2   1.1  34042  287.59 0855.25
2009/04/23 08:50:45.9      17   -541     91    542    550 178.1   9.6  34040  287.55 0855.25
2009/04/23 08:50:46.0      36   -598    179    600    627 176.5  16.6  34044  287.62 0855.25
2009/04/23 08:50:46.1      30   -574     96    575    583 177.0   9.5  34046  287.65 0855.25
2009/04/23 08:50:46.2      52   -517     99    520    530 174.2  10.8  34046  287.65 0855.25
2009/04/23 08:50:46.3      93   -546     83    554    561 170.3   8.6  34046  287.64 0855.26
2009/04/23 08:50:46.4     146   -619    135    636    651 166.7  12.0  34050  287.71 0855.26
2009/04/23 08:50:46.5     142   -575    174    593    619 166.1  16.4  34048  287.68 0855.26
2009/04/23 08:50:46.6     193   -598    211    629    664 162.1  18.6  34048  287.66 0855.26
2009/04/23 08:50:46.7     216   -566    171    607    631 159.1  15.8  34052  287.76 0855.26
2009/04/23 08:50:46.8     246   -555    220    608    647 156.1  19.9  34044  287.61 0855.26
2009/04/23 08:50:46.9     169   -437    154    469    494 158.8  18.2  34050  287.71 0855.26
2009/04/23 08:50:47.0     148   -377    144    406    430 158.5  20.3  34048  287.67 0855.26
2009/04/23 08:50:47.1     172   -365    160    404    434 154.7  22.9  34048  287.68 0855.26
2009/04/23 08:50:47.2     153   -436    166    463    491 160.6  20.4  34048  287.66 0855.26
2009/04/23 08:50:47.3     191   -356    255    405    478 151.7  35.3  34050  287.70 0855.26
2009/04/23 08:50:47.4     102   -319    191    336    386 162.2  32.1  34048  287.69 0855.26
2009/04/23 08:50:47.5      69   -363    148    370    398 169.1  23.0  34048  287.66 0855.26
2009/04/23 08:50:47.6      53   -324    224    329    398 170.6  37.6  34048  287.66 0855.26
2009/04/23 08:50:47.7      59   -331    234    337    410 169.8  38.3  34050  287.72 0855.26
2009/04/23 08:50:47.8     110   -377    254    393    467 163.6  35.9  34054  287.77 0855.26
2009/04/23 08:50:47.9     153   -398    272    427    506 159.0  35.5  34052  287.76 0855.26
2009/04/23 08:50:48.0     179   -331    293    377    477 151.6  41.7  34048  287.68 0855.26
2009/04/23 08:50:48.1     230   -487    232    539    586 154.7  24.8  34052  287.75 0855.26
2009/04/23 08:50:48.2     249   -399    128    471    489 148.0  15.3  34048  287.68 0855.26
2009/04/23 08:50:48.3     266   -259    199    372    421 134.2  30.3  34052  287.73 0855.26
2009/04/23 08:50:48.4     247   -337    207    419    467 143.7  28.2  34050  287.72 0855.26
2009/04/23 08:50:48.5     260   -398    236    476    531 146.8  28.2  34050  287.71 0855.26
2009/04/23 08:50:48.6     199   -368    197    419    463 151.6  27.1  34054  287.79 0855.26
2009/04/23 08:50:48.7     212   -393    124    447    465 151.6  15.6  34056  287.82 0855.26
2009/04/23 08:50:48.8     184   -341    129    388    410 151.6  18.5  34056  287.80 0855.26
2009/04/23 08:50:48.9     173   -322    171    366    403 151.8  27.0  34054  287.79 0855.26
2009/04/23 08:50:49.0     189   -328    131    379    402 150.0  19.1  34056  287.81 0855.26
2009/04/23 08:50:49.1     205   -305    130    368    391 146.1  19.5  34054  287.78 0855.26
2009/04/23 08:50:49.2     343   -396    146    524    545 139.1  15.6  34054  287.77 0855.26
2009/04/23 08:50:49.3     337   -357    195    492    529 136.7  23.0  34054  287.78 0855.26
2009/04/23 08:50:49.4     259   -260    196    368    416 135.1  30.3  34054  287.78 0855.26
2009/04/23 08:50:49.5     288   -290    104    409    423 135.2  14.3  34056  287.80 0855.26
2009/04/23 08:50:49.6     296   -324    156    439    465 137.6  20.2  34054  287.77 0855.26
2009/04/23 08:50:49.7     236   -313    139    393    417 143.0  19.5  34054  287.79 0855.26
2009/04/23 08:50:49.8     271   -264     80    379    388 134.2  12.0  34054  287.79 0855.26
2009/04/23 08:50:49.9     237   -302    136    384    407 141.9  20.1  34054  287.79 0855.26
2009/04/23 08:50:50.0     259   -210    176    334    377 129.1  30.1  34058  287.86 0855.26
2009/04/23 08:50:50.1     300   -301    214    425    475 135.1  28.7  34056  287.80 0855.26
2009/04/23 08:50:50.2     267   -321    221    418    472 140.2  30.1  34054  287.79 0855.26
2009/04/23 08:50:50.3     252   -316    206    405    454 141.5  29.2  34058  287.84 0855.25
2009/04/23 08:50:50.4     273   -371    147    461    484 143.6  17.7  34052  287.76 0855.25
2009/04/23 08:50:50.6     183   -372    178    415    451 153.7  24.8  34046  287.63 0855.25
2009/04/23 08:50:50.7     230   -349    159    419    448 146.6  21.8  34054  287.79 0855.25
2009/04/23 08:50:50.8     194   -458    297    498    579 157.0  33.6  34054  287.77 0855.25
2009/04/23 08:50:50.9     170   -360    175    399    435 154.7  25.2  34052  287.75 0855.25
2009/04/23 08:50:51.0     114   -339    312    358    474 161.3  45.6  34054  287.79 0855.25
2009/04/23 08:50:51.1      53   -311    296    316    432 170.3  48.0  34052  287.76 0855.25
2009/04/23 08:50:51.2      41   -379    270    382    467 173.8  38.6  34052  287.75 0855.25
2009/04/23 08:50:51.3     114   -344    250    363    440 161.6  37.8  34054  287.79 0855.25
2009/04/23 08:50:51.4      11   -187    246    188    309 176.4  58.5  34054  287.77 0855.25
2009/04/23 08:50:51.5     171     -5    153    172    230  91.9  46.2  34046  287.64 0855.25
2009/04/23 08:50:51.6     163    -66    119    177    213 112.2  37.0  34052  287.76 0855.25
2009/04/23 08:50:51.7     122   -155     68    198    210 141.9  18.9  34046  287.64 0855.25
2009/04/23 08:50:51.8     284   -233    128    368    390 129.3  19.2  34048  287.69 0855.25
2009/04/23 08:50:51.9     289   -194     83    349    359 123.9  13.5  34050  287.72 0855.25
2009/04/23 08:50:52.0     141   -117    107    184    212 129.8  33.1  34050  287.72 0855.25
2009/04/23 08:50:52.1      31    -92    107     98    145 161.3  52.2  34052  287.74 0855.25
2009/04/23 08:50:52.2      -3   -221     56    222    230 181.0  14.3  34052  287.76 0855.25
2009/04/23 08:50:52.3      -6   -283     33    284    286 181.4   6.7  34050  287.71 0855.25
2009/04/23 08:50:52.4      91   -270    -88    286    299 161.3 -22.1  34054  287.77 0855.24
2009/04/23 08:50:52.5       6   -442     37    443    445 179.1   4.9  34044  287.60 0855.24
2009/04/23 08:50:52.6      31   -279    -95    281    297 173.5 -18.7  34042  287.58 0855.24
2009/04/23 08:50:52.7     137   -461    -60    482    486 163.4  -7.2  34052  287.73 0855.24
2009/04/23 08:50:52.8     157   -426     60    455    459 159.8   7.6  34052  287.73 0855.24
2009/04/23 08:50:52.9     152   -446    -28    472    473 161.1  -3.5  34056  287.81 0855.24
2009/04/23 08:50:53.0     161   -433    -52    463    466 159.6  -6.5  34042  287.58 0855.24
2009/04/23 08:50:53.1     337   -384   -156    512    536 138.7 -17.0  34046  287.65 0855.24
2009/04/23 08:50:53.2     200   -380     -1    430    431 152.3  -0.3  34048  287.67 0855.24
2009/04/23 08:50:53.3     153   -462     55    487    491 161.6   6.5  34046  287.64 0855.24
2009/04/23 08:50:53.4      99   -407    292    419    510 166.3  38.4  34048  287.66 0855.24
2009/04/23 08:50:53.5     -44   -234    231    239    332 190.7  49.1  34050  287.71 0855.24
2009/04/23 08:50:53.6     175   -162   -117    239    266 132.9 -32.2  34048  287.68 0855.24
2009/04/23 08:50:53.7     128    -81    -53    152    160 122.5 -24.0  34050  287.70 0855.24
2009/04/23 08:50:53.8     128    -58    -65    141    155 114.4 -31.5  34052  287.74 0855.24
2009/04/23 08:50:53.9     187   -109   -121    217    248 120.4 -36.0  34046  287.65 0855.24
2009/04/23 08:50:54.0     164   -215     18    271    272 142.6   3.9  34038  287.51 0855.24
2009/04/23 08:50:54.1     126   -119    111    174    206 133.6  35.5  34048  287.69 0855.24
2009/04/23 08:50:54.2      50    -28    133     58    145 119.8  75.0  34052  287.74 0855.24
2009/04/23 08:50:54.3      63    -47    140     79    160 126.9  68.3  34052  287.74 0855.24
2009/04/23 08:50:54.4     125   -103    159    162    226 129.5  49.8  34052  287.74 0855.23
2009/04/23 08:50:54.5      56   -160    167    170    238 160.4  49.8  34048  287.67 0855.23
2009/04/23 08:50:54.6      49   -371    284    375    470 172.4  40.9  34052  287.73 0855.23
2009/04/23 08:50:54.7      -4   -309    293    310    426 180.9  48.2  34052  287.74 0855.23
2009/04/23 08:50:54.8    -144   -386    146    413    438 200.5  20.1  34046  287.63 0855.23
2009/04/23 08:50:54.9     -98   -344    131    358    381 196.0  20.9  34052  287.76 0855.23
2009/04/23 08:50:55.0     -99   -314     50    330    334 197.6   8.7  34052  287.74 0855.23
2009/04/23 08:50:55.1    -121   -283   -140    308    338 203.2 -30.6  34052  287.76 0855.23
2009/04/23 08:50:55.2    -264   -453    -46    525    528 210.3  -5.1  34046  287.64 0855.23
2009/04/23 08:50:55.3    -221   -269     47    349    353 219.3   7.8  34048  287.67 0855.23
2009/04/23 08:50:55.4    -177   -152     55    234    241 229.3  13.2  34050  287.71 0855.23
2009/04/23 08:50:55.5    -217   -294    -34    366    368 216.5  -5.4  34044  287.62 0855.23
2009/04/23 08:50:55.6    -250   -195    -23    318    319 232.0  -4.2  34050  287.71 0855.23
2009/04/23 08:50:55.7    -206   -277     53    346    351 216.7   8.8  34042  287.59 0855.23
2009/04/23 08:50:55.8    -173   -178     76    249    261 224.3  17.1  34048  287.68 0855.23
2009/04/23 08:50:55.9    -144   -295    -93    329    343 206.1 -15.9  34044  287.62 0855.23
2009/04/23 08:50:56.0    -202   -222   -140    301    331 222.3 -31.0  34054  287.77 0855.23
2009/04/23 08:50:56.1    -117   -213   -101    244    264 208.9 -28.0  34048  287.66 0855.23
2009/04/23 08:50:56.2     -35    -93     35    100    107 200.9  19.4  34048  287.69 0855.23
2009/04/23 08:50:56.3     -66   -108    -90    127    155 211.6 -43.5  34048  287.69 0855.23
2009/04/23 08:50:56.4    -135    -86   -136    161    210 237.6 -48.7  34050  287.72 0855.23
2009/04/23 08:50:56.5    -131   -152   -154    202    254 220.8 -45.6  34052  287.73 0855.23
2009/04/23 08:50:56.6      23   -212    -61    214    222 173.8 -20.4  34040  287.54 0855.23
2009/04/23 08:50:56.7      47   -139    -64    147    160 161.3 -29.3  34048  287.69 0855.23
2009/04/23 08:50:56.8      46    -96    -49    107    117 154.5 -30.6  34052  287.74 0855.23
2009/04/23 08:50:56.9      45    -74    -27     87     91 148.4 -22.8  34050  287.72 0855.23
2009/04/23 08:50:57.0      87    -77   -100    117    153 131.8 -49.2  34052  287.76 0855.23
2009/04/23 08:50:57.1     122   -157    -25    200    202 142.2  -7.3  34048  287.69 0855.23
2009/04/23 08:50:57.2      73   -200    -43    213    218 159.9 -11.5  34042  287.59 0855.23
2009/04/23 08:50:57.3      34   -103     22    109    112 161.7  11.6  34050  287.70 0855.23
2009/04/23 08:50:57.4      -8   -214    -66    215    224 182.2 -22.1  34052  287.74 0855.23
2009/04/23 08:50:57.5      25   -309    -67    311    319 175.3 -12.2  34048  287.66 0855.23
2009/04/23 08:50:57.6      48   -308    -96    312    327 171.1 -17.2  34052  287.75 0855.23
2009/04/23 08:50:57.7      78   -338    -69    347    354 167.0 -11.3  34048  287.69 0855.23
2009/04/23 08:50:57.8      96   -356    -71    369    376 164.8 -11.0  34050  287.72 0855.23
2009/04/23 08:50:57.9     101   -368    -20    382    383 164.6  -3.0  34048  287.67 0855.23
2009/04/23 08:50:58.0      52   -385    -18    389    390 172.2  -2.8  34050  287.71 0855.23
2009/04/23 08:50:58.1      35   -332    -13    334    335 173.9  -2.2  34050  287.72 0855.23
2009/04/23 08:50:58.2      99   -349    -49    363    367 164.1  -7.7  34048  287.67 0855.23
2009/04/23 08:50:58.3      54   -369    -19    373    374 171.7  -3.0  34050  287.72 0855.23
2009/04/23 08:50:58.4      46   -298     -6    302    303 171.1  -1.3  34050  287.70 0855.24
2009/04/23 08:50:58.5      83   -288    -31    300    302 163.9  -6.1  34052  287.73 0855.24
2009/04/23 08:50:58.6      97   -254    -45    273    277 159.0  -9.4  34052  287.75 0855.24
2009/04/23 08:50:58.7     101   -214    -26    237    239 154.6  -6.5  34052  287.75 0855.24
2009/04/23 08:50:58.8     136   -128     23    188    190 133.3   7.2  34054  287.77 0855.24
2009/04/23 08:50:58.9     116    -76     60    139    151 123.3  25.1  34052  287.76 0855.24
2009/04/23 08:50:59.0     216    -46     77    221    235 102.2  19.2  34052  287.76 0855.24
2009/04/23 08:50:59.1     253    -50     82    258    271 101.2  17.7  34052  287.75 0855.24
2009/04/23 08:50:59.2     251   -140     61    288    295 119.1  12.1  34050  287.71 0855.24
2009/04/23 08:50:59.3     257   -161    115    304    325 122.0  21.6  34054  287.77 0855.24
2009/04/23 08:50:59.4     250   -177    164    307    348 125.3  30.5  34054  287.78 0855.24
2009/04/23 08:50:59.5     125   -151    144    197    244 140.4  39.7  34046  287.65 0855.24
2009/04/23 08:50:59.6     103   -205    105    230    252 153.3  26.2  34050  287.70 0855.24
2009/04/23 08:50:59.7     100   -110    115    149    188 137.7  41.7  34050  287.72 0855.24
2009/04/23 08:50:59.8      65   -167     97    180    204 158.6  30.8  34052  287.76 0855.24
2009/04/23 08:50:59.9     133   -129    109    186    215 134.0  33.1  34052  287.76 0855.24
2009/04/23 08:51:00.0      91   -105    122    140    185 139.0  45.6  34052  287.76 0855.24
2009/04/23 08:51:00.1      68   -112    113    132    173 148.8  45.1  34054  287.77 0855.24
2009/04/23 08:51:00.2     -14   -177     98    178    203 184.7  31.4  34054  287.77 0855.24
2009/04/23 08:51:00.3      -4   -177    111    178    209 181.4  35.2  34052  287.74 0855.24
2009/04/23 08:51:00.4      -9   -181    106    182    210 182.9  33.1  34054  287.77 0855.24
2009/04/23 08:51:00.5       5   -198    123    199    233 178.4  35.2  34052  287.76 0855.24
2009/04/23 08:51:00.6      10   -188    129    189    228 176.9  37.6  34052  287.74 0855.24
2009/04/23 08:51:00.7       0   -200    123    201    235 180.0  34.4  34052  287.74 0855.24
2009/04/23 08:51:00.8      16   -218    130    219    254 175.8  33.5  34054  287.77 0855.24
2009/04/23 08:51:00.9      14   -183    147    184    235 175.5  42.7  34052  287.74 0855.24
2009/04/23 08:51:01.0      28   -205    131    208    245 172.0  35.5  34054  287.77 0855.24
2009/04/23 08:51:01.1      23   -187    118    189    222 172.9  35.5  34050  287.70 0855.24
2009/04/23 08:51:01.2       3   -185    127    186    225 179.0  37.6  34050  287.70 0855.24
2009/04/23 08:51:01.3      -2   -156    129    157    203 181.0  43.7  34048  287.69 0855.24
2009/04/23 08:51:01.4       3   -171    132    172    216 178.9  41.4  34052  287.76 0855.24
2009/04/23 08:51:01.5      -7   -177    148    178    231 182.5  43.8  34052  287.74 0855.24
2009/04/23 08:51:01.6     -24   -195    169    197    259 187.1  44.9  34056  287.80 0855.24
2009/04/23 08:51:01.7      31   -219    154    222    270 171.8  38.0  34052  287.73 0855.24
2009/04/23 08:51:01.8      12   -159    172    160    234 175.5  52.2  34050  287.72 0855.24
2009/04/23 08:51:01.9      14   -215    107    216    241 176.2  28.2  34052  287.75 0855.24
2009/04/23 08:51:02.0       0   -182    124    183    221 179.8  37.4  34050  287.72 0855.24
2009/04/23 08:51:02.1      38   -241    146    245    285 170.9  33.5  34052  287.75 0855.24
2009/04/23 08:51:02.2       0   -206    130    207    244 179.8  35.5  34054  287.77 0855.24
2009/04/23 08:51:02.3     -28   -230    120    232    261 187.1  29.5  34058  287.85 0855.24
2009/04/23 08:51:02.4     -44   -192    141    198    243 193.1  38.8  34052  287.76 0855.24
2009/04/23 08:51:02.5    -102   -244     91    265    281 202.7  18.9  34056  287.80 0855.24
2009/04/23 08:51:02.6    -159   -255     49    301    306 211.9   9.3  34052  287.75 0855.24
2009/04/23 08:51:02.7     -70   -194    -11    207    208 200.0  -3.2  34052  287.74 0855.24
2009/04/23 08:51:02.8     -30   -146     50    150    159 191.6  18.4  34044  287.60 0855.24
2009/04/23 08:51:02.9      63    -77     40    100    107 140.8  23.0  34050  287.72 0855.24
2009/04/23 08:51:03.0      92    -41     78    101    127 114.0  41.7  34052  287.76 0855.24
2009/04/23 08:51:03.1      70    -33     87     78    116 115.4  53.3  34052  287.74 0855.24
2009/04/23 08:51:03.2     -94    -85    158    127    202 227.8  57.1  34052  287.74 0855.24
2009/04/23 08:51:03.3    -186    -50    104    193    219 254.9  30.8  34048  287.67 0855.24
2009/04/23 08:51:03.4    -184   -125    -17    223    224 235.8  -4.6  34048  287.67 0855.24
2009/04/23 08:51:03.5    -173    -78    -22    190    192 245.6  -6.7  34048  287.69 0855.24
2009/04/23 08:51:03.6    -210   -139    -65    252    261 236.5 -14.5  34048  287.68 0855.24
2009/04/23 08:51:03.7    -155   -145    -72    213    224 226.9 -23.3  34050  287.72 0855.24
2009/04/23 08:51:03.8    -265   -135    -96    298    314 242.9 -17.9  34056  287.80 0855.24
2009/04/23 08:51:03.9    -216   -111   -166    244    295 242.7 -42.0  34054  287.77 0855.24
2009/04/23 08:51:04.0    -111   -160   -140    195    240 214.7 -43.7  34050  287.72 0855.24
2009/04/23 08:51:04.1     -93   -153   -120    180    216 211.4 -41.4  34052  287.76 0855.24
2009/04/23 08:51:04.2    -167   -132    -61    214    222 231.6 -20.4  34048  287.69 0855.24
2009/04/23 08:51:04.3    -146   -160    -66    217    227 222.3 -17.0  34052  287.74 0855.24
2009/04/23 08:51:04.4    -148   -139    -76    204    217 226.9 -25.7  34048  287.67 0855.24
2009/04/23 08:51:04.5    -120   -147    -66    190    201 219.2 -24.0  34050  287.70 0855.24
2009/04/23 08:51:04.6    -102   -102    -62    145    157 225.1 -28.7  34050  287.72 0855.24
2009/04/23 08:51:04.7    -194    -68    -90    206    224 250.5 -29.6  34052  287.76 0855.24
2009/04/23 08:51:04.8    -153     -2    -59    154    164 269.1 -25.9  34048  287.69 0855.24
2009/04/23 08:51:04.9    -150     50    -24    159    161 288.6  -8.6  34040  287.54 0855.24
2009/04/23 08:51:05.0    -116     48    -25    126    129 292.6 -11.3  34046  287.65 0855.24
2009/04/23 08:51:05.1     -62     15     98     64    117 284.2  64.6  34048  287.69 0855.24
2009/04/23 08:51:05.2    -139     -6     88    140    165 267.4  35.5  34050  287.70 0855.24
2009/04/23 08:51:05.3    -101    -20     77    104    129 258.5  40.1  34050  287.70 0855.24
2009/04/23 08:51:05.4     -77     -4     29     78     83 266.5  21.0  34046  287.65 0855.24
2009/04/23 08:51:05.5     -55    -42     81     70    107 232.2  54.8  34050  287.70 0855.24
2009/04/23 08:51:05.6     -66    -84     51    108    119 218.3  27.2  34052  287.76 0855.24
2009/04/23 08:51:05.7     -54   -101    103    115    154 208.5  46.4  34054  287.79 0855.24
2009/04/23 08:51:05.8     -61    -96     61    115    130 212.5  30.3  34056  287.82 0855.24
2009/04/23 08:51:05.9     -57   -136     47    148    156 202.7  17.7  34056  287.82 0855.24
2009/04/23 08:51:06.0     -45   -150     16    157    158 196.9   5.9  34056  287.82 0855.24
2009/04/23 08:51:06.1     -35   -158     18    162    164 192.5   6.5  34056  287.82 0855.24
2009/04/23 08:51:06.2    -108   -160    -38    194    198 214.1 -11.3  34052  287.76 0855.24
2009/04/23 08:51:06.3     -64   -194     63    205    215 198.3  17.1  34052  287.74 0855.22
2009/04/23 08:51:06.4      34   -164     57    168    178 168.2  18.9  34056  287.81 0855.22
2009/04/23 08:51:06.5     110   -197     42    226    230 150.8  10.6  34052  287.76 0855.22
2009/04/23 08:51:06.6     -70   -226     24    237    239 197.2   5.9  34054  287.77 0855.22
2009/04/23 08:51:06.7     -66   -281      2    289    290 193.3   0.5  34054  287.78 0855.22
2009/04/23 08:51:06.8     -48   -221    -76    227    240 192.3 -18.7  34056  287.82 0855.22
2009/04/23 08:51:06.9    -134   -155    -78    206    220 220.8 -25.9  34046  287.64 0855.22
2009/04/23 08:51:07.0     -76   -264    -37    275    278 196.1  -7.7  34056  287.80 0855.22
2009/04/23 08:51:07.1     -28   -311    -36    313    316 185.3  -6.6  34052  287.73 0855.22
2009/04/23 08:51:07.2     -31   -291     -6    293    294 186.3  -1.3  34052  287.73 0855.22
2009/04/23 08:51:07.3     -54   -264     26    270    272 191.6   5.7  34052  287.75 0855.20
2009/04/23 08:51:07.4     -97   -247    -22    266    268 201.6  -4.9  34060  287.88 0855.20
2009/04/23 08:51:07.5    -163   -209    -18    266    267 217.9  -3.9  34060  287.87 0855.20
2009/04/23 08:51:07.6    -114   -232     31    259    261 206.3   6.9  34054  287.77 0855.20
2009/04/23 08:51:07.7    -102   -216     22    239    241 205.3   5.4  34054  287.78 0855.20
2009/04/23 08:51:07.8    -120   -254      4    282    283 205.3   0.8  34052  287.75 0855.20
2009/04/23 08:51:07.9    -255    -96    -62    273    281 249.2 -12.9  34054  287.77 0855.20
2009/04/23 08:51:08.0    -273    -13    -92    274    290 267.2 -18.7  34064  287.93 0855.20
2009/04/23 08:51:08.1    -243   -124    -50    274    279 242.9 -10.4  34058  287.85 0855.20
2009/04/23 08:51:08.2    -119   -110     48    163    171 227.1  16.6  34056  287.81 0855.20
2009/04/23 08:51:08.3    -122   -212     76    245    257 209.9  17.3  34054  287.78 0855.20
2009/04/23 08:51:08.4     -58   -321     18    327    328 190.3   3.2  34056  287.82 0855.20
2009/04/23 08:51:08.5    -127   -292     65    319    326 203.5  11.6  34054  287.78 0855.20
2009/04/23 08:51:08.6     -59   -192    109    202    229 197.2  30.8  34054  287.77 0855.20
2009/04/23 08:51:08.7     -93   -201     98    222    242 204.9  25.2  34054  287.78 0855.20
2009/04/23 08:51:08.8    -147   -195     41    245    249 217.0   9.5  34056  287.82 0855.20
2009/04/23 08:51:08.9    -130   -112     -3    172    173 229.3  -1.1  34054  287.79 0855.20
2009/04/23 08:51:09.0     -41   -155    123    161    202 195.1  41.4  34058  287.86 0855.20
2009/04/23 08:51:09.1     -53   -160    110    169    201 198.5  35.7  34056  287.82 0855.20
2009/04/23 08:51:09.2     -48   -190    136    197    239 194.3  38.0  34058  287.86 0855.20
2009/04/23 08:51:09.3     -39   -207    116    211    240 190.9  31.3  34056  287.81 0855.20
2009/04/23 08:51:09.4     -62   -247    146    255    293 194.3  32.4  34052  287.73 0855.20
2009/04/23 08:51:09.5    -202   -229     29    306    308 221.5   5.4  34054  287.77 0855.20
2009/04/23 08:51:09.6    -181   -234     59    296    302 217.8  11.4  34052  287.73 0855.20
2009/04/23 08:51:09.7    -194   -238     34    308    310 219.2   6.5  34054  287.78 0855.20
2009/04/23 08:51:09.8    -123   -205     51    240    246 211.0  12.1  34054  287.78 0855.20
2009/04/23 08:51:09.9    -156   -237     72    284    294 213.4  14.3  34056  287.80 0855.20
2009/04/23 08:51:10.0    -175   -226     -5    286    287 217.8  -1.2  34054  287.78 0855.20
2009/04/23 08:51:10.1    -144   -162     27    218    220 221.7   7.1  34056  287.81 0855.20
2009/04/23 08:51:10.2     -95   -158     63    185    196 211.2  18.9  34056  287.81 0855.20
2009/04/23 08:51:10.3       2   -141     98    142    172 179.0  37.8  34054  287.79 0855.20
2009/04/23 08:51:10.4    -101   -143    110    176    207 215.4  35.5  34058  287.86 0855.20
2009/04/23 08:51:10.5     -62   -228     61    237    245 195.4  14.5  34062  287.90 0855.20
2009/04/23 08:51:10.6     -55   -163    126    173    214 198.7  39.7  34060  287.87 0855.20
2009/04/23 08:51:10.7      24   -150    133    153    202 170.7  45.8  34058  287.86 0855.20
2009/04/23 08:51:10.8      66    -75    131    101    165 138.6  58.5  34058  287.86 0855.20
2009/04/23 08:51:10.9      -9     -5     80     11     80 241.1  90.0  34064  287.94 0855.20
2009/04/23 08:51:11.0     139    -76    109    159    192 118.9  37.6  34058  287.84 0855.20
2009/04/23 08:51:11.1     134    -41    135    141    195 106.9  49.0  34058  287.86 0855.20
2009/04/23 08:51:11.2      93    -82    127    125    178 131.3  50.4  34062  287.91 0855.20
2009/04/23 08:51:11.3     133    -43    111    140    178 108.2  42.4  34056  287.82 0855.19
2009/04/23 08:51:11.4     118    -91    131    150    199 127.7  45.8  34056  287.82 0855.19
2009/04/23 08:51:11.5      72    -51    121     89    150 125.5  60.5  34056  287.81 0855.19
2009/04/23 08:51:11.6     123    -68    145    141    202 118.9  50.7  34060  287.89 0855.19
2009/04/23 08:51:11.7     219   -102    181    242    302 115.1  40.4  34060  287.87 0855.19
2009/04/23 08:51:11.8     200    -72    175    213    275 110.0  43.7  34060  287.87 0855.19
2009/04/23 08:51:11.9     269    -20    163    270    315  94.4  34.0  34060  287.88 0855.19
2009/04/23 08:51:12.0     408   -174    134    444    464 113.2  16.8  34056  287.82 0855.19
2009/04/23 08:51:12.1     305   -139    148    336    367 114.6  25.2  34060  287.88 0855.19
2009/04/23 08:51:12.2     250   -153    172    294    340 121.5  33.1  34058  287.83 0855.19
2009/04/23 08:51:12.3     211   -134    108    251    273 122.4  24.6  34056  287.82 0855.19
2009/04/23 08:51:12.4     145   -147    121    207    239 135.5  33.1  34062  287.92 0855.19
2009/04/23 08:51:12.5     125   -120    110    174    205 134.0  35.5  34060  287.89 0855.19
2009/04/23 08:51:12.6     188   -125    131    227    262 123.7  32.7  34060  287.87 0855.19
2009/04/23 08:51:12.7     180    -51     76    188    202 105.9  23.0  34058  287.84 0855.19
2009/04/23 08:51:12.8      94    -66     97    115    150 125.1  43.8  34058  287.86 0855.19
2009/04/23 08:51:12.9      95    -96    105    136    171 135.5  41.7  34058  287.86 0855.19
2009/04/23 08:51:13.0      97    -39     74    105    128 111.8  38.6  34058  287.86 0855.19
2009/04/23 08:51:13.1     209    -87     76    227    240 112.6  18.5  34060  287.87 0855.19
2009/04/23 08:51:13.2     232    -88     66    249    258 110.8  15.0  34062  287.92 0855.19
2009/04/23 08:51:13.3     190    -57     61    199    209 106.9  17.1  34060  287.87 0855.20
2009/04/23 08:51:13.4     174    -89     70    196    208 117.3  20.4  34060  287.87 0855.20
2009/04/23 08:51:13.5     122   -107     83    163    182 131.3  29.3  34060  287.89 0855.20
2009/04/23 08:51:13.6     119    -79     75    144    162 123.7  29.5  34062  287.91 0855.20
2009/04/23 08:51:13.7     108    -80     60    135    147 126.4  25.2  34058  287.86 0855.20
2009/04/23 08:51:13.8     133    -83     51    157    166 122.0  18.1  34058  287.84 0855.20
2009/04/23 08:51:13.9     178    -81     -5    196    197 114.6  -1.6  34060  287.87 0855.20
2009/04/23 08:51:14.0     111    -64     35    129    134 119.8  15.3  34058  287.84 0855.20
2009/04/23 08:51:14.1     106    -57     31    121    126 118.4  14.7  34058  287.84 0855.20
2009/04/23 08:51:14.2      97    -32     45    103    112 108.6  25.1  34056  287.81 0855.20
2009/04/23 08:51:14.3     140    -55     60    151    162 111.7  22.5  34060  287.89 0855.20
2009/04/23 08:51:14.4     149    -30     37    152    157 101.5  13.9  34056  287.82 0855.20
2009/04/23 08:51:14.5     121    -50     57    132    143 112.6  24.6  34058  287.84 0855.20
2009/04/23 08:51:14.6     108    -58     71    123    142 118.4  32.4  34058  287.84 0855.20
2009/04/23 08:51:14.7      64   -115     85    132    157 151.0  35.7  34058  287.84 0855.20
2009/04/23 08:51:14.8      56    -89     91    106    139 147.9  44.8  34056  287.82 0855.20
2009/04/23 08:51:14.9      20   -142    106    144    178 172.0  39.9  34056  287.82 0855.20
2009/04/23 08:51:15.0      13   -187    151    188    241 175.8  42.8  34054  287.79 0855.20
2009/04/23 08:51:15.1     -30   -211    153    214    263 188.1  39.1  34060  287.87 0855.20
2009/04/23 08:51:15.2     -46   -141    175    149    229 198.3  55.6  34056  287.81 0855.20
2009/04/23 08:51:15.3     -74   -181    122    196    230 202.3  35.5  34058  287.84 0855.20
2009/04/23 08:51:15.4    -110   -175     97    207    228 212.1  27.1  34056  287.81 0855.20
2009/04/23 08:51:15.5    -116   -210     89    241    256 209.0  21.3  34058  287.83 0855.20
2009/04/23 08:51:15.6     -88   -167     84    189    206 207.9  25.3  34054  287.79 0855.20
2009/04/23 08:51:15.7     -93   -147     83    175    193 212.5  27.2  34056  287.81 0855.20
2009/04/23 08:51:15.8     -52   -157     94    166    190 198.3  31.9  34056  287.81 0855.20
2009/04/23 08:51:15.9     -29   -165     80    168    186 190.0  27.2  34058  287.84 0855.20
2009/04/23 08:51:16.0       2   -135     77    136    156 179.1  31.9  34056  287.81 0855.20
2009/04/23 08:51:16.1      55   -174     82    183    200 162.2  25.7  34056  287.81 0855.20
2009/04/23 08:51:16.2       9   -225    125    226    258 177.5  31.4  34056  287.82 0855.20
2009/04/23 08:51:16.3      39   -227    113    231    257 170.2  28.2  34056  287.80 0855.20
2009/04/23 08:51:16.4      19   -251    114    252    276 175.6  26.2  34058  287.83 0855.20
2009/04/23 08:51:16.5      31   -303     30    305    307 174.0   5.7  34054  287.78 0855.20
2009/04/23 08:51:16.6      32   -289    109    291    310 173.7  21.3  34060  287.87 0855.20
2009/04/23 08:51:16.7      51   -233    122    239    268 167.5  29.2  34060  287.87 0855.20
2009/04/23 08:51:16.8      16   -195    116    196    227 175.3  33.5  34060  287.87 0855.20
2009/04/23 08:51:16.9      36   -203     65    207    218 169.8  17.4  34058  287.86 0855.20
2009/04/23 08:51:17.1      62   -218     15    227    228 164.0   3.8  34058  287.84 0855.20
2009/04/23 08:51:17.2     -15   -176     42    177    183 184.9  13.5  34054  287.77 0855.20
2009/04/23 08:51:17.3     -68   -198     31    210    213 198.9   8.5  34058  287.86 0855.20
2009/04/23 08:51:17.4     -38   -193     15    197    198 191.3   4.6  34054  287.77 0855.20
2009/04/23 08:51:17.5     -22   -172     45    174    180 187.3  14.7  34058  287.84 0855.20
2009/04/23 08:51:17.6     -16   -156     55    157    167 186.2  19.6  34054  287.77 0855.20
2009/04/23 08:51:17.7      -9   -149     85    150    172 183.6  32.4  34058  287.84 0855.20
2009/04/23 08:51:17.8      12   -187     66    188    200 176.2  19.4  34058  287.84 0855.20
2009/04/23 08:51:17.9      10   -178     89    179    199 176.6  28.5  34056  287.81 0855.20
2009/04/23 08:51:18.0      16   -164     74    165    180 174.2  25.7  34060  287.87 0855.20
2009/04/23 08:51:18.1      47   -116    109    126    166 157.7  45.4  34060  287.89 0855.20
2009/04/23 08:51:18.2      35   -106    100    112    150 161.7  46.4  34066  287.98 0855.20
2009/04/23 08:51:18.3      26   -119    100    122    157 167.5  43.7  34062  287.92 0855.20
2009/04/23 08:51:18.4      35   -113    128    119    174 162.6  52.0  34058  287.84 0855.20
2009/04/23 08:51:18.5      34   -139    113    144    183 166.2  42.0  34056  287.81 0855.20
2009/04/23 08:51:18.6     112    -66    116    131    174 120.7  46.2  34056  287.82 0855.20
2009/04/23 08:51:18.7     150    -97     82    179    196 122.9  26.2  34054  287.79 0855.20
2009/04/23 08:51:18.8     171   -176     25    246    248 135.9   5.9  34050  287.71 0855.20
2009/04/23 08:51:18.9     176   -176    111    249    272 135.0  25.7  34056  287.82 0855.20
2009/04/23 08:51:19.0      99   -160    119    189    223 148.1  35.5  34056  287.82 0855.20
2009/04/23 08:51:19.1     105   -139    105    175    204 142.8  34.0  34060  287.89 0855.20
2009/04/23 08:51:19.2     144   -135     40    198    202 133.1  11.4  34060  287.87 0855.20
2009/04/23 08:51:19.3     153   -109     48    189    196 125.5  14.3  34058  287.84 0855.20
2009/04/23 08:51:19.4     180   -111     18    212    213 121.8   4.9  34058  287.84 0855.20
2009/04/23 08:51:19.5     202    -91     81    222    236 114.2  20.9  34058  287.86 0855.20
2009/04/23 08:51:19.6     169    -35     95    173    197 101.9  31.4  34060  287.87 0855.20
2009/04/23 08:51:19.7     139    -24    100    142    173 100.1  38.6  34060  287.87 0855.20
2009/04/23 08:51:19.8     116    -81     68    142    157 125.1  27.4  34060  287.87 0855.20
2009/04/23 08:51:19.9      61    -68    100     92    135 137.7  52.2  34060  287.87 0855.20
2009/04/23 08:51:20.0      76    -81     82    112    138 136.8  39.7  34060  287.89 0855.20
2009/04/23 08:51:20.1      86    -70     75    111    133 129.1  37.0  34060  287.89 0855.20
2009/04/23 08:51:20.2     112    -49     81    123    147 113.5  36.0  34056  287.82 0855.20
2009/04/23 08:51:20.3     152    -30     74    156    172 101.4  27.2  34060  287.89 0855.20
2009/04/23 08:51:20.4      87    -50    100    101    142 120.2  50.0  34060  287.87 0855.20
2009/04/23 08:51:20.5      62   -122    101    138    171 152.9  39.9  34060  287.87 0855.20
2009/04/23 08:51:20.6      58    -79     91     99    134 143.5  47.9  34062  287.92 0855.20
2009/04/23 08:51:20.7      41    -76     87     87    123 151.5  50.1  34062  287.92 0855.20
2009/04/23 08:51:20.8      23    -37     76     44     87 147.5  67.2  34064  287.94 0855.20
2009/04/23 08:51:20.9      45    -23     81     51     95 117.1  64.7  34064  287.96 0855.20
2009/04/23 08:51:21.0       2     27     56     28     62   4.5  71.9  34066  287.98 0855.20
2009/04/23 08:51:21.1     121    -38     93    127    157 107.7  39.9  34062  287.91 0855.20
2009/04/23 08:51:21.2     122    -77     93    145    172 122.5  35.6  34060  287.87 0855.20
2009/04/23 08:51:21.3     118    -60     47    133    142 117.0  19.4  34062  287.91 0855.20
2009/04/23 08:51:21.4      96    -25     18    100    102 105.0  10.6  34058  287.86 0855.19
2009/04/23 08:51:21.5     149      4      7    150    151  88.3   2.9  34060  287.89 0855.19
2009/04/23 08:51:21.6     138    -19    -24    140    143  97.9  -9.8  34062  287.92 0855.19
2009/04/23 08:51:21.7     103    -66      1    123    124 122.5   0.7  34060  287.89 0855.19
2009/04/23 08:51:21.8      85   -103     73    134    152 140.4  31.3  34062  287.92 0855.19
2009/04/23 08:51:21.9      99    -73     53    124    134 126.4  24.6  34062  287.92 0855.19
2009/04/23 08:51:22.0     117    -47     -7    127    128 112.2  -3.2  34060  287.89 0855.19
2009/04/23 08:51:22.1      51    -62     -3     81     82 140.8  -2.2  34062  287.91 0855.19
2009/04/23 08:51:22.2       2    -67     49     68     83 178.2  39.7  34060  287.87 0855.19
2009/04/23 08:51:22.3     -46    -86     43     98    107 208.5  24.6  34060  287.89 0855.19
2009/04/23 08:51:22.4     -64    -69     66     95    115 222.8  38.0  34062  287.91 0855.19
2009/04/23 08:51:22.5     -93    -67     13    115    116 234.0   6.9  34062  287.92 0855.19
2009/04/23 08:51:22.6     -80    -32    -27     87     91 248.3 -22.8  34060  287.89 0855.19
2009/04/23 08:51:22.7     -54    -17    -39     57     69 252.3 -42.0  34062  287.92 0855.19
2009/04/23 08:51:22.8     -37      0    -47     38     60 270.0 -60.8  34062  287.91 0855.19
2009/04/23 08:51:22.9     -30     15    -65     34     73 297.1 -75.2  34062  287.92 0855.19
2009/04/23 08:51:23.0     -34     31    -49     47     67 312.2 -54.5  34062  287.92 0855.19
2009/04/23 08:51:23.1       0     61    -48     62     78 359.1 -46.6  34062  287.91 0855.19
2009/04/23 08:51:23.2      27     56    -61     63     87  26.3 -54.4  34062  287.92 0855.19
2009/04/23 08:51:23.3      26     75    -37     80     88  19.2 -30.6  34062  287.91 0855.19
2009/04/23 08:51:23.4      38     73    -25     83     87  27.6 -17.0  34062  287.91 0855.18
2009/04/23 08:51:23.5      59     71    -33     93     98  39.6 -24.4  34062  287.92 0855.18
2009/04/23 08:51:23.6      65     55    -51     86     99  49.6 -37.9  34062  287.92 0855.18
2009/04/23 08:51:23.7      73     57    -37     93    100  51.8 -27.4  34058  287.86 0855.18
2009/04/23 08:51:23.8      76     45    -15     89     91  59.3  -9.8  34062  287.92 0855.18
2009/04/23 08:51:23.9      81     38    -11     90     91  64.8  -7.3  34062  287.92 0855.18
2009/04/23 08:51:24.0      92     22     12     95     96  76.3   7.5  34062  287.92 0855.18
2009/04/23 08:51:24.1      72     24     37     76     84  71.4  27.8  34062  287.92 0855.18
2009/04/23 08:51:24.2      51     22     34     56     65  66.5  35.5  34064  287.94 0855.18
2009/04/23 08:51:24.3      36      7     29     37     47  78.6  42.7  34062  287.92 0855.18
2009/04/23 08:51:24.4      -9    -15     32     18     36 212.6  66.8  34062  287.91 0855.18
2009/04/23 08:51:24.5      -7    -32     38     33     50 193.4  55.4  34064  287.96 0855.18
2009/04/23 08:51:24.6       0    -38     40     39     55 180.9  49.1  34068  288.01 0855.18
2009/04/23 08:51:24.7     -12    -37     46     39     60 198.3  56.3  34064  287.96 0855.18
2009/04/23 08:51:24.8     -28    -47     54     55     77 210.7  51.1  34064  287.94 0855.18
2009/04/23 08:51:24.9     -18    -26     20     32     37 214.3  35.5  34064  287.94 0855.18
2009/04/23 08:51:25.0      29     10     42     31     52  70.0  59.4  34066  287.98 0855.18
2009/04/23 08:51:25.1      25      0     53     26     59  90.0  72.9  34064  287.96 0855.18
2009/04/23 08:51:25.2      36     14     42     39     57  68.3  51.2  34064  287.96 0855.18
2009/04/23 08:51:25.3       5     12     34     14     36  21.8  77.1  34064  287.96 0855.18
2009/04/23 08:51:25.4      31     31     18     45     48  45.0  21.0  34066  287.99 0855.18
2009/04/23 08:51:25.5      38     12     30     40     50  71.8  41.7  34064  287.96 0855.18
2009/04/23 08:51:25.6      55      8     47     56     73  81.2  43.8  34062  287.91 0855.18
2009/04/23 08:51:25.7      60     21     31     64     71  70.0  27.3  34064  287.96 0855.18
2009/04/23 08:51:25.8      65      0     49     66     82  90.0  40.7  34064  287.96 0855.18
2009/04/23 08:51:25.9      63      6     55     64     84  83.9  45.8  34062  287.92 0855.18
2009/04/23 08:51:26.0      50    -16     42     53     67 107.7  42.7  34062  287.92 0855.18
2009/04/23 08:51:26.1      43    -17     30     47     55 111.7  35.5  34064  287.96 0855.18
2009/04/23 08:51:26.2      43    -24     26     50     56 119.8  29.3  34064  287.96 0855.18
2009/04/23 08:51:26.3      43    -17     20     47     51 111.7  24.1  34064  287.94 0855.18
2009/04/23 08:51:26.4      35    -43     19     56     60 140.3  19.4  34064  287.96 0855.18
2009/04/23 08:51:26.5      28    -58      5     65     66 153.7   4.9  34062  287.92 0855.18
2009/04/23 08:51:26.6      24    -73     17     77     79 161.5  12.6  34064  287.94 0855.18
2009/04/23 08:51:26.7       0    -83    -25     84     88 180.0 -17.0  34062  287.92 0855.18
2009/04/23 08:51:26.8      -6    -90      1     91     92 184.0   1.2  34064  287.96 0855.18
2009/04/23 08:51:26.9     -21    -99    -12    102    103 192.0  -7.2  34064  287.96 0855.18
2009/04/23 08:51:27.0      -6   -113     -4    114    115 183.1  -2.2  34064  287.94 0855.18
2009/04/23 08:51:27.1      -7   -101     -4    102    103 184.5  -2.6  34062  287.92 0855.18
2009/04/23 08:51:27.2      12   -109     19    110    112 173.3  10.1  34062  287.92 0855.18
2009/04/23 08:51:27.3       1   -116      0    117    118 179.1   0.2  34064  287.94 0855.18
2009/04/23 08:51:27.4      28   -110     -4    114    115 165.7  -2.2  34064  287.96 0855.19
2009/04/23 08:51:27.5      31    -90      5     96     97 160.8   3.3  34062  287.92 0855.19
2009/04/23 08:51:27.6     -16    -81    -11     83     84 191.6  -7.7  34064  287.94 0855.19
2009/04/23 08:51:27.7     -16    -63     23     66     71 194.3  19.4  34064  287.96 0855.19
2009/04/23 08:51:27.8     -28    -60     32     67     74 205.3  27.1  34064  287.96 0855.19
2009/04/23 08:51:27.9     -74    -61     14     96     98 230.5   8.5  34064  287.96 0855.19
2009/04/23 08:51:28.0     -94    -88     -5    129    130 226.9  -2.2  34072  288.08 0855.19
2009/04/23 08:51:28.1    -139    -72     16    157    158 242.5   5.9  34078  288.18 0855.19
2009/04/23 08:51:28.2    -145    -86     10    169    170 239.4   3.6  34078  288.20 0855.19
2009/04/23 08:51:28.3    -166    -73    -31    182    185 246.0  -9.8  34080  288.23 0855.19
2009/04/23 08:51:28.4    -169    -93    -61    193    203 241.1 -17.6  34076  288.14 0855.20
2009/04/23 08:51:28.5    -148   -107    -31    183    186 234.0  -9.8  34072  288.09 0855.20
2009/04/23 08:51:28.6    -130    -91    -35    160    164 234.9 -12.4  34072  288.08 0855.20
2009/04/23 08:51:28.7    -125    -64    -28    141    144 242.9 -11.5  34078  288.18 0855.20
2009/04/23 08:51:28.8    -136    -44    -34    144    149 251.8 -13.4  34080  288.21 0855.20
2009/04/23 08:51:28.9    -139    -29    -31    143    147 258.1 -12.4  34082  288.25 0855.20
2009/04/23 08:51:29.0    -141    -26    -19    144    146 259.4  -7.7  34080  288.21 0855.20
2009/04/23 08:51:29.1    -140     -5     -9    141    142 267.9  -3.7  34074  288.13 0855.20
2009/04/23 08:51:29.2    -151    -12      1    152    153 265.2   0.7  34072  288.09 0855.20
2009/04/23 08:51:29.3    -158    -60    -29    170    173 249.2  -9.8  34068  288.03 0855.20
2009/04/23 08:51:29.4    -156    -91    -39    181    186 239.6 -12.2  34072  288.08 0855.20
2009/04/23 08:51:29.5    -180    -95    -27    204    206 242.2  -7.7  34072  288.09 0855.20
2009/04/23 08:51:29.6    -169    -73    -44    185    191 246.5 -13.4  34072  288.08 0855.20
2009/04/23 08:51:29.7    -184    -11    -62    185    195 266.5 -23.6  34070  288.06 0855.20
2009/04/23 08:51:29.8    -173    -14    -64    174    185 265.2 -25.1  34072  288.08 0855.20
2009/04/23 08:51:29.9    -118     11    -65    119    135 275.7 -35.8  34070  288.04 0855.20
2009/04/23 08:51:30.0     -40    -42     20     59     63 223.3  18.9  34070  288.06 0855.20
2009/04/23 08:51:30.1     -27    -40     33     49     59 214.3  37.6  34072  288.08 0855.20
2009/04/23 08:51:30.2       9    -96     65     97    116 174.2  36.5  34068  288.03 0855.20
2009/04/23 08:51:30.3       2   -107     57    108    122 178.6  29.8  34066  287.99 0855.20
2009/04/23 08:51:30.4      17   -103     45    105    114 170.7  24.1  34068  288.01 0855.20
2009/04/23 08:51:30.5      29    -92     42     97    105 162.2  24.6  34066  287.98 0855.20
2009/04/23 08:51:30.6      16   -102     14    104    106 170.7   8.0  34068  288.01 0855.20
2009/04/23 08:51:30.7     -14   -112     -4    113    114 187.6  -2.2  34066  287.99 0855.20
2009/04/23 08:51:30.8      -3   -126     -7    127    128 181.4  -3.2  34066  287.99 0855.20
2009/04/23 08:51:30.9     -19   -128    -48    130    138 188.5 -25.4  34068  288.03 0855.20
2009/04/23 08:51:31.0     -58   -132    -62    145    157 203.6 -28.7  34070  288.04 0855.20
2009/04/23 08:51:31.1     -95    -95    -32    135    139 225.0 -13.4  34064  287.96 0855.20
2009/04/23 08:51:31.2    -128   -106     15    167    168 230.5   5.4  34064  287.96 0855.20
2009/04/23 08:51:31.3    -149   -100      0    180    181 236.0   0.0  34064  287.96 0855.20
2009/04/23 08:51:31.4    -104   -134     30    170    173 217.8  10.1  34064  287.96 0855.20
2009/04/23 08:51:31.5     -58   -143     19    155    157 202.3   7.2  34066  287.99 0855.20
2009/04/23 08:51:31.6     -69   -154      2    169    170 204.1   0.8  34064  287.96 0855.20
2009/04/23 08:51:31.7     -69   -166      0    181    182 202.7   0.2  34066  287.98 0855.20
2009/04/23 08:51:31.8     -81   -158    -13    178    179 207.2  -4.4  34066  287.98 0855.20
2009/04/23 08:51:31.9     -64   -151    -15    165    166 202.9  -5.2  34068  288.01 0855.20
2009/04/23 08:51:32.0     -25   -127     72    130    148 191.1  31.4  34066  287.98 0855.20
2009/04/23 08:51:32.1     -42   -110     55    118    130 200.9  27.1  34066  287.99 0855.20
2009/04/23 08:51:32.2     -44    -97     -2    107    108 204.5  -1.3  34064  287.94 0855.20
2009/04/23 08:51:32.3     -64    -76    -27    100    104 220.1 -15.5  34064  287.96 0855.21
2009/04/23 08:51:32.4     -31    -77      4     84     85 201.8   2.9  34066  287.99 0855.21
2009/04/23 08:51:32.5     -10    -74     29     75     80 188.0  22.5  34066  287.98 0855.21
2009/04/23 08:51:32.6      24    -83     57     87    104 164.0  36.0  34064  287.94 0855.21
2009/04/23 08:51:32.7      29   -100     62    105    121 163.5  33.4  34064  287.96 0855.21
2009/04/23 08:51:32.8      31   -107     64    112    128 163.5  32.4  34064  287.96 0855.21
2009/04/23 08:51:32.9      33   -100     73    106    128 161.7  37.6  34066  287.98 0855.21
2009/04/23 08:51:33.0      32   -103     61    109    124 162.6  31.9  34066  287.98 0855.21
2009/04/23 08:51:33.1       9   -122     51    123    133 175.6  23.6  34064  287.96 0855.21
2009/04/23 08:51:33.2       0   -108     60    109    124 180.0  31.4  34066  287.98 0855.21
2009/04/23 08:51:33.3       1   -111     70    112    132 179.1  35.5  34066  287.99 0855.21
2009/04/23 08:51:33.4       8   -134     55    135    145 176.4  23.1  34062  287.92 0855.21
2009/04/23 08:51:33.5       1   -123     57    124    136 179.5  26.6  34062  287.92 0855.21
2009/04/23 08:51:33.6      20   -143     82    145    166 171.9  32.1  34062  287.92 0855.21
2009/04/23 08:51:33.7      35   -120    102    126    162 163.5  43.3  34066  287.98 0855.21
2009/04/23 08:51:33.8      20   -161     81    163    182 172.7  28.2  34064  287.94 0855.21
2009/04/23 08:51:33.9       2   -172     64    173    184 179.1  21.0  34062  287.92 0855.21
2009/04/23 08:51:34.0     -30   -170     72    173    187 190.2  23.8  34064  287.96 0855.21
2009/04/23 08:51:34.1     -25   -178     76    180    195 188.2  24.3  34064  287.96 0855.21
2009/04/23 08:51:34.2      -2   -166     59    167    178 180.7  19.4  34064  287.96 0855.21
2009/04/23 08:51:34.3       0   -156     54    157    167 180.0  19.2  34064  287.96 0855.22
2009/04/23 08:51:34.4      17   -152     79    154    173 173.3  29.3  34064  287.94 0855.22
2009/04/23 08:51:34.5       8   -150     97    151    179 176.9  35.7  34064  287.96 0855.22
2009/04/23 08:51:34.6      -5   -140     90    141    167 182.2  35.5  34068  288.01 0855.22
2009/04/23 08:51:34.7      -7   -125     77    126    147 183.6  35.0  34066  287.99 0855.22
2009/04/23 08:51:34.8      -1   -135     98    136    167 180.8  39.3  34070  288.06 0855.22
2009/04/23 08:51:34.9      19   -171     87    173    193 173.5  28.7  34068  288.03 0855.22
2009/04/23 08:51:35.0      15   -192     90    193    212 175.5  27.0  34070  288.04 0855.22
2009/04/23 08:51:35.1      14   -190     84    191    208 175.5  25.1  34070  288.06 0855.22
2009/04/23 08:51:35.2       8   -164     98    165    191 177.1  33.7  34072  288.08 0855.22
2009/04/23 08:51:35.3      48   -157     93    165    189 163.1  31.9  34070  288.06 0855.22
2009/04/23 08:51:35.4      36   -134     95    139    168 164.9  37.6  34072  288.08 0855.22
2009/04/23 08:51:35.5      33   -131     90    136    163 165.7  36.5  34070  288.06 0855.22
2009/04/23 08:51:35.6      33   -142     92    146    172 166.7  35.5  34074  288.11 0855.22
2009/04/23 08:51:35.7      25   -111    107    114    156 167.1  48.0  34074  288.11 0855.22
2009/04/23 08:51:35.8      40   -164     85    169    189 166.2  28.5  34072  288.09 0855.22
2009/04/23 08:51:35.9      15   -193     76    194    208 175.5  22.5  34070  288.06 0855.22
2009/04/23 08:51:36.0       7   -160     56    161    171 177.5  19.4  34070  288.06 0855.22
2009/04/23 08:51:36.1      29   -144     77    148    166 168.4  29.3  34072  288.08 0855.22
2009/04/23 08:51:36.2      17   -182     60    183    193 174.4  18.1  34068  288.01 0855.22
2009/04/23 08:51:36.3      -1   -162     65    163    175 180.5  23.0  34068  288.03 0855.22
2009/04/23 08:51:36.4      32   -157     93    161    185 168.4  32.7  34070  288.06 0855.22
2009/04/23 08:51:36.5      28   -175     67    178    190 170.9  21.3  34070  288.04 0855.22
2009/04/23 08:51:36.6      35   -182     88    186    205 169.1  27.2  34066  287.99 0855.22
2009/04/23 08:51:36.7      24   -161    116    163    200 171.3  39.1  34070  288.04 0855.22
2009/04/23 08:51:36.8      29   -181     68    184    196 170.7  21.3  34068  288.03 0855.22
2009/04/23 08:51:36.9      40   -202     47    207    213 168.7  12.9  34068  288.03 0855.22
2009/04/23 08:51:37.0      61   -183     96    194    216 161.5  28.2  34070  288.06 0855.22
2009/04/23 08:51:37.1      67   -165     78    179    195 157.9  25.1  34068  288.03 0855.22
2009/04/23 08:51:37.2      27   -168     80    171    188 170.9  27.1  34068  288.01 0855.22
2009/04/23 08:51:37.3      13   -168     58    169    179 175.5  19.2  34070  288.04 0855.22
2009/04/23 08:51:37.4      35   -147     81    152    172 166.6  30.1  34070  288.04 0855.22
2009/04/23 08:51:37.5      24   -150     81    153    173 170.7  30.3  34066  287.99 0855.22
2009/04/23 08:51:37.6      50   -144    102    153    183 160.8  36.5  34068  288.01 0855.22
2009/04/23 08:51:37.7      58   -159    110    170    202 159.7  35.7  34066  287.99 0855.22
2009/04/23 08:51:37.8      89   -158     85    182    200 150.4  27.0  34068  288.03 0855.22
2009/04/23 08:51:37.9      59   -177     71    187    200 161.5  21.5  34068  288.01 0855.22
2009/04/23 08:51:38.0      27   -184     66    187    198 171.5  20.2  34068  288.01 0855.22
2009/04/23 08:51:38.1      30   -190     70    193    205 170.9  20.4  34068  288.01 0855.22
2009/04/23 08:51:38.2      58   -203     68    212    223 164.0  17.9  34068  288.03 0855.22
2009/04/23 08:51:38.3      28   -180     82    183    200 170.9  25.7  34070  288.04 0855.23
2009/04/23 08:51:38.4      55   -164     71    174    187 161.3  23.1  34070  288.04 0855.23
2009/04/23 08:51:38.5      80   -152     70    173    186 152.1  23.1  34068  288.01 0855.23
2009/04/23 08:51:38.6      54   -136    107    147    181 158.1  39.7  34068  288.01 0855.23
2009/04/23 08:51:38.7      54   -136    107    147    181 158.1  39.7  34068  288.01 0855.23
2009/04/23 08:51:38.8      70   -125     96    144    173 150.6  36.5  34068  288.03 0855.23
2009/04/23 08:51:38.9      42   -144     79    151    170 163.5  29.8  34068  288.01 0855.23
2009/04/23 08:51:39.0      33   -150     72    154    170 167.5  27.1  34068  288.03 0855.23
2009/04/23 08:51:39.1      38   -127     76    133    153 163.1  32.4  34070  288.04 0855.23
2009/04/23 08:51:39.2      46   -111     52    121    131 157.3  25.1  34070  288.04 0855.23
2009/04/23 08:51:39.3      69   -110     38    130    136 147.9  16.3  34068  288.03 0855.23
2009/04/23 08:51:39.4      67   -106     55    126    137 147.5  25.1  34070  288.06 0855.23
2009/04/23 08:51:39.5      81   -101     71    130    148 141.3  31.3  34070  288.04 0855.23
2009/04/23 08:51:39.6      49   -113     62    124    138 156.3  28.7  34068  288.01 0855.23
2009/04/23 08:51:39.7      28   -106     67    110    128 164.8  34.4  34068  288.03 0855.23
2009/04/23 08:51:39.8      16    -86     85     88    122 168.9  49.4  34068  288.01 0855.23
2009/04/23 08:51:39.9       9    -96     93     97    134 174.2  49.4  34068  288.03 0855.23
2009/04/23 08:51:40.0      -8   -106     88    107    138 184.5  43.7  34068  288.03 0855.23
2009/04/23 08:51:40.1      33    -52     66     62     90 147.4  51.6  34068  288.01 0855.23
2009/04/23 08:51:40.2      59      8     62     60     86  82.1  50.1  34070  288.04 0855.23
2009/04/23 08:51:40.3      72      0     91     73    116  90.0  56.4  34070  288.04 0855.23
2009/04/23 08:51:40.4      14      4     43     15     45  71.6  81.2  34068  288.01 0855.23
2009/04/23 08:51:40.5     -21      0     41     22     46 272.6  69.8  34070  288.04 0855.23
2009/04/23 08:51:40.6      39     32     67     51     84  50.5  59.0  34068  288.01 0855.23
2009/04/23 08:51:40.8      20    -51     58     56     80 158.2  50.7  34068  288.03 0855.23
2009/04/23 08:51:40.8      41    -97     40    106    113 156.8  21.5  34068  288.01 0855.23
2009/04/23 08:51:40.9      56    -83     55    101    115 145.7  31.4  34066  287.98 0855.23
2009/04/23 08:51:41.0      80    -96     74    126    146 140.3  33.5  34066  287.99 0855.23
2009/04/23 08:51:41.1      79   -158     62    177    188 153.3  19.4  34066  287.98 0855.23
2009/04/23 08:51:41.2      92   -165     78    190    205 150.8  23.6  34066  287.99 0855.23
2009/04/23 08:51:41.3      47   -203     71    209    221 166.9  18.9  34066  287.99 0855.23
2009/04/23 08:51:41.4      42   -205     83    210    225 168.2  23.0  34064  287.96 0855.23
2009/04/23 08:51:41.5      41   -189     75    194    207 167.5  22.0  34064  287.96 0855.23
2009/04/23 08:51:41.6      48   -204    118    210    240 166.6  32.1  34068  288.01 0855.23
2009/04/23 08:51:41.7      47   -233     97    238    257 168.4  23.1  34068  288.02 0855.23
2009/04/23 08:51:41.8      15   -202     81    203    218 175.5  23.0  34068  288.01 0855.23
2009/04/23 08:51:41.9      49   -183     88    190    209 164.8  27.0  34062  287.91 0855.23
2009/04/23 08:51:42.0      47   -203     71    209    221 166.9  18.9  34066  287.99 0855.23
2009/04/23 08:51:42.1      45   -200     84    206    222 167.1  23.1  34068  288.01 0855.23
2009/04/23 08:51:42.2      58   -213    109    221    246 164.6  28.2  34066  287.99 0855.23
2009/04/23 08:51:42.3      36   -184     89    188    208 168.7  27.1  34068  288.01 0855.24
2009/04/23 08:51:42.4      85   -175    124    195    231 154.1  35.5  34068  288.01 0855.24
2009/04/23 08:51:42.5      99   -191     83    216    231 152.6  22.0  34068  288.01 0855.24
2009/04/23 08:51:42.6      50   -161     45    169    175 162.6  15.0  34066  287.99 0855.24
2009/04/23 08:51:42.7      66   -168     64    181    191 158.4  20.0  34068  288.03 0855.24
2009/04/23 08:51:42.8      55   -172     66    181    192 162.2  20.4  34074  288.13 0855.24
2009/04/23 08:51:42.9      41   -154     49    160    168 164.9  17.1  34076  288.14 0855.24
2009/04/23 08:51:43.1      51   -118     50    129    138 156.4  22.5  34074  288.13 0855.24
2009/04/23 08:51:43.1      50   -142     47    151    159 160.4  17.4  34066  287.98 0855.24
2009/04/23 08:51:43.3      36   -144     63    149    161 165.7  24.3  34062  287.92 0855.24
2009/04/23 08:51:43.3      34   -139     67    144    158 166.2  26.6  34070  288.04 0855.24
2009/04/23 08:51:43.4      29   -141     43    145    152 168.4  16.8  34076  288.14 0855.24
2009/04/23 08:51:43.6       6   -141     67    142    157 177.4  27.0  34074  288.11 0855.24
2009/04/23 08:51:43.7      -1   -135    107    136    173 180.8  42.2  34066  287.99 0855.24
2009/04/23 08:51:43.8      11   -127    115    128    172 174.7  46.6  34070  288.06 0855.24
2009/04/23 08:51:43.9       3    -70     95     71    118 177.3  59.4  34070  288.06 0855.24
2009/04/23 08:51:44.0      29    -55     65     63     90 151.9  50.7  34068  288.01 0855.24
2009/04/23 08:51:44.1      13    -40     66     43     78 161.5  64.6  34070  288.06 0855.24
2009/04/23 08:51:44.2      40    -33     73     52     89 129.5  61.1  34072  288.08 0855.24
2009/04/23 08:51:44.3      46    -22     50     52     72 116.2  50.0  34072  288.08 0855.24
2009/04/23 08:51:44.4      30     -9     45     32     55 108.2  61.5  34088  288.35 0855.24
2009/04/23 08:51:44.5      46      3     41     47     62  85.7  46.9  34104  288.64 0855.24
2009/04/23 08:51:44.6       9    -15     34     18     38 147.4  70.8  34088  288.36 0855.24
2009/04/23 08:51:44.7     -12     16     14     21     25 323.9  35.6  34078  288.18 0855.24
2009/04/23 08:51:44.8     -27     25     22     38     43 313.1  32.4  34078  288.20 0855.24
2009/04/23 08:51:44.9      12      4     42     13     43  71.8  81.8  34074  288.11 0855.24
2009/04/23 08:51:45.0      -7    -39     77     40     86 190.7  70.4  34072  288.08 0855.24
2009/04/23 08:51:45.1      23    -23     68     33     75 134.9  72.8  34068  288.01 0855.24
2009/04/23 08:51:45.2      13    -40     66     43     78 161.5  64.6  34070  288.06 0855.24
2009/04/23 08:51:45.3      10    -38     74     40     84 164.9  68.8  34068  288.03 0855.24
2009/04/23 08:51:45.4      12    -16     59     21     62 143.9  80.2  34072  288.08 0855.24
2009/04/23 08:51:45.5      -3     -7     35      8     35 205.4  89.0  34070  288.04 0855.24
2009/04/23 08:51:45.6       7    -22     32     24     40 161.7  59.4  34070  288.04 0855.24
2009/04/23 08:51:45.7      17      1     46     18     49  85.6  78.2  34068  288.01 0855.24
2009/04/23 08:51:45.8      13     -4     28     14     31 108.6  72.8  34068  288.03 0855.24
2009/04/23 08:51:45.9       7    -18     19     20     27 158.2  52.0  34072  288.08 0855.24
2009/04/23 08:51:46.0      -1    -15     29     16     33 184.4  68.8  34070  288.06 0855.24
2009/04/23 08:51:46.1       6    -36     45     37     58 170.2  56.3  34070  288.04 0855.24
2009/04/23 08:51:46.2      16    -48     44     51     67 161.5  45.8  34070  288.04 0855.24
2009/04/23 08:51:46.3       7    -35     58     36     68 168.4  64.7  34070  288.04 0855.24
2009/04/23 08:51:46.4       7    -41     53     42     67 170.2  57.5  34070  288.06 0855.24
2009/04/23 08:51:46.5     -13    -47     54     49     72 196.0  52.2  34068  288.01 0855.24
2009/04/23 08:51:46.6     -17    -51     44     54     69 198.7  43.7  34070  288.06 0855.24
2009/04/23 08:51:46.7      -4    -40     55     41     68 186.2  58.5  34068  288.03 0855.24
2009/04/23 08:51:46.8      -3    -38     56     39     68 184.5  61.5  34068  288.03 0855.24
2009/04/23 08:51:46.9       0    -51     55     52     75 179.1  52.1  34068  288.01 0855.24
2009/04/23 08:51:47.0      11    -71     61     72     94 171.1  44.8  34068  288.03 0855.24
2009/04/23 08:51:47.1       0    -85     40     86     94 180.0  27.1  34068  288.01 0855.24
2009/04/23 08:51:47.2      -4    -70     35     71     79 183.6  28.2  34070  288.04 0855.24
2009/04/23 08:51:47.3      -9    -66     29     67     73 188.0  25.1  34068  288.03 0855.24
2009/04/23 08:51:47.4     -16    -59     37     62     72 195.1  34.4  34068  288.03 0855.24
2009/04/23 08:51:47.5     -17    -62     29     65     71 196.0  26.2  34068  288.03 0855.24
2009/04/23 08:51:47.6      -9    -58     21     59     62 188.9  20.0  34070  288.04 0855.24
2009/04/23 08:51:47.7       3    -50     33     51     60 175.5  35.6  34068  288.03 0855.24
2009/04/23 08:51:47.8      11    -34     45     36     57 161.3  56.4  34070  288.06 0855.24
2009/04/23 08:51:47.9     -18    -49     27     53     59 200.9  29.3  34070  288.04 0855.24
2009/04/23 08:51:48.0      -6    -48     21     49     53 187.1  24.1  34068  288.01 0855.24
2009/04/23 08:51:48.1       7    -32     22     33     39 166.6  36.5  34070  288.06 0855.24
2009/04/23 08:51:48.2      12    -14     33     19     38 140.4  64.7  34072  288.08 0855.24
2009/04/23 08:51:48.3       6    -18     13     19     23 161.5  39.7  34074  288.11 0855.24
2009/04/23 08:51:48.4      13    -39    -14     42     45 160.8 -18.7  34074  288.13 0855.24
2009/04/23 08:51:48.5       8    -26     17     28     32 161.7  35.5  34074  288.11 0855.24
2009/04/23 08:51:48.6      15    -42     -1     45     46 160.0  -1.3  34074  288.13 0855.24
2009/04/23 08:51:48.7      18    -38      2     43     44 154.6   2.9  34076  288.16 0855.24
2009/04/23 08:51:48.8      38    -59     10     71     72 147.4   8.0  34080  288.23 0855.24
2009/04/23 08:51:48.9      37    -58     38     69     78 147.5  30.8  34138  289.21 0855.24
2009/04/23 08:51:49.0      55    -39     37     68     77 126.0  31.3  34156  289.52 0855.24
2009/04/23 08:51:49.1      68    -46     20     83     86 124.2  13.7  34130  289.08 0855.24
2009/04/23 08:51:49.2      56    -54      1     79     80 134.0   1.2  34118  288.87 0855.24
2009/04/23 08:51:49.3      42    -39    -27     58     63 133.1 -30.6  34104  288.64 0855.24
2009/04/23 08:51:49.4      61    -23    -29     66     72 110.8 -29.5  34116  288.84 0855.25
2009/04/23 08:51:49.5      53    -13    -15     55     57 104.2 -20.7  34124  288.97 0855.25
2009/04/23 08:51:49.6      52      3    -23     53     57  86.5 -29.5  34112  288.75 0855.25
2009/04/23 08:51:49.7      72     -1      1     73     74  90.8   0.8  34124  288.96 0855.25
2009/04/23 08:51:49.8      61      0     12     62     64  89.1  11.0  34152  289.45 0855.25
2009/04/23 08:51:49.9      82      8     32     83     88  83.9  21.5  34162  289.62 0855.25
2009/04/23 08:51:50.0      80      6     50     81     95  85.7  35.5  34170  289.74 0855.25
2009/04/23 08:51:50.1      83      3     70     84    109  87.4  43.8  34174  289.82 0855.25
2009/04/23 08:51:50.2      83      7     47     84     96  84.8  31.9  34158  289.53 0855.25
2009/04/23 08:51:50.3      54      7     60     55     81  82.1  52.7  34158  289.53 0855.25
2009/04/23 08:51:50.4      41      7     60     42     73  80.3  60.6  34152  289.43 0855.25
2009/04/23 08:51:50.5      42     26     55     50     74  57.6  52.2  34134  289.14 0855.25
2009/04/23 08:51:50.6      33     26     60     43     73  51.4  60.5  34134  289.14 0855.25
2009/04/23 08:51:50.7      32     20     51     38     63  57.6  59.4  34136  289.16 0855.25
2009/04/23 08:51:50.8      30     23     58     39     69  52.2  63.6  34134  289.13 0855.25
2009/04/23 08:51:50.9      24      9     44     26     51  68.3  65.7  34130  289.08 0855.25
2009/04/23 08:51:51.0      14      6     32     16     35  64.7  72.8  34138  289.19 0855.25
2009/04/23 08:51:51.1      16     10     35     19     39  57.5  68.8  34140  289.24 0855.25
2009/04/23 08:51:51.2      -9     -5     31     11     32 241.1  81.2  34142  289.28 0855.25
2009/04/23 08:51:51.3      -8    -14     24     17     29 209.0  62.6  34142  289.26 0855.25
2009/04/23 08:51:51.4       7     -7     21     11     23 135.0  70.8  34142  289.28 0855.26
2009/04/23 08:51:51.5      14     -9     26     17     31 122.4  64.6  34140  289.24 0855.26
2009/04/23 08:51:51.6       5      2     33      6     33  64.7  89.1  34142  289.26 0855.26
2009/04/23 08:51:51.7      -1     13     27     14     30 353.8  70.8  34146  289.33 0855.26
2009/04/23 08:51:51.8       0     15     20     16     25 357.3  56.4  34152  289.43 0855.26
2009/04/23 08:51:51.9       6     26     34     27     43  13.4  57.5  34158  289.53 0855.26
2009/04/23 08:51:52.0       6     33     21     34     39  11.6  34.4  34162  289.62 0855.26
2009/04/23 08:51:52.1      10     32     26     34     42  18.3  41.7  34172  289.77 0855.26
2009/04/23 08:51:52.2      16     34     30     38     48  25.4  42.7  34180  289.91 0855.26
2009/04/23 08:51:52.3      -9     27     43     29     51 340.0  62.6  34190  290.08 0855.26
2009/04/23 08:51:52.4       2     37     43     38     57   4.4  53.3  34190  290.08 0855.26
2009/04/23 08:51:52.5     -11     43     35     45     57 344.9  42.7  34166  289.67 0855.26
2009/04/23 08:51:52.6      -8     47     31     48     57 349.3  35.6  34156  289.52 0855.26
2009/04/23 08:51:52.7     -25     47     26     54     59 331.9  27.3  34156  289.50 0855.26
2009/04/23 08:51:52.8     -26     41     21     49     53 327.4  24.1  34164  289.63 0855.26
2009/04/23 08:51:52.9     -12     19     42     23     47 327.5  68.8  34184  289.97 0855.26
2009/04/23 08:51:53.0      -7     -3     47      8     47 244.7  90.0  34176  289.85 0855.26
2009/04/23 08:51:53.1     -20    -32     41     39     56 212.5  50.1  34158  289.55 0855.26
2009/04/23 08:51:53.2     -16    -18     45     25     51 221.4  68.8  34162  289.62 0855.26
2009/04/23 08:51:53.3     -28    -27     38     40     55 226.0  50.0  34166  289.69 0855.26
2009/04/23 08:51:53.4     -19     -6     49     20     52 251.8  77.1  34166  289.67 0855.25
2009/04/23 08:51:53.5     -26      3     21     27     34 277.9  43.7  34158  289.55 0855.25
2009/04/23 08:51:53.6     -19     23     26     31     40 320.4  44.8  34164  289.65 0855.25
2009/04/23 08:51:53.7     -38     48     50     62     79 322.2  43.3  34204  290.33 0855.25
2009/04/23 08:51:53.8     -48     76     31     91     97 327.5  19.2  34220  290.58 0855.25
2009/04/23 08:51:53.9     -50     68     33     85     91 323.5  22.0  34214  290.50 0855.25
2009/04/23 08:51:54.0     -38     33      2     51     52 310.4   2.9  34220  290.60 0855.25
2009/04/23 08:51:54.1     -79     50     14     94     96 302.4   8.5  34222  290.62 0855.25
2009/04/23 08:51:54.2     -69     53     34     88     94 307.8  21.5  34224  290.67 0855.25
2009/04/23 08:51:54.3     -89     59     29    107    111 303.7  15.2  34216  290.52 0855.25
2009/04/23 08:51:54.4    -102     31     -2    107    108 287.3  -1.3  34214  290.50 0855.25
2009/04/23 08:51:54.5     -79      6      9     80     81 274.4   6.5  34222  290.62 0855.25
2009/04/23 08:51:54.6     -68     43     20     81     84 302.4  14.3  34228  290.74 0855.25
2009/04/23 08:51:54.7     -71     28     13     77     79 291.8   9.5  34206  290.35 0855.25
2009/04/23 08:51:54.8     -91     -3      2     92     93 267.9   1.8  34188  290.06 0855.25
2009/04/23 08:51:54.9     -92     15      2     94     95 279.2   1.8  34214  290.48 0855.25
2009/04/23 08:51:55.0     -85     25     14     89     91 286.8   9.5  34220  290.58 0855.25
2009/04/23 08:51:55.1     -78     41      0     89     90 297.5  -0.3  34224  290.65 0855.25
2009/04/23 08:51:55.2     -59     28    -10     66     67 295.3  -9.3  34220  290.58 0855.25
2009/04/23 08:51:55.3     -53     24    -32     59     67 294.4 -35.7  34218  290.55 0855.25
2009/04/23 08:51:55.4     -46      3    -28     47     54 274.3 -38.8  34208  290.38 0855.26
2009/04/23 08:51:55.5     -39    -44     24     60     64 221.4  23.0  34166  289.67 0855.26
2009/04/23 08:51:55.6     -40    -49     27     64     69 219.7  23.1  34122  288.94 0855.26
2009/04/23 08:51:55.7     -29    -46     51     55     75 212.6  47.9  34154  289.46 0855.26
2009/04/23 08:51:55.8      -8    -26     47     28     54 198.7  65.7  34136  289.16 0855.26
2009/04/23 08:51:55.9      16     -1     30     17     34  94.3  68.8  34130  289.06 0855.26
2009/04/23 08:51:56.0      58     36     41     69     80  58.5  33.5  34150  289.40 0855.26
2009/04/23 08:51:56.1      97     29     54    102    115  73.2  30.3  34108  288.70 0855.26
2009/04/23 08:51:56.2      72     41     13     84     86  60.2   9.0  34126  289.01 0855.26
2009/04/23 08:51:56.3      38     63     -9     74     75  31.6  -7.3  34130  289.06 0855.26
2009/04/23 08:51:56.4     -21     41     -2     47     48 332.8  -3.1  34128  289.04 0855.26
2009/04/23 08:51:56.5     -11     -3     14     12     18 251.6  48.2  34134  289.13 0855.26
2009/04/23 08:51:56.6       7    -22      8     24     26 161.5  19.4  34128  289.02 0855.26
2009/04/23 08:51:56.7      20      0      7     21     23  90.0  19.2  34124  288.97 0855.26
2009/04/23 08:51:56.8       2     35     -4     36     37   4.4  -7.3  34114  288.80 0855.26
2009/04/23 08:51:56.9     -42     12      2     44     45 286.8   3.8  34134  289.14 0855.26
2009/04/23 08:51:57.0     -69    -47     19     84     87 235.8  13.2  34116  288.84 0855.26
2009/04/23 08:51:57.1     -17    -64    -45     67     80 195.1 -42.0  34102  288.58 0855.26
2009/04/23 08:51:57.2      15    -43    -71     46     84 160.0 -69.0  34098  288.53 0855.26
2009/04/23 08:51:57.3      22      0    -21     23     31  90.0 -52.3  34096  288.48 0855.25
2009/04/23 08:51:57.4     -19    -94     80     96    124 191.5  43.8  34082  288.26 0855.25
2009/04/23 08:51:57.5     -90    -69     40    114    121 232.7  19.4  34082  288.26 0855.25
2009/04/23 08:51:57.6       0    -29     53     30     60 180.9  68.8  34082  288.26 0855.25
2009/04/23 08:51:57.7     -13    -68     27     70     75 191.5  21.0  34082  288.26 0855.25
2009/04/23 08:51:57.8     -68    -63     41     93    101 227.3  25.1  34088  288.35 0855.25
2009/04/23 08:51:57.9     -64    -39     45     76     88 238.5  33.5  34088  288.36 0855.25
2009/04/23 08:51:58.0     -21    -47     53     52     74 204.5  49.1  34090  288.38 0855.25
2009/04/23 08:51:58.1     -65    -51     66     83    106 231.8  42.7  34104  288.64 0855.25
2009/04/23 08:51:58.2     -89    -89     44    127    135 224.9  19.4  34116  288.84 0855.25
2009/04/23 08:51:58.3     -67    -55     71     87    112 230.5  43.7  34126  289.01 0855.25
2009/04/23 08:51:58.4    -117    -42      1    125    126 250.0   0.8  34140  289.23 0855.25
2009/04/23 08:51:58.5    -111    -36     50    117    127 251.8  24.6  34150  289.41 0855.25
2009/04/23 08:51:58.6    -113    -57     46    127    135 242.9  20.0  34144  289.30 0855.25
2009/04/23 08:51:58.7     -75    -66     75    101    125 228.7  40.1  34102  288.58 0855.25
2009/04/23 08:51:58.8     -91    -36     97     98    137 248.3  50.0  34108  288.70 0855.25
2009/04/23 08:51:58.9    -105    -50     90    117    147 244.2  41.7  34144  289.30 0855.25
2009/04/23 08:51:59.0    -126    -57     55    139    149 245.6  23.0  34148  289.36 0855.25
2009/04/23 08:51:59.1    -125    -47     31    134    138 249.2  13.1  34134  289.13 0855.25
2009/04/23 08:51:59.2     -46    -31     27     56     62 235.8  27.2  34132  289.09 0855.25
2009/04/23 08:51:59.3     -36    -32     38     49     62 228.7  41.7  34130  289.06 0855.25
2009/04/23 08:51:59.4      15    -49     41     52     66 162.2  42.7  34098  288.53 0855.25
2009/04/23 08:51:59.5      24    -64     61     69     92 159.1  46.4  34086  288.33 0855.25
2009/04/23 08:51:59.6      65    -21     75     69    101 108.2  52.2  34086  288.31 0855.25
2009/04/23 08:51:59.7      71    -32     80     79    112 114.4  49.7  34086  288.33 0855.25
2009/04/23 08:51:59.8      85    -27     93     90    129 107.7  50.7  34092  288.42 0855.25
2009/04/23 08:51:59.9      77    -23     62     81    102 106.8  41.2  34100  288.55 0855.25
2009/04/23 08:52:00.0      55    -33     71     65     96 121.5  52.2  34136  289.16 0855.25
2009/04/23 08:52:00.1      70    -40     85     81    117 119.8  51.2  34120  288.89 0855.25
2009/04/23 08:52:00.2      67    -44     69     81    106 123.3  44.8  34112  288.75 0855.25
2009/04/23 08:52:00.3      25    -40     65     48     80 148.4  60.0  34104  288.64 0855.25
2009/04/23 08:52:00.4      -5    -44     61     45     75 187.1  60.5  34090  288.38 0855.25
2009/04/23 08:52:00.5       0    -84     74     85    112 180.4  45.4  34082  288.26 0855.25
2009/04/23 08:52:00.6      -2    -58     65     59     87 182.7  52.7  34078  288.20 0855.25
2009/04/23 08:52:00.7      12    -55     60     57     82 167.5  51.2  34074  288.13 0855.25
2009/04/23 08:52:00.8       0    -94     69     95    117 179.5  39.7  34076  288.14 0855.25
2009/04/23 08:52:00.9     -29    -88     62     93    111 198.3  36.5  34082  288.26 0855.25
2009/04/23 08:52:01.0      -8    -60     46     61     76 188.0  40.7  34092  288.43 0855.25
2009/04/23 08:52:01.1      72      1     36     73     81  89.2  28.2  34094  288.45 0855.25
2009/04/23 08:52:01.2      52     16     85     55    101  72.3  64.1  34094  288.45 0855.25
2009/04/23 08:52:01.3      40    -26     75     48     89 123.3  64.7  34094  288.47 0855.24
2009/04/23 08:52:01.4       2     -6     65      7     65 161.7  90.0  34094  288.45 0855.24
2009/04/23 08:52:01.5      -1    -71     65     72     97 181.0  46.9  34084  288.28 0855.24
2009/04/23 08:52:01.6      38    -60     57     72     91 147.5  42.7  34076  288.16 0855.24
2009/04/23 08:52:01.7      18    -73     72     76    104 165.7  49.0  34078  288.18 0855.24
2009/04/23 08:52:01.8      32    -32     70     46     83 135.8  64.1  34084  288.30 0855.24
2009/04/23 08:52:01.9       2    -46     51     47     69 176.4  52.2  34082  288.25 0855.24
2009/04/23 08:52:02.0       4    -61     55     62     82 175.6  46.4  34082  288.25 0855.24
2009/04/23 08:52:02.1      -5    -54     63     55     83 186.2  53.7  34082  288.26 0855.24
2009/04/23 08:52:02.2       3    -40     86     41     95 174.7  72.9  34084  288.28 0855.24
2009/04/23 08:52:02.3     -16   -120    119    122    170 188.0  49.8  34076  288.16 0855.24
2009/04/23 08:52:02.4      19    -95    100     97    139 168.5  50.7  34078  288.20 0855.24
2009/04/23 08:52:02.5       6    -88     98     89    132 175.5  52.7  34082  288.25 0855.24
2009/04/23 08:52:02.6     -13    -88    102     90    136 188.9  54.2  34084  288.28 0855.24
2009/04/23 08:52:02.7     -42   -128    100    135    168 198.5  40.1  34084  288.28 0855.24
2009/04/23 08:52:02.8     -37   -123     72    129    147 197.0  31.4  34086  288.31 0855.24
2009/04/23 08:52:02.9     -19   -117     60    119    133 189.3  28.2  34088  288.35 0855.24
2009/04/23 08:52:03.0     -14   -131     65    132    147 186.2  27.3  34088  288.35 0855.24
2009/04/23 08:52:03.1       2   -141     51    142    150 179.0  20.0  34082  288.25 0855.24
2009/04/23 08:52:03.2       1   -136     62    137    150 179.5  26.2  34082  288.26 0855.24
2009/04/23 08:52:03.3       6   -138     66    139    153 177.4  27.2  34084  288.28 0855.25
2009/04/23 08:52:03.4      14   -131     49    132    140 173.7  21.0  34080  288.23 0855.25
2009/04/23 08:52:03.5      19   -116     53    118    129 170.7  26.2  34080  288.21 0855.25
2009/04/23 08:52:03.6      28    -80     45     85     96 160.4  30.3  34078  288.18 0855.25
2009/04/23 08:52:03.7      37    -24     76     45     88 123.3  66.8  34076  288.16 0855.25
2009/04/23 08:52:03.8     -39    -78    107     88    138 206.7  56.4  34074  288.11 0855.25
2009/04/23 08:52:03.9      10    -67     90     68    112 171.1  59.0  34074  288.11 0855.25
2009/04/23 08:52:04.0       5    -76     56     77     95 175.6  39.7  34076  288.14 0855.25
2009/04/23 08:52:04.1      -2    -69     24     70     75 181.8  18.9  34076  288.16 0855.25
2009/04/23 08:52:04.2       1    -73     14     74     76 179.1  11.1  34076  288.14 0855.25
2009/04/23 08:52:04.3      13    -68     11     70     71 169.3   9.0  34074  288.13 0855.25
2009/04/23 08:52:04.4       2    -80      8     81     82 178.2   5.9  34080  288.23 0855.25
2009/04/23 08:52:04.5      23    -78      5     82     83 163.5   3.8  34076  288.16 0855.25
2009/04/23 08:52:04.6      37    -72     23     81     85 152.8  15.8  34076  288.16 0855.25
2009/04/23 08:52:04.7      15    -78     26     80     85 168.9  18.4  34074  288.13 0855.25
2009/04/23 08:52:04.8      25    -93     33     97    103 164.9  18.9  34074  288.11 0855.25
2009/04/23 08:52:04.9      14    -90     31     92     98 170.7  18.9  34068  288.03 0855.25
2009/04/23 08:52:05.0      20    -85     26     88     92 166.6  16.8  34074  288.11 0855.25
2009/04/23 08:52:05.1       4    -78     38     79     87 176.4  27.2  34072  288.08 0855.25
2009/04/23 08:52:05.2      16    -62     25     65     69 165.7  22.0  34076  288.16 0855.25
2009/04/23 08:52:05.3      39    -63     44     75     86 148.4  33.5  34082  288.25 0855.25
2009/04/23 08:52:05.4      23    -68     51     73     89 160.8  38.6  34084  288.30 0855.25
2009/04/23 08:52:05.5      -2    -70     50     71     86 181.8  38.6  34090  288.38 0855.25
2009/04/23 08:52:05.6      21    -56     48     60     76 159.1  43.7  34096  288.48 0855.25
2009/04/23 08:52:05.7      25    -42     51     50     71 149.3  50.1  34104  288.62 0855.25
2009/04/23 08:52:05.8      26    -46     46     54     70 150.1  43.8  34098  288.52 0855.25
2009/04/23 08:52:05.9      43    -46     52     64     82 136.8  43.7  34096  288.50 0855.25
2009/04/23 08:52:06.0      60    -29     48     67     82 116.2  39.1  34098  288.53 0855.25
2009/04/23 08:52:06.1      31    -26     50     41     64 129.6  56.4  34094  288.45 0855.25
2009/04/23 08:52:06.2      36     -6     42     37     55  99.7  54.3  34090  288.40 0855.25
2009/04/23 08:52:06.3      44      4     43     45     62  83.9  49.0  34086  288.31 0855.25
2009/04/23 08:52:06.4       9    -29     63     31     70 161.3  72.8  34080  288.21 0855.25
2009/04/23 08:52:06.5      75      1     68     76    101  89.2  46.9  34078  288.18 0855.25
2009/04/23 08:52:06.6      12      0     66     13     67  90.0  89.1  34076  288.16 0855.25
2009/04/23 08:52:06.7      39    -20     58     44     72 117.1  58.5  34078  288.18 0855.25
2009/04/23 08:52:06.8      -7     -6     44     10     45 226.9  88.0  34076  288.16 0855.25
2009/04/23 08:52:06.9     -12    -37     78     39     87 198.3  71.9  34074  288.11 0855.25
2009/04/23 08:52:07.0       4    -57     80     58     98 175.5  60.5  34078  288.20 0855.25
2009/04/23 08:52:07.1      32     -9     54     34     63 106.8  64.7  34082  288.25 0855.25
2009/04/23 08:52:07.2      46    -22     50     52     72 116.2  50.0  34082  288.25 0855.25
2009/04/23 08:52:07.3      62    -26     40     68     78 112.6  33.5  34082  288.25 0855.25
2009/04/23 08:52:07.4      54    -58     30     80     85 136.7  21.5  34092  288.42 0855.25
2009/04/23 08:52:07.5      48    -50     33     70     77 136.7  27.1  34088  288.35 0855.25
2009/04/23 08:52:07.6      29    -30     55     43     69 135.9  57.5  34090  288.38 0855.25
2009/04/23 08:52:07.7      22    -27     44     36     56 140.4  56.4  34098  288.52 0855.25
2009/04/23 08:52:07.8      24     -7     47     26     53 106.8  68.8  34106  288.67 0855.25
2009/04/23 08:52:07.9       7     -7     35     11     36 135.0  80.7  34106  288.65 0855.25
2009/04/23 08:52:08.0      -7    -44     59     45     74 189.8  58.5  34094  288.45 0855.25
2009/04/23 08:52:08.1      -5    -54     73     55     91 186.2  59.0  34084  288.30 0855.25
2009/04/23 08:52:08.2      52    -16     54     55     77 107.7  51.1  34082  288.26 0855.25
2009/04/23 08:52:08.3      49    -82     81     96    125 149.3  44.3  34072  288.09 0855.25
2009/04/23 08:52:08.4      71   -140    136    158    208 152.9  45.1  34070  288.04 0855.25
2009/04/23 08:52:08.5      80   -148    124    169    209 151.5  39.9  34070  288.06 0855.25
2009/04/23 08:52:08.6      80   -170     48    188    195 154.8  14.5  34070  288.04 0855.25
2009/04/23 08:52:08.7      22   -174      1    176    177 172.7   0.5  34068  288.01 0855.25
2009/04/23 08:52:08.8      62   -143     70    157    171 156.4  25.7  34066  287.98 0855.25
2009/04/23 08:52:08.9      96   -166     78    193    208 149.9  23.0  34066  287.99 0855.25
2009/04/23 08:52:09.0     117   -179     74    214    227 146.8  19.2  34066  287.98 0855.25
2009/04/23 08:52:09.1     119   -200     91    233    250 149.3  22.5  34066  287.99 0855.25
2009/04/23 08:52:09.2      94   -196     62    218    227 154.4  16.0  34064  287.96 0855.25
2009/04/23 08:52:09.4      83   -184     36    202    206 155.7  10.3  34066  287.98 0855.26
2009/04/23 08:52:09.5     113   -176     12    210    211 147.4   3.3  34066  287.98 0855.26
2009/04/23 08:52:09.6     107   -179     31    209    212 149.0   8.5  34066  287.99 0855.26
2009/04/23 08:52:09.7      66   -180     33    192    195 159.7   9.9  34062  287.92 0855.26
2009/04/23 08:52:09.8      58   -196    102    205    228 163.3  28.2  34064  287.96 0855.26
2009/04/23 08:52:09.9      37   -167    104    172    200 167.3  34.0  34066  287.98 0855.26
2009/04/23 08:52:10.0      41   -152     87    158    180 164.8  31.3  34064  287.96 0855.26
2009/04/23 08:52:10.1      51   -167    103    175    203 162.8  33.5  34064  287.94 0855.26
2009/04/23 08:52:10.2      45   -159    111    166    199 164.2  37.0  34062  287.92 0855.26
2009/04/23 08:52:10.3      18   -167    117    169    205 173.8  37.8  34062  287.91 0855.26
2009/04/23 08:52:10.4      -5   -190    122    191    226 181.6  35.6  34062  287.91 0855.25
2009/04/23 08:52:10.5      -3   -193     95    194    216 180.9  27.8  34062  287.92 0855.25
2009/04/23 08:52:10.6      24   -217     75    219    232 173.5  18.9  34064  287.94 0855.25
2009/04/23 08:52:10.7       3   -221     35    222    225 179.1   9.0  34062  287.92 0855.25
2009/04/23 08:52:10.8      -9   -200     31    201    204 182.7   9.0  34062  287.92 0855.25
2009/04/23 08:52:10.9      -7   -181     35    182    186 182.5  11.1  34062  287.92 0855.25
2009/04/23 08:52:11.0      -1   -159     30    160    163 180.5  10.8  34062  287.92 0855.25
2009/04/23 08:52:11.1       2   -141     22    142    144 179.0   8.9  34062  287.92 0855.25
2009/04/23 08:52:11.2      -8   -133     22    134    136 183.6   9.5  34062  287.92 0855.25
2009/04/23 08:52:11.3     -16   -116      0    118    119 188.0  -0.3  34064  287.94 0855.25
2009/04/23 08:52:11.4     -30   -129    -16    133    135 193.4  -7.2  34064  287.94 0855.25
2009/04/23 08:52:11.5     -14   -128    -30    129    133 186.3 -13.3  34064  287.94 0855.25
2009/04/23 08:52:11.6      15   -144    -18    145    147 173.8  -7.2  34066  287.98 0855.25
2009/04/23 08:52:11.7       0   -140     -5    141    142 180.0  -2.2  34064  287.96 0855.25
2009/04/23 08:52:11.8      -5   -132     -4    133    134 182.2  -1.8  34066  287.98 0855.25
2009/04/23 08:52:11.9      -9   -124      0    125    126 184.4  -0.3  34064  287.94 0855.25
2009/04/23 08:52:12.0       8   -108      5    109    110 175.6   2.8  34064  287.96 0855.25
2009/04/23 08:52:12.1       8   -133     11    134    135 176.4   4.9  34062  287.92 0855.25
2009/04/23 08:52:12.2      28   -139     10    142    143 168.4   4.4  34062  287.91 0855.25
2009/04/23 08:52:12.3      36   -136     12    141    142 164.8   4.9  34062  287.92 0855.25
2009/04/23 08:52:12.4      36   -136     12    141    142 164.8   4.9  34062  287.92 0855.26
2009/04/23 08:52:12.5      30   -128      6    132    133 166.6   2.9  34062  287.91 0855.26
2009/04/23 08:52:12.6       9   -121      1    122    123 175.6   0.7  34060  287.87 0855.26
2009/04/23 08:52:12.7      28   -105      5    109    110 164.8   2.9  34060  287.87 0855.26
2009/04/23 08:52:12.8      41    -94     12    103    104 156.4   7.1  34060  287.87 0855.26
2009/04/23 08:52:12.9      44    -94     36    105    112 154.7  18.9  34060  287.89 0855.26
2009/04/23 08:52:13.0      47    -93     46    105    114 152.8  25.1  34060  287.87 0855.26
2009/04/23 08:52:13.1      60   -107     33    123    128 150.6  15.3  34062  287.92 0855.26
2009/04/23 08:52:13.2      51   -107     37    119    125 154.5  17.3  34062  287.91 0855.26
2009/04/23 08:52:13.3      60   -104     43    121    128 150.1  20.4  34060  287.89 0855.26
2009/04/23 08:52:13.4      34   -147     60    152    163 166.7  22.5  34060  287.87 0855.26
2009/04/23 08:52:13.5      40   -126     45    133    141 162.2  18.9  34060  287.89 0855.26
2009/04/23 08:52:13.6      45   -120     78    129    150 159.5  34.0  34062  287.92 0855.26
2009/04/23 08:52:13.7      39   -108    103    115    154 160.0  46.4  34064  287.96 0855.26
2009/04/23 08:52:13.8      56    -88     87    105    136 147.5  43.8  34062  287.92 0855.26
2009/04/23 08:52:13.9      70    -94     74    118    139 143.5  35.5  34064  287.94 0855.26
2009/04/23 08:52:14.0      81   -102     30    131    135 141.7  13.2  34060  287.89 0855.26
2009/04/23 08:52:14.1      88    -94      6    130    131 136.8   2.8  34062  287.92 0855.26
2009/04/23 08:52:14.2      83   -105      1    134    135 141.7   0.7  34062  287.91 0855.26
2009/04/23 08:52:14.3      96    -96      2    137    138 135.0   1.2  34062  287.91 0855.26
2009/04/23 08:52:14.4      90    -65      5    112    113 125.9   2.9  34062  287.92 0855.26
2009/04/23 08:52:14.5      83    -56     35    101    107 124.2  19.2  34064  287.94 0855.26
2009/04/23 08:52:14.6      64    -71     50     96    108 138.1  29.3  34066  287.99 0855.26
2009/04/23 08:52:14.7      84    -84     30    120    124 135.0  14.3  34064  287.96 0855.26
2009/04/23 08:52:14.8      56    -70     47     90    101 141.3  29.8  34062  287.91 0855.26
2009/04/23 08:52:14.9      32    -96     63    102    119 161.7  34.4  34062  287.91 0855.26
2009/04/23 08:52:15.0      35    -72     42     81     91 153.7  29.3  34062  287.92 0855.26
2009/04/23 08:52:15.1      -7    -90     67     91    113 184.5  40.1  34062  287.92 0855.26
2009/04/23 08:52:15.2      33   -105     96    111    146 162.6  45.4  34064  287.96 0855.26
2009/04/23 08:52:15.3      26   -107     39    111    118 166.2  19.4  34060  287.89 0855.26
2009/04/23 08:52:15.4       0    -84     20     85     88 180.0  13.2  34062  287.91 0855.26
2009/04/23 08:52:15.5      12    -63     33     65     72 168.5  28.2  34062  287.92 0855.26
2009/04/23 08:52:15.6      31    -56     57     65     86 151.1  46.4  34060  287.89 0855.26
2009/04/23 08:52:15.7       5    -67     72     68     99 175.5  51.6  34064  287.96 0855.26
2009/04/23 08:52:15.8      26    -27     58     38     69 136.6  64.6  34064  287.96 0855.26
2009/04/23 08:52:15.9      49     -3     59     50     77  94.4  56.3  34066  287.98 0855.26
2009/04/23 08:52:16.0      44      7     57     45     72  80.3  56.4  34068  288.01 0855.26
2009/04/23 08:52:16.1      36     -3     57     37     67  96.1  64.6  34064  287.94 0855.26
2009/04/23 08:52:16.2      57     15     65     60     88  74.9  52.2  34062  287.92 0855.26
2009/04/23 08:52:16.3      73     35     72     82    109  64.2  46.4  34068  288.03 0855.26
2009/04/23 08:52:16.4      85     70     65    111    128  50.4  33.5  34076  288.14 0855.26
2009/04/23 08:52:16.5      65     51     78     84    114  51.8  48.0  34076  288.14 0855.26
2009/04/23 08:52:16.6      75     30     57     81     99  67.8  39.1  34072  288.09 0855.26
2009/04/23 08:52:16.7      63     48      6     80     81  52.7   4.9  34070  288.04 0855.26
2009/04/23 08:52:16.8      66     26    -23     72     75  68.3 -23.8  34064  287.94 0855.26
2009/04/23 08:52:16.9      78     31     -7     85     86  68.3  -5.2  34066  287.99 0855.26
2009/04/23 08:52:17.0      71     23    -21     75     77  71.4 -20.7  34076  288.14 0855.26
2009/04/23 08:52:17.1      87     22    -22     90     93  75.4 -13.9  34078  288.20 0855.26
2009/04/23 08:52:17.2     103     34    -18    109    111  71.8  -9.3  34070  288.06 0855.26
2009/04/23 08:52:17.3     114     70     -8    134    135  58.5  -3.7  34120  288.89 0855.26
2009/04/23 08:52:17.4     131     61     38    145    150  64.8  14.7  34128  289.02 0855.26
2009/04/23 08:52:17.5     110     78    107    136    173  54.5  42.2  34136  289.18 0855.26
2009/04/23 08:52:17.6     140     81    149    162    220  59.8  47.7  34140  289.24 0855.26
2009/04/23 08:52:17.7     175     73    129    190    229  67.2  37.4  34176  289.85 0855.26
2009/04/23 08:52:17.8     111     60    134    127    184  61.6  51.6  34164  289.65 0855.26
2009/04/23 08:52:17.9     132     62    132    146    196  64.8  46.9  34198  290.23 0855.26
2009/04/23 08:52:18.0     178     38    171    183    250  77.8  47.9  34216  290.52 0855.26
2009/04/23 08:52:18.1     188     48    141    195    240  75.6  39.7  34196  290.19 0855.26
2009/04/23 08:52:18.2     182     14    127    183    222  85.4  38.0  34196  290.19 0855.26
2009/04/23 08:52:18.3     214      3    132    215    252  89.1  34.5  34186  290.00 0855.26
2009/04/23 08:52:18.4     143     24    102    146    178  80.4  38.6  34176  289.85 0855.26
2009/04/23 08:52:18.5     162     25    126    165    207  81.0  41.4  34114  288.79 0855.26
2009/04/23 08:52:18.6     165     -4     48    166    173  91.5  16.3  34076  288.14 0855.26
2009/04/23 08:52:18.7     241      7    -17    242    243  88.1  -4.1  34112  288.75 0855.26
2009/04/23 08:52:18.8     211     24     33    213    216  83.4   9.0  34112  288.75 0855.26
2009/04/23 08:52:18.9     259      7    -18    260    261  88.3  -4.1  34098  288.51 0855.26
2009/04/23 08:52:19.0     307     23     32    308    310  85.6   6.1  34076  288.15 0855.26
2009/04/23 08:52:19.1     280     67     26    288    290  76.5   5.2  34072  288.09 0855.26
2009/04/23 08:52:19.2     302     24     -6    303    304  85.4  -1.3  34064  287.95 0855.26
2009/04/23 08:52:19.3     220     56     -8    228    229  75.6  -2.2  34070  288.04 0855.26
2009/04/23 08:52:19.4     181     40    -41    186    191  77.4 -12.6  34070  288.06 0855.26
2009/04/23 08:52:19.5     120     78    -58    144    155  57.1 -27.4  34070  288.06 0855.26
2009/04/23 08:52:19.6     135     75    -77    155    173  60.7 -32.9  34074  288.11 0855.26
2009/04/23 08:52:19.7     101     64   -123    120    171  57.5 -55.1  34080  288.21 0855.26
2009/04/23 08:52:19.8      97     48   -102    109    149  63.4 -52.4  34096  288.48 0855.26
2009/04/23 08:52:19.9     105     -1    -88    106    137  90.8 -48.2  34112  288.77 0855.26
2009/04/23 08:52:20.0     131     44    -56    139    149  71.4 -27.4  34110  288.74 0855.26
2009/04/23 08:52:20.1     137     42    -28    144    147  72.7 -11.3  34110  288.72 0855.26
2009/04/23 08:52:20.2     140    -12    -67    141    156  95.2 -31.6  34122  288.94 0855.26
2009/04/23 08:52:20.3     191    -38    -81    195    211 101.4 -28.2  34146  289.33 0855.26
2009/04/23 08:52:20.4     180     -7    -65    181    192  92.4 -24.6  34148  289.38 0855.26
2009/04/23 08:52:20.5     160    -21    -48    162    168  97.7 -21.5  34124  288.97 0855.26
2009/04/23 08:52:20.6     159     34    -28    163    166  77.8  -9.8  34104  288.64 0855.26
2009/04/23 08:52:20.7     162      2    -63    163    174  89.2 -26.1  34138  289.19 0855.26
2009/04/23 08:52:20.8     132      0    -59    133    145  90.4 -29.6  34136  289.16 0855.26
2009/04/23 08:52:20.9     148    -32     39    152    158 102.4  14.5  34102  288.60 0855.26
2009/04/23 08:52:21.0      84     30     -3     90     91  70.0  -2.2  34110  288.74 0855.26
2009/04/23 08:52:21.1      60     34    -39     70     80  60.2 -35.8  34112  288.77 0855.26
2009/04/23 08:52:21.2     124     31    -35    128    133  75.8 -15.5  34128  289.02 0855.26
2009/04/23 08:52:21.3     148     67    -25    163    165  65.6  -8.8  34134  289.14 0855.26
2009/04/23 08:52:21.4     150     57    -15    161    162  68.9  -5.6  34128  289.02 0855.26
2009/04/23 08:52:21.5     134     91    -18    162    164  55.8  -6.5  34140  289.23 0855.26
2009/04/23 08:52:21.6     164     20     21    166    168  82.8   7.5  34110  288.72 0855.26
2009/04/23 08:52:21.7     183     60     79    193    208  71.8  23.4  34102  288.58 0855.26
2009/04/23 08:52:21.8     162     14     45    163    170  84.8  15.6  34094  288.47 0855.26
2009/04/23 08:52:21.9     159     51     14    168    169  72.1   4.9  34096  288.48 0855.26
2009/04/23 08:52:22.0     184     47     22    190    192  75.6   6.9  34098  288.53 0855.26
2009/04/23 08:52:22.1     199     32     79    202    216  80.8  22.8  34092  288.42 0855.26
2009/04/23 08:52:22.2     176     45     16    182    183  75.6   5.2  34086  288.31 0855.26
2009/04/23 08:52:22.3     175     58     60    185    195  71.4  17.9  34090  288.40 0855.26
2009/04/23 08:52:22.4     174      7     63    175    185  87.4  20.2  34088  288.35 0855.26
2009/04/23 08:52:22.5     165     49     31    173    176  73.4  10.3  34086  288.33 0855.26
2009/04/23 08:52:22.6     181     13     73    182    196  85.6  23.0  34092  288.42 0855.26
2009/04/23 08:52:22.7     196      8     57    197    206  87.4  16.3  34094  288.45 0855.26
2009/04/23 08:52:22.8     160     77    108    178    208  64.2  34.2  34214  290.48 0855.26
2009/04/23 08:52:22.9     176     27    101    179    205  81.0  31.9  34122  288.92 0855.26
2009/04/23 08:52:23.0     216     14    111    217    243  86.3  29.3  34128  289.02 0855.26
2009/04/23 08:52:23.1     170     38     87    175    195  77.4  28.5  34182  289.96 0855.26
2009/04/23 08:52:23.2      97     22     67    100    120  76.7  37.4  34160  289.57 0855.26
2009/04/23 08:52:23.3     102    -62     52    120    130 121.1  25.1  34096  288.48 0855.26
2009/04/23 08:52:23.4      94    -33     53    100    113 109.5  29.8  34088  288.35 0855.26
2009/04/23 08:52:23.5     104     13    101    105    145  82.5  49.0  34118  288.86 0855.26
2009/04/23 08:52:23.6      87    -42     87     97    130 116.2  46.4  34088  288.35 0855.26
2009/04/23 08:52:23.7      65    -65     87     93    127 135.0  48.0  34074  288.11 0855.26
2009/04/23 08:52:23.8      53    -88     90    104    137 148.8  45.8  34070  288.04 0855.26
2009/04/23 08:52:23.9      91    -91    101    130    164 135.0  41.7  34068  288.03 0855.26
2009/04/23 08:52:24.0      11   -142     93    143    170 175.5  36.0  34068  288.01 0855.26
2009/04/23 08:52:24.1      14   -165    106    166    196 175.1  35.6  34072  288.08 0855.26
2009/04/23 08:52:24.2      12   -158    120    159    199 175.5  40.9  34068  288.01 0855.26
2009/04/23 08:52:24.3      32   -170     88    174    194 169.3  28.7  34066  287.98 0855.26
2009/04/23 08:52:24.4     -12   -158    145    159    215 184.4  47.5  34072  288.08 0855.26
2009/04/23 08:52:24.5      10   -134    122    135    181 175.6  47.1  34072  288.08 0855.26
2009/04/23 08:52:24.6      36   -136     89    141    166 164.9  35.5  34068  288.01 0855.26
2009/04/23 08:52:24.7      15    -79    101     81    129 168.9  56.9  34070  288.06 0855.26
2009/04/23 08:52:24.8      45   -135     98    143    173 161.3  37.6  34066  287.98 0855.26
2009/04/23 08:52:24.9      55   -180     96    189    211 163.1  29.1  34060  287.89 0855.26
2009/04/23 08:52:25.0     -33   -178    133    182    225 190.5  39.7  34064  287.94 0855.26
2009/04/23 08:52:25.1     -23   -215    139    217    257 186.2  35.6  34062  287.92 0855.26
2009/04/23 08:52:25.2     -61   -222    104    231    253 195.4  26.2  34080  288.21 0855.26
2009/04/23 08:52:25.3      36   -217    153    221    268 170.4  38.0  34060  287.88 0855.26
2009/04/23 08:52:25.4      17   -224    132    225    260 175.5  33.4  34064  287.95 0855.26
2009/04/23 08:52:25.5     -37   -239     84    242    257 188.9  19.2  34058  287.85 0855.26
2009/04/23 08:52:25.6     -48   -282    125    287    313 189.8  25.1  34060  287.87 0855.26
2009/04/23 08:52:25.7     -36   -346    123    348    370 186.0  19.5  34064  287.96 0855.26
2009/04/23 08:52:25.8     -33   -294    107    296    315 186.5  19.9  34066  287.97 0855.26
2009/04/23 08:52:25.9      -4   -366    148    367    395 180.7  23.1  34066  287.98 0855.26
2009/04/23 08:52:26.0      -1   -365    159    366    399 180.3  25.0  34064  287.96 0855.26
2009/04/23 08:52:26.1       6   -327    121    328    349 178.9  21.0  34064  287.96 0855.26
2009/04/23 08:52:26.2     -16   -297     81    298    309 183.1  15.3  34066  287.99 0855.26
2009/04/23 08:52:26.3     -27   -276     56    278    284 185.6  11.6  34064  287.93 0855.27
2009/04/23 08:52:26.4     -71   -266     46    276    280 195.1   9.5  34066  287.99 0855.27
2009/04/23 08:52:26.5    -101   -266     88    285    299 200.9  17.3  34064  287.93 0855.27
2009/04/23 08:52:26.6    -168   -220    110    277    298 217.4  23.0  34078  288.19 0855.27
2009/04/23 08:52:26.7    -165   -193     98    254    272 220.5  22.1  34084  288.29 0855.27
2009/04/23 08:52:26.8     -44   -244    140    248    284 190.2  31.9  34062  287.92 0855.27
2009/04/23 08:52:26.9     -59   -340    129    346    369 189.9  21.3  34064  287.96 0855.27
2009/04/23 08:52:27.0     -85   -186    133    205    244 204.5  36.0  34068  288.03 0855.27
2009/04/23 08:52:27.1     -43   -128     81    136    158 198.7  33.5  34066  287.98 0855.27
2009/04/23 08:52:27.2      27   -135     17    138    140 168.4   7.1  34064  287.94 0855.27
2009/04/23 08:52:27.3     -59   -237    102    245    265 194.0  24.1  34064  287.93 0855.27
2009/04/23 08:52:27.4     -77   -231    167    244    295 198.5  37.6  34066  287.97 0855.27
2009/04/23 08:52:27.5     -45   -266     -1    270    271 189.7  -0.3  34076  288.14 0855.27
2009/04/23 08:52:27.6     -82   -249    -15    263    264 198.3  -3.3  34076  288.14 0855.27
2009/04/23 08:52:27.7    -179   -170    -68    248    258 226.4 -15.5  34062  287.92 0855.27
2009/04/23 08:52:27.8    -225   -131    -57    261    268 239.8 -12.4  34066  287.99 0855.27
2009/04/23 08:52:27.9    -229   -126    -72    262    272 241.1 -15.4  34070  288.05 0855.27
2009/04/23 08:52:28.0    -185   -137    -73    231    243 233.4 -17.5  34068  288.02 0855.27
2009/04/23 08:52:28.1    -208   -114    -39    238    242 241.1  -9.3  34078  288.19 0855.27
2009/04/23 08:52:28.2     -65    -88     28    110    114 216.5  14.3  34070  288.06 0855.27
2009/04/23 08:52:28.3      84   -123    -42    150    155 145.7 -20.4  34072  288.09 0855.26
2009/04/23 08:52:28.4      68    -83    -36    108    113 140.4 -23.6  34070  288.06 0855.26
2009/04/23 08:52:28.5      92    -69     17    116    118 126.9   8.5  34068  288.01 0855.26
2009/04/23 08:52:28.6      37    -51    -22     64     68 144.0 -19.7  34068  288.01 0855.26
2009/04/23 08:52:28.7      29   -114     -7    118    119 165.7  -3.7  34070  288.04 0855.26
2009/04/23 08:52:28.8       0    -79     32     80     86 180.0  22.5  34066  287.99 0855.26
2009/04/23 08:52:28.9      92    -31    100     98    140 108.6  50.1  34062  287.92 0855.26
2009/04/23 08:52:29.0      53    -55    112     77    135 135.9  62.6  34060  287.89 0855.26
2009/04/23 08:52:29.1      40    -20     98     45    107 117.1  73.5  34060  287.89 0855.26
2009/04/23 08:52:29.2     120   -106    163    161    229 131.3  50.1  34062  287.91 0855.26
2009/04/23 08:52:29.3     110    -95    126    146    192 130.9  45.4  34062  287.92 0855.26
2009/04/23 08:52:29.4     122   -150    115    194    225 141.0  33.5  34066  287.98 0855.26
2009/04/23 08:52:29.5      92   -211    109    231    255 156.4  27.1  34066  287.99 0855.26
2009/04/23 08:52:29.6      33   -240    108    243    265 172.0  25.7  34066  287.99 0855.26
2009/04/23 08:52:29.7      15   -210    116    211    240 175.8  31.3  34064  287.96 0855.26
2009/04/23 08:52:29.8      22   -207    115    209    238 173.7  31.4  34064  287.94 0855.26
2009/04/23 08:52:29.9     -51   -141    129    151    198 200.0  45.1  34060  287.87 0855.26
2009/04/23 08:52:30.0    -100   -181    114    207    236 209.0  31.3  34062  287.91 0855.26
2009/04/23 08:52:30.1    -138   -201     30    245    247 214.5   7.2  34062  287.90 0855.26
2009/04/23 08:52:30.2     -74   -134     98    154    182 208.9  35.5  34060  287.89 0855.26
2009/04/23 08:52:30.3     -60    -59     90     85    123 225.6  51.6  34064  287.96 0855.27
2009/04/23 08:52:30.4     -60   -119    103    134    169 206.7  41.4  34066  287.99 0855.27
2009/04/23 08:52:30.5     -65   -185     78    197    211 199.6  22.8  34062  287.92 0855.27
2009/04/23 08:52:30.6     -12   -167     89    168    190 184.2  30.1  34062  287.92 0855.27
2009/04/23 08:52:30.7       6   -118     97    119    153 176.9  43.7  34062  287.92 0855.27
2009/04/23 08:52:30.8       0     -7    129      8    129 182.7  90.0  34066  287.99 0855.27
2009/04/23 08:52:30.9     138   -220    138    260    294 147.9  30.3  34062  287.90 0855.27
2009/04/23 08:52:31.0       4   -292     -1    293    294 179.1  -0.3  34064  287.93 0855.27
2009/04/23 08:52:31.1     -35   -277     97    280    297 187.2  19.2  34062  287.90 0855.27
2009/04/23 08:52:31.2       7   -270    101    271    289 178.4  21.0  34058  287.85 0855.27
2009/04/23 08:52:31.3      -5   -303    132    304    331 181.0  24.9  34062  287.90 0855.27
2009/04/23 08:52:31.4     -41   -296    188    299    353 188.0  35.2  34060  287.89 0855.27
2009/04/23 08:52:31.5    -104   -260    190    281    339 201.8  37.2  34064  287.95 0855.27
2009/04/23 08:52:31.6      18   -240    154    241    286 175.6  35.6  34062  287.92 0855.27
2009/04/23 08:52:31.7      35   -183     49    187    194 169.1  14.7  34060  287.89 0855.27
2009/04/23 08:52:31.8     -32   -241    131    244    276 187.6  30.6  34060  287.88 0855.27
2009/04/23 08:52:31.9     -41   -264    175    268    320 188.9  36.2  34062  287.92 0855.27
2009/04/23 08:52:32.0      42   -274    144    278    313 171.1  29.5  34060  287.87 0855.27
2009/04/23 08:52:32.1      52   -324    164    329    367 170.9  28.5  34064  287.94 0855.27
2009/04/23 08:52:32.2      33   -243    137    246    281 172.2  31.4  34062  287.92 0855.27
2009/04/23 08:52:32.3     -41   -186    162    191    250 192.5  44.8  34060  287.87 0855.27
2009/04/23 08:52:32.4     -48   -199    136    205    246 193.6  36.5  34062  287.92 0855.27
2009/04/23 08:52:32.5      -7   -110    163    111    197 183.6  62.6  34060  287.89 0855.27
2009/04/23 08:52:32.6      -7    -38    148     39    153 191.5  84.9  34064  287.96 0855.27
2009/04/23 08:52:32.7     -25    -57    133     63    147 203.6  72.9  34064  287.96 0855.27
2009/04/23 08:52:32.8      39    -17    133     43    139 114.4  80.7  34066  287.98 0855.27
2009/04/23 08:52:32.9      -1    -72    156     73    172 180.9  73.2  34062  287.92 0855.27
2009/04/23 08:52:33.0      56    -59    117     82    142 136.8  62.1  34062  287.92 0855.27
2009/04/23 08:52:33.1     126    -93    159    157    223 126.4  50.1  34064  287.96 0855.27
2009/04/23 08:52:33.2      74    -83    118    112    162 138.6  51.4  34062  287.91 0855.27
2009/04/23 08:52:33.3     130    -67     87    147    170 117.5  33.5  34064  287.94 0855.27
2009/04/23 08:52:33.4     127    -39    117    134    177 107.3  45.8  34060  287.87 0855.27
2009/04/23 08:52:33.5     102     11    113    103    152  83.4  52.2  34070  288.04 0855.27
2009/04/23 08:52:33.6      38    -30     83     49     96 128.6  66.2  34070  288.04 0855.27
2009/04/23 08:52:33.7     -10     35     60     37     70 343.1  64.7  34076  288.14 0855.27
2009/04/23 08:52:33.8     -19     23     56     30     63 320.4  68.9  34072  288.09 0855.27
2009/04/23 08:52:33.9     -19      6     23     21     31 288.4  52.2  34076  288.14 0855.27
2009/04/23 08:52:34.0     -22      7     24     24     33 288.6  50.1  34074  288.13 0855.27
2009/04/23 08:52:34.1      -3     32     39     33     51 353.8  55.4  34072  288.09 0855.27
2009/04/23 08:52:34.2      10      9     64     14     65  46.7  89.0  34068  288.03 0855.27
2009/04/23 08:52:34.3     -19     21     63     29     69 318.6  73.1  34068  288.01 0855.27
2009/04/23 08:52:34.4     -28     18     77     34     84 302.4  75.5  34068  288.01 0855.27
2009/04/23 08:52:34.5     -32     10     69     34     76 288.4  72.8  34062  287.92 0855.27
2009/04/23 08:52:34.6     -48     -1     48     49     68 268.3  51.1  34066  287.98 0855.27
2009/04/23 08:52:34.7     -43      8     53     44     68 280.6  56.3  34064  287.94 0855.27
2009/04/23 08:52:34.8     -59     77     44     98    107 322.6  26.2  34064  287.94 0855.27
2009/04/23 08:52:34.9     -70     49     30     86     92 305.5  19.2  34064  287.94 0855.27
2009/04/23 08:52:35.0     -68    107     32    128    133 327.5  14.3  34062  287.92 0855.27
2009/04/23 08:52:35.1     -50    105     19    117    119 334.5   9.5  34060  287.87 0855.27
2009/04/23 08:52:35.2     -73     98     -2    123    124 323.5  -1.2  34062  287.92 0855.27
2009/04/23 08:52:35.3     -65    119      6    136    137 331.1   2.9  34062  287.92 0855.28
2009/04/23 08:52:35.4     -39    131      2    137    138 343.1   1.2  34060  287.89 0855.28
2009/04/23 08:52:35.5      59     94     63    112    128  32.1  31.9  34060  287.89 0855.28
2009/04/23 08:52:35.7      40    100     53    108    120  21.8  27.8  34060  287.87 0855.28
2009/04/23 08:52:35.7      23     93     44     97    106  14.3  26.2  34060  287.89 0855.28
2009/04/23 08:52:35.8      21     97     29    100    105  12.5  16.3  34062  287.92 0855.28
2009/04/23 08:52:36.0      28     59     22     66     70  25.4  18.4  34062  287.92 0855.28
2009/04/23 08:52:36.1      21     32     28     39     48  32.6  38.6  34062  287.92 0855.28
2009/04/23 08:52:36.2      26      0     26     27     37  90.0  52.0  34060  287.89 0855.28
2009/04/23 08:52:36.3      26     -8     53     28     59 108.6  69.8  34058  287.84 0855.28
2009/04/23 08:52:36.4     -19    -52     20     56     59 200.0  20.0  34058  287.86 0855.28
2009/04/23 08:52:36.5     -48    -45      3     67     68 226.9   2.8  34058  287.84 0855.28
2009/04/23 08:52:36.6    -192    -68    -18    204    205 250.3  -5.2  34050  287.70 0855.28
2009/04/23 08:52:36.7    -172    -55    -39    181    186 252.1 -12.2  34046  287.65 0855.28
2009/04/23 08:52:36.8    -221    -10     27    222    224 267.2   7.1  34050  287.72 0855.28
2009/04/23 08:52:36.9    -226     44     27    231    233 281.2   6.9  34050  287.70 0855.28
2009/04/23 08:52:37.0    -258    -19    -32    259    262 265.7  -7.2  34054  287.77 0855.28
2009/04/23 08:52:37.1    -263    -87    -92    278    292 251.6 -23.8  34054  287.78 0855.28
2009/04/23 08:52:37.2    -228   -144     -5    270    271 237.8  -1.3  34054  287.77 0855.28
2009/04/23 08:52:37.3    -225    -38    142    229    269 260.4  35.0  34052  287.75 0855.28
2009/04/23 08:52:37.4    -225    -45     69    230    241 258.5  16.8  34050  287.71 0855.28
2009/04/23 08:52:37.5    -219     -3     93    220    238 269.1  24.1  34052  287.75 0855.28
2009/04/23 08:52:37.6    -159    -46     21    166    168 253.8   7.2  34054  287.79 0855.28
2009/04/23 08:52:37.7    -182    -64    -65    194    205 250.5 -18.7  34054  287.77 0855.28
2009/04/23 08:52:37.8    -171   -196      7    261    262 221.0   1.7  34050  287.70 0855.28
2009/04/23 08:52:37.9    -170   -137    127    219    253 231.1  32.7  34052  287.75 0855.28
2009/04/23 08:52:38.0    -193    -87    139    212    253 245.6  36.3  34056  287.80 0855.28
2009/04/23 08:52:38.1    -124    -98     79    159    177 231.8  28.2  34048  287.69 0855.28
2009/04/23 08:52:38.2       0     53    113     54    125   0.9  72.9  34058  287.86 0855.28
2009/04/23 08:52:38.3     -21     75     60     79     99 344.0  40.7  34074  288.11 0855.28
2009/04/23 08:52:38.4     -63     41    101     76    126 303.3  59.4  34070  288.04 0855.28
2009/04/23 08:52:38.5    -122     32     96    127    159 285.0  40.9  34064  287.96 0855.28
2009/04/23 08:52:38.6    -137     20     90    139    165 278.4  35.7  34070  288.04 0855.28
2009/04/23 08:52:38.7    -153      2     97    154    182 270.8  35.5  34078  288.20 0855.28
2009/04/23 08:52:38.8    -141    -44     51    148    157 252.3  19.2  34064  287.96 0855.28
2009/04/23 08:52:38.9     -94   -113     34    148    152 219.6  13.1  34060  287.89 0855.28
2009/04/23 08:52:39.0     -66   -139     48    155    163 205.5  17.3  34060  287.89 0855.28
2009/04/23 08:52:39.1       1   -114     94    115    148 179.1  43.7  34048  287.67 0855.28
2009/04/23 08:52:39.2      29    -74    102     80    129 158.2  57.9  34050  287.70 0855.28
2009/04/23 08:52:39.3      34    -25     94     43    103 126.0  74.0  34054  287.77 0855.28
2009/04/23 08:52:39.4      35     -4    103     36    109  97.9  81.2  34056  287.82 0855.28
2009/04/23 08:52:39.5      52      0     85     53    100  90.8  64.7  34058  287.84 0855.28
2009/04/23 08:52:39.6     103     25    122    106    161  76.3  54.6  34072  288.08 0855.28
2009/04/23 08:52:39.7      96     18    100     98    140  79.0  50.1  34070  288.06 0855.28
2009/04/23 08:52:39.8     160     -2     86    161    182  90.9  30.6  34068  288.01 0855.28
2009/04/23 08:52:39.9      35      2     62     36     71  85.6  66.8  34074  288.11 0855.28
2009/04/23 08:52:40.0      64     35    135     74    153  61.2  68.8  34074  288.11 0855.28
2009/04/23 08:52:40.1     162     63     92    174    196  68.7  30.1  34062  287.92 0855.28
2009/04/23 08:52:40.2      81     36    128     89    155  66.0  62.6  34074  288.11 0855.28
2009/04/23 08:52:40.3      12      0    163     13    163  90.0  90.0  34072  288.08 0855.28
2009/04/23 08:52:40.4       1     10    115     11    115   8.0  90.0  34078  288.20 0855.28
2009/04/23 08:52:40.5      43    -21     94     49    106 116.2  70.4  34078  288.18 0855.28
2009/04/23 08:52:40.6     209      9     98    210    231  87.4  27.1  34092  288.43 0855.28
2009/04/23 08:52:40.7     137     49    102    146    178  70.1  38.6  34108  288.69 0855.28
2009/04/23 08:52:40.8     129     57    174    142    224  66.0  56.4  34144  289.31 0855.28
2009/04/23 08:52:40.9     151    128    105    199    225  49.6  30.1  34116  288.82 0855.28
2009/04/23 08:52:41.0     190     20     66    192    204  83.9  18.9  34124  288.96
    183    151    172    238    293  50.5  39.7  34118  288.85
    212    130    169    249    300  58.5  37.4  34190  290.07
    202    151     88    253    268  53.2  19.2  34148  289.37
    233     89    172    250    303  69.1  37.8  34238  290.88 0855.28
2009/04/23 08:52:41.6     222    196    178    297    346  48.6  33.8  34188  290.06 0855.28
2009/04/23 08:52:41.7     208    211    156    297    335  44.5  30.1  34188  290.03 0855.28
2009/04/23 08:52:41.8     171    172    112    243    267  44.8  26.4  34162  289.61 0855.28
2009/04/23 08:52:41.9     141    208     31    252    255  34.2   7.2  34168  289.70 0855.28
2009/04/23 08:52:42.0     138    204     -7    247    248  34.1  -1.8  34130  289.05 0855.28
2009/04/23 08:52:42.1     155    187     12    243    244  39.6   2.9  34124  288.97 0855.28
2009/04/23 08:52:42.2     185    203      8    275    276  42.3   1.8  34136  289.15 0855.28
2009/04/23 08:52:42.3     197    185      3    271    272  46.8   0.8  34144  289.29 0855.28
2009/04/23 08:52:42.4     233    165    -20    286    287  54.7  -4.1  34138  289.19 0855.28
2009/04/23 08:52:42.5     269    148     15    307    308  61.2   2.9  34216  290.53 0855.28
2009/04/23 08:52:42.6     290    179     24    342    343  58.3   4.0  34184  289.99 0855.28
2009/04/23 08:52:42.7     394    150     60    422    427  69.1   8.1  34238  290.89 0855.28
2009/04/23 08:52:42.8     321     87    186    333    381  74.8  31.4  34242  290.96 0855.28
2009/04/23 08:52:42.9     368    157     83    401    410  66.9  11.8  34114  288.80 0855.28
2009/04/23 08:52:43.0     307    146    120    341    361  64.5  20.1  34132  289.11 0855.28
2009/04/23 08:52:43.1     270    142    125    306    330  62.2  23.5  34136  289.17 0855.28
2009/04/23 08:52:43.2     360    118     83    379    389  71.8  12.4  34110  288.71 0855.28
2009/04/23 08:52:43.3     373    118     88    392    402  72.5  12.8  34120  288.89 0855.28
2009/04/23 08:52:43.4     406    129    130    427    447  72.3  17.0  34094  288.45 0855.28
2009/04/23 08:52:43.5     435    158    121    464    480  70.0  14.7  34074  288.12 0855.28
2009/04/23 08:52:43.6     435    175    191    470    507  68.0  23.2  34156  289.52 0855.28
2009/04/23 08:52:43.7     454    137    152    475    499  73.2  17.8  34122  288.93 0855.28
2009/04/23 08:52:43.8     470    130    219    488    534  74.5  25.7  34176  289.84 0855.28
2009/04/23 08:52:43.9     452    144    204    475    516  72.3  24.6  34148  289.37 0855.28
2009/04/23 08:52:44.0     528    124    151    543    564  76.7  15.6  34100  288.55 0855.28
2009/04/23 08:52:44.1     448    105    172    461    492  76.7  21.5  34110  288.71 0855.28
2009/04/23 08:52:44.2     454     38     86    456    465  85.1  10.7  34086  288.33 0855.28
2009/04/23 08:52:44.3     442     63    -74    447    454  81.9  -9.5  34072  288.09 0855.28
2009/04/23 08:52:44.4     449     72   -110    455    469  80.9 -13.6  34082  288.24 0855.28
2009/04/23 08:52:44.5     386     68    -30    393    395  80.0  -4.4  34072  288.08 0855.28
2009/04/23 08:52:44.6     418     52    -69    422    428  82.9  -9.3  34074  288.11 0855.28
2009/04/23 08:52:44.7     380     69   -104    387    401  79.7 -15.1  34104  288.64 0855.28
2009/04/23 08:52:44.8     380     58    -78    385    393  81.3 -11.5  34110  288.72 0855.28
2009/04/23 08:52:44.9     272    125    -25    300    302  65.2  -4.9  34146  289.34 0855.28
2009/04/23 08:52:45.0     346    137    -11    373    374  68.3  -1.8  34136  289.15 0855.28
2009/04/23 08:52:45.1     325    132     -7    351    352  67.8  -1.3  34112  288.77 0855.28
2009/04/23 08:52:45.2     397    104     20    411    412  75.3   2.8  34080  288.21 0855.28
2009/04/23 08:52:45.3     263    106     24    284    286  68.0   5.0  34130  289.05 0855.28
2009/04/23 08:52:45.4     270    129     -6    300    301  64.5  -1.2  34152  289.42 0855.28
2009/04/23 08:52:45.5     296      8    -11    297    298  88.3  -2.2  34098  288.53 0855.28
2009/04/23 08:52:45.6     268     52     13    273    274  79.0   2.8  34122  288.93 0855.27
2009/04/23 08:52:45.7     298     31    -17    300    301  83.9  -3.3  34100  288.56 0855.27
2009/04/23 08:52:45.8     270      7    -19    271    272  88.5  -4.1  34122  288.93 0855.27
2009/04/23 08:52:45.9     284    103    -38    303    306  70.1  -7.2  34138  289.19 0855.27
2009/04/23 08:52:46.0     253     85    -10    268    269  71.4  -2.2  34126  289.00 0855.27
2009/04/23 08:52:46.1     247     45    -72    252    263  79.6 -16.0  34124  288.97 0855.27
2009/04/23 08:52:46.2     255    -62    -57    263    270 103.7 -12.4  34100  288.54 0855.27
2009/04/23 08:52:46.3     272   -129   -104    302    320 115.4 -19.1  34090  288.39 0855.27
2009/04/23 08:52:46.4     237    -25    145    239    279  96.1  34.2  34094  288.46 0855.27
2009/04/23 08:52:46.5     233    -30    127    235    267  97.5  30.8  34092  288.43 0855.27
2009/04/23 08:52:46.6     267    -56    134    273    304 101.9  27.8  34088  288.34 0855.27
2009/04/23 08:52:46.7      99   -166     98    194    217 149.3  29.1  34078  288.18 0855.27
2009/04/23 08:52:46.8     134   -136    108    192    220 135.5  31.6  34052  287.74 0855.27
2009/04/23 08:52:46.9     142    -33    161    146    217 103.3  53.0  34084  288.28 0855.27
2009/04/23 08:52:47.0     125     13    101    126    161  83.9  43.0  34092  288.43 0855.27
2009/04/23 08:52:47.1     158     16    231    159    280  83.9  62.6  34104  288.63 0855.27
2009/04/23 08:52:47.2     170     50    229    178    290  73.4  58.4  34094  288.46 0855.27
2009/04/23 08:52:47.3     307    -11    108    308    327  92.1  19.3  34080  288.22 0855.27
2009/04/23 08:52:47.4     290     22     58    291    297  85.6  11.4  34080  288.21 0855.27
2009/04/23 08:52:47.5     316      0     54    317    322  90.0   9.7  34092  288.41 0855.27
2009/04/23 08:52:47.6     223      4    -48    224    230  88.7 -12.2  34096  288.50 0855.26
2009/04/23 08:52:47.7     239    -56    -23    246    248 103.3  -5.4  34084  288.27 0855.26
2009/04/23 08:52:47.8     281    -57     77    287    298 101.5  15.0  34096  288.48 0855.26
2009/04/23 08:52:47.9     240    -29     79    242    255  97.0  18.1  34102  288.59 0855.26
2009/04/23 08:52:48.0     292      4     94    293    308  89.1  17.9  34092  288.43 0855.26
2009/04/23 08:52:48.1     332    111    114    351    370  71.4  18.0  34098  288.52 0855.26
2009/04/23 08:52:48.2     336     14    132    337    361  87.6  22.7  34074  288.13 0855.26
2009/04/23 08:52:48.3     378    -30    159    380    411  94.6  24.1  34070  288.05 0855.26
2009/04/23 08:52:48.4     311    -83    123    323    345 105.1  21.8  34110  288.71 0855.26
2009/04/23 08:52:48.5     197   -250    158    319    355 141.7  28.4  34114  288.79 0855.26
2009/04/23 08:52:48.6     214   -245    129    326    350 138.8  22.8  34110  288.72 0855.26
2009/04/23 08:52:48.7     206   -204    199    291    352 134.7  37.7  34116  288.81 0855.26
2009/04/23 08:52:48.8     172   -285    175    334    377 148.9  29.8  34104  288.64 0855.26
2009/04/23 08:52:48.9     167   -307    242    350    425 151.4  38.0  34100  288.55 0855.26
2009/04/23 08:52:49.0     133   -340    217    366    425 158.6  33.5  34100  288.56 0855.26
2009/04/23 08:52:49.1      95   -381    176    393    430 166.0  25.7  34104  288.63 0855.26
2009/04/23 08:52:49.2      75   -394     94    402    413 169.1  13.3  34096  288.48 0855.26
2009/04/23 08:52:49.3      77   -379     63    388    394 168.4   9.3  34094  288.45 0855.26
2009/04/23 08:52:49.4      53   -335     45    340    343 170.9   7.6  34096  288.50 0855.26
2009/04/23 08:52:49.6      29   -285     94    287    303 174.0  18.1  34098  288.53 0855.27
2009/04/23 08:52:49.7     112   -281    131    303    330 158.2  24.9  34062  287.92 0855.27
2009/04/23 08:52:49.7     102   -271    199    290    351 159.3  37.7  34076  288.16 0855.27
2009/04/23 08:52:49.8      84   -258    154    272    312 162.0  32.1  34092  288.41 0855.27
2009/04/23 08:52:49.9      84   -262    178    276    328 162.2  35.9  34098  288.53 0855.27
2009/04/23 08:52:50.0      51   -297    108    302    320 170.2  20.4  34090  288.39 0855.27
2009/04/23 08:52:50.1       6   -354    110    355    372 179.0  17.3  34086  288.32 0855.27
2009/04/23 08:52:50.2      26   -300    167    302    345 174.9  31.4  34068  288.00 0855.27
2009/04/23 08:52:50.3      46   -269    180    273    327 170.3  36.5  34064  287.95 0855.27
2009/04/23 08:52:50.4      78   -314    204    324    382 166.0  35.5  34066  287.98 0855.27
2009/04/23 08:52:50.5      69   -208    213    220    306 161.5  49.0  34082  288.24 0855.27
2009/04/23 08:52:50.6     115   -263    164    288    331 156.3  32.3  34080  288.21 0855.27
2009/04/23 08:52:50.7      58   -208    178    216    279 164.4  43.7  34074  288.12 0855.27
2009/04/23 08:52:50.8      -3   -196    131    197    236 181.1  36.7  34080  288.21 0855.27
2009/04/23 08:52:50.9     -14   -204    155    205    257 184.0  40.7  34072  288.09 0855.27
2009/04/23 08:52:51.0     -36    -94    171    101    198 200.9  66.8  34094  288.45 0855.27
2009/04/23 08:52:51.1    -171   -173    100    244    263 224.8  23.4  34106  288.66 0855.27
2009/04/23 08:52:51.2    -168   -211     80    270    282 218.5  16.6  34112  288.75 0855.27
2009/04/23 08:52:51.3    -167   -205     93    265    280 219.2  20.0  34116  288.83 0855.27
2009/04/23 08:52:51.4    -166   -149     52    224    231 228.0  13.1  34114  288.80 0855.27
2009/04/23 08:52:51.5    -142   -114    -45    183    189 231.1 -13.9  34110  288.74 0855.27
2009/04/23 08:52:51.6    -134    -63      8    149    150 244.6   3.3  34104  288.62 0855.26
2009/04/23 08:52:51.7    -278    -17    -61    279    286 266.5 -12.4  34078  288.19 0855.26
2009/04/23 08:52:51.8    -228    -97   -112    248    272 246.9 -30.6  34082  288.24 0855.26
2009/04/23 08:52:51.9    -236   -138    -15    274    275 239.6  -3.1  34074  288.12 0855.26
2009/04/23 08:52:52.0    -196   -192    -82    275    286 225.6 -21.7  34068  288.02 0855.26
2009/04/23 08:52:52.1    -202   -112    -80    232    245 240.9 -24.0  34070  288.05 0855.26
2009/04/23 08:52:52.2    -114   -193    -80    225    240 210.5 -19.7  34066  287.99 0855.26
2009/04/23 08:52:52.3    -118   -169    -60    207    215 215.0 -21.2  34068  288.03 0855.26
2009/04/23 08:52:52.4     -93   -158    -76    184    199 210.5 -28.0  34068  288.01 0855.26
2009/04/23 08:52:52.5     -82   -181    -99    199    222 204.5 -32.9  34074  288.11 0855.26
2009/04/23 08:52:52.6      -6   -187    -67    188    200 182.0 -19.7  34078  288.20 0855.27
2009/04/23 08:52:52.7     -70   -130     48    148    156 208.5  17.9  34076  288.16 0855.27
2009/04/23 08:52:52.8     -96   -136     34    167    171 215.2  11.6  34076  288.16 0855.27
2009/04/23 08:52:52.9     -56   -175     14    184    185 197.8   4.4  34076  288.14 0855.27
2009/04/23 08:52:53.0    -102   -233    -14    255    256 203.6  -3.1  34076  288.15 0855.27
2009/04/23 08:52:53.1     -86   -240    -45    256    261 199.8 -10.1  34078  288.19 0855.27
2009/04/23 08:52:53.2    -140   -253      2    290    291 209.0   0.5  34078  288.17 0855.27
2009/04/23 08:52:53.3    -111   -218    -18    245    246 207.1  -4.4  34072  288.07 0855.27
2009/04/23 08:52:53.4    -103   -214     -9    238    239 205.9  -2.2  34064  287.95 0855.27
2009/04/23 08:52:53.5    -116   -201     -5    233    234 209.9  -1.3  34066  287.99 0855.27
2009/04/23 08:52:53.6    -102   -248    -14    269    270 202.5  -3.2  34066  287.99 0855.27
2009/04/23 08:52:53.7    -103   -258    -54    279    285 201.8 -11.1  34066  287.97 0855.27
2009/04/23 08:52:53.8    -101   -303    -12    320    321 198.5  -2.2  34068  288.00 0855.27
2009/04/23 08:52:53.9     -23   -252    -32    254    257 185.3  -7.3  34066  287.99 0855.27
2009/04/23 08:52:54.0      82   -260      7    273    274 162.4   1.6  34070  288.04 0855.27
2009/04/23 08:52:54.1      76   -283     31    294    296 164.9   6.1  34064  287.95 0855.27
2009/04/23 08:52:54.2      50   -316      9    321    322 170.9   1.7  34064  287.93 0855.27
2009/04/23 08:52:54.3      -8   -201     47    202    208 182.5  13.2  34074  288.13 0855.27
2009/04/23 08:52:54.4     -18   -187    111    188    218 185.6  33.4  34070  288.04 0855.27
2009/04/23 08:52:54.5     -98   -286     15    303    304 198.9   2.9  34066  287.97 0855.27
2009/04/23 08:52:54.6     -77   -253     31    265    267 196.9   6.9  34064  287.95 0855.27
2009/04/23 08:52:54.7    -100   -288      4    305    306 199.2   0.8  34066  287.97 0855.27
2009/04/23 08:52:54.8     -21   -260    -83    261    273 184.7 -22.8  34068  288.02 0855.27
2009/04/23 08:52:54.9      15   -200    -80    201    216 175.5 -27.4  34064  287.96 0855.27
2009/04/23 08:52:55.0      33   -208    -63    211    220 170.9 -21.7  34068  288.01 0855.27
2009/04/23 08:52:55.1      50   -191    -64    198    209 165.3 -17.9  34066  287.98 0855.27
2009/04/23 08:52:55.2       8   -168    -73    169    184 177.1 -29.3  34068  288.03 0855.27
2009/04/23 08:52:55.3      12   -143    -94    144    171 175.1 -40.4  34066  287.98 0855.27
2009/04/23 08:52:55.4     -56   -216    -65    224    233 194.7 -21.2  34066  287.99 0855.27
2009/04/23 08:52:55.5     -24   -222    -67    224    234 186.2 -16.8  34068  288.01 0855.27
2009/04/23 08:52:55.6     -47   -234    -73    239    249 191.5 -22.1  34070  288.04 0855.27
2009/04/23 08:52:55.7     -36   -247    -75    250    261 188.5 -21.7  34068  288.02 0855.27
2009/04/23 08:52:55.8      -8   -283    -56    284    290 181.8 -11.3  34068  288.00 0855.27
2009/04/23 08:52:55.9       0   -267    -33    268    271 180.0  -7.2  34066  287.99 0855.27
2009/04/23 08:52:56.0     -11   -272    -23    273    275 182.5  -4.9  34066  287.99 0855.27
2009/04/23 08:52:56.1      30   -278    -20    280    281 173.8  -4.1  34066  287.97 0855.27
2009/04/23 08:52:56.2      30   -242    -13    244    245 172.9  -3.1  34066  287.97 0855.27
2009/04/23 08:52:56.3      39   -262    -10    265    266 171.5  -2.2  34064  287.95 0855.27
2009/04/23 08:52:56.4      52   -244      3    250    251 168.0   0.8  34068  288.00 0855.27
2009/04/23 08:52:56.5      57   -259    -32    266    268 167.5  -6.9  34064  287.95 0855.27
2009/04/23 08:52:56.6      39   -250     -5    254    255 171.1  -1.3  34064  287.95 0855.26
2009/04/23 08:52:56.7      -7   -243     33    244    247 181.8   7.8  34060  287.88 0855.26
2009/04/23 08:52:56.8       0   -178    -22    179    181 180.0  -7.2  34066  287.99 0855.26
2009/04/23 08:52:56.9     -39   -140    -33    146    150 195.6 -12.9  34068  288.01 0855.26
2009/04/23 08:52:57.0     -76   -161      3    179    180 205.4   1.2  34066  287.99 0855.26
2009/04/23 08:52:57.1    -129   -175     -4    218    219 216.5  -1.3  34066  287.98 0855.26
2009/04/23 08:52:57.2    -174   -175    -16    248    249 224.8  -3.9  34068  288.02 0855.26
2009/04/23 08:52:57.3    -218   -180    -62    283    290 230.5 -12.4  34068  288.00 0855.26
2009/04/23 08:52:57.4    -204   -148    -75    253    265 234.1 -16.6  34068  288.00 0855.26
2009/04/23 08:52:57.5    -204   -129    -68    242    252 237.6 -15.8  34068  288.00 0855.26
2009/04/23 08:52:57.6    -214    -98    -70    236    246 245.4 -21.5  34066  287.99 0855.26
2009/04/23 08:52:57.7    -155    -98   -113    184    215 237.5 -38.8  34066  287.98 0855.26
2009/04/23 08:52:57.8     -46   -108   -134    118    178 203.2 -58.4  34064  287.94 0855.26
2009/04/23 08:52:57.9     -22   -109   -117    112    161 191.5 -55.6  34066  287.99 0855.26
2009/04/23 08:52:58.0     -19   -110    -90    112    143 190.2 -47.7  34066  287.99 0855.26
2009/04/23 08:52:58.1      18   -100   -113    102    152 169.8 -57.7  34070  288.04 0855.26
2009/04/23 08:52:58.2      49   -103   -103    115    154 154.7 -50.8  34068  288.01 0855.26
2009/04/23 08:52:58.3      43    -77   -114     89    144 150.6 -62.8  34072  288.08 0855.26
2009/04/23 08:52:58.4      42    -79   -101     90    135 151.5 -58.6  34072  288.08 0855.26
2009/04/23 08:52:58.5      38    -74    -88     84    121 152.8 -55.6  34070  288.04 0855.26
2009/04/23 08:52:58.6      30   -111    -74    116    137 164.9 -40.0  34068  288.03 0855.26
2009/04/23 08:52:58.7       2   -115    -92    116    148 178.6 -47.1  34068  288.01 0855.26
2009/04/23 08:52:58.8      -1   -112    -84    113    140 180.9 -44.5  34066  287.99 0855.26
2009/04/23 08:52:58.9       2   -133    -81    134    156 179.0 -38.8  34066  287.99 0855.26
2009/04/23 08:52:59.0      10   -136    -71    137    154 175.6 -33.7  34066  287.99 0855.26
2009/04/23 08:52:59.1     -52   -141      4    151    152 200.5   1.8  34064  287.96 0855.26
2009/04/23 08:52:59.2     -34   -113     23    119    122 197.0  11.0  34064  287.94 0855.26
2009/04/23 08:52:59.3     -31    -98     -5    103    104 197.8  -3.1  34066  287.98 0855.26
2009/04/23 08:52:59.4     -56    -94    -74    110    132 210.7 -41.4  34068  288.01 0855.26
2009/04/23 08:52:59.5     -45    -73    -73     86    112 211.6 -48.7  34066  287.99 0855.26
2009/04/23 08:52:59.6       0    -56    -66     57     87 179.1 -58.7  34066  287.99 0855.26
2009/04/23 08:52:59.7     -42    -94    -68    103    123 204.1 -40.4  34066  287.99 0855.26
2009/04/23 08:52:59.8     -53   -134    -18    145    147 201.8  -7.3  34066  287.99 0855.26
2009/04/23 08:52:59.9     -41   -172    -59    177    187 193.4 -18.7  34062  287.92 0855.26
2009/04/23 08:53:00.0     -44   -167    -65    173    184 195.1 -25.7  34062  287.92 0855.26
2009/04/23 08:53:00.1     -44   -119    -51    128    137 200.5 -27.4  34062  287.92 0855.26
2009/04/23 08:53:00.2     -68   -153    -26    168    170 204.1  -8.8  34064  287.96 0855.26
2009/04/23 08:53:00.3    -108   -158    -70    192    204 214.3 -25.3  34062  287.92 0855.26
2009/04/23 08:53:00.4    -100   -110    -72    149    165 222.3 -32.2  34062  287.91 0855.26
2009/04/23 08:53:00.5     -43    -65     -9     79     80 213.4  -6.7  34062  287.92 0855.26
2009/04/23 08:53:00.6     -45    -62     10     77     78 216.1   7.5  34064  287.94 0855.26
2009/04/23 08:53:00.7     -68    -63     26     93     97 227.3  15.8  34066  287.99 0855.26
2009/04/23 08:53:00.8     -35    -23     50     43     65 236.7  55.4  34072  288.09 0855.26
2009/04/23 08:53:00.9       9    -97     33     98    104 174.7  18.9  34066  287.98 0855.26
2009/04/23 08:53:01.0      90   -130     94    159    184 145.3  33.5  34064  287.94 0855.26
2009/04/23 08:53:01.1      98   -190     54    215    222 152.6  14.3  34062  287.92 0855.26
2009/04/23 08:53:01.2     105   -142     35    177    181 143.5  11.4  34062  287.91 0855.26
2009/04/23 08:53:01.3      79   -169     56    187    196 154.7  16.6  34062  287.92 0855.26
2009/04/23 08:53:01.4      89   -178     38    200    204 153.3  10.8  34064  287.94 0855.26
2009/04/23 08:53:01.5      91   -191     78    212    225 154.4  21.0  34066  287.99 0855.26
2009/04/23 08:53:01.6     106   -130     47    169    176 140.8  15.8  34064  287.96 0855.26
2009/04/23 08:53:01.7      99    -72     -6    123    124 125.9  -3.1  34064  287.96 0855.26
2009/04/23 08:53:01.8     111    -62    -21    128    130 119.3  -9.3  34062  287.91 0855.26
2009/04/23 08:53:01.9      83   -140    -49    163    170 149.3 -22.1  34064  287.96 0855.26
2009/04/23 08:53:02.0      77   -170     35    187    191 155.7  10.6  34062  287.92 0855.26
2009/04/23 08:53:02.1      80   -157     70    177    190 153.0  22.8  34064  287.96 0855.26
2009/04/23 08:53:02.2     102   -154     72    186    199 146.4  22.3  34066  287.99 0855.26
2009/04/23 08:53:02.3     127   -181     72    222    234 145.0  17.9  34064  287.96 0855.26
2009/04/23 08:53:02.4     138   -163     40    214    218 139.7  10.8  34062  287.92 0855.26
2009/04/23 08:53:02.5     103   -167     32    197    200 148.4   9.5  34064  287.94 0855.26
2009/04/23 08:53:02.6      51   -145     81    154    174 160.4  30.1  34062  287.91 0855.28
2009/04/23 08:53:02.7      74   -163    132    180    223 155.5  39.7  34066  287.98 0855.28
2009/04/23 08:53:02.9      65   -176    144    188    236 159.7  41.4  34070  288.06 0855.28
2009/04/23 08:53:03.0     122   -131    131    180    222 137.0  39.7  34066  287.99 0855.28
2009/04/23 08:53:03.1      81    -97    160    127    204 139.9  57.7  34070  288.04 0855.28
2009/04/23 08:53:03.2      23   -114    149    117    189 168.5  57.7  34076  288.14 0855.28
2009/04/23 08:53:03.3     116   -108    123    159    201 133.1  41.7  34070  288.06 0855.28
2009/04/23 08:53:03.4      66   -130    131    146    196 152.9  46.4  34082  288.26 0855.28
2009/04/23 08:53:03.5     114    -61    100    130    164 118.0  41.4  34070  288.06 0855.28
2009/04/23 08:53:03.6      95   -103     67    141    156 137.2  27.2  34062  287.92 0855.28
2009/04/23 08:53:03.7     113   -143     65    183    194 141.5  20.0  34062  287.91 0855.28
2009/04/23 08:53:03.8      77   -201    108    216    241 159.1  28.5  34066  287.99 0855.28
2009/04/23 08:53:03.9      65   -229     35    239    242 164.2   8.5  34082  288.24 0855.28
2009/04/23 08:53:04.0     -81   -246     87    260    275 198.3  18.6  34082  288.24 0855.28
2009/04/23 08:53:04.1     -27   -192    148    194    244 188.1  41.4  34080  288.23 0855.28
2009/04/23 08:53:04.2     -56    -53     65     78    101 226.8  43.8  34074  288.13 0855.28
2009/04/23 08:53:04.3     -23   -196     74    198    211 186.9  21.3  34066  287.98 0855.28
2009/04/23 08:53:04.4      23   -279     60    281    288 175.1  12.1  34062  287.90 0855.28
2009/04/23 08:53:04.5     148   -290     92    326    339 152.8  15.9  34062  287.91 0855.28
2009/04/23 08:53:04.6      98   -359    230    373    438 164.7  34.6  34068  288.01 0855.28
2009/04/23 08:53:04.7     279   -290    180    403    441 136.1  25.7  34066  287.97 0855.29
2009/04/23 08:53:04.8     224   -262     34    346    348 139.5   5.7  34064  287.93 0855.29
2009/04/23 08:53:04.9      93   -280    -11    296    297 161.5  -2.2  34064  287.93 0855.29
2009/04/23 08:53:05.0      39   -254     -2    258    259 171.1  -0.5  34064  287.93 0855.29
2009/04/23 08:53:05.1       4   -407     53    408    412 179.4   7.4  34062  287.90 0855.29
2009/04/23 08:53:05.2      -9   -362    105    363    378 181.5  16.1  34070  288.06 0855.29
2009/04/23 08:53:05.3      29   -321    -12    323    324 174.8  -2.2  34062  287.92 0855.29
2009/04/23 08:53:05.4      36   -292      4    295    296 172.9   0.8  34064  287.93 0855.29
2009/04/23 08:53:05.5      91   -328     58    341    346 164.5   9.7  34064  287.94 0855.29
2009/04/23 08:53:05.6     158   -359    -15    393    394 156.3  -2.2  34064  287.94 0855.29
2009/04/23 08:53:05.7     169   -223     59    281    288 142.8  12.0  34072  288.07 0855.29
2009/04/23 08:53:05.8      94   -162    -44    188    194 149.7 -13.3  34062  287.91 0855.29
2009/04/23 08:53:05.9       5    -73    -82     74    110 175.5 -57.7  34058  287.84 0855.29
2009/04/23 08:53:06.0      57   -170    -60    180    189 161.5 -23.6  34058  287.84 0855.29
2009/04/23 08:53:06.1     184   -353     -8    399    400 152.5  -1.3  34062  287.91 0855.29
2009/04/23 08:53:06.2     156   -335     16    370    371 155.1   2.5  34060  287.88 0855.29
2009/04/23 08:53:06.3     182   -410     -9    449    450 156.1  -1.2  34062  287.92 0855.29
2009/04/23 08:53:06.4      98   -415    -30    427    429 166.7  -4.1  34060  287.87 0855.29
2009/04/23 08:53:06.5      90   -335     -6    348    349 164.9  -1.1  34060  287.88 0855.29
2009/04/23 08:53:06.6     111   -370    -46    387    390 163.3  -6.8  34058  287.86 0855.29
2009/04/23 08:53:06.7      -9   -299    -83    300    312 181.8 -15.5  34058  287.83 0855.29
2009/04/23 08:53:06.8      38   -271    -26    274    276 172.0  -5.6  34060  287.88 0855.29
2009/04/23 08:53:06.9      54   -211     23    218    220 165.5   6.1  34062  287.91 0855.29
2009/04/23 08:53:07.0     -43   -272    -45    276    280 189.1  -9.3  34058  287.85 0855.29
2009/04/23 08:53:07.1      49   -245    -49    250    255 168.7 -11.1  34062  287.90 0855.29
2009/04/23 08:53:07.2     141   -390    -99    415    427 160.1 -13.4  34060  287.89 0855.29
2009/04/23 08:53:07.3     171   -367    -37    406    408 155.0  -5.3  34058  287.85 0855.29
2009/04/23 08:53:07.4     200   -337    -22    393    394 149.3  -3.3  34060  287.88 0855.29
2009/04/23 08:53:07.5     212   -311     77    377    385 145.7  11.6  34056  287.81 0855.29
2009/04/23 08:53:07.6     153   -244     71    289    298 147.9  13.9  34060  287.88 0855.29
2009/04/23 08:53:07.7      50   -212     -6    218    219 166.6  -1.6  34062  287.91 0855.29
2009/04/23 08:53:07.8      32   -256   -103    259    278 172.8 -27.4  34060  287.88 0855.29
2009/04/23 08:53:07.9      37   -290    -91    293    306 172.7 -22.5  34060  287.87 0855.29
2009/04/23 08:53:08.0     102   -318     18    335    336 162.2   3.2  34058  287.86 0855.29
2009/04/23 08:53:08.1      85   -326     48    337    341 165.3   8.1  34058  287.83 0855.29
2009/04/23 08:53:08.2     137   -374     30    399    401 159.8   4.3  34058  287.83 0855.29
2009/04/23 08:53:08.3     119   -367    132    386    409 162.0  18.9  34058  287.83 0855.29
2009/04/23 08:53:08.4      94   -387    104    399    413 166.3  14.7  34058  287.85 0855.29
2009/04/23 08:53:08.5      71   -359     51    367    371 168.8   7.9  34058  287.84 0855.29
2009/04/23 08:53:08.6      62   -252    101    260    278 166.0  22.1  34060  287.88 0855.29
2009/04/23 08:53:08.7     104   -294    149    313    346 160.4  27.3  34060  287.89 0855.29
2009/04/23 08:53:08.8      32   -284     21    286    287 173.5   4.2  34062  287.90 0855.29
2009/04/23 08:53:08.9     134   -270    -51    302    307 153.5  -9.6  34062  287.90 0855.29
2009/04/23 08:53:09.0     104   -173     71    202    215 149.0  19.4  34062  287.92 0855.29
2009/04/23 08:53:09.1      11   -243     47    244    249 177.3  11.0  34058  287.83 0855.29
2009/04/23 08:53:09.2      17   -275     86    276    290 176.4  17.4  34058  287.83 0855.29
2009/04/23 08:53:09.3      -1   -182      7    183    184 180.5   2.3  34056  287.82 0855.29
2009/04/23 08:53:09.4     138   -186     -5    232    233 143.5  -1.3  34062  287.92 0855.29
2009/04/23 08:53:09.5      60   -314     98    320    335 169.1  17.2  34064  287.96 0855.29
2009/04/23 08:53:09.6      29   -203     10    206    207 171.8   2.8  34056  287.82 0855.29
2009/04/23 08:53:09.7      56   -191     -7    200    201 163.7  -2.2  34054  287.79 0855.29
2009/04/23 08:53:09.8      43   -181     53    187    195 166.6  16.0  34056  287.81 0855.29
2009/04/23 08:53:09.9      47   -171     96    178    202 164.4  31.0  34056  287.82 0855.29
2009/04/23 08:53:10.0      82   -173    112    192    222 154.7  33.1  34054  287.79 0855.29
2009/04/23 08:53:10.1     120   -204    100    237    257 149.5  24.1  34056  287.82 0855.29
2009/04/23 08:53:10.2      78   -293    199    304    363 165.1  36.4  34066  287.98 0855.29
2009/04/23 08:53:10.3      90   -316    119    329    350 164.0  19.9  34042  287.59 0855.29
2009/04/23 08:53:10.4      98   -274     57    292    298 160.2  11.1  34058  287.83 0855.29
2009/04/23 08:53:10.5     146   -264     28    302    304 151.0   5.4  34056  287.80 0855.29
2009/04/23 08:53:10.6     113   -272    126    295    320 157.3  24.5  34056  287.82 0855.29
2009/04/23 08:53:10.7     159   -219     55    271    277 144.0  11.6  34056  287.82 0855.29
2009/04/23 08:53:10.8     132   -240     85    275    288 151.1  17.3  34056  287.80 0855.29
2009/04/23 08:53:10.9      47   -276     55    281    287 170.2  11.1  34052  287.75 0855.29
2009/04/23 08:53:11.0      93   -214     56    234    241 156.4  13.5  34056  287.80 0855.29
2009/04/23 08:53:11.1     116   -156    115    195    226 143.5  33.5  34060  287.87 0855.29
2009/04/23 08:53:11.2     215   -218    163    307    347 135.5  30.3  34064  287.94 0855.29
2009/04/23 08:53:11.3     129   -142    194    193    273 137.7  50.1  34066  287.97 0855.29
2009/04/23 08:53:11.4     -39    -22    140     45    147 240.2  80.7  34064  287.94 0855.29
2009/04/23 08:53:11.5      37    -45    135     59    147 140.4  75.0  34064  287.96 0855.29
2009/04/23 08:53:11.6     128   -125    100    180    205 134.4  31.4  34054  287.79 0855.29
2009/04/23 08:53:11.7     143   -118    129    186    226 129.5  38.0  34060  287.87 0855.29
2009/04/23 08:53:11.8      55    -64    135     85    159 139.0  64.9  34062  287.91 0855.29
2009/04/23 08:53:11.9      23    -26     46     35     57 138.6  58.5  34062  287.91 0855.29
2009/04/23 08:53:12.0      41    -55     54     69     87 143.0  42.2  34070  288.04 0855.29
2009/04/23 08:53:12.1      74    -34     45     82     93 115.2  30.8  34072  288.08 0855.29
2009/04/23 08:53:12.2      59     93     13    111    112  32.5   6.9  34066  287.99 0855.29
2009/04/23 08:53:12.3     -17     83    -74     85    112 348.0 -49.8  34064  287.96 0855.29
2009/04/23 08:53:12.4     -18     56    -20     59     63 341.7 -18.7  34064  287.96 0855.29
2009/04/23 08:53:12.5     -24     12    -62     28     68 297.1 -78.4  34064  287.96 0855.29
2009/04/23 08:53:12.6     -10     78    -23     79     83 352.0 -16.6  34062  287.92 0855.29
2009/04/23 08:53:12.7      -4     54     32     55     63 355.5  32.4  34070  288.06 0855.27
2009/04/23 08:53:12.8    -139    -76    109    159    192 241.1  37.6  34072  288.08 0855.27
2009/04/23 08:53:12.9    -144    -93     90    172    194 237.1  30.1  34074  288.13 0855.27
2009/04/23 08:53:13.0    -229     -3     54    230    237 269.1  13.2  34066  287.97 0855.27
2009/04/23 08:53:13.1    -281    -16     43    282    286 266.7   8.8  34060  287.88 0855.27
2009/04/23 08:53:13.2    -290     95     40    306    309 288.2   7.5  34062  287.92 0855.27
2009/04/23 08:53:13.3    -269     28     55    271    277 276.1  11.6  34056  287.82 0855.27
2009/04/23 08:53:13.4    -308     30    -55    310    315 275.7 -10.1  34056  287.82 0855.27
2009/04/23 08:53:13.5    -353    -95   -129    366    389 254.9 -19.4  34054  287.78 0855.27
2009/04/23 08:53:13.6    -267   -200    -16    334    335 233.1  -2.8  34054  287.78 0855.27
2009/04/23 08:53:13.7    -246   -148      4    288    289 238.9   0.8  34050  287.71 0855.27
2009/04/23 08:53:13.8    -300   -136    -67    330    337 245.6 -11.6  34048  287.66 0855.27
2009/04/23 08:53:13.9    -380    -33    -62    382    388 264.9  -9.3  34048  287.69 0855.27
2009/04/23 08:53:14.0    -384      0    -15    385    386 270.1  -2.2  34050  287.71 0855.27
2009/04/23 08:53:14.1    -376     50     23    380    381 277.7   3.5  34050  287.72 0855.27
2009/04/23 08:53:14.2    -354     28    -59    356    361 274.6  -9.5  34038  287.51 0855.27
2009/04/23 08:53:14.3    -371     17   -115    372    390 272.7 -17.2  34038  287.52 0855.27
2009/04/23 08:53:14.4    -257      0    -81    258    271 269.9 -17.6  34042  287.58 0855.27
2009/04/23 08:53:14.5    -268     37     -3    271    272 278.0  -0.7  34046  287.65 0855.27
2009/04/23 08:53:14.6    -216    -44   -105    221    244 258.3 -31.6  34042  287.58 0855.27
2009/04/23 08:53:14.7    -261    -99    -72    280    290 249.2 -14.5  34046  287.63 0855.27
2009/04/23 08:53:14.8    -287    -35   -159    290    330 262.9 -35.7  34046  287.63 0855.27
2009/04/23 08:53:14.9    -250     73    -23    261    263 286.4  -5.2  34010  287.02 0855.27
2009/04/23 08:53:15.0    -275     77    -36    286    289 285.7  -7.3  34048  287.66 0855.27
2009/04/23 08:53:15.1    -260     -5    -37    261    264 268.7  -8.2  34052  287.73 0855.27
2009/04/23 08:53:15.2    -330     15     -9    331    332 272.7  -1.6  34050  287.71 0855.27
2009/04/23 08:53:15.3    -336      1    -57    337    342 270.3  -9.6  34050  287.71 0855.27
2009/04/23 08:53:15.4    -351    -55     -7    356    357 261.1  -1.3  34042  287.56 0855.27
2009/04/23 08:53:15.5    -458     -9      5    459    460 268.8   0.7  34048  287.67 0855.27
2009/04/23 08:53:15.6    -421    212     47    472    475 296.8   5.8  34058  287.85 0855.27
2009/04/23 08:53:15.7    -452    174    -19    485    486 291.1  -2.3  34052  287.73 0855.26
2009/04/23 08:53:15.8    -460    128    -69    478    484 285.6  -8.2  34050  287.71 0855.26
2009/04/23 08:53:15.9    -446    137   -158    467    494 287.2 -18.7  34044  287.61 0855.26
2009/04/23 08:53:16.0    -429     83   -196    438    479 281.0 -30.2  34058  287.83 0855.26
2009/04/23 08:53:16.1    -367    116    -91    386    397 287.6 -13.3  34048  287.67 0855.26
2009/04/23 08:53:16.2    -311     -4   -162    312    351 269.2 -33.9  34058  287.84 0855.26
2009/04/23 08:53:16.3    -280     -2   -189    281    338 269.4 -41.6  34058  287.83 0855.26
2009/04/23 08:53:16.4    -285    -48   -204    290    354 260.4 -43.0  34058  287.86 0855.26
2009/04/23 08:53:16.5    -277    -92   -185    292    345 251.6 -39.9  34058  287.86 0855.26
2009/04/23 08:53:16.6    -104    -75   -181    129    222 234.0 -65.5  34054  287.79 0855.26
2009/04/23 08:53:16.7      37   -105   -146    112    184 160.4 -63.1  34050  287.72 0855.26
2009/04/23 08:53:16.8     -38   -111    -90    118    148 199.2 -46.0  34046  287.65 0855.26
2009/04/23 08:53:16.9    -138   -179     19    227    228 217.6   4.9  34048  287.69 0855.26
2009/04/23 08:53:17.0     -15   -198      0    199    200 184.5  -0.3  34050  287.70 0855.26
2009/04/23 08:53:17.1     237   -111    -83    262    275 115.1 -17.6  34054  287.78 0855.26
2009/04/23 08:53:17.2     277    -25    -20    279    280  95.2  -4.1  34046  287.65 0855.26
2009/04/23 08:53:17.3     145    -36   -120    150    192 104.2 -47.7  34050  287.72 0855.26
2009/04/23 08:53:17.4     152   -152   -100    215    237 135.0 -30.8  34048  287.67 0855.26
2009/04/23 08:53:17.5     127   -151    -45    198    204 139.9 -12.9  34050  287.72 0855.26
2009/04/23 08:53:17.6     162   -195    -32    254    257 140.4  -7.2  34048  287.68 0855.26
2009/04/23 08:53:17.7     202   -155     69    255    265 127.5  15.2  34048  287.66 0855.26
2009/04/23 08:53:17.8     272   -214    160    347    382 128.2  26.6  34048  287.67 0855.26
2009/04/23 08:53:17.9     333   -113    253    352    433 108.8  39.3  34052  287.73 0855.26
2009/04/23 08:53:18.0     254    -99    263    273    379 111.3  49.0  34048  287.69 0855.26
2009/04/23 08:53:18.1     174   -234     57    292    298 143.3  11.1  34048  287.68 0855.26
2009/04/23 08:53:18.2     273   -185    -18    330    331 124.2  -3.2  34050  287.71 0855.26
2009/04/23 08:53:18.3     349   -110    146    367    394 107.6  22.9  34050  287.72 0855.26
2009/04/23 08:53:18.4     301   -185    166    354    390 121.7  27.1  34058  287.83 0855.26
2009/04/23 08:53:18.5     237   -166    201    290    352 125.1  38.3  34052  287.76 0855.26
2009/04/23 08:53:18.6     396   -200    164    444    473 116.8  21.3  34052  287.73 0855.26
2009/04/23 08:53:18.7     305   -142    203    337    393 115.1  34.0  34044  287.61 0855.26
2009/04/23 08:53:18.8     241    -40    262    245    358  99.5  52.1  34052  287.75 0855.26
2009/04/23 08:53:18.9     175   -141    229    226    321 128.9  50.4  34054  287.77 0855.26
2009/04/23 08:53:19.0     187   -155    248    243    347 129.6  50.7  34050  287.70 0855.26
2009/04/23 08:53:19.1     -16    -22    236     28    237 216.1  90.0  34052  287.74 0855.26
2009/04/23 08:53:19.2      86   -134    166    160    230 147.4  51.2  34054  287.79 0855.26
2009/04/23 08:53:19.3      20    -49    133     54    143 157.3  77.1  34054  287.77 0855.26
2009/04/23 08:53:19.4     123    -52    236    134    271 113.1  67.8  34054  287.77 0855.26
2009/04/23 08:53:19.5      97     48     90    109    141  63.4  43.7  34046  287.64 0855.26
2009/04/23 08:53:19.6      85    251    -82    266    278  18.7 -22.1  34052  287.75 0855.26
2009/04/23 08:53:19.7     197    -52    -90    204    222 105.1 -29.6  34054  287.77 0855.26
2009/04/23 08:53:19.8     247   -131    -55    280    286 118.0 -11.1  34048  287.66 0855.26
2009/04/23 08:53:19.9     118     53     16    130    132  65.6   7.1  34056  287.81 0855.26
2009/04/23 08:53:20.0      33     21     36     40     53  56.7  47.9  34056  287.82 0855.26
2009/04/23 08:53:20.1      18    -28     28     34     44 147.4  44.8  34056  287.82 0855.26
2009/04/23 08:53:20.2      44    -90     57    101    115 153.7  31.9  34056  287.82 0855.26
2009/04/23 08:53:20.3      24    -76     75     80    109 162.2  48.0  34056  287.82 0855.26
2009/04/23 08:53:20.4      57    -72     92     92    130 141.7  50.1  34056  287.81 0855.26
2009/04/23 08:53:20.5      -5    -31    149     32    152 189.8  89.0  34062  287.92 0855.26
2009/04/23 08:53:20.6     -13    -94    100     95    137 188.0  52.1  34060  287.87 0855.26
2009/04/23 08:53:20.7     -71    -49    160     87    182 235.4  69.1  34058  287.86 0855.26
2009/04/23 08:53:20.8     -54    -39    133     67    148 234.0  71.4  34060  287.87 0855.26
2009/04/23 08:53:20.9     -36     82    173     90    195 336.4  70.6  34058  287.84 0855.26
2009/04/23 08:53:21.0     -17     90    143     92    170 349.3  64.6  34058  287.86 0855.26
2009/04/23 08:53:21.1      18     49     89     53    103  20.0  66.2  34056  287.82 0855.26
2009/04/23 08:53:21.2     -19     19    126     27    128 315.0  89.0  34062  287.91 0855.26
2009/04/23 08:53:21.3      37     19     98     42    106  62.9  76.1  34058  287.86 0855.26
2009/04/23 08:53:21.4     -18    -57    163     60    173 197.8  79.5  34054  287.79 0855.26
2009/04/23 08:53:21.5      59   -161    131    172    216 159.7  41.4  34052  287.76 0855.26
2009/04/23 08:53:21.6      -1   -279     55    280    286 180.2  11.1  34054  287.78 0855.26
2009/04/23 08:53:21.7     -15   -195     -4    196    197 184.5  -1.3  34052  287.76 0855.26
2009/04/23 08:53:21.8     -39   -196     47    200    206 191.3  13.2  34050  287.72 0855.26
2009/04/23 08:53:21.9      52   -325     47    330    334 170.9   8.2  34048  287.66 0855.26
2009/04/23 08:53:22.0      12   -293    164    294    336 177.5  31.6  34052  287.73 0855.26
2009/04/23 08:53:22.1     -67   -225     26    235    237 196.7   6.5  34040  287.55 0855.26
2009/04/23 08:53:22.2    -176   -386    191    425    465 204.5  25.9  34048  287.67 0855.26
2009/04/23 08:53:22.3     -98   -351    162    365    399 195.7  25.3  34048  287.67 0855.26
2009/04/23 08:53:22.4     -46   -268    139    273    306 189.8  29.2  34048  287.68 0855.26
2009/04/23 08:53:22.5     -86   -214    161    231    281 201.9  38.4  34048  287.68 0855.26
2009/04/23 08:53:22.6    -160   -279    131    322    347 209.9  23.2  34046  287.64 0855.26
2009/04/23 08:53:22.7    -172   -364    203    403    451 205.3  28.9  34052  287.73 0855.26
2009/04/23 08:53:22.8    -274   -366    194    458    497 216.8  24.2  34056  287.80 0855.26
2009/04/23 08:53:22.9    -293   -365    177    469    501 218.7  21.6  34052  287.73 0855.26
2009/04/23 08:53:23.0    -244   -310    168    395    429 218.2  24.3  34054  287.77 0855.26
2009/04/23 08:53:23.1    -259   -253    119    363    383 225.7  18.2  34076  288.15 0855.26
2009/04/23 08:53:23.2    -188   -232     71    299    308 219.0  13.5  34060  287.87 0855.26
2009/04/23 08:53:23.3    -200   -242    111    315    333 219.6  20.2  34058  287.83 0855.26
2009/04/23 08:53:23.4    -198   -300    174    360    399 213.5  27.7  34052  287.74 0855.26
2009/04/23 08:53:23.5    -215   -255    159    334    369 220.1  27.2  34050  287.72 0855.26
2009/04/23 08:53:23.6    -249   -300    153    390    418 219.7  22.5  34056  287.80 0855.26
2009/04/23 08:53:23.7    -190   -262    193    324    377 216.0  33.5  34054  287.78 0855.27
2009/04/23 08:53:23.8    -329   -144    -17    360    361 246.4  -2.8  34062  287.91 0855.27
2009/04/23 08:53:23.9    -240   -185    101    304    321 232.3  18.5  34058  287.85 0855.27
2009/04/23 08:53:24.0    -187   -164    107    249    271 228.7  24.9  34052  287.75 0855.27
2009/04/23 08:53:24.1    -223   -122     52    255    261 241.2  11.6  34060  287.88 0855.27
2009/04/23 08:53:24.2    -274   -180    139    329    357 236.7  24.3  34054  287.79 0855.27
2009/04/23 08:53:24.3    -199   -160    196    256    322 231.1  41.4  34056  287.80 0855.27
2009/04/23 08:53:24.4    -168   -133    207    215    298 231.8  49.0  34054  287.78 0855.27
2009/04/23 08:53:24.5    -307     13     44    308    312 272.6   8.2  34070  288.04 0855.27
2009/04/23 08:53:24.6    -261    -87     75    276    287 251.4  15.3  34064  287.95 0855.27
2009/04/23 08:53:24.7     -80   -158    110    178    209 207.0  35.0  34054  287.77 0855.27
2009/04/23 08:53:24.8    -132    -85     96    158    184 237.1  34.4  34054  287.77 0855.27
2009/04/23 08:53:24.9    -190   -117     61    224    233 238.5  15.3  34052  287.74 0855.27
2009/04/23 08:53:25.0    -183   -100     53    209    216 241.2  14.3  34052  287.76 0855.27
2009/04/23 08:53:25.1    -152    -13     69    153    167 264.8  25.9  34052  287.76 0855.27
2009/04/23 08:53:25.2    -111    -54    122    124    173 243.8  50.2  34054  287.77 0855.27
2009/04/23 08:53:25.3    -173    -22    124    175    214 262.5  38.6  34068  288.01 0855.27
2009/04/23 08:53:25.4    -115     -8     84    116    143 265.7  39.5  34060  287.89 0855.27
2009/04/23 08:53:25.5    -166     56     22    176    178 288.6   7.2  34060  287.87 0855.27
2009/04/23 08:53:25.6    -173      4    -32    174    177 271.5 -10.5  34058  287.86 0855.27
2009/04/23 08:53:25.7     -56    -38   -124     68    141 235.8 -73.3  34060  287.89 0855.25
2009/04/23 08:53:25.8     -78   -102    -61    129    142 217.4 -31.5  34056  287.82 0855.25
2009/04/23 08:53:25.9    -305   -153    -96    342    356 243.4 -15.7  34062  287.91 0855.25
2009/04/23 08:53:26.0    -285   -140   -108    318    336 243.8 -18.8  34058  287.86 0855.25
2009/04/23 08:53:26.1    -344    -28    -13    346    347 265.2  -2.2  34058  287.84 0855.25
2009/04/23 08:53:26.2    -422    -99   -130    434    454 256.8 -16.7  34056  287.80 0855.25
2009/04/23 08:53:26.3    -493    -83     -2    500    501 260.4  -0.3  34058  287.86 0855.25
2009/04/23 08:53:26.4    -422   -111    -96    437    448 255.2 -12.4  34058  287.84 0855.25
2009/04/23 08:53:26.5    -450    -34   -131    452    470 265.6 -20.9  34058  287.86 0855.25
2009/04/23 08:53:26.6    -412    -12   -113    413    428 268.3 -20.0  34066  287.99 0855.25
2009/04/23 08:53:26.7    -351     -3   -146    352    381 269.4 -28.2  34074  288.11 0855.25
2009/04/23 08:53:26.8    -309    -12   -170    310    353 267.6 -35.7  34068  288.01 0855.25
2009/04/23 08:53:26.9    -231    -46   -222    236    324 258.5 -52.6  34066  287.99 0855.25
2009/04/23 08:53:27.0    -118   -250    -99    277    295 205.4 -19.7  34062  287.92 0855.25
2009/04/23 08:53:27.1    -172   -172   -117    244    270 224.9 -31.7  34062  287.92 0855.25
2009/04/23 08:53:27.2     -86   -165   -123    187    223 207.6 -40.7  34058  287.86 0855.25
2009/04/23 08:53:27.3      22    -67    -58     71     91 161.7 -48.1  34060  287.89 0855.25
2009/04/23 08:53:27.4      56    -86    -25    103    107 147.0 -13.9  34060  287.87 0855.25
2009/04/23 08:53:27.5       1   -106    -44    107    115 179.1 -27.5  34062  287.92 0855.25
2009/04/23 08:53:27.6      18    -54      3     57     58 161.5   3.8  34058  287.84 0855.25
2009/04/23 08:53:27.7      28    -31     28     43     51 137.7  35.6  34060  287.87 0855.25
2009/04/23 08:53:27.8      78    -23     42     82     92 106.4  28.7  34056  287.81 0855.25
2009/04/23 08:53:27.9     133     -5     12    134    135  92.5   5.4  34060  287.87 0855.25
2009/04/23 08:53:28.0     105     18     11    107    108  79.9   5.9  34060  287.89 0855.25
2009/04/23 08:53:28.1     103     47     13    114    115  65.6   6.9  34062  287.91 0855.25
2009/04/23 08:53:28.2     -30     24    -90     39     98 309.5 -79.9  34058  287.86 0855.25
2009/04/23 08:53:28.3      -6    136    -52    137    146 357.3 -25.9  34060  287.89 0855.25
2009/04/23 08:53:28.4       8    185    -42    186    191   2.7 -12.9  34062  287.92 0855.25
2009/04/23 08:53:28.5      36    167    -60    171    182  12.3 -19.6  34064  287.94 0855.25
2009/04/23 08:53:28.6     -22    103    -75    106    129 347.5 -43.0  34064  287.94 0855.25
2009/04/23 08:53:28.7      25     93    -90     97    132  15.1 -52.3  34064  287.94 0855.25
2009/04/23 08:53:28.8     -21    104    -62    107    123 348.4 -37.8  34060  287.87 0855.25
2009/04/23 08:53:28.9       4    151    -84    152    173   1.8 -36.0  34064  287.94 0855.25
2009/04/23 08:53:29.0      23    139    -74    142    160   9.7 -34.2  34070  288.04 0855.25
2009/04/23 08:53:29.1      12    121    -62    122    136   5.8 -33.6  34066  287.98 0855.25
2009/04/23 08:53:29.2      10    104    -82    105    133   5.8 -46.6  34064  287.96 0855.25
2009/04/23 08:53:29.3      45    129    -76    137    156  19.2 -36.0  34070  288.04 0855.25
2009/04/23 08:53:29.4      61     96    -77    115    138  32.6 -41.8  34066  287.99 0855.25
2009/04/23 08:53:29.6      57     54   -113     79    137  46.8 -65.9  34064  287.94 0855.25
2009/04/23 08:53:29.6      58    -91   -150    108    184 147.5 -65.0  34060  287.89 0855.25
2009/04/23 08:53:29.7      78    -47    -83     92    123 121.1 -51.9  34060  287.87 0855.25
2009/04/23 08:53:29.8     217    -34    -95    220    239  99.0 -29.3  34060  287.88 0855.25
2009/04/23 08:53:29.9      91     17   -179     93    201  79.0 -75.0  34064  287.94 0855.25
2009/04/23 08:53:30.0      26     21   -136     34    140  50.5 -90.0  34066  287.98 0855.25
2009/04/23 08:53:30.1      36     36   -114     51    124  45.0 -79.3  34064  287.96 0855.25
2009/04/23 08:53:30.2     -11     23   -100     26    103 334.6 -89.3  34066  287.98 0855.25
2009/04/23 08:53:30.3       0      3    -90      4     90 350.3 -90.0  34064  287.94 0855.25
2009/04/23 08:53:30.4      32     36    -50     49     70  41.4 -53.5  34060  287.87 0855.25
2009/04/23 08:53:30.5       6    -42    -87     43     97 171.1 -76.8  34062  287.91 0855.25
2009/04/23 08:53:30.7     -71     -9   -144     72    160 262.1 -76.1  34062  287.92 0855.25
2009/04/23 08:53:30.8     -87    -12   -144     88    168 261.6 -70.1  34060  287.89 0855.25
2009/04/23 08:53:30.9       0     -7   -139      8    139 182.7 -90.0  34060  287.89 0855.25
2009/04/23 08:53:31.0      41    -88    -85     98    129 154.7 -49.8  34064  287.94 0855.25
2009/04/23 08:53:31.1      36   -133     -3    138    139 164.8  -1.3  34060  287.89 0855.25
2009/04/23 08:53:31.2      29   -165     34    168    172 170.0  11.4  34060  287.87 0855.25
2009/04/23 08:53:31.3      73   -201     34    215    218 160.0   9.0  34064  287.94 0855.25
2009/04/23 08:53:31.4      41   -192     -3    197    198 167.7  -1.1  34062  287.91 0855.25
2009/04/23 08:53:31.5       0   -123     42    124    132 180.4  18.9  34062  287.91 0855.25
2009/04/23 08:53:31.6     -50   -131     22    141    143 200.9   9.0  34062  287.91 0855.25
2009/04/23 08:53:31.7     -85   -101     19    133    135 220.1   8.5  34064  287.94 0855.25
2009/04/23 08:53:31.8     -37    -65      3     76     77 209.9   2.9  34062  287.92 0855.26
2009/04/23 08:53:31.9     -21    -90     23     93     96 193.4  14.3  34062  287.92 0855.26
2009/04/23 08:53:32.0     -24   -135     13    138    139 190.2   5.4  34060  287.89 0855.26
2009/04/23 08:53:32.1      10   -133     11    134    135 175.6   4.9  34062  287.91 0855.26
2009/04/23 08:53:32.2      -7    -91     45     92    102 184.5  27.3  34058  287.86 0855.26
2009/04/23 08:53:32.3    -114    -77     49    138    146 235.8  20.0  34060  287.87 0855.26
2009/04/23 08:53:32.4     -43    -97     83    107    135 204.1  41.7  34060  287.87 0855.26
2009/04/23 08:53:32.5     -67    -80     74    105    128 219.7  38.6  34062  287.91 0855.26
2009/04/23 08:53:32.6     -43     14     34     46     57 288.2  40.7  34062  287.91 0855.26
2009/04/23 08:53:32.7     -48     31     17     58     61 302.4  16.3  34066  287.98 0855.26
2009/04/23 08:53:32.8     -20     48     -2     53     54 337.3  -2.2  34064  287.94 0855.26
2009/04/23 08:53:32.9       3     48     24     49     54   4.4  27.2  34062  287.92 0855.26
2009/04/23 08:53:33.0      12     16     58     21     61  36.1  80.2  34064  287.94 0855.26
2009/04/23 08:53:33.1      -1    -22     60     23     64 182.7  79.2  34064  287.96 0855.26
2009/04/23 08:53:33.2       6    -61     41     62     74 173.8  35.6  34064  287.94 0855.26
2009/04/23 08:53:33.3      -7    -38     37     39     53 191.6  50.0  34062  287.92 0855.26
2009/04/23 08:53:33.4      -6    -38     22     39     44 189.8  32.4  34062  287.92 0855.26
2009/04/23 08:53:33.5     -35    -28      4     45     46 231.4   5.9  34062  287.91 0855.26
2009/04/23 08:53:33.6     -82    -56     -5    100    101 235.4  -3.1  34064  287.94 0855.26
2009/04/23 08:53:33.7     -66   -110     35    129    134 211.2  15.2  34062  287.91 0855.26
2009/04/23 08:53:33.8     -99   -102     12    143    144 224.1   5.0  34060  287.87 0855.25
2009/04/23 08:53:33.9    -118    -97     -4    153    154 230.5  -1.8  34062  287.91 0855.25
2009/04/23 08:53:34.0    -136    -67     -8    152    153 243.8  -3.2  34064  287.96 0855.25
2009/04/23 08:53:34.1    -124    -84    -16    150    151 235.9  -6.2  34062  287.91 0855.25
2009/04/23 08:53:34.2    -182    -46      0    188    189 255.6   0.0  34062  287.92 0855.25
2009/04/23 08:53:34.3    -147    -72     31    164    167 243.8  10.8  34060  287.87 0855.25
2009/04/23 08:53:34.4    -126     -9     41    127    134 265.7  17.9  34062  287.91 0855.25
2009/04/23 08:53:34.5    -107     16     39    109    115 278.8  20.0  34062  287.91 0855.25
2009/04/23 08:53:34.6     -99      0     76    100    125 269.6  41.2  34062  287.91 0855.25
2009/04/23 08:53:34.7     -83     -7     61     84    103 265.2  39.5  34062  287.92 0855.25
2009/04/23 08:53:34.8     -19     -4     54     20     57 256.7  80.2  34062  287.91 0855.25
2009/04/23 08:53:34.9      17    -25     64     31     71 145.7  72.8  34060  287.89 0855.25
2009/04/23 08:53:35.0      26    -21     59     34     68 129.6  67.7  34064  287.94 0855.25
2009/04/23 08:53:35.1       7    -91     71     92    116 175.5  41.7  34062  287.91 0855.25
2009/04/23 08:53:35.2     -12   -138    104    139    173 185.3  40.4  34056  287.81 0855.25
2009/04/23 08:53:35.3     -82   -216    103    232    253 200.9  25.7  34052  287.75 0855.25
2009/04/23 08:53:35.4    -109   -196     95    225    244 209.2  24.3  34046  287.65 0855.25
2009/04/23 08:53:35.5     -95   -180     52    204    211 207.9  14.5  34050  287.72 0855.25
2009/04/23 08:53:35.6     -21    -94    182     97    206 192.9  70.0  34050  287.72 0855.25
2009/04/23 08:53:35.7      89   -103    149    137    202 139.0  52.5  34052  287.76 0855.25
2009/04/23 08:53:35.8      45   -214    208    219    302 168.0  48.2  34052  287.73 0855.25
2009/04/23 08:53:35.9      56   -170    194    180    264 161.7  52.2  34054  287.77 0855.25
2009/04/23 08:53:36.0     129   -236    190    270    330 151.3  38.5  34058  287.85 0855.25
2009/04/23 08:53:36.1      96   -237    157    256    300 157.9  34.5  34056  287.82 0855.25
2009/04/23 08:53:36.2     123   -207    130    241    273 149.3  30.6  34056  287.82 0855.25
2009/04/23 08:53:36.3     103   -179    156    207    259 150.1  40.7  34058  287.83 0855.25
2009/04/23 08:53:36.4      39   -205    163    209    265 169.1  42.2  34060  287.87 0855.25
2009/04/23 08:53:36.5     -22   -189    124    191    227 186.9  35.6  34058  287.84 0855.25
2009/04/23 08:53:36.6     -87   -196     67    215    226 204.1  17.4  34052  287.76 0855.25
2009/04/23 08:53:36.7    -150   -318     -6    352    353 205.3  -1.1  34056  287.81 0855.25
2009/04/23 08:53:36.8    -176   -379    -52    418    422 204.9  -7.2  34050  287.70 0855.24
2009/04/23 08:53:36.9    -222   -261     -4    343    344 220.4  -0.7  34052  287.76 0855.24
2009/04/23 08:53:37.0    -162   -254     42    302    306 212.6   8.0  34052  287.75 0855.24
2009/04/23 08:53:37.1     -65   -210     56    220    228 197.2  14.3  34056  287.82 0855.24
2009/04/23 08:53:37.2     -12   -155     33    156    160 184.5  12.2  34054  287.77 0855.24
2009/04/23 08:53:37.3     -22   -109     51    112    123 191.6  25.7  34052  287.76 0855.24
2009/04/23 08:53:37.4       1    -74     62     75     97 179.1  43.8  34052  287.76 0855.24
2009/04/23 08:53:37.5      18    -38      2     43     44 154.6   2.9  34056  287.81 0855.24
2009/04/23 08:53:37.6      46    -96    -49    107    117 154.5 -30.6  34054  287.79 0855.24
2009/04/23 08:53:37.7      50   -153    -45    162    168 161.7 -20.2  34054  287.79 0855.24
2009/04/23 08:53:37.8     117   -138    -46    181    187 139.7 -14.3  34052  287.74 0855.24
2009/04/23 08:53:37.9     101    -89    -48    136    145 131.4 -19.7  34052  287.76 0855.24
2009/04/23 08:53:38.0      41   -112    -60    120    134 160.0 -33.1  34054  287.77 0855.24
2009/04/23 08:53:38.1      31   -185    -61    188    197 170.4 -23.0  34054  287.79 0855.24
2009/04/23 08:53:38.2      23   -159    -65    161    173 171.5 -27.4  34052  287.76 0855.24
2009/04/23 08:53:38.3     -11   -158    -73    159    174 184.0 -31.0  34048  287.69 0855.24
2009/04/23 08:53:38.4      88   -203    -26    222    224 156.6  -6.9  34050  287.70 0855.24
2009/04/23 08:53:38.5     132   -185    -52    228    234 144.6 -12.9  34052  287.74 0855.24
2009/04/23 08:53:38.6     161   -176     65    239    248 137.5  15.3  34052  287.73 0855.24
2009/04/23 08:53:38.7     163   -128     38    208    212 128.2  10.6  34052  287.74 0855.24
2009/04/23 08:53:38.8     207    -56     18    215    216 105.3   5.0  34052  287.76 0855.25
2009/04/23 08:53:38.9     217    -37     16    221    222  99.7   4.4  34050  287.72 0855.25
2009/04/23 08:53:39.0     262    -76    -35    273    276 106.2  -7.3  34052  287.75 0855.25
2009/04/23 08:53:39.1     235   -104     -5    258    259 114.0  -1.2  34052  287.75 0855.25
2009/04/23 08:53:39.2     218    -38    -21    222    224 100.1  -5.6  34050  287.70 0855.25
2009/04/23 08:53:39.3     230      0    -41    231    235  90.0 -10.1  34052  287.73 0855.25
2009/04/23 08:53:39.4     158     12    -52    159    168  85.6 -18.3  34054  287.77 0855.25
2009/04/23 08:53:39.5      94      7    -77     95    122  85.6 -48.1  34052  287.76 0855.25
2009/04/23 08:53:39.6      81     -6    -46     82     94  94.8 -36.8  34050  287.72 0855.25
2009/04/23 08:53:39.7      14    -37    -65     40     76 158.2 -69.1  34054  287.79 0855.25
2009/04/23 08:53:39.8      19      0    -50     20     53  90.0 -82.6  34054  287.77 0855.25
2009/04/23 08:53:39.9       5     23    -45     24     51  13.4 -74.2  34052  287.76 0855.25
2009/04/23 08:53:40.0      11     35    -49     37     61  18.7 -63.8  34054  287.79 0855.25
2009/04/23 08:53:40.1      23      0    -24     24     33  90.0 -54.5  34052  287.76 0855.25
2009/04/23 08:53:40.2      18     -6     -4     20     21 110.0 -11.3  34052  287.74 0855.25
2009/04/23 08:53:40.3      21    -32     15     39     41 145.7  22.0  34052  287.76 0855.25
2009/04/23 08:53:40.4      21    -34      5     41     42 148.4   8.0  34056  287.81 0855.25
2009/04/23 08:53:40.5       9    -26      2     28     29 160.0   4.9  34052  287.76 0855.25
2009/04/23 08:53:40.6       7    -21      1     23     24 160.0   2.9  34052  287.76 0855.25
2009/04/23 08:53:40.7      30    -47     -4     56     57 147.4  -4.1  34054  287.77 0855.25
2009/04/23 08:53:40.8      28    -18     33     34     47 122.5  51.1  34054  287.79 0855.26
2009/04/23 08:53:40.9      22    -47     56     53     77 154.6  51.2  34054  287.77 0855.26
2009/04/23 08:53:41.0       5    -70     83     71    109 175.5  55.8  34052  287.76 0855.26
2009/04/23 08:53:41.1     -16   -108     34    110    116 188.5  17.4  34052  287.76 0855.26
2009/04/23 08:53:41.2      38    -84     64     93    112 155.5  38.0  34050  287.70 0855.26
2009/04/23 08:53:41.3      38    -38     64     55     84 135.0  54.3  34050  287.70 0855.26
2009/04/23 08:53:41.4      12    -16     60     21     63 142.2  81.2  34052  287.76 0855.26
2009/04/23 08:53:41.5     -93    -90     84    130    154 226.0  35.6  34048  287.67 0855.26
2009/04/23 08:53:41.6     -60    -90     74    109    131 213.8  37.4  34048  287.67 0855.26
2009/04/23 08:53:41.7     -10   -104    114    105    154 185.8  52.2  34046  287.65 0855.26
2009/04/23 08:53:41.8     -36   -135     84    140    163 195.2  34.0  34048  287.67 0855.26
2009/04/23 08:53:41.9     -50   -138     45    147    154 200.0  17.1  34048  287.67 0855.26
2009/04/23 08:53:42.0    -102   -108    -41    149    155 223.2 -15.5  34046  287.65 0855.26
2009/04/23 08:53:42.1    -120    -55    -17    133    135 245.2  -7.3  34046  287.64 0855.26
2009/04/23 08:53:42.2     -97    -96    -35    137    142 225.1 -14.5  34048  287.69 0855.26
2009/04/23 08:53:42.3     -99    -59     31    116    121 238.9  15.2  34048  287.67 0855.26
2009/04/23 08:53:42.4     -94     -4     63     95    113 267.0  36.0  34050  287.70 0855.26
2009/04/23 08:53:42.5     -41   -121    142    128    191 198.7  53.3  34048  287.69 0855.26
2009/04/23 08:53:42.6     -70   -168    121    183    219 202.7  36.7  34044  287.62 0855.26
2009/04/23 08:53:42.7     -32   -137    108    141    177 193.4  41.4  34048  287.67 0855.26
2009/04/23 08:53:42.8     -96   -171     72    197    209 209.4  20.9  34048  287.69 0855.26
2009/04/23 08:53:42.9    -208   -113    123    238    267 241.4  29.3  34044  287.61 0855.26
2009/04/23 08:53:43.0    -222    -96    -75    243    255 246.5 -17.3  34048  287.66 0855.26
2009/04/23 08:53:43.1    -274   -130    -76    304    314 244.6 -14.1  34044  287.60 0855.26
2009/04/23 08:53:43.2    -228    -22    -70    230    241 264.3 -17.0  34048  287.66 0855.26
2009/04/23 08:53:43.3    -180      0    -93    181    203 270.0 -33.7  34050  287.72 0855.26
2009/04/23 08:53:43.4    -216    -38   -125    220    253 259.9 -36.7  34058  287.83 0855.26
2009/04/23 08:53:43.5    -147    -29    -94    150    177 258.6 -39.6  34058  287.84 0855.26
2009/04/23 08:53:43.6     -71    -63   -103     96    140 228.2 -56.6  34056  287.81 0855.26
2009/04/23 08:53:43.7     -42    -41    -69     59     90 226.0 -59.8  34054  287.77 0855.26
2009/04/23 08:53:43.8     -75    -43    -29     87     92 239.8 -18.7  34054  287.77 0855.26
2009/04/23 08:53:43.9     -99   -112      7    150    151 221.5   2.9  34056  287.81 0855.26
2009/04/23 08:53:44.0    -164   -117     15    202    203 234.5   4.4  34052  287.76 0855.26
2009/04/23 08:53:44.1    -287   -129     32    315    317 245.8   6.0  34046  287.63 0855.26
2009/04/23 08:53:44.2    -328   -107    -74    346    355 251.9 -12.2  34052  287.76 0855.26
2009/04/23 08:53:44.3    -332   -132    -98    358    372 248.3 -15.4  34052  287.76 0855.26
2009/04/23 08:53:44.4    -331   -148   -100    363    377 245.9 -15.4  34050  287.71 0855.26
2009/04/23 08:53:44.5    -321   -123   -117    344    364 248.9 -18.9  34052  287.74 0855.26
2009/04/23 08:53:44.6    -339   -116   -115    359    376 251.0 -23.0  34050  287.71 0855.26
2009/04/23 08:53:44.7    -331   -114   -107    351    368 250.9 -16.9  34054  287.78 0855.26
2009/04/23 08:53:44.8    -326   -108   -155    344    377 251.5 -30.3  34054  287.78 0855.23
2009/04/23 08:53:44.9    -336   -129   -114    361    378 248.9 -22.5  34058  287.86 0855.23
2009/04/23 08:53:45.0    -293   -181   -108    345    361 238.2 -22.4  34058  287.86 0855.23
2009/04/23 08:53:45.1    -236   -109    -72    260    269 245.2 -20.2  34056  287.80 0855.23
2009/04/23 08:53:45.2    -213   -143    -87    257    272 236.0 -18.7  34054  287.78 0855.23
2009/04/23 08:53:45.3    -236   -130   -132    270    300 241.1 -32.4  34048  287.68 0855.23
2009/04/23 08:53:45.4    -219    -79   -126    233    264 250.1 -35.0  34054  287.77 0855.23
2009/04/23 08:53:45.5    -157     15   -124    158    200 275.7 -46.6  34054  287.77 0855.23
2009/04/23 08:53:45.6    -162    -29   -108    165    197 259.6 -40.7  34050  287.70 0855.23
2009/04/23 08:53:45.7    -279    -17    -46    280    284 266.5  -9.3  34046  287.65 0855.23
2009/04/23 08:53:45.8    -285     16    -98    286    302 273.3 -23.6  34048  287.68 0855.23
2009/04/23 08:53:45.9    -261    -19    -85    262    275 265.7 -22.9  34050  287.71 0855.23
2009/04/23 08:53:46.0    -182   -166     -9    247    248 227.7  -2.2  34048  287.68 0855.23
2009/04/23 08:53:46.1    -168   -120    -34    207    210 234.3  -9.3  34050  287.70 0855.23
2009/04/23 08:53:46.2     -97   -191     -4    215    216 207.0  -1.2  34050  287.72 0855.23
2009/04/23 08:53:46.3    -112   -254    -74    278    288 203.8 -15.0  34048  287.68 0855.23
2009/04/23 08:53:46.4     -84   -245    -73    260    271 199.1 -15.8  34046  287.65 0855.23
2009/04/23 08:53:46.5    -113   -204    -28    234    236 209.0  -6.9  34056  287.82 0855.23
2009/04/23 08:53:46.6     -91   -222      6    240    241 202.3   1.6  34052  287.73 0855.23
2009/04/23 08:53:46.7    -140   -220     -1    261    262 212.5  -0.3  34052  287.75 0855.23
2009/04/23 08:53:46.8    -108   -197    -25    225    227 208.7  -6.5  34050  287.70 0855.23
2009/04/23 08:53:46.9     -70   -148    -71    164    178 205.4 -29.0  34052  287.76 0855.23
2009/04/23 08:53:47.0      -3   -169    -32    170    174 181.1 -10.9  34046  287.64 0855.23
2009/04/23 08:53:47.1     -46   -263   -105    268    287 190.0 -26.9  34044  287.60 0855.23
2009/04/23 08:53:47.2     -31   -220   -100    223    244 188.1 -30.3  34050  287.70 0855.23
2009/04/23 08:53:47.3     -52   -176    -77    184    199 196.5 -28.2  34048  287.67 0855.23
2009/04/23 08:53:47.4     -56   -179      4    188    189 197.6   1.2  34046  287.64 0855.23
2009/04/23 08:53:47.5     -47   -233    -64    238    247 191.5 -15.2  34048  287.66 0855.23
2009/04/23 08:53:47.6      10   -233     12    234    235 177.4   3.1  34046  287.65 0855.23
2009/04/23 08:53:47.7      19   -224    -14    225    226 175.1  -3.7  34048  287.69 0855.23
2009/04/23 08:53:47.8      67   -220     -5    231    232 163.0  -1.3  34048  287.67 0855.23
2009/04/23 08:53:47.9      63   -209    -28    219    221 163.1  -7.3  34050  287.70 0855.23
2009/04/23 08:53:48.0      91   -195     17    216    217 155.1   4.6  34052  287.76 0855.23
2009/04/23 08:53:48.1      69   -146     14    162    163 154.5   5.2  34052  287.76 0855.23
2009/04/23 08:53:48.2      51   -153     18    162    164 161.5   6.5  34050  287.72 0855.23
2009/04/23 08:53:48.3      52   -130     44    141    148 158.2  17.4  34052  287.74 0855.23
2009/04/23 08:53:48.4      54    -91     45    106    115 149.3  24.1  34050  287.72 0855.23
2009/04/23 08:53:48.5      85    -17     76     87    115 101.5  45.4  34052  287.76 0855.23
2009/04/23 08:53:48.6      62     20    170     66    182  71.8  77.8  34056  287.82 0855.23
2009/04/23 08:53:48.7      74     59    153     95    180  51.4  65.1  34056  287.81 0855.23
2009/04/23 08:53:48.8     100     45    102    110    150  65.6  47.9  34058  287.86 0855.25
2009/04/23 08:53:48.9      75     80    102    111    150  43.2  47.9  34056  287.82 0855.25
2009/04/23 08:53:49.0     -52    -52    112     74    134 225.0  64.1  34060  287.87 0855.25
2009/04/23 08:53:49.1     -93   -128    131    159    206 216.1  43.7  34056  287.81 0855.25
2009/04/23 08:53:49.2    -112    -53     95    125    157 244.6  41.4  34058  287.84 0855.25
2009/04/23 08:53:49.3     -70    -45    112     84    140 237.5  59.4  34062  287.91 0855.25
2009/04/23 08:53:49.4    -111    -29     82    115    141 255.4  39.5  34056  287.81 0855.25
2009/04/23 08:53:49.5    -134    -22     57    136    147 260.3  23.6  34052  287.76 0855.25
2009/04/23 08:53:49.6    -112    -22     47    115    124 258.5  23.0  34052  287.74 0855.25
2009/04/23 08:53:49.7    -118    -26     81    122    146 257.2  36.5  34054  287.77 0855.25
2009/04/23 08:53:49.8    -167     -8     69    168    181 267.0  23.4  34058  287.84 0855.25
2009/04/23 08:53:49.9    -136    -83     65    160    172 238.5  23.0  34054  287.79 0855.25
2009/04/23 08:53:50.0     -70   -100     87    123    150 215.2  39.1  34056  287.81 0855.25
2009/04/23 08:53:50.1     -83   -113     81    141    162 216.5  32.7  34056  287.81 0855.25
2009/04/23 08:53:50.2     -46    -83     76     95    121 209.0  42.7  34054  287.79 0855.25
2009/04/23 08:53:50.3     -44    -75    131     88    157 210.3  63.2  34058  287.84 0855.25
2009/04/23 08:53:50.4    -102   -123     82    161    180 219.7  29.1  34054  287.77 0855.25
2009/04/23 08:53:50.5     -64   -165     81    178    195 201.4  26.2  34054  287.79 0855.25
2009/04/23 08:53:50.6     -87   -198    160    217    269 203.8  39.9  34054  287.77 0855.25
2009/04/23 08:53:50.7     -95   -219    115    239    265 203.4  27.3  34054  287.77 0855.25
2009/04/23 08:53:50.8     -86   -181    115    201    231 205.5  32.7  34050  287.70 0855.26
2009/04/23 08:53:50.9     -57   -170     71    180    193 198.7  22.5  34052  287.76 0855.26
2009/04/23 08:53:51.0     -98   -209     99    231    251 205.2  24.6  34054  287.77 0855.26
2009/04/23 08:53:51.1    -100   -202     99    226    246 206.3  25.1  34056  287.80 0855.26
2009/04/23 08:53:51.2    -138   -196    103    241    262 215.2  24.3  34052  287.75 0855.26
2009/04/23 08:53:51.3     -88   -225    109    242    265 201.4  26.2  34054  287.77 0855.26
2009/04/23 08:53:51.4    -128   -254     78    285    296 206.7  15.3  34054  287.77 0855.26
2009/04/23 08:53:51.5    -110   -234     84    259    273 205.3  18.1  34054  287.77 0855.26
2009/04/23 08:53:51.6     -85   -216     41    233    237 201.6  10.0  34056  287.80 0855.26
2009/04/23 08:53:51.7     -81   -301     34    312    314 195.2   6.4  34056  287.82 0855.26
2009/04/23 08:53:51.8     -87   -233     41    249    253 200.5   9.5  34052  287.73 0855.26
2009/04/23 08:53:51.9    -126   -266     72    295    304 205.3  13.8  34050  287.71 0855.26
2009/04/23 08:53:52.0    -131   -248     28    281    283 207.9   5.7  34058  287.83 0855.26
2009/04/23 08:53:52.1    -189   -228    -16    297    298 219.6  -3.2  34082  288.26 0855.26
2009/04/23 08:53:52.2    -264   -167    -35    313    316 237.6  -6.5  34114  288.80 0855.26
2009/04/23 08:53:52.3    -217    -73    -68    230    241 251.4 -16.6  34112  288.76 0855.26
2009/04/23 08:53:52.4    -212   -123   -103    246    266 239.8 -28.5  34112  288.76 0855.26
2009/04/23 08:53:52.5    -236    -10    -70    237    247 267.4 -21.2  34068  288.02 0855.26
2009/04/23 08:53:52.6    -384    137     -8    408    409 289.7  -1.2  34050  287.70 0855.26
2009/04/23 08:53:52.7    -337     75     26    346    347 282.7   4.3  34068  288.03 0855.26
2009/04/23 08:53:52.8    -231   -217    136    317    344 226.8  24.8  34074  288.13 0855.27
2009/04/23 08:53:52.9    -221    -87     85    238    252 248.5  20.2  34076  288.15 0855.27
2009/04/23 08:53:53.0    -138   -189     50    235    241 216.1  12.0  34076  288.15 0855.27
2009/04/23 08:53:53.1    -146   -190    -13    240    241 217.6  -3.2  34072  288.07 0855.27
2009/04/23 08:53:53.2    -115    -20    105    117    157 259.9  46.6  34068  288.01 0855.27
2009/04/23 08:53:53.3    -190     36     87    194    212 280.8  25.7  34066  287.99 0855.27
2009/04/23 08:53:53.4    -250     22    -27    252    254 275.2  -6.2  34068  288.00 0855.27
2009/04/23 08:53:53.5    -169    -12     74    170    185 265.9  24.9  34072  288.09 0855.27
2009/04/23 08:53:53.6    -163     62     61    175    186 291.1  19.4  34078  288.18 0855.27
2009/04/23 08:53:53.7    -268    164    -93    315    329 301.5 -16.5  34058  287.83 0855.27
2009/04/23 08:53:53.8    -260     30    -10    262    263 276.6  -2.2  34074  288.10 0855.27
2009/04/23 08:53:53.9    -341    -47    -10    345    346 262.1  -1.7  34080  288.22 0855.27
2009/04/23 08:53:54.0    -297      8    104    298    315 271.7  20.1  34052  287.75 0855.27
2009/04/23 08:53:54.1    -265     41     27    269    271 278.8   5.9  34062  287.92 0855.27
2009/04/23 08:53:54.2    -259    -53    -19    265    266 258.3  -4.1  34062  287.90 0855.27
2009/04/23 08:53:54.3    -332   -180     32    378    380 241.5   5.0  34064  287.93 0855.27
2009/04/23 08:53:54.4    -300    -70     15    309    310 256.8   2.8  34078  288.17 0855.27
2009/04/23 08:53:54.5    -339    -48    -40    343    346 261.9  -6.7  34094  288.47 0855.27
2009/04/23 08:53:54.6    -309    -78    -85    319    331 255.7 -15.1  34096  288.49 0855.27
2009/04/23 08:53:54.7    -277    -38    -50    280    285 262.1 -10.1  34090  288.37 0855.27
2009/04/23 08:53:54.8    -299     -8    -95    300    314 268.3 -22.5  34060  287.88 0855.27
2009/04/23 08:53:54.9    -307    114    -90    328    340 290.5 -20.0  34058  287.83 0855.27
2009/04/23 08:53:55.0    -304    -24     38    306    309 265.4   7.1  34062  287.90 0855.27
2009/04/23 08:53:55.1    -315    -72     11    324    325 257.0   2.1  34072  288.09 0855.27
2009/04/23 08:53:55.2    -291    -63     42    298    302 257.7   8.0  34070  288.05 0855.27
2009/04/23 08:53:55.3    -291     26     30    293    295 275.2   5.9  34070  288.04 0855.27
2009/04/23 08:53:55.4    -240   -119    -33    268    271 243.6  -7.2  34082  288.26 0855.27
2009/04/23 08:53:55.5    -258     -9    -61    259    267 267.9 -13.3  34070  288.05 0855.27
2009/04/23 08:53:55.6    -281   -111    -76    303    313 248.3 -14.1  34078  288.17 0855.27
2009/04/23 08:53:55.7    -298   -272    -14    404    405 227.6  -2.1  34064  287.94 0855.27
2009/04/23 08:53:55.8    -273   -198    -43    338    341 234.1  -7.3  34064  287.96 0855.26
2009/04/23 08:53:55.9    -313    -63     -6    320    321 258.5  -1.2  34060  287.87 0855.26
2009/04/23 08:53:56.0    -245   -184    -48    307    311 233.2  -9.0  34066  287.99 0855.26
2009/04/23 08:53:56.1    -223   -105    -39    247    251 244.8  -9.0  34058  287.85 0855.26
2009/04/23 08:53:56.2    -175   -224     88    285    299 218.1  17.3  34066  287.97 0855.26
2009/04/23 08:53:56.3    -146   -274     90    311    324 208.1  16.1  34060  287.87 0855.26
2009/04/23 08:53:56.4    -182   -345     -6    391    392 207.9  -0.9  34058  287.84 0855.26
2009/04/23 08:53:56.5    -209   -207     16    295    296 225.3   3.3  34052  287.75 0855.26
2009/04/23 08:53:56.6     -93    -31     34     99    105 251.6  18.9  34060  287.87 0855.26
2009/04/23 08:53:56.7      -5     73     34     74     81 355.5  26.2  34058  287.86 0855.26
2009/04/23 08:53:56.8     103     14    137    105    172  82.0  58.7  34050  287.70 0855.26
2009/04/23 08:53:56.9      19     -7    155     21    156 111.7  90.0  34052  287.76 0855.26
2009/04/23 08:53:57.0     -21   -106    134    109    172 191.1  56.4  34056  287.82 0855.26
2009/04/23 08:53:57.1     -55   -232    132    239    273 193.4  31.4  34060  287.87 0855.26
2009/04/23 08:53:57.2     -37   -417     76    419    426 185.1  10.4  34052  287.75 0855.26
2009/04/23 08:53:57.3       7   -387    225    388    448 178.9  32.9  34054  287.79 0855.26
2009/04/23 08:53:57.4     -18   -346    239    347    421 183.0  37.9  34058  287.83 0855.26
2009/04/23 08:53:57.5      30   -391    162    393    425 175.5  23.7  34048  287.68 0855.26
2009/04/23 08:53:57.6      89   -258     23    274    276 160.9   5.0  34054  287.77 0855.26
2009/04/23 08:53:57.7      38   -368    -47    371    375 174.0  -7.3  34050  287.72 0855.26
2009/04/23 08:53:57.8     101   -185     86    212    228 151.3  23.1  34052  287.74 0855.26
2009/04/23 08:53:57.9    -135   -206     46    247    252 213.4  10.6  34050  287.70 0855.26
2009/04/23 08:53:58.0     -63   -250    -40    258    262 194.2  -8.8  34056  287.82 0855.26
2009/04/23 08:53:58.1     -67   -139   -121    155    196 205.9 -46.4  34050  287.70 0855.26
2009/04/23 08:53:58.2    -182   -182   -173    258    310 225.1 -41.1  34054  287.78 0855.26
2009/04/23 08:53:58.4     -32   -282    -51    284    289 186.5 -10.3  34054  287.78 0855.26
2009/04/23 08:53:58.5     -35   -323      9    325    326 186.3   1.6  34052  287.73 0855.26
2009/04/23 08:53:58.6      41   -347    -18    350    351 173.1  -3.0  34054  287.78 0855.26
2009/04/23 08:53:58.7     117   -378     39    396    398 162.8   5.7  34052  287.76 0855.26
2009/04/23 08:53:58.8     158   -340    -47    375    378 155.1  -7.2  34054  287.78 0855.26
2009/04/23 08:53:58.9     198   -294    -69    355    362 145.9 -11.1  34052  287.76 0855.26
2009/04/23 08:53:59.0     205   -246    -53    321    326 140.1  -9.5  34048  287.66 0855.26
2009/04/23 08:53:59.1     170   -258    -21    310    311 146.6  -4.0  34048  287.66 0855.26
2009/04/23 08:53:59.2     187   -234     -8    300    301 141.3  -1.6  34048  287.68 0855.26
2009/04/23 08:53:59.3     207   -242      1    319    320 139.4   0.2  34048  287.68 0855.26
2009/04/23 08:53:59.4     163   -204     11    262    263 141.3   2.5  34050  287.71 0855.26
2009/04/23 08:53:59.5     124   -246     38    276    279 153.3   8.0  34050  287.71 0855.26
2009/04/23 08:53:59.6     168   -266     55    315    320 147.7  10.0  34052  287.75 0855.26
2009/04/23 08:53:59.7     236   -287    -24    372    373 140.5  -3.7  34052  287.74 0855.26
2009/04/23 08:53:59.8     243   -272     -4    366    367 138.2  -0.7  34052  287.74 0855.26
2009/04/23 08:53:59.9     217   -218    -12    308    309 135.2  -2.2  34052  287.75 0855.27
2009/04/23 08:54:00.0     178   -127    -19    219    220 125.5  -5.2  34056  287.81 0855.27
2009/04/23 08:54:00.1     154   -167     -8    228    229 137.2  -2.2  34052  287.74 0855.27
2009/04/23 08:54:00.2      78   -236    112    249    273 161.7  25.9  34042  287.58 0855.27
2009/04/23 08:54:00.3      67   -288    140    296    327 166.9  27.2  34050  287.70 0855.27
2009/04/23 08:54:00.4      -8   -335    207    336    394 181.4  34.5  34048  287.67 0855.27
2009/04/23 08:54:00.5     -23   -310    290    311    425 184.4  47.9  34050  287.71 0855.27
2009/04/23 08:54:00.6      55   -167    189    176    258 161.7  52.2  34046  287.65 0855.27
2009/04/23 08:54:00.7      89   -155    149    179    232 150.1  43.8  34050  287.70 0855.27
2009/04/23 08:54:00.8      27   -280    127    282    309 174.4  26.2  34048  287.66 0855.27
2009/04/23 08:54:00.9     118   -265    110    291    311 155.9  21.5  34054  287.77 0855.27
2009/04/23 08:54:01.0     131   -329    174    355    395 158.2  28.1  34052  287.74 0855.27
2009/04/23 08:54:01.1      67   -341    198    348    400 168.9  32.3  34052  287.74 0855.27
2009/04/23 08:54:01.2      96   -365    204    378    429 165.2  30.7  34052  287.75 0855.27
2009/04/23 08:54:01.3      96   -371    261    384    464 165.5  37.4  34056  287.80 0855.27
2009/04/23 08:54:01.4      79   -325    265    335    427 166.2  42.6  34052  287.74 0855.27
2009/04/23 08:54:01.5       5   -278    281    279    395 178.9  50.1  34054  287.78 0855.27
2009/04/23 08:54:01.6       5   -373    255    374    452 179.2  37.6  34058  287.84 0855.27
2009/04/23 08:54:01.7      -5   -279    244    280    371 181.1  45.7  34054  287.78 0855.27
2009/04/23 08:54:01.8      -3   -227    214    228    312 181.0  48.2  34056  287.82 0855.27
2009/04/23 08:54:01.9     105   -371    216    386    442 164.2  31.6  34056  287.82 0855.27
2009/04/23 08:54:02.0      11   -298    123    299    323 177.8  23.7  34054  287.77 0855.27
2009/04/23 08:54:02.1      43   -302    171    306    350 171.9  31.6  34058  287.84 0855.27
2009/04/23 08:54:02.2      10   -271    106    272    291 177.8  22.3  34052  287.75 0855.27
2009/04/23 08:54:02.3     -59   -275    146    282    317 192.3  29.5  34058  287.83 0855.27
2009/04/23 08:54:02.4     -77   -261     81    273    285 196.5  16.6  34058  287.83 0855.27
2009/04/23 08:54:02.5     -74   -278    125    288    313 195.1  25.0  34056  287.80 0855.27
2009/04/23 08:54:02.6    -119   -283     54    308    313 202.8  10.0  34046  287.65 0855.27
2009/04/23 08:54:02.7     -90   -302     45    316    320 196.7   8.2  34052  287.75 0855.27
2009/04/23 08:54:02.8    -111   -278    -13    300    301 201.9  -2.6  34056  287.82 0855.27
2009/04/23 08:54:02.9     -42   -291    -11    295    296 188.2  -2.3  34058  287.83 0855.27
2009/04/23 08:54:03.0     -94   -431     86    442    451 192.4  11.0  34058  287.84 0855.27
2009/04/23 08:54:03.1    -161   -422     34    452    454 200.9   4.3  34052  287.75 0855.27
2009/04/23 08:54:03.2    -109   -424    -12    438    439 194.5  -1.6  34054  287.77 0855.27
2009/04/23 08:54:03.3     -75   -418     99    425    437 190.3  13.1  34054  287.79 0855.27
2009/04/23 08:54:03.4     -85   -369     36    379    381 193.0   5.5  34052  287.76 0855.27
2009/04/23 08:54:03.5    -223   -469     67    520    525 205.5   7.4  34052  287.75 0855.27
2009/04/23 08:54:03.6    -109   -329    206    347    403 198.5  33.5  34044  287.62 0855.27
2009/04/23 08:54:03.7    -114   -219    180    248    306 207.6  39.7  34052  287.75 0855.27
2009/04/23 08:54:03.8    -121   -209     98    242    261 210.1  23.1  34056  287.80 0855.27
2009/04/23 08:54:03.9    -107   -128     90    168    190 219.9  30.6  34050  287.72 0855.26
2009/04/23 08:54:04.0    -126    -94    -56    158    168 233.1 -19.7  34052  287.76 0855.26
2009/04/23 08:54:04.1    -154     76      8    173    174 296.4   2.9  34052  287.76 0855.26
2009/04/23 08:54:04.2    -188     27     -4    191    192 278.4  -1.3  34054  287.77 0855.26
2009/04/23 08:54:04.3    -216      0     65    217    227 270.1  16.8  34054  287.79 0855.26
2009/04/23 08:54:04.4    -255     10    125    256    284 272.4  27.8  34056  287.80 0855.26
2009/04/23 08:54:04.5    -386   -116    111    404    420 253.2  15.4  34056  287.82 0855.26
2009/04/23 08:54:04.6    -239   -379   -139    448    469 212.2 -22.2  34056  287.80 0855.26
2009/04/23 08:54:04.7    -368   -327   -139    493    513 228.4 -15.8  34048  287.66 0855.26
2009/04/23 08:54:04.8    -367   -266   -135    454    474 234.0 -16.6  34056  287.80 0855.26
2009/04/23 08:54:04.9    -373   -295   -171    476    506 231.6 -19.8  34058  287.85 0855.26
2009/04/23 08:54:05.0    -284   -309    -92    421    432 222.6 -12.4  34056  287.80 0855.26
2009/04/23 08:54:05.1    -213   -334   -118    397    415 212.6 -16.5  34054  287.77 0855.26
2009/04/23 08:54:05.2    -378   -226   -146    441    464 239.1 -23.8  34054  287.77 0855.26
2009/04/23 08:54:05.3    -251   -230   -150    341    372 227.6 -29.6  34054  287.79 0855.26
2009/04/23 08:54:05.4    -157   -152   -104    219    242 226.0 -31.5  34052  287.75 0855.26
2009/04/23 08:54:05.5    -244   -155     23    290    291 237.5   4.6  34054  287.77 0855.26
2009/04/23 08:54:05.6    -107   -209     32    235    238 207.1   7.8  34052  287.75 0855.26
2009/04/23 08:54:05.7       9   -198     10    199    200 177.3   2.9  34052  287.76 0855.26
2009/04/23 08:54:05.8      20   -162    -14    164    165 172.7  -5.2  34056  287.81 0855.26
2009/04/23 08:54:05.9      60    -95     -1    113    114 147.9  -0.7  34056  287.81 0855.26
2009/04/23 08:54:06.0     -16   -109     57    111    124 188.5  29.3  34056  287.81 0855.26
2009/04/23 08:54:06.1     -69   -141     56    158    168 206.3  19.6  34054  287.79 0855.26
2009/04/23 08:54:06.2    -135    -86     56    161    171 237.5  19.4  34054  287.79 0855.26
2009/04/23 08:54:06.3    -196    -53     -1    204    205 254.9  -0.5  34054  287.79 0855.26
2009/04/23 08:54:06.4    -160    -34    -11    164    165 257.8  -3.9  34056  287.81 0855.26
2009/04/23 08:54:06.5     -65    -33     33     74     81 242.9  25.7  34054  287.79 0855.26
2009/04/23 08:54:06.6      30    -67    -24     74     77 155.5 -23.8  34058  287.86 0855.26
2009/04/23 08:54:06.7      38   -142    -30    148    151 164.9 -11.5  34054  287.77 0855.26
2009/04/23 08:54:06.8     -71    -33   -113     79    137 244.6 -65.9  34054  287.79 0855.26
2009/04/23 08:54:06.9     -97   -249   -113    268    290 201.4 -28.6  34050  287.71 0855.26
2009/04/23 08:54:07.0    -155   -168    -63    229    238 222.8 -15.4  34058  287.83 0855.26
2009/04/23 08:54:07.1    -248   -228    -52    338    342 227.4  -8.8  34058  287.84 0855.26
2009/04/23 08:54:07.2    -160   -299    156    340    374 208.1  26.4  34058  287.86 0855.26
2009/04/23 08:54:07.3      87   -321    182    333    379 164.7  31.3  34058  287.84 0855.26
2009/04/23 08:54:07.4      32   -334     87    336    348 174.4  14.5  34048  287.67 0855.26
2009/04/23 08:54:07.5     -19   -188    -45    190    196 186.0 -13.4  34056  287.82 0855.26
2009/04/23 08:54:07.6     -38   -171    -51    176    183 192.5 -21.0  34060  287.87 0855.26
2009/04/23 08:54:07.7     -16   -133    -44    135    141 187.1 -23.8  34058  287.84 0855.26
2009/04/23 08:54:07.8     -24    -72    -40     77     86 198.7 -34.2  34058  287.84 0855.26
2009/04/23 08:54:07.9    -100    -69    -38    122    128 235.4 -17.6  34052  287.76 0855.25
2009/04/23 08:54:08.0     -37   -110    125    117    171 198.5  52.0  34062  287.91 0855.25
2009/04/23 08:54:08.1     -82   -129     70    153    168 212.5  26.2  34058  287.84 0855.25
2009/04/23 08:54:08.2     -95    -95    -32    135    139 225.0 -13.4  34058  287.86 0855.25
2009/04/23 08:54:08.3    -129   -125    -13    180    181 225.8  -4.4  34058  287.84 0855.25
2009/04/23 08:54:08.4    -192   -183    -14    266    267 226.4  -3.1  34058  287.83 0855.25
2009/04/23 08:54:08.5    -215   -185      2    284    285 229.3   0.5  34058  287.83 0855.25
2009/04/23 08:54:08.6    -128   -166    -30    210    213 217.6  -8.2  34058  287.84 0855.25
2009/04/23 08:54:08.7    -157   -140   -178    211    276 228.4 -48.9  34058  287.83 0855.25
2009/04/23 08:54:08.8    -236    -25   -156    238    284 263.8 -40.9  34056  287.82 0855.25
2009/04/23 08:54:08.9     -67    -91   -137    114    178 216.5 -60.5  34056  287.81 0855.25
2009/04/23 08:54:09.0    -126    -73    -73    146    163 239.8 -33.1  34058  287.86 0855.25
2009/04/23 08:54:09.1      -8   -113      0    114    115 184.5  -0.3  34056  287.82 0855.25
2009/04/23 08:54:09.2    -175   -109    211    207    295 238.2  50.4  34056  287.80 0855.25
2009/04/23 08:54:09.3    -241   -257    224    353    418 223.1  35.5  34058  287.86 0855.25
2009/04/23 08:54:09.4     -77   -455     71    462    468 189.7   8.8  34058  287.86 0855.25
2009/04/23 08:54:09.5     -44   -384    -49    387    391 186.6  -7.2  34052  287.74 0855.25
2009/04/23 08:54:09.6     -34   -431    133    433    454 184.6  17.1  34054  287.79 0855.25
2009/04/23 08:54:09.7     -44   -474     74    477    483 185.4   8.9  34052  287.73 0855.25
2009/04/23 08:54:09.8      85   -383    110    393    409 167.5  15.7  34054  287.79 0855.25
2009/04/23 08:54:09.9      27   -323     97    325    340 175.1  16.7  34052  287.76 0855.24
2009/04/23 08:54:10.0     -50   -285    139    290    321 190.0  27.3  34052  287.73 0855.24
2009/04/23 08:54:10.1       1   -227    157    228    276 179.5  37.6  34058  287.83 0855.24
2009/04/23 08:54:10.2      42   -250    161    254    300 170.4  35.5  34056  287.80 0855.24
2009/04/23 08:54:10.3     185   -236    127    301    326 141.9  24.3  34058  287.85 0855.24
2009/04/23 08:54:10.4     195   -208    133    286    315 136.8  26.6  34054  287.78 0855.24
2009/04/23 08:54:10.5     174   -217    125    279    305 141.3  25.9  34056  287.80 0855.24
2009/04/23 08:54:10.6     146    -89    207    172    269 121.5  56.3  34052  287.75 0855.24
2009/04/23 08:54:10.7      46     21    222     51    227  64.6  87.5  34058  287.84 0855.24
2009/04/23 08:54:10.8      18   -215    242    216    324 175.1  53.7  34062  287.92 0855.24
2009/04/23 08:54:10.9     243   -185    248    306    393 127.3  43.3  34060  287.88 0855.24
2009/04/23 08:54:11.0     265   -110    173    288    335 112.6  33.8  34054  287.78 0855.24
2009/04/23 08:54:11.1     196   -250    228    318    391 141.9  39.3  34062  287.91 0855.24
2009/04/23 08:54:11.2     233   -102    209    255    329 113.6  43.7  34062  287.90 0855.24
2009/04/23 08:54:11.3     199    -74    230    213    313 110.4  52.5  34062  287.90 0855.24
2009/04/23 08:54:11.4     156      0    164    157    227  90.0  51.6  34058  287.86 0855.24
2009/04/23 08:54:11.5      -7   -116    117    117    165 183.6  50.1  34060  287.87 0855.24
2009/04/23 08:54:11.6    -110   -165    149    199    248 213.6  40.7  34060  287.88 0855.24
2009/04/23 08:54:11.7    -159    -92     50    184    191 239.8  15.2  34058  287.84 0855.24
2009/04/23 08:54:11.8    -199    -60    -42    208    213 253.2 -11.5  34058  287.86 0855.24
2009/04/23 08:54:11.9    -182    -37   -107    186    214 258.3 -37.1  34056  287.82 0855.24
2009/04/23 08:54:12.0    -202     21    -64    204    213 276.1 -22.8  34058  287.84 0855.24
2009/04/23 08:54:12.1    -164     67   -105    178    206 292.4 -37.9  34058  287.86 0855.24
2009/04/23 08:54:12.2    -127    140    -71    190    202 317.9 -25.4  34056  287.81 0855.24
2009/04/23 08:54:12.3     -41     71    -60     83    102 330.1 -44.1  34058  287.86 0855.24
2009/04/23 08:54:12.4      34     97    -90    104    137  19.6 -50.2  34056  287.81 0855.24
2009/04/23 08:54:12.5      33    178   -117    182    216  10.5 -40.0  34058  287.84 0855.24
2009/04/23 08:54:12.6      87    164    -52    186    193  27.9 -20.4  34054  287.79 0855.24
2009/04/23 08:54:12.7     109    150      3    186    187  36.0   1.0  34054  287.79 0855.24
2009/04/23 08:54:12.8     177    117      3    213    214  56.5   0.8  34056  287.82 0855.24
2009/04/23 08:54:12.9     178     36     33    182    185  78.3  10.3  34056  287.81 0855.24
2009/04/23 08:54:13.0     170     15     53    171    180  84.8  17.3  34054  287.79 0855.24
2009/04/23 08:54:13.1     142    -10    110    143    180  94.4  41.4  34054  287.77 0855.24
2009/04/23 08:54:13.2     221      6    121    222    252  88.3  31.0  34056  287.80 0855.24
2009/04/23 08:54:13.3     149     20    132    151    200  82.1  45.8  34054  287.79 0855.24
2009/04/23 08:54:13.4     148     -2     99    149    178  90.8  36.7  34054  287.79 0855.24
2009/04/23 08:54:13.5     164     44    131    170    214  74.9  41.6  34056  287.81 0855.24
2009/04/23 08:54:13.6      89    -18    107     91    140 101.5  55.4  34054  287.77 0855.24
2009/04/23 08:54:13.7      89      4     93     90    129  87.4  50.7  34054  287.79 0855.24
2009/04/23 08:54:13.8     156     -8     99    157    185  93.0  35.5  34056  287.82 0855.24
2009/04/23 08:54:13.9     234   -158    138    283    314 124.1  27.9  34056  287.80 0855.21
2009/04/23 08:54:14.0     300   -146    173    334    376 116.0  29.5  34048  287.69 0855.21
2009/04/23 08:54:14.1     181   -219    238    285    371 140.4  44.1  34052  287.76 0855.21
2009/04/23 08:54:14.2     109   -209    124    236    266 152.4  30.1  34054  287.78 0855.21
2009/04/23 08:54:14.3     130   -169     79    214    228 142.4  21.0  34052  287.74 0855.21
2009/04/23 08:54:14.4     178    -82     87    197    215 114.8  25.3  34056  287.81 0855.21
2009/04/23 08:54:14.5     123     45     35    132    137  70.0  15.2  34050  287.72 0855.21
2009/04/23 08:54:14.6     127    143    -95    192    214  41.4 -32.6  34056  287.81 0855.21
2009/04/23 08:54:14.7     144    130    -54    195    202  47.8 -20.0  34056  287.81 0855.21
2009/04/23 08:54:14.8     139     32     64    143    156  76.7  25.7  34042  287.59 0855.21
2009/04/23 08:54:14.9     144      0     22    145    147  90.0   9.0  34054  287.77 0855.21
2009/04/23 08:54:15.0      43     47    -80     64    102  42.3 -61.3  34056  287.82 0855.21
2009/04/23 08:54:15.1      54     14     -7     56     57  74.9  -7.3  34056  287.81 0855.21
2009/04/23 08:54:15.2      74    -48     10     89     90 123.3   6.9  34056  287.82 0855.21
2009/04/23 08:54:15.3      84    -36     78     92    120 113.5  44.8  34054  287.79 0855.21
2009/04/23 08:54:15.4      64    -88    103    109    149 143.9  48.0  34056  287.82 0855.21
2009/04/23 08:54:15.5      89     21     72     92    116  76.7  42.7  34056  287.81 0855.21
2009/04/23 08:54:15.6     -15   -182    167    183    247 184.9  47.1  34054  287.79 0855.21
2009/04/23 08:54:15.7       0   -112    125    113    168 179.5  53.3  34056  287.81 0855.21
2009/04/23 08:54:15.8       9    -90    112     91    144 173.8  56.4  34054  287.79 0855.21
2009/04/23 08:54:15.9      28   -106     69    110    129 164.8  35.5  34052  287.76 0855.21
2009/04/23 08:54:16.0     111   -100    -33    150    154 132.2 -12.4  34056  287.82 0855.21
2009/04/23 08:54:16.1     162   -146    -47    219    225 132.0 -12.2  34054  287.79 0855.21
2009/04/23 08:54:16.2     197   -127     -9    235    236 122.9  -2.2  34056  287.82 0855.21
2009/04/23 08:54:16.3     245   -242      0    345    346 134.6   0.1  34054  287.78 0855.21
2009/04/23 08:54:16.4     238   -337    119    413    430 144.7  16.1  34058  287.84 0855.21
2009/04/23 08:54:16.5     197   -322    114    378    395 148.6  16.8  34054  287.79 0855.21
2009/04/23 08:54:16.6     299   -353     73    463    469 139.7   9.0  34056  287.80 0855.21
2009/04/23 08:54:16.7     275   -353    128    448    467 142.1  16.0  34054  287.79 0855.21
2009/04/23 08:54:16.8     275   -322    156    424    451 139.5  21.0  34054  287.77 0855.21
2009/04/23 08:54:16.9     379   -354    140    519    538 133.0  15.1  34056  287.81 0855.21
2009/04/23 08:54:17.0     298   -284    -52    412    416 133.6  -7.3  34056  287.80 0855.21
2009/04/23 08:54:17.1     182   -274    -73    330    339 146.4 -12.5  34054  287.79 0855.21
2009/04/23 08:54:17.2     284   -428    -69    515    520 146.4  -7.7  34052  287.74 0855.21
2009/04/23 08:54:17.3     218   -292    -90    365    377 143.2 -13.9  34052  287.74 0855.21
2009/04/23 08:54:17.4     172   -274   -161    324    361 147.9 -32.8  34048  287.67 0855.21
2009/04/23 08:54:17.5     109   -326   -172    345    385 161.4 -32.9  34058  287.83 0855.21
2009/04/23 08:54:17.6      86   -332   -123    344    365 165.4 -24.8  34054  287.78 0855.21
2009/04/23 08:54:17.7      84   -265    -93    279    294 162.4 -23.6  34056  287.82 0855.21
2009/04/23 08:54:17.8     -15   -265    -57    266    273 183.4 -12.2  34058  287.83 0855.21
2009/04/23 08:54:17.9     -77   -239     -9    252    253 197.8  -2.2  34056  287.80 0855.21
2009/04/23 08:54:18.0     -62   -270    -72    278    288 192.9 -14.5  34050  287.71 0855.21
2009/04/23 08:54:18.1     -58   -223    -65    231    239 194.7 -20.7  34052  287.75 0855.21
2009/04/23 08:54:18.2      -3   -200    -47    201    207 181.1 -13.2  34052  287.74 0855.21
2009/04/23 08:54:18.3      71   -195    -59    208    216 160.0 -20.2  34052  287.76 0855.21
2009/04/23 08:54:18.4      83   -177   -110    196    224 154.7 -36.0  34054  287.79 0855.21
2009/04/23 08:54:18.5     129   -312   -159    338    373 157.4 -31.5  34068  288.00 0855.21
2009/04/23 08:54:18.6     144   -286    -92    321    333 153.3 -20.5  34070  288.05 0855.21
2009/04/23 08:54:18.7     125   -336    -86    359    370 159.5 -13.6  34064  287.94 0855.21
2009/04/23 08:54:18.8     149   -413    -20    440    441 160.1  -2.6  34058  287.85 0855.21
2009/04/23 08:54:18.9     233   -342     42    415    418 145.7   5.9  34066  287.97 0855.23
2009/04/23 08:54:19.0     199   -421    -21    466    467 154.7  -2.6  34058  287.86 0855.23
2009/04/23 08:54:19.1     300   -423    -70    519    524 144.7  -7.7  34060  287.87 0855.23
2009/04/23 08:54:19.2     268   -334      1    429    430 141.3   0.2  34060  287.87 0855.23
2009/04/23 08:54:19.3      86   -325    136    337    363 165.2  23.1  34060  287.88 0855.23
2009/04/23 08:54:19.4     184   -312     69    363    370 149.5  10.8  34058  287.84 0855.23
2009/04/23 08:54:19.5     189   -281    134    339    364 146.1  22.8  34060  287.89 0855.23
2009/04/23 08:54:19.6     278   -271    182    389    429 134.3  27.0  34060  287.89 0855.23
2009/04/23 08:54:19.7     194   -142     47    241    246 126.4  11.1  34064  287.93 0855.23
2009/04/23 08:54:19.8     185   -163     26    247    249 131.4   6.1  34064  287.93 0855.23
2009/04/23 08:54:19.9     198   -239     63    311    318 140.4  11.4  34062  287.92 0855.23
2009/04/23 08:54:20.0     263   -295    123    396    415 138.2  17.3  34064  287.94 0855.23
2009/04/23 08:54:20.1     150   -292    250    329    413 152.8  41.1  34062  287.91 0855.23
2009/04/23 08:54:20.2     240   -267     51    360    364 138.1   8.1  34060  287.89 0855.23
2009/04/23 08:54:20.3     228   -330    145    402    427 145.4  20.6  34056  287.82 0855.23
2009/04/23 08:54:20.4     386   -361    116    529    542 133.1  12.4  34060  287.89 0855.23
2009/04/23 08:54:20.5     406   -398    189    569    600 134.4  18.4  34060  287.88 0855.23
2009/04/23 08:54:20.6     473   -310     73    566    571 123.3   7.4  34062  287.92 0855.23
2009/04/23 08:54:20.7     316   -433    199    537    572 143.9  21.4  34062  287.91 0855.23
2009/04/23 08:54:20.8     -45   -343    174    347    388 187.6  28.6  34064  287.96 0855.23
2009/04/23 08:54:20.9     -66   -246     83    255    269 195.2  18.1  34066  287.97 0855.24
2009/04/23 08:54:21.0      70   -213     73    225    237 161.7  18.1  34064  287.95 0855.24
2009/04/23 08:54:21.1      83   -268     46    281    285 162.8   9.3  34064  287.93 0855.24
2009/04/23 08:54:21.2     -95   -243      5    262    263 201.4   1.2  34066  287.99 0855.24
2009/04/23 08:54:21.3     -48   -146    -57    154    164 198.5 -25.4  34062  287.91 0855.24
2009/04/23 08:54:21.4     -27   -100   -115    104    155 195.1 -57.7  34064  287.94 0855.24
2009/04/23 08:54:21.5      32   -125    -94    130    160 165.3 -44.1  34060  287.87 0855.24
2009/04/23 08:54:21.6      68   -128    -44    146    153 151.9 -16.8  34066  287.99 0855.24
2009/04/23 08:54:21.7      25   -105    -21    108    111 166.6 -11.3  34066  287.98 0855.24
2009/04/23 08:54:21.8     -34    -72    -74     80    108 205.5 -52.3  34066  287.98 0855.24
2009/04/23 08:54:21.9     -57    -43    -67     72     98 233.1 -52.3  34066  287.99 0855.24
2009/04/23 08:54:22.0     -58    -48    -21     76     79 230.4 -15.5  34066  287.99 0855.24
2009/04/23 08:54:22.1     -42    -65      8     78     79 212.6   6.5  34064  287.96 0855.24
2009/04/23 08:54:22.2     -15   -142    -26    143    146 186.2 -10.3  34064  287.94 0855.24
2009/04/23 08:54:22.3       7    -92    -15     93     95 175.1  -9.3  34066  287.98 0855.24
2009/04/23 08:54:22.4      14   -109    -18    110    112 172.4  -9.3  34068  288.01 0855.24
2009/04/23 08:54:22.5      32    -78    -83     85    118 157.7 -54.3  34074  288.13 0855.24
2009/04/23 08:54:22.6      77    -53    -57     94    109 124.6 -38.8  34074  288.13 0855.24
2009/04/23 08:54:22.7      67      0    -35     68     76  90.0 -33.7  34080  288.23 0855.24
2009/04/23 08:54:22.8      66    -73    -13     99    100 137.7  -7.7  34082  288.25 0855.24
2009/04/23 08:54:22.9      47    -39     29     62     68 129.5  27.1  34074  288.13 0855.23
2009/04/23 08:54:23.0     132   -127     21    184    186 134.0   6.7  34070  288.06 0855.23
2009/04/23 08:54:23.1     162   -260     15    307    308 148.1   2.9  34074  288.12 0855.23
2009/04/23 08:54:23.2     193   -312     37    368    370 148.3   5.8  34068  288.03 0855.23
2009/04/23 08:54:23.3     197   -410     30    456    458 154.3   3.8  34064  287.94 0855.23
2009/04/23 08:54:23.4     232   -414     79    475    482 150.7   9.4  34072  288.07 0855.23
2009/04/23 08:54:23.5     202   -445     71    489    495 155.5   8.3  34066  287.98 0855.23
2009/04/23 08:54:23.6     246   -327     -7    410    411 143.0  -1.1  34068  288.01 0855.23
2009/04/23 08:54:23.7     208   -302    -46    367    370 145.4  -7.2  34068  288.03 0855.23
2009/04/23 08:54:23.8     187   -293      4    348    349 147.4   0.8  34064  287.96 0855.23
2009/04/23 08:54:23.9      28   -445    156    446    473 176.4  19.3  34070  288.05 0855.23
2009/04/23 08:54:24.0     128   -387    256    408    481 161.7  35.1  34066  287.99 0855.23
2009/04/23 08:54:24.1      86   -398    173    408    443 167.7  24.3  34062  287.90 0855.23
2009/04/23 08:54:24.2     192   -408    308    451    546 154.8  37.6  34064  287.95 0855.23
2009/04/23 08:54:24.3      -9   -255    298    256    392 182.2  55.0  34068  288.01 0855.23
2009/04/23 08:54:24.4     338   -168    178    378    417 116.5  27.1  34062  287.90 0855.23
2009/04/23 08:54:24.5      75   -124    -14    145    146 148.8  -5.6  34066  287.98 0855.23
2009/04/23 08:54:24.6    -162   -355    104    391    405 204.5  14.9  34064  287.96 0855.23
2009/04/23 08:54:24.8    -205   -386    124    438    456 208.0  15.9  34066  287.99 0855.23
2009/04/23 08:54:24.9    -233   -400     18    464    465 210.2   2.3  34064  287.95 0855.23
2009/04/23 08:54:24.9    -146   -284   -144    320    350 207.2 -30.2  34070  288.06 0855.23
2009/04/23 08:54:25.0       5    -72   -104     73    127 175.6 -66.5  34070  288.04 0855.23
2009/04/23 08:54:25.1      30   -111     51    116    126 164.8  25.1  34072  288.08 0855.23
2009/04/23 08:54:25.3      72   -110    -34    132    137 146.6 -14.5  34072  288.08 0855.23
2009/04/23 08:54:25.4      47   -169    -56    176    184 164.4 -23.3  34072  288.08 0855.23
2009/04/23 08:54:25.5     109   -149    -21    185    187 143.9  -6.5  34066  287.99 0855.23
2009/04/23 08:54:25.6     122   -158    -60    200    209 142.4 -16.8  34066  287.98 0855.23
2009/04/23 08:54:25.7     236   -132     21    271    272 119.3   4.6  34070  288.05 0855.23
2009/04/23 08:54:25.8     191   -186    105    267    286 134.2  22.8  34066  287.99 0855.23
2009/04/23 08:54:25.9     205   -278    156    346    379 143.6  25.9  34064  287.94 0855.23
2009/04/23 08:54:26.0     266   -249    176    365    405 133.2  27.4  34064  287.93 0855.23
2009/04/23 08:54:26.1     399   -320    100    512    522 128.7  11.1  34064  287.93 0855.23
2009/04/23 08:54:26.2     207   -364    169    419    451 150.4  23.1  34064  287.95 0855.23
2009/04/23 08:54:26.3      55   -348     92    353    365 171.0  14.6  34064  287.94 0855.23
2009/04/23 08:54:26.4     145   -264     88    302    315 151.1  16.3  34072  288.09 0855.23
2009/04/23 08:54:26.5     138   -289    289    321    431 154.4  46.8  34068  288.00 0855.23
2009/04/23 08:54:26.6      42   -423    163    426    456 174.3  22.0  34068  288.01 0855.23
2009/04/23 08:54:26.7     246   -370    264    445    517 146.3  33.5  34060  287.88 0855.23
2009/04/23 08:54:26.8     220   -288    170    363    400 142.6  27.0  34064  287.93 0855.23
2009/04/23 08:54:26.9     239   -201     90    313    326 130.2  16.0  34064  287.95 0855.23
2009/04/23 08:54:27.0     131   -185    117    227    255 144.6  29.3  34064  287.93 0855.22
2009/04/23 08:54:27.1     -16   -210    191    211    284 184.5  46.9  34062  287.90 0855.22
2009/04/23 08:54:27.2     -92   -102    145    138    200 221.9  51.4  34064  287.94 0855.22
2009/04/23 08:54:27.3     -17     12    138     22    139 306.0  90.0  34070  288.04 0855.22
2009/04/23 08:54:27.4     -56   -166    196    176    263 198.7  53.3  34062  287.90 0855.22
2009/04/23 08:54:27.5     -97   -153    114    182    214 212.3  35.5  34064  287.94 0855.22
2009/04/23 08:54:27.6    -102   -137    154    172    230 216.7  46.6  34062  287.91 0855.22
2009/04/23 08:54:27.7      14    -77     48     79     92 169.3  34.4  34064  287.94 0855.22
2009/04/23 08:54:27.8     135   -134     89    191    210 134.9  27.1  34062  287.92 0855.22
2009/04/23 08:54:27.9     181   -134    107    226    250 126.6  27.1  34064  287.95 0855.22
2009/04/23 08:54:28.0     103   -133     16    169    170 142.2   5.7  34060  287.89 0855.22
2009/04/23 08:54:28.1      55   -301    128    307    332 169.5  23.8  34060  287.88 0855.22
2009/04/23 08:54:28.2      15   -274    -97    275    291 176.9 -24.4  34062  287.90 0855.22
2009/04/23 08:54:28.3     177   -189   -107    260    281 136.8 -28.0  34060  287.88 0855.22
2009/04/23 08:54:28.4     184   -163    -35    247    250 131.6  -8.3  34058  287.85 0855.22
2009/04/23 08:54:28.5     214   -135      7    253    254 122.2   1.6  34060  287.88 0855.22
2009/04/23 08:54:28.6     193    -84    -54    211    218 113.7 -14.5  34060  287.87 0855.22
2009/04/23 08:54:28.7     171    -46    -24    178    180 105.1  -7.7  34062  287.91 0855.22
2009/04/23 08:54:28.8     185     16    -61    186    196  84.8 -18.3  34062  287.91 0855.22
2009/04/23 08:54:28.9     237    -29     25    239    241  97.0   6.1  34062  287.92 0855.22
2009/04/23 08:54:29.0      60   -224    133    233    268 164.9  32.3  34052  287.75 0855.23
2009/04/23 08:54:29.1     200   -127    209    238    316 122.4  45.8  34054  287.77 0855.23
2009/04/23 08:54:29.2     317    -69    135    325    351 102.3  23.9  34052  287.76 0855.23
2009/04/23 08:54:29.3     342   -256    125    428    446 126.9  16.3  34058  287.84 0855.23
2009/04/23 08:54:29.4     292   -258     61    391    396 131.5   8.9  34056  287.81 0855.23
2009/04/23 08:54:29.5     212   -284     77    355    364 143.2  12.3  34054  287.79 0855.23
2009/04/23 08:54:29.6     148   -243    -11    285    286 148.6  -2.2  34056  287.82 0855.23
2009/04/23 08:54:29.7     240   -215    -19    323    324 131.8  -3.5  34056  287.80 0855.23
2009/04/23 08:54:29.8     248   -163    -43    297    301 123.3  -8.2  34056  287.82 0855.23
2009/04/23 08:54:29.9     267   -158    -39    311    314 120.6  -7.2  34056  287.82 0855.23
2009/04/23 08:54:30.0     317   -171     -2    361    362 118.4  -0.4  34034  287.44 0855.23
2009/04/23 08:54:30.1     225    -98     98    246    264 113.7  23.0  34032  287.41 0855.23
2009/04/23 08:54:30.2     266   -193     -9    329    330 126.0  -1.7  34038  287.51 0855.23
2009/04/23 08:54:30.3     144   -156     81    213    227 137.2  21.7  34036  287.49 0855.23
2009/04/23 08:54:30.4     105   -109    -55    152    161 135.9 -25.1  34042  287.57 0855.23
2009/04/23 08:54:30.5     109   -166    -52    199    206 146.6 -14.7  34040  287.54 0855.23
2009/04/23 08:54:30.6     110   -165    -49    199    206 146.4 -13.9  34046  287.65 0855.23
2009/04/23 08:54:30.7     115    -62    -47    131    140 118.4 -19.7  34044  287.62 0855.23
2009/04/23 08:54:30.8     109     22     35    112    118  78.6  17.3  34046  287.64 0855.23
2009/04/23 08:54:30.9      90      4     30     91     96  87.4  18.4  34044  287.60 0855.23
2009/04/23 08:54:31.0      24     62      0     67     68  21.8  -0.3  34038  287.52 0855.25
2009/04/23 08:54:31.1      41     41    -28     58     64  45.0 -31.7  34046  287.64 0855.25
2009/04/23 08:54:31.2     -14      8    -31     17     35 298.9 -71.2  34046  287.65 0855.25
2009/04/23 08:54:31.3     -25    -30     -8     40     41 220.5 -11.3  34046  287.65 0855.25
2009/04/23 08:54:31.4     -25    -11    -51     28     58 246.5 -73.2  34046  287.64 0855.25
2009/04/23 08:54:31.5      53   -149    -56    159    169 160.2 -19.6  34040  287.54 0855.25
2009/04/23 08:54:31.6      88   -202    -52    221    228 156.3 -13.3  34040  287.54 0855.25
2009/04/23 08:54:31.7     110   -167    -21    201    203 146.6  -6.0  34038  287.52 0855.25
2009/04/23 08:54:31.8      75   -126     72    147    163 149.3  28.0  34040  287.55 0855.25
2009/04/23 08:54:31.9      75   -115     85    138    162 146.6  34.4  34036  287.49 0855.25
2009/04/23 08:54:32.0     -51     17     67     55     86 289.1  56.4  34042  287.57 0855.25
2009/04/23 08:54:32.1     -75     59      8     96     97 308.6   4.9  34044  287.60 0855.25
2009/04/23 08:54:32.2     -82    -17    -32     84     89 258.1 -25.9  34046  287.64 0855.25
2009/04/23 08:54:32.3      14   -139    -28    140    143 174.2 -11.3  34044  287.60 0855.25
2009/04/23 08:54:32.4     -15   -117    -34    119    123 187.6 -20.7  34042  287.59 0855.25
2009/04/23 08:54:32.5     -46   -125    -45    134    141 200.1 -23.6  34040  287.55 0855.25
2009/04/23 08:54:32.6     -52    -68    -24     86     89 217.8 -20.7  34040  287.55 0855.25
2009/04/23 08:54:32.7     -95    -58    -38    112    119 238.5 -19.1  34040  287.55 0855.25
2009/04/23 08:54:32.8      -7      4   -123      9    123 302.4 -90.0  34042  287.59 0855.25
2009/04/23 08:54:32.9      10     66    -98     67    118   8.9 -67.0  34044  287.60 0855.25
2009/04/23 08:54:33.0      34    -16    -83     38     91 115.4 -77.9  34042  287.59 0855.25
2009/04/23 08:54:33.1      49    -72    -56     88    104 145.7 -39.9  34042  287.59 0855.25
2009/04/23 08:54:33.2      54   -121   -141    133    193 155.9 -56.0  34042  287.57 0855.25
2009/04/23 08:54:33.3     -46    -82    -61     95    112 209.4 -40.0  34040  287.54 0855.25
2009/04/23 08:54:33.4     -56    -19    -51     60     78 250.9 -49.8  34042  287.59 0855.25
2009/04/23 08:54:33.5     -76      0     -4     77     78 270.0  -3.1  34044  287.60 0855.25
2009/04/23 08:54:33.6    -111      8      5    112    113 274.3   2.8  34044  287.60 0855.25
2009/04/23 08:54:33.7     -97     15     34     99    105 278.8  18.9  34044  287.60 0855.25
2009/04/23 08:54:33.8     -49     -3     53     50     72 266.5  52.1  34044  287.60 0855.25
2009/04/23 08:54:33.9     -46     21     56     51     75 295.4  52.2  34044  287.60 0855.25
2009/04/23 08:54:34.0      15     21     77     26     81  36.1  81.0  34042  287.57 0855.25
2009/04/23 08:54:34.1      95      0    126     96    158  90.0  59.0  34044  287.60 0855.25
2009/04/23 08:54:34.2     167     23    141    169    220  82.1  43.8  34042  287.59 0855.25
2009/04/23 08:54:34.3     134     36    171    139    220  74.9  56.4  34046  287.65 0855.25
2009/04/23 08:54:34.4     142     67    153    158    219  64.7  49.2  34046  287.65 0855.25
2009/04/23 08:54:34.5      96     50    128    109    168  62.5  55.4  34044  287.62 0855.25
2009/04/23 08:54:34.6       8     35    132     37    137  13.4  84.4  34048  287.69 0855.25
2009/04/23 08:54:34.7       2     52    136     53    145   2.7  77.6  34050  287.70 0855.25
2009/04/23 08:54:34.8     -24     38    116     46    124 327.5  77.6  34046  287.65 0855.25
2009/04/23 08:54:34.9       1    -72     80     73    108 179.1  52.7  34044  287.60 0855.23
2009/04/23 08:54:35.0     -30     50     90     59    107 329.3  64.6  34046  287.64 0855.23
2009/04/23 08:54:35.1     -42     92    106    102    147 335.5  51.2  34046  287.65 0855.23
2009/04/23 08:54:35.2      58     79    165     99    192  36.5  66.0  34062  287.91 0855.23
2009/04/23 08:54:35.3     -37    121    107    127    166 343.0  44.3  34054  287.77 0855.23
2009/04/23 08:54:35.4    -113    128    113    172    205 318.6  36.3  34048  287.67 0855.23
2009/04/23 08:54:35.5    -132    136     95    190    212 315.9  28.2  34048  287.67 0855.23
2009/04/23 08:54:35.6    -106    -17     93    108    142 260.8  45.4  34048  287.67 0855.23
2009/04/23 08:54:35.7      42    -66    137     79    158 147.4  67.5  34048  287.67 0855.23
2009/04/23 08:54:35.8    -158   -125    176    202    267 231.6  45.8  34054  287.77 0855.23
2009/04/23 08:54:35.9    -218     33    149    221    266 278.6  37.3  34044  287.61 0855.23
2009/04/23 08:54:36.0    -206     69    159    218    269 288.6  39.7  34044  287.60 0855.23
2009/04/23 08:54:36.1     -59   -178    138    188    233 198.3  39.7  34044  287.60 0855.23
2009/04/23 08:54:36.2     -32    -60    184     69    196 208.1  78.6  34046  287.65 0855.23
2009/04/23 08:54:36.3    -101   -149    144    181    231 214.1  43.0  34040  287.54 0855.23
2009/04/23 08:54:36.4    -183   -115    120    217    247 237.8  31.4  34040  287.55 0855.23
2009/04/23 08:54:36.5    -218   -106    124    243    272 244.0  29.2  34040  287.55 0855.23
2009/04/23 08:54:36.6    -182   -211    192    279    338 220.8  37.9  34030  287.38 0855.23
2009/04/23 08:54:36.7    -309   -127    197    335    388 247.6  33.4  34032  287.42 0855.23
2009/04/23 08:54:36.8    -178   -130    241    221    326 233.8  52.9  34044  287.60 0855.23
2009/04/23 08:54:36.9     -76   -108    232    133    267 215.2  67.7  34042  287.57 0855.23
2009/04/23 08:54:37.0    -240    -81    273    254    372 251.2  52.2  34042  287.56 0855.21
2009/04/23 08:54:37.1    -327   -155    192    362    409 244.6  30.3  34042  287.56 0855.21
2009/04/23 08:54:37.2    -247    -74     63    259    267 253.2  13.7  34036  287.46 0855.21
2009/04/23 08:54:37.3    -372    -87     78    383    392 256.7  11.6  34042  287.56 0855.21
2009/04/23 08:54:37.4    -237   -189    193    304    360 231.4  35.5  34038  287.51 0855.21
2009/04/23 08:54:37.5    -169   -139    161    219    271 230.5  39.7  34040  287.55 0855.21
2009/04/23 08:54:37.6     -81   -166    172    185    252 206.1  47.9  34040  287.55 0855.21
2009/04/23 08:54:37.7    -161   -136    175    211    274 229.8  43.8  34044  287.60 0855.21
2009/04/23 08:54:37.8    -215    -70     97    227    246 251.8  24.6  34032  287.41 0855.21
2009/04/23 08:54:37.9    -277   -110    116    299    320 248.3  22.3  34044  287.61 0855.21
2009/04/23 08:54:38.0    -107   -262    264    284    387 202.3  47.9  34042  287.59 0855.21
2009/04/23 08:54:38.1    -218   -103    219    242    326 244.7  46.8  34044  287.61 0855.21
2009/04/23 08:54:38.2    -116   -181    259    216    337 212.6  56.2  34040  287.55 0855.21
2009/04/23 08:54:38.3     -68   -168    251    182    310 202.1  60.5  34046  287.65 0855.21
2009/04/23 08:54:38.4    -112   -179    164    212    268 212.1  41.7  34040  287.55 0855.21
2009/04/23 08:54:38.5      -1   -114    138    115    179 180.9  56.3  34040  287.54 0855.21
2009/04/23 08:54:38.6      68   -112    184    132    226 148.8  60.6  34040  287.54 0855.21
2009/04/23 08:54:38.7       1   -101    151    102    182 179.0  63.2  34042  287.57 0855.21
2009/04/23 08:54:38.8      43    -68    115     81    140 147.5  61.1  34042  287.59 0855.21
2009/04/23 08:54:38.9     -55   -245     69    252    262 192.7  15.3  34044  287.60 0855.21
2009/04/23 08:54:39.0     -55   -241     44    248    252 192.9  10.1  34044  287.60 0855.21
2009/04/23 08:54:39.1     -41   -168     60    173    184 193.8  19.2  34044  287.60 0855.21
2009/04/23 08:54:39.2      -4   -125     28    126    130 182.2  12.6  34042  287.59 0855.21
2009/04/23 08:54:39.3     -12   -105     36    106    113 186.7  18.9  34042  287.59 0855.21
2009/04/23 08:54:39.4      72   -126     90    146    171 150.1  34.8  34044  287.60 0855.21
2009/04/23 08:54:39.5     -10    -91    114     92    146 186.7  56.4  34044  287.60 0855.21
2009/04/23 08:54:39.6      53    -83     57     99    114 147.5  32.9  34044  287.60 0855.21
2009/04/23 08:54:39.7      48   -101     52    112    123 154.5  26.6  34044  287.62 0855.21
2009/04/23 08:54:39.8     -13   -123     87    124    151 186.3  38.6  34042  287.57 0855.21
2009/04/23 08:54:39.9      -8   -151     76    152    169 183.1  28.5  34044  287.60 0855.21
2009/04/23 08:54:40.0      19    -64    130     67    146 163.1  70.8  34046  287.65 0855.20
2009/04/23 08:54:40.1     -35   -187    233    191    301 190.7  56.4  34046  287.65 0855.20
2009/04/23 08:54:40.2      58   -161    105    172    201 160.0  34.2  34044  287.60 0855.20
2009/04/23 08:54:40.3     -35   -174     11    178    179 191.5   3.8  34044  287.62 0855.20
2009/04/23 08:54:40.4     -29   -141     -1    145    146 191.6  -0.7  34042  287.59 0855.20
2009/04/23 08:54:40.5      30   -113    117    118    166 164.9  50.2  34044  287.62 0855.20
2009/04/23 08:54:40.6      24   -207    101    209    232 173.3  27.3  34044  287.62 0855.20
2009/04/23 08:54:40.7      15   -187    136    188    232 175.3  39.5  34046  287.64 0855.20
2009/04/23 08:54:40.8      36   -180    152    184    238 168.4  43.7  34048  287.67 0855.20
2009/04/23 08:54:40.9      44   -202    183    207    276 167.7  45.9  34046  287.63 0855.20
2009/04/23 08:54:41.0      56   -162    123    172    211 160.8  39.3  34046  287.65 0855.20
2009/04/23 08:54:41.2      60   -182     72    192    205 161.7  21.0  34046  287.65 0855.20
2009/04/23 08:54:41.2      97   -220    101    241    261 156.2  24.1  34044  287.60 0855.20
2009/04/23 08:54:41.3      67   -126    148    143    205 151.9  51.2  34046  287.65 0855.20
2009/04/23 08:54:41.4      38   -184    168    188    252 168.2  46.6  34050  287.70 0855.20
2009/04/23 08:54:41.5      12   -159    176    160    237 175.5  53.2  34050  287.72 0855.20
2009/04/23 08:54:41.6      -6    -85    146     86    169 184.4  66.8  34046  287.64 0855.20
2009/04/23 08:54:41.7      57    -12    125     59    138 102.4  73.1  34046  287.65 0855.20
2009/04/23 08:54:41.8     110     90    164    143    217  50.5  54.3  34046  287.65 0855.20
2009/04/23 08:54:41.9     126     -5    112    127    169  92.6  45.8  34048  287.67 0855.20
2009/04/23 08:54:42.0     138    -39     79    144    164 105.9  31.4  34048  287.69 0855.20
2009/04/23 08:54:42.1     138    -55     82    149    170 111.8  31.0  34046  287.65 0855.20
2009/04/23 08:54:42.2      72   -151     57    168    178 154.5  18.9  34042  287.59 0855.20
2009/04/23 08:54:42.3      10   -132     59    133    145 175.5  25.2  34044  287.60 0855.20
2009/04/23 08:54:42.4     -11   -148    -13    149    150 184.5  -5.1  34046  287.65 0855.20
2009/04/23 08:54:42.5     -46    -66      8     81     82 215.2   5.9  34048  287.69 0855.20
2009/04/23 08:54:42.6     -10    -14     39     18     42 216.1  74.0  34050  287.70 0855.20
2009/04/23 08:54:42.7      21      9     65     23     68  66.5  81.2  34046  287.65 0855.20
2009/04/23 08:54:42.8     -34    -51    148     62    160 214.3  76.1  34050  287.70 0855.20
2009/04/23 08:54:42.9      -4   -154    146    155    212 181.8  48.2  34044  287.62 0855.20
2009/04/23 08:54:43.0      -9   -118    111    119    162 184.4  48.2  34048  287.67 0855.20
2009/04/23 08:54:43.1     -23   -113     87    116    145 191.5  40.1  34046  287.64 0855.20
2009/04/23 08:54:43.2    -115   -136     88    179    199 220.1  28.0  34042  287.57 0855.20
2009/04/23 08:54:43.3     -80   -104    -15    132    133 217.8  -6.7  34046  287.64 0855.20
2009/04/23 08:54:43.4      45   -102     38    112    119 155.9  18.9  34044  287.62 0855.20
2009/04/23 08:54:43.5      16   -165     87    166    187 174.4  29.5  34044  287.60 0855.20
2009/04/23 08:54:43.6      -2   -147     77    148    166 181.0  29.3  34046  287.65 0855.20
2009/04/23 08:54:43.7       7   -163     72    164    179 177.5  25.3  34046  287.64 0855.20
2009/04/23 08:54:43.8      -9   -191     66    192    204 182.9  18.9  34044  287.62 0855.20
2009/04/23 08:54:43.9     -40   -180    121    185    221 192.5  36.0  34046  287.64 0855.20
2009/04/23 08:54:44.0     -23   -213    121    215    246 186.3  32.1  34048  287.66 0855.19
2009/04/23 08:54:44.1     -33   -188    105    191    217 190.0  31.4  34042  287.59 0855.19
2009/04/23 08:54:44.2       1   -127    164    128    208 179.1  58.2  34048  287.67 0855.19
2009/04/23 08:54:44.3      -1    -34    109     35    114 182.6  80.7  34046  287.65 0855.19
2009/04/23 08:54:44.4      70    -71    120    100    156 135.3  55.8  34052  287.76 0855.19
2009/04/23 08:54:44.5     118   -199    147    232    274 149.3  35.5  34042  287.58 0855.19
2009/04/23 08:54:44.6     207   -287    221    355    418 144.2  35.1  34042  287.59 0855.19
2009/04/23 08:54:44.7     209    -63    202    219    297 106.8  47.9  34046  287.65 0855.19
2009/04/23 08:54:44.8     287   -122     12    312    313 113.1   2.3  34046  287.65 0855.19
2009/04/23 08:54:44.9     253   -155     40    297    300 121.5   7.8  34046  287.63 0855.19
2009/04/23 08:54:45.0     249    -90     46    265    270 109.9   9.9  34044  287.61 0855.19
2009/04/23 08:54:45.1     242    -89     33    258    261 110.2   7.5  34046  287.63 0855.19
2009/04/23 08:54:45.2     169   -203    100    265    283 140.3  21.5  34044  287.61 0855.19
2009/04/23 08:54:45.3     189   -129     24    230    232 124.4   6.1  34044  287.60 0855.19
2009/04/23 08:54:45.4     190   -133     52    233    239 125.1  12.6  34044  287.61 0855.19
2009/04/23 08:54:45.5      98   -182     21    207    209 151.7   5.9  34046  287.64 0855.19
2009/04/23 08:54:45.6     124   -194      0    231    232 147.4   0.2  34046  287.64 0855.19
2009/04/23 08:54:45.7      89   -173    -49    195    202 152.6 -14.3  34046  287.64 0855.19
2009/04/23 08:54:45.8     111   -152     -6    189    190 143.9  -2.1  34046  287.65 0855.19
2009/04/23 08:54:45.9     148   -184     18    237    238 141.3   4.4  34046  287.65 0855.19
2009/04/23 08:54:46.0     162   -178     67    241    251 137.7  15.6  34048  287.66 0855.20
2009/04/23 08:54:46.1     177   -178     75    252    264 135.1  16.6  34050  287.70 0855.20
2009/04/23 08:54:46.2     205   -217    108    299    317 136.7  20.7  34044  287.61 0855.20
2009/04/23 08:54:46.3     194   -234     95    305    320 140.3  17.4  34046  287.65 0855.20
2009/04/23 08:54:46.4     148   -228     85    273    286 147.0  17.3  34048  287.66 0855.20
2009/04/23 08:54:46.5     147   -338    133    369    393 156.4  19.9  34050  287.71 0855.20
2009/04/23 08:54:46.6      74   -362    177    370    410 168.4  27.3  34048  287.66 0855.20
2009/04/23 08:54:46.7      36   -321    170    324    365 173.5  30.0  34048  287.66 0855.20
2009/04/23 08:54:46.8       0   -290    224    291    367 179.9  41.5  34048  287.69 0855.20
2009/04/23 08:54:46.9      71   -195    200    208    288 159.9  49.0  34048  287.66 0855.20
2009/04/23 08:54:47.0     166   -170    199    238    310 135.7  43.8  34050  287.71 0855.20
2009/04/23 08:54:47.1     212   -298    209    366    421 144.5  32.3  34044  287.62 0855.20
2009/04/23 08:54:47.2     164   -258     95    306    321 147.5  17.3  34044  287.61 0855.20
2009/04/23 08:54:47.3     155   -231     60    279    286 146.2  12.1  34044  287.61 0855.20
2009/04/23 08:54:47.4     132   -258    120    290    313 152.9  23.8  34046  287.63 0855.20
2009/04/23 08:54:47.5      48   -280    137    285    316 170.2  27.4  34044  287.61 0855.20
2009/04/23 08:54:47.6      41   -278     84    282    295 171.5  16.6  34046  287.65 0855.20
2009/04/23 08:54:47.7      53   -253     47    259    264 168.0  10.3  34046  287.63 0855.20
2009/04/23 08:54:47.8      54   -233     61    240    248 166.9  14.3  34042  287.56 0855.20
2009/04/23 08:54:47.9      87   -273    131    287    315 162.2  26.2  34044  287.61 0855.20
2009/04/23 08:54:48.0      31   -226    146    229    271 172.0  35.5  34046  287.63 0855.21
2009/04/23 08:54:48.1      69   -143    136    160    209 154.1  44.5  34044  287.60 0855.21
2009/04/23 08:54:48.2     179    -65    101    191    216 110.0  30.1  34044  287.62 0855.21
2009/04/23 08:54:48.3     245   -120     17    274    275 116.2   3.6  34046  287.63 0855.21
2009/04/23 08:54:48.4     213   -170     58    273    280 128.6  12.2  34046  287.63 0855.21
2009/04/23 08:54:48.5     164   -164    -45    233    238 135.0 -11.1  34042  287.56 0855.21
2009/04/23 08:54:48.7     178   -152    -84    235    249 130.4 -24.6  34048  287.68 0855.21
2009/04/23 08:54:48.7     260   -156    -33    304    306 120.9  -6.2  34042  287.58 0855.21
2009/04/23 08:54:48.9     177   -189     46    260    265 136.8  10.1  34048  287.66 0855.21
2009/04/23 08:54:48.9      98   -163    -57    191    199 149.0 -21.7  34046  287.65 0855.21
2009/04/23 08:54:49.0     132   -140    -44    193    198 136.7 -12.9  34048  287.67 0855.21
2009/04/23 08:54:49.1     131   -152    -18    201    202 139.2  -5.2  34046  287.65 0855.21
2009/04/23 08:54:49.2     145   -138      8    201    202 133.6   2.5  34046  287.64 0855.21
2009/04/23 08:54:49.4     139   -188      9    234    235 143.5   2.3  34046  287.63 0855.21
2009/04/23 08:54:49.4      27   -346    152    348    379 175.5  25.1  34042  287.57 0855.21
2009/04/23 08:54:49.5     175   -463     84    496    504 159.3   9.7  34040  287.53 0855.21
2009/04/23 08:54:49.6      77   -454     88    461    470 170.3  10.8  34040  287.54 0855.21
2009/04/23 08:54:49.7     101   -405     21    418    419 166.0   3.0  34040  287.55 0855.21
2009/04/23 08:54:49.8     102   -407    115    420    436 165.8  15.4  34036  287.48 0855.21
2009/04/23 08:54:49.9      87   -460     40    469    471 169.3   5.0  34040  287.53 0855.21
2009/04/23 08:54:50.0     147   -454     62    478    483 162.1   7.4  34042  287.58 0855.19
2009/04/23 08:54:50.1     151   -452    102    477    488 161.5  12.1  34042  287.58 0855.19
2009/04/23 08:54:50.2     193   -514     80    550    556 159.4   8.3  34046  287.64 0855.19
2009/04/23 08:54:50.3     153   -449    142    475    496 161.2  16.7  34038  287.51 0855.19
2009/04/23 08:54:50.4     149   -438    108    463    476 161.2  13.1  34048  287.66 0855.19
2009/04/23 08:54:50.5     167   -434    122    466    482 159.0  14.7  34044  287.61 0855.19
2009/04/23 08:54:50.6     137   -334    148    362    391 157.7  23.6  34044  287.61 0855.19
2009/04/23 08:54:50.7     145   -382    152    409    436 159.2  21.1  34044  287.62 0855.19
2009/04/23 08:54:50.8     135   -413    170    435    467 161.9  22.5  34044  287.60 0855.19
2009/04/23 08:54:50.9     179   -414    176    452    485 156.6  22.4  34048  287.66 0855.19
2009/04/23 08:54:51.0     158   -349    111    384    400 155.6  16.1  34038  287.51 0855.19
2009/04/23 08:54:51.2     221   -344    163    410    441 147.3  23.0  34046  287.65 0855.19
2009/04/23 08:54:51.2     164   -329     64    368    374 153.5   9.9  34040  287.54 0855.19
2009/04/23 08:54:51.4     100   -371    151    385    413 164.8  22.7  34046  287.65 0855.19
2009/04/23 08:54:51.5     107   -314     84    333    344 161.1  14.3  34044  287.62 0855.19
2009/04/23 08:54:51.6      74   -375    124    383    403 168.8  18.0  34042  287.59 0855.19
2009/04/23 08:54:51.7     203   -376    133    428    449 151.6  17.3  34046  287.65 0855.19
2009/04/23 08:54:51.8     236   -476    145    532    552 153.6  15.3  34048  287.69 0855.19
2009/04/23 08:54:51.9     169   -415     88    449    458 157.8  11.1  34044  287.60 0855.19
2009/04/23 08:54:52.0     113   -418     85    434    443 164.9  11.1  34046  287.63 0855.19
2009/04/23 08:54:52.1     134   -391    102    414    427 161.0  13.9  34050  287.70 0855.21
2009/04/23 08:54:52.2     149   -359    100    389    402 157.4  14.5  34044  287.61 0855.21
2009/04/23 08:54:52.3     188   -399     70    442    448 154.7   9.0  34050  287.72 0855.21
2009/04/23 08:54:52.4     115   -366    -21    384    385 162.5  -3.2  34046  287.64 0855.21
2009/04/23 08:54:52.5      90   -333     45    346    349 164.9   7.4  34048  287.69 0855.21
2009/04/23 08:54:52.6     116   -346    -27    366    367 161.4  -4.2  34046  287.64 0855.21
2009/04/23 08:54:52.7     234   -281      7    366    367 140.2   1.2  34046  287.64 0855.21
2009/04/23 08:54:52.8     210   -201     97    291    307 133.8  18.5  34048  287.66 0855.21
2009/04/23 08:54:52.9     174   -219    217    281    355 141.5  41.6  34048  287.69 0855.21
2009/04/23 08:54:53.0     165   -308    219    350    412 151.7  35.1  34042  287.57 0855.21
2009/04/23 08:54:53.1     150   -292    206    329    388 152.7  35.3  34048  287.66 0855.21
2009/04/23 08:54:53.2     131   -364    210    387    440 160.2  30.8  34046  287.63 0855.21
2009/04/23 08:54:53.3     207   -325     43    386    389 147.4   6.5  34048  287.67 0855.21
2009/04/23 08:54:53.4     212   -186     14    283    284 131.3   2.9  34044  287.61 0855.21
2009/04/23 08:54:53.5     229   -201     14    305    306 131.3   2.8  34044  287.61 0855.21
2009/04/23 08:54:53.6     271   -190    -18    332    333 125.1  -3.1  34050  287.71 0855.21
2009/04/23 08:54:53.7     301   -234     32    382    384 127.9   4.9  34048  287.66 0855.21
2009/04/23 08:54:53.8     268   -230     44    354    357 130.7   7.2  34044  287.61 0855.21
2009/04/23 08:54:53.9     320   -207     83    382    391 123.0  12.3  34048  287.67 0855.21
2009/04/23 08:54:54.0     261   -218     52    341    345 129.8   8.7  34048  287.69 0855.21
2009/04/23 08:54:54.1     289   -325    -46    436    439 138.3  -6.1  34050  287.70 0855.22
2009/04/23 08:54:54.2     288   -228     32    368    370 128.4   5.0  34042  287.59 0855.22
2009/04/23 08:54:54.3     308   -212     -7    375    376 124.6  -1.2  34046  287.64 0855.22
2009/04/23 08:54:54.4     393   -201     86    442    451 117.2  11.0  34044  287.62 0855.22
2009/04/23 08:54:54.5     356   -119     87    376    387 108.5  13.1  34048  287.66 0855.22
2009/04/23 08:54:54.6     260   -107    167    282    327 112.4  33.5  34034  287.43 0855.22
2009/04/23 08:54:54.7     302   -143    159    335    370 115.4  27.2  34044  287.62 0855.22
2009/04/23 08:54:54.8     179    -86    155    199    252 115.8  41.7  34046  287.63 0855.22
2009/04/23 08:54:54.9     229    -62    129    238    270 105.3  30.8  34050  287.70 0855.22
2009/04/23 08:54:55.0     241    -48     20    246    247 101.5   4.9  34048  287.68 0855.22
2009/04/23 08:54:55.1     107   -130    -51    169    177 140.4 -16.8  34048  287.67 0855.22
2009/04/23 08:54:55.2     126   -182    -48    222    228 145.3 -12.2  34048  287.67 0855.22
2009/04/23 08:54:55.3     122   -228    -67    259    268 151.7 -14.5  34050  287.71 0855.22
2009/04/23 08:54:55.4     120   -186    -12    222    223 147.0  -3.2  34048  287.69 0855.22
2009/04/23 08:54:55.5     154   -227     18    275    276 145.7   3.8  34048  287.66 0855.22
2009/04/23 08:54:55.6     175   -190      3    259    260 137.2   0.8  34050  287.71 0855.22
2009/04/23 08:54:55.7     153   -188     42    243    247 140.8   9.9  34052  287.75 0855.22
2009/04/23 08:54:55.8     169   -199     39    262    265 139.7   8.5  34052  287.75 0855.22
2009/04/23 08:54:55.9      93   -197     77    218    232 154.7  19.4  34050  287.72 0855.22
2009/04/23 08:54:56.0      99   -182     88    208    225 151.3  24.3  34050  287.72 0855.22
2009/04/23 08:54:56.1      92   -139     95    167    192 146.4  32.4  34052  287.76 0855.21
2009/04/23 08:54:56.2      42   -210     99    215    236 168.7  26.2  34050  287.72 0855.21
2009/04/23 08:54:56.3      55   -308    156    314    350 169.8  28.4  34048  287.69 0855.21
2009/04/23 08:54:56.4      17   -233    172    234    290 175.6  39.7  34046  287.65 0855.21
2009/04/23 08:54:56.5       0   -268    170    269    318 179.9  35.2  34048  287.68 0855.21
2009/04/23 08:54:56.6      48   -257    175    262    315 169.3  36.9  34054  287.77 0855.21
2009/04/23 08:54:56.7      -5   -319    153    320    354 181.0  27.3  34050  287.72 0855.21
2009/04/23 08:54:56.8       3   -230    194    231    301 179.1  44.3  34050  287.71 0855.21
2009/04/23 08:54:56.9      22   -202    153    204    255 173.7  40.7  34052  287.73 0855.21
2009/04/23 08:54:57.0      34   -219    128    222    256 171.1  32.4  34050  287.71 0855.21
2009/04/23 08:54:57.1      -2   -207     99    208    230 180.7  27.2  34052  287.74 0855.21
2009/04/23 08:54:57.2       1   -188    106    189    216 179.5  31.4  34052  287.76 0855.21
2009/04/23 08:54:57.3       0   -204    120    205    237 179.8  33.1  34052  287.76 0855.21
2009/04/23 08:54:57.4      53   -222    109    229    253 166.4  27.3  34054  287.78 0855.21
2009/04/23 08:54:57.5      27   -209    131    211    248 172.4  35.0  34054  287.77 0855.21
2009/04/23 08:54:57.6      -7   -157    163    158    227 182.6  50.9  34054  287.77 0855.21
2009/04/23 08:54:57.7      12   -155    115    156    193 175.5  39.9  34054  287.79 0855.21
2009/04/23 08:54:57.8      64   -128    116    144    184 153.3  43.3  34054  287.77 0855.21
2009/04/23 08:54:57.9      50   -143     70    152    167 160.4  26.6  34054  287.79 0855.21
2009/04/23 08:54:58.0      57    -88     98    106    144 147.0  47.9  34052  287.76 0855.21
2009/04/23 08:54:58.1      -4   -126    137    127    186 182.2  52.2  34052  287.76 0855.22
2009/04/23 08:54:58.2     -36   -107    147    113    185 198.7  58.5  34054  287.77 0855.22
2009/04/23 08:54:58.3     -27    -76    130     81    153 200.0  64.7  34052  287.76 0855.22
2009/04/23 08:54:58.4       8    -61     28     62     68 172.0  26.2  34054  287.79 0855.22
2009/04/23 08:54:58.5     -22    -78     -4     82     83 196.0  -3.1  34054  287.77 0855.22
2009/04/23 08:54:58.6     -41    -67     35     79     86 211.6  25.1  34052  287.76 0855.22
2009/04/23 08:54:58.7     -23    -97     52    100    112 193.8  29.3  34050  287.72 0855.22
2009/04/23 08:54:58.8       0   -116     15    117    118 180.0   7.5  34052  287.76 0855.22
2009/04/23 08:54:58.9      -9    -77     61     78     99 187.1  42.2  34050  287.72 0855.22
2009/04/23 08:54:59.0      10    -51     85     53    100 168.5  64.7  34052  287.76 0855.22
2009/04/23 08:54:59.1       9    -65    102     66    121 171.9  64.1  34054  287.77 0855.19
2009/04/23 08:54:59.2     -29    -25     96     39    103 228.7  77.1  34052  287.74 0855.19
2009/04/23 08:54:59.3     -39    -50     93     64    112 217.8  62.1  34052  287.76 0855.19
2009/04/23 08:54:59.4     -33    -67    104     75    128 206.3  60.6  34052  287.76 0855.19
2009/04/23 08:54:59.5       6    -86     82     87    119 175.5  48.5  34052  287.76 0855.19
2009/04/23 08:54:59.6      -2   -119     83    120    145 181.4  37.6  34052  287.76 0855.19
2009/04/23 08:54:59.7       9   -106     58    107    121 175.1  30.8  34052  287.74 0855.19
2009/04/23 08:54:59.8      68    -77     76    103    128 138.6  40.1  34050  287.72 0855.19
2009/04/23 08:54:59.9      80    -97     63    126    140 140.4  28.2  34050  287.70 0855.19
2009/04/23 08:55:00.0      31    -83     38     89     96 159.1  24.1  34050  287.70 0855.19
2009/04/23 08:55:00.1     -28    -60     23     67     72 205.5  19.4  34050  287.72 0855.19
2009/04/23 08:55:00.2      32    -30     24     45     51 133.1  30.3  34052  287.74 0855.19
2009/04/23 08:55:00.3      45   -120     51    129    138 159.5  23.0  34052  287.76 0855.19
2009/04/23 08:55:00.4      49    -64     95     81    124 142.6  54.8  34052  287.76 0855.19
2009/04/23 08:55:00.5      65   -100     98    120    154 147.0  43.7  34050  287.72 0855.19
2009/04/23 08:55:00.6      -8    -62    138     63    151 188.1  73.5  34054  287.79 0855.19
2009/04/23 08:55:00.7     -30     25     64     40     75 309.6  64.7  34056  287.81 0855.19
2009/04/23 08:55:00.8       8      0     56      9     56  94.4  90.0  34058  287.84 0855.19
2009/04/23 08:55:00.9       6     -7     55     10     55 136.8  90.0  34052  287.74 0855.19
2009/04/23 08:55:01.0       0     39     48     40     62 359.1  56.3  34050  287.72 0855.19
2009/04/23 08:55:01.1     -45     45     27     64     69 315.0  23.1  34052  287.74 0855.17
2009/04/23 08:55:01.2     -67      5      4     68     69 274.4   3.8  34056  287.81 0855.17
2009/04/23 08:55:01.3     -90      8      3     91     92 275.2   2.3  34060  287.87 0855.17
2009/04/23 08:55:01.4     -89     49    -31    102    106 298.8 -22.3  34058  287.84 0855.17
2009/04/23 08:55:01.5     -53     56     -2     78     79 316.7  -1.8  34058  287.86 0855.17
2009/04/23 08:55:01.6     -37     65     14     75     77 330.1  11.1  34058  287.84 0855.17
2009/04/23 08:55:01.7     -71     64     -3     96     97 312.2  -2.2  34056  287.82 0855.17
2009/04/23 08:55:01.8     -49     70      8     86     87 324.8   5.4  34056  287.81 0855.17
2009/04/23 08:55:01.9     -30     24     30     39     49 309.5  41.7  34056  287.81 0855.17
2009/04/23 08:55:02.0     -14      1     52     15     54 274.3  82.8  34058  287.86 0855.17
2009/04/23 08:55:02.1     -16     13     56     22     60 309.5  77.1  34056  287.81 0855.17
2009/04/23 08:55:02.2     -39     25     42     47     63 303.3  47.9  34056  287.81 0855.17
2009/04/23 08:55:02.3     -46     53     64     71     95 319.5  46.9  34058  287.86 0855.17
2009/04/23 08:55:02.4     -56     35     78     67    102 302.4  54.8  34064  287.96 0855.17
2009/04/23 08:55:02.5       7     36     87     37     94  11.6  75.5  34074  288.13 0855.17
2009/04/23 08:55:02.6      16     59     76     62     98  15.2  56.4  34076  288.14 0855.17
2009/04/23 08:55:02.7     -32     -6     68     33     75 258.6  72.8  34074  288.13 0855.17
2009/04/23 08:55:02.8     -14     -4     55     15     57 251.6  83.9  34062  287.92 0855.17
2009/04/23 08:55:02.9      18    -59     88     62    107 163.1  60.6  34056  287.81 0855.17
2009/04/23 08:55:03.0     -20    -87     96     90    131 192.9  52.1  34054  287.77 0855.17
2009/04/23 08:55:03.1     -74    -56     82     94    124 232.7  45.8  34048  287.69 0855.18
2009/04/23 08:55:03.2     -73    -20     64     76     99 254.1  44.3  34058  287.86 0855.18
2009/04/23 08:55:03.3      31     35     44     48     65  41.4  47.9  34070  288.06 0855.18
2009/04/23 08:55:03.4      91     83    123    124    174  47.8  50.5  34080  288.23 0855.18
2009/04/23 08:55:03.5      38     64    108     75    131  30.7  62.1  34108  288.70 0855.18
2009/04/23 08:55:03.6      12     61    107     63    124  11.5  66.8  34138  289.21 0855.18
2009/04/23 08:55:03.7     -27     -5     81     28     85 258.5  81.2  34102  288.58 0855.18
2009/04/23 08:55:03.8      -9      0     37     10     38 270.8  82.8  34094  288.45 0855.18
2009/04/23 08:55:03.9      54     15     80     57     98  74.1  60.6  34108  288.70 0855.18
2009/04/23 08:55:04.0      30     44     82     54     98  34.3  63.6  34124  288.97 0855.18
2009/04/23 08:55:04.1      -9     31     65     33     72 343.1  71.9  34120  288.89 0855.18
2009/04/23 08:55:04.2      14     52     48     54     72  15.1  46.9  34116  288.82 0855.18
2009/04/23 08:55:04.3     102     -3     93    103    138  91.7  47.5  34086  288.31 0855.18
2009/04/23 08:55:04.4     167      3    157    168    229  88.7  48.0  34070  288.06 0855.18
2009/04/23 08:55:04.5      56      0    164     57    173  89.2  80.7  34084  288.30 0855.18
2009/04/23 08:55:04.6       1    -12    103     13    103 175.5  90.0  34060  287.89 0855.18
2009/04/23 08:55:04.7      27    -31    115     42    122 139.5  79.2  34058  287.86 0855.18
2009/04/23 08:55:04.8       7   -112    148    113    186 176.4  58.7  34064  287.94 0855.18
2009/04/23 08:55:04.9      26   -119    134    122    181 167.5  52.7  34058  287.84 0855.18
2009/04/23 08:55:05.0     -27    -82    120     87    148 198.7  60.5  34084  288.30 0855.18
2009/04/23 08:55:05.1     -79   -116    123    141    187 214.3  45.6  34076  288.16 0855.19
2009/04/23 08:55:05.2     -30   -129    133    133    188 193.3  50.1  34062  287.91 0855.19
2009/04/23 08:55:05.3     -10   -100    123    101    159 186.2  56.4  34062  287.91 0855.19
2009/04/23 08:55:05.4      -3    -82     82     83    116 182.2  50.5  34094  288.47 0855.19
2009/04/23 08:55:05.5      -4    -93     96     94    134 182.7  50.1  34070  288.06 0855.19
2009/04/23 08:55:05.6      18    -94    112     96    147 168.9  55.4  34054  287.77 0855.19
2009/04/23 08:55:05.7      -8   -125    117    126    171 184.0  47.9  34052  287.76 0855.19
2009/04/23 08:55:05.8     -30   -162     98    165    191 190.5  33.7  34052  287.74 0855.19
2009/04/23 08:55:05.9     -36   -138     91    143    169 194.7  35.5  34052  287.74 0855.19
2009/04/23 08:55:06.0     -48   -140    107    149    183 199.2  39.3  34052  287.74 0855.19
2009/04/23 08:55:06.1      -9   -117    138    118    181 184.5  55.0  34048  287.69 0855.19
2009/04/23 08:55:06.2       0   -124    143    125    189 180.0  54.6  34046  287.64 0855.19
2009/04/23 08:55:06.3     -64   -165    153    178    234 201.2  45.1  34050  287.70 0855.19
2009/04/23 08:55:06.4     -13   -166    194    167    255 184.7  55.0  34056  287.82 0855.19
2009/04/23 08:55:06.5     -44   -217    193    222    294 191.6  45.6  34058  287.83 0855.19
2009/04/23 08:55:06.6     -69   -271    217    280    354 194.3  41.7  34056  287.81 0855.19
2009/04/23 08:55:06.7     -65   -274    189    282    339 193.4  36.9  34056  287.80 0855.19
2009/04/23 08:55:06.8     -95   -328    199    342    395 196.3  32.8  34054  287.79 0855.19
2009/04/23 08:55:06.9    -105   -305    144    323    353 199.1  25.6  34054  287.79 0855.19
2009/04/23 08:55:07.0      21   -170     86    172    192 172.9  28.2  34054  287.77 0855.19
2009/04/23 08:55:07.1      27   -159    -22    162    164 170.4  -8.0  34056  287.81 0855.20
2009/04/23 08:55:07.2      96   -150     35    179    183 147.5  11.1  34054  287.79 0855.20
2009/04/23 08:55:07.3     139    -87     59    165    175 122.0  20.0  34054  287.79 0855.20
2009/04/23 08:55:07.4     183    -68    135    196    237 110.4  37.8  34056  287.81 0855.20
2009/04/23 08:55:07.5      19    -99    147    101    178 168.9  62.1  34052  287.74 0855.20
2009/04/23 08:55:07.6      30    -51    131     60    144 149.3  73.5  34058  287.86 0855.20
2009/04/23 08:55:07.7      33    -43    127     55    138 143.0  75.0  34056  287.82 0855.20
2009/04/23 08:55:07.8     118    -78    149    142    205 123.7  51.6  34056  287.82 0855.20
2009/04/23 08:55:07.9      46   -108    137    118    180 156.8  55.0  34058  287.84 0855.20
2009/04/23 08:55:08.0      22   -122    178    124    216 169.8  61.8  34054  287.79 0855.20
2009/04/23 08:55:08.1      13   -141    135    142    195 174.7  48.5  34058  287.84 0855.20
2009/04/23 08:55:08.2      42    -50    123     66    139 139.5  69.3  34058  287.84 0855.20
2009/04/23 08:55:08.3     -21    -61    125     65    140 199.2  70.8  34052  287.76 0855.20
2009/04/23 08:55:08.4     -81   -119    120    145    188 214.3  43.8  34058  287.84 0855.20
2009/04/23 08:55:08.5     -50   -127     99    137    169 201.8  39.7  34058  287.84 0855.20
2009/04/23 08:55:08.6     -31   -133     81    137    159 193.3  33.5  34056  287.82 0855.20
2009/04/23 08:55:08.7    -101   -131     32    166    170 217.8  11.1  34058  287.84 0855.20
2009/04/23 08:55:08.8     -57    -91    -15    108    110 212.1  -8.2  34054  287.77 0855.20
2009/04/23 08:55:08.9     -67    -13     16     69     71 258.6  13.2  34056  287.81 0855.20
2009/04/23 08:55:09.0     -56     53     38     78     86 313.1  27.8  34054  287.79 0855.20
2009/04/23 08:55:09.1    -106     41     19    114    116 291.3   9.5  34056  287.82 0855.22
2009/04/23 08:55:09.2    -120     71     81    140    161 300.7  32.7  34054  287.77 0855.22
2009/04/23 08:55:09.3     -89    123     69    153    167 324.0  25.9  34054  287.77 0855.22
2009/04/23 08:55:09.4    -164     98     36    192    196 300.9  10.8  34054  287.79 0855.22
2009/04/23 08:55:09.5    -197     36     62    201    211 280.4  17.3  34058  287.84 0855.22
2009/04/23 08:55:09.6    -206      7     10    207    208 272.1   2.9  34058  287.84 0855.22
2009/04/23 08:55:09.7    -205    -20     18    207    208 264.3   5.2  34060  287.89 0855.22
2009/04/23 08:55:09.8    -236    -21     58    237    245 264.8  13.9  34056  287.82 0855.22
2009/04/23 08:55:09.9    -225    -26     21    227    229 263.4   5.4  34050  287.70 0855.22
2009/04/23 08:55:10.0    -224    -33     85    227    242 261.4  21.5  34052  287.75 0855.22
2009/04/23 08:55:10.1    -292     41     -6    295    296 278.0  -1.3  34046  287.65 0855.22
2009/04/23 08:55:10.2    -288     21    -26    289    291 274.3  -5.2  34054  287.77 0855.22
2009/04/23 08:55:10.3    -248    -33     -1    251    252 262.3  -0.3  34050  287.71 0855.22
2009/04/23 08:55:10.4    -228    -15     -5    229    230 266.1  -1.3  34050  287.72 0855.22
2009/04/23 08:55:10.5    -238    -82    -32    252    255 250.9  -7.3  34052  287.75 0855.22
2009/04/23 08:55:10.6    -234    -26      7    236    237 263.6   1.8  34046  287.65 0855.22
2009/04/23 08:55:10.7    -306    -95    124    321    344 252.7  22.3  34048  287.69 0855.22
2009/04/23 08:55:10.8    -312    -58    117    318    338 259.4  21.1  34048  287.66 0855.22
2009/04/23 08:55:10.9    -178    -92     73    201    213 242.5  20.7  34052  287.76 0855.22
2009/04/23 08:55:11.0    -181    -42     34    186    190 256.7  10.3  34050  287.70 0855.22
2009/04/23 08:55:11.1    -222    -14     98    223    243 266.3  25.1  34062  287.90 0855.23
2009/04/23 08:55:11.2    -176     35    100    180    205 281.5  31.4  34072  288.09 0855.23
2009/04/23 08:55:11.3    -145    119    105    188    215 309.3  31.4  34088  288.36 0855.23
2009/04/23 08:55:11.4     -72    112     47    134    143 327.4  19.4  34082  288.25 0855.23
2009/04/23 08:55:11.5    -229     95    -73    249    259 292.6 -21.2  34060  287.88 0855.23
2009/04/23 08:55:11.6    -247     35    -14    250    251 278.1  -3.3  34064  287.95 0855.23
2009/04/23 08:55:11.7    -204    130      9    243    244 302.6   2.3  34068  288.00 0855.23
2009/04/23 08:55:11.8    -194    155     67    249    259 308.7  15.2  34078  288.17 0855.23
2009/04/23 08:55:11.9    -121     81      5    146    147 303.7   2.3  34058  287.84 0855.23
2009/04/23 08:55:12.0    -150    102     61    182    193 304.4  18.6  34064  287.94 0855.23
2009/04/23 08:55:12.1    -226     45    -38    231    235 281.4  -9.4  34060  287.87 0855.23
2009/04/23 08:55:12.2    -205     83    -69    222    232 292.2 -22.3  34054  287.77 0855.23
2009/04/23 08:55:12.3    -174    101     -7    202    203 300.0  -2.2  34050  287.72 0855.23
2009/04/23 08:55:12.4    -116    116     67    165    178 315.0  23.1  34064  287.94 0855.23
2009/04/23 08:55:12.5     -75    136    147    156    214 331.0  48.5  34128  289.02 0855.23
2009/04/23 08:55:12.6     -37     92    155    100    184 337.7  64.6  34176  289.84 0855.23
2009/04/23 08:55:12.7     -59     63    123     87    150 316.8  61.1  34164  289.63 0855.23
2009/04/23 08:55:12.8    -142    -19     65    144    157 262.1  25.7  34114  288.80 0855.23
2009/04/23 08:55:12.9     -95    -72     20    120    122 232.7   9.5  34116  288.84 0855.23
2009/04/23 08:55:13.0      19    -51    -27     55     61 159.1 -31.7  34102  288.60 0855.23
2009/04/23 08:55:13.1     -43    -83    -12     94     95 207.6  -7.3  34082  288.25 0855.23
2009/04/23 08:55:13.2     -89   -143    -24    169    171 212.1  -8.2  34056  287.82 0855.23
2009/04/23 08:55:13.3     -99   -171     88    198    216 210.1  25.3  34056  287.81 0855.23
2009/04/23 08:55:13.4     -99   -117     34    154    158 220.1  12.6  34058  287.84 0855.23
2009/04/23 08:55:13.5     -98   -109     58    147    158 221.9  22.5  34054  287.77 0855.23
2009/04/23 08:55:13.6     -89    -89     51    126    135 225.0  23.0  34052  287.76 0855.23
2009/04/23 08:55:13.7     -62   -109     62    126    140 209.9  27.8  34048  287.69 0855.23
2009/04/23 08:55:13.8     -55   -119     80    132    154 204.9  35.0  34048  287.69 0855.23
2009/04/23 08:55:13.9     -74   -116     77    138    158 212.5  31.6  34050  287.70 0855.23
2009/04/23 08:55:14.0     -53   -115     77    127    148 204.9  34.4  34052  287.76 0855.23
2009/04/23 08:55:14.1     -70    -96     54    119    130 216.1  26.2  34048  287.69 0855.23
2009/04/23 08:55:14.2     -59    -81     50    101    112 216.1  27.3  34050  287.70 0855.23
2009/04/23 08:55:14.3     -43    -67     51     80     94 212.6  35.5  34050  287.70 0855.23
2009/04/23 08:55:14.4     -76    -25     52     81     96 251.8  35.6  34054  287.77 0855.23
2009/04/23 08:55:14.5     -87    -39     73     96    120 246.0  41.2  34052  287.74 0855.23
2009/04/23 08:55:14.6     -99    -54     68    113    131 241.2  34.0  34056  287.81 0855.23
2009/04/23 08:55:14.7     -59    -81     70    101    122 216.1  38.0  34052  287.76 0855.23
2009/04/23 08:55:14.8     -84    -95     47    128    136 221.4  20.9  34056  287.81 0855.23
2009/04/23 08:55:14.9    -127   -111     47    169    176 228.7  15.6  34060  287.89 0855.23
2009/04/23 08:55:15.0    -100   -132     23    166    168 217.2   8.0  34054  287.79 0855.23
2009/04/23 08:55:15.1    -112   -154     56    191    200 216.1  16.3  34052  287.74 0855.24
2009/04/23 08:55:15.2    -108   -187     28    217    219 210.1   7.5  34060  287.87 0855.24
2009/04/23 08:55:15.3     -62    -91    115    111    159 214.3  50.9  34058  287.86 0855.24
2009/04/23 08:55:15.4     -85    -78    107    116    157 227.3  47.7  34058  287.86 0855.24
2009/04/23 08:55:15.5     -88    -79     90    119    149 228.2  41.2  34058  287.84 0855.24
2009/04/23 08:55:15.6     -73    -84     77    112    135 221.0  37.6  34058  287.86 0855.24
2009/04/23 08:55:15.7     -58   -117     91    131    159 206.7  38.4  34056  287.82 0855.24
2009/04/23 08:55:15.8     -64   -115     77    132    152 209.0  33.4  34054  287.79 0855.24
2009/04/23 08:55:15.9      -5    -97    106     98    144 183.1  52.2  34044  287.62 0855.24
2009/04/23 08:55:16.0     -46   -119    116    128    172 201.4  47.1  34046  287.65 0855.24
2009/04/23 08:55:16.1       0   -122    122    123    173 180.0  50.2  34048  287.67 0855.24
2009/04/23 08:55:16.2       0   -149    140    150    205 180.0  48.0  34054  287.77 0855.24
2009/04/23 08:55:16.3       0   -115    102    116    154 180.4  45.8  34054  287.77 0855.24
2009/04/23 08:55:16.4      -1    -94    100     95    137 180.9  52.1  34056  287.82 0855.24
2009/04/23 08:55:16.5      14   -123     96    124    156 173.3  42.0  34054  287.77 0855.24
2009/04/23 08:55:16.6      23   -131    111    134    174 169.8  43.7  34054  287.79 0855.24
2009/04/23 08:55:16.7     -10   -139    150    140    205 184.5  52.1  34054  287.79 0855.24
2009/04/23 08:55:16.8     -64   -165    146    178    230 201.4  43.7  34054  287.77 0855.24
2009/04/23 08:55:16.9     -63   -207    108    217    242 196.9  28.5  34054  287.77 0855.24
2009/04/23 08:55:17.0     -79   -193    118    209    240 202.5  31.9  34050  287.72 0855.24
2009/04/23 08:55:17.1     -47   -207    109    213    239 192.9  29.3  34056  287.81 0855.23
2009/04/23 08:55:17.2     -19   -208    166    209    266 185.3  42.7  34054  287.78 0855.23
2009/04/23 08:55:17.4     -23   -219    173    221    280 186.2  42.0  34054  287.78 0855.23
2009/04/23 08:55:17.4     -62   -204    163    214    269 197.0  41.2  34054  287.77 0855.23
2009/04/23 08:55:17.5     -26   -173    182    176    253 188.7  51.2  34056  287.81 0855.23
2009/04/23 08:55:17.6     -16   -179    141    180    228 185.3  42.0  34056  287.81 0855.23
2009/04/23 08:55:17.8      -9   -201    164    202    260 182.7  43.5  34058  287.85 0855.23
2009/04/23 08:55:17.9     -38   -220    180    224    287 190.0  43.0  34058  287.85 0855.23
2009/04/23 08:55:18.0    -111   -212    164    240    290 207.6  37.6  34060  287.88 0855.23
2009/04/23 08:55:18.1    -103   -236    162    258    304 203.6  35.5  34052  287.75 0855.23
2009/04/23 08:55:18.2     -60   -239    205    247    320 194.3  44.1  34054  287.78 0855.23
2009/04/23 08:55:18.3     -68   -217    182    228    291 197.4  42.7  34052  287.75 0855.23
2009/04/23 08:55:18.4     -30   -219    150    222    267 188.0  37.3  34054  287.78 0855.23
2009/04/23 08:55:18.5      -1   -117    134    118    178 180.9  54.0  34056  287.82 0855.23
2009/04/23 08:55:18.6     -48   -102    143    113    182 205.4  57.5  34058  287.84 0855.23
2009/04/23 08:55:18.7     -42   -161     79    167    184 194.9  27.2  34058  287.84 0855.23
2009/04/23 08:55:18.8     -21   -152     90    154    178 188.0  32.9  34056  287.82 0855.23
2009/04/23 08:55:18.9       2   -163     78    164    181 179.3  27.2  34052  287.74 0855.23
2009/04/23 08:55:19.0       3   -223     19    224    225 179.0   4.9  34052  287.76 0855.23
2009/04/23 08:55:19.1      -7   -161     67    162    175 182.5  23.6  34054  287.79 0855.23
2009/04/23 08:55:19.2     -16   -164     70    165    179 185.8  24.1  34054  287.79 0855.25
2009/04/23 08:55:19.3     -19   -138     67    140    155 188.1  27.3  34054  287.77 0855.25
2009/04/23 08:55:19.4      28   -141     39    144    150 168.4  15.3  34050  287.70 0855.25
2009/04/23 08:55:19.5      21    -99     66    102    121 168.0  36.0  34050  287.72 0855.25
2009/04/23 08:55:19.6      75    -90     67    118    135 140.4  32.4  34050  287.72 0855.25
2009/04/23 08:55:19.7     102   -108     76    149    167 136.8  28.7  34052  287.74 0855.25
2009/04/23 08:55:19.8      45   -129     85    137    161 160.8  34.8  34052  287.74 0855.25
2009/04/23 08:55:19.9      40    -95     73    104    127 157.3  38.0  34052  287.74 0855.25
2009/04/23 08:55:20.0      15    -27     75     31     81 151.0  76.6  34054  287.79 0855.25
2009/04/23 08:55:20.1      23     11     65     26     70  62.9  77.1  34054  287.79 0855.25
2009/04/23 08:55:20.2     -34   -103    123    109    164 198.7  53.7  34056  287.82 0855.26
2009/04/23 08:55:20.3       0    -62     88     63    108 180.0  60.5  34056  287.81 0855.26
2009/04/23 08:55:20.4       0    -25     96     26     99 179.1  84.8  34058  287.86 0855.26
2009/04/23 08:55:20.5      -7    -50    107     51    118 188.9  72.9  34052  287.74 0855.26
2009/04/23 08:55:20.6     -16    -53     79     56     96 196.9  61.5  34052  287.76 0855.26
2009/04/23 08:55:20.7     -89    -65     37    111    118 234.1  18.4  34052  287.74 0855.26
2009/04/23 08:55:20.8     -70    -68     39     98    105 226.0  23.0  34050  287.70 0855.26
2009/04/23 08:55:20.9     -98    -80     25    127    130 230.5  11.1  34048  287.69 0855.26
2009/04/23 08:55:21.0    -106    -57     35    121    127 241.6  16.3  34048  287.69 0855.26
2009/04/23 08:55:21.1    -106    -42     10    115    116 248.2   5.4  34044  287.62 0855.26
2009/04/23 08:55:21.2     -78    -63     22    101    104 230.9  12.6  34044  287.60 0855.26
2009/04/23 08:55:21.3     -59    -94     45    112    120 212.1  23.0  34046  287.64 0855.26
2009/04/23 08:55:21.4     -57    -62     60     85    104 222.8  38.6  34046  287.64 0855.26
2009/04/23 08:55:21.5    -101    -47      5    112    113 244.8   2.9  34046  287.64 0855.26
2009/04/23 08:55:21.6    -141    -38    -24    147    149 254.9  -9.3  34034  287.45 0855.26
2009/04/23 08:55:21.7    -140    -36    -14    145    146 255.4  -5.6  34036  287.47 0855.26
2009/04/23 08:55:21.8    -161    -31      6    165    166 259.0   2.1  34034  287.43 0855.26
2009/04/23 08:55:21.9    -147    -59     27    159    162 248.2   9.9  34036  287.47 0855.26
2009/04/23 08:55:22.0    -133    -53     45    144    151 248.2  17.4  34036  287.49 0855.26
2009/04/23 08:55:22.1    -123    -83     57    149    159 235.8  21.7  34044  287.60 0855.26
2009/04/23 08:55:22.2     -94   -123     46    155    162 217.4  16.8  34044  287.60 0855.27
2009/04/23 08:55:22.3     -80   -112     48    138    147 215.6  19.4  34044  287.60 0855.27
2009/04/23 08:55:22.4     -78    -96     83    124    149 219.2  37.0  34038  287.50 0855.27
2009/04/23 08:55:22.5     -50   -125    113    135    176 201.8  44.3  34028  287.33 0855.27
2009/04/23 08:55:22.6     -75   -144    109    163    196 207.6  37.4  34032  287.40 0855.27
2009/04/23 08:55:22.7     -41   -104    140    113    179 201.8  56.9  34034  287.45 0855.27
2009/04/23 08:55:22.8     -67    -82     71    106    127 219.2  37.0  34036  287.49 0855.27
2009/04/23 08:55:22.9     -86    -98     71    131    149 221.4  31.3  34042  287.59 0855.27
2009/04/23 08:55:23.0     -84   -102     54    133    143 219.6  23.0  34038  287.52 0855.27
2009/04/23 08:55:23.1     -80   -100     62    129    143 218.7  27.2  34042  287.57 0855.27
2009/04/23 08:55:23.2     -71   -108     11    130    131 213.4   5.0  34042  287.57 0855.27
2009/04/23 08:55:23.3     -60   -104     -2    121    122 209.9  -1.3  34040  287.54 0855.27
2009/04/23 08:55:23.4     -60    -44     52     75     91 234.0  38.0  34038  287.52 0855.27
2009/04/23 08:55:23.5    -144    -51     39    153    159 250.5  14.5  34044  287.60 0855.27
2009/04/23 08:55:23.6    -145    -69     48    161    169 244.6  16.6  34044  287.60 0855.27
2009/04/23 08:55:23.7    -102    -80     25    130    133 231.8  11.1  34048  287.67 0855.27
2009/04/23 08:55:23.8     -83    -77     35    114    120 226.9  17.3  34046  287.65 0855.27
2009/04/23 08:55:23.9    -114    -69     36    134    139 238.9  15.3  34046  287.65 0855.27
2009/04/23 08:55:24.0    -128    -17    -26    130    133 262.1 -11.3  34046  287.65 0855.27
2009/04/23 08:55:24.1    -140    -25    -34    143    148 259.9 -13.4  34042  287.57 0855.27
2009/04/23 08:55:24.2    -126    -13    -30    127    131 263.8 -13.4  34040  287.54 0855.27
2009/04/23 08:55:24.3    -107      8    -17    108    110 274.3  -9.3  34040  287.55 0855.27
2009/04/23 08:55:24.4    -111      0     -4    112    113 270.0  -2.2  34042  287.57 0855.27
2009/04/23 08:55:24.5    -110     -5     -3    111    112 267.4  -1.8  34042  287.59 0855.27
2009/04/23 08:55:24.6    -128     -7    -16    129    131 266.5  -7.3  34042  287.59 0855.27
2009/04/23 08:55:24.7    -123     20    -29    125    129 279.6 -13.3  34044  287.62 0855.27
2009/04/23 08:55:24.8    -130    -10     31    131    135 265.6  13.7  34044  287.60 0855.27
2009/04/23 08:55:24.9    -116     -8    -19    117    119 265.7  -9.4  34042  287.59 0855.27
2009/04/23 08:55:25.0    -125    -51    -28    136    139 247.8 -11.9  34044  287.62 0855.27
2009/04/23 08:55:25.1     -86    -85    -21    122    124 225.2  -9.8  34042  287.59 0855.27
2009/04/23 08:55:25.2    -116    -76    -26    139    142 236.7 -10.9  34042  287.59 0855.27
2009/04/23 08:55:25.3    -104    -40    -57    112    125 248.7 -33.6  34038  287.52 0855.27
2009/04/23 08:55:25.4     -93     -4    -90     94    130 267.0 -53.4  34038  287.52 0855.27
2009/04/23 08:55:25.5     -87     -5    -78     88    117 266.5 -50.8  34038  287.52 0855.27
2009/04/23 08:55:25.6     -75    -25    -35     80     87 251.4 -29.0  34040  287.55 0855.27
2009/04/23 08:55:25.7     -83    -22    -10     87     88 254.9  -6.7  34042  287.57 0855.27
2009/04/23 08:55:25.8     -70    -33      3     78     79 244.8   2.3  34044  287.60 0855.27
2009/04/23 08:55:25.9     -46    -92    -32    104    108 206.7 -22.8  34042  287.57 0855.27
2009/04/23 08:55:26.0      -4   -105    -29    106    111 182.7 -15.5  34042  287.59 0855.27
2009/04/23 08:55:26.1     -12   -122    -12    123    124 185.8  -5.6  34042  287.57 0855.27
2009/04/23 08:55:26.2       6   -128    -18    129    131 177.3  -8.2  34042  287.57 0855.27
2009/04/23 08:55:26.3       7   -156    -23    157    159 177.4  -8.6  34044  287.60 0855.27
2009/04/23 08:55:26.4      24   -145    -22    148    150 170.3  -8.8  34042  287.57 0855.27
2009/04/23 08:55:26.5      17   -157    -14    158    159 173.8  -5.2  34042  287.57 0855.27
2009/04/23 08:55:26.6      21   -168     20    170    172 172.9   6.7  34042  287.59 0855.27
2009/04/23 08:55:26.7       6   -162     22    163    165 177.8   8.0  34040  287.55 0855.27
2009/04/23 08:55:26.8     -16   -149     46    150    158 186.2  17.3  34042  287.57 0855.27
2009/04/23 08:55:26.9      25   -147     29    150    153 170.3  11.1  34040  287.55 0855.27
2009/04/23 08:55:27.0      -5   -125     25    126    129 182.6  11.6  34044  287.60 0855.27
2009/04/23 08:55:27.1     -55    -80     23     98    101 214.7  13.2  34052  287.76 0855.27
2009/04/23 08:55:27.2     -85    -69    -13    110    111 230.9  -7.2  34044  287.60 0855.27
2009/04/23 08:55:27.3     -74    -38    -16     84     86 242.9 -11.3  34040  287.55 0855.27
2009/04/23 08:55:27.4    -101    -83      0    132    133 230.5  -0.3  34044  287.60 0855.27
2009/04/23 08:55:27.5     -38    -78      5     88     89 206.3   3.8  34046  287.64 0855.27
2009/04/23 08:55:27.6     -49   -114      8    125    126 203.2   3.8  34052  287.74 0855.27
2009/04/23 08:55:27.7     -67   -142    -12    158    159 205.3  -4.6  34046  287.65 0855.27
2009/04/23 08:55:27.8     -51   -167    -61    175    185 197.2 -23.8  34042  287.57 0855.27
2009/04/23 08:55:27.9     -22   -202     40    204    208 186.2  11.1  34040  287.54 0855.27
2009/04/23 08:55:28.0     -65   -207    -48    218    224 197.4 -12.6  34042  287.57 0855.27
2009/04/23 08:55:28.1     -35   -223    -69    226    236 189.1 -21.8  34038  287.51 0855.27
2009/04/23 08:55:28.2      -9   -181    -43    182    188 182.9 -13.4  34034  287.45 0855.27
2009/04/23 08:55:28.3       3   -181     -7    182    183 178.9  -2.2  34032  287.40 0855.27
2009/04/23 08:55:28.4       9   -186      8    187    188 177.1   2.5  34034  287.43 0855.27
2009/04/23 08:55:28.5      16   -172     28    173    176 174.7   9.3  34034  287.43 0855.27
2009/04/23 08:55:28.6     -15   -148     41    149    155 185.8  15.6  34032  287.40 0855.27
2009/04/23 08:55:28.7     -24   -140     51    143    151 189.7  20.0  34034  287.45 0855.27
2009/04/23 08:55:28.8     -19   -133     48    135    143 188.1  20.0  34038  287.50 0855.27
2009/04/23 08:55:28.9      -2   -129     57    130    141 180.9  25.1  34038  287.50 0855.27
2009/04/23 08:55:29.0     -46   -119     90    128    156 201.4  38.6  34040  287.54 0855.27
2009/04/23 08:55:29.1     -47   -119     77    129    150 201.8  33.5  34036  287.49 0855.27
2009/04/23 08:55:29.2     -60   -118     46    133    141 207.2  19.2  34038  287.50 0855.27
2009/04/23 08:55:29.3     -55    -95     30    111    116 210.3  15.2  34042  287.57 0855.27
2009/04/23 08:55:29.4    -113   -108      4    157    158 226.4   1.8  34040  287.54 0855.27
2009/04/23 08:55:29.5    -137   -135    -53    193    200 225.4 -20.0  34046  287.64 0855.27
2009/04/23 08:55:29.6    -146   -182    -72    234    244 218.7 -22.3  34048  287.68 0855.27
2009/04/23 08:55:29.7    -197   -187    -48    272    277 226.4 -10.1  34042  287.56 0855.27
2009/04/23 08:55:29.8    -169   -167     87    238    253 225.3  20.7  34044  287.61 0855.27
2009/04/23 08:55:29.9    -201   -136     -9    243    244 235.9  -2.2  34044  287.60 0855.27
2009/04/23 08:55:30.0    -116   -181    -35    216    219 212.6  -9.3  34042  287.59 0855.27
2009/04/23 08:55:30.1     -61   -100     59    118    131 211.2  28.2  34044  287.60 0855.27
2009/04/23 08:55:30.2     -72    -77     61    106    122 222.8  32.4  34044  287.60 0855.27
2009/04/23 08:55:30.3     -51    -82     74     97    122 212.1  41.6  34040  287.54 0855.27
2009/04/23 08:55:30.4     -79   -102     92    130    159 217.9  38.8  34040  287.55 0855.27
2009/04/23 08:55:30.5    -102   -105    107    147    181 224.1  39.7  34040  287.55 0855.27
2009/04/23 08:55:30.6    -108   -128     98    168    194 220.3  33.1  34038  287.52 0855.27
2009/04/23 08:55:30.7    -141   -154     37    209    213 222.5  10.1  34040  287.55 0855.27
2009/04/23 08:55:30.8    -177   -133    -35    222    225 232.9  -9.0  34042  287.59 0855.27
2009/04/23 08:55:30.9    -162   -128     17    207    208 231.6   4.9  34040  287.54 0855.27
2009/04/23 08:55:31.0    -155    -72     -7    172    173 244.9  -2.6  34044  287.60 0855.27
2009/04/23 08:55:31.1    -143    -70    -12    160    161 243.8  -4.4  34046  287.64 0855.27
2009/04/23 08:55:31.2    -173    -75    -44    189    195 246.5 -13.3  34046  287.65 0855.27
2009/04/23 08:55:31.3    -144    -79    -54    165    173 241.1 -23.6  34044  287.60 0855.27
2009/04/23 08:55:31.4    -178    -55    -61    187    196 252.7 -23.3  34042  287.59 0855.27
2009/04/23 08:55:31.5    -180   -109    -58    211    219 238.9 -15.5  34042  287.57 0855.27
2009/04/23 08:55:31.6    -138   -147     18    202    203 223.2   5.2  34040  287.55 0855.27
2009/04/23 08:55:31.7    -153    -81    -35    174    178 242.2 -11.5  34040  287.54 0855.27
2009/04/23 08:55:31.8    -189    -53    -44    197    202 254.1 -12.6  34044  287.60 0855.27
2009/04/23 08:55:31.9    -185    -89     40    206    210 244.2  11.0  34038  287.52 0855.27
2009/04/23 08:55:32.0    -149   -110      1    186    187 233.6   0.5  34040  287.55 0855.27
2009/04/23 08:55:32.1    -112   -136     20    177    179 219.6   6.7  34038  287.50 0855.27
2009/04/23 08:55:32.2    -113   -177     27    211    213 212.5   7.5  34036  287.49 0855.27
2009/04/23 08:55:32.3     -99   -200     35    224    227 206.5   8.9  34036  287.49 0855.27
2009/04/23 08:55:32.4     -47   -213     27    219    221 192.5   7.2  34038  287.50 0855.27
2009/04/23 08:55:32.5      23   -162     33    164    168 171.8  11.4  34038  287.50 0855.27
2009/04/23 08:55:32.6      63   -161     48    173    180 158.6  15.6  34040  287.55 0855.27
2009/04/23 08:55:32.7      72   -148     48    165    172 154.1  16.3  34042  287.59 0855.27
2009/04/23 08:55:32.8      18   -157     -7    159    160 173.3  -2.8  34040  287.54 0855.27
2009/04/23 08:55:32.9      42   -127     -5    134    135 161.5  -2.2  34038  287.52 0855.27
2009/04/23 08:55:33.0      16   -102      0    104    105 170.7  -0.3  34038  287.52 0855.27
2009/04/23 08:55:33.1      29    -92     14     97     99 162.2   8.5  34040  287.55 0855.27
2009/04/23 08:55:33.2      40   -111     41    119    127 160.0  19.2  34040  287.54 0855.27
2009/04/23 08:55:33.3       8   -102     35    103    109 175.5  18.9  34038  287.52 0855.27
2009/04/23 08:55:33.4      38    -96     11    104    105 158.1   6.5  34038  287.52 0855.27
2009/04/23 08:55:33.5      56   -108     42    122    130 152.4  19.2  34038  287.52 0855.27
2009/04/23 08:55:33.6      78   -106     30    132    136 143.5  13.1  34038  287.50 0855.27
2009/04/23 08:55:33.7      86   -111     13    141    142 142.2   5.4  34038  287.50 0855.27
2009/04/23 08:55:33.8      82   -102     25    132    135 141.3  11.0  34036  287.49 0855.27
2009/04/23 08:55:33.9      65   -100     44    120    127 147.0  21.0  34036  287.47 0855.27
2009/04/23 08:55:34.0      52    -96     48    110    120 151.5  25.1  34038  287.52 0855.27
2009/04/23 08:55:34.1      70    -80     45    107    116 139.0  24.1  34042  287.59 0855.27
2009/04/23 08:55:34.2      61    -68     59     92    109 137.7  35.6  34040  287.54 0855.29
2009/04/23 08:55:34.3      76    -55     72     95    119 126.0  41.2  34036  287.49 0855.29
2009/04/23 08:55:34.4      30    -73     78     80    111 157.3  50.0  34038  287.52 0855.29
2009/04/23 08:55:34.5      41    -50     80     65    103 140.4  56.4  34038  287.52 0855.29
2009/04/23 08:55:34.6      22    -78     76     82    111 164.4  47.9  34040  287.55 0855.29
2009/04/23 08:55:34.7      -8    -91     74     92    118 185.3  43.7  34040  287.54 0855.29
2009/04/23 08:55:34.8       0    -81     63     82    103 180.0  41.7  34042  287.57 0855.29
2009/04/23 08:55:34.9      21    -78     62     81    102 164.4  41.2  34038  287.52 0855.29
2009/04/23 08:55:35.0      -2   -116     61    117    131 181.4  29.3  34040  287.54 0855.29
2009/04/23 08:55:35.1     -19   -147     42    149    155 187.6  15.8  34034  287.45 0855.29
2009/04/23 08:55:35.2     -31   -152     37    156    161 191.5  13.5  34038  287.50 0855.29
2009/04/23 08:55:35.3     -27   -122     48    125    133 192.5  21.5  34034  287.45 0855.29
2009/04/23 08:55:35.4      33   -147     66    151    164 167.1  25.1  34036  287.47 0855.29
2009/04/23 08:55:35.5      36   -111     95    117    150 161.7  43.7  34038  287.50 0855.29
2009/04/23 08:55:35.6      24   -123     98    126    159 168.9  42.0  34036  287.47 0855.29
2009/04/23 08:55:35.7      37   -165     38    170    175 167.1  12.6  34038  287.52 0855.29
2009/04/23 08:55:35.8      34   -145     67    150    164 166.6  25.7  34034  287.45 0855.29
2009/04/23 08:55:35.9      42   -156    129    162    207 164.8  43.0  34036  287.47 0855.29
2009/04/23 08:55:36.0      17   -182     83    183    200 174.4  25.9  34038  287.52 0855.29
2009/04/23 08:55:36.1     -14   -188     87    189    208 184.4  27.0  34036  287.49 0855.29
2009/04/23 08:55:36.2      -3   -203     70    204    216 181.1  18.9  34034  287.45 0855.29
2009/04/23 08:55:36.3     -10   -181     39    182    187 183.4  12.2  34036  287.47 0855.29
2009/04/23 08:55:36.4     -12   -148     -6    149    150 184.9  -2.6  34040  287.55 0855.29
2009/04/23 08:55:36.5       2   -156     59    157    167 179.0  21.5  34038  287.50 0855.29
2009/04/23 08:55:36.6      21   -125    104    127    164 170.2  43.5  34038  287.50 0855.29
2009/04/23 08:55:36.7       8   -113     98    114    150 175.5  44.8  34036  287.47 0855.29
2009/04/23 08:55:36.8      10   -129     91    130    158 175.5  38.4  34040  287.55 0855.29
2009/04/23 08:55:36.9      11   -142    107    143    178 175.5  40.4  34038  287.52 0855.29
2009/04/23 08:55:37.0       8   -150    103    151    182 176.9  37.6  34038  287.52 0855.29
2009/04/23 08:55:37.1      11   -154    105    155    187 175.6  37.3  34040  287.54 0855.29
2009/04/23 08:55:37.2      37   -184     81    188    204 168.5  24.9  34044  287.60 0855.29
2009/04/23 08:55:37.3      48   -194    114    200    230 166.0  32.1  34040  287.54 0855.29
2009/04/23 08:55:37.4      66   -169    115    182    215 158.6  35.5  34040  287.55 0855.29
2009/04/23 08:55:37.5      72   -193     66    207    218 159.5  17.7  34044  287.60 0855.29
2009/04/23 08:55:37.6     152   -239     77    284    295 147.5  15.2  34048  287.68 0855.29
2009/04/23 08:55:37.7     185   -230     69    296    304 141.3  13.1  34050  287.71 0855.29
2009/04/23 08:55:37.8     175   -240     80    298    309 143.9  15.2  34052  287.73 0855.29
2009/04/23 08:55:37.9     145   -227     42    270    274 147.4   8.9  34048  287.68 0855.29
2009/04/23 08:55:38.0     191   -216    104    289    308 138.5  19.9  34048  287.68 0855.29
2009/04/23 08:55:38.1     205   -193    106    282    301 133.3  21.5  34050  287.71 0855.29
2009/04/23 08:55:38.2     229   -198    108    303    321 130.9  20.2  34050  287.71 0855.29
2009/04/23 08:55:38.3     160   -246    126    294    319 147.0  24.6  34052  287.73 0855.29
2009/04/23 08:55:38.4     164   -227     84    281    294 144.2  16.8  34052  287.75 0855.29
2009/04/23 08:55:38.5     175   -204     66    269    278 139.4  13.9  34050  287.71 0855.29
2009/04/23 08:55:38.6     152   -211     31    261    263 144.2   6.9  34046  287.65 0855.29
2009/04/23 08:55:38.7      88   -191    -27    211    213 155.3  -7.5  34042  287.59 0855.29
2009/04/23 08:55:38.8      77   -196     -8    211    212 158.4  -2.2  34042  287.57 0855.29
2009/04/23 08:55:38.9      62   -180     -7    191    192 160.8  -2.2  34042  287.57 0855.29
2009/04/23 08:55:39.0      49   -186     50    193    200 165.1  14.5  34042  287.59 0855.29
2009/04/23 08:55:39.1     120   -184     18    221    222 146.8   4.9  34046  287.65 0855.29
2009/04/23 08:55:39.2     123   -189     16    226    227 147.0   4.2  34050  287.70 0855.29
2009/04/23 08:55:39.3     108   -194     38    223    227 151.0   9.9  34052  287.76 0855.29
2009/04/23 08:55:39.4     143   -161     59    216    224 138.3  15.3  34050  287.72 0855.29
2009/04/23 08:55:39.5     156   -170     63    232    241 137.5  15.2  34050  287.71 0855.29
2009/04/23 08:55:39.6     137   -194     90    238    254 144.8  22.0  34050  287.71 0855.29
2009/04/23 08:55:39.7     121   -218     89    250    265 151.0  20.2  34050  287.70 0855.29
2009/04/23 08:55:39.8      58   -234     90    242    258 166.0  21.3  34044  287.60 0855.29
2009/04/23 08:55:39.9      53   -245    167    251    301 167.6  36.5  34044  287.61 0855.29
2009/04/23 08:55:40.0      33   -204    134    207    246 170.7  35.7  34046  287.65 0855.29
2009/04/23 08:55:40.1      -3   -145    123    146    190 181.4  44.1  34040  287.54 0855.29
2009/04/23 08:55:40.2     -42   -186     62    191    201 192.9  18.1  34044  287.60 0855.30
2009/04/23 08:55:40.3     -72   -172     18    187    188 202.9   5.7  34046  287.65 0855.30
2009/04/23 08:55:40.4    -107   -194     52    222    229 209.0  13.2  34048  287.67 0855.30
2009/04/23 08:55:40.5    -122   -164     60    205    214 216.7  16.3  34048  287.67 0855.30
2009/04/23 08:55:40.6     -54   -210     75    217    230 194.5  19.2  34044  287.60 0855.30
2009/04/23 08:55:40.7     -47   -195     67    201    213 193.8  18.6  34042  287.59 0855.30
2009/04/23 08:55:40.8     -41   -188     75    193    207 192.3  22.5  34044  287.62 0855.30
2009/04/23 08:55:40.9      -2   -193     91    194    214 180.7  27.1  34050  287.70 0855.30
2009/04/23 08:55:41.0       2   -167     88    168    189 179.1  29.8  34050  287.72 0855.30
2009/04/23 08:55:41.1     -39   -129     76    135    154 196.9  31.4  34050  287.70 0855.30
2009/04/23 08:55:41.2     -70    -81     80    108    134 221.0  40.1  34048  287.67 0855.30
2009/04/23 08:55:41.3    -117    -91     52    149    157 232.3  20.0  34056  287.81 0855.30
2009/04/23 08:55:41.4    -145    -68     17    161    162 244.8   6.1  34056  287.81 0855.30
2009/04/23 08:55:41.5    -162   -102     42    192    197 237.6  12.4  34056  287.82 0855.30
2009/04/23 08:55:41.6    -130   -100     15    165    166 232.3   5.4  34054  287.77 0855.30
2009/04/23 08:55:41.7     -92    -86     53    127    137 226.9  23.6  34052  287.74 0855.30
2009/04/23 08:55:41.8    -100    -44     83    110    137 246.0  41.2  34046  287.64 0855.30
2009/04/23 08:55:41.9     -98     72     87    122    149 306.4  39.5  34050  287.70 0855.30
2009/04/23 08:55:42.0    -125     35    -41    131    138 285.9 -17.6  34050  287.70 0855.30
2009/04/23 08:55:42.1     -56   -152     -6    163    164 200.3  -2.2  34050  287.70 0855.30
2009/04/23 08:55:42.2      10   -184     64    185    196 176.9  19.2  34048  287.69 0855.30
2009/04/23 08:55:42.3    -130    -91     15    159    160 234.9   5.7  34046  287.64 0855.30
2009/04/23 08:55:42.4    -213    -13    -33    214    217 266.5  -8.8  34048  287.67 0855.30
2009/04/23 08:55:42.5    -201    -80      3    217    218 248.2   0.8  34042  287.59 0855.30
2009/04/23 08:55:42.6    -125    -61     48    140    149 243.8  19.2  34046  287.65 0855.30
2009/04/23 08:55:42.7    -172    -46    -23    179    181 255.0  -7.3  34048  287.69 0855.30
2009/04/23 08:55:42.8    -114    -80     18    140    142 234.9   7.5  34048  287.67 0855.30
2009/04/23 08:55:42.9     -53   -124     82    136    158 203.2  34.0  34050  287.72 0855.30
2009/04/23 08:55:43.0    -106    -89     86    139    163 230.0  35.0  34050  287.70 0855.30
2009/04/23 08:55:43.1     -87    -35     18     95     97 247.8  11.0  34050  287.72 0855.30
2009/04/23 08:55:43.2     -97    -64     97    117    151 236.7  43.8  34052  287.74 0855.30
2009/04/23 08:55:43.3     -60    -66    125     90    154 221.9  60.6  34050  287.72 0855.30
2009/04/23 08:55:43.4     -30    -77     79     83    114 201.4  49.0  34050  287.72 0855.30
2009/04/23 08:55:43.5       8   -126     87    127    153 176.4  37.6  34050  287.72 0855.30
2009/04/23 08:55:43.6     -21   -146     67    148    162 188.5  25.9  34050  287.72 0855.30
2009/04/23 08:55:43.7     -64   -119     38    136    142 208.5  15.8  34050  287.72 0855.30
2009/04/23 08:55:43.8     -97   -103     39    142    148 223.3  15.3  34048  287.69 0855.30
2009/04/23 08:55:44.0     -98   -197     30    221    224 206.5   7.8  34048  287.67 0855.30
2009/04/23 08:55:44.1    -119   -183     26    219    221 213.0   6.9  34048  287.67 0855.30
2009/04/23 08:55:44.2    -110   -184     33    215    218 210.8   8.8  34044  287.62 0855.30
2009/04/23 08:55:44.3    -205   -110    -54    233    240 241.8 -13.2  34048  287.66 0855.30
2009/04/23 08:55:44.4    -180   -211     -6    278    279 220.5  -1.3  34050  287.70 0855.30
2009/04/23 08:55:44.5    -135   -216     29    255    257 212.1   6.7  34052  287.73 0855.30
2009/04/23 08:55:44.6    -196   -240    -36    310    313 219.2  -6.7  34050  287.70 0855.30
2009/04/23 08:55:44.7    -191   -237    -84    305    317 218.8 -15.4  34050  287.70 0855.30
2009/04/23 08:55:44.8    -197   -274    -68    338    345 215.7 -11.5  34052  287.74 0855.30
2009/04/23 08:55:44.9    -135   -247    -80    282    293 208.7 -20.7  34052  287.73 0855.30
2009/04/23 08:55:45.0    -139   -243    -47    281    285 209.8  -9.6  34048  287.66 0855.30
2009/04/23 08:55:45.1    -144   -229    -34    271    274 212.3  -7.2  34050  287.70 0855.30
2009/04/23 08:55:45.2    -165   -193    -90    254    270 220.5 -19.7  34054  287.77 0855.30
2009/04/23 08:55:45.3    -109   -194    -77    223    235 209.4 -24.3  34050  287.72 0855.31
2009/04/23 08:55:45.4    -104   -152     45    185    191 214.5  13.9  34060  287.89 0855.31
2009/04/23 08:55:45.5     -43   -152     -1    159    160 196.0  -0.5  34052  287.76 0855.31
2009/04/23 08:55:45.6      12   -174    -13    175    176 176.0  -4.4  34054  287.79 0855.31
2009/04/23 08:55:45.7      -2   -198     -7    199    200 180.7  -2.2  34046  287.64 0855.31
2009/04/23 08:55:45.8      -4   -165     69    166    179 181.6  23.8  34050  287.70 0855.31
2009/04/23 08:55:45.9      13   -163     32    164    168 175.1  11.1  34052  287.74 0855.31
2009/04/23 08:55:46.0     -56   -174     59    183    193 198.0  17.9  34052  287.76 0855.31
2009/04/23 08:55:46.1     -68   -170     65    184    196 201.8  19.4  34050  287.70 0855.31
2009/04/23 08:55:46.2    -106   -163     45    195    201 213.0  13.2  34052  287.76 0855.31
2009/04/23 08:55:46.3     -92   -196     56    217    225 205.3  14.5  34050  287.70 0855.31
2009/04/23 08:55:46.4     -73   -220     47    233    238 198.5  11.4  34052  287.73 0855.31
2009/04/23 08:55:46.5     -82   -198     47    215    221 202.5  12.4  34050  287.72 0855.31
2009/04/23 08:55:46.6     -73   -183     23    198    200 201.9   6.9  34054  287.77 0855.31
2009/04/23 08:55:46.7    -114   -143     29    184    187 218.5   9.0  34056  287.82 0855.31
2009/04/23 08:55:46.8    -140   -111     18    179    180 231.6   5.9  34054  287.77 0855.31
2009/04/23 08:55:46.9    -151    -59    -24    163    165 248.7  -8.6  34064  287.94 0855.31
2009/04/23 08:55:47.0    -151    -94    -38    179    184 238.0 -12.2  34062  287.92 0855.31
2009/04/23 08:55:47.1    -185    -90    -73    206    219 244.0 -19.6  34056  287.82 0855.31
2009/04/23 08:55:47.2    -237   -146    -80    279    291 238.4 -16.0  34054  287.78 0855.31
2009/04/23 08:55:47.3    -204   -162   -106    261    281 231.6 -27.5  34054  287.78 0855.30
2009/04/23 08:55:47.4    -149    -95    -64    177    188 237.4 -24.8  34054  287.79 0855.30
2009/04/23 08:55:47.5    -153    -72   -109    170    201 244.6 -40.0  34062  287.92 0855.30
2009/04/23 08:55:47.6     -80   -152   -111    173    205 207.9 -40.0  34054  287.77 0855.30
2009/04/23 08:55:47.7    -139   -191    -61    237    245 216.1 -14.5  34058  287.85 0855.30
2009/04/23 08:55:47.8    -143   -208    -46    253    258 214.5 -10.3  34056  287.80 0855.30
2009/04/23 08:55:47.9    -140   -228    -36    268    271 211.6  -7.7  34052  287.75 0855.30
2009/04/23 08:55:48.0    -185   -186    -10    263    264 224.8  -2.2  34050  287.71 0855.30
2009/04/23 08:55:48.1    -214   -158    -26    267    269 233.6  -5.6  34056  287.82 0855.30
2009/04/23 08:55:48.2    -217   -127    -26    252    254 239.6  -6.0  34054  287.77 0855.30
2009/04/23 08:55:48.3    -172   -161     27    236    238 226.9   6.7  34052  287.73 0855.30
2009/04/23 08:55:48.4    -167   -114   -130    203    241 235.8 -40.0  34052  287.76 0855.30
2009/04/23 08:55:48.5    -190   -115   -124    223    255 238.9 -35.8  34058  287.83 0855.30
2009/04/23 08:55:48.6    -217    -22   -177    219    281 264.1 -47.4  34060  287.88 0855.30
2009/04/23 08:55:48.7    -204    -22   -223    206    303 263.8 -56.6  34058  287.83 0855.30
2009/04/23 08:55:48.8    -201     16   -227    202    303 274.6 -58.6  34056  287.82 0855.30
2009/04/23 08:55:48.9    -117     32   -147    122    191 285.5 -60.7  34056  287.82 0855.30
2009/04/23 08:55:49.0     -46    -73    -64     87    108 212.5 -44.5  34060  287.89 0855.30
2009/04/23 08:55:49.1     -39   -272    -92    275    289 188.2 -23.6  34058  287.85 0855.30
2009/04/23 08:55:49.2     -17   -268   -104    269    288 183.6 -26.5  34048  287.68 0855.30
2009/04/23 08:55:49.3    -120   -175     40    213    217 214.5  10.8  34050  287.70 0855.30
2009/04/23 08:55:49.4     -68   -191      0    203    204 199.6  -0.3  34052  287.76 0855.30
2009/04/23 08:55:49.5     -98   -130      1    163    164 217.0   0.5  34052  287.74 0855.30
2009/04/23 08:55:49.6    -105   -114    -35    156    161 222.8 -12.9  34050  287.70 0855.30
2009/04/23 08:55:49.7    -153   -121    -56    196    203 231.6 -21.0  34052  287.76 0855.30
2009/04/23 08:55:49.8    -164    -61    -76    176    191 249.6 -29.3  34056  287.82 0855.30
2009/04/23 08:55:49.9    -205    -15   -129    206    243 265.6 -39.6  34064  287.96 0855.30
2009/04/23 08:55:50.0    -182    -56   -107    191    218 252.9 -35.8  34062  287.92 0855.30
2009/04/23 08:55:50.1    -188    -32   -138    191    235 260.3 -44.1  34064  287.94 0855.30
2009/04/23 08:55:50.2    -242     21   -158    243    289 275.0 -40.4  34064  287.93 0855.30
2009/04/23 08:55:50.3    -248     34   -244    251    350 277.9 -53.7  34066  287.97 0855.30
2009/04/23 08:55:50.4    -372     46   -290    375    474 277.1 -46.0  34064  287.95 0855.30
2009/04/23 08:55:50.5    -362    -92   -143    374    400 255.7 -26.2  34058  287.84 0855.30
2009/04/23 08:55:50.6    -294   -144   -104    328    344 243.8 -22.8  34058  287.84 0855.30
2009/04/23 08:55:50.7    -236   -189    -98    303    319 231.4 -18.1  34058  287.83 0855.30
2009/04/23 08:55:50.8    -205   -193    -95    282    297 226.8 -23.3  34060  287.88 0855.30
2009/04/23 08:55:50.9    -159   -169   -109    233    257 223.3 -31.4  34058  287.85 0855.30
2009/04/23 08:55:51.0    -240   -170   -101    295    311 234.7 -23.3  34056  287.80 0855.30
2009/04/23 08:55:51.1    -248   -143   -109    287    307 240.0 -26.4  34064  287.93 0855.30
2009/04/23 08:55:51.2    -134   -110    -73    174    188 230.7 -28.2  34060  287.87 0855.30
2009/04/23 08:55:51.3    -100   -146    -83    178    196 214.5 -31.0  34060  287.89 0855.30
2009/04/23 08:55:51.4    -102   -213    -99    237    256 205.6 -28.5  34056  287.80 0855.30
2009/04/23 08:55:51.5     -78   -180    -62    197    206 203.6 -22.5  34054  287.77 0855.30
2009/04/23 08:55:51.6     -77   -132    -19    154    156 210.3  -7.3  34054  287.77 0855.30
2009/04/23 08:55:51.7     -67   -131    -53    148    158 207.2 -19.7  34056  287.82 0855.30
2009/04/23 08:55:51.8     -50   -127     16    137    139 201.8   6.9  34056  287.82 0855.30
2009/04/23 08:55:51.9     -27   -127    -18    130    132 192.0  -8.2  34056  287.82 0855.30
2009/04/23 08:55:52.0     -87    -98    -29    132    136 221.4 -12.4  34054  287.77 0855.30
2009/04/23 08:55:52.1    -104    -94    -28    141    144 227.8 -11.3  34056  287.82 0855.30
2009/04/23 08:55:52.2    -107    -94    -42    143    149 228.6 -21.2  34062  287.91 0855.30
2009/04/23 08:55:52.3    -111    -82    -69    139    155 233.6 -32.6  34062  287.92 0855.30
2009/04/23 08:55:52.4     -21    -81    -52     84     98 195.1 -39.4  34060  287.87 0855.30
2009/04/23 08:55:52.5     -21    -63    -36     67     76 198.3 -35.7  34056  287.81 0855.30
2009/04/23 08:55:52.6     -76    -61    -73     98    122 231.4 -45.1  34056  287.82 0855.30
2009/04/23 08:55:52.7    -132    -36    -93    137    165 254.5 -41.7  34062  287.91 0855.30
2009/04/23 08:55:52.8    -118    -35   -127    124    177 253.2 -55.3  34060  287.87 0855.30
2009/04/23 08:55:52.9    -131    -43   -132    138    190 251.8 -53.1  34062  287.91 0855.30
2009/04/23 08:55:53.0    -134    -72    -75    153    170 241.6 -32.4  34060  287.87 0855.30
2009/04/23 08:55:53.1    -123    -51    -79    134    155 247.4 -37.9  34066  287.98 0855.30
2009/04/23 08:55:53.2    -132    -72   -117    151    191 241.1 -46.4  34064  287.94 0855.30
2009/04/23 08:55:53.3    -136    -82   -108    159    192 238.9 -41.4  34060  287.87 0855.29
2009/04/23 08:55:53.4     -60    -51    -94     79    122 229.6 -60.2  34060  287.89 0855.29
2009/04/23 08:55:53.5     -16    -47    -79     50     93 198.7 -69.1  34058  287.86 0855.29
2009/04/23 08:55:53.6     -25    -53   -106     59    121 205.3 -73.2  34058  287.86 0855.29
2009/04/23 08:55:53.7     -48    -48    -75     69    101 225.1 -56.6  34058  287.84 0855.29
2009/04/23 08:55:53.8     -64    -79    -95    102    139 219.2 -52.3  34060  287.87 0855.29
2009/04/23 08:55:53.9    -126    -86   -101    153    183 235.8 -40.7  34058  287.84 0855.29
2009/04/23 08:55:54.0    -138   -104    -85    174    193 232.9 -32.2  34060  287.89 0855.29
2009/04/23 08:55:54.1    -163    -81    -84    183    201 243.6 -30.6  34062  287.92 0855.29
2009/04/23 08:55:54.2    -167    -90    -90    190    210 241.6 -31.6  34064  287.94 0855.29
2009/04/23 08:55:54.3    -118   -119    -70    168    182 224.8 -28.2  34060  287.89 0855.29
2009/04/23 08:55:54.4     -70   -147    -57    163    172 205.5 -24.0  34062  287.91 0855.29
2009/04/23 08:55:54.5     -43   -141    -33    148    152 196.9 -12.9  34056  287.82 0855.29
2009/04/23 08:55:54.6    -132   -109      0    172    173 230.5   0.0  34056  287.82 0855.29
2009/04/23 08:55:54.7     -85   -124    -13    151    152 214.3  -5.2  34060  287.89 0855.29
2009/04/23 08:55:54.8     -19   -163      9    165    166 186.7   3.1  34062  287.91 0855.29
2009/04/23 08:55:54.9       4   -183     50    184    191 178.6  15.2  34060  287.87 0855.29
2009/04/23 08:55:55.0      72   -154     24    171    173 154.8   8.2  34060  287.89 0855.29
2009/04/23 08:55:55.1      30   -148     50    151    160 168.5  18.6  34060  287.89 0855.29
2009/04/23 08:55:55.2      39   -117     33    124    129 161.3  15.2  34060  287.89 0855.29
2009/04/23 08:55:55.3      31   -112     44    117    125 164.4  21.0  34058  287.84 0855.29
2009/04/23 08:55:55.4       5   -108     22    109    112 177.3  11.6  34060  287.89 0855.29
2009/04/23 08:55:55.5      29    -74     29     80     85 158.2  20.0  34058  287.86 0855.29
2009/04/23 08:55:55.6      26    -83     71     87    112 162.6  43.7  34060  287.89 0855.29
2009/04/23 08:55:55.7      83    -65     67    106    125 128.2  35.5  34064  287.94 0855.29
2009/04/23 08:55:55.8      41    -56     12     70     72 143.9  10.1  34060  287.89 0855.29
2009/04/23 08:55:55.9     -31   -108     51    113    123 196.0  26.2  34058  287.86 0855.29
2009/04/23 08:55:56.0     -49    -60     59     78     97 219.6  41.2  34064  287.94 0855.29
2009/04/23 08:55:56.1     -41    -56     78     70    104 216.1  53.3  34060  287.87 0855.29
2009/04/23 08:55:56.2     -54    -55    100     78    126 224.2  58.4  34062  287.92 0855.29
2009/04/23 08:55:56.3     -51    -42    120     67    137 230.5  68.8  34064  287.94 0855.29
2009/04/23 08:55:56.4    -119    -75     45    141    149 237.6  17.9  34056  287.81 0855.29
2009/04/23 08:55:56.5    -100    -56      5    115    116 240.7   2.8  34054  287.77 0855.29
2009/04/23 08:55:56.6     -92    -82    -12    124    125 228.2  -5.6  34056  287.81 0855.29
2009/04/23 08:55:56.7     -53   -134    -11    145    146 201.8  -4.6  34062  287.91 0855.29
2009/04/23 08:55:56.8     -63   -134    -19    149    151 205.3  -7.3  34062  287.91 0855.29
2009/04/23 08:55:56.9     -33   -129    -34    134    139 194.3 -14.5  34064  287.94 0855.29
2009/04/23 08:55:57.0     -16   -148    -24    149    152 186.3  -9.3  34066  287.99 0855.29
2009/04/23 08:55:57.1     -33   -147    -60    151    162 192.9 -26.9  34068  288.01 0855.29
2009/04/23 08:55:57.2     -70   -175     -7    189    190 201.9  -2.2  34066  287.99 0855.29
2009/04/23 08:55:57.3     -44   -160     29    167    170 195.4   9.9  34064  287.96 0855.28
2009/04/23 08:55:57.4     -15   -171     33    172    176 185.1  10.8  34064  287.94 0855.28
2009/04/23 08:55:57.5      -9   -210     48    211    217 182.7  12.9  34064  287.94 0855.28
2009/04/23 08:55:57.6     -51   -187     41    195    200 195.4  12.0  34062  287.91 0855.28
2009/04/23 08:55:57.7     -31   -221    -16    224    225 188.0  -4.1  34068  288.01 0855.28
2009/04/23 08:55:57.8      10   -226    -27    227    229 177.3  -6.9  34066  287.99 0855.28
2009/04/23 08:55:57.9     -37   -180      9    184    185 191.8   2.8  34064  287.96 0855.28
2009/04/23 08:55:58.0     -58   -162     60    173    184 199.8  19.2  34064  287.94 0855.28
2009/04/23 08:55:58.1     -26   -197     29    199    202 187.6   8.5  34062  287.92 0855.28
2009/04/23 08:55:58.2     -18   -156     55    158    168 186.9  19.2  34064  287.96 0855.28
2009/04/23 08:55:58.3     -21   -150     88    152    175 188.1  32.7  34066  287.98 0855.28
2009/04/23 08:55:58.4     -19   -123    118    125    171 188.9  48.5  34064  287.96 0855.28
2009/04/23 08:55:58.5     -47    -97    123    108    163 205.9  54.0  34064  287.94 0855.28
2009/04/23 08:55:58.6     -45    -69    141     83    163 213.4  66.8  34066  287.98 0855.28
2009/04/23 08:55:58.7     -31    -41    132     52    141 217.8  77.1  34068  288.03 0855.28
2009/04/23 08:55:58.8     -52    -55    126     76    147 223.2  65.7  34068  288.03 0855.28
2009/04/23 08:55:58.9     -76    -88    158    117    196 221.0  59.8  34066  287.99 0855.28
2009/04/23 08:55:59.0     -28    -89    128     94    158 197.8  60.0  34062  287.92 0855.28
2009/04/23 08:55:59.1      10    -82    147     83    168 172.4  68.1  34062  287.91 0855.28
2009/04/23 08:55:59.2     -12   -104    134    105    170 187.1  57.9  34060  287.89 0855.28
2009/04/23 08:55:59.3       2   -111    132    112    173 178.6  55.4  34062  287.91 0855.28
2009/04/23 08:55:59.4     -24   -121    110    124    165 191.6  46.4  34066  287.98 0855.28
2009/04/23 08:55:59.5      52    -78     91     95    131 146.2  49.0  34068  288.01 0855.28
2009/04/23 08:55:59.6      37   -153     36    158    163 166.2  12.9  34068  288.03 0855.28
2009/04/23 08:55:59.7      62   -138     88    152    175 155.9  32.7  34068  288.03 0855.28
2009/04/23 08:55:59.8      83   -129    102    154    184 147.0  36.5  34070  288.06 0855.28
2009/04/23 08:55:59.9     100   -148     65    179    190 145.9  20.4  34080  288.21 0855.28
2009/04/23 08:56:00.0      87   -137     57    163    173 147.4  19.4  34068  288.03 0855.28
2009/04/23 08:56:00.1      87   -107     55    139    149 140.8  23.0  34068  288.03 0855.28
2009/04/23 08:56:00.2      51    -88     42    103    111 149.7  23.1  34068  288.03 0855.28
2009/04/23 08:56:00.3      25    -30     67     40     78 140.4  65.7  34068  288.03 0855.28
2009/04/23 08:56:00.4       5      4     66      7     66  50.5  90.0  34072  288.09 0855.28
2009/04/23 08:56:00.5      19    -11     53     23     57 120.7  75.0  34074  288.11 0855.28
2009/04/23 08:56:00.6      17    -39     51     43     66 156.4  55.4  34072  288.08 0855.28
2009/04/23 08:56:00.7      29    -28     63     41     75 134.9  64.6  34072  288.08 0855.28
2009/04/23 08:56:00.8      40    -64     60     76     96 147.5  42.7  34072  288.08 0855.28
2009/04/23 08:56:00.9      12    -95     47     96    106 172.4  27.8  34072  288.08 0855.28
2009/04/23 08:56:01.0      -4    -56     44     57     72 184.5  42.7  34068  288.01 0855.28
2009/04/23 08:56:01.1      24    -25     59     35     68 136.6  65.7  34070  288.06 0855.28
2009/04/23 08:56:01.2     123     51     49    134    142  67.4  20.9  34100  288.55 0855.28
2009/04/23 08:56:01.3      72    -31     67     79    103 113.5  44.8  34094  288.47 0855.27
2009/04/23 08:56:01.4     103    -16     31    105    110  98.8  16.8  34098  288.52 0855.27
2009/04/23 08:56:01.5     119    -30     67    123    140 104.2  31.3  34100  288.55 0855.27
2009/04/23 08:56:01.6     143    -16     28    144    147  96.6  11.1  34096  288.48 0855.27
2009/04/23 08:56:01.7     102    -26     58    106    120 104.6  31.3  34104  288.64 0855.27
2009/04/23 08:56:01.8      92    -43     85    102    132 115.2  43.8  34078  288.20 0855.27
2009/04/23 08:56:01.9      58     -4     74     59     94  94.3  57.5  34088  288.36 0855.27
2009/04/23 08:56:02.0      42     25     87     49     99  59.3  68.3  34096  288.50 0855.27
2009/04/23 08:56:02.1      87     37     30     95    100  66.5  17.9  34108  288.69 0855.27
2009/04/23 08:56:02.2      63     62     36     89     96  45.4  23.0  34118  288.87 0855.27
2009/04/23 08:56:02.3      72     48     22     87     90  56.3  14.3  34104  288.62 0855.28
2009/04/23 08:56:02.4      57     37     24     69     74  56.7  19.2  34100  288.57 0855.28
2009/04/23 08:56:02.5      39     31      4     51     52  51.4   4.9  34100  288.57 0855.28
2009/04/23 08:56:02.6      37      1     11     38     40  87.4  17.3  34096  288.50 0855.28
2009/04/23 08:56:02.7      42     14     18     45     48  71.8  21.0  34102  288.58 0855.28
2009/04/23 08:56:02.8      45     17     -1     49     50  69.2  -2.2  34104  288.62 0855.28
2009/04/23 08:56:02.9      70     33    -23     78     82  64.6 -17.0  34108  288.70 0855.28
2009/04/23 08:56:03.0      81     37    -11     90     91  65.6  -7.3  34108  288.70 0855.28
2009/04/23 08:56:03.1     118     47     -5    128    129  68.3  -2.2  34110  288.72 0855.28
2009/04/23 08:56:03.2     138     70     23    155    157  62.9   8.5  34116  288.82 0855.28
2009/04/23 08:56:03.3     102    123     48    160    168  39.6  16.8  34100  288.55 0855.28
2009/04/23 08:56:03.4      97     97     60    138    150  45.1  25.1  34104  288.64 0855.28
2009/04/23 08:56:03.5     119     80     61    144    156  55.8  24.1  34114  288.80 0855.28
2009/04/23 08:56:03.6     135     97     51    167    175  54.3  17.1  34114  288.80 0855.28
2009/04/23 08:56:03.7     112    112     42    159    165  45.1  15.0  34134  289.14 0855.28
2009/04/23 08:56:03.8     127    135     49    186    193  43.4  15.0  34166  289.67 0855.28
2009/04/23 08:56:03.9      73    147     -9    165    166  26.3  -3.3  34146  289.35 0855.28
2009/04/23 08:56:04.0      82    149    -29    171    174  29.0  -9.6  34138  289.21 0855.28
2009/04/23 08:56:04.1      81    134    -45    157    163  31.2 -21.0  34136  289.16 0855.28
2009/04/23 08:56:04.2       3    116    -29    117    121   1.8 -13.9  34134  289.13 0855.28
2009/04/23 08:56:04.3      21    107    -23    110    113  11.5 -11.9  34116  288.82 0855.28
2009/04/23 08:56:04.4      26    130     -6    133    134  11.6  -2.6  34118  288.86 0855.28
2009/04/23 08:56:04.5      15    141     -7    142    143   6.3  -3.1  34118  288.86 0855.28
2009/04/23 08:56:04.6      50    126     24    136    139  21.8  10.1  34128  289.04 0855.28
2009/04/23 08:56:04.7      65    118     15    135    136  29.0   6.5  34146  289.35 0855.28
2009/04/23 08:56:04.8      25    145    -16    148    149   9.8  -6.2  34156  289.50 0855.28
2009/04/23 08:56:04.9     -16    142     12    143    144 353.3   4.9  34138  289.21 0855.28
2009/04/23 08:56:05.0     -12    165     21    166    168 355.5   7.5  34144  289.31 0855.28
2009/04/23 08:56:05.1       6    198     16    199    200   2.0   4.9  34150  289.41 0855.28
2009/04/23 08:56:05.2     -18    239      0    240    241 355.6   0.2  34150  289.41 0855.28
2009/04/23 08:56:05.3     -71    167    -23    182    184 336.8  -7.3  34178  289.89 0855.28
2009/04/23 08:56:05.4    -127    136    -61    187    197 317.0 -18.3  34174  289.80 0855.28
2009/04/23 08:56:05.5     -97    124    -67    158    171 322.1 -28.7  34166  289.67 0855.28
2009/04/23 08:56:05.6     -44    167    -64    173    184 345.1 -25.4  34176  289.85 0855.28
2009/04/23 08:56:05.7     -22    157    -64    159    171 352.0 -27.4  34198  290.21 0855.28
2009/04/23 08:56:05.8     -35    116    -35    122    127 343.1 -16.0  34206  290.36 0855.28
2009/04/23 08:56:05.9       5    111    -52    112    123   2.7 -31.0  34204  290.31 0855.28
2009/04/23 08:56:06.0      56     64     43     86     96  41.4  28.2  34210  290.41 0855.28
2009/04/23 08:56:06.1      29     24     79     38     87  50.5  72.9  34166  289.69 0855.28
2009/04/23 08:56:06.2      69     73     96    101    139  43.2  48.5  34112  288.75 0855.28
2009/04/23 08:56:06.3      53     22     74     58     94  67.4  57.9  34120  288.89 0855.29
2009/04/23 08:56:06.4      32     50     84     60    103  32.6  61.1  34116  288.84 0855.29
2009/04/23 08:56:06.5       8    -21     37     23     43 158.2  64.7  34114  288.80 0855.29
2009/04/23 08:56:06.6     121    -45    -16    130    132 110.4  -7.3  34114  288.79 0855.29
2009/04/23 08:56:06.7     119    -57     -4    133    134 115.8  -1.8  34122  288.94 0855.29
2009/04/23 08:56:06.8       9   -127     67    128    144 175.6  29.8  34176  289.85 0855.29
2009/04/23 08:56:06.9       2   -146     83    147    168 179.1  32.1  34182  289.96 0855.29
2009/04/23 08:56:07.0       9   -118     63    119    134 175.6  30.3  34182  289.94 0855.29
2009/04/23 08:56:07.1      13   -111     54    112    124 173.3  27.8  34184  289.99 0855.29
2009/04/23 08:56:07.2      46    -63     51     79     94 144.0  35.6  34194  290.16 0855.29
2009/04/23 08:56:07.3      72    -72     35    103    109 135.0  18.9  34196  290.18 0855.29
2009/04/23 08:56:07.4     116    -32      4    121    122 105.5   2.3  34182  289.94 0855.29
2009/04/23 08:56:07.5     171     19     -6    173    174  83.6  -2.2  34104  288.62 0855.29
2009/04/23 08:56:07.6     121     24     42    124    132  78.6  18.9  34084  288.30 0855.29
2009/04/23 08:56:07.7      81     78     56    113    126  46.0  28.2  34122  288.92 0855.29
2009/04/23 08:56:07.8     178     98    100    204    227  61.2  27.8  34128  289.04 0855.29
2009/04/23 08:56:07.9     214     57     76    222    235  75.0  18.9  34124  288.96 0855.29
2009/04/23 08:56:08.0     151    116    118    191    224  52.5  35.0  34148  289.36 0855.29
2009/04/23 08:56:08.1     142    124    164    189    250  48.9  45.4  34110  288.72 0855.29
2009/04/23 08:56:08.2     148     86    111    172    204  59.8  35.6  34092  288.42 0855.29
2009/04/23 08:56:08.3     108     84    114    137    178  52.2  44.1  34090  288.40 0855.29
2009/04/23 08:56:08.4     147     68     96    163    189  65.2  33.1  34088  288.35 0855.29
2009/04/23 08:56:08.5     130    126     91    182    203  45.8  28.7  34084  288.28 0855.29
2009/04/23 08:56:08.6     188    107     76    217    231  60.2  19.4  34068  288.01 0855.29
2009/04/23 08:56:08.7     139    118     98    183    207  49.6  30.6  34062  287.92 0855.29
2009/04/23 08:56:08.8     137    137     82    194    210  45.0  24.3  34058  287.86 0855.29
2009/04/23 08:56:08.9     125    136     85    185    203  42.5  26.4  34116  288.82 0855.29
2009/04/23 08:56:09.0     113     82     54    140    150  54.0  22.0  34084  288.28 0855.29
2009/04/23 08:56:09.1     122    159     82    201    217  37.6  23.1  34134  289.14 0855.29
2009/04/23 08:56:09.2     106    174     70    205    217  31.4  18.9  34128  289.02 0855.29
2009/04/23 08:56:09.3     -12    196     87    197    215 356.4  25.3  34196  290.18 0855.29
2009/04/23 08:56:09.4      85    186     31    205    208  24.7   8.8  34114  288.79 0855.29
2009/04/23 08:56:09.5      37    177    -23    182    184  12.0  -7.2  34112  288.75 0855.29
2009/04/23 08:56:09.6     -11    131     56    132    143 355.1  24.1  34110  288.72 0855.29
2009/04/23 08:56:09.7      -2    156     90    157    180 359.0  32.1  34098  288.53 0855.29
2009/04/23 08:56:09.8     -16    151     64    152    164 353.8  24.1  34110  288.72 0855.29
2009/04/23 08:56:09.9       7     72     37     73     81   6.2  28.7  34116  288.82 0855.29
2009/04/23 08:56:10.0      -5      0     96      6     96 274.4  90.0  34122  288.92 0855.29
2009/04/23 08:56:10.1       8     26     62     28     68  18.7  74.0  34116  288.84 0855.29
2009/04/23 08:56:10.2     -19     12     58     23     62 302.4  77.1  34116  288.82 0855.29
2009/04/23 08:56:10.3     -19     19     66     27     71 314.9  77.1  34124  288.96 0855.29
2009/04/23 08:56:10.4      -6     21     57     23     61 343.1  77.1  34128  289.02 0855.29
2009/04/23 08:56:10.6      -1     69     52     70     87 359.1  40.7  34124  288.97 0855.29
2009/04/23 08:56:10.7      27     96     14    100    102  16.0   8.0  34082  288.25 0855.29
2009/04/23 08:56:10.8       7     69     -3     70     71   6.2  -3.1  34086  288.31 0855.29
2009/04/23 08:56:10.9       5     76     -1     77     78   4.4  -1.2  34092  288.43 0855.29
2009/04/23 08:56:11.0       8     47      6     48     49   9.8   8.0  34090  288.38 0855.29
2009/04/23 08:56:11.1      -4     66      5     67     68 356.4   4.9  34096  288.48 0855.29
2009/04/23 08:56:11.2     -18     56     11     60     62 341.7  11.1  34114  288.80 0855.29
2009/04/23 08:56:11.3     -20     47     10     52     54 336.4  11.1  34132  289.11 0855.29
2009/04/23 08:56:11.4      -3     31     15     32     35 353.8  27.2  34138  289.21 0855.29
2009/04/23 08:56:11.5      -8     13     24     16     28 327.5  64.6  34142  289.26 0855.29
2009/04/23 08:56:11.6       6     -6     34      9     35 136.6  86.9  34134  289.14 0855.29
2009/04/23 08:56:11.7      -3    -41     52     42     66 184.5  56.4  34106  288.65 0855.29
2009/04/23 08:56:11.8     -51    -58     96     78    123 221.4  56.4  34098  288.53 0855.29
2009/04/23 08:56:11.9     -38    -74     83     84    118 207.6  50.0  34082  288.26 0855.29
2009/04/23 08:56:12.0     -16    -83     90     85    123 191.1  51.6  34068  288.03 0855.29
2009/04/23 08:56:12.1     -13    -81     82     83    116 189.3  50.5  34066  287.99 0855.29
2009/04/23 08:56:12.2     -13    -96     67     97    117 188.0  38.0  34068  288.01 0855.29
2009/04/23 08:56:12.3     -21   -121     59    123    136 190.2  27.3  34080  288.21 0855.29
2009/04/23 08:56:12.4      -6   -142     50    143    152 182.6  19.4  34078  288.20 0855.29
2009/04/23 08:56:12.5     -50   -149    131    158    205 198.7  43.8  34080  288.23 0855.29
2009/04/23 08:56:12.6     -41   -152     73    158    174 195.2  26.6  34084  288.28 0855.29
2009/04/23 08:56:12.7     -41   -152     68    158    172 195.2  24.9  34116  288.84 0855.29
2009/04/23 08:56:12.8     -36   -176    -32    180    183 191.8 -10.3  34110  288.72 0855.29
2009/04/23 08:56:12.9      15   -153    105    154    186 174.2  37.8  34064  287.96 0855.29
2009/04/23 08:56:13.0     -46   -100    144    111    181 204.9  58.5  34068  288.03 0855.29
2009/04/23 08:56:13.1     -77   -125     71    147    163 211.6  27.8  34076  288.16 0855.29
2009/04/23 08:56:13.2     -63   -133     31    148    152 205.5  12.0  34098  288.52 0855.29
2009/04/23 08:56:13.3     -49   -106     88    117    146 204.9  40.7  34066  287.98 0855.29
2009/04/23 08:56:13.4     -35    -89     92     96    132 201.8  49.4  34068  288.01 0855.29
2009/04/23 08:56:13.5     -48    -50     46     70     83 224.2  36.0  34068  288.03 0855.29
2009/04/23 08:56:13.6       7     -2     52      8     52 108.4  90.0  34070  288.04 0855.29
2009/04/23 08:56:13.7      21    -15     42     27     49 126.0  64.7  34072  288.09 0855.29
2009/04/23 08:56:13.8       9    -27     51     29     58 161.7  66.8  34072  288.08 0855.29
2009/04/23 08:56:13.9       7    -68     47     69     83 173.8  37.6  34068  288.01 0855.29
2009/04/23 08:56:14.0      11   -109     58    110    124 173.8  30.3  34072  288.08 0855.29
2009/04/23 08:56:14.1      -7   -129     60    130    143 183.1  26.6  34068  288.01 0855.29
2009/04/23 08:56:14.2     -37   -216     86    220    236 189.8  22.5  34086  288.31 0855.29
2009/04/23 08:56:14.3      24   -195     78    197    211 172.9  22.8  34074  288.13 0855.29
2009/04/23 08:56:14.4     -28   -198    107    201    227 188.1  30.6  34078  288.20 0855.29
2009/04/23 08:56:14.5     -62   -183     54    194    202 198.7  15.6  34082  288.26 0855.29
2009/04/23 08:56:14.6     -14   -169     -6    170    171 184.9  -2.2  34084  288.30 0855.29
2009/04/23 08:56:14.7     -32   -180     25    183    185 190.2   7.8  34076  288.16 0855.29
2009/04/23 08:56:14.8     -67   -142     71    158    173 205.3  25.7  34072  288.08 0855.29
2009/04/23 08:56:14.9      -6   -139     16    140    142 182.7   6.9  34074  288.13 0855.29
2009/04/23 08:56:15.0      47    -60     45     77     89 142.2  33.5  34074  288.13 0855.29
2009/04/23 08:56:15.1      66   -119      1    137    138 151.0   0.8  34076  288.16 0855.29
2009/04/23 08:56:15.2     112    -43     49    121    130 111.3  23.1  34078  288.18 0855.29
2009/04/23 08:56:15.3      83    -20     81     86    118 103.7  48.0  34078  288.18 0855.29
2009/04/23 08:56:15.4      37     -2    105     38    111  94.4  80.2  34078  288.20 0855.29
2009/04/23 08:56:15.5      37    -12     56     39     68 108.2  61.5  34086  288.33 0855.29
2009/04/23 08:56:15.6      46     10     59     48     76  77.6  56.4  34128  289.04 0855.29
2009/04/23 08:56:15.7     100     23     79    103    129  76.7  41.7  34156  289.52 0855.29
2009/04/23 08:56:15.8     101     18     26    103    107  79.9  14.3  34144  289.30 0855.29
2009/04/23 08:56:15.9     171    -35    148    175    229 101.7  44.1  34152  289.45 0855.29
2009/04/23 08:56:16.0     161    -11    182    162    243  93.9  54.0  34136  289.16 0855.29
2009/04/23 08:56:16.1     142    -28    160    145    215 101.5  53.3  34120  288.89 0855.29
2009/04/23 08:56:16.2     135    -51    132    145    196 110.8  47.1  34096  288.48 0855.29
2009/04/23 08:56:16.3     103     -7    131    104    167  93.9  57.5  34152  289.43 0855.29
2009/04/23 08:56:16.4     106     26    157    110    191  76.3  61.5  34164  289.63 0855.29
2009/04/23 08:56:16.5     163     54    121    172    210  71.6  38.6  34100  288.57 0855.29
2009/04/23 08:56:16.6     178     41     90    183    203  77.0  28.2  34094  288.47 0855.29
2009/04/23 08:56:16.7     185     37     72    189    202  78.5  21.7  34088  288.36 0855.29
2009/04/23 08:56:16.8     156     23     85    158    179  81.6  30.8  34160  289.58 0855.29
2009/04/23 08:56:16.9     152     68     67    167    179  65.8  23.0  34146  289.35 0855.29
2009/04/23 08:56:17.0     185     20    100    187    212  83.6  30.6  34116  288.84 0855.29
2009/04/23 08:56:17.1     208     42     84    213    228  78.5  22.8  34094  288.47 0855.29
2009/04/23 08:56:17.2     196      5    105    197    223  88.3  30.6  34088  288.36 0855.29
2009/04/23 08:56:17.3     174    -25    152    176    232  98.4  45.4  34128  289.04 0855.29
2009/04/23 08:56:17.4     157      0    165    158    228  90.0  51.4  34116  288.82 0855.29
2009/04/23 08:56:17.5     110    -89     50    142    151 129.1  19.4  34082  288.25 0855.29
2009/04/23 08:56:17.6      78     13    117     80    141  80.3  62.6  34102  288.58 0855.29
2009/04/23 08:56:17.7      77     -5     82     78    113  94.4  51.2  34090  288.40 0855.29
2009/04/23 08:56:17.8     107    -78     57    133    144 126.0  24.6  34088  288.35 0855.29
2009/04/23 08:56:17.9      93    -47     51    105    116 117.1  27.3  34082  288.26 0855.29
2009/04/23 08:56:18.0      94    -36     14    101    103 111.3   8.0  34080  288.21 0855.29
2009/04/23 08:56:18.1     107      8    107    108    152  85.6  50.0  34078  288.20 0855.29
2009/04/23 08:56:18.2      90     16    100     92    135  79.4  52.2  34090  288.38 0855.29
2009/04/23 08:56:18.3      93     23     84     96    127  75.8  45.8  34096  288.48 0855.29
2009/04/23 08:56:18.4      56     11     69     58     90  78.5  56.3  34106  288.67 0855.29
2009/04/23 08:56:18.5      79     18     50     82     96  76.7  35.0  34088  288.35 0855.29
2009/04/23 08:56:18.6      66     18     65     69     94  74.9  49.0  34088  288.35 0855.29
2009/04/23 08:56:18.7     136    -27     57    139    150 101.4  23.1  34068  288.03 0855.29
2009/04/23 08:56:18.8      97      9     43     98    107  84.3  24.6  34068  288.03 0855.29
2009/04/23 08:56:18.9      79    -30     61     85    104 111.3  39.5  34066  287.99 0855.29
2009/04/23 08:56:19.0      70    -33     51     78     93 115.2  36.0  34066  287.98 0855.29
2009/04/23 08:56:19.1      64    -27     46     70     83 113.5  36.0  34066  287.98 0855.29
2009/04/23 08:56:19.2      67    -44     32     81     87 123.3  22.0  34066  287.98 0855.29
2009/04/23 08:56:19.3      31    -82     45     88     98 159.1  28.7  34066  287.99 0855.29
2009/04/23 08:56:19.4      -2   -185    111    186    216 180.7  33.5  34066  287.98 0855.29
2009/04/23 08:56:19.5     -53   -263     99    269    286 191.6  21.0  34066  287.99 0855.29
2009/04/23 08:56:19.6     -36   -270    107    273    293 187.6  23.0  34066  287.97 0855.29
2009/04/23 08:56:19.7     -29   -300    113    302    322 185.6  21.4  34066  287.99 0855.29
2009/04/23 08:56:19.8     -15   -324    127    325    348 182.7  22.5  34068  288.00 0855.29
2009/04/23 08:56:19.9     -64   -336     89    343    355 190.8  14.7  34064  287.93 0855.29
2009/04/23 08:56:20.0     -70   -308    105    316    333 192.9  18.4  34066  287.97 0855.29
2009/04/23 08:56:20.1     -59   -325     43    331    334 190.3   7.4  34066  287.98 0855.29
2009/04/23 08:56:20.2     -86   -359    153    370    400 193.5  23.9  34064  287.94 0855.29
2009/04/23 08:56:20.3     -85   -296    153    309    344 196.0  28.1  34064  287.94 0855.29
2009/04/23 08:56:20.4     -32   -333    151    335    367 185.6  26.0  34054  287.78 0855.27
2009/04/23 08:56:20.5     -80   -406    121    414    432 191.2  16.4  34058  287.85 0855.27
2009/04/23 08:56:20.6    -122   -451    167    468    496 195.2  20.4  34054  287.78 0855.27
2009/04/23 08:56:20.7    -201   -544    186    581    611 200.3  17.8  34056  287.80 0855.27
2009/04/23 08:56:20.8    -266   -410     23    489    490 213.0   2.8  34054  287.78 0855.27
2009/04/23 08:56:20.9    -334   -403    212    524    565 219.7  23.1  34052  287.75 0855.27
2009/04/23 08:56:21.0    -382   -323    211    501    543 229.8  24.2  34054  287.79 0855.27
2009/04/23 08:56:21.1    -364   -196    -48    414    417 241.6  -6.7  34056  287.82 0855.27
2009/04/23 08:56:21.2    -404   -134   -147    426    450 251.6 -24.0  34046  287.65 0855.27
2009/04/23 08:56:21.3    -375   -129   -190    397    440 251.0 -31.7  34056  287.82 0855.27
2009/04/23 08:56:21.4    -273   -210   -129    345    368 232.4 -25.8  34052  287.76 0855.27
2009/04/23 08:56:21.5    -223   -201    -86    301    313 228.0 -20.7  34048  287.68 0855.27
2009/04/23 08:56:21.6    -186   -267    -25    326    328 215.0  -4.5  34052  287.73 0855.27
2009/04/23 08:56:21.7    -168   -247    -83    300    312 214.3 -15.5  34052  287.75 0855.27
2009/04/23 08:56:21.8    -243   -277   -165    369    404 221.3 -30.2  34054  287.78 0855.27
2009/04/23 08:56:21.9    -343   -257   -122    429    446 233.2 -20.7  34054  287.77 0855.27
2009/04/23 08:56:22.0    -213   -241    -76    322    332 221.4 -13.4  34052  287.73 0855.27
2009/04/23 08:56:22.1    -190   -511    -50    546    549 200.5  -5.3  34050  287.70 0855.27
2009/04/23 08:56:22.2     -20   -429    -46    430    433 182.8  -6.2  34050  287.70 0855.27
2009/04/23 08:56:22.3      27   -365    -20    366    367 175.6  -3.1  34050  287.72 0855.27
2009/04/23 08:56:22.4      60   -316    -68    322    330 169.1 -12.0  34056  287.80 0855.27
2009/04/23 08:56:22.5      96   -334    -71    348    356 163.9 -11.6  34048  287.67 0855.27
2009/04/23 08:56:22.6    -150   -303   -131    339    363 206.4 -26.7  34054  287.78 0855.27
2009/04/23 08:56:22.7     -97   -314   -154    329    363 197.3 -31.5  34060  287.88 0855.27
2009/04/23 08:56:22.8     -87   -299   -110    312    330 196.3 -24.5  34052  287.75 0855.27
2009/04/23 08:56:22.9    -121   -250   -211    278    349 205.9 -45.5  34056  287.82 0855.27
2009/04/23 08:56:23.0    -125    -80   -279    149    316 237.1 -74.1  34058  287.83 0855.27
2009/04/23 08:56:23.1    -186      7   -205    187    277 272.4 -57.4  34060  287.87 0855.27
2009/04/23 08:56:23.2    -105    -81   -210    133    248 232.3 -69.1  34056  287.82 0855.27
2009/04/23 08:56:23.3     -84   -250    -99    264    281 198.7 -25.7  34048  287.68 0855.27
2009/04/23 08:56:23.4    -192    -54    -97    200    222 254.1 -31.7  34052  287.76 0855.25
2009/04/23 08:56:23.5    -172   -148    -89    228    244 229.3 -26.5  34058  287.83 0855.25
2009/04/23 08:56:23.6    -265   -199   -196    332    385 233.2 -37.8  34054  287.79 0855.25
2009/04/23 08:56:23.7    -276    -83   -216    289    360 253.2 -44.8  34054  287.79 0855.25
2009/04/23 08:56:23.8     -96   -315    -73    330    339 196.9 -12.6  34052  287.76 0855.25
2009/04/23 08:56:23.9     -63   -186    -47    197    203 198.7 -13.4  34058  287.84 0855.25
2009/04/23 08:56:24.0    -180   -109    -67    211    221 238.7 -23.0  34056  287.81 0855.25
2009/04/23 08:56:24.1    -149   -159    -85    219    234 223.2 -26.7  34058  287.84 0855.25
2009/04/23 08:56:24.2    -241   -294   -111    381    396 219.3 -21.0  34054  287.79 0855.25
2009/04/23 08:56:24.3    -180   -379    -92    420    431 205.5 -12.4  34058  287.85 0855.25
2009/04/23 08:56:24.4    -224   -366   -127    430    449 211.5 -16.5  34060  287.87 0855.25
2009/04/23 08:56:24.5    -190   -312   -124    366    387 211.4 -18.8  34062  287.91 0855.25
2009/04/23 08:56:24.6     -14   -299    -90    300    314 182.7 -16.7  34056  287.80 0855.25
2009/04/23 08:56:24.7     -51   -327    -44    332    335 188.9  -7.7  34058  287.86 0855.25
2009/04/23 08:56:24.8       5   -331     -9    332    333 179.0  -1.7  34058  287.83 0855.25
2009/04/23 08:56:24.9      24   -269     -1    271    272 174.9  -0.3  34058  287.85 0855.25
2009/04/23 08:56:25.0     -33   -265    -48    268    273 187.2 -10.3  34060  287.88 0855.25
2009/04/23 08:56:25.1     -23   -272    -37    274    277 184.9  -7.7  34058  287.83 0855.25
2009/04/23 08:56:25.2     -59   -258    -52    265    271 192.9 -11.1  34060  287.88 0855.25
2009/04/23 08:56:25.3     -25   -211    -89    213    230 186.9 -28.2  34058  287.86 0855.25
2009/04/23 08:56:25.4     -27   -171    -46    174    181 189.1 -15.0  34058  287.84 0855.25
2009/04/23 08:56:25.5     -64   -147    -76    161    178 203.6 -31.5  34060  287.87 0855.25
2009/04/23 08:56:25.6     -32   -260   -109    263    284 187.1 -28.5  34062  287.92 0855.25
2009/04/23 08:56:25.7     -38   -225    -67    229    238 189.7 -21.2  34058  287.83 0855.25
2009/04/23 08:56:25.8     -43   -215    -72    220    231 191.3 -23.8  34058  287.86 0855.25
2009/04/23 08:56:25.9     -68   -259    -95    268    284 194.9 -24.6  34058  287.83 0855.25
2009/04/23 08:56:26.0     -33   -178    -76    182    197 190.5 -28.5  34054  287.79 0855.25
2009/04/23 08:56:26.1    -132    -78     25    154    157 239.3   9.5  34060  287.89 0855.25
2009/04/23 08:56:26.2    -160   -100     20    189    191 238.0   6.1  34060  287.89 0855.25
2009/04/23 08:56:26.3    -176    -71    -40    190    195 248.0 -11.9  34060  287.89 0855.25
2009/04/23 08:56:26.4    -124    -68    -63    142    155 241.2 -29.6  34060  287.89 0855.25
2009/04/23 08:56:26.5     -16   -205    -59    206    214 184.5 -21.0  34062  287.91 0855.25
2009/04/23 08:56:26.6      38   -148   -108    153    187 165.3 -43.2  34060  287.89 0855.25
2009/04/23 08:56:26.7      63   -133   -114    148    186 154.5 -46.4  34058  287.86 0855.25
2009/04/23 08:56:26.8      42    -55    -67     70     96 142.2 -53.8  34060  287.87 0855.25
2009/04/23 08:56:26.9     -31     31    -76     44     87 315.0 -71.6  34062  287.91 0855.25
2009/04/23 08:56:27.0     -66     30    -75     73    104 294.4 -54.5  34062  287.91 0855.25
2009/04/23 08:56:27.1      -3     78    -71     79    106 357.3 -51.9  34062  287.91 0855.25
2009/04/23 08:56:27.2      25     88    -43     92    101  16.0 -31.5  34060  287.87 0855.25
2009/04/23 08:56:27.3      51     74    -40     91     99  34.7 -29.0  34060  287.87 0855.25
2009/04/23 08:56:27.4       5     72    -40     73     83   4.5 -35.2  34060  287.87 0855.25
2009/04/23 08:56:27.5       0     44     -5     45     46   0.9  -7.3  34058  287.86 0855.25
2009/04/23 08:56:27.6      31    -48     49     58     75 147.4  43.8  34062  287.91 0855.25
2009/04/23 08:56:27.7      45   -114     13    123    124 158.2   6.5  34060  287.89 0855.25
2009/04/23 08:56:27.8      63   -105     67    123    140 148.8  31.3  34062  287.92 0855.25
2009/04/23 08:56:27.9      17    -89     65     91    111 168.9  39.5  34058  287.86 0855.25
2009/04/23 08:56:28.0      15    -91     75     93    119 170.7  43.3  34060  287.87 0855.25
2009/04/23 08:56:28.1      36   -148    117    153    192 166.2  41.2  34058  287.84 0855.25
2009/04/23 08:56:28.2      82   -217    113    233    258 159.3  27.8  34062  287.92 0855.25
2009/04/23 08:56:28.3     119   -273     81    299    310 156.4  15.3  34060  287.87 0855.25
2009/04/23 08:56:28.4     111   -217     65    245    254 152.8  15.0  34058  287.85 0855.25
2009/04/23 08:56:28.5     105   -215     45    240    245 153.9  10.8  34060  287.87 0855.25
2009/04/23 08:56:28.6      76   -267     41    278    282 164.0   8.5  34058  287.85 0855.25
2009/04/23 08:56:28.7      41   -220     61    224    233 169.3  15.3  34060  287.87 0855.25
2009/04/23 08:56:28.8       8   -222    109    223    248 177.8  28.0  34060  287.88 0855.25
2009/04/23 08:56:28.9      36   -292    160    295    335 172.9  30.9  34062  287.90 0855.25
2009/04/23 08:56:29.0      76   -273    148    284    320 164.4  29.8  34062  287.92 0855.25
2009/04/23 08:56:29.1     148   -363    149    393    420 157.8  21.7  34062  287.90 0855.25
2009/04/23 08:56:29.2     170   -386    152    422    448 156.2  20.8  34058  287.84 0855.25
2009/04/23 08:56:29.3     171   -419    131    453    472 157.8  16.1  34056  287.81 0855.25
2009/04/23 08:56:29.4      55   -387    231    391    454 171.9  33.4  34054  287.77 0855.26
2009/04/23 08:56:29.5      72   -227    217    239    322 162.4  47.0  34056  287.82 0855.26
2009/04/23 08:56:29.6     336   -227     62    406    411 124.1   8.7  34062  287.90 0855.26
2009/04/23 08:56:29.7     369   -200     69    420    426 118.5   9.3  34060  287.87 0855.26
2009/04/23 08:56:29.8     359   -163     66    395    401 114.5   9.5  34060  287.88 0855.26
2009/04/23 08:56:29.9     275   -175     40    327    330 122.5   7.1  34060  287.88 0855.26
2009/04/23 08:56:30.0     117   -102     52    156    165 130.9  18.6  34060  287.89 0855.26
2009/04/23 08:56:30.1     128   -118     21    175    177 132.7   6.9  34060  287.89 0855.26
2009/04/23 08:56:30.2     144    -53     26    154    157 110.4   9.9  34058  287.84 0855.26
2009/04/23 08:56:30.3      79    -79    -38    112    118 135.0 -23.8  34062  287.92 0855.26
2009/04/23 08:56:30.4      50    -74    -15     90     92 145.7  -9.8  34060  287.89 0855.26
2009/04/23 08:56:30.5      14    -94     48     96    107 171.5  27.8  34062  287.92 0855.26
2009/04/23 08:56:30.6      12    -71     80     73    108 170.2  52.7  34060  287.87 0855.26
2009/04/23 08:56:30.7      12    -82     43     84     94 171.1  29.3  34058  287.86 0855.26
2009/04/23 08:56:30.8      25    -55     26     61     66 155.5  23.1  34052  287.76 0855.26
2009/04/23 08:56:30.9     -78    -19     22     81     85 255.8  15.3  34056  287.81 0855.26
2009/04/23 08:56:31.0     -61      4      5     62     63 274.3   4.9  34060  287.87 0855.26
2009/04/23 08:56:31.1     -72    -24     39     76     85 251.4  29.3  34060  287.89 0855.26
2009/04/23 08:56:31.2     -87    -46     41     99    107 242.0  23.1  34060  287.87 0855.26
2009/04/23 08:56:31.3     -50    -89    106    103    147 209.4  50.7  34058  287.84 0855.26
2009/04/23 08:56:31.4    -106   -136    173    173    244 218.1  50.1  34054  287.79 0855.27
2009/04/23 08:56:31.5     -68   -151    217    166    273 204.5  59.0  34058  287.83 0855.27
2009/04/23 08:56:31.6     -82   -129    124    154    197 212.6  43.0  34058  287.86 0855.27
2009/04/23 08:56:31.7    -199    -49     31    205    208 256.1   8.8  34050  287.72 0855.27
2009/04/23 08:56:31.8    -191     14    -53    192    200 274.3 -15.5  34056  287.82 0855.27
2009/04/23 08:56:31.9    -141    -51    -56    150    160 250.1 -25.7  34058  287.86 0855.27
2009/04/23 08:56:32.0     -31     26    -20     41     45 310.4 -32.6  34056  287.81 0855.27
2009/04/23 08:56:32.1     -27     27     29     39     48 315.0  40.7  34056  287.82 0855.27
2009/04/23 08:56:32.2     -41    -64    122     77    144 212.5  64.7  34058  287.86 0855.27
2009/04/23 08:56:32.3     -15    140     60    141    153 353.8  24.1  34056  287.81 0855.27
2009/04/23 08:56:32.4      40    158     29    164    167  14.3  10.3  34056  287.82 0855.27
2009/04/23 08:56:32.5     -78     77     98    110    147 314.6  46.4  34058  287.84 0855.27
2009/04/23 08:56:32.6    -120     18     34    122    127 278.8  15.8  34056  287.82 0855.27
2009/04/23 08:56:32.7     -77     49     51     92    105 302.5  31.4  34058  287.86 0855.27
2009/04/23 08:56:32.8       2     -7     29      8     30 161.3  84.9  34060  287.87 0855.27
2009/04/23 08:56:32.9     -30    -76     21     82     85 201.8  14.7  34058  287.84 0855.27
2009/04/23 08:56:33.0     -57    -12     52     59     78 257.6  46.4  34056  287.82 0855.27
2009/04/23 08:56:33.1    -134     -6    -47    135    142 267.4 -23.8  34058  287.86 0855.27
2009/04/23 08:56:33.2     -97    -81    -79    127    149 230.4 -39.9  34058  287.84 0855.27
2009/04/23 08:56:33.3    -131     22    -27    133    136 279.7 -11.5  34054  287.79 0855.27
2009/04/23 08:56:33.4    -188     -1    -78    189    204 269.4 -27.8  34060  287.89 0855.27
2009/04/23 08:56:33.5    -317    -16   -111    318    337 267.1 -19.3  34058  287.83 0855.27
2009/04/23 08:56:33.6    -285      1    -76    286    297 270.4 -15.0  34056  287.80 0855.27
2009/04/23 08:56:33.7    -341    -69    -71    348    356 258.5 -11.6  34050  287.72 0855.27
2009/04/23 08:56:33.8    -288    -20     14    289    290 265.9   2.9  34050  287.71 0855.27
2009/04/23 08:56:33.9    -351   -205     57    407    412 239.6   8.0  34054  287.79 0855.27
2009/04/23 08:56:34.0    -277   -101   -121    295    318 250.0 -28.0  34052  287.75 0855.27
2009/04/23 08:56:34.1    -173    103    -99    202    224 300.7 -31.8  34054  287.77 0855.27
2009/04/23 08:56:34.2    -229     17   -110    230    254 274.4 -31.7  34058  287.85 0855.27
2009/04/23 08:56:34.3    -237     12    -80    238    252 273.0 -18.6  34062  287.90 0855.27
2009/04/23 08:56:34.4    -266    -33   -100    269    286 262.9 -25.4  34054  287.77 0855.27
2009/04/23 08:56:34.5    -230      7    -68    231    241 271.9 -16.5  34056  287.82 0855.27
2009/04/23 08:56:34.6    -264    -20    -93    265    281 265.7 -19.4  34060  287.87 0855.27
2009/04/23 08:56:34.7    -260    -99    -90    279    293 249.2 -22.9  34062  287.92 0855.27
2009/04/23 08:56:34.8    -217    -26    -69    219    229 263.0 -22.8  34056  287.82 0855.27
2009/04/23 08:56:34.9    -113     30     41    117    125 285.1  19.4  34054  287.77 0855.27
2009/04/23 08:56:35.0     -90     22     71     93    117 284.2  41.7  34054  287.77 0855.27
2009/04/23 08:56:35.1    -142     18     29    144    148 277.5  11.6  34058  287.84 0855.27
2009/04/23 08:56:35.2    -105     93     96    141    170 311.8  37.6  34056  287.82 0855.27
2009/04/23 08:56:35.3    -152    152     84    215    230 315.0  22.5  34070  288.06 0855.27
2009/04/23 08:56:35.4    -114     80     64    140    153 305.1  27.1  34068  288.03 0855.25
2009/04/23 08:56:35.5    -176     85     14    196    197 296.0   4.2  34066  287.98 0855.25
2009/04/23 08:56:35.6    -169    122     42    209    214 305.9  11.6  34066  287.98 0855.25
2009/04/23 08:56:35.7    -128    122     22    178    180 313.6   7.1  34086  288.31 0855.25
2009/04/23 08:56:35.8    -146    122      9    191    192 310.0   2.8  34080  288.23 0855.25
2009/04/23 08:56:35.9    -109    127      0    168    169 319.5   0.0  34098  288.53 0855.25
2009/04/23 08:56:36.0     -85    133    -18    159    161 327.4  -6.7  34096  288.50 0855.25
2009/04/23 08:56:36.1     -70    118      7    138    139 329.2   2.9  34096  288.50 0855.25
2009/04/23 08:56:36.2    -108     31     65    113    130 286.4  32.9  34082  288.25 0855.25
2009/04/23 08:56:36.3    -135    -19     26    137    140 262.0  11.1  34106  288.65 0855.25
2009/04/23 08:56:36.4    -149    -25     31    152    156 260.3  11.6  34128  289.02 0855.25
2009/04/23 08:56:36.5    -158    -39      3    163    164 256.1   1.2  34102  288.60 0855.25
2009/04/23 08:56:36.6    -137    -45     16    145    146 251.8   6.5  34106  288.65 0855.25
2009/04/23 08:56:36.7    -156    -55     34    166    170 250.5  11.6  34090  288.38 0855.25
2009/04/23 08:56:36.8    -196    -83      3    214    215 246.9   1.0  34092  288.42 0855.25
2009/04/23 08:56:36.9    -187    -60    -13    197    198 252.1  -3.9  34078  288.20 0855.25
2009/04/23 08:56:37.0    -163    -22     19    165    167 262.3   6.7  34070  288.06 0855.25
2009/04/23 08:56:37.1    -144      0     28    145    148 270.4  11.1  34070  288.06 0855.25
2009/04/23 08:56:37.2    -121    -26     72    124    143 257.6  33.4  34068  288.01 0855.25
2009/04/23 08:56:37.3     -95    -31     51    100    112 251.8  28.7  34068  288.01 0855.25
2009/04/23 08:56:37.4    -151    -44    -64    158    170 253.6 -27.8  34068  288.01 0855.26
2009/04/23 08:56:37.5    -147    -69    -38    163    168 244.6 -13.2  34078  288.20 0855.26
2009/04/23 08:56:37.6    -107    -43     41    116    123 248.2  20.0  34078  288.20 0855.26
2009/04/23 08:56:37.8    -129    -10     15    130    131 265.2   6.9  34072  288.09 0855.26
2009/04/23 08:56:37.8    -144     63     -7    158    159 293.5  -2.6  34064  287.96 0855.26
2009/04/23 08:56:37.9    -171     72     40    186    191 292.8  12.4  34064  287.96 0855.26
2009/04/23 08:56:38.0    -214    160     89    268    283 306.9  18.5  34060  287.88 0855.26
2009/04/23 08:56:38.1    -248     68    -27    258    260 285.3  -6.1  34078  288.17 0855.26
2009/04/23 08:56:38.2    -414    125     28    433    434 286.8   3.8  34074  288.11 0855.26
2009/04/23 08:56:38.4    -439    156   -115    467    482 289.6 -13.9  34084  288.30 0855.26
2009/04/23 08:56:38.5    -422     92    -85    433    442 282.4 -11.2  34094  288.45 0855.26
2009/04/23 08:56:38.6    -415    149    -70    442    448 289.8  -9.0  34076  288.16 0855.26
2009/04/23 08:56:38.7    -326     76     -6    335    336 283.3  -1.2  34074  288.13 0855.26
2009/04/23 08:56:38.8    -207    107    -13    234    235 297.3  -3.3  34082  288.24 0855.26
2009/04/23 08:56:38.9    -243     73    -32    254    257 286.8  -7.2  34074  288.10 0855.26
2009/04/23 08:56:39.0    -229    104    -64    252    261 294.4 -14.3  34072  288.07 0855.26
2009/04/23 08:56:39.1    -335     45   -142    339    367 277.7 -28.5  34052  287.76 0855.26
2009/04/23 08:56:39.2    -348     87   -142    359    386 284.2 -27.3  34060  287.88 0855.26
2009/04/23 08:56:39.3    -334     47   -149    338    369 278.0 -29.6  34064  287.94 0855.26
2009/04/23 08:56:39.4    -319    -14   -167    320    360 267.4 -34.2  34066  287.98 0855.26
2009/04/23 08:56:39.5    -255    140   -148    291    326 298.8 -33.5  34078  288.17 0855.27
2009/04/23 08:56:39.6    -192    -12   -159    193    250 266.3 -48.1  34068  288.02 0855.27
2009/04/23 08:56:39.7    -217     -2   -140    218    259 269.4 -40.0  34084  288.29 0855.27
2009/04/23 08:56:39.8    -190   -135    -69    234    243 234.5 -21.5  34088  288.34 0855.27
2009/04/23 08:56:39.9    -194   -105    -25    221    223 241.6  -6.5  34084  288.30 0855.27
2009/04/23 08:56:40.0    -156   -156     99    222    243 225.0  25.3  34080  288.21 0855.27
2009/04/23 08:56:40.1    -211   -186     24    282    284 228.7   5.0  34058  287.85 0855.27
2009/04/23 08:56:40.2    -188   -119    131    223    258 237.5  33.1  34068  288.00 0855.27
2009/04/23 08:56:40.3    -225   -164    159    279    321 233.8  32.4  34066  287.99 0855.27
2009/04/23 08:56:40.4    -265   -190     66    327    334 234.3  11.6  34070  288.06 0855.27
2009/04/23 08:56:40.5    -209   -287     66    356    363 216.1  10.6  34064  287.96 0855.27
2009/04/23 08:56:40.6    -188   -257     20    319    320 216.3   3.6  34068  288.00 0855.27
2009/04/23 08:56:40.7    -178   -273    147    327    358 213.1  25.8  34060  287.89 0855.27
2009/04/23 08:56:40.8    -223   -279    130    358    380 218.6  20.8  34064  287.96 0855.27
2009/04/23 08:56:40.9    -302   -247     73    391    398 230.7  10.6  34064  287.96 0855.27
2009/04/23 08:56:41.0    -215   -315     42    382    385 214.3   6.4  34064  287.94 0855.27
2009/04/23 08:56:41.1    -319   -293      2    434    435 227.4   0.4  34070  288.06 0855.27
2009/04/23 08:56:41.2    -284   -276     69    397    404 225.8   9.9  34094  288.44 0855.27
2009/04/23 08:56:41.3    -293   -185     35    347    349 237.6   5.8  34100  288.55 0855.27
2009/04/23 08:56:41.4    -320   -207    120    382    401 237.1  17.5  34088  288.35 0855.27
2009/04/23 08:56:41.5    -289   -239    109    376    392 230.4  16.3  34084  288.27 0855.27
2009/04/23 08:56:41.6    -348    -82    -16    358    359 256.7  -2.6  34092  288.42 0855.27
2009/04/23 08:56:41.7    -344   -171   -108    385    400 243.5 -15.7  34100  288.54 0855.27
2009/04/23 08:56:41.8    -287     44    -87    291    304 278.8 -16.8  34094  288.46 0855.27
2009/04/23 08:56:41.9    -274     -8    -19    275    276 268.3  -4.1  34080  288.22 0855.27
2009/04/23 08:56:42.0    -343   -226      7    412    413 236.6   1.0  34100  288.55 0855.27
2009/04/23 08:56:42.1    -341   -160    -47    377    381 244.8  -7.2  34090  288.40 0855.27
2009/04/23 08:56:42.2    -322   -217    -56    389    394 236.1  -8.2  34102  288.60 0855.27
2009/04/23 08:56:42.3    -183   -167    -36    248    251 227.6  -8.3  34102  288.59 0855.27
2009/04/23 08:56:42.4    -242   -170     44    296    300 234.9   8.5  34090  288.37 0855.27
2009/04/23 08:56:42.5    -251   -161     25    299    301 237.4   4.9  34096  288.49 0855.27
2009/04/23 08:56:42.6    -217   -163    102    272    290 233.1  21.3  34084  288.27 0855.27
2009/04/23 08:56:42.7    -281    -87     -2    295    296 252.7  -0.5  34110  288.71 0855.27
2009/04/23 08:56:42.8    -191   -121      9    227    228 237.6   2.3  34092  288.43 0855.27
2009/04/23 08:56:42.9    -317   -205    -18    378    379 237.1  -2.8  34098  288.52 0855.27
2009/04/23 08:56:43.0    -290   -239    -59    377    382 230.5  -8.9  34114  288.79 0855.27
2009/04/23 08:56:43.1    -209   -319   -116    382    400 213.2 -16.9  34094  288.44 0855.27
2009/04/23 08:56:43.2    -252   -308   -124    399    418 219.3 -17.3  34086  288.31 0855.27
2009/04/23 08:56:43.3    -150   -342    -33    374    376 203.7  -5.2  34088  288.35 0855.27
2009/04/23 08:56:43.4    -147   -374     65    402    408 201.5   9.2  34060  287.89 0855.27
2009/04/23 08:56:43.5    -129   -342     25    366    367 200.7   4.0  34060  287.89 0855.28
2009/04/23 08:56:43.6    -153   -319     23    354    355 205.7   3.7  34064  287.94 0855.28
2009/04/23 08:56:43.7    -147   -321    -11    354    355 204.6  -1.9  34064  287.94 0855.28
2009/04/23 08:56:43.8     -17   -394    122    395    414 182.6  17.2  34064  287.94 0855.28
2009/04/23 08:56:43.9       5   -371    107    372    388 179.2  16.1  34062  287.91 0855.28
2009/04/23 08:56:44.0      -5   -369    150    370    399 180.8  23.4  34064  287.96 0855.28
2009/04/23 08:56:44.1     -27   -382    164    383    416 184.1  24.5  34062  287.90 0855.28
2009/04/23 08:56:44.2     -32   -327    167    329    368 185.7  29.1  34064  287.94 0855.28
2009/04/23 08:56:44.3     -23   -262    228    264    348 185.1  45.2  34060  287.88 0855.28
2009/04/23 08:56:44.4      35   -314    209    317    379 173.5  36.4  34060  287.89 0855.28
2009/04/23 08:56:44.5       0   -290    195    291    350 179.9  36.9  34058  287.86 0855.28
2009/04/23 08:56:44.6     -12   -213    220    214    306 183.4  50.9  34056  287.80 0855.28
2009/04/23 08:56:44.7     -31   -168    292    172    338 190.7  66.9  34062  287.90 0855.28
2009/04/23 08:56:44.8     -62   -206    261    216    338 196.9  56.3  34060  287.88 0855.28
2009/04/23 08:56:44.9      -9   -166    197    167    258 183.4  55.4  34062  287.91 0855.28
2009/04/23 08:56:45.0      42   -142    169    149    225 163.5  54.3  34062  287.92 0855.28
2009/04/23 08:56:45.1      21   -206    149    208    255 174.2  39.5  34058  287.83 0855.28
2009/04/23 08:56:45.2     -16   -150    168    151    225 186.3  53.5  34060  287.87 0855.28
2009/04/23 08:56:45.3       5    -75    118     76    140 175.6  64.6  34060  287.89 0855.28
2009/04/23 08:56:45.4     -50    -91    114    105    154 208.9  52.2  34062  287.91 0855.28
2009/04/23 08:56:45.5      10    -32     87     34     93 161.7  78.2  34062  287.91 0855.28
2009/04/23 08:56:45.6     -26    -48     78     55     95 209.0  62.1  34062  287.91 0855.28
2009/04/23 08:56:45.7       0    -66     62     67     91 180.0  47.9  34062  287.92 0855.28
2009/04/23 08:56:45.8       4    -59     52     60     79 175.5  45.4  34064  287.94 0855.28
2009/04/23 08:56:45.9      27    -71     32     77     83 159.1  23.6  34062  287.91 0855.28
2009/04/23 08:56:46.0      46    -56    -17     73     76 140.3 -13.4  34060  287.89 0855.28
2009/04/23 08:56:46.1      40    -26    -37     48     60 123.3 -46.1  34062  287.91 0855.28
2009/04/23 08:56:46.2       0     32    -25     33     41 359.1 -46.1  34062  287.91 0855.28
2009/04/23 08:56:46.3      50     50     -9     71     72  45.1  -7.3  34064  287.96 0855.28
2009/04/23 08:56:46.4      67     23    -21     71     74  70.9 -22.8  34068  288.01 0855.28
2009/04/23 08:56:46.5      84     27    -32     89     94  71.8 -23.8  34070  288.06 0855.28
2009/04/23 08:56:46.6      94    -42    -13    104    105 114.4  -7.2  34064  287.96 0855.28
2009/04/23 08:56:46.7     119    -16     43    121    128  98.0  20.4  34070  288.04 0855.28
2009/04/23 08:56:46.8      34     -3     59     35     68  96.1  65.7  34064  287.94 0855.28
2009/04/23 08:56:46.9    -154    -88     48    178    185 240.2  15.2  34058  287.84 0855.28
2009/04/23 08:56:47.0     -99   -128      3    163    164 217.8   1.2  34056  287.81 0855.28
2009/04/23 08:56:47.1    -137    -78    -55    158    167 240.2 -23.8  34052  287.76 0855.28
2009/04/23 08:56:47.2     -24    -31      0     40     41 217.8  -1.3  34058  287.86 0855.28
2009/04/23 08:56:47.3      17   -182     40    183    188 174.4  12.4  34056  287.82 0855.28
2009/04/23 08:56:47.4     -24   -315    -18    317    318 184.5  -3.3  34056  287.82 0855.28
2009/04/23 08:56:47.5       0   -174    145    175    227 180.2  43.8  34056  287.82 0855.28
2009/04/23 08:56:47.6     137   -331    190    359    406 157.4  30.2  34054  287.78 0855.28
2009/04/23 08:56:47.7      67   -273    231    282    364 166.2  43.7  34060  287.88 0855.28
2009/04/23 08:56:47.8      -1   -218     68    219    230 180.5  17.3  34054  287.77 0855.28
2009/04/23 08:56:47.9      76    -92    106    120    160 140.4  46.2  34060  287.89 0855.28
2009/04/23 08:56:48.0      -8   -186    109    187    216 182.7  33.1  34056  287.81 0855.28
2009/04/23 08:56:48.1    -105   -231    140    254    290 204.5  31.4  34058  287.85 0855.28
2009/04/23 08:56:48.2     -77   -315    141    325    354 193.8  25.1  34052  287.74 0855.28
2009/04/23 08:56:48.3     -42   -293    194    297    354 188.2  36.3  34058  287.86 0855.28
2009/04/23 08:56:48.4    -110   -337    206    355    410 198.1  32.8  34060  287.89 0855.28
2009/04/23 08:56:48.5     -85   -280    157    293    332 196.9  30.6  34056  287.82 0855.30
2009/04/23 08:56:48.6     -58   -219    141    227    267 195.1  35.2  34058  287.83 0855.30
2009/04/23 08:56:48.7    -125   -242     53    273    279 207.4  11.1  34058  287.85 0855.30
2009/04/23 08:56:48.8     -98   -225    161    246    294 203.7  36.3  34054  287.78 0855.30
2009/04/23 08:56:48.9    -207   -203    113    291    312 225.6  22.3  34060  287.87 0855.30
2009/04/23 08:56:49.0    -218   -145     72    263    273 236.3  15.3  34062  287.90 0855.30
2009/04/23 08:56:49.1    -102   -181    115    208    237 209.4  31.4  34058  287.84 0855.30
2009/04/23 08:56:49.2     -36    -39    194     54    201 222.3  84.4  34056  287.81 0855.30
2009/04/23 08:56:49.3     -51    -71    158     88    180 215.6  68.8  34054  287.77 0855.30
2009/04/23 08:56:49.4      45     55    121     72    140  39.7  66.8  34052  287.74 0855.30
2009/04/23 08:56:49.5    -104   -141    142    176    226 216.3  43.7  34054  287.77 0855.30
2009/04/23 08:56:49.6      10     60    131     61    144   9.8  73.1  34050  287.72 0855.30
2009/04/23 08:56:49.7     181   -115    247    215    327 122.4  54.6  34048  287.66 0855.30
2009/04/23 08:56:49.8     -38    -45    259     60    265 220.5  87.5  34054  287.77 0855.30
2009/04/23 08:56:49.9      82     23    255     86    269  74.1  81.2  34052  287.74 0855.30
2009/04/23 08:56:50.0     -53     52    232     75    243 314.1  81.6  34054  287.77 0855.30
2009/04/23 08:56:50.1     235      1    299    236    380  89.6  57.8  34058  287.86 0855.30
2009/04/23 08:56:50.2     109    -12    295    110    314  96.6  78.8  34040  287.53 0855.30
2009/04/23 08:56:50.3     123   -155    244    199    314 141.5  56.8  34052  287.75 0855.30
2009/04/23 08:56:50.4     122   -117    250    170    302 133.8  62.7  34054  287.77 0855.30
2009/04/23 08:56:50.5     -32   -176    325    179    371 190.5  68.8  34050  287.70 0855.28
2009/04/23 08:56:50.6       7    -99    321    100    336 175.6  82.3  34050  287.71 0855.28
2009/04/23 08:56:50.7      16   -150    374    151    403 173.7  77.0  34058  287.84 0855.28
2009/04/23 08:56:50.8      12   -160    272    161    316 175.6  66.9  34054  287.77 0855.28
2009/04/23 08:56:50.9      78      1    320     79    329  89.1  86.4  34054  287.78 0855.28
2009/04/23 08:56:51.0      18     93    348     95    360  11.1  84.7  34054  287.78 0855.28
2009/04/23 08:56:51.1     -55     -2    243     56    249 267.4  87.5  34056  287.81 0855.28
2009/04/23 08:56:51.2    -176     82    233    195    303 295.1  56.3  34048  287.68 0855.28
2009/04/23 08:56:51.3    -146    165    244    221    329 318.3  53.4  34048  287.66 0855.28
2009/04/23 08:56:51.4      51    151    286    160    327  18.7  68.4  34050  287.70 0855.28
2009/04/23 08:56:51.5      64    -93    225    114    252 145.3  71.1  34056  287.82 0855.28
2009/04/23 08:56:51.6     186    -33    232    189    299 100.1  56.4  34056  287.80 0855.28
2009/04/23 08:56:51.7      92    -34    166     99    193 110.4  66.2  34050  287.70 0855.28
2009/04/23 08:56:51.8     -43    107    145    116    185 338.1  56.9  34058  287.86 0855.28
2009/04/23 08:56:51.9    -145     33     64    149    162 283.2  24.6  34056  287.81 0855.28
2009/04/23 08:56:52.0     -34     62    131     71    149 331.0  68.9  34056  287.82 0855.28
2009/04/23 08:56:52.1      50    119    121    130    177  22.7  47.9  34054  287.77 0855.28
2009/04/23 08:56:52.2      -9    117    143    118    185 355.6  56.4  34056  287.82 0855.28
2009/04/23 08:56:52.3     237    150    115    281    303  57.6  23.4  34056  287.80 0855.28
2009/04/23 08:56:52.4     150     11    161    151    220  85.6  52.1  34056  287.82 0855.28
2009/04/23 08:56:52.5     224     77    242    238    339  70.9  50.4  34060  287.88 0855.25
2009/04/23 08:56:52.6     351     22    309    352    468  86.3  45.8  34050  287.70 0855.25
2009/04/23 08:56:52.7     500    161    288    526    599  72.1  31.3  34058  287.83 0855.25
2009/04/23 08:56:52.8     324    151    402    358    538  65.0  53.9  34076  288.15 0855.25
2009/04/23 08:56:52.9     343    130    378    367    526  69.2  51.1  34066  287.98 0855.25
2009/04/23 08:56:53.0     297    202    340    360    495  55.8  48.2  34064  287.95 0855.25
2009/04/23 08:56:53.1     203    127    308    240    390  58.0  58.3  34060  287.89 0855.25
2009/04/23 08:56:53.2     241     56    314    248    400  76.8  57.7  34058  287.83 0855.25
2009/04/23 08:56:53.3     331    -15    362    332    491  92.6  52.8  34060  287.89 0855.25
2009/04/23 08:56:53.4     269     72    244    279    370  75.0  45.8  34052  287.76 0855.25
2009/04/23 08:56:53.5     244     81    219    258    338  71.6  44.5  34056  287.82 0855.25
2009/04/23 08:56:53.6     290    168    234    336    409  59.9  38.4  34058  287.86 0855.25
2009/04/23 08:56:53.7     314    159    303    352    464  63.1  45.1  34052  287.75 0855.25
2009/04/23 08:56:53.8      84     -8    231     85    246  95.7  79.1  34054  287.77 0855.25
2009/04/23 08:56:53.9     273     57    322    280    426  78.1  54.6  34054  287.78 0855.25
2009/04/23 08:56:54.0     324    149    221    357    419  65.2  34.9  34054  287.78 0855.25
2009/04/23 08:56:54.1     299    162    268    341    433  61.5  42.1  34054  287.77 0855.25
2009/04/23 08:56:54.2     270     94    269    287    393  70.7  48.0  34052  287.74 0855.25
2009/04/23 08:56:54.3     176     35    266    180    321  78.5  62.8  34052  287.73 0855.25
2009/04/23 08:56:54.4     168    131    138    214    254  52.0  35.7  34058  287.85 0855.25
2009/04/23 08:56:54.5     231    162    112    283    304  54.9  23.0  34060  287.88 0855.26
2009/04/23 08:56:54.6     242    206     75    319    328  49.6  13.3  34044  287.60 0855.26
2009/04/23 08:56:54.7     283     33    188    285    341  83.2  36.4  34056  287.80 0855.26
2009/04/23 08:56:54.8      97     23    166    100    193  76.3  65.7  34054  287.79 0855.26
2009/04/23 08:56:54.9     184    173     94    253    269  46.8  21.0  34058  287.83 0855.26
2009/04/23 08:56:55.0     323    219     56    391    396  55.9   8.2  34066  287.98 0855.26
2009/04/23 08:56:55.1     361    127    203    383    433  70.6  30.2  34060  287.89 0855.26
2009/04/23 08:56:55.2     355    167    112    393    409  64.8  15.9  34088  288.36 0855.26
2009/04/23 08:56:55.3     292    308    226    425    481  43.5  30.2  34134  289.14 0855.26
2009/04/23 08:56:55.4     562    317    164    646    667  60.6  14.3  34080  288.21 0855.26
2009/04/23 08:56:55.5     396    396    203    561    596  45.0  20.9  34122  288.92 0855.26
2009/04/23 08:56:55.6     472    319    203    570    606  55.9  19.6  34084  288.29 0855.26
2009/04/23 08:56:55.7     493    291    150    573    593  59.4  14.7  34082  288.26 0855.26
2009/04/23 08:56:55.8     380    258     83    460    468  55.8  10.2  34090  288.39 0855.26
2009/04/23 08:56:55.9      36    331    154    334    367   6.2  26.6  34120  288.91 0855.26
2009/04/23 08:56:56.0     254    242    147    352    381  46.4  23.9  34120  288.88 0855.26
2009/04/23 08:56:56.1     247    169    -32    300    302  55.6  -6.2  34098  288.51 0855.26
2009/04/23 08:56:56.2     421    173     -9    456    457  67.6  -1.2  34094  288.45 0855.26
2009/04/23 08:56:56.3     363    224    -28    427    428  58.4  -3.8  34092  288.41 0855.26
2009/04/23 08:56:56.4     363    346     46    502    505  46.4   5.3  34156  289.52 0855.26
2009/04/23 08:56:56.5     298    288     51    415    419  46.0   7.1  34182  289.94 0855.25
2009/04/23 08:56:56.6     335    227     46    405    408  55.8   6.6  34188  290.04 0855.25
2009/04/23 08:56:56.7     275    313     52    417    421  41.3   7.1  34196  290.17 0855.25
2009/04/23 08:56:56.8     274    274     70    388    395  45.0  10.2  34182  289.93 0855.25
2009/04/23 08:56:56.9     257    252     32    361    363  45.6   5.1  34178  289.89 0855.25
2009/04/23 08:56:57.0     179    221    197    285    346  39.0  38.0  34166  289.68 0855.25
2009/04/23 08:56:57.1     268    142    119    304    326  62.1  22.5  34166  289.66 0855.25
2009/04/23 08:56:57.2     503    150     92    525    534  73.4  10.0  34192  290.11 0855.25
2009/04/23 08:56:57.3     305    194    234    362    431  57.5  35.9  34168  289.70 0855.25
2009/04/23 08:56:57.4     217    154    296    267    398  54.7  53.4  34172  289.76 0855.25
2009/04/23 08:56:57.5      90     74    227    117    255  50.5  70.8  34170  289.75 0855.25
2009/04/23 08:56:57.6      63     89    131    110    171  35.2  55.8  34164  289.63 0855.25
2009/04/23 08:56:57.7      48    -71    -90     87    125 145.7 -54.6  34128  289.02 0855.25
2009/04/23 08:56:57.8      -4   -104    -23    105    108 182.2 -12.4  34138  289.19 0855.25
2009/04/23 08:56:57.9     230    124    157    262    305  61.6  33.7  34122  288.92 0855.25
2009/04/23 08:56:58.0     208    208    338    295    448  45.1  54.3  34110  288.72 0855.25
2009/04/23 08:56:58.1     402    125    312    422    524  72.7  40.1  34102  288.59 0855.25
2009/04/23 08:56:58.2      49    112    187    123    223  23.6  63.9  34088  288.36 0855.25
2009/04/23 08:56:58.3     317     44   -159    321    358  82.0 -32.8  34078  288.20 0855.25
2009/04/23 08:56:58.4      43    109    202    118    233  21.4  67.0  34080  288.23 0855.25
2009/04/23 08:56:58.5    -112    219    -49    247    252 332.8 -11.3  34092  288.43 0855.25
2009/04/23 08:56:58.6      36    245     16    248    249   8.5   3.9  34108  288.70 0855.25
2009/04/23 08:56:58.7      48    171     -9    178    179  15.8  -3.2  34112  288.77 0855.25
2009/04/23 08:56:58.8      79    142     72    163    178  29.0  25.1  34112  288.75 0855.25
2009/04/23 08:56:58.9     110    104    117    152    191  46.8  41.7  34104  288.62 0855.25
2009/04/23 08:56:59.0     145     75    142    164    216  62.5  45.6  34118  288.86 0855.25
2009/04/23 08:56:59.1      71     97     99    121    156  36.1  43.7  34116  288.84 0855.25
2009/04/23 08:56:59.2     137     23     81    139    160  80.3  32.9  34114  288.80 0855.25
2009/04/23 08:56:59.3     142     33    151    146    210  76.8  50.7  34104  288.64 0855.25
2009/04/23 08:56:59.4     -23     38     86     45     97 329.3  70.4  34108  288.69 0855.25
2009/04/23 08:56:59.5     120    -99     39    156    161 129.5  14.3  34084  288.30 0855.25
2009/04/23 08:56:59.6      38    -79    143     88    167 154.1  65.4  34094  288.45 0855.25
2009/04/23 08:56:59.7     -24    -96     50    100    111 194.3  28.2  34100  288.55 0855.25
2009/04/23 08:56:59.8      77    -93     95    122    154 140.3  41.7  34090  288.40 0855.25
2009/04/23 08:56:59.9     -34   -125     68    130    146 195.2  29.3  34092  288.42 0855.25
2009/04/23 08:57:00.0     -38   -268    151    271    310 188.1  31.4  34078  288.19 0855.25
2009/04/23 08:57:00.1     -29   -209    111    212    239 188.0  29.8  34074  288.11 0855.25
2009/04/23 08:57:00.2     -95   -167    192    193    272 209.6  50.0  34078  288.17 0855.25
2009/04/23 08:57:00.3      94   -233    151    252    293 158.1  33.5  34070  288.05 0855.25
2009/04/23 08:57:00.4      49   -262    199    267    333 169.4  40.4  34066  287.99 0855.25
2009/04/23 08:57:00.5      20   -184    176    186    256 173.5  48.2  34068  288.00 0855.26
2009/04/23 08:57:00.6     -29   -143    128    146    194 191.5  45.8  34076  288.14 0855.26
2009/04/23 08:57:00.7     -13   -134    114    135    176 185.8  44.5  34074  288.13 0855.26
2009/04/23 08:57:00.8      55   -162    146    172    225 161.1  44.5  34068  288.03 0855.26
2009/04/23 08:57:00.9     -15   -131    105    132    168 186.7  42.7  34074  288.11 0855.26
2009/04/23 08:57:01.0     -21   -139     67    141    156 188.9  27.2  34072  288.09 0855.26
2009/04/23 08:57:01.1     -17   -184    164    185    247 185.3  46.2  34074  288.11 0855.26
2009/04/23 08:57:01.2     -17   -200    175    201    266 185.1  45.6  34078  288.19 0855.26
2009/04/23 08:57:01.3     -92   -228    195    247    314 202.1  42.3  34078  288.17 0855.26
2009/04/23 08:57:01.4     -34   -215    160    218    270 189.1  39.9  34066  287.97 0855.26
2009/04/23 08:57:01.5     -29   -206    145    209    254 188.2  38.5  34072  288.09 0855.26
2009/04/23 08:57:01.6     -41   -203    154    208    258 191.6  40.1  34078  288.19 0855.26
2009/04/23 08:57:01.7     -21    -50    124     55    135 202.7  74.9  34090  288.38 0855.26
2009/04/23 08:57:01.8     -69    -97    142    120    185 215.6  55.8  34086  288.31 0855.26
2009/04/23 08:57:01.9      16    -21     90     27     93 142.2  82.3  34088  288.35 0855.26
2009/04/23 08:57:02.0      90     16     90     92    128  79.9  50.0  34088  288.35 0855.26
2009/04/23 08:57:02.1       5      6     20      8     21  39.6  77.1  34086  288.31 0855.26
2009/04/23 08:57:02.2      26     17    -28     32     42  57.5 -51.3  34088  288.36 0855.26
2009/04/23 08:57:02.3      93     12     -7     94     95  82.1  -4.6  34154  289.46 0855.26
2009/04/23 08:57:02.4      92    126     96    157    184  36.1  34.8  34156  289.52 0855.26
2009/04/23 08:57:02.5     110    150    132    187    228  36.3  38.8  34186  290.02 0855.29
2009/04/23 08:57:02.6     223    118    101    253    272  62.0  23.0  34210  290.42 0855.29
2009/04/23 08:57:02.7     156     65     53    170    179  67.2  17.3  34208  290.38 0855.29
2009/04/23 08:57:02.8     133    107     98    171    197  51.1  32.4  34206  290.36 0855.29
2009/04/23 08:57:02.9     165    235    139    288    319  35.0  27.7  34184  289.97 0855.29
2009/04/23 08:57:03.0     251    220    116    334    354  48.7  19.3  34154  289.47 0855.29
2009/04/23 08:57:03.1     170    241    135    296    325  35.2  26.3  34122  288.93 0855.29
2009/04/23 08:57:03.2     427    300    144    523    543  54.9  15.4  34160  289.58 0855.29
2009/04/23 08:57:03.3     430    201    141    475    496  65.0  16.6  34176  289.83 0855.29
2009/04/23 08:57:03.4     380    201    197    431    473  62.1  26.2  34168  289.70 0855.29
2009/04/23 08:57:03.5     509    145    109    530    542  74.1  11.7  34140  289.24 0855.29
2009/04/23 08:57:03.6     518    217    160    562    585  67.3  15.9  34154  289.47 0855.29
2009/04/23 08:57:03.7     590    272    142    650    666  65.2  12.4  34130  289.07 0855.29
2009/04/23 08:57:03.8     462    311    247    558    610  56.1  25.2  34144  289.30 0855.29
2009/04/23 08:57:03.9     514    225    159    562    585  66.4  15.8  34136  289.17 0855.29
2009/04/23 08:57:04.0     565    261    135    623    638  65.2  12.3  34114  288.79 0855.29
2009/04/23 08:57:04.1     424    399     49    583    586  46.8   4.9  34106  288.66 0855.29
2009/04/23 08:57:04.2     500    282     22    575    576  60.6   2.2  34084  288.29 0855.29
2009/04/23 08:57:04.3     494    283     11    570    571  60.2   1.1  34090  288.39 0855.29
2009/04/23 08:57:04.4     478    207    -65    521    526  66.6  -7.2  34088  288.35 0855.29
2009/04/23 08:57:04.5     357    147   -114    387    403  67.5 -21.2  34096  288.50 0855.30
2009/04/23 08:57:04.6     232    190    -84    300    312  50.7 -15.8  34102  288.58 0855.30
2009/04/23 08:57:04.7     142    128    -57    192    200  48.0 -21.7  34100  288.55 0855.30
2009/04/23 08:57:04.8     173    147    -39    228    232  49.6  -9.8  34096  288.48 0855.30
2009/04/23 08:57:04.9     214    101    -70    237    248  64.6 -16.6  34088  288.36 0855.30
2009/04/23 08:57:05.0      21     17   -114     28    117  50.5 -90.0  34080  288.23 0855.30
2009/04/23 08:57:05.1     -38    129    -17    135    137 343.5  -7.2  34086  288.31 0855.30
2009/04/23 08:57:05.2      67    109    -81    129    152  31.6 -39.9  34084  288.28 0855.30
2009/04/23 08:57:05.3     273    -19     65    274    282  94.1  13.5  34066  287.99 0855.30
2009/04/23 08:57:05.4     487    126    137    504    523  75.5  15.3  34050  287.71 0855.30
2009/04/23 08:57:05.5     459     48    117    462    477  84.0  14.3  34054  287.78 0855.31
2009/04/23 08:57:05.6     461     63    156    466    492  82.2  18.6  34056  287.80 0855.31
2009/04/23 08:57:05.7     566     87    254    573    626  81.2  25.6  34062  287.92 0855.31
2009/04/23 08:57:05.8     553     85    310    560    640  81.2  31.5  34064  287.94 0855.31
2009/04/23 08:57:05.9     638    -19    137    639    654  91.7  12.2  34062  287.91 0855.31
2009/04/23 08:57:06.0     610    -56    219    613    652  95.3  19.7  34060  287.88 0855.31
2009/04/23 08:57:06.1     524    -48    113    527    540  95.3  12.1  34062  287.91 0855.31
2009/04/23 08:57:06.3     331   -224    139    400    424 124.1  19.2  34072  288.07 0855.31
2009/04/23 08:57:06.4     455    -27    286    456    538  93.4  35.3  34082  288.25 0855.31
2009/04/23 08:57:06.5     455     27     64    456    461  86.5   8.0  34104  288.61 0855.31
2009/04/23 08:57:06.6     407    140    175    431    465  71.0  23.2  34120  288.90 0855.31
2009/04/23 08:57:06.7     418      0    215    419    470  90.0  29.3  34102  288.58 0855.31
2009/04/23 08:57:06.8     377   -145    227    405    464 111.1  31.6  34090  288.39 0855.31
2009/04/23 08:57:06.9     290    -86    185    303    355 106.6  34.3  34086  288.32 0855.31
2009/04/23 08:57:07.0     205   -170    204    267    336 129.6  41.2  34100  288.56 0855.31
2009/04/23 08:57:07.1     225   -106    127    249    279 115.2  29.2  34080  288.22 0855.31
2009/04/23 08:57:07.2     221   -126    139    255    290 119.8  31.3  34076  288.15 0855.31
2009/04/23 08:57:07.3     200   -140     93    245    262 125.1  22.0  34076  288.15 0855.31
2009/04/23 08:57:07.4     168   -102    111    197    226 121.3  31.9  34074  288.11 0855.31
2009/04/23 08:57:07.5      74   -181    147    196    245 157.5  40.7  34070  288.06 0855.31
2009/04/23 08:57:07.6     160   -175    143    238    277 137.5  33.5  34070  288.05 0855.30
2009/04/23 08:57:07.7     194   -143    162    242    291 126.4  36.7  34068  288.00 0855.30
2009/04/23 08:57:07.8     191   -205    178    281    332 137.0  35.5  34072  288.07 0855.30
2009/04/23 08:57:07.9     100   -185    141    211    253 151.5  37.0  34076  288.15 0855.30
2009/04/23 08:57:08.0     187      0     68    188    199  90.0  20.7  34070  288.06 0855.30
2009/04/23 08:57:08.1     156      2     86    157    179  89.2  31.3  34070  288.04 0855.30
2009/04/23 08:57:08.2     181    -42    110    186    216 103.3  33.5  34068  288.03 0855.30
2009/04/23 08:57:08.3     165    -58    137    176    223 109.5  41.7  34070  288.04 0855.30
2009/04/23 08:57:08.4     190     14    144    191    239  85.7  40.7  34066  287.99 0855.30
2009/04/23 08:57:08.5     163    -31    154    167    227 101.0  47.9  34066  287.99 0855.30
2009/04/23 08:57:08.6     153     41    127    159    203  74.9  42.7  34068  288.03 0855.30
2009/04/23 08:57:08.7     250     99    172    270    320  68.3  35.6  34084  288.29 0855.30
2009/04/23 08:57:08.8     168    116    150    205    254  55.4  39.7  34092  288.41 0855.30
2009/04/23 08:57:08.9     331    103    149    347    377  72.6  24.8  34092  288.42 0855.30
2009/04/23 08:57:09.0     227      9    183    228    292  87.6  42.8  34082  288.26 0855.30
2009/04/23 08:57:09.1     307    123     30    331    333  68.1   5.3  34088  288.35 0855.30
2009/04/23 08:57:09.2     333    136     64    360    366  67.8  10.1  34094  288.45 0855.30
2009/04/23 08:57:09.3     357     82    125    367    388  77.0  18.9  34074  288.10 0855.30
2009/04/23 08:57:09.4     267    -58    144    274    309 102.4  30.1  34086  288.31 0855.30
2009/04/23 08:57:09.5     198   -105    148    225    269 118.0  36.5  34080  288.22 0855.30
2009/04/23 08:57:09.6      67     28    148     73    165  67.4  71.9  34070  288.04 0855.29
2009/04/23 08:57:09.7     164     72    124    180    218  66.3  37.8  34080  288.21 0855.29
2009/04/23 08:57:09.8     114     82     49    141    150  54.1  19.4  34088  288.36 0855.29
2009/04/23 08:57:09.9     155    138     81    208    223  48.2  22.3  34090  288.40 0855.29
2009/04/23 08:57:10.0     182     56     92    191    212  72.9  27.3  34088  288.36 0855.29
2009/04/23 08:57:10.1     113    -87    126    143    190 127.7  45.8  34086  288.33 0855.29
2009/04/23 08:57:10.2     124    -73     93    145    172 120.6  35.6  34082  288.25 0855.29
2009/04/23 08:57:10.3     123    -25    102    126    162 101.9  43.3  34070  288.06 0855.29
2009/04/23 08:57:10.4     157     56      8    167    168  70.3   2.9  34074  288.11 0855.29
2009/04/23 08:57:10.5     119     45     -4    128    129  69.2  -1.8  34078  288.20 0855.29
2009/04/23 08:57:10.6      58     51    -27     78     83  49.1 -19.1  34080  288.21 0855.29
2009/04/23 08:57:10.7      48    102      9    113    114  25.5   4.9  34076  288.14 0855.29
2009/04/23 08:57:10.8     247    168    -11    299    300  55.8  -2.2  34108  288.68 0855.29
2009/04/23 08:57:10.9     172    194    -47    260    265  41.7 -10.4  34124  288.97 0855.29
2009/04/23 08:57:11.0     164    162      3    231    232  45.3   0.8  34146  289.33 0855.29
2009/04/23 08:57:11.1     132    191     81    233    247  34.7  19.2  34208  290.37 0855.29
2009/04/23 08:57:11.2      64    185     65    196    207  19.2  18.4  34190  290.08 0855.29
2009/04/23 08:57:11.3     115    214     25    244    246  28.3   5.9  34186  290.02 0855.29
2009/04/23 08:57:11.4     173    124      3    214    215  54.3   1.0  34072  288.09 0855.29
2009/04/23 08:57:11.5     185    118     26    220    222  57.5   6.9  34072  288.08 0855.29
2009/04/23 08:57:11.6     164     84     65    185    197  62.7  19.6  34068  288.01 0855.28
2009/04/23 08:57:11.7     161    125     -5    205    206  52.2  -1.6  34112  288.75 0855.28
2009/04/23 08:57:11.8     242    114    -10    268    269  64.8  -2.3  34124  288.97 0855.28
2009/04/23 08:57:11.9     243     77     59    256    263  72.3  13.1  34124  288.97 0855.28
2009/04/23 08:57:12.0     273    129    -49    302    307  64.7  -9.3  34140  289.22 0855.28
2009/04/23 08:57:12.1     282    200     -9    346    347  54.6  -1.6  34122  288.93 0855.28
2009/04/23 08:57:12.2     246     87     76    262    273  70.5  16.3  34112  288.76 0855.28
2009/04/23 08:57:12.3     125     45     73    134    152  70.0  31.3  34084  288.30 0855.28
2009/04/23 08:57:12.4     101      0     84    102    132  90.0  43.8  34074  288.13 0855.28
2009/04/23 08:57:12.5      43     86      3     97     98  26.7   1.8  34092  288.42 0855.28
2009/04/23 08:57:12.6     -21     64     19     68     71 341.3  16.3  34118  288.86 0855.28
2009/04/23 08:57:12.7     110    110   -125    156    199  45.0 -47.1  34142  289.26 0855.28
2009/04/23 08:57:12.8     160    177    -88    239    254  42.1 -25.4  34164  289.64 0855.28
2009/04/23 08:57:12.9     172    138    -65    221    230  51.1 -21.7  34162  289.60 0855.28
2009/04/23 08:57:13.0     246    116    -46    273    277  64.7  -9.6  34150  289.39 0855.28
2009/04/23 08:57:13.1     187    127    -63    227    235  55.8 -20.2  34152  289.42 0855.28
2009/04/23 08:57:13.2     220    129    -91    256    272  59.6 -19.7  34134  289.12 0855.28
2009/04/23 08:57:13.3     292    116    -48    315    319  68.3  -8.8  34094  288.46 0855.28
2009/04/23 08:57:13.4     391    137      6    415    416  70.6   0.9  34114  288.80 0855.28
2009/04/23 08:57:13.5     420    161     -9    451    452  69.0  -1.2  34096  288.50 0855.28
2009/04/23 08:57:13.6     393    158     24    424    425  68.0   3.3  34116  288.82 0855.30
2009/04/23 08:57:13.7     270    135     31    303    305  63.4   5.9  34114  288.80 0855.30
2009/04/23 08:57:13.8     219    148     51    265    270  56.0  11.0  34130  289.07 0855.30
2009/04/23 08:57:13.9     326    159     17    363    364  63.9   2.8  34104  288.64 0855.30
2009/04/23 08:57:14.0     228     75     16    241    242  71.8   3.9  34094  288.44 0855.30
2009/04/23 08:57:14.1     282    116     63    305    312  67.6  11.8  34134  289.14 0855.30
2009/04/23 08:57:14.2     282    161     72    325    333  60.2  12.5  34138  289.20 0855.30
2009/04/23 08:57:14.3     304    198    113    363    381  56.9  17.3  34132  289.10 0855.30
2009/04/23 08:57:14.4     342    144    168    372    408  67.2  26.2  34128  289.03 0855.30
2009/04/23 08:57:14.5     367    141    200    394    441  68.9  29.2  34144  289.29 0855.30
2009/04/23 08:57:14.6     383     92    161    394    425  76.4  23.5  34112  288.77 0855.30
2009/04/23 08:57:14.7     332    131     76    358    367  68.4  12.1  34120  288.88 0855.30
2009/04/23 08:57:14.8     176    134    146    222    265  52.7  36.5  34134  289.14 0855.30
2009/04/23 08:57:14.9     266    145    105    303    321  61.4  19.2  34142  289.25 0855.30
2009/04/23 08:57:15.0     309    106     15    327    328  70.9   2.8  34140  289.22 0855.30
2009/04/23 08:57:15.1     164    102    167    194    255  58.0  45.1  34126  288.98 0855.30
2009/04/23 08:57:15.2     127     -5    184    128    224  92.5  62.1  34118  288.87 0855.30
2009/04/23 08:57:15.3     167     40    144    172    224  76.3  43.8  34124  288.97 0855.30
2009/04/23 08:57:15.4     151    106     92    185    206  54.9  28.2  34106  288.65 0855.30
2009/04/23 08:57:15.5     120    180     77    217    230  33.6  20.0  34126  288.99 0855.30
2009/04/23 08:57:15.6      27    136     79    139    159  11.5  32.1  34120  288.91 0855.32
2009/04/23 08:57:15.7     125    131     47    182    189  43.7  14.5  34146  289.35 0855.32
2009/04/23 08:57:15.8     189     89    143    209    253  64.8  37.6  34144  289.31 0855.32
2009/04/23 08:57:15.9     191     72    103    205    229  69.2  28.7  34112  288.75 0855.32
2009/04/23 08:57:16.0     172     83    122    192    227  64.2  35.5  34106  288.65 0855.32
2009/04/23 08:57:16.1     209     29     86    211    227  82.1  23.1  34120  288.89 0855.32
2009/04/23 08:57:16.2      92     41    104    101    144  66.0  50.2  34126  288.99 0855.32
2009/04/23 08:57:16.3     117     46    137    126    186  68.3  52.7  34116  288.84 0855.32
2009/04/23 08:57:16.4     155     17    170    157    231  83.4  52.2  34118  288.87 0855.32
2009/04/23 08:57:16.5     205     58    141    214    256  74.1  36.5  34128  289.03 0855.32
2009/04/23 08:57:16.6     260     71    128    270    298  74.7  27.2  34118  288.85 0855.32
2009/04/23 08:57:16.7     164    141     60    217    226  49.3  15.6  34118  288.87 0855.32
2009/04/23 08:57:16.8     236     86    111    252    275  70.0  25.2  34112  288.76 0855.32
2009/04/23 08:57:16.9     169    156     62    231    240  47.3  15.2  34120  288.88 0855.32
2009/04/23 08:57:17.0     154     86    137    177    223  60.9  41.7  34124  288.96 0855.32
2009/04/23 08:57:17.1     187     48     88    194    213  75.4  26.2  34136  289.16 0855.32
2009/04/23 08:57:17.2     139     42     64    146    159  73.2  25.3  34108  288.70 0855.32
2009/04/23 08:57:17.3     185     79    -18    202    203  66.7  -5.2  34092  288.43 0855.32
2009/04/23 08:57:17.4     244    108    -42    267    271  66.0  -9.0  34080  288.21 0855.32
2009/04/23 08:57:17.5     266    116      3    291    292  66.4   0.7  34076  288.14 0855.32
2009/04/23 08:57:17.6     214    137      7    255    256  57.4   1.6  34080  288.22 0855.32
2009/04/23 08:57:17.7     243    126     -5    274    275  62.5  -1.2  34086  288.32 0855.32
2009/04/23 08:57:17.8     214    141    -10    257    258  56.7  -2.2  34084  288.27 0855.32
2009/04/23 08:57:17.9     221     86    -17    238    239  68.7  -4.1  34080  288.21 0855.32
2009/04/23 08:57:18.0     274    145    -22    310    311  62.1  -4.1  34092  288.41 0855.32
2009/04/23 08:57:18.1     236    109     85    260    274  65.2  18.1  34120  288.88 0855.32
2009/04/23 08:57:18.2     182     60     95    192    214  71.6  28.2  34124  288.97 0855.32
2009/04/23 08:57:18.3     212    143     73    256    267  55.9  16.0  34144  289.31 0855.32
2009/04/23 08:57:18.4     206    167    149    266    304  50.9  31.4  34176  289.85 0855.32
2009/04/23 08:57:18.5     230    159    164    280    324  55.4  33.1  34204  290.32 0855.32
2009/04/23 08:57:18.6     232    127    125    265    293  61.2  27.1  34184  289.97 0855.32
2009/04/23 08:57:18.7     254     80     62    267    275  72.5  13.2  34166  289.68 0855.32
2009/04/23 08:57:18.8     244    102    188    265    324  67.2  38.8  34190  290.07 0855.32
2009/04/23 08:57:18.9     164     82    181    184    258  63.4  49.8  34172  289.78 0855.32
2009/04/23 08:57:19.0     172    172    109    244    267  45.1  25.7  34162  289.59 0855.32
2009/04/23 08:57:19.1     160    150     59    220    229  46.9  15.2  34156  289.52 0855.32
2009/04/23 08:57:19.2      83    131    -35    156    161  32.5 -12.9  34136  289.16 0855.32
2009/04/23 08:57:19.3      11    150     11    151    152   4.4   4.4  34138  289.19 0855.32
2009/04/23 08:57:19.4      17    171     74    172    187   5.8  24.9  34148  289.38 0855.32
2009/04/23 08:57:19.5     -42    165     65    171    182 345.7  21.7  34148  289.38 0855.32
2009/04/23 08:57:19.6     -82    146      0    168    169 330.6  -0.3  34138  289.19 0855.30
2009/04/23 08:57:19.7     -91    127    -23    157    159 324.4  -8.6  34134  289.13 0855.30
2009/04/23 08:57:19.8    -118     85    -46    146    154 306.0 -17.6  34132  289.11 0855.30
2009/04/23 08:57:19.9    -165    127    -28    209    211 307.5  -7.7  34154  289.48 0855.30
2009/04/23 08:57:20.0    -152    142    -38    209    213 313.1 -10.5  34146  289.33 0855.30
2009/04/23 08:57:20.1    -174    136    -67    222    231 308.0 -21.7  34120  288.91 0855.30
2009/04/23 08:57:20.2    -180    149    -77    235    247 309.6 -23.6  34098  288.53 0855.30
2009/04/23 08:57:20.3    -263    120    -58    290    296 294.6 -11.3  34126  288.98 0855.30
2009/04/23 08:57:20.4    -257    132    -20    290    291 297.3  -4.1  34110  288.71 0855.30
2009/04/23 08:57:20.5    -264    195    -77    329    339 306.4 -13.3  34058  287.86 0855.30
2009/04/23 08:57:20.6    -274    186    -83    332    343 304.2 -14.1  34058  287.83 0855.30
2009/04/23 08:57:20.7    -328    183   -118    376    395 299.2 -17.5  34054  287.79 0855.30
2009/04/23 08:57:20.8    -369    236    -21    439    440 302.6  -2.8  34088  288.36 0855.30
2009/04/23 08:57:20.9    -206    277     68    346    353 323.3  11.1  34090  288.37 0855.30
2009/04/23 08:57:21.0    -238    367    -51    438    441 327.0  -6.7  34098  288.53 0855.30
2009/04/23 08:57:21.1    -305    251    -42    396    399 309.5  -6.1  34080  288.22 0855.30
2009/04/23 08:57:21.2    -119    221    -31    252    255 331.7  -7.2  34086  288.32 0855.30
2009/04/23 08:57:21.3     -51    112    132    124    181 335.5  52.1  34100  288.57 0855.30
2009/04/23 08:57:21.4     -64    126    148    142    205 332.8  50.9  34102  288.58 0855.30
2009/04/23 08:57:21.5      -4    107     76    108    132 357.8  38.6  34086  288.33 0855.30
2009/04/23 08:57:21.6      11     71     89     72    114   8.9  56.4  34084  288.30 0855.28
2009/04/23 08:57:21.7      74    221     87    234    249  18.7  21.0  34076  288.14 0855.28
2009/04/23 08:57:21.8      62    198     71    208    220  17.6  18.9  34072  288.09 0855.28
2009/04/23 08:57:21.9      87    136     59    162    172  32.6  20.4  34064  287.96 0855.28
2009/04/23 08:57:22.0     113    177     67    211    222  32.5  17.7  34062  287.92 0855.28
2009/04/23 08:57:22.1     150    159    116    219    247  43.4  30.2  34074  288.10 0855.28
2009/04/23 08:57:22.2     103    186    125    213    246  29.0  33.4  34076  288.15 0855.28
2009/04/23 08:57:22.3     134    184     79    228    242  36.1  19.2  34090  288.37 0855.28
2009/04/23 08:57:22.4     123    129     58    179    189  43.4  18.1  34084  288.28 0855.28
2009/04/23 08:57:22.5      76    120     -7    143    144  32.5  -3.1  34082  288.25 0855.28
2009/04/23 08:57:22.6      92     95      5    133    134  44.1   2.3  34082  288.25 0855.28
2009/04/23 08:57:22.7     107    100     75    147    165  46.8  29.3  34086  288.31 0855.28
2009/04/23 08:57:22.8      63    145    126    159    202  23.7  42.2  34092  288.42 0855.28
2009/04/23 08:57:22.9     -17    181     72    182    195 354.4  23.0  34088  288.35 0855.28
2009/04/23 08:57:23.0     -44    166    -53    172    179 344.9 -22.3  34080  288.23 0855.28
2009/04/23 08:57:23.1      86     53    126    102    162  58.5  56.9  34106  288.67 0855.28
2009/04/23 08:57:23.2      96     56    201    112    230  59.8  68.8  34082  288.25 0855.28
2009/04/23 08:57:23.3     -71     76    175    105    204 316.8  66.2  34082  288.26 0855.28
2009/04/23 08:57:23.4    -102      4    206    103    230 272.6  71.9  34086  288.31 0855.28
2009/04/23 08:57:23.5    -118    -97    142    153    208 230.5  47.9  34096  288.50 0855.28
2009/04/23 08:57:23.6     -78    -69     66    105    124 228.7  35.5  34082  288.26 0855.26
2009/04/23 08:57:23.7     -49     -9     94     50    106 259.4  69.3  34084  288.30 0855.26
2009/04/23 08:57:23.8     -14     25    132     29    135 331.0  88.5  34082  288.26 0855.26
2009/04/23 08:57:23.9     226    -48    130    232    265 102.2  31.6  34082  288.26 0855.26
2009/04/23 08:57:24.0     167    126    178    210    275  52.9  44.8  34084  288.27 0855.26
2009/04/23 08:57:24.1     148     61    162    161    228  67.6  50.1  34084  288.28 0855.26
2009/04/23 08:57:24.2      57    -18    120     60    134 108.2  71.4  34084  288.30 0855.26
2009/04/23 08:57:24.3     189    -62    160    199    255 108.2  43.0  34082  288.24 0855.26
2009/04/23 08:57:24.4     232   -152    198    278    341 123.3  39.0  34086  288.31 0855.26
2009/04/23 08:57:24.5     243   -109    -88    267    281 114.2 -23.8  34080  288.21 0855.26
2009/04/23 08:57:24.6     273      0   -132    274    304  90.1 -31.7  34082  288.26 0855.26
2009/04/23 08:57:24.7     252    -30    -46    254    259  97.0 -10.3  34094  288.44 0855.26
2009/04/23 08:57:24.8     261      0    -81    262    274  90.0 -22.1  34090  288.39 0855.26
2009/04/23 08:57:24.9     255     35     32    258    261  82.1   7.2  34076  288.15 0855.26
2009/04/23 08:57:25.0     217     32      2    220    221  81.6   0.7  34074  288.13 0855.26
2009/04/23 08:57:25.1     200     54     85    208    224  74.9  23.1  34076  288.16 0855.26
2009/04/23 08:57:25.2     259    145    -92    297    310  60.7 -22.3  34078  288.17 0855.26
2009/04/23 08:57:25.3     269    134    -83    301    313  63.4 -15.5  34080  288.21 0855.26
2009/04/23 08:57:25.4     371    143    -18    398    399  68.8  -2.7  34074  288.13 0855.26
2009/04/23 08:57:25.5     316    244     37    400    402  52.3   5.3  34090  288.37 0855.26
2009/04/23 08:57:25.6     357    227     36    424    426  57.5   4.9  34090  288.39 0855.26
2009/04/23 08:57:25.7     265    135    113    298    318  62.9  21.7  34092  288.41 0855.26
2009/04/23 08:57:25.8     241    133    101    276    293  61.1  20.9  34080  288.21 0855.26
2009/04/23 08:57:25.9     214     44    126    219    252  78.3  32.7  34078  288.19 0855.26
2009/04/23 08:57:26.0     220    -72    121    232    261 108.2  29.8  34078  288.19 0855.26
2009/04/23 08:57:26.1     248    -98     98    267    284 111.7  21.0  34082  288.24 0855.26
2009/04/23 08:57:26.2     264    -74    106    275    294 105.7  22.1  34078  288.17 0855.26
2009/04/23 08:57:26.3     243    -47     87    248    263 101.0  19.4  34086  288.31 0855.26
2009/04/23 08:57:26.4     414     38    -13    416    417  84.7  -1.8  34086  288.31 0855.26
2009/04/23 08:57:26.5     392    157    -57    423    427  68.2  -7.7  34090  288.38 0855.26
2009/04/23 08:57:26.6     302    100     -7    319    320  71.6  -1.3  34094  288.46 0855.26
2009/04/23 08:57:26.7     323     49     40    327    330  81.3   7.1  34092  288.42 0855.26
2009/04/23 08:57:26.8     264     98    107    282    301  69.6  21.7  34096  288.49 0855.26
2009/04/23 08:57:26.9     227    231     27    325    327  44.5   4.9  34102  288.59 0855.26
2009/04/23 08:57:27.0     219    187     14    289    290  49.5   2.9  34104  288.61 0855.26
2009/04/23 08:57:27.1     227    157     94    277    293  55.4  18.9  34106  288.66 0855.26
2009/04/23 08:57:27.2     359    148     39    389    392  67.6   5.8  34088  288.35 0855.26
2009/04/23 08:57:27.3     315    183    -46    365    368  59.8  -7.3  34086  288.33 0855.26
2009/04/23 08:57:27.4     319    159     20    357    358  63.4   3.2  34094  288.45 0855.26
2009/04/23 08:57:27.5     282     65     36    290    293  77.0   7.1  34082  288.26 0855.26
2009/04/23 08:57:27.6     356      6    178    357    398  89.0  28.4  34092  288.42 0855.26
2009/04/23 08:57:27.7     273    -44     56    277    283  99.2  11.6  34082  288.26 0855.26
2009/04/23 08:57:27.8     290     -9    118    291    314  91.9  23.4  34078  288.17 0855.26
2009/04/23 08:57:27.9     369    -66    140    375    400 100.3  21.3  34084  288.27 0855.26
2009/04/23 08:57:28.0     291    -31     71    293    302  96.2  13.7  34078  288.19 0855.26
2009/04/23 08:57:28.1     339    -22    -10    340    341  93.7  -1.8  34078  288.18 0855.26
2009/04/23 08:57:28.2     304     64    -62    311    318  78.1 -11.3  34088  288.36 0855.26
2009/04/23 08:57:28.3     267     45    -44    271    275  80.4  -9.3  34098  288.53 0855.26
2009/04/23 08:57:28.4     293     41     -6    296    297  82.0  -1.3  34104  288.61 0855.26
2009/04/23 08:57:28.5     244     97     62    263    271  68.3  13.2  34152  289.42 0855.26
2009/04/23 08:57:28.6     154     99    129    184    224  57.4  38.4  34164  289.65 0855.26
2009/04/23 08:57:28.7     210    107     73    236    248  63.0  17.3  34172  289.76 0855.26
2009/04/23 08:57:28.8     152    106     44    186    192  54.9  13.5  34188  290.04 0855.26
2009/04/23 08:57:28.9     103     77     40    129    136  53.1  17.3  34182  289.96 0855.26
2009/04/23 08:57:29.0     134     47     -9    143    144  70.5  -3.7  34170  289.75 0855.26
2009/04/23 08:57:29.1     103     -7     36    104    111  94.4  19.4  34150  289.41 0855.26
2009/04/23 08:57:29.2      50    -71     62     88    107 144.8  39.5  34134  289.14 0855.26
2009/04/23 08:57:29.3      23   -104     29    107    111 167.5  15.3  34114  288.79 0855.26
2009/04/23 08:57:29.4       8    -84     46     85     96 174.2  30.8  34110  288.74 0855.26
2009/04/23 08:57:29.5     -12   -118     32    119    124 186.3  15.2  34122  288.92 0855.26
2009/04/23 08:57:29.6      -9    -85    -19     86     89 186.2 -12.9  34128  289.04 0855.26
2009/04/23 08:57:29.7     -23   -114    -42    117    125 191.5 -19.7  34128  289.02 0855.26
2009/04/23 08:57:29.8      17    -64    -74     67     99 164.9 -57.1  34134  289.13 0855.26
2009/04/23 08:57:29.9      77    -16    -40     79     88 102.4 -32.6  34158  289.55 0855.26
2009/04/23 08:57:30.0     115    -49    -66    126    142 113.1 -34.2  34172  289.79 0855.26
2009/04/23 08:57:30.1      64    -15    -98     66    118 103.3 -67.1  34152  289.45 0855.26
2009/04/23 08:57:30.2      43     45   -125     63    139  43.3 -75.4  34154  289.48 0855.26
2009/04/23 08:57:30.3     181     43    -77    187    202  76.5 -28.0  34146  289.33 0855.26
2009/04/23 08:57:30.4     195     16    -64    196    206  85.2 -23.8  34154  289.46 0855.26
2009/04/23 08:57:30.5     101     50    -58    113    127  63.4 -33.7  34174  289.80 0855.26
2009/04/23 08:57:30.6      23     58     90     63    109  21.9  61.5  34166  289.67 0855.27
2009/04/23 08:57:30.7     -38     84    100     93    136 335.5  52.2  34158  289.55 0855.27
2009/04/23 08:57:30.8     -65     76     23    101    104 319.5  13.2  34146  289.35 0855.27
2009/04/23 08:57:30.9     -20    142     54    144    153 351.9  21.0  34148  289.38 0855.27
2009/04/23 08:57:31.0     -18    246     -9    247    248 355.6  -2.2  34152  289.44 0855.27
2009/04/23 08:57:31.1      -3    220    -66    221    230 359.1 -21.7  34130  289.06 0855.27
2009/04/23 08:57:31.2     148    167     82    224    238  41.7  21.0  34150  289.41 0855.27
2009/04/23 08:57:31.3     135    184     59    229    237  36.3  14.5  34164  289.63 0855.27
2009/04/23 08:57:31.4      84    188     43    206    211  24.1  12.0  34156  289.50 0855.27
2009/04/23 08:57:31.5      30    166     -4    169    170  10.5  -1.6  34150  289.41 0855.27
2009/04/23 08:57:31.6      30    148    -46    151    158  11.5 -17.0  34142  289.28 0855.27
2009/04/23 08:57:31.7      60    183    -43    193    198  18.3 -12.6  34128  289.02 0855.27
2009/04/23 08:57:31.8      10    141    -65    142    156   4.4 -31.0  34138  289.19 0855.27
2009/04/23 08:57:31.9      11     84    -60     85    104   8.0 -43.0  34140  289.23 0855.27
2009/04/23 08:57:32.1      36    135    -47    140    148  15.2 -18.7  34136  289.18 0855.27
2009/04/23 08:57:32.1      54    108    -19    121    123  26.7  -9.3  34126  289.01 0855.27
2009/04/23 08:57:32.2       8    107    -36    108    113   4.5 -23.6  34120  288.91 0855.27
2009/04/23 08:57:32.3      -4    166    -73    167    182 358.6 -29.5  34106  288.67 0855.27
2009/04/23 08:57:32.4     -22     68    -67     72     98 341.7 -52.3  34106  288.65 0855.27
2009/04/23 08:57:32.5    -122    133    -73    181    195 317.5 -27.4  34084  288.28 0855.27
2009/04/23 08:57:32.6    -195     85   -114    213    241 293.5 -34.7  34066  287.99 0855.26
2009/04/23 08:57:32.7    -198    197    -99    280    298 314.8 -19.6  34056  287.80 0855.26
2009/04/23 08:57:32.8    -156     91   -156    181    238 300.2 -49.5  34056  287.82 0855.26
2009/04/23 08:57:32.9    -180    114   -169    214    272 302.4 -46.8  34108  288.70 0855.26
2009/04/23 08:57:33.1    -180     60   -192    190    270 288.4 -54.5  34092  288.43 0855.26
2009/04/23 08:57:33.1    -203    103   -114    228    254 297.1 -32.9  34120  288.88 0855.26
2009/04/23 08:57:33.2    -148    143    -64    206    215 314.0 -22.5  34122  288.92 0855.26
2009/04/23 08:57:33.4    -246    -21    -41    247    251 265.0  -9.6  34104  288.61 0855.26
2009/04/23 08:57:33.5    -259     14     22    260    262 273.3   5.0  34102  288.59 0855.26
2009/04/23 08:57:33.6    -261     -4    -36    262    265 269.1  -8.0  34100  288.54 0855.26
2009/04/23 08:57:33.7    -246     45     94    251    268 280.5  21.5  34092  288.41 0855.26
2009/04/23 08:57:33.8    -170     14     68    171    184 275.0  22.8  34084  288.28 0855.26
2009/04/23 08:57:33.9    -123   -100     87    159    181 230.9  31.3  34108  288.70 0855.26
2009/04/23 08:57:34.0    -147   -147     95    209    229 225.0  26.4  34102  288.60 0855.26
2009/04/23 08:57:34.1    -146    -59     98    158    185 247.8  35.2  34098  288.53 0855.26
2009/04/23 08:57:34.2    -212   -108    148    239    281 242.9  34.8  34096  288.48 0855.26
2009/04/23 08:57:34.3    -272    -49     23    277    279 259.6   4.9  34094  288.46 0855.26
2009/04/23 08:57:34.4    -281    -21     14    282    283 265.6   2.9  34104  288.63 0855.26
2009/04/23 08:57:34.5    -254     -3     16    255    256 269.2   3.6  34112  288.76 0855.26
2009/04/23 08:57:34.6    -207     -6     18    208    209 268.1   5.2  34112  288.77 0855.26
2009/04/23 08:57:34.7    -214    -28    -19    216    217 262.3  -5.1  34102  288.58 0855.26
2009/04/23 08:57:34.8    -217      9      3    218    219 272.5   1.0  34122  288.92 0855.26
2009/04/23 08:57:34.9    -212    -49     -4    218    219 256.8  -1.3  34106  288.65 0855.26
2009/04/23 08:57:35.0    -256    -68     33    265    268 255.0   7.1  34106  288.66 0855.26
2009/04/23 08:57:35.1    -280    -73    -24    290    292 255.4  -4.9  34110  288.71 0855.26
2009/04/23 08:57:35.2    -277    -39    -25    280    282 261.9  -5.2  34096  288.48 0855.26
2009/04/23 08:57:35.3    -221      0    -10    222    223 269.9  -2.6  34088  288.36 0855.26
2009/04/23 08:57:35.4    -218    -25    -45    220    225 263.4 -11.6  34086  288.33 0855.26
2009/04/23 08:57:35.5    -288    -49    -70    293    302 260.3 -13.4  34088  288.36 0855.26
2009/04/23 08:57:35.6    -319   -113    -86    339    350 250.5 -14.3  34088  288.35 0855.26
2009/04/23 08:57:35.7    -313   -133    -74    341    350 246.9 -12.3  34084  288.28 0855.26
2009/04/23 08:57:35.8    -215   -107   -117    241    267 243.4 -31.8  34078  288.19 0855.26
2009/04/23 08:57:35.9    -157   -157    -54    223    230 225.0 -13.7  34080  288.23 0855.26
2009/04/23 08:57:36.0    -211   -134    -77    251    262 237.6 -22.1  34080  288.22 0855.26
2009/04/23 08:57:36.1    -243    -35    -70    246    256 261.6 -16.0  34082  288.26 0855.26
2009/04/23 08:57:36.2    -331    -75    -68    340    347 257.1 -11.3  34084  288.30 0855.26
2009/04/23 08:57:36.3    -369    -48     12    373    374 262.6   1.9  34074  288.13 0855.26
2009/04/23 08:57:36.4    -400     -4     -7    401    402 269.4  -1.1  34070  288.05 0855.26
2009/04/23 08:57:36.5    -363    -19     -7    364    365 267.0  -1.2  34084  288.27 0855.26
2009/04/23 08:57:36.6    -193   -114     -4    225    226 239.4  -1.2  34076  288.16 0855.26
2009/04/23 08:57:36.7    -243   -173     -5    299    300 234.5  -1.1  34070  288.04 0855.27
2009/04/23 08:57:36.8    -279    -93     30    295    297 251.4   5.9  34066  287.97 0855.27
2009/04/23 08:57:36.9    -290    -57     57    296    302 258.8  11.0  34068  288.00 0855.27
2009/04/23 08:57:37.0    -357    -30     35    359    361 265.1   5.7  34064  287.96 0855.27
2009/04/23 08:57:37.1    -362    -55     43    367    370 261.3   6.7  34074  288.10 0855.27
2009/04/23 08:57:37.2    -375     -5    -75    376    384 269.1 -11.3  34068  288.00 0855.27
2009/04/23 08:57:37.3    -517      6    -66    518    523 270.7  -7.3  34072  288.08 0855.27
2009/04/23 08:57:37.4    -478    -15   -114    479    493 268.1 -13.4  34070  288.05 0855.27
2009/04/23 08:57:37.5    -492    -76   -114    498    511 261.2 -12.9  34064  287.95 0855.27
2009/04/23 08:57:37.6    -519    -13     -2    520    521 268.5  -0.3  34062  287.91 0855.27
2009/04/23 08:57:37.7    -301     22    -43    302    306 274.3  -8.2  34070  288.05 0855.27
2009/04/23 08:57:37.8    -385    -82    -50    394    398 257.8  -7.3  34068  288.01 0855.27
2009/04/23 08:57:37.9    -550     68    -73    555    560 277.1  -7.6  34058  287.86 0855.27
2009/04/23 08:57:38.0    -405    102   -150    418    444 284.2 -25.1  34062  287.90 0855.27
2009/04/23 08:57:38.1    -502    138    -23    521    522 285.4  -2.6  34060  287.87 0855.27
2009/04/23 08:57:38.2    -404     93    -16    415    416 283.0  -2.2  34062  287.92 0855.27
2009/04/23 08:57:38.3    -207    -43     40    212    216 258.1  10.8  34062  287.92 0855.27
2009/04/23 08:57:38.4     -53   -152    -27    162    165 199.2  -9.6  34064  287.96 0855.27
2009/04/23 08:57:38.5     -22   -207    -62    209    218 186.3 -21.5  34068  288.01 0855.27
2009/04/23 08:57:38.6    -142   -346     19    375    376 202.3   2.9  34056  287.81 0855.27
2009/04/23 08:57:38.7    -105   -303    -45    321    325 199.2  -8.1  34054  287.77 0855.28
2009/04/23 08:57:38.8     -84   -278     36    291    294 196.9   7.2  34062  287.90 0855.28
2009/04/23 08:57:38.9    -123    -35     40    128    135 254.1  17.3  34054  287.77 0855.28
2009/04/23 08:57:39.0    -210   -167    -92    269    284 231.6 -23.6  34060  287.87 0855.28
2009/04/23 08:57:39.1    -224   -121    -98    255    273 241.6 -26.4  34048  287.68 0855.28
2009/04/23 08:57:39.2    -206   -111    -70    235    246 241.6 -16.6  34052  287.75 0855.28
2009/04/23 08:57:39.3    -263    -36     11    266    267 262.1   2.5  34054  287.78 0855.28
2009/04/23 08:57:39.4    -328     25    -38    330    333 274.5  -6.7  34050  287.72 0855.28
2009/04/23 08:57:39.5    -327    -44    -54    330    335 262.3  -9.3  34048  287.69 0855.28
2009/04/23 08:57:39.6    -278    -44    -83    282    293 261.0 -21.2  34048  287.68 0855.28
2009/04/23 08:57:39.7    -218     29   -114    220    247 277.7 -33.9  34050  287.71 0855.28
2009/04/23 08:57:39.8    -123     -2    -97    124    157 268.7 -46.6  34050  287.72 0855.28
2009/04/23 08:57:39.9    -136    -23    -71    138    155 260.4 -33.7  34052  287.74 0855.28
2009/04/23 08:57:40.0    -173     14    -90    174    195 274.8 -33.7  34052  287.76 0855.28
2009/04/23 08:57:40.1    -240    -36    -80    243    256 261.4 -18.3  34050  287.70 0855.28
2009/04/23 08:57:40.2    -311     62   -160    318    355 281.4 -33.3  34056  287.81 0855.28
2009/04/23 08:57:40.3    -191    132   -182    233    295 304.6 -46.1  34050  287.71 0855.28
2009/04/23 08:57:40.4     -38    -28   -206     48    211 234.0 -90.0  34052  287.74 0855.28
2009/04/23 08:57:40.5     -88     27   -166     93    190 287.3 -72.9  34050  287.72 0855.28
2009/04/23 08:57:40.6    -162      2   -182    163    244 270.8 -58.1  34046  287.65 0855.28
2009/04/23 08:57:40.7    -175     42   -131    181    223 283.7 -43.9  34048  287.69 0855.28
2009/04/23 08:57:40.8    -290      0      8    291    292 270.1   1.6  34050  287.70 0855.28
2009/04/23 08:57:40.9    -225    -45    -93    230    248 258.5 -27.5  34054  287.77 0855.28
2009/04/23 08:57:41.0    -176    -80    -21    194    196 245.4  -6.2  34046  287.64 0855.28
2009/04/23 08:57:41.1    -160      2     19    161    163 270.9   6.9  34052  287.74 0855.28
2009/04/23 08:57:41.2    -173     48    -58    180    190 285.7 -17.9  34054  287.79 0855.28
2009/04/23 08:57:41.3    -163     39    -74    168    183 283.5 -29.5  34054  287.79 0855.28
2009/04/23 08:57:41.4    -170     14    -91    171    193 275.0 -35.0  34052  287.76 0855.28
2009/04/23 08:57:41.5    -110     52   -101    122    158 295.4 -48.5  34054  287.77 0855.28
2009/04/23 08:57:41.6    -118     81    -66    144    158 304.6 -30.6  34052  287.76 0855.28
2009/04/23 08:57:41.7    -129     71    -19    148    150 298.8  -7.3  34054  287.79 0855.28
2009/04/23 08:57:41.8    -154     90      3    179    180 300.4   1.2  34060  287.87 0855.28
2009/04/23 08:57:41.9    -144     38    -64    150    163 285.1 -28.7  34056  287.81 0855.28
2009/04/23 08:57:42.0     -35     -2   -110     36    115 265.6 -85.1  34052  287.76 0855.28
2009/04/23 08:57:42.1    -244     51    -63    250    259 281.9 -14.3  34056  287.80 0855.28
2009/04/23 08:57:42.2    -212     43    -62    217    226 281.5 -16.0  34060  287.87 0855.28
2009/04/23 08:57:42.3    -239     23    -75    241    253 275.7 -17.3  34054  287.77 0855.28
2009/04/23 08:57:42.4    -262     33    -40    265    269 277.2  -8.6  34060  287.87 0855.28
2009/04/23 08:57:42.5    -249    -64    -81    258    270 255.6 -22.8  34054  287.77 0855.28
2009/04/23 08:57:42.6    -210   -124    -71    245    255 239.4 -20.8  34054  287.77 0855.28
2009/04/23 08:57:42.7    -244    -90    -71    261    271 249.8 -15.4  34052  287.73 0855.28
2009/04/23 08:57:42.8    -203    -13    -90    204    222 266.1 -29.6  34050  287.72 0855.28
2009/04/23 08:57:42.9    -108    -30    -81    113    139 254.1 -43.9  34052  287.76 0855.28
2009/04/23 08:57:43.0    -110   -103    -41    151    157 226.9 -15.5  34052  287.76 0855.28
2009/04/23 08:57:43.1    -126   -230   -103    263    282 208.7 -26.9  34056  287.80 0855.28
2009/04/23 08:57:43.2    -145   -138   -115    201    231 226.4 -37.1  34056  287.82 0855.28
2009/04/23 08:57:43.3    -340   -106   -116    357    376 252.7 -18.1  34058  287.83 0855.28
2009/04/23 08:57:43.4    -330    -94   -107    344    360 254.1 -22.3  34056  287.81 0855.28
2009/04/23 08:57:43.5     -96   -180   -112    205    233 208.1 -35.7  34052  287.76 0855.28
2009/04/23 08:57:43.6    -114   -193    -90    225    242 210.5 -27.4  34050  287.71 0855.28
2009/04/23 08:57:43.7    -201   -156    -77    255    267 232.2 -16.8  34054  287.77 0855.28
2009/04/23 08:57:43.8    -161   -169    -12    234    235 223.7  -3.1  34056  287.80 0855.28
2009/04/23 08:57:43.9     -80   -263     25    275    277 196.9   5.2  34052  287.75 0855.28
2009/04/23 08:57:44.0     -58   -291     41    297    301 191.3   8.0  34054  287.77 0855.28
2009/04/23 08:57:44.1     -46   -310     20    314    315 188.5   3.7  34054  287.78 0855.28
2009/04/23 08:57:44.2    -220   -220    -52    312    317 225.0  -9.6  34052  287.75 0855.28
2009/04/23 08:57:44.3    -263   -215    -66    340    347 230.7 -11.1  34054  287.78 0855.28
2009/04/23 08:57:44.4    -293   -223    -32    369    371 232.7  -5.1  34050  287.72 0855.28
2009/04/23 08:57:44.5    -181   -305     11    355    356 210.7   1.9  34056  287.81 0855.28
2009/04/23 08:57:44.6    -202   -335     17    392    393 211.0   2.5  34056  287.81 0855.28
2009/04/23 08:57:44.7    -155   -279    -20    320    321 209.0  -3.7  34054  287.77 0855.29
2009/04/23 08:57:44.8    -156   -310    -48    348    352 206.7  -8.0  34054  287.79 0855.29
2009/04/23 08:57:44.9    -124   -369    -64    390    396 198.7  -9.3  34060  287.88 0855.29
2009/04/23 08:57:45.0     -76   -369    -72    377    384 191.8 -10.8  34060  287.88 0855.29
2009/04/23 08:57:45.1     -90   -339    -32    351    353 194.9  -5.3  34058  287.86 0855.29
2009/04/23 08:57:45.2     -56   -343    -90    348    360 189.3 -14.6  34058  287.86 0855.29
2009/04/23 08:57:45.3      43   -351    -41    354    357 172.9  -6.7  34058  287.86 0855.29
2009/04/23 08:57:45.4      76   -378    -49    386    390 168.5  -7.3  34058  287.84 0855.29
2009/04/23 08:57:45.5      99   -286    -23    303    304 160.8  -4.4  34058  287.85 0855.29
2009/04/23 08:57:45.6      69   -317    -10    325    326 167.6  -1.9  34056  287.82 0855.29
2009/04/23 08:57:45.7      38   -235     78    239    252 170.7  18.1  34056  287.82 0855.29
2009/04/23 08:57:45.8     -39   -224     59    228    236 190.0  14.7  34060  287.88 0855.29
2009/04/23 08:57:45.9      80   -161    101    180    206 153.5  31.4  34058  287.84 0855.29
2009/04/23 08:57:46.0      80   -164    104    183    210 153.9  32.1  34056  287.82 0855.29
2009/04/23 08:57:46.1      54   -162    100    171    198 161.5  33.1  34056  287.82 0855.29
2009/04/23 08:57:46.2       1   -177     96    178    202 179.5  31.0  34058  287.86 0855.29
2009/04/23 08:57:46.3      -1   -180     39    181    186 180.5  12.2  34056  287.82 0855.29
2009/04/23 08:57:46.4      27   -252     45    254    259 173.8  10.1  34060  287.87 0855.29
2009/04/23 08:57:46.5      -3   -252     46    253    258 180.9  10.3  34058  287.85 0855.29
2009/04/23 08:57:46.6      12   -221     80    222    235 176.9  20.7  34058  287.84 0855.29
2009/04/23 08:57:46.7       0   -193     94    194    215 180.2  27.4  34058  287.86 0855.28
2009/04/23 08:57:46.8      31   -291     80    293    304 173.8  15.3  34060  287.88 0855.28
2009/04/23 08:57:46.9      37   -210     64    214    224 169.8  16.6  34058  287.84 0855.28
2009/04/23 08:57:47.0       4   -244     61    245    253 179.0  14.2  34058  287.85 0855.28
2009/04/23 08:57:47.1       3   -303     93    304    318 179.3  17.0  34058  287.83 0855.28
2009/04/23 08:57:47.2     -46   -257    154    262    303 190.2  33.4  34054  287.77 0855.28
2009/04/23 08:57:47.3     -67   -284    119    292    315 193.3  23.5  34054  287.78 0855.28
2009/04/23 08:57:47.4     -62   -273     97    281    298 192.9  19.2  34058  287.83 0855.28
2009/04/23 08:57:47.5     -72   -237    154    248    291 196.9  35.2  34054  287.77 0855.28
2009/04/23 08:57:47.6     -57   -184    157    193    248 197.4  43.5  34048  287.69 0855.28
2009/04/23 08:57:47.7    -119   -125     62    173    183 223.7  20.2  34056  287.81 0855.27
2009/04/23 08:57:47.8     -54   -164     68    173    185 198.5  22.5  34052  287.76 0855.27
2009/04/23 08:57:47.9     -77   -269     71    280    289 196.0  14.3  34054  287.77 0855.27
2009/04/23 08:57:48.0     -72   -240     30    251    253 196.7   6.9  34056  287.80 0855.27
2009/04/23 08:57:48.1     -45   -194     99    200    223 193.1  28.2  34054  287.77 0855.27
2009/04/23 08:57:48.2    -102   -215     66    239    249 205.5  15.6  34054  287.78 0855.27
2009/04/23 08:57:48.3    -156   -179     17    238    239 221.0   4.2  34058  287.85 0855.27
2009/04/23 08:57:48.4    -208   -215     15    300    301 224.1   2.9  34056  287.80 0855.27
2009/04/23 08:57:48.5    -117   -246     -2    273    274 205.4  -0.5  34048  287.68 0855.27
2009/04/23 08:57:48.6    -129   -220    138    256    290 210.5  30.8  34052  287.75 0855.27
2009/04/23 08:57:48.7    -136   -188     95    233    251 216.0  23.4  34052  287.73 0855.27
2009/04/23 08:57:48.8     -80   -189    184    206    276 202.9  46.4  34054  287.77 0855.27
2009/04/23 08:57:48.9    -120   -222     31    253    255 208.5   7.1  34050  287.71 0855.27
2009/04/23 08:57:49.0     -83   -207     82    224    238 201.8  21.0  34050  287.71 0855.27
2009/04/23 08:57:49.1     -51   -195    128    202    239 194.7  35.5  34050  287.72 0855.27
2009/04/23 08:57:49.2     -70   -203    124    216    249 199.2  32.4  34052  287.73 0855.27
2009/04/23 08:57:49.3    -186   -155     89    243    258 230.2  21.0  34052  287.75 0855.27
2009/04/23 08:57:49.4    -167   -177     88    244    260 223.2  19.9  34052  287.75 0855.27
2009/04/23 08:57:49.5     -90   -190     66    211    222 205.3  17.3  34052  287.76 0855.27
2009/04/23 08:57:49.6      51   -116    148    127    195 156.3  55.4  34052  287.74 0855.27
2009/04/23 08:57:49.7     -18    -41    107     45    116 203.6  76.1  34050  287.72 0855.27
2009/04/23 08:57:49.8     -18   -164    211    166    268 186.5  57.7  34050  287.71 0855.27
2009/04/23 08:57:49.9     -39   -167    178    172    247 193.1  51.2  34050  287.72 0855.27
2009/04/23 08:57:50.0      -7    -33    104     34    109 193.4  80.7  34052  287.74 0855.27
2009/04/23 08:57:50.1     -22    -17     65     28     70 232.2  75.0  34050  287.72 0855.27
2009/04/23 08:57:50.2     -38    -70    160     80    178 208.9  71.7  34052  287.76 0855.27
2009/04/23 08:57:50.3      -2    -37     90     38     97 184.5  76.1  34052  287.74 0855.27
2009/04/23 08:57:50.4      35   -213    108    216    241 170.7  28.5  34054  287.77 0855.27
2009/04/23 08:57:50.5      -3   -220    123    221    252 181.0  31.6  34054  287.78 0855.27
2009/04/23 08:57:50.6     -25   -220    118    222    251 186.5  30.3  34052  287.75 0855.27
2009/04/23 08:57:50.7       3   -197     69    198    210 179.0  19.2  34054  287.77 0855.27
2009/04/23 08:57:50.8     -20   -297     18    298    299 184.0   3.6  34056  287.80 0855.27
2009/04/23 08:57:50.9     -81   -324    -29    334    336 194.1  -5.1  34054  287.78 0855.27
2009/04/23 08:57:51.0    -115   -318     42    339    342 200.0   7.1  34050  287.72 0855.27
2009/04/23 08:57:51.1     -89   -319     34    332    334 195.6   5.9  34054  287.79 0855.27
2009/04/23 08:57:51.2     -59   -291      8    298    299 191.6   1.7  34054  287.77 0855.27
2009/04/23 08:57:51.3     -33   -269     23    272    274 187.1   5.0  34054  287.78 0855.27
2009/04/23 08:57:51.4       3   -287     29    288    290 179.3   5.9  34054  287.77 0855.27
2009/04/23 08:57:51.5      38   -284    -14    287    288 172.2  -2.8  34056  287.82 0855.27
2009/04/23 08:57:51.6     -13   -302    -52    303    308 182.6  -9.8  34052  287.75 0855.27
2009/04/23 08:57:51.7     -41   -291    -48    294    298 188.1  -9.3  34050  287.70 0855.26
2009/04/23 08:57:51.8     -31   -274    -86    276    289 186.5 -22.5  34050  287.71 0855.26
2009/04/23 08:57:51.9     -38   -216    -68    220    230 190.0 -22.5  34052  287.74 0855.26
2009/04/23 08:57:52.0    -112   -194    -62    225    234 210.1 -15.4  34048  287.67 0855.26
2009/04/23 08:57:52.1    -114   -208    -97    238    257 208.9 -27.5  34050  287.71 0855.26
2009/04/23 08:57:52.2     -57   -196      5    205    206 196.3   1.6  34050  287.70 0855.26
2009/04/23 08:57:52.3     -63   -165    -71    177    190 200.9 -27.4  34048  287.69 0855.26
2009/04/23 08:57:52.4     -50   -113    -14    124    125 204.1  -6.7  34048  287.69 0855.26
2009/04/23 08:57:52.5     -16   -216     11    217    218 184.5   2.9  34050  287.72 0855.26
2009/04/23 08:57:52.6      -5   -309     46    310    314 181.0   8.5  34052  287.75 0855.26
2009/04/23 08:57:52.7     -20   -265     62    266    274 184.5  13.1  34052  287.75 0855.26
2009/04/23 08:57:52.8     -38   -283     30    286    288 187.8   6.1  34052  287.75 0855.26
2009/04/23 08:57:52.9     -34   -267    -24    270    272 187.3  -5.1  34052  287.73 0855.26
2009/04/23 08:57:53.0     -60   -253    -57    261    268 193.4 -12.4  34052  287.73 0855.26
2009/04/23 08:57:53.1      17   -275    -50    276    281 176.4 -10.3  34048  287.68 0855.26
2009/04/23 08:57:53.2      33   -237     35    240    243 171.9   8.5  34052  287.75 0855.26
2009/04/23 08:57:53.3     -63   -226      2    235    236 195.8   0.7  34052  287.73 0855.26
2009/04/23 08:57:53.4    -135   -258    -37    292    295 207.6  -7.3  34050  287.71 0855.26
2009/04/23 08:57:53.5    -113   -176     47    210    216 212.7  12.6  34050  287.72 0855.26
2009/04/23 08:57:53.6     -56   -142     18    153    155 201.8   6.7  34048  287.67 0855.26
2009/04/23 08:57:53.7     -17   -217     60    218    227 184.5  15.6  34050  287.72 0855.25
2009/04/23 08:57:53.8     -32   -273     -5    275    276 186.9  -1.1  34050  287.71 0855.25
2009/04/23 08:57:53.9    -102   -226     21    248    249 204.3   5.0  34050  287.70 0855.25
2009/04/23 08:57:54.0     -54   -348     58    353    358 188.8   9.3  34050  287.72 0855.25
2009/04/23 08:57:54.1     -17   -388     27    389    390 182.6   4.0  34052  287.74 0855.25
2009/04/23 08:57:54.2      30   -319    116    321    342 174.6  19.9  34050  287.72 0855.25
2009/04/23 08:57:54.3      18   -244    113    245    269 175.6  26.6  34050  287.71 0855.25
2009/04/23 08:57:54.4      35   -221    129    224    258 170.9  32.4  34052  287.73 0855.25
2009/04/23 08:57:54.5      41   -268     94    272    289 171.3  19.2  34054  287.77 0855.25
2009/04/23 08:57:54.6      -8   -281     88    282    296 181.8  17.3  34052  287.75 0855.25
2009/04/23 08:57:54.7     -54   -286    101    292    310 190.7  19.2  34054  287.78 0855.25
2009/04/23 08:57:54.8     -72   -313    113    322    342 193.0  19.4  34048  287.67 0855.25
2009/04/23 08:57:54.9    -161   -320     17    359    360 206.7   2.8  34048  287.69 0855.25
2009/04/23 08:57:55.0    -154   -275    -26    316    318 209.2  -4.8  34050  287.70 0855.25
2009/04/23 08:57:55.1    -149   -372     -4    401    402 201.8  -0.6  34040  287.54 0855.25
2009/04/23 08:57:55.2    -150   -374     67    404    410 201.9   9.4  34048  287.67 0855.25
2009/04/23 08:57:55.3    -143   -332    -20    362    363 203.3  -3.3  34046  287.64 0855.25
2009/04/23 08:57:55.4    -127   -300     27    326    328 202.9   4.9  34044  287.60 0855.25
2009/04/23 08:57:55.5    -138   -344     20    371    372 201.9   3.1  34044  287.62 0855.25
2009/04/23 08:57:55.6     -95   -331     21    345    346 196.0   3.6  34052  287.76 0855.25
2009/04/23 08:57:55.7     -42   -339     20    342    343 187.2   3.5  34054  287.79 0855.24
2009/04/23 08:57:55.9     -49   -341     -8    345    346 188.2  -1.4  34048  287.66 0855.24
2009/04/23 08:57:55.9     -66   -282    -42    290    294 193.3  -8.3  34040  287.53 0855.24
2009/04/23 08:57:56.0    -130   -237    -12    271    272 208.7  -2.6  34048  287.66 0855.24
2009/04/23 08:57:56.1    -165   -236    -25    289    291 215.0  -5.1  34050  287.70 0855.24
2009/04/23 08:57:56.2    -100   -167   -106    195    221 211.0 -35.7  34044  287.62 0855.24
2009/04/23 08:57:56.3    -212   -289   -139    359    384 216.2 -26.7  34044  287.61 0855.24
2009/04/23 08:57:56.4    -164   -302   -156    344    377 208.5 -30.6  34048  287.67 0855.24
2009/04/23 08:57:56.5    -156   -223   -201    273    339 215.0 -44.4  34046  287.63 0855.24
2009/04/23 08:57:56.6    -229   -194   -150    301    336 229.8 -32.9  34048  287.68 0855.24
2009/04/23 08:57:56.7    -196   -244   -103    313    329 218.8 -23.6  34046  287.65 0855.24
2009/04/23 08:57:56.8    -220   -198    -88    297    309 228.0 -21.7  34050  287.71 0855.24
2009/04/23 08:57:56.9    -153   -200    -86    252    266 217.4 -23.6  34046  287.63 0855.24
2009/04/23 08:57:57.0    -207   -189   -100    281    299 227.6 -19.7  34050  287.70 0855.24
2009/04/23 08:57:57.1    -227   -214    -94    312    325 226.7 -21.7  34050  287.71 0855.24
2009/04/23 08:57:57.2    -213   -176    -82    277    288 230.5 -21.7  34050  287.70 0855.24
2009/04/23 08:57:57.3    -220   -207    -49    303    308 226.7  -9.3  34050  287.70 0855.24
2009/04/23 08:57:57.4    -165   -192    -51    254    260 220.6 -11.5  34048  287.68 0855.24
2009/04/23 08:57:57.5    -156   -188    -75    245    257 219.7 -17.0  34048  287.68 0855.24
2009/04/23 08:57:57.6    -156   -168    -71    230    241 222.8 -17.3  34052  287.75 0855.24
2009/04/23 08:57:57.7    -164   -127    -74    208    222 232.2 -19.7  34052  287.74 0855.24
2009/04/23 08:57:57.8    -178   -115    -52    213    220 237.1 -13.7  34052  287.74 0855.24
2009/04/23 08:57:57.9    -133   -125    -38    183    188 226.9 -11.9  34052  287.74 0855.24
2009/04/23 08:57:58.0     -98   -256     33    275    277 200.9   6.9  34050  287.71 0855.24
2009/04/23 08:57:58.1     -95   -298     -9    313    314 197.8  -1.8  34050  287.71 0855.24
2009/04/23 08:57:58.2     -87   -272    -49    286    291 197.8  -9.8  34050  287.71 0855.24
2009/04/23 08:57:58.3    -120   -146    -52    190    198 219.4 -15.5  34050  287.72 0855.24
2009/04/23 08:57:58.5     -81   -169    -52    188    196 205.6 -15.4  34050  287.70 0855.24
2009/04/23 08:57:58.5    -101   -165    -39    194    198 211.6 -11.5  34050  287.70 0855.24
2009/04/23 08:57:58.7     -91   -152    -28    178    181 211.0  -9.0  34050  287.70 0855.24
2009/04/23 08:57:58.8     -86   -143    -19    168    170 211.0  -6.5  34052  287.74 0855.24
2009/04/23 08:57:58.8     -24   -161     47    163    170 188.5  16.3  34050  287.72 0855.24
2009/04/23 08:57:58.9       3   -205     70    206    218 179.1  18.9  34048  287.69 0855.24
2009/04/23 08:57:59.1      15   -209     74    210    223 175.8  19.4  34050  287.72 0855.24
2009/04/23 08:57:59.1      17   -201     86    202    219 174.9  24.6  34050  287.70 0855.24
2009/04/23 08:57:59.2      42   -192     75    197    210 167.5  21.7  34052  287.76 0855.24
2009/04/23 08:57:59.4      76   -190     62    205    215 158.2  16.8  34048  287.69 0855.24
2009/04/23 08:57:59.5      -2   -189     27    190    193 180.7   8.2  34050  287.72 0855.24
2009/04/23 08:57:59.6     -63   -214     22    224    226 196.5   5.7  34050  287.72 0855.24
2009/04/23 08:57:59.7      -5   -212      0    213    214 181.6  -0.3  34050  287.72 0855.24
2009/04/23 08:57:59.8     -16   -196    -48    197    203 184.7 -13.7  34052  287.74 0855.25
2009/04/23 08:57:59.9       0   -224    -38    225    229 179.8  -9.6  34050  287.70 0855.25
2009/04/23 08:58:00.0      25   -179    -62    181    192 172.0 -19.1  34052  287.74 0855.25
2009/04/23 08:58:00.1     -40   -199     -8    204    205 191.5  -2.3  34050  287.70 0855.25
2009/04/23 08:58:00.2    -121   -198     -5    233    234 211.4  -1.3  34048  287.66 0855.25
2009/04/23 08:58:00.3     -31   -222    -28    225    227 188.0  -7.2  34048  287.67 0855.25
2009/04/23 08:58:00.4     -21   -277    -10    278    279 184.4  -2.1  34050  287.71 0855.25
2009/04/23 08:58:00.5     -37   -360    -16    362    363 186.0  -2.6  34048  287.66 0855.25
2009/04/23 08:58:00.6      21   -309     42    310    313 176.0   7.8  34042  287.58 0855.25
2009/04/23 08:58:00.7      13   -297     77    298    308 177.3  14.5  34046  287.65 0855.25
2009/04/23 08:58:00.8     -55   -297     28    303    305 190.6   5.4  34046  287.63 0855.25
2009/04/23 08:58:00.9     -92   -239     17    257    258 201.2   3.8  34046  287.65 0855.25
2009/04/23 08:58:01.0      26   -180      8    182    183 171.8   2.8  34048  287.67 0855.25
2009/04/23 08:58:01.1      81   -163    -36    183    187 153.5 -11.3  34048  287.69 0855.25
2009/04/23 08:58:01.2      12   -159    -90    160    183 175.6 -36.3  34046  287.64 0855.25
2009/04/23 08:58:01.3     -15   -196   -138    197    240 184.5 -42.9  34048  287.67 0855.25
2009/04/23 08:58:01.4      31   -188    -91    191    211 170.4 -31.6  34048  287.69 0855.25
2009/04/23 08:58:01.5      82   -262    -67    275    284 162.6 -13.7  34046  287.65 0855.25
2009/04/23 08:58:01.6      92   -287     15    302    303 162.1   2.9  34046  287.63 0855.25
2009/04/23 08:58:01.7       0   -254     40    255    259 180.2   9.0  34046  287.63 0855.25
2009/04/23 08:58:01.8     -49   -287    110    292    312 189.8  21.6  34042  287.58 0855.26
2009/04/23 08:58:01.9      62   -320    115    326    345 169.0  20.1  34042  287.59 0855.26
2009/04/23 08:58:02.0       0   -307    114    308    328 180.1  21.3  34046  287.63 0855.26
2009/04/23 08:58:02.1     107   -317    101    335    350 161.3  16.8  34044  287.61 0855.26
2009/04/23 08:58:02.2      63   -309    111    316    334 168.4  20.1  34046  287.64 0855.26
2009/04/23 08:58:02.3      78   -289    122    300    323 164.9  23.5  34044  287.60 0855.26
2009/04/23 08:58:02.4      81   -330    119    340    361 166.1  19.3  34046  287.64 0855.26
2009/04/23 08:58:02.5     109   -282     83    303    315 158.8  15.3  34044  287.61 0855.26
2009/04/23 08:58:02.6      94   -291     51    306    311 162.1   9.5  34044  287.61 0855.26
2009/04/23 08:58:02.7      73   -310     85    319    331 166.6  14.9  34042  287.58 0855.26
2009/04/23 08:58:02.8      28   -329    107    331    348 175.0  17.9  34044  287.61 0855.26
2009/04/23 08:58:02.9       5   -278     98    279    295 178.9  20.0  34046  287.63 0855.26
2009/04/23 08:58:03.0       0   -263     66    264    273 180.0  14.2  34046  287.65 0855.26
2009/04/23 08:58:03.1     -89   -264     87    279    293 198.7  17.3  34044  287.61 0855.26
2009/04/23 08:58:03.2    -151   -288     66    326    333 207.7  11.4  34044  287.61 0855.26
2009/04/23 08:58:03.3    -134   -234     97    270    286 209.8  20.4  34042  287.58 0855.26
2009/04/23 08:58:03.4    -113   -219     98    247    265 207.4  23.0  34044  287.61 0855.26
2009/04/23 08:58:03.5    -150   -272     48    311    315 208.9   8.8  34044  287.61 0855.26
2009/04/23 08:58:03.6     -58   -324     67    330    337 190.3  11.5  34042  287.57 0855.26
2009/04/23 08:58:03.7     -99   -333    123    348    369 196.7  20.2  34042  287.59 0855.26
2009/04/23 08:58:03.8    -175   -312     61    358    364 209.3   9.7  34044  287.61 0855.25
2009/04/23 08:58:03.9    -196   -289     17    350    351 214.1   2.9  34042  287.59 0855.25
2009/04/23 08:58:04.0    -220   -303    -40    375    378 216.0  -6.2  34042  287.57 0855.25
2009/04/23 08:58:04.1    -214   -302    -59    371    376 215.3  -9.1  34040  287.54 0855.25
2009/04/23 08:58:04.2    -221   -315    -69    385    392 215.1 -10.2  34044  287.61 0855.25
2009/04/23 08:58:04.3    -188   -374    -38    419    421 206.8  -5.2  34042  287.58 0855.25
2009/04/23 08:58:04.4    -134   -427    -57    448    452 197.5  -7.3  34044  287.60 0855.25
2009/04/23 08:58:04.5    -141   -368    -52    395    399 201.0  -7.6  34044  287.62 0855.25
2009/04/23 08:58:04.6    -143   -383    -54    409    413 200.5  -7.6  34044  287.62 0855.25
2009/04/23 08:58:04.7    -149   -316    -68    350    357 205.3 -11.1  34042  287.57 0855.25
2009/04/23 08:58:04.8     -69   -318      2    326    327 192.4   0.4  34038  287.50 0855.25
2009/04/23 08:58:04.9     -65   -309     97    316    331 191.9  17.1  34048  287.66 0855.25
2009/04/23 08:58:05.0     -73   -363     61    371    377 191.5   9.3  34048  287.66 0855.25
2009/04/23 08:58:05.1     -71   -301    104    310    328 193.4  18.6  34048  287.68 0855.25
2009/04/23 08:58:05.2    -233   -364    117    433    449 212.6  15.2  34042  287.58 0855.25
2009/04/23 08:58:05.3    -244   -294    -59    383    388 219.7  -8.8  34058  287.84 0855.25
2009/04/23 08:58:05.4    -307   -269    -74    409    416 228.7 -10.4  34056  287.82 0855.25
2009/04/23 08:58:05.5    -291   -207   -113    358    376 234.5 -17.5  34064  287.96 0855.25
2009/04/23 08:58:05.6    -246   -204    -30    320    322 230.4  -5.4  34062  287.90 0855.25
2009/04/23 08:58:05.7    -139   -179    -11    227    228 217.8  -2.8  34048  287.69 0855.25
2009/04/23 08:58:05.8    -170   -147    -54    225    232 229.1 -13.7  34058  287.86 0855.23
2009/04/23 08:58:05.9    -200   -145    -64    248    257 234.0 -14.5  34066  287.99 0855.23
2009/04/23 08:58:06.0    -218   -193    -65    292    300 228.6 -12.6  34068  288.02 0855.23
2009/04/23 08:58:06.1    -195   -186    -38    270    273 226.4  -8.0  34068  288.02 0855.23
2009/04/23 08:58:06.2    -198   -172    -33    263    266 229.1  -7.2  34064  287.95 0855.23
2009/04/23 08:58:06.3    -193   -181      1    265    266 226.8   0.2  34064  287.93 0855.23
2009/04/23 08:58:06.4    -180   -187     -7    260    261 223.9  -1.6  34060  287.88 0855.23
2009/04/23 08:58:06.5    -162   -152    -12    223    224 226.9  -3.2  34052  287.74 0855.23
2009/04/23 08:58:06.6    -116   -119     12    167    168 224.3   4.4  34050  287.70 0855.23
2009/04/23 08:58:06.7     -99    -47    -65    110    127 244.7 -37.9  34058  287.86 0855.23
2009/04/23 08:58:06.8    -134    -74    -50    154    161 241.1 -23.3  34062  287.91 0855.23
2009/04/23 08:58:06.9    -121    -59    -48    135    144 243.8 -19.7  34060  287.89 0855.23
2009/04/23 08:58:07.0    -112    -55    -44    125    133 243.8 -19.7  34062  287.91 0855.23
2009/04/23 08:58:07.1    -114    -39    -45    121    129 250.9 -25.4  34062  287.91 0855.23
2009/04/23 08:58:07.2     -96    -21    -52     99    111 257.6 -34.2  34060  287.89 0855.23
2009/04/23 08:58:07.3     -85    -27    -76     90    117 252.3 -49.2  34060  287.87 0855.23
2009/04/23 08:58:07.4     -71    -18    -83     74    111 255.8 -58.1  34058  287.86 0855.23
2009/04/23 08:58:07.5     -60     -9    -74     61     95 261.2 -60.8  34060  287.87 0855.23
2009/04/23 08:58:07.6     -70      5    -82     71    108 274.3 -59.2  34058  287.84 0855.23
2009/04/23 08:58:07.7     -82    -17    -94     84    126 258.1 -57.7  34058  287.86 0855.23
2009/04/23 08:58:07.8     -55     -5    -75     56     93 264.8 -63.8  34060  287.87 0855.21
2009/04/23 08:58:07.9     -90    -48    -78    103    129 241.6 -45.6  34058  287.86 0855.21
2009/04/23 08:58:08.0    -136    -36    -49    141    149 254.9 -23.3  34060  287.87 0855.21
2009/04/23 08:58:08.1    -159    -41    -65    165    177 255.4 -27.2  34054  287.79 0855.21
2009/04/23 08:58:08.2    -149    -86    -29    173    176 240.0  -9.6  34052  287.76 0855.21
2009/04/23 08:58:08.3    -142    -33    -62    146    158 256.8 -28.7  34050  287.72 0855.21
2009/04/23 08:58:08.4    -131    -22    -92    133    161 260.4 -42.4  34054  287.79 0855.21
2009/04/23 08:58:08.5    -130      6    -77    131    151 273.0 -37.9  34054  287.77 0855.21
2009/04/23 08:58:08.6    -149      7    -95    150    177 273.0 -39.9  34052  287.76 0855.21
2009/04/23 08:58:08.7    -113    -30   -132    118    177 254.9 -57.9  34052  287.76 0855.21
2009/04/23 08:58:08.8    -102    -11   -147    103    179 263.4 -65.9  34052  287.74 0855.20
2009/04/23 08:58:08.9     -38    -46   -108     60    123 219.7 -73.2  34054  287.79 0855.20
2009/04/23 08:58:09.0     -34    -72    -93     80    122 205.3 -58.7  34054  287.79 0855.20
2009/04/23 08:58:09.1     -10   -137    -98    138    169 184.4 -43.2  34054  287.77 0855.20
2009/04/23 08:58:09.2     -11   -145    -74    146    163 184.5 -33.5  34052  287.74 0855.20
2009/04/23 08:58:09.3     -14   -137    -49    138    146 186.2 -24.4  34054  287.79 0855.20
2009/04/23 08:58:09.4      -3   -163    -53    164    173 181.1 -18.1  34054  287.79 0855.20
2009/04/23 08:58:09.5      -6   -137    -66    138    152 182.7 -31.6  34052  287.74 0855.20
2009/04/23 08:58:09.6      -8   -108    -63    109    125 184.4 -37.8  34050  287.72 0855.20
2009/04/23 08:58:09.7       0   -132    -12    133    134 180.4  -5.2  34052  287.76 0855.20
2009/04/23 08:58:09.8     -30   -136    -17    140    142 192.5  -7.2  34056  287.81 0855.20
2009/04/23 08:58:09.9     -48   -126    -23    135    138 200.9  -9.8  34054  287.77 0855.20
2009/04/23 08:58:10.0     -57    -22     -6     62     63 248.3  -6.2  34052  287.76 0855.20
2009/04/23 08:58:10.1     -51    -61    -19     80     83 219.6 -13.9  34052  287.76 0855.20
2009/04/23 08:58:10.2     -31    -10     11     33     35 251.4  18.9  34054  287.79 0855.20
2009/04/23 08:58:10.3     -15     -1      0     16     17 265.7   2.8  34054  287.79 0855.20
2009/04/23 08:58:10.4       0    -38    -33     39     51 180.9 -49.2  34054  287.77 0855.20
2009/04/23 08:58:10.5      29    -74      0     80     81 158.1  -0.3  34050  287.72 0855.20
2009/04/23 08:58:10.6      23    -67     25     72     77 160.8  19.2  34050  287.70 0855.20
2009/04/23 08:58:10.7      33    -70     16     78     80 154.7  11.6  34054  287.77 0855.20
2009/04/23 08:58:10.8      46    -76     24     89     93 148.8  15.3  34052  287.76 0855.19
2009/04/23 08:58:10.9      23    -57     23     62     66 158.1  20.0  34050  287.72 0855.19
2009/04/23 08:58:11.0       0    -49     23     50     55 180.9  27.1  34052  287.76 0855.19
2009/04/23 08:58:11.1       0    -56     25     57     62 180.9  25.1  34048  287.69 0855.19
2009/04/23 08:58:11.2     -13    -47     47     49     67 196.0  50.0  34052  287.76 0855.19
2009/04/23 08:58:11.3     -12     -4      4     13     14 251.6  19.2  34056  287.81 0855.19
2009/04/23 08:58:11.4      -3    -14     22     15     26 195.1  64.6  34054  287.79 0855.19
2009/04/23 08:58:11.5     -28    -67     33     73     80 202.7  26.2  34054  287.79 0855.19
2009/04/23 08:58:11.6     -33    -99      1    105    106 198.7   0.8  34052  287.76 0855.19
2009/04/23 08:58:11.7     -70    -79    -33    106    111 221.4 -22.3  34054  287.77 0855.19
2009/04/23 08:58:11.8     -70    -81    -12    108    109 221.0  -6.7  34054  287.77 0855.19
2009/04/23 08:58:11.9    -106    -58    -15    122    124 241.1  -7.3  34052  287.76 0855.19
2009/04/23 08:58:12.0     -91     -9    -22     92     95 263.9 -13.9  34052  287.74 0855.19
2009/04/23 08:58:12.1     -59      4    -65     60     88 274.4 -56.6  34054  287.79 0855.19
2009/04/23 08:58:12.2    -102     16    -60    104    120 279.2 -37.3  34054  287.79 0855.19
2009/04/23 08:58:12.3    -114      0    -37    115    122 270.0 -18.1  34054  287.77 0855.19
2009/04/23 08:58:12.4    -168     -6    -15    169    170 267.9  -5.4  34054  287.77 0855.19
2009/04/23 08:58:12.5    -153     11     -8    154    155 274.4  -3.1  34052  287.74 0855.19
2009/04/23 08:58:12.6    -182     13     18    183    184 274.1   5.9  34054  287.77 0855.19
2009/04/23 08:58:12.7    -205     -2      4    206    207 269.2   1.2  34054  287.79 0855.19
2009/04/23 08:58:12.8    -239    -51     25    245    247 257.8   5.9  34054  287.78 0855.19
2009/04/23 08:58:12.9    -234      7     41    235    239 271.9  10.1  34054  287.77 0855.19
2009/04/23 08:58:13.0    -218     -3    -15    219    220 269.2  -4.1  34056  287.81 0855.19
2009/04/23 08:58:13.1    -232     -3      8    233    234 269.1   2.1  34056  287.80 0855.19
2009/04/23 08:58:13.2    -219     -3     61    220    229 269.1  15.6  34054  287.79 0855.19
2009/04/23 08:58:13.3    -197     25     72    199    211 277.5  20.7  34056  287.81 0855.19
2009/04/23 08:58:13.4    -188      7     37    189    193 272.4  11.1  34056  287.81 0855.19
2009/04/23 08:58:13.5    -225    -31     -7    228    229 262.0  -1.8  34054  287.77 0855.19
2009/04/23 08:58:13.6    -156    -52     56    165    175 251.4  18.9  34058  287.84 0855.19
2009/04/23 08:58:13.7    -159    -87     59    182    192 241.1  17.9  34056  287.81 0855.19
2009/04/23 08:58:13.8     -59   -147     -8    159    160 201.8  -3.1  34054  287.79 0855.19
2009/04/23 08:58:13.9     -81   -124     -8    149    150 213.0  -3.1  34054  287.77 0855.19
2009/04/23 08:58:14.0     -24   -130    -33    133    138 190.7 -13.9  34054  287.79 0855.19
2009/04/23 08:58:14.1       1    -57    -24     58     62 178.2 -27.5  34054  287.79 0855.19
2009/04/23 08:58:14.2     -33    -45    -39     56     68 216.1 -43.0  34054  287.77 0855.19
2009/04/23 08:58:14.3     -64   -135     -6    150    151 205.4  -2.6  34052  287.76 0855.19
2009/04/23 08:58:14.4     -11   -115    -35    116    122 185.8 -17.0  34054  287.79 0855.19
2009/04/23 08:58:14.5     -30   -101     -4    106    107 196.9  -2.2  34056  287.81 0855.19
2009/04/23 08:58:14.6       7    -96    -10     97     98 175.5  -6.2  34056  287.81 0855.19
2009/04/23 08:58:14.7      51   -109     -8    121    122 154.6  -4.1  34056  287.82 0855.19
2009/04/23 08:58:14.8      -9   -132      0    133    134 184.0  -0.3  34058  287.84 0855.20
2009/04/23 08:58:14.9     -37    -86      1     94     95 203.2   0.8  34058  287.84 0855.20
2009/04/23 08:58:15.0      -1    -52     10     53     55 181.8  11.1  34056  287.82 0855.20
2009/04/23 08:58:15.1      28    -44     44     53     68 147.5  43.8  34056  287.82 0855.20
2009/04/23 08:58:15.2     102   -123      3    160    161 140.4   1.2  34058  287.86 0855.20
2009/04/23 08:58:15.3      57   -171    -57    181    189 161.5 -23.0  34058  287.86 0855.20
2009/04/23 08:58:15.4      66   -234    -72    244    254 164.2 -21.5  34058  287.85 0855.20
2009/04/23 08:58:15.5      91   -193     -4    214    215 154.7  -1.2  34058  287.86 0855.20
2009/04/23 08:58:15.6      86    -54     69    102    123 122.4  37.4  34062  287.92 0855.20
2009/04/23 08:58:15.7      52    -22     75     57     94 113.5  59.0  34064  287.94 0855.20
2009/04/23 08:58:15.8      14    -17     61     23     65 140.4  78.2  34062  287.91 0855.20
2009/04/23 08:58:15.9      44     -7     65     45     79  99.7  62.1  34062  287.91 0855.20
2009/04/23 08:58:16.0      86    -74     77    114    137 130.9  37.4  34060  287.87 0855.20
2009/04/23 08:58:16.1     115   -118     84    166    186 135.7  28.7  34060  287.87 0855.20
2009/04/23 08:58:16.2     139   -107     68    176    188 127.8  22.3  34058  287.86 0855.20
2009/04/23 08:58:16.3     103   -136     60    171    182 142.8  19.4  34060  287.87 0855.20
2009/04/23 08:58:16.4      80   -180     51    198    205 155.9  14.5  34058  287.86 0855.20
2009/04/23 08:58:16.5     112   -193     11    224    225 149.9   2.9  34058  287.86 0855.20
2009/04/23 08:58:16.6      87   -233    -31    249    251 159.5  -7.2  34062  287.90 0855.20
2009/04/23 08:58:16.7      97   -254    -34    273    276 159.0  -7.2  34062  287.92 0855.20
2009/04/23 08:58:16.8      70   -211    -20    223    224 161.5  -5.2  34058  287.86 0855.21
2009/04/23 08:58:16.9      18   -186     31    187    190 174.2   9.5  34056  287.82 0855.21
2009/04/23 08:58:17.0      -7    -91    118     92    149 184.4  57.9  34054  287.79 0855.21
2009/04/23 08:58:17.1     -13    -96     87     97    130 188.0  46.4  34052  287.76 0855.21
2009/04/23 08:58:17.2      31    -93    126     99    160 161.3  57.9  34056  287.82 0855.21
2009/04/23 08:58:17.3      95    -31    106    101    146 108.2  51.6  34056  287.82 0855.21
2009/04/23 08:58:17.4     118    -97    131    153    201 129.5  45.4  34052  287.76 0855.21
2009/04/23 08:58:17.5     106    -99    133    146    197 133.1  47.1  34054  287.77 0855.21
2009/04/23 08:58:17.6     146    -92    154    173    231 122.4  46.2  34062  287.92 0855.21
2009/04/23 08:58:17.7     129    -93    143    160    214 126.0  46.4  34064  287.94 0855.21
2009/04/23 08:58:17.8     155    -79    141    175    224 117.1  43.5  34062  287.91 0855.21
2009/04/23 08:58:17.9     200    -31    168    203    263  98.8  43.7  34070  288.05 0855.21
2009/04/23 08:58:18.0     221    -57    139    229    267 104.6  34.4  34072  288.09 0855.21
2009/04/23 08:58:18.1     173    -25    158    175    235  98.4  46.9  34094  288.45 0855.21
2009/04/23 08:58:18.2     147     21    129    149    197  81.6  45.6  34102  288.60 0855.21
2009/04/23 08:58:18.3     137    -29    146    141    202 101.9  50.9  34098  288.52 0855.21
2009/04/23 08:58:18.4     159      6    105    160    191  87.5  36.0  34096  288.50 0855.21
2009/04/23 08:58:18.5     196     23    109    198    226  83.2  31.3  34082  288.26 0855.21
2009/04/23 08:58:18.6     228    -21    151    230    275  95.5  36.5  34076  288.14 0855.21
2009/04/23 08:58:18.7     235     21    123    236    266  84.8  29.5  34072  288.07 0855.21
2009/04/23 08:58:18.8     212     85    113    229    255  68.2  28.2  34088  288.36 0855.21
2009/04/23 08:58:18.9     203     -4    100    204    227  91.3  27.8  34078  288.18 0855.21
2009/04/23 08:58:19.0     239     14    113    240    265  86.5  27.1  34090  288.37 0855.21
2009/04/23 08:58:19.1     342    120      4    363    364  70.6   0.7  34100  288.55 0855.21
2009/04/23 08:58:19.2     331     53    123    336    357  80.9  21.0  34078  288.20 0855.21
2009/04/23 08:58:19.3     292     24     69    294    302  85.2  13.2  34080  288.22 0855.21
2009/04/23 08:58:19.4     239     -5     79    240    253  91.3  18.4  34080  288.21 0855.21
2009/04/23 08:58:19.5     253    -11     69    254    264  92.6  15.2  34074  288.12 0855.21
2009/04/23 08:58:19.6     244     45     95    249    266  79.4  22.0  34096  288.49 0855.21
2009/04/23 08:58:19.7     310    114    114    331    351  69.7  19.1  34112  288.76 0855.21
2009/04/23 08:58:19.8     325    107    123    343    364  71.7  20.6  34084  288.28 0855.21
2009/04/23 08:58:19.9     334    157    121    370    390  64.8  18.1  34068  288.03 0855.21
2009/04/23 08:58:20.0     361    119     19    381    382  71.7   2.9  34066  287.98 0855.21
2009/04/23 08:58:20.1     489     88    -32    497    498  79.8  -3.7  34064  287.96 0855.21
2009/04/23 08:58:20.2     418     58     29    423    425  82.0   4.0  34062  287.92 0855.21
2009/04/23 08:58:20.3     355     98     23    369    370  74.5   3.6  34064  287.93 0855.21
2009/04/23 08:58:20.4     370    118     38    389    391  72.2   5.7  34060  287.88 0855.21
2009/04/23 08:58:20.5     368    119     53    387    391  72.1   7.9  34060  287.88 0855.21
2009/04/23 08:58:20.6     269    160    108    313    332  59.3  19.1  34064  287.95 0855.21
2009/04/23 08:58:20.7     302    139    106    333    350  65.2  17.7  34060  287.89 0855.21
2009/04/23 08:58:20.8     338    146    -20    369    370  66.7  -3.2  34068  288.00 0855.22
2009/04/23 08:58:20.9     228    130    167    263    311  60.2  35.5  34106  288.65 0855.22
2009/04/23 08:58:21.0     324    165    116    364    382  62.9  17.7  34132  289.10 0855.22
2009/04/23 08:58:21.1     356    144    108    385    400  67.9  15.7  34096  288.49 0855.22
2009/04/23 08:58:21.2     287     71     63    296    303  76.1  12.0  34132  289.09 0855.22
2009/04/23 08:58:21.3     274    114    122    297    321  67.4  23.6  34116  288.83 0855.22
2009/04/23 08:58:21.4     336    123    116    359    378  69.8  18.0  34070  288.06 0855.22
2009/04/23 08:58:21.5     265    124     86    293    306  64.9  16.4  34074  288.12 0855.22
2009/04/23 08:58:21.6     266     98     26    284    286  69.8   5.4  34074  288.10 0855.22
2009/04/23 08:58:21.7     210     92    -25    230    232  66.4  -6.2  34076  288.14 0855.22
2009/04/23 08:58:21.8     185     40     65    190    201  77.6  18.9  34072  288.09 0855.22
2009/04/23 08:58:21.9     177     61     65    188    200  70.9  19.2  34074  288.11 0855.22
2009/04/23 08:58:22.0     165    140     67    217    228  49.6  17.3  34076  288.14 0855.22
2009/04/23 08:58:22.1     167    115      9    204    205  55.4   2.8  34074  288.11 0855.22
2009/04/23 08:58:22.2     125     87     23    153    155  54.9   8.9  34074  288.11 0855.22
2009/04/23 08:58:22.3     130     59     13    143    144  65.6   5.4  34074  288.11 0855.22
2009/04/23 08:58:22.4     113     45      1    122    123  68.2   0.7  34074  288.11 0855.22
2009/04/23 08:58:22.5      65     41      3     77     78  57.6   2.9  34074  288.13 0855.22
2009/04/23 08:58:22.6      59     59      0     84     85  45.0   0.2  34076  288.14 0855.22
2009/04/23 08:58:22.7      32     33     34     47     58  44.1  39.7  34074  288.13 0855.22
2009/04/23 08:58:22.8      42     46     40     63     74  42.3  35.5  34076  288.16 0855.22
2009/04/23 08:58:22.9       5     48     57     49     75   6.2  55.4  34076  288.16 0855.22
2009/04/23 08:58:23.0     -23    127     57    130    141 349.8  25.1  34086  288.31 0855.22
2009/04/23 08:58:23.1     -22    130     57    132    143 350.2  24.6  34086  288.33 0855.22
2009/04/23 08:58:23.2     -47    143     62    151    163 341.5  23.4  34092  288.43 0855.22
2009/04/23 08:58:23.3     -32    165     32    169    173 348.9  11.0  34092  288.43 0855.22
2009/04/23 08:58:23.4      16    149     25    150    153   6.2   9.5  34088  288.35 0855.22
2009/04/23 08:58:23.5      15    105      9    107    108   8.5   4.9  34092  288.42 0855.22
2009/04/23 08:58:23.6     -20     60     27     64     69 341.5  23.1  34090  288.40 0855.22
2009/04/23 08:58:23.7     -74     68     66    101    120 312.7  36.0  34088  288.36 0855.22
2009/04/23 08:58:23.8     -69     53     75     88    115 307.8  44.3  34096  288.50 0855.22
2009/04/23 08:58:23.9     -69     64     68     95    116 312.7  39.1  34096  288.48 0855.22
2009/04/23 08:58:24.0     -76     38     71     86    111 296.6  43.7  34092  288.43 0855.22
2009/04/23 08:58:24.2     -67     39     94     78    122 300.7  56.3  34090  288.38 0855.22
2009/04/23 08:58:24.2     -59     38     90     71    114 303.3  57.5  34092  288.43 0855.22
2009/04/23 08:58:24.3     -48    -35     90     60    108 234.0  63.6  34088  288.36 0855.22
2009/04/23 08:58:24.4     -41    -24     92     48    103 239.3  69.8  34090  288.38 0855.22
2009/04/23 08:58:24.5    -129     48    105    138    173 290.4  41.2  34082  288.25 0855.22
2009/04/23 08:58:24.7    -222    -43    -12    227    228 259.0  -3.2  34080  288.23 0855.22
2009/04/23 08:58:24.7    -204    -55    -87    212    229 254.9 -27.5  34086  288.31 0855.22
2009/04/23 08:58:24.9    -210    -51    -71    217    229 256.3 -18.3  34084  288.28 0855.22
2009/04/23 08:58:24.9    -261      0   -110    262    284 270.0 -28.6  34080  288.22 0855.22
2009/04/23 08:58:25.0    -249     26   -105    251    272 276.1 -28.5  34076  288.14 0855.22
2009/04/23 08:58:25.1    -215     99    -27    237    239 294.8  -6.7  34080  288.21 0855.22
2009/04/23 08:58:25.2    -176      0     -2    177    178 270.0  -0.7  34080  288.21 0855.22
2009/04/23 08:58:25.3    -291    -63    -96    298    313 257.6 -22.9  34084  288.29 0855.22
2009/04/23 08:58:25.4    -202      1    -66    203    214 270.4 -18.1  34082  288.26 0855.22
2009/04/23 08:58:25.6    -169    122    -56    209    217 306.0 -15.0  34084  288.28 0855.22
2009/04/23 08:58:25.7    -139     26     22    142    144 280.6   9.0  34082  288.26 0855.22
2009/04/23 08:58:25.8    -115     30      4    119    120 284.6   2.3  34084  288.30 0855.22
2009/04/23 08:58:25.9    -119     22     49    122    131 280.6  23.0  34084  288.28 0855.22
2009/04/23 08:58:25.9     -74     25     96     79    124 288.6  56.4  34082  288.25 0855.22
2009/04/23 08:58:26.1    -168     34    102    172    199 281.5  33.5  34080  288.21 0855.22
2009/04/23 08:58:26.2    -188     66     80    200    215 289.5  23.0  34082  288.25 0855.22
2009/04/23 08:58:26.3    -161     19     56    163    173 277.0  18.9  34084  288.30 0855.22
2009/04/23 08:58:26.4    -127     58     85    140    163 294.8  34.2  34108  288.70 0855.22
2009/04/23 08:58:26.5     -80    -25     81     85    117 252.3  49.0  34116  288.84 0855.22
2009/04/23 08:58:26.6     -94    -76     28    122    126 230.9  13.2  34110  288.72 0855.22
2009/04/23 08:58:26.7      11   -123     -6    124    125 174.7  -3.1  34108  288.69 0855.22
2009/04/23 08:58:26.8     115    -98     97    152    180 130.4  35.5  34096  288.48 0855.22
2009/04/23 08:58:26.9     100    -67    122    121    171 123.7  49.9  34138  289.19 0855.21
2009/04/23 08:58:27.0      88    -25    127     92    156 106.4  60.8  34132  289.09 0855.21
2009/04/23 08:58:27.1      11     17     59     21     62  34.3  80.2  34126  288.99 0855.21
2009/04/23 08:58:27.2     -30      0     65     31     72 270.0  72.9  34116  288.82 0855.21
2009/04/23 08:58:27.3     -10     -9     78     14     79 226.7  90.0  34110  288.74 0855.21
2009/04/23 08:58:27.4     -84    -56     83    102    131 236.3  43.7  34128  289.02 0855.21
2009/04/23 08:58:27.5     -61    -75     50     97    109 219.2  29.3  34134  289.13 0855.21
2009/04/23 08:58:27.6     -20    -81     61     84    103 194.3  39.5  34136  289.18 0855.21
2009/04/23 08:58:27.7     -84   -126     66    152    165 213.8  24.9  34170  289.75 0855.21
2009/04/23 08:58:27.8     -92    -49    127    105    164 242.0  56.1  34166  289.69 0855.21
2009/04/23 08:58:27.9    -166    -51    108    174    204 252.7  35.2  34188  290.04 0855.21
2009/04/23 08:58:28.0    -176    -91    101    199    223 242.7  29.2  34190  290.09 0855.21
2009/04/23 08:58:28.1    -152    -76     99    171    197 243.4  32.9  34208  290.38 0855.21
2009/04/23 08:58:28.2    -135   -121    105    182    210 228.2  32.7  34210  290.41 0855.21
2009/04/23 08:58:28.3    -175   -109     89    207    225 238.2  25.1  34190  290.08 0855.21
2009/04/23 08:58:28.4    -168    -71     89    183    203 246.9  28.0  34186  290.01 0855.21
2009/04/23 08:58:28.5    -147    -39     50    153    162 255.0  18.1  34184  289.97 0855.21
2009/04/23 08:58:28.6    -117    -73     12    138    139 238.0   5.0  34154  289.48 0855.21
2009/04/23 08:58:28.7    -143    -80     25    165    167 240.7   8.8  34128  289.02 0855.21
2009/04/23 08:58:28.8    -107    -63     32    125    130 239.3  14.3  34154  289.48 0855.21
2009/04/23 08:58:28.9     -99    -72     24    123    126 234.1  11.0  34180  289.91 0855.21
2009/04/23 08:58:29.0     -62   -101      4    119    120 211.6   2.3  34120  288.91 0855.21
2009/04/23 08:58:29.1     -66   -180     64    193    204 200.3  18.4  34088  288.36 0855.21
2009/04/23 08:58:29.2     -74   -168     30    184    187 203.8   9.3  34090  288.38 0855.21
2009/04/23 08:58:29.3     -65   -102    -15    122    123 212.6  -7.3  34112  288.75 0855.21
2009/04/23 08:58:29.4    -106   -112     29    155    158 223.2  10.6  34144  289.31 0855.21
2009/04/23 08:58:29.5    -143    -85     21    167    169 239.3   7.5  34140  289.24 0855.21
2009/04/23 08:58:29.6    -117    -73     49    139    147 238.0  20.0  34136  289.18 0855.21
2009/04/23 08:58:29.7     -76    -78     67    110    128 224.1  34.4  34138  289.19 0855.21
2009/04/23 08:58:29.8    -102    -84     75    133    152 230.5  31.9  34102  288.58 0855.21
2009/04/23 08:58:29.9     -96   -124     81    158    177 217.8  29.1  34078  288.18 0855.22
2009/04/23 08:58:30.0     -49   -147     95    156    182 198.7  34.4  34066  287.99 0855.22
2009/04/23 08:58:30.1     -57   -144    127    156    201 201.8  43.5  34066  287.98 0855.22
2009/04/23 08:58:30.2     -70    -70     86    100    131 225.0  45.4  34068  288.03 0855.22
2009/04/23 08:58:30.3       9    -70     61     71     93 172.0  45.4  34066  287.99 0855.22
2009/04/23 08:58:30.4      -6    -87     92     88    127 184.4  51.2  34062  287.92 0855.22
2009/04/23 08:58:30.5      -6   -108    156    109    190 183.6  61.8  34068  288.01 0855.22
2009/04/23 08:58:30.6      21    -63     96     67    117 161.7  62.1  34068  288.01 0855.22
2009/04/23 08:58:30.7      38    -78     68     87    110 153.7  42.2  34066  287.99 0855.22
2009/04/23 08:58:30.8      30   -128     84    132    156 166.6  35.5  34068  288.01 0855.22
2009/04/23 08:58:30.9       2   -145     92    146    172 179.1  35.5  34064  287.96 0855.22
2009/04/23 08:58:31.0    -107   -100     89    147    171 226.9  34.4  34076  288.14 0855.22
2009/04/23 08:58:31.1     -22    -47     59     53     79 205.3  52.7  34114  288.80 0855.22
2009/04/23 08:58:31.2      19    -31     60     37     70 147.5  64.7  34098  288.52 0855.22
2009/04/23 08:58:31.3      11    -10     65     16     66 133.3  85.9  34078  288.18 0855.22
2009/04/23 08:58:31.4       7    -59    103     60    119 172.9  67.2  34078  288.20 0855.22
2009/04/23 08:58:31.5       3    -31     51     32     60 173.8  64.7  34072  288.08 0855.22
2009/04/23 08:58:31.6      21    -19     49     29     56 131.3  65.7  34076  288.14 0855.22
2009/04/23 08:58:31.7      60    -49     64     78    100 129.6  43.7  34072  288.08 0855.22
2009/04/23 08:58:31.8      85    -57     54    103    116 124.2  29.8  34068  288.03 0855.22
2009/04/23 08:58:31.9      78    -52     57     94    109 123.7  34.4  34070  288.04 0855.22
2009/04/23 08:58:32.0      72    -36     57     81     99 117.1  39.1  34070  288.06 0855.22
2009/04/23 08:58:32.1      62    -56     56     84    100 132.2  37.0  34072  288.08 0855.22
2009/04/23 08:58:32.2      42    -51     55     67     86 140.4  43.7  34068  288.03 0855.22
2009/04/23 08:58:32.3       0    -62     53     63     82 180.0  44.8  34070  288.06 0855.22
2009/04/23 08:58:32.4     -25    -75     56     80     97 198.3  38.0  34074  288.13 0855.22
2009/04/23 08:58:32.5     -37    -40     38     55     66 223.2  37.6  34078  288.20 0855.22
2009/04/23 08:58:32.6     -27    -18     68     33     75 235.8  72.8  34078  288.18 0855.22
2009/04/23 08:58:32.7     -24    -36     64     44     77 214.3  62.6  34074  288.13 0855.22
2009/04/23 08:58:32.8     -41    -65     16     78     80 212.5  11.6  34068  288.03 0855.22
2009/04/23 08:58:32.9     -17    -53      0     56     57 198.5  -0.3  34072  288.08 0855.22
2009/04/23 08:58:33.0      -7    -36    -17     37     40 191.6 -30.6  34072  288.09 0855.22
2009/04/23 08:58:33.1      21    -25    -19     33     38 140.4 -39.9  34074  288.11 0855.22
2009/04/23 08:58:33.2      46    -15      0     49     50 108.2   0.8  34076  288.14 0855.22
2009/04/23 08:58:33.3      53    -15     19     56     60 105.9  18.9  34078  288.18 0855.22
2009/04/23 08:58:33.4      62    -34     16     71     73 118.8  13.2  34080  288.21 0855.22
2009/04/23 08:58:33.5      42    -72     -3     84     85 149.7  -2.2  34078  288.20 0855.22
2009/04/23 08:58:33.6      25    -22    -12     34     36 131.3 -23.3  34086  288.31 0855.22
2009/04/23 08:58:33.7     -10    -28    -11     30     31 200.0 -23.3  34084  288.30 0855.22
2009/04/23 08:58:33.8     -28    -36     -2     46     47 217.8  -3.1  34086  288.33 0855.22
2009/04/23 08:58:33.9     -22    -78      8     82     83 196.0   5.9  34082  288.25 0855.22
2009/04/23 08:58:34.0     -14    -69    -18     71     74 191.5 -14.5  34080  288.21 0855.22
2009/04/23 08:58:34.1     -50    -42    -35     66     74 229.6 -34.7  34078  288.20 0855.22
2009/04/23 08:58:34.2     -31    -12    -16     34     37 248.3 -31.6  34078  288.18 0855.22
2009/04/23 08:58:34.3     -37     16     16     41     44 294.4  21.0  34080  288.21 0855.22
2009/04/23 08:58:34.4     -51    -10     43     53     68 258.6  43.7  34084  288.28 0855.22
2009/04/23 08:58:34.5     -72    -36     49     81     94 242.9  35.0  34082  288.26 0855.22
2009/04/23 08:58:34.6     -69     15     61     71     93 282.4  45.4  34082  288.25 0855.22
2009/04/23 08:58:34.7     -81     -3     70     82    107 267.4  44.8  34084  288.30 0855.22
2009/04/23 08:58:34.8     -63     20     57     67     87 288.2  44.8  34084  288.30 0855.22
2009/04/23 08:58:34.9     -57     19     52     61     80 288.4  44.8  34084  288.30 0855.22
2009/04/23 08:58:35.0     -45     23     29     51     58 297.1  33.5  34082  288.25 0855.22
2009/04/23 08:58:35.1     -26     23     12     35     38 311.3  19.4  34086  288.31 0855.22
2009/04/23 08:58:35.2     -30      0      1     31     32 270.0   2.8  34082  288.25 0855.22
2009/04/23 08:58:35.3      -7     -6    -16     10     18 226.9 -69.1  34080  288.23 0855.22
2009/04/23 08:58:35.4      -7    -13     -2     16     17 209.0  -7.2  34078  288.20 0855.22
2009/04/23 08:58:35.5       0    -14     40     15     42 182.7  79.2  34080  288.21 0855.22
2009/04/23 08:58:35.6      10     -9     58     14     59 133.3  86.9  34082  288.26 0855.22
2009/04/23 08:58:35.7      19    -19     34     27     43 135.0  57.5  34084  288.28 0855.22
2009/04/23 08:58:35.8      13    -13     41     19     45 136.6  72.9  34086  288.31 0855.22
2009/04/23 08:58:35.9      27    -14     48     31     57 117.1  64.6  34086  288.33 0855.23
2009/04/23 08:58:36.0      15    -43     69     46     82 160.0  63.2  34078  288.20 0855.23
2009/04/23 08:58:36.1       0    -51     48     52     70 179.1  47.9  34072  288.09 0855.23
2009/04/23 08:58:36.2       5    -53     27     54     60 173.8  28.2  34074  288.11 0855.23
2009/04/23 08:58:36.3      12    -38     19     40     44 162.2  26.2  34068  288.03 0855.23
2009/04/23 08:58:36.4      15    -34     22     38     43 156.4  32.4  34070  288.06 0855.23
2009/04/23 08:58:36.5      30    -22     21     38     43 126.0  31.4  34072  288.08 0855.23
2009/04/23 08:58:36.6      36     -7     15     37     39 101.4  24.1  34072  288.08 0855.23
2009/04/23 08:58:36.7      40    -32      3     52     53 128.6   3.8  34072  288.08 0855.23
2009/04/23 08:58:36.8      37    -12      7     39     40 108.2  11.1  34072  288.09 0855.23
2009/04/23 08:58:36.9      54    -11     -6     56     57 101.4  -6.2  34070  288.04 0855.23
2009/04/23 08:58:37.0      23    -15      0     28     29 122.5   0.8  34072  288.09 0855.23
2009/04/23 08:58:37.1      14    -46    -32     49     58 162.2 -40.0  34072  288.08 0855.23
2009/04/23 08:58:37.2      10    -82    -28     83     87 172.9 -23.6  34068  288.03 0855.23
2009/04/23 08:58:37.3      22    -96    -45     99    108 167.1 -31.0  34066  287.99 0855.23
2009/04/23 08:58:37.4      20   -108      1    110    111 169.3   0.8  34068  288.03 0855.23
2009/04/23 08:58:37.5       8   -102     49    103    114 175.5  27.3  34068  288.01 0855.23
2009/04/23 08:58:37.6     -34   -111     63    117    132 196.9  31.3  34068  288.01 0855.23
2009/04/23 08:58:37.7       7    -97     49     98    109 175.5  28.2  34070  288.04 0855.23
2009/04/23 08:58:37.8      47   -100     53    111    123 154.5  27.2  34066  287.98 0855.23
2009/04/23 08:58:37.9      29   -106     80    111    136 164.4  39.5  34066  287.98 0855.23
2009/04/23 08:58:38.0      69   -147     53    163    172 154.6  18.1  34068  288.01 0855.23
2009/04/23 08:58:38.1      24   -175     35    177    181 172.2  11.4  34066  287.99 0855.23
2009/04/23 08:58:38.2      60   -129     57    143    153 155.1  23.0  34068  288.01 0855.23
2009/04/23 08:58:38.3      65   -116     51    134    143 150.6  21.5  34066  287.99 0855.23
2009/04/23 08:58:38.4      61   -103     32    120    125 149.3  15.2  34066  287.99 0855.23
2009/04/23 08:58:38.5      45   -142     54    150    159 162.2  20.4  34068  288.01 0855.23
2009/04/23 08:58:38.6      17   -147     46    149    157 173.3  17.3  34066  287.98 0855.23
2009/04/23 08:58:38.7      51   -146     54    155    165 160.4  19.2  34068  288.03 0855.23
2009/04/23 08:58:38.8      40   -192     74    197    210 168.2  21.0  34064  287.94 0855.23
2009/04/23 08:58:38.9      92   -170     81    194    210 151.5  24.1  34062  287.91 0855.23
2009/04/23 08:58:39.0      48   -172     93    179    201 164.4  29.5  34062  287.92 0855.23
2009/04/23 08:58:39.1      28   -149    101    152    182 169.3  36.5  34064  287.94 0855.23
2009/04/23 08:58:39.2      11   -151    100    152    181 175.6  36.3  34066  287.98 0855.23
2009/04/23 08:58:39.3      29   -160    119    163    201 169.5  39.7  34062  287.91 0855.23
2009/04/23 08:58:39.4       0   -157    101    158    187 180.0  35.6  34066  287.98 0855.23
2009/04/23 08:58:39.5      -1   -189     87    190    208 180.5  26.4  34066  287.99 0855.23
2009/04/23 08:58:39.6     -25   -183     90    185    205 187.8  27.4  34064  287.96 0855.23
2009/04/23 08:58:39.7     -23   -198     71    200    212 186.7  20.2  34062  287.92 0855.23
2009/04/23 08:58:39.8     -30   -184     58    187    196 189.3  17.3  34064  287.96 0855.23
2009/04/23 08:58:39.9       2   -114     -2    115    116 178.6  -1.2  34064  287.96 0855.23
2009/04/23 08:58:40.0      47    -88     45    100    109 151.9  26.2  34066  287.99 0855.23
2009/04/23 08:58:40.1      40   -101     14    109    110 158.2   7.5  34064  287.94 0855.23
2009/04/23 08:58:40.2      26    -89     39     93    100 163.5  24.1  34066  287.99 0855.23
2009/04/23 08:58:40.3      13    -88      4     90     91 171.1   2.9  34064  287.96 0855.23
2009/04/23 08:58:40.4      32    -84      4     90     91 159.1   2.9  34064  287.96 0855.23
2009/04/23 08:58:40.5      37    -75      2     84     85 153.7   1.8  34064  287.96 0855.23
2009/04/23 08:58:40.6      66    -54     23     86     90 129.5  15.3  34066  287.99 0855.23
2009/04/23 08:58:40.7      66    -42     35     79     86 122.5  25.1  34066  287.99 0855.23
2009/04/23 08:58:40.8      69    -95     67    118    135 143.9  32.4  34066  287.98 0855.23
2009/04/23 08:58:40.9      41    -87     74     97    122 154.6  41.6  34066  287.98 0855.23
2009/04/23 08:58:41.0      60   -101     64    118    134 149.3  31.3  34064  287.94 0855.23
2009/04/23 08:58:41.1      62   -112     49    129    137 151.0  22.0  34064  287.94 0855.23
2009/04/23 08:58:41.2      58   -106     33    122    127 151.1  15.3  34062  287.92 0855.23
2009/04/23 08:58:41.3      45    -88     37    100    106 152.8  20.4  34062  287.92 0855.23
2009/04/23 08:58:41.4      59    -66     57     89    105 138.1  35.6  34066  287.99 0855.23
2009/04/23 08:58:41.5      61    -39     68     73     99 122.4  48.0  34066  287.98 0855.23
2009/04/23 08:58:41.6      64    -17     63     67     91 105.1  48.5  34066  287.98 0855.23
2009/04/23 08:58:41.7      52     -8     51     53     73  98.8  50.0  34066  287.99 0855.23
2009/04/23 08:58:41.8      30    -18     43     36     56 120.7  56.3  34066  287.99 0855.23
2009/04/23 08:58:41.9      16    -21     56     27     62 142.2  72.9  34068  288.03 0855.22
2009/04/23 08:58:42.0      17    -27     47     33     57 147.4  61.5  34068  288.03 0855.22
2009/04/23 08:58:42.1      37    -14     56     40     68 111.7  60.6  34068  288.03 0855.22
2009/04/23 08:58:42.2      68    -27     44     74     86 111.7  34.0  34070  288.06 0855.22
2009/04/23 08:58:42.3      15    -31     58     35     67 154.6  65.7  34072  288.08 0855.22
2009/04/23 08:58:42.4      13      8     57     16     59  57.6  84.8  34074  288.11 0855.22
2009/04/23 08:58:42.5       4     39     43     40     58   6.2  51.2  34072  288.09 0855.22
2009/04/23 08:58:42.6      82    -14     66     84    106 100.1  42.7  34072  288.08 0855.22
2009/04/23 08:58:42.7     107    -29     58    112    126 105.5  29.3  34070  288.04 0855.22
2009/04/23 08:58:42.8      90    -32     55     96    110 110.0  32.4  34068  288.01 0855.22
2009/04/23 08:58:42.9      96    -34     35    102    108 109.5  18.9  34064  287.96 0855.22
2009/04/23 08:58:43.0     157    -59    102    168    196 110.6  34.2  34062  287.91 0855.22
2009/04/23 08:58:43.1      64   -103    110    122    164 148.4  46.9  34062  287.91 0855.22
2009/04/23 08:58:43.2      45    -48     83     67    106 136.8  56.4  34066  287.98 0855.22
2009/04/23 08:58:43.3       5    -17     57     18     59 161.7  81.8  34066  287.98 0855.22
2009/04/23 08:58:43.4       5    -67    113     68    131 175.6  66.2  34064  287.94 0855.22
2009/04/23 08:58:43.5      10    -45     82     47     94 166.6  67.2  34066  287.98 0855.22
2009/04/23 08:58:43.6      -4    -51     96     52    109 184.5  68.9  34064  287.96 0855.22
2009/04/23 08:58:43.7       6    -77     89     78    118 175.5  54.3  34062  287.92 0855.22
2009/04/23 08:58:43.8       1   -115    107    116    157 179.1  47.7  34064  287.96 0855.22
2009/04/23 08:58:43.9      -4    -72    124     73    143 183.6  66.8  34064  287.96 0855.22
2009/04/23 08:58:44.0     -42    -97    128    106    166 203.6  56.3  34062  287.92 0855.22
2009/04/23 08:58:44.1     -12   -118     60    119    133 186.2  28.2  34064  287.96 0855.22
2009/04/23 08:58:44.2     -31   -108     58    113    127 196.0  29.3  34064  287.94 0855.22
2009/04/23 08:58:44.3     -52   -130     54    141    150 201.8  22.0  34064  287.96 0855.22
2009/04/23 08:58:44.4     -34   -139     59    144    155 193.8  23.1  34066  287.98 0855.22
2009/04/23 08:58:44.5      -9    -94     78     95    122 185.8  43.7  34066  287.98 0855.22
2009/04/23 08:58:44.6      -8   -105     66    106    124 184.4  35.5  34064  287.96 0855.22
2009/04/23 08:58:44.7     -26   -100     75    104    128 194.7  39.5  34064  287.96 0855.22
2009/04/23 08:58:44.8     -30    -84     71     90    114 199.6  42.7  34064  287.96 0855.22
2009/04/23 08:58:44.9      -3    -62     49     63     79 183.6  42.2  34066  287.99 0855.22
2009/04/23 08:58:45.0      18    -54     71     58     91 161.3  56.4  34068  288.01 0855.22
2009/04/23 08:58:45.1       2    -48     73     49     87 177.3  63.2  34066  287.98 0855.22
2009/04/23 08:58:45.2       0    -16     68     17     70 182.7  86.9  34070  288.04 0855.22
2009/04/23 08:58:45.3      15     -2     55     16     57  97.9  82.8  34068  288.03 0855.22
2009/04/23 08:58:45.4     -20     -8     57     22     61 248.3  78.2  34072  288.08 0855.22
2009/04/23 08:58:45.5      34    -69     48     78     91 153.7  35.0  34066  287.99 0855.22
2009/04/23 08:58:45.6      67    -67     64     95    114 135.0  36.5  34064  287.96 0855.22
2009/04/23 08:58:45.7      95    -15     53     97    110  99.2  31.3  34068  288.01 0855.22
2009/04/23 08:58:45.8      83      0     51     84     98  89.6  34.4  34070  288.04 0855.22
2009/04/23 08:58:45.9      73     14     44     75     86  78.6  33.5  34080  288.21 0855.23
2009/04/23 08:58:46.0      62     10     33     63     71  80.3  30.3  34082  288.25 0855.23
2009/04/23 08:58:46.1      52     -3     44     53     68  94.3  43.8  34080  288.23 0855.23
2009/04/23 08:58:46.2      51      3     57     52     77  86.5  52.2  34070  288.06 0855.23
2009/04/23 08:58:46.3      45     13     59     47     75  73.2  56.4  34066  287.99 0855.23
2009/04/23 08:58:46.4      45      6     37     46     59  82.1  43.7  34064  287.96 0855.23
2009/04/23 08:58:46.5      52      9     51     53     73  79.4  50.0  34068  288.03 0855.23
2009/04/23 08:58:46.6      40      8     42     41     58  77.6  48.2  34068  288.03 0855.23
2009/04/23 08:58:46.7     -10      0     46     11     47 265.6  86.9  34070  288.06 0855.23
2009/04/23 08:58:46.8     -30    -34     58     46     74 222.3  56.4  34070  288.04 0855.23
2009/04/23 08:58:46.9     -27     -7     41     29     50 254.9  61.5  34066  287.99 0855.23
2009/04/23 08:58:47.0       2      1     31      3     31  57.6  90.0  34066  287.98 0855.23
2009/04/23 08:58:47.1     -15     26     24     31     39 329.3  43.7  34068  288.01 0855.23
2009/04/23 08:58:47.2     -15    -17     31     23     38 221.4  58.5  34066  287.98 0855.23
2009/04/23 08:58:47.3       5    -33     58     34     67 170.2  66.8  34066  287.99 0855.23
2009/04/23 08:58:47.4       5    -80     56     81     98 176.4  37.6  34066  287.98 0855.23
2009/04/23 08:58:47.5      12    -95     47     96    106 172.4  27.8  34062  287.92 0855.23
2009/04/23 08:58:47.6      -3    -78     54     79     95 182.7  37.0  34062  287.91 0855.23
2009/04/23 08:58:47.7     -41    -78     64     89    109 208.1  39.5  34066  287.98 0855.23
2009/04/23 08:58:47.8     -30    -75     71     81    107 201.8  45.8  34064  287.96 0855.23
2009/04/23 08:58:47.9     -32    -92     80     98    126 199.6  43.7  34062  287.92 0855.23
2009/04/23 08:58:48.0    -124    -90    -54    154    164 234.1 -19.4  34062  287.92 0855.23
2009/04/23 08:58:48.1    -165    -76    -62    182    192 245.2 -23.3  34062  287.91 0855.23
2009/04/23 08:58:48.2    -176    -90    -46    198    204 242.9 -13.3  34060  287.89 0855.23
2009/04/23 08:58:48.3    -156     11     37    157    162 274.3  13.2  34062  287.92 0855.23
2009/04/23 08:58:48.4    -152    -55     21    162    164 250.1   7.5  34062  287.92 0855.23
2009/04/23 08:58:48.5    -120    -87     23    149    151 234.0   9.0  34058  287.86 0855.23
2009/04/23 08:58:48.6    -138    -88     13    164    165 237.5   4.6  34064  287.94 0855.23
2009/04/23 08:58:48.7     -98    -59     14    115    116 238.9   7.1  34068  288.01 0855.23
2009/04/23 08:58:48.8     -80    -53     -3     97     98 236.3  -2.2  34064  287.94 0855.23
2009/04/23 08:58:48.9     -55    -52     18     76     79 226.8  13.2  34064  287.94 0855.23
2009/04/23 08:58:49.0     -68    -82     76    107    131 219.7  39.1  34064  287.96 0855.23
2009/04/23 08:58:49.1     -70    -96     74    119    140 216.1  35.5  34062  287.92 0855.23
2009/04/23 08:58:49.2     -95   -113     74    148    165 220.1  28.7  34062  287.91 0855.23
2009/04/23 08:58:49.3     -70   -103     74    125    145 214.3  33.5  34062  287.92 0855.23
2009/04/23 08:58:49.4     -66   -103     65    123    139 212.5  30.3  34062  287.92 0855.23
2009/04/23 08:58:49.5     -51   -115     63    127    141 204.1  28.2  34064  287.94 0855.23
2009/04/23 08:58:49.6     -58   -140     56    152    161 202.7  21.0  34064  287.96 0855.23
2009/04/23 08:58:49.7     -68   -124     45    142    150 209.0  17.7  34062  287.92 0855.23
2009/04/23 08:58:49.8     -85   -134     75    159    175 212.5  27.1  34076  288.16 0855.23
2009/04/23 08:58:49.9     -90    -93     62    130    144 224.1  27.3  34076  288.16 0855.23
2009/04/23 08:58:50.0     -85    -62     63    106    123 234.0  33.5  34074  288.11 0855.23
2009/04/23 08:58:50.1     -62    -39     77     74    106 237.6  51.2  34074  288.11 0855.23
2009/04/23 08:58:50.2       6    -70     76     71    104 174.7  52.1  34068  288.01 0855.23
2009/04/23 08:58:50.3     -17    -77     50     79     93 192.5  35.5  34068  288.01 0855.23
2009/04/23 08:58:50.4     -31    -31     22     44     49 225.0  27.3  34068  288.01 0855.23
2009/04/23 08:58:50.5     -14    -64     39     66     76 192.5  34.4  34066  287.99 0855.23
2009/04/23 08:58:50.6      -8    -63     44     64     77 188.0  37.6  34060  287.89 0855.23
2009/04/23 08:58:50.7     -13    -47     61     49     78 196.0  56.4  34062  287.92 0855.23
2009/04/23 08:58:50.8      -7    -34     66     35     74 191.6  69.8  34064  287.94 0855.23
2009/04/23 08:58:50.9     -13    -41     50     44     66 197.8  53.3  34064  287.94 0855.22
2009/04/23 08:58:51.0     -23    -39     51     46     68 210.7  52.2  34062  287.92 0855.22
2009/04/23 08:58:51.1     -29    -15     47     33     57 242.9  61.5  34066  287.98 0855.22
2009/04/23 08:58:51.2     -29    -25     59     39     70 228.7  64.6  34064  287.94 0855.22
2009/04/23 08:58:51.3     -39    -47     52     62     80 219.7  44.8  34056  287.82 0855.22
2009/04/23 08:58:51.4     -51    -58     63     78    100 221.4  43.3  34060  287.87 0855.22
2009/04/23 08:58:51.5     -39    -40     66     56     86 224.2  54.8  34060  287.89 0855.22
2009/04/23 08:58:51.6     -30      0     58     31     65 270.0  68.9  34060  287.89 0855.22
2009/04/23 08:58:51.7       1     12     53     13     54   8.0  85.9  34070  288.04 0855.22
2009/04/23 08:58:51.8      33     21     82     40     91  57.6  72.4  34108  288.69 0855.22
2009/04/23 08:58:51.9     131     62     91    146    172  64.6  35.0  34132  289.09 0855.22
2009/04/23 08:58:52.0     119     94     71    152    167  51.8  27.0  34128  289.02 0855.22
2009/04/23 08:58:52.2      82     77    147    113    185  46.8  58.5  34128  289.04 0855.22
2009/04/23 08:58:52.2      86     -6    178     87    198  94.3  72.1  34126  288.99 0855.22
2009/04/23 08:58:52.4      84      0    127     85    152  90.0  63.6  34126  288.99 0855.22
2009/04/23 08:58:52.5     169     16     44    170    176  84.5  14.5  34140  289.24 0855.22
2009/04/23 08:58:52.6     224      5     33    225    228  88.5   8.5  34094  288.47 0855.22
2009/04/23 08:58:52.7     235     10    -22    236    238  87.4  -5.4  34098  288.51 0855.22
2009/04/23 08:58:52.8     274     10     58    275    282  87.9  12.0  34194  290.14 0855.22
2009/04/23 08:58:52.9     292    -45    110    296    315  98.8  21.4  34188  290.03 0855.22
2009/04/23 08:58:53.0     299     22     52    300    305  85.6  10.0  34124  288.97 0855.22
2009/04/23 08:58:53.1     376      3     89    377    388  89.4  13.3  34132  289.11 0855.22
2009/04/23 08:58:53.2     376     15    134    377    400  87.7  20.2  34098  288.52 0855.22
2009/04/23 08:58:53.3     305     13    100    306    323  87.5  18.2  34102  288.58 0855.22
2009/04/23 08:58:53.4     400     39    -36    402    404  84.3  -5.2  34098  288.51 0855.22
2009/04/23 08:58:53.5     438     88      2    447    448  78.6   0.4  34092  288.43 0855.22
2009/04/23 08:58:53.6     382    115     49    399    403  73.2   7.1  34116  288.84 0855.22
2009/04/23 08:58:53.7     431    103     70    444    450  76.5   9.0  34100  288.56 0855.22
2009/04/23 08:58:53.8     402     46     -8    405    406  83.4  -1.2  34090  288.38 0855.22
2009/04/23 08:58:53.9     339     76    -19    348    349  77.3  -3.1  34084  288.30 0855.22
2009/04/23 08:58:54.0     353    117    130    372    394  71.6  20.1  34126  288.99 0855.22
2009/04/23 08:58:54.1     326    142     96    356    369  66.4  15.1  34108  288.69 0855.22
2009/04/23 08:58:54.2     253     84     83    267    280  71.6  17.3  34102  288.58 0855.22
2009/04/23 08:58:54.3     323    -15     71    324    332  92.8  12.5  34088  288.35 0855.22
2009/04/23 08:58:54.4     362     32     64    364    370  84.9  10.0  34090  288.40 0855.22
2009/04/23 08:58:54.5     389     33     46    391    394  85.0   6.8  34094  288.44 0855.22
2009/04/23 08:58:54.6     391     75    -27    399    400  79.1  -3.9  34100  288.54 0855.22
2009/04/23 08:58:54.7     286    124     34    312    314  66.5   6.4  34106  288.65 0855.22
2009/04/23 08:58:54.8     117    151     16    192    193  37.8   4.9  34110  288.74 0855.22
2009/04/23 08:58:54.9     186    119     10    221    222  57.4   2.8  34120  288.91 0855.22
2009/04/23 08:58:55.0     287     95     20    303    304  71.6   3.9  34108  288.68 0855.21
2009/04/23 08:58:55.1     271     74     35    281    284  74.7   7.1  34120  288.90 0855.21
2009/04/23 08:58:55.2     303     92     -3    317    318  73.1  -0.6  34116  288.81 0855.21
2009/04/23 08:58:55.3     254     64     36    262    265  75.8   8.0  34104  288.63 0855.21
2009/04/23 08:58:55.4     302     91     23    316    317  73.2   4.3  34114  288.78 0855.21
2009/04/23 08:58:55.5     287    105     38    306    309  69.8   7.1  34120  288.88 0855.21
2009/04/23 08:58:55.6     311     63     15    318    319  78.5   2.8  34112  288.76 0855.21
2009/04/23 08:58:55.7     291     68      4    299    300  76.7   0.8  34108  288.68 0855.21
2009/04/23 08:58:55.8     319     34      6    321    322  83.8   1.1  34100  288.54 0855.21
2009/04/23 08:58:55.9     254     76     72    266    276  73.2  15.3  34100  288.56 0855.21
2009/04/23 08:58:56.0     286    109     79    307    318  69.2  14.5  34142  289.25 0855.21
2009/04/23 08:58:56.1     273    115     84    297    309  67.2  15.9  34170  289.75 0855.21
2009/04/23 08:58:56.2     279     96     75    296    306  70.9  14.3  34162  289.59 0855.21
2009/04/23 08:58:56.3     308    116    110    330    349  69.3  18.5  34178  289.86 0855.21
2009/04/23 08:58:56.4     282     66    167    290    334  76.7  32.6  34214  290.48 0855.21
2009/04/23 08:58:56.5     284    103    139    303    333  70.0  26.4  34234  290.83 0855.21
2009/04/23 08:58:56.6     278     85    132    291    319  72.9  26.0  34184  289.98 0855.21
2009/04/23 08:58:56.7     269    145    124    306    330  61.6  23.4  34122  288.92 0855.21
2009/04/23 08:58:56.8     268    179    189    323    374  56.3  33.1  34184  289.99 0855.21
2009/04/23 08:58:56.9     283    205    162    350    385  54.1  26.9  34116  288.82 0855.21
2009/04/23 08:58:57.0     300     66    156    308    345  77.6  28.9  34114  288.79 0855.22
2009/04/23 08:58:57.1     324    -49    107    328    346  98.6  18.1  34114  288.79 0855.22
2009/04/23 08:58:57.2     325    -58     66    331    338 100.1  11.3  34104  288.64 0855.22
2009/04/23 08:58:57.3     312     14    111    313    332  87.4  20.2  34100  288.56 0855.22
2009/04/23 08:58:57.4     342     22    157    343    377  86.2  26.4  34096  288.49 0855.22
2009/04/23 08:58:57.5     293    -33    204    295    358  96.6  37.9  34098  288.52 0855.22
2009/04/23 08:58:57.6     244   -132     87    278    292 118.4  17.4  34098  288.51 0855.22
2009/04/23 08:58:57.7     252   -131     92    285    300 117.5  17.9  34096  288.48 0855.22
2009/04/23 08:58:57.8     288    -82     52    300    305 105.9   9.9  34100  288.56 0855.22
2009/04/23 08:58:57.9     238    -31    106    240    262  97.5  25.2  34098  288.51 0855.22
2009/04/23 08:58:58.0     235   -102     65    257    266 113.5  14.2  34094  288.44 0855.22
2009/04/23 08:58:58.1     205    -89     -4    224    225 113.5  -1.1  34090  288.40 0855.22
2009/04/23 08:58:58.2     244    -55     89    251    266 102.8  20.0  34092  288.41 0855.22
2009/04/23 08:58:58.3     223    -33     79    226    240  98.6  19.4  34090  288.39 0855.22
2009/04/23 08:58:58.4     235     45     69    240    250  79.0  16.0  34090  288.39 0855.22
2009/04/23 08:58:58.5     205     65    126    216    250  72.3  33.1  34092  288.41 0855.22
2009/04/23 08:58:58.6     209     83    117    226    254  68.2  29.3  34090  288.37 0855.22
2009/04/23 08:58:58.7     195     34     88    199    217  79.9  25.2  34090  288.38 0855.22
2009/04/23 08:58:58.8     260     83     23    274    276  72.2   4.9  34090  288.37 0855.22
2009/04/23 08:58:58.9     315    134     40    343    346  66.9   6.7  34102  288.60 0855.22
2009/04/23 08:58:59.0     234    212     74    316    325  47.8  13.3  34100  288.54 0855.22
2009/04/23 08:58:59.1     211     57     76    219    232  74.9  19.2  34092  288.42 0855.22
2009/04/23 08:58:59.2     315      6     -9    316    317  88.7  -1.8  34084  288.27 0855.22
2009/04/23 08:58:59.3     303     66     37    311    314  77.7   6.9  34080  288.21 0855.22
2009/04/23 08:58:59.4     346     82     21    356    357  76.6   3.5  34086  288.33 0855.22
2009/04/23 08:58:59.5     279    137     73    311    320  63.8  13.2  34088  288.34 0855.22
2009/04/23 08:58:59.6     220    145    161    264    309  56.5  34.4  34098  288.51 0855.22
2009/04/23 08:58:59.7     235    194    107    305    323  50.5  20.1  34108  288.68 0855.22
2009/04/23 08:58:59.8     241    229    100    333    348  46.4  16.8  34090  288.40 0855.22
2009/04/23 08:58:59.9     221    176     88    283    297  51.4  17.3  34098  288.53 0855.22
2009/04/23 08:59:00.0     253    114     31    278    280  65.6   6.5  34092  288.43 0855.22
2009/04/23 08:59:00.1     236     58     12    244    245  76.1   2.9  34090  288.39 0855.22
2009/04/23 08:59:00.2     242     96     77    261    273  68.3  16.4  34092  288.43 0855.22
2009/04/23 08:59:00.3     239     84     89    254    270  70.5  19.4  34092  288.41 0855.22
2009/04/23 08:59:00.4     306     22     31    307    309  85.9   5.8  34090  288.39 0855.22
2009/04/23 08:59:00.5     307     92     16    321    322  73.2   2.9  34122  288.93 0855.22
2009/04/23 08:59:00.6     270     85     79    284    295  72.5  15.6  34136  289.15 0855.22
2009/04/23 08:59:00.7     281     66     78    289    300  76.7  15.2  34138  289.20 0855.22
2009/04/23 08:59:00.8     230     75    184    243    304  71.8  40.9  34138  289.19 0855.22
2009/04/23 08:59:00.9     230     89    182    247    306  68.7  39.7  34152  289.44 0855.22
2009/04/23 08:59:01.0     229    108    107    254    275  64.7  24.2  34116  288.83 0855.21
2009/04/23 08:59:01.1     212     26    148    214    260  82.8  38.4  34144  289.29 0855.21
2009/04/23 08:59:01.2     202     82    140    219    259  67.8  35.6  34154  289.47 0855.21
2009/04/23 08:59:01.3     207     28    100    209    231  82.1  27.3  34136  289.18 0855.21
2009/04/23 08:59:01.4     103     19    120    105    159  79.4  54.6  34130  289.08 0855.21
2009/04/23 08:59:01.5     137      0    147    138    201  90.0  52.1  34102  288.60 0855.21
2009/04/23 08:59:01.6     153      0    152    154    216  89.6  49.9  34090  288.40 0855.21
2009/04/23 08:59:01.7     129      9    161    130    206  85.7  56.6  34112  288.77 0855.21
2009/04/23 08:59:01.8     180    -12    111    181    212  94.1  35.0  34140  289.24 0855.21
2009/04/23 08:59:01.9     209     18    123    210    243  85.0  33.1  34150  289.41 0855.21
2009/04/23 08:59:02.0     244     35     41    247    251  81.6   9.5  34116  288.83 0855.21
2009/04/23 08:59:02.1     275     64     55    283    289  76.8  11.1  34126  288.98 0855.21
2009/04/23 08:59:02.2     275     87     48    289    293  72.3   9.5  34130  289.07 0855.21
2009/04/23 08:59:02.3     233    101     49    255    260  66.5  11.0  34148  289.36 0855.21
2009/04/23 08:59:02.4     214     57    104    222    245  74.9  27.1  34138  289.19 0855.21
2009/04/23 08:59:02.5     235     25     52    237    243  83.9  12.4  34136  289.17 0855.21
2009/04/23 08:59:02.6     214     43     68    219    230  78.5  17.3  34142  289.28 0855.21
2009/04/23 08:59:02.7     263      7     88    264    279  88.3  18.4  34106  288.65 0855.21
2009/04/23 08:59:02.8     263    -19    137    264    297  94.3  29.3  34100  288.56 0855.21
2009/04/23 08:59:02.9     277    -20    104    278    296  94.3  21.5  34098  288.51 0855.21
2009/04/23 08:59:03.0     239    -34     99    242    261  98.1  23.1  34100  288.56 0855.22
2009/04/23 08:59:03.1     219     82     90    234    250  69.4  22.0  34114  288.80 0855.22
2009/04/23 08:59:03.2     238     20    111    239    263  85.0  27.1  34122  288.92 0855.22
2009/04/23 08:59:03.3     289     13    116    290    312  87.4  22.9  34106  288.66 0855.22
2009/04/23 08:59:03.4     259     69     98    269    286  75.0  20.9  34114  288.78 0855.22
2009/04/23 08:59:03.5     303     13     49    304    309  87.5   9.2  34102  288.59 0855.22
2009/04/23 08:59:03.6     233    -88     28    250    252 110.8   6.5  34102  288.58 0855.22
2009/04/23 08:59:03.7     138    -76    -43    158    164 118.8 -15.5  34104  288.64 0855.22
2009/04/23 08:59:03.8     157   -110    -65    192    202 125.1 -23.3  34102  288.58 0855.22
2009/04/23 08:59:03.9     137   -105    -55    173    181 127.5 -22.8  34102  288.58 0855.22
2009/04/23 08:59:04.0     136    -92    -45    165    172 124.2 -15.4  34104  288.62 0855.22
2009/04/23 08:59:04.1     120    -91    -36    151    156 127.3 -13.7  34102  288.58 0855.22
2009/04/23 08:59:04.2     143    -56    -37    154    159 111.7 -13.7  34106  288.65 0855.22
2009/04/23 08:59:04.3     103    -32     21    108    111 107.3  11.0  34104  288.64 0855.22
2009/04/23 08:59:04.4      61    -27     26     67     71 114.4  22.0  34104  288.64 0855.22
2009/04/23 08:59:04.5      38     -2     65     39     75  94.3  64.7  34106  288.67 0855.22
2009/04/23 08:59:04.6      26    -28     96     39    103 136.6  77.1  34106  288.67 0855.22
2009/04/23 08:59:04.7      -7    -67    100     68    120 186.2  62.6  34104  288.62 0855.22
2009/04/23 08:59:04.8     -19    -64    102     67    122 196.9  63.6  34110  288.74 0855.22
2009/04/23 08:59:04.9      -5   -110      5    111    112 182.7   2.8  34104  288.64 0855.22
2009/04/23 08:59:05.0     -19   -136    -67    138    153 188.0 -31.7  34100  288.55 0855.21
2009/04/23 08:59:05.1     -80    -52    -26     96    100 237.1 -15.5  34100  288.57 0855.21
2009/04/23 08:59:05.2    -125   -125    -60    177    188 225.0 -18.9  34106  288.65 0855.21
2009/04/23 08:59:05.3    -181   -159    -28    242    244 228.7  -6.7  34172  289.78 0855.21
2009/04/23 08:59:05.4    -212   -183    -10    281    282 229.1  -2.2  34142  289.27 0855.21
2009/04/23 08:59:05.5    -193   -182      2    266    267 226.7   0.5  34142  289.25 0855.21
2009/04/23 08:59:05.6    -173   -177     -9    248    249 224.3  -2.1  34110  288.71 0855.21
2009/04/23 08:59:05.7    -156   -164     -9    227    228 223.7  -2.3  34082  288.25 0855.21
2009/04/23 08:59:05.8    -139   -167     -1    218    219 219.9  -0.3  34082  288.25 0855.21
2009/04/23 08:59:05.9    -144   -173     11    226    227 219.7   2.8  34082  288.25 0855.21
2009/04/23 08:59:06.0    -146   -154      9    213    214 223.4   2.5  34080  288.23 0855.21
2009/04/23 08:59:06.1    -150   -150      4    213    214 225.0   1.2  34082  288.25 0855.21
2009/04/23 08:59:06.2    -144   -169    -12    223    224 220.5  -3.1  34082  288.26 0855.21
2009/04/23 08:59:06.3    -167   -172    -11    240    241 224.1  -2.8  34084  288.29 0855.21
2009/04/23 08:59:06.4    -155   -176    -38    235    239 221.4  -9.3  34088  288.34 0855.21
2009/04/23 08:59:06.5    -146   -167    -34    222    225 221.2  -8.8  34084  288.30 0855.21
2009/04/23 08:59:06.6    -133   -161    -22    210    212 219.6  -6.0  34084  288.28 0855.21
2009/04/23 08:59:06.7    -135   -126     -9    185    186 226.9  -2.8  34080  288.23 0855.21
2009/04/23 08:59:06.8    -157   -114     14    195    196 234.0   4.4  34084  288.28 0855.21
2009/04/23 08:59:06.9    -162   -105     -6    194    195 236.9  -1.8  34086  288.33 0855.21
2009/04/23 08:59:07.0    -172   -124    -11    213    214 234.3  -3.1  34084  288.28 0855.21
2009/04/23 08:59:07.1    -199    -60    -42    208    213 253.2 -11.5  34106  288.67 0855.21
2009/04/23 08:59:07.2    -190    -34    -69    194    207 259.6 -19.7  34106  288.65 0855.21
2009/04/23 08:59:07.3    -178    -48    -65    185    197 254.7 -19.6  34100  288.55 0855.21
2009/04/23 08:59:07.4    -153    -48    -39    161    166 252.3 -13.7  34100  288.55 0855.21
2009/04/23 08:59:07.5    -152    -53    -19    162    164 250.7  -6.9  34088  288.36 0855.21
2009/04/23 08:59:07.6    -152    -52    -21    161    163 250.9  -7.5  34090  288.40 0855.21
2009/04/23 08:59:07.7    -140    -77    -14    160    161 241.1  -5.2  34090  288.38 0855.21
2009/04/23 08:59:07.8    -122    -73    -18    143    145 239.3  -7.3  34090  288.40 0855.21
2009/04/23 08:59:07.9    -165    -35    -21    169    171 257.8  -7.2  34128  289.02 0855.21
2009/04/23 08:59:08.0    -209    -15    -16    210    211 265.9  -4.6  34126  289.01 0855.21
2009/04/23 08:59:08.1    -225      1     -8    226    227 270.4  -2.2  34100  288.57 0855.21
2009/04/23 08:59:08.2    -226     10    -44    227    232 272.6 -11.1  34086  288.33 0855.21
2009/04/23 08:59:08.3    -216    -41    -84    220    235 259.2 -26.4  34086  288.33 0855.21
2009/04/23 08:59:08.4    -194   -108    -81    223    237 240.9 -25.4  34088  288.36 0855.21
2009/04/23 08:59:08.5    -175   -126    -66    216    225 234.3 -22.1  34086  288.33 0855.21
2009/04/23 08:59:08.6    -154   -128    -68    201    213 230.2 -18.7  34086  288.33 0855.21
2009/04/23 08:59:08.7    -141   -121    -79    186    202 229.3 -28.7  34086  288.33 0855.21
2009/04/23 08:59:08.8    -155   -110    -94    191    212 234.5 -32.4  34080  288.23 0855.21
2009/04/23 08:59:08.9     -79    -96   -121    125    173 219.6 -53.8  34080  288.23 0855.21
2009/04/23 08:59:09.0     -24    -79   -101     83    130 197.4 -60.8  34086  288.31 0855.21
2009/04/23 08:59:09.1      28   -175    -81    178    195 170.9 -30.6  34084  288.28 0855.21
2009/04/23 08:59:09.2      15   -192    -80    193    208 175.5 -28.0  34094  288.47 0855.21
2009/04/23 08:59:09.3     -49   -150    -67    159    172 198.3 -28.5  34112  288.75 0855.21
2009/04/23 08:59:09.4     -47   -152    -34    160    164 197.4 -12.2  34116  288.84 0855.21
2009/04/23 08:59:09.5    -110   -149    -10    186    187 216.3  -3.2  34114  288.79 0855.21
2009/04/23 08:59:09.6    -170   -103    -38    200    204 238.7 -10.9  34110  288.72 0855.21
2009/04/23 08:59:09.7    -182    -54    -13    190    191 253.4  -4.1  34102  288.60 0855.21
2009/04/23 08:59:09.8    -252    -23    -73    254    265 264.7 -16.0  34098  288.51 0855.21
2009/04/23 08:59:09.9    -198     10    -52    199    206 273.0 -14.7  34106  288.65 0855.21
2009/04/23 08:59:10.0    -242     44    -50    247    253 280.4 -11.6  34118  288.87 0855.21
2009/04/23 08:59:10.1    -246     77    -51    258    264 287.5 -11.3  34118  288.85 0855.21
2009/04/23 08:59:10.2    -229     61     10    238    239 285.1   2.5  34108  288.68 0855.21
2009/04/23 08:59:10.3    -129    -48     26    138    141 249.6  11.0  34112  288.75 0855.21
2009/04/23 08:59:10.4     -82    -27     30     87     93 251.8  19.2  34104  288.62 0855.21
2009/04/23 08:59:10.5     -54   -137    -53    148    157 201.8 -24.8  34104  288.64 0855.21
2009/04/23 08:59:10.6     -26   -149    -52    152    161 190.2 -19.1  34106  288.65 0855.21
2009/04/23 08:59:10.7     -58   -146    -44    158    164 201.8 -20.4  34104  288.62 0855.21
2009/04/23 08:59:10.8     -51   -160    -68    169    182 197.8 -27.4  34100  288.57 0855.21
2009/04/23 08:59:10.9     -15   -144    -72    145    161 186.3 -32.6  34102  288.58 0855.21
2009/04/23 08:59:11.0      11   -107    -62    108    124 173.8 -37.3  34102  288.58 0855.21
2009/04/23 08:59:11.1      20    -60    -41     64     76 161.3 -39.9  34102  288.60 0855.21
2009/04/23 08:59:11.2     -27    -31    -40     42     58 221.4 -55.5  34100  288.55 0855.21
2009/04/23 08:59:11.3     -61    -18    -40     64     75 253.2 -39.9  34102  288.58 0855.21
2009/04/23 08:59:11.4     -66    -39    -53     77     93 239.3 -42.0  34102  288.58 0855.21
2009/04/23 08:59:11.5     -60    -57    -45     84     95 226.4 -34.7  34102  288.58 0855.21
2009/04/23 08:59:11.6     -46   -149     -4    157    158 197.4  -1.6  34098  288.52 0855.21
2009/04/23 08:59:11.7     -69   -125    -39    143    149 209.0 -15.5  34098  288.52 0855.21
2009/04/23 08:59:11.8     -47   -134    -11    143    144 199.6  -4.6  34096  288.48 0855.21
2009/04/23 08:59:11.9     -33   -173    -49    177    184 190.9 -15.5  34092  288.42 0855.21
2009/04/23 08:59:12.0     -41   -166    -60    172    182 194.0 -24.0  34094  288.47 0855.21
2009/04/23 08:59:12.1     -88   -167    -49    189    196 207.9 -14.7  34092  288.42 0855.21
2009/04/23 08:59:12.2     -44   -186     -3    192    193 193.4  -1.2  34092  288.42 0855.21
2009/04/23 08:59:12.3     -70   -211     -4    223    224 198.5  -1.3  34094  288.47 0855.21
2009/04/23 08:59:12.4     -77   -150     22    169    171 207.2   7.5  34092  288.43 0855.21
2009/04/23 08:59:12.5    -100   -127     46    162    169 218.3  16.0  34094  288.47 0855.21
2009/04/23 08:59:12.6    -116   -140     35    183    187 219.7  11.0  34088  288.35 0855.21
2009/04/23 08:59:12.7    -111   -115     22    161    163 223.9   8.0  34086  288.31 0855.21
2009/04/23 08:59:12.8    -107    -95     13    144    145 228.2   5.4  34086  288.33 0855.21
2009/04/23 08:59:12.9    -114    -67    -27    133    136 239.4 -11.5  34086  288.33 0855.21
2009/04/23 08:59:13.0    -109    -69    -27    130    133 237.6 -11.9  34086  288.33 0855.21
2009/04/23 08:59:13.1    -113    -88    -51    144    154 232.2 -19.7  34086  288.31 0855.21
2009/04/23 08:59:13.2     -74    -71    -31    103    107 226.0 -22.3  34086  288.33 0855.21
2009/04/23 08:59:13.3     -58    -79    -45     99    108 216.5 -31.0  34086  288.33 0855.21
2009/04/23 08:59:13.4     -51    -67    -44     85     95 217.4 -33.7  34090  288.38 0855.21
2009/04/23 08:59:13.5     -27    -64    -27     70     75 202.7 -25.4  34088  288.36 0855.21
2009/04/23 08:59:13.6       3    -62     17     63     66 176.4  15.3  34086  288.31 0855.21
2009/04/23 08:59:13.7      -5    -66     18     67     70 184.5  15.3  34088  288.35 0855.21
2009/04/23 08:59:13.8       3    -62     45     63     77 176.4  39.5  34086  288.33 0855.21
2009/04/23 08:59:13.9       4    -78     45     79     90 176.4  32.4  34086  288.33 0855.21
2009/04/23 08:59:14.0     -27   -100     39    104    111 195.6  21.5  34088  288.35 0855.20
2009/04/23 08:59:14.1     -41    -93     24    102    105 204.1  13.7  34086  288.33 0855.20
2009/04/23 08:59:14.2     -22    -90    -31     93     99 193.8 -18.7  34090  288.38 0855.20
2009/04/23 08:59:14.3     -13   -122    -30    123    127 186.3 -13.9  34088  288.36 0855.20
2009/04/23 08:59:14.4      20   -145    -29    147    150 172.0 -11.3  34088  288.35 0855.20
2009/04/23 08:59:14.5      15   -146    -42    147    153 173.8 -16.0  34088  288.35 0855.20
2009/04/23 08:59:14.6      49   -143    -29    152    155 160.8 -11.1  34086  288.33 0855.20
2009/04/23 08:59:14.7      61   -142    -43    155    161 156.8 -15.5  34084  288.30 0855.20
2009/04/23 08:59:14.8      84   -122    -45    149    156 145.3 -17.0  34086  288.33 0855.20
2009/04/23 08:59:14.9      58   -105      4    121    122 151.0   2.3  34082  288.26 0855.20
2009/04/23 08:59:15.0      16   -107     36    109    115 171.1  18.4  34084  288.28 0855.20
2009/04/23 08:59:15.1     -20   -107     28    109    113 190.7  14.7  34084  288.28 0855.20
2009/04/23 08:59:15.2      -4   -109     21    110    113 182.2  11.0  34086  288.33 0855.20
2009/04/23 08:59:15.3      41   -118     33    126    131 160.8  14.7  34082  288.25 0855.20
2009/04/23 08:59:15.4      27   -136     36    139    144 168.4  14.7  34082  288.26 0855.20
2009/04/23 08:59:15.5       0   -153     21    154    156 180.4   7.8  34084  288.30 0855.20
2009/04/23 08:59:15.6     -14   -160     13    161    162 185.3   4.9  34082  288.26 0855.20
2009/04/23 08:59:15.7      30   -127      6    131    132 166.6   2.8  34082  288.25 0855.20
2009/04/23 08:59:15.8      74   -116      5    138    139 147.5   2.3  34082  288.25 0855.20
2009/04/23 08:59:15.9      43   -127      1    135    136 161.3   0.8  34080  288.23 0855.20
2009/04/23 08:59:16.0      21   -136     -3    138    139 171.1  -1.3  34084  288.28 0855.21
2009/04/23 08:59:16.1       9   -106     44    107    115 175.1  23.1  34082  288.26 0855.21
2009/04/23 08:59:16.2     -17   -121     57    123    135 188.0  27.1  34082  288.26 0855.21
2009/04/23 08:59:16.3      -2   -113     57    114    127 181.4  28.2  34082  288.26 0855.21
2009/04/23 08:59:16.4     -17    -77     37     79     87 192.5  26.6  34082  288.26 0855.21
2009/04/23 08:59:16.5     -20    -79     35     82     89 194.3  24.1  34082  288.26 0855.21
2009/04/23 08:59:16.6     -13    -87     40     89     97 188.9  25.7  34082  288.26 0855.21
2009/04/23 08:59:16.7      40   -109     40    117    124 159.5  18.9  34082  288.25 0855.21
2009/04/23 08:59:16.8      46   -107     23    117    120 156.4  11.1  34080  288.23 0855.21
2009/04/23 08:59:16.9      26    -77     30     82     87 161.3  20.4  34080  288.23 0855.21
2009/04/23 08:59:17.0      29    -76     49     82     95 158.6  34.4  34078  288.20 0855.21
2009/04/23 08:59:17.1      48    -36     41     60     72 126.9  37.6  34080  288.21 0855.21
2009/04/23 08:59:17.2      61    -18     26     64     69 106.8  23.0  34080  288.21 0855.21
2009/04/23 08:59:17.3      64     -4     36     65     74  94.4  31.4  34076  288.16 0855.21
2009/04/23 08:59:17.4      79      8     77     80    111  83.9  49.0  34078  288.18 0855.21
2009/04/23 08:59:17.5      30     13     64     33     72  66.5  71.9  34082  288.26 0855.21
2009/04/23 08:59:17.6      -5     24     55     25     60 348.4  73.1  34084  288.28 0855.21
2009/04/23 08:59:17.7     -11     18     49     22     53 329.3  75.0  34082  288.26 0855.21
2009/04/23 08:59:17.8       4     85     51     86     99   2.7  33.5  34082  288.25 0855.21
2009/04/23 08:59:17.9      -9     65     44     66     79 352.0  37.0  34080  288.23 0855.21
2009/04/23 08:59:18.0     -10     69     56     70     89 351.1  43.3  34078  288.20 0855.21
2009/04/23 08:59:18.1     -49     93     36    106    113 332.4  18.9  34080  288.23 0855.21
2009/04/23 08:59:18.2     -45     95     50    106    117 334.5  27.1  34080  288.21 0855.21
2009/04/23 08:59:18.3     -52     81     40     97    104 327.5  23.0  34080  288.21 0855.21
2009/04/23 08:59:18.4     -48    117     24    127    130 337.7  11.0  34086  288.33 0855.21
2009/04/23 08:59:18.6     -60    110     61    126    139 331.1  27.3  34084  288.30 0855.21
2009/04/23 08:59:18.7     -54    148     66    158    171 339.9  24.1  34088  288.35 0855.21
2009/04/23 08:59:18.8     -52    143     78    153    171 339.9  28.7  34090  288.40 0855.21
2009/04/23 08:59:18.9     -66    119     95    137    166 331.0  38.4  34086  288.31 0855.21
2009/04/23 08:59:19.0     -72    126     34    146    150 330.1  13.2  34088  288.35 0855.21
2009/04/23 08:59:19.1     -83     57     15    102    104 304.6   8.5  34082  288.26 0855.21
2009/04/23 08:59:19.2     -57     28     74     64     97 296.2  54.3  34078  288.20 0855.21
2009/04/23 08:59:19.3     -47     35     61     59     84 306.9  50.1  34078  288.18 0855.21
2009/04/23 08:59:19.4     -35     21     11     42     44 301.5  15.3  34080  288.23 0855.21
2009/04/23 08:59:19.5     -18     35     11     40     42 331.9  15.3  34078  288.18 0855.21
2009/04/23 08:59:19.6    -106     22     35    109    115 281.9  17.9  34078  288.18 0855.21
2009/04/23 08:59:19.7    -160      3     28    161    164 271.3  10.1  34080  288.23 0855.21
2009/04/23 08:59:19.8    -154      6      8    155    156 272.5   3.3  34080  288.21 0855.21
2009/04/23 08:59:19.9    -139     12     30    140    144 275.2  12.2  34076  288.14 0855.21
2009/04/23 08:59:20.0    -105     18     88    107    138 280.1  43.7  34078  288.18 0855.21
2009/04/23 08:59:20.1    -148     31     29    152    155 281.9  11.0  34072  288.09 0855.21
2009/04/23 08:59:20.2    -106     49     38    117    124 294.8  17.9  34076  288.14 0855.21
2009/04/23 08:59:20.3    -108     97     21    146    148 311.8   8.5  34136  289.16 0855.21
2009/04/23 08:59:20.4     -77    -51     72     93    117 236.7  41.7  34136  289.16 0855.21
2009/04/23 08:59:20.5     -31      0     53     32     61 269.2  65.7  34138  289.19 0855.21
2009/04/23 08:59:20.6     -72    125     65    145    158 330.1  25.9  34140  289.24 0855.21
2009/04/23 08:59:20.7    -152    141     20    208    210 312.9   5.7  34144  289.31 0855.21
2009/04/23 08:59:20.8    -151    174     17    231    232 319.0   4.4  34140  289.23 0855.21
2009/04/23 08:59:20.9    -103    124    -13    162    163 320.4  -4.6  34130  289.08 0855.21
2009/04/23 08:59:21.0     -40    123     -8    130    131 341.7  -3.7  34134  289.13 0855.21
2009/04/23 08:59:21.1     -31    135     18    139    141 346.7   7.5  34112  288.75 0855.21
2009/04/23 08:59:21.2     -36    119      0    125    126 343.1   0.2  34102  288.58 0855.21
2009/04/23 08:59:21.3     -49    112      8    123    124 336.4   3.8  34102  288.58 0855.21
2009/04/23 08:59:21.4     -55     96     -4    111    112 330.1  -2.2  34106  288.67 0855.21
2009/04/23 08:59:21.5     -38    115     20    122    124 341.7   9.5  34098  288.52 0855.21
2009/04/23 08:59:21.6     -36     77     23     86     90 334.6  15.3  34094  288.45 0855.21
2009/04/23 08:59:21.7     -71     27     24     77     81 290.8  17.9  34104  288.62 0855.21
2009/04/23 08:59:21.8     -82     49     18     96     98 301.1  10.6  34098  288.53 0855.21
2009/04/23 08:59:21.9     -59     31     56     67     87 298.0  44.3  34100  288.57 0855.21
2009/04/23 08:59:22.0     -32      3     23     33     40 276.1  38.6  34096  288.48 0855.21
2009/04/23 08:59:22.1      23     25     45     35     57  43.2  57.5  34088  288.36 0855.20
2009/04/23 08:59:22.2      57     26     77     63     99  65.6  56.4  34084  288.30 0855.20
2009/04/23 08:59:22.3      67     73     90    100    134  42.3  46.9  34088  288.35 0855.20
2009/04/23 08:59:22.4      68     75     91    102    136  42.3  46.4  34088  288.35 0855.20
2009/04/23 08:59:22.5      43    120     83    128    152  20.0  35.6  34096  288.50 0855.20
2009/04/23 08:59:22.6      37     80     94     89    129  24.9  51.6  34094  288.47 0855.20
2009/04/23 08:59:22.7      47    129     60    138    150  20.1  25.1  34092  288.42 0855.20
2009/04/23 08:59:22.8      85     90     68    124    141  43.3  31.3  34086  288.33 0855.20
2009/04/23 08:59:22.9      99     91     90    135    162  47.3  37.0  34090  288.38 0855.20
2009/04/23 08:59:23.0      63    117     80    134    156  28.5  34.0  34092  288.42 0855.20
2009/04/23 08:59:23.1      29     99     62    104    121  16.5  33.5  34094  288.47 0855.20
2009/04/23 08:59:23.2     128     58     87    141    165  65.6  35.0  34092  288.43 0855.20
2009/04/23 08:59:23.3     166     66     38    179    184  68.2  12.2  34096  288.50 0855.20
2009/04/23 08:59:23.4     181     63     14    192    193  70.7   4.4  34136  289.16 0855.20
2009/04/23 08:59:23.5     103     85     97    134    165  50.5  39.3  34114  288.80 0855.20
2009/04/23 08:59:23.6     132     68    104    149    181  62.5  38.6  34172  289.77 0855.20
2009/04/23 08:59:23.7     145     20     96    147    175  82.0  35.7  34168  289.70 0855.20
2009/04/23 08:59:23.8      91     32     82     97    127  70.5  44.8  34168  289.72 0855.20
2009/04/23 08:59:23.9      94     95     65    134    148  44.5  27.3  34192  290.13 0855.20
2009/04/23 08:59:24.0     120    118     87    169    190  45.3  29.3  34234  290.84 0855.20
2009/04/23 08:59:24.1     166     66     61    179    190  68.3  18.9  34218  290.57 0855.20
2009/04/23 08:59:24.2     207     90     32    227    230  66.4   8.2  34162  289.60 0855.20
2009/04/23 08:59:24.3     220    148     72    266    276  56.0  15.2  34228  290.71 0855.20
2009/04/23 08:59:24.4     168    109    104    201    226  57.1  29.3  34252  291.13 0855.20
2009/04/23 08:59:24.5     176     83    110    195    223  64.6  31.9  34242  290.98 0855.20
2009/04/23 08:59:24.6     181     60    165    191    252  71.6  45.4  34246  291.04 0855.20
2009/04/23 08:59:24.7     226     74    131    238    271  71.8  31.4  34224  290.65 0855.20
2009/04/23 08:59:24.8     230     79    106    244    266  70.9  25.1  34156  289.49 0855.20
2009/04/23 08:59:24.9     212     25     46    214    219  83.2  12.2  34132  289.11 0855.20
2009/04/23 08:59:25.0     182     37    170    186    251  78.5  47.1  34202  290.27 0855.20
2009/04/23 08:59:25.1     166     34    170    170    240  78.3  50.1  34168  289.72 0855.20
2009/04/23 08:59:25.2     171     48     71    178    191  74.1  23.0  34104  288.64 0855.20
2009/04/23 08:59:25.3     154      2     38    155    160  89.1  13.9  34118  288.86 0855.20
2009/04/23 08:59:25.4     147     39     47    153    161  74.9  17.1  34112  288.77 0855.20
2009/04/23 08:59:25.5     160     84     64    181    191  62.2  20.0  34102  288.60 0855.20
2009/04/23 08:59:25.6     186    103     50    213    219  60.9  13.2  34118  288.87 0855.20
2009/04/23 08:59:25.7     172    100     75    200    213  59.8  21.0  34114  288.79 0855.20
2009/04/23 08:59:25.8     188     80     72    205    218  66.9  19.4  34122  288.92 0855.20
2009/04/23 08:59:25.9     195    145     37    244    247  53.4   8.8  34142  289.25 0855.20
2009/04/23 08:59:26.0     178    157     42    238    242  48.4  10.1  34138  289.19 0855.20
2009/04/23 08:59:26.1     148    139     94    204    224  46.7  27.0  34138  289.19 0855.20
2009/04/23 08:59:26.2      82    173    113    192    222  25.6  33.4  34210  290.43 0855.20
2009/04/23 08:59:26.3     171     74     63    187    198  66.5  18.6  34200  290.26 0855.20
2009/04/23 08:59:26.4     202     95     57    224    232  64.9  14.3  34184  289.97 0855.20
2009/04/23 08:59:26.5     210     49     78    216    230  76.8  19.9  34206  290.36 0855.20
2009/04/23 08:59:26.6     254     82     64    267    275  72.1  13.5  34200  290.24 0855.20
2009/04/23 08:59:26.7     220     40     81    224    239  79.6  19.9  34182  289.93 0855.20
2009/04/23 08:59:26.8     236     77     19    249    250  71.8   4.6  34148  289.37 0855.20
2009/04/23 08:59:26.9     281    111     30    303    305  68.3   5.7  34170  289.73 0855.20
2009/04/23 08:59:27.0     258    104     97    279    296  68.0  19.2  34160  289.56 0855.20
2009/04/23 08:59:27.1     288     98     57    305    311  71.2  10.6  34138  289.20 0855.20
2009/04/23 08:59:27.2     277    128     99    306    322  65.2  18.0  34162  289.61 0855.20
2009/04/23 08:59:27.3     303    125     70    328    336  67.5  12.1  34144  289.30 0855.20
2009/04/23 08:59:27.4     240     98     66    260    269  67.8  14.3  34144  289.31 0855.20
2009/04/23 08:59:27.5     317    107    117    335    356  71.3  19.3  34136  289.16 0855.20
2009/04/23 08:59:27.6     356    121    157    377    408  71.2  23.9  34112  288.77 0855.20
2009/04/23 08:59:27.7     380    131     79    403    411  70.9  11.1  34086  288.33 0855.20
2009/04/23 08:59:27.8     357    120     29    377    379  71.4   4.5  34100  288.54 0855.20
2009/04/23 08:59:27.9     329    155     70    364    371  64.8  11.0  34078  288.18 0855.20
2009/04/23 08:59:28.0     408    148     82    435    443  70.0  10.7  34106  288.67 0855.20
2009/04/23 08:59:28.1     386    108    212    401    453  74.3  30.2  34086  288.33 0855.20
2009/04/23 08:59:28.2     354    118    206    374    426  71.6  31.3  34096  288.50 0855.20
2009/04/23 08:59:28.3     319     66    163    326    364  78.2  28.5  34074  288.13 0855.20
2009/04/23 08:59:28.4     257    -39    174    261    313  98.8  36.9  34104  288.63 0855.20
2009/04/23 08:59:28.5     248    -80    123    261    288 107.9  27.1  34122  288.92 0855.20
2009/04/23 08:59:28.6     153   -153    140    217    258 135.0  35.7  34130  289.07 0855.20
2009/04/23 08:59:28.7     266   -157    103    310    327 120.6  18.4  34086  288.31 0855.20
2009/04/23 08:59:28.8     239   -213    118    321    342 131.8  21.0  34116  288.81 0855.20
2009/04/23 08:59:28.9     256   -221     87    339    351 130.9  14.5  34130  289.06 0855.20
2009/04/23 08:59:29.0     201   -188    116    276    299 133.1  24.1  34142  289.27 0855.20
2009/04/23 08:59:29.1     224    -92    161    243    291 112.4  36.5  34096  288.48 0855.20
2009/04/23 08:59:29.2     221   -133    152    259    300 121.1  33.4  34094  288.44 0855.20
2009/04/23 08:59:29.3     182   -106    136    211    251 120.4  35.6  34086  288.31 0855.20
2009/04/23 08:59:29.4     204   -129    150    242    284 122.4  35.0  34090  288.37 0855.20
2009/04/23 08:59:29.5     133    -40     95    139    168 106.8  37.6  34090  288.38 0855.20
2009/04/23 08:59:29.6     157    -94     82    183    200 120.9  25.7  34122  288.94 0855.20
2009/04/23 08:59:29.7      81   -119     78    145    164 145.7  30.6  34180  289.91 0855.20
2009/04/23 08:59:29.8     130   -111     95    172    196 130.4  31.3  34118  288.86 0855.20
2009/04/23 08:59:29.9      90   -174    120    196    229 152.6  34.8  34180  289.91 0855.20
2009/04/23 08:59:30.0      59   -200    107    209    234 163.5  29.3  34146  289.33 0855.20
2009/04/23 08:59:30.1      19   -179     51    181    189 173.8  15.8  34144  289.31 0855.20
2009/04/23 08:59:30.2       0   -194    104    195    221 180.0  30.3  34162  289.60 0855.20
2009/04/23 08:59:30.3      44   -159     62    166    177 164.4  21.5  34144  289.31 0855.20
2009/04/23 08:59:30.4     -12   -131     83    132    155 185.3  35.5  34138  289.21 0855.20
2009/04/23 08:59:30.5      17    -95    112     97    148 169.8  54.8  34118  288.86 0855.20
2009/04/23 08:59:30.6       3   -150    118    151    191 178.6  42.2  34108  288.70 0855.20
2009/04/23 08:59:30.7      38   -137     78    143    162 164.4  31.0  34092  288.42 0855.20
2009/04/23 08:59:30.8      43   -144     58    151    161 163.1  22.0  34090  288.40 0855.20
2009/04/23 08:59:30.9      46   -162     61    169    179 164.2  20.4  34088  288.36 0855.20
2009/04/23 08:59:31.0      69   -146     76    162    178 154.7  27.1  34078  288.20 0855.20
2009/04/23 08:59:31.1      79   -112    122    138    184 144.8  46.2  34080  288.23 0855.20
2009/04/23 08:59:31.2     101    -96     91    140    166 133.6  36.0  34076  288.14 0855.20
2009/04/23 08:59:31.3     104    -93     80    140    161 131.8  32.4  34080  288.21 0855.20
2009/04/23 08:59:31.4      88    -88     76    125    146 134.9  34.4  34078  288.18 0855.20
2009/04/23 08:59:31.5     122    -83     90    148    173 124.2  34.8  34072  288.09 0855.20
2009/04/23 08:59:31.6     104    -77     67    130    146 126.4  29.3  34084  288.30 0855.20
2009/04/23 08:59:31.7     102    -55     70    117    136 118.4  34.0  34086  288.31 0855.20
2009/04/23 08:59:31.8      73    -17     73     75    104 103.3  50.0  34086  288.31 0855.20
2009/04/23 08:59:31.9      96    -41     82    105    133 113.5  42.2  34082  288.25 0855.20
2009/04/23 08:59:32.0      89    -64     76    110    133 126.0  37.6  34082  288.25 0855.20
2009/04/23 08:59:32.1      94    -36     55    101    115 111.3  31.4  34084  288.28 0855.20
2009/04/23 08:59:32.2      70    -18     56     73     92 105.1  41.7  34084  288.30 0855.20
2009/04/23 08:59:32.3      69     -7     61     70     92  96.1  45.8  34086  288.31 0855.20
2009/04/23 08:59:32.4      43    -26     59     51     77 120.7  54.3  34084  288.30 0855.20
2009/04/23 08:59:32.5      78    -23     49     82     95 106.4  34.4  34090  288.40 0855.20
2009/04/23 08:59:32.6     102    -14     43    103    111  97.9  23.6  34102  288.58 0855.20
2009/04/23 08:59:32.7     133    -38     57    139    150 105.9  23.1  34088  288.35 0855.20
2009/04/23 08:59:32.8     142    -38     49    147    156 105.0  18.6  34086  288.33 0855.20
2009/04/23 08:59:32.9     133    -44     36    141    146 108.4  14.3  34088  288.35 0855.20
2009/04/23 08:59:33.0     100    -33     46    106    115 108.2  25.1  34082  288.25 0855.20
2009/04/23 08:59:33.1     122    -37     70    128    145 106.9  31.4  34086  288.31 0855.20
2009/04/23 08:59:33.2      78    -41     58     89    106 118.0  35.6  34096  288.48 0855.20
2009/04/23 08:59:33.3      18    -51     73     55     91 160.8  59.0  34076  288.14 0855.20
2009/04/23 08:59:33.4      25    -39     64     47     79 147.5  60.0  34068  288.03 0855.20
2009/04/23 08:59:33.5      26     26     54     37     65  45.1  62.6  34074  288.13 0855.20
2009/04/23 08:59:33.6      54     34     75     65     99  57.6  54.8  34074  288.11 0855.20
2009/04/23 08:59:33.7       2    -15     51     16     53 172.0  80.7  34106  288.67 0855.20
2009/04/23 08:59:33.8     -12    -40     31     42     52 196.9  40.7  34106  288.65 0855.20
2009/04/23 08:59:33.9      31    -30     25     44     50 134.0  32.4  34090  288.40 0855.20
2009/04/23 08:59:34.0      74      0     38     75     84  90.0  28.7  34098  288.52 0855.20
2009/04/23 08:59:34.1     103     14     59    104    119  82.1  31.9  34126  288.99 0855.20
2009/04/23 08:59:34.2     140      4    107    141    177  88.3  41.2  34156  289.50 0855.20
2009/04/23 08:59:34.3     129     24     84    132    156  79.4  35.5  34172  289.77 0855.20
2009/04/23 08:59:34.4     134     41     51    141    149  73.1  20.4  34190  290.09 0855.20
2009/04/23 08:59:34.5     131      9     89    132    159  85.7  37.3  34148  289.38 0855.20
2009/04/23 08:59:34.6      36    -43     62     57     84 140.4  52.2  34100  288.57 0855.20
2009/04/23 08:59:34.7      17   -103     71    105    126 170.7  37.4  34106  288.65 0855.20
2009/04/23 08:59:34.8     -22   -108     53    111    123 191.6  27.2  34080  288.23 0855.20
2009/04/23 08:59:34.9     -44   -133      9    141    142 198.3   3.8  34088  288.36 0855.20
2009/04/23 08:59:35.0     -24   -119     51    122    132 191.5  23.6  34096  288.48 0855.20
2009/04/23 08:59:35.1     -24   -159    159    161    226 188.9  49.9  34084  288.28 0855.21
2009/04/23 08:59:35.2      43   -141    140    148    203 163.1  48.5  34072  288.08 0855.21
2009/04/23 08:59:35.3      -3   -223    132    224    260 180.9  33.4  34068  288.02 0855.21
2009/04/23 08:59:35.4      44   -248    128    253    283 169.8  29.1  34074  288.12 0855.21
2009/04/23 08:59:35.5      73   -219    152    231    276 161.5  36.5  34078  288.17 0855.21
2009/04/23 08:59:35.6      62   -230    135    239    274 164.8  31.9  34066  287.99 0855.21
2009/04/23 08:59:35.7      52   -218    126    225    257 166.4  31.4  34066  287.99 0855.21
2009/04/23 08:59:35.8      35   -178    145    182    232 168.9  42.7  34072  288.08 0855.21
2009/04/23 08:59:35.9      67   -146     85    161    182 155.1  30.1  34070  288.06 0855.21
2009/04/23 08:59:36.0     102    -73     82    126    150 125.5  35.6  34090  288.38 0855.21
2009/04/23 08:59:36.1      58   -102     53    118    129 150.1  26.2  34074  288.13 0855.21
2009/04/23 08:59:36.2      69   -112     45    132    140 148.4  18.9  34076  288.14 0855.21
2009/04/23 08:59:36.3     115    -73     17    137    139 122.5   7.1  34080  288.23 0855.21
2009/04/23 08:59:36.4     193     65     48    204    210  71.2  13.2  34096  288.50 0855.21
2009/04/23 08:59:36.5     204    129     27    242    244  57.6   6.5  34108  288.68 0855.21
2009/04/23 08:59:36.6      83     80   -171    116    206  46.0 -67.1  34102  288.58 0855.21
2009/04/23 08:59:36.7     122    -17   -150    124    194  97.9 -60.7  34094  288.45 0855.21
2009/04/23 08:59:36.8     281     66     19    289    290  76.8   3.9  34106  288.66 0855.21
2009/04/23 08:59:36.9     293     61    -40    300    303  78.1  -7.7  34112  288.76 0855.21
2009/04/23 08:59:37.0     189     10    -86    190    208  86.7 -30.6  34106  288.65 0855.21
2009/04/23 08:59:37.1      69     74     -4    102    103  43.2  -2.2  34108  288.70 0855.21
2009/04/23 08:59:37.2     127    142    -22    191    193  41.7  -6.7  34108  288.69 0855.21
2009/04/23 08:59:37.3      61    101    -99    119    154  31.2 -48.2  34106  288.67 0855.21
2009/04/23 08:59:37.4      30     92      7     97     98  18.3   4.4  34106  288.67 0855.21
2009/04/23 08:59:37.5     120     92     -8    152    153  52.3  -3.1  34110  288.72 0855.21
2009/04/23 08:59:37.6      79     87     49    118    127  42.3  23.6  34110  288.74 0855.21
2009/04/23 08:59:37.7      98     99     -7    140    141  44.5  -3.1  34104  288.62 0855.21
2009/04/23 08:59:37.8     123     78    -52    146    156  57.5 -19.6  34080  288.21 0855.21
2009/04/23 08:59:37.9     182     86     -5    202    203  64.5  -1.6  34086  288.31 0855.21
2009/04/23 08:59:38.0     219     58     32    227    230  75.0   8.0  34096  288.50 0855.21
2009/04/23 08:59:38.1     230     46     50    235    241  78.6  12.2  34100  288.54 0855.21
2009/04/23 08:59:38.2     270     43     73    274    284  80.8  15.0  34096  288.48 0855.21
2009/04/23 08:59:38.3     202     54    104    210    234  74.9  28.2  34096  288.48 0855.21
2009/04/23 08:59:38.4     187    -38     39    192    197 101.7  11.6  34102  288.58 0855.21
2009/04/23 08:59:38.5     156     34     53    160    169  77.4  18.4  34098  288.53 0855.21
2009/04/23 08:59:38.6     190     30     21    193    195  81.0   6.5  34092  288.42 0855.21
2009/04/23 08:59:38.7     179     62    -24    190    192  70.9  -7.2  34088  288.36 0855.21
2009/04/23 08:59:38.8     170    108     29    202    205  57.6   8.2  34102  288.60 0855.21
2009/04/23 08:59:38.9     156    104     65    188    200  56.3  19.2  34110  288.72 0855.21
2009/04/23 08:59:39.0     160    110     49    195    202  55.4  14.3  34106  288.65 0855.21
2009/04/23 08:59:39.1     188    118    -12    223    224  57.8  -3.2  34092  288.43 0855.21
2009/04/23 08:59:39.2     201    102     22    226    228  63.1   5.7  34092  288.42 0855.21
2009/04/23 08:59:39.3     238    119    -14    267    268  63.4  -3.1  34090  288.39 0855.21
2009/04/23 08:59:39.4     215    136    -46    255    260  57.8 -10.4  34090  288.37 0855.21
2009/04/23 08:59:39.5     186     89     10    207    208  64.5   2.9  34098  288.53 0855.21
2009/04/23 08:59:39.6     183     -8     53    184    192  92.6  16.0  34092  288.43 0855.21
2009/04/23 08:59:39.7     109    -38     41    116    124 109.5  19.4  34094  288.47 0855.21
2009/04/23 08:59:39.8      79    -36     59     88    105 114.8  36.5  34094  288.45 0855.21
2009/04/23 08:59:39.9      53    -24     91     59    108 114.4  64.6  34090  288.38 0855.21
2009/04/23 08:59:40.0      18    -89    109     91    141 168.4  56.3  34094  288.47 0855.21
2009/04/23 08:59:40.1     -36   -134    113    139    179 195.2  43.5  34096  288.50 0855.21
2009/04/23 08:59:40.2      -9   -119    113    120    164 184.5  48.5  34094  288.45 0855.21
2009/04/23 08:59:40.3      16   -123    110    125    166 172.4  45.8  34088  288.35 0855.21
2009/04/23 08:59:40.4      91    -50     91    105    138 118.9  45.8  34080  288.23 0855.21
2009/04/23 08:59:40.5     202     15     39    203    207  85.7  11.0  34102  288.58 0855.21
2009/04/23 08:59:40.6     213      3     50    214    220  89.1  13.2  34142  289.28 0855.21
2009/04/23 08:59:40.7     206     28    -74    208    220  82.1 -24.6  34110  288.72 0855.21
2009/04/23 08:59:40.8     109     34     86    115    143  72.7  40.1  34102  288.58 0855.21
2009/04/23 08:59:40.9      77      0    143     78    162  90.0  69.1  34098  288.53 0855.21
2009/04/23 08:59:41.0      73    -20    129     76    149 105.9  66.8  34082  288.26 0855.21
2009/04/23 08:59:41.1      38     -7    120     39    126 101.5  80.7  34112  288.75 0855.19
2009/04/23 08:59:41.2      12    -12    108     18    109 135.0  90.0  34122  288.94 0855.19
2009/04/23 08:59:41.3     343     27    150    345    376  85.4  25.0  34212  290.45 0855.19
2009/04/23 08:59:41.4     350     75     93    359    371  77.8  14.6  34210  290.42 0855.19
2009/04/23 08:59:41.5     340     98     74    355    363  73.8  11.8  34198  290.23 0855.19
2009/04/23 08:59:41.6     295    142    112    328    347  64.2  18.9  34164  289.64 0855.19
2009/04/23 08:59:41.7     247    136    102    283    302  61.1  19.9  34152  289.42 0855.19
2009/04/23 08:59:41.8     222    163     86    276    290  53.6  17.3  34152  289.44 0855.19
2009/04/23 08:59:41.9     259    209    103    334    350  51.1  17.2  34146  289.33 0855.19
2009/04/23 08:59:42.0     210    196    138    288    319  46.9  27.4  34178  289.88 0855.19
2009/04/23 08:59:42.1     259    117    155    285    324  65.6  30.8  34204  290.32 0855.19
2009/04/23 08:59:42.2     207    148    118    255    280  54.3  26.4  34206  290.36 0855.19
2009/04/23 08:59:42.3     203    167     98    264    281  50.5  21.0  34174  289.80 0855.19
2009/04/23 08:59:42.4     183    117     72    218    230  57.5  18.4  34170  289.75 0855.19
2009/04/23 08:59:42.5     228    114     85    256    271  63.4  18.5  34124  288.97 0855.19
2009/04/23 08:59:42.6     276    153     61    316    322  60.9  11.0  34140  289.24 0855.19
2009/04/23 08:59:42.7     280    169     57    328    333  58.8   9.9  34148  289.37 0855.19
2009/04/23 08:59:42.8     234    164     55    286    292  54.9  11.0  34148  289.36 0855.19
2009/04/23 08:59:42.9     230    162     52    282    287  54.9  10.6  34122  288.93 0855.19
2009/04/23 08:59:43.0     252    124     46    281    285  63.8   9.5  34138  289.20 0855.19
2009/04/23 08:59:43.1     266    145     90    304    318  61.4  16.5  34182  289.93 0855.18
2009/04/23 08:59:43.2     252    141     51    289    294  60.7  10.1  34172  289.76 0855.18
2009/04/23 08:59:43.3     255    156     31    300    302  58.5   5.9  34160  289.58 0855.18
2009/04/23 08:59:43.4     229    148     23    273    275  57.1   5.0  34164  289.63 0855.18
2009/04/23 08:59:43.5     177    158     20    238    239  48.2   4.9  34160  289.58 0855.18
2009/04/23 08:59:43.6     217    156     -5    268    269  54.3  -1.2  34142  289.27 0855.18
2009/04/23 08:59:43.7     220    162    -10    274    275  53.6  -2.1  34132  289.09 0855.18
2009/04/23 08:59:43.8     169    149    -23    226    228  48.7  -6.0  34128  289.02 0855.18
2009/04/23 08:59:43.9     163     29    -53    166    174  79.6 -23.0  34116  288.82 0855.18
2009/04/23 08:59:44.0     186      2    -29    187    190  89.2  -9.0  34092  288.42 0855.18
2009/04/23 08:59:44.1     184     51     -7    191    192  74.5  -2.2  34126  289.01 0855.18
2009/04/23 08:59:44.2     173     35    -16    177    178  78.3  -5.4  34106  288.65 0855.18
2009/04/23 08:59:44.3     133     40      5    140    141  73.1   2.3  34126  288.99 0855.18
2009/04/23 08:59:44.4     121    100      4    158    159  50.5   1.6  34144  289.30 0855.18
2009/04/23 08:59:44.5      78     78    -14    111    112  45.1  -7.7  34146  289.35 0855.18
2009/04/23 08:59:44.6      66    129     50    145    154  27.1  19.2  34154  289.48 0855.18
2009/04/23 08:59:44.7     100    101     22    143    145  44.5   9.0  34148  289.38 0855.18
2009/04/23 08:59:44.8     108     69      4    129    130  57.6   1.8  34142  289.26 0855.18
2009/04/23 08:59:44.9     127     50    -52    137    146  68.3 -25.9  34136  289.16 0855.18
2009/04/23 08:59:45.0     167     36    -61    171    182  77.8 -19.7  34110  288.72 0855.18
2009/04/23 08:59:45.1     168     -8    -47    169    176  93.0 -15.5  34082  288.26 0855.18
2009/04/23 08:59:45.3     161    -22    -70    163    177  97.9 -29.0  34100  288.55 0855.18
2009/04/23 08:59:45.3     148    -28    -71    151    166 101.0 -31.5  34098  288.52 0855.18
2009/04/23 08:59:45.4     156    -45    -33    163    167 106.2 -11.6  34092  288.42 0855.18
2009/04/23 08:59:45.5     142    -78    -61    163    174 118.9 -25.7  34092  288.43 0855.18
2009/04/23 08:59:45.6     123    -49    -47    133    142 111.7 -19.7  34084  288.30 0855.18
2009/04/23 08:59:45.7     147    -58    -46    159    166 111.7 -16.4  34088  288.36 0855.18
2009/04/23 08:59:45.8     158    -61    -29    170    173 111.1  -9.8  34088  288.36 0855.18
2009/04/23 08:59:45.9     178    -70      9    192    193 111.7   2.8  34098  288.53 0855.18
2009/04/23 08:59:46.0     207    -58     42    215    220 105.7  11.1  34106  288.67 0855.18
2009/04/23 08:59:46.2     196    -46     33    202    205 103.3   9.5  34092  288.43 0855.18
2009/04/23 08:59:46.3     192    -30     -5    195    196  99.0  -1.6  34072  288.09 0855.18
2009/04/23 08:59:46.4     211     13      7    212    213  86.3   2.1  34106  288.67 0855.18
2009/04/23 08:59:46.5     267     21     -5    268    269  85.4  -1.2  34124  288.95 0855.18
2009/04/23 08:59:46.6     234     -7     12    235    236  91.9   3.1  34132  289.09 0855.18
2009/04/23 08:59:46.7     198     -3    112    199    228  90.9  31.6  34236  290.86 0855.18
2009/04/23 08:59:46.8     154     21     54    156    166  81.9  19.2  34180  289.91 0855.18
2009/04/23 08:59:46.9     202     93     81    223    237  65.2  21.0  34158  289.54 0855.18
2009/04/23 08:59:47.0     214     54    110    221    246  75.8  28.2  34166  289.68 0855.18
2009/04/23 08:59:47.1     211     91    132    230    265  66.7  32.4  34166  289.66 0855.18
2009/04/23 08:59:47.2     217     73    112    230    255  71.4  27.8  34128  289.03 0855.18
2009/04/23 08:59:47.3     234     68    205    244    318  73.6  44.3  34152  289.42 0855.18
2009/04/23 08:59:47.4     271    123    123    298    322  65.6  23.6  34130  289.07 0855.18
2009/04/23 08:59:47.5     267     36    157    270    312  82.3  32.9  34168  289.71 0855.18
2009/04/23 08:59:47.6     196     51    156    203    256  75.4  41.6  34202  290.27 0855.18
2009/04/23 08:59:47.7     166     27    140    169    219  80.8  43.8  34206  290.36 0855.18
2009/04/23 08:59:47.8      97      7    183     98    207  85.6  69.6  34218  290.57 0855.18
2009/04/23 08:59:47.9     274     34    296    277    405  82.8  52.2  34182  289.93 0855.18
2009/04/23 08:59:48.0     185     -6    246    186    308  91.9  59.2  34144  289.31 0855.18
2009/04/23 08:59:48.1     277     46    263    281    384  80.4  47.9  34090  288.38 0855.18
2009/04/23 08:59:48.2     178    124    198    217    293  55.1  47.1  34104  288.61 0855.18
2009/04/23 08:59:48.3     161    136    225    211    308  49.8  52.1  34092  288.41 0855.18
2009/04/23 08:59:48.4     182    -12    237    183    299  93.9  58.5  34086  288.32 0855.18
2009/04/23 08:59:48.5     246    -82    213    260    336 108.4  43.6  34088  288.34 0855.18
2009/04/23 08:59:48.6     313    -96    155    328    362 107.2  27.1  34084  288.30 0855.18
2009/04/23 08:59:48.7     266    -85     98    280    297 107.7  19.4  34080  288.21 0855.18
2009/04/23 08:59:48.8     293   -116     90    316    329 111.7  16.0  34080  288.21 0855.18
2009/04/23 08:59:48.9     319   -106     49    337    341 108.4   8.3  34090  288.40 0855.18
2009/04/23 08:59:49.0     312    -89     14    325    326 105.9   2.5  34102  288.58 0855.18
2009/04/23 08:59:49.1     260   -119     35    286    289 114.6   7.1  34092  288.41 0855.18
2009/04/23 08:59:49.2     268    -95    -11    285    286 109.7  -2.2  34100  288.54 0855.18
2009/04/23 08:59:49.3     192   -122     90    228    245 122.4  23.0  34080  288.22 0855.18
2009/04/23 08:59:49.4     203   -121    106    237    259 120.9  25.7  34084  288.29 0855.18
2009/04/23 08:59:49.5     282    -43    118    286    309  98.8  23.6  34072  288.07 0855.18
2009/04/23 08:59:49.6     211   -116     48    241    246 118.8  11.4  34072  288.09 0855.18
2009/04/23 08:59:49.7     164   -176     80    241    255 137.0  18.4  34080  288.22 0855.18
2009/04/23 08:59:49.8     138   -128    -14    189    190 132.7  -4.4  34074  288.13 0855.18
2009/04/23 08:59:49.9      96   -117    -43    152    158 140.4 -15.8  34078  288.18 0855.18
2009/04/23 08:59:50.0     118     60    -59    133    145  62.9 -29.6  34082  288.25 0855.18
2009/04/23 08:59:50.1     168      5    -48    169    176  88.3 -16.0  34088  288.35 0855.18
2009/04/23 08:59:50.2     247    -17     -9    248    249  94.1  -2.2  34092  288.41 0855.18
2009/04/23 08:59:50.3     438    186     65    476    481  67.0   7.8  34092  288.42 0855.18
2009/04/23 08:59:50.4     445     69     92    451    461  81.2  11.6  34078  288.19 0855.18
2009/04/23 08:59:50.5     370     28    139    371    396  85.6  21.5  34068  288.03 0855.18
2009/04/23 08:59:50.6     305   -143    121    338    359 115.2  20.6  34084  288.28 0855.18
2009/04/23 08:59:50.7     339    -52    105    343    359  98.8  17.0  34082  288.25 0855.18
2009/04/23 08:59:50.8     351     35    143    353    380  84.2  23.2  34080  288.22 0855.18
2009/04/23 08:59:50.9     295     84    209    307    371  74.1  37.6  34084  288.30 0855.18
2009/04/23 08:59:51.0     238     48    100    243    262  78.5  23.4  34072  288.09 0855.18
2009/04/23 08:59:51.1     406    -25     38    407    409  93.6   5.4  34084  288.28 0855.18
2009/04/23 08:59:51.2     357    -69     66    364    370 101.0  10.4  34084  288.28 0855.17
2009/04/23 08:59:51.3     404    -87    206    414    462 102.2  28.2  34082  288.24 0855.17
2009/04/23 08:59:51.4     257     54    252    263    364  78.1  48.7  34080  288.22 0855.17
2009/04/23 08:59:51.5     178     60    233    189    300  71.2  56.6  34074  288.12 0855.17
2009/04/23 08:59:51.6     182     43    172    188    254  76.5  47.1  34080  288.21 0855.17
2009/04/23 08:59:51.7     316    -20    105    317    335  93.6  18.4  34074  288.11 0855.17
2009/04/23 08:59:51.8     255    -90     90    271    286 109.5  18.4  34080  288.21 0855.17
2009/04/23 08:59:51.9     250    -87    116    265    289 109.3  25.2  34080  288.22 0855.17
2009/04/23 08:59:52.0     219    -79     95    234    252 110.0  23.1  34080  288.21 0855.17
2009/04/23 08:59:52.1     313    -79     83    323    334 104.2  14.5  34078  288.20 0855.17
2009/04/23 08:59:52.2     267     40     18    271    272  81.4   3.8  34086  288.31 0855.17
2009/04/23 08:59:52.3     223     -8     35    224    227  92.1   9.0  34078  288.18 0855.17
2009/04/23 08:59:52.4     311     19     44    312    316  86.5   8.1  34084  288.27 0855.17
2009/04/23 08:59:52.5     308    125      0    333    334  67.9   0.0  34088  288.35 0855.17
2009/04/23 08:59:52.6     259     54     43    265    269  78.1   9.3  34088  288.34 0855.17
2009/04/23 08:59:52.7     334     44     -4    337    338  82.4  -0.7  34090  288.38 0855.17
2009/04/23 08:59:52.8     350    110     18    368    369  72.5   2.9  34100  288.55 0855.17
2009/04/23 08:59:52.9     384    135     47    408    411  70.6   6.7  34110  288.72 0855.17
2009/04/23 08:59:53.0     313    152    103    349    365  64.1  16.5  34142  289.25 0855.17
2009/04/23 08:59:53.1     293    185     61    347    353  57.6  10.1  34152  289.42 0855.17
2009/04/23 08:59:53.2     346    206     57    403    408  59.3   8.1  34176  289.83 0855.17
2009/04/23 08:59:53.3     221    183     92    287    302  50.4  17.9  34230  290.76 0855.17
2009/04/23 08:59:53.4     275    188     59    334    340  55.6  10.1  34184  289.98 0855.17
2009/04/23 08:59:53.5     222    214     -6    309    310  46.0  -1.3  34174  289.81 0855.17
2009/04/23 08:59:53.6     216    189    -11    288    289  48.9  -2.2  34192  290.10 0855.17
2009/04/23 08:59:53.7     173    124    -27    214    216  54.3  -7.2  34210  290.41 0855.17
2009/04/23 08:59:53.8     156     40     20    162    164  75.6   7.2  34184  289.97 0855.17
2009/04/23 08:59:53.9      96     25     34    100    106  75.0  19.2  34192  290.11 0855.17
2009/04/23 08:59:54.0      20     42     63     47     78  25.4  59.0  34208  290.38 0855.17
2009/04/23 08:59:54.1       1     70     35     71     79   0.9  28.2  34202  290.28 0855.17
2009/04/23 08:59:54.2     -52     35     49     63     79 304.2  42.2  34198  290.21 0855.17
2009/04/23 08:59:54.3     -61    -22    -15     65     67 250.0 -13.4  34200  290.25 0855.17
2009/04/23 08:59:54.4     -50    -11    -59     52     78 257.6 -58.1  34206  290.36 0855.17
2009/04/23 08:59:54.5     -41      0    -40     42     58 270.0 -55.5  34210  290.41 0855.17
2009/04/23 08:59:54.6     -12    -31    -40     34     52 201.8 -59.8  34210  290.43 0855.17
2009/04/23 08:59:54.7      44    -44    -24     63     67 135.0 -25.4  34208  290.40 0855.17
2009/04/23 08:59:54.8      45     10    -58     47     74  77.6 -60.8  34208  290.40 0855.17
2009/04/23 08:59:54.9      41     26    -47     49     67  57.6 -54.4  34206  290.36 0855.17
2009/04/23 08:59:55.0      47    -26    -47     54     71 118.9 -49.2  34192  290.11 0855.17
2009/04/23 08:59:55.1      70    -33    -85     78    115 115.4 -56.6  34164  289.65 0855.17
2009/04/23 08:59:55.2     105     27   -101    109    148  75.4 -52.3  34180  289.92 0855.17
2009/04/23 08:59:55.3     102    -34    -85    108    137 108.4 -46.6  34180  289.91 0855.17
2009/04/23 08:59:55.4     124    -22   -101    126    161 100.1 -47.4  34104  288.62 0855.17
2009/04/23 08:59:55.5     175    -55   -160    184    243 107.5 -49.8  34112  288.77 0855.17
2009/04/23 08:59:55.6     290    -78    -99    301    317 105.1 -18.3  34164  289.63 0855.17
2009/04/23 08:59:55.7     324    -56    -35    329    331  99.9  -6.2  34198  290.23 0855.17
2009/04/23 08:59:55.8     321      5    -70    322    330  89.1 -12.4  34202  290.27 0855.17
2009/04/23 08:59:55.9     336    -30     39    338    341  95.2   6.7  34192  290.11 0855.17
2009/04/23 08:59:56.0     194    -24     81    196    212  97.2  23.6  34190  290.08 0855.17
2009/04/23 08:59:56.1     165     85     89    186    206  62.5  27.3  34218  290.57 0855.17
2009/04/23 08:59:56.2     200     43    223    205    302  77.6  52.5  34192  290.10 0855.17
2009/04/23 08:59:56.3     287     43    128    291    317  81.4  25.1  34194  290.14 0855.17
2009/04/23 08:59:56.4     236    132    136    271    303  60.7  28.5  34186  290.02 0855.17
2009/04/23 08:59:56.5     190    162     83    250    264  49.6  18.5  34180  289.92 0855.17
2009/04/23 08:59:56.6     110    142    136    180    225  37.8  41.2  34194  290.16 0855.17
2009/04/23 08:59:56.7      66    104    176    124    215  32.6  61.1  34192  290.11 0855.17
2009/04/23 08:59:56.8      39    115    142    122    187  18.7  55.0  34204  290.33 0855.17
2009/04/23 08:59:56.9     111    117    149    162    220  43.3  47.7  34218  290.57 0855.17
2009/04/23 08:59:57.0     101     95    107    139    175  46.9  41.7  34230  290.75 0855.17
2009/04/23 08:59:57.1     125     41     77    132    152  71.8  33.4  34242  290.98 0855.17
2009/04/23 08:59:57.2     103    -49     19    115    117 115.4   9.5  34184  289.99 0855.17
2009/04/23 08:59:57.3      26    -78     29     83     89 161.7  19.4  34174  289.82 0855.17
2009/04/23 08:59:57.4     -37   -109    112    116    161 198.7  49.2  34136  289.16 0855.17
2009/04/23 08:59:57.5      38    -40     89     56    105 135.9  64.7  34130  289.06 0855.17
2009/04/23 08:59:57.6      64     -4     73     65     97  94.4  53.3  34124  288.96 0855.17
2009/04/23 08:59:57.7      60    -32     85     69    109 118.0  56.4  34152  289.43 0855.17
2009/04/23 08:59:57.8      98     12     47     99    109  82.5  27.2  34180  289.91 0855.17
2009/04/23 08:59:57.9      65     37     46     76     88  60.2  34.4  34188  290.04 0855.17
2009/04/23 08:59:58.0      59     37     45     70     83  57.6  36.0  34194  290.14 0855.17
2009/04/23 08:59:58.1     -13     68     56     70     89 349.3  43.3  34192  290.13 0855.17
2009/04/23 08:59:58.2     -41     37     64     56     85 312.2  54.3  34180  289.92 0855.16
2009/04/23 08:59:58.3     -47     47     71     67     97 314.9  51.2  34168  289.70 0855.16
2009/04/23 08:59:58.4     -67     -3     49     68     83 267.4  39.7  34152  289.45 0855.16
2009/04/23 08:59:58.5     -51      0     65     52     83 270.0  56.9  34136  289.16 0855.16
2009/04/23 08:59:58.6     -27      9     53     29     60 288.6  68.8  34150  289.40 0855.16
2009/04/23 08:59:58.7      12      4     22     13     25  71.8  64.7  34170  289.75 0855.16
2009/04/23 08:59:58.8     120     16     68    122    139  82.1  31.4  34172  289.79 0855.16
2009/04/23 08:59:58.9     166     29     59    169    179  79.9  20.0  34178  289.89 0855.16
2009/04/23 08:59:59.0     121     84     63    148    160  55.4  24.3  34206  290.36 0855.16
2009/04/23 08:59:59.1     167     55    118    177    212  71.6  36.5  34204  290.31 0855.16
2009/04/23 08:59:59.2     221     92    146    240    280  67.4  34.4  34166  289.68 0855.16
2009/04/23 08:59:59.3     284     47     94    288    304  80.5  18.2  34130  289.05 0855.16
2009/04/23 08:59:59.4     256      0    120    257    283  90.0  27.1  34122  288.92 0855.16
2009/04/23 08:59:59.5     235    -35     90    238    254  98.6  22.0  34120  288.90 0855.16
2009/04/23 08:59:59.6     230    -35    112    233    258  98.8  27.3  34102  288.58 0855.16
2009/04/23 08:59:59.7     250     35    110    253    275  82.0  25.1  34160  289.58 0855.16
2009/04/23 08:59:59.8     244     61    -17    252    253  75.8  -3.9  34174  289.80 0855.16
